<?xml version="1.0" encoding="UTF-8" standalone="no" ?>
<gpx xmlns="http://www.topografix.com/GPX/1/1" xmlns:xsi="http://www.w3.org/2001/XMLSchema-instance" xsi:schemaLocation="http://www.topografix.com/GPX/1/1 http://www.topografix.com/GPX/1/1/gpx.xsd" version="1.1" creator="VisuGPX - https://www.visugpx.com">
  <metadata>
    <name>Dégrisage</name>
    <desc><![CDATA[DegrisageDegrisageDegrisageDegrisageDegrisageDegrisageDegrisage]]></desc>
  </metadata>
  <trk>
    <name><![CDATA[degrisage]]></name>
    <desc><![CDATA[]]></desc>
    <trkseg>
      <trkpt lat="47.51799" lon="6.77495">
        <ele>367.2</ele>
        <time>2014-06-01T07:44:06.292Z</time>
      </trkpt>
      <trkpt lat="47.51787" lon="6.77483">
        <ele>360.4</ele>
        <time>2014-06-01T07:44:07.277Z</time>
      </trkpt>
      <trkpt lat="47.51785" lon="6.77478">
        <ele>362.7</ele>
        <time>2014-06-01T07:44:09.281Z</time>
      </trkpt>
      <trkpt lat="47.51787" lon="6.77463">
        <ele>356.4</ele>
        <time>2014-06-01T07:44:10.275Z</time>
      </trkpt>
      <trkpt lat="47.51787" lon="6.77478">
        <ele>340.3</ele>
        <time>2014-06-01T07:44:12.259Z</time>
      </trkpt>
      <trkpt lat="47.51796" lon="6.77492">
        <ele>341.5</ele>
        <time>2014-06-01T07:44:13.255Z</time>
      </trkpt>
      <trkpt lat="47.51806" lon="6.77498">
        <ele>366.6</ele>
        <time>2014-06-01T07:44:14.255Z</time>
      </trkpt>
      <trkpt lat="47.51818" lon="6.775">
        <ele>376.1</ele>
        <time>2014-06-01T07:44:15.269Z</time>
      </trkpt>
      <trkpt lat="47.51783" lon="6.7742">
        <ele>686</ele>
        <time>2014-06-01T07:44:16.285Z</time>
      </trkpt>
      <trkpt lat="47.51782" lon="6.77451">
        <ele>546.8</ele>
        <time>2014-06-01T07:44:17.285Z</time>
      </trkpt>
      <trkpt lat="47.51786" lon="6.77499">
        <ele>455.3</ele>
        <time>2014-06-01T07:44:18.285Z</time>
      </trkpt>
      <trkpt lat="47.51799" lon="6.77507">
        <ele>462.7</ele>
        <time>2014-06-01T07:44:19.285Z</time>
      </trkpt>
      <trkpt lat="47.51799" lon="6.77499">
        <ele>448.1</ele>
        <time>2014-06-01T07:44:20.285Z</time>
      </trkpt>
      <trkpt lat="47.5178" lon="6.77499">
        <ele>448.1</ele>
        <time>2014-06-01T07:44:21.285Z</time>
      </trkpt>
      <trkpt lat="47.51775" lon="6.77529">
        <ele>447.7</ele>
        <time>2014-06-01T07:44:22.285Z</time>
      </trkpt>
      <trkpt lat="47.51806" lon="6.77519">
        <ele>399.6</ele>
        <time>2014-06-01T07:44:23.285Z</time>
      </trkpt>
      <trkpt lat="47.51801" lon="6.77511">
        <ele>418.9</ele>
        <time>2014-06-01T07:44:24.306Z</time>
      </trkpt>
      <trkpt lat="47.51809" lon="6.77516">
        <ele>386.9</ele>
        <time>2014-06-01T07:44:25.306Z</time>
      </trkpt>
      <trkpt lat="47.51804" lon="6.77512">
        <ele>376</ele>
        <time>2014-06-01T07:44:26.313Z</time>
      </trkpt>
      <trkpt lat="47.51798" lon="6.775">
        <ele>361.1</ele>
        <time>2014-06-01T07:44:27.314Z</time>
      </trkpt>
      <trkpt lat="47.51798" lon="6.77493">
        <ele>356.3</ele>
        <time>2014-06-01T07:44:30.293Z</time>
      </trkpt>
      <trkpt lat="47.51805" lon="6.77496">
        <ele>396.8</ele>
        <time>2014-06-01T07:44:39.293Z</time>
      </trkpt>
      <trkpt lat="47.51802" lon="6.775">
        <ele>380</ele>
        <time>2014-06-01T07:44:40.000Z</time>
      </trkpt>
      <trkpt lat="47.51802" lon="6.77501">
        <ele>380.1</ele>
        <time>2014-06-01T07:44:41.000Z</time>
      </trkpt>
      <trkpt lat="47.51799" lon="6.77501">
        <ele>379</ele>
        <time>2014-06-01T07:44:57.000Z</time>
      </trkpt>
      <trkpt lat="47.51797" lon="6.77496">
        <ele>363.5</ele>
        <time>2014-06-01T07:45:05.000Z</time>
      </trkpt>
      <trkpt lat="47.51797" lon="6.77491">
        <ele>364.7</ele>
        <time>2014-06-01T07:45:09.000Z</time>
      </trkpt>
      <trkpt lat="47.51798" lon="6.77489">
        <ele>364.9</ele>
        <time>2014-06-01T07:45:10.000Z</time>
      </trkpt>
      <trkpt lat="47.518" lon="6.77493">
        <ele>372.5</ele>
        <time>2014-06-01T07:45:17.000Z</time>
      </trkpt>
      <trkpt lat="47.51801" lon="6.77495">
        <ele>374</ele>
        <time>2014-06-01T07:45:18.000Z</time>
      </trkpt>
      <trkpt lat="47.518" lon="6.77501">
        <ele>375.6</ele>
        <time>2014-06-01T07:45:20.000Z</time>
      </trkpt>
      <trkpt lat="47.51798" lon="6.77503">
        <ele>376.6</ele>
        <time>2014-06-01T07:45:21.000Z</time>
      </trkpt>
      <trkpt lat="47.51795" lon="6.77504">
        <ele>376.8</ele>
        <time>2014-06-01T07:45:22.000Z</time>
      </trkpt>
      <trkpt lat="47.51792" lon="6.77504">
        <ele>376.4</ele>
        <time>2014-06-01T07:45:23.000Z</time>
      </trkpt>
      <trkpt lat="47.51789" lon="6.77503">
        <ele>376.8</ele>
        <time>2014-06-01T07:45:24.000Z</time>
      </trkpt>
      <trkpt lat="47.51786" lon="6.77502">
        <ele>378</ele>
        <time>2014-06-01T07:45:25.000Z</time>
      </trkpt>
      <trkpt lat="47.51783" lon="6.77501">
        <ele>378.3</ele>
        <time>2014-06-01T07:45:26.000Z</time>
      </trkpt>
      <trkpt lat="47.5178" lon="6.775">
        <ele>378.8</ele>
        <time>2014-06-01T07:45:27.000Z</time>
      </trkpt>
      <trkpt lat="47.51777" lon="6.775">
        <ele>379.5</ele>
        <time>2014-06-01T07:45:28.000Z</time>
      </trkpt>
      <trkpt lat="47.51774" lon="6.77501">
        <ele>379.7</ele>
        <time>2014-06-01T07:45:29.000Z</time>
      </trkpt>
      <trkpt lat="47.51771" lon="6.775">
        <ele>376.7</ele>
        <time>2014-06-01T07:45:30.000Z</time>
      </trkpt>
      <trkpt lat="47.51768" lon="6.775">
        <ele>376.4</ele>
        <time>2014-06-01T07:45:31.000Z</time>
      </trkpt>
      <trkpt lat="47.51765" lon="6.77498">
        <ele>376.3</ele>
        <time>2014-06-01T07:45:32.000Z</time>
      </trkpt>
      <trkpt lat="47.51761" lon="6.77497">
        <ele>377</ele>
        <time>2014-06-01T07:45:33.000Z</time>
      </trkpt>
      <trkpt lat="47.51758" lon="6.77495">
        <ele>376.9</ele>
        <time>2014-06-01T07:45:34.000Z</time>
      </trkpt>
      <trkpt lat="47.51754" lon="6.77493">
        <ele>377.6</ele>
        <time>2014-06-01T07:45:35.000Z</time>
      </trkpt>
      <trkpt lat="47.51751" lon="6.77492">
        <ele>378.7</ele>
        <time>2014-06-01T07:45:36.000Z</time>
      </trkpt>
      <trkpt lat="47.51747" lon="6.77491">
        <ele>379</ele>
        <time>2014-06-01T07:45:37.000Z</time>
      </trkpt>
      <trkpt lat="47.51744" lon="6.7749">
        <ele>379</ele>
        <time>2014-06-01T07:45:38.000Z</time>
      </trkpt>
      <trkpt lat="47.5174" lon="6.77489">
        <ele>379.4</ele>
        <time>2014-06-01T07:45:39.000Z</time>
      </trkpt>
      <trkpt lat="47.51736" lon="6.77489">
        <ele>380</ele>
        <time>2014-06-01T07:45:40.000Z</time>
      </trkpt>
      <trkpt lat="47.51732" lon="6.77489">
        <ele>380.9</ele>
        <time>2014-06-01T07:45:41.000Z</time>
      </trkpt>
      <trkpt lat="47.51728" lon="6.7749">
        <ele>381.8</ele>
        <time>2014-06-01T07:45:42.000Z</time>
      </trkpt>
      <trkpt lat="47.51724" lon="6.77494">
        <ele>382.7</ele>
        <time>2014-06-01T07:45:43.000Z</time>
      </trkpt>
      <trkpt lat="47.51722" lon="6.77498">
        <ele>383.9</ele>
        <time>2014-06-01T07:45:44.000Z</time>
      </trkpt>
      <trkpt lat="47.5172" lon="6.77504">
        <ele>384.9</ele>
        <time>2014-06-01T07:45:45.000Z</time>
      </trkpt>
      <trkpt lat="47.51719" lon="6.77511">
        <ele>385.7</ele>
        <time>2014-06-01T07:45:46.000Z</time>
      </trkpt>
      <trkpt lat="47.51718" lon="6.77518">
        <ele>386</ele>
        <time>2014-06-01T07:45:47.000Z</time>
      </trkpt>
      <trkpt lat="47.51717" lon="6.77525">
        <ele>386.1</ele>
        <time>2014-06-01T07:45:48.000Z</time>
      </trkpt>
      <trkpt lat="47.51716" lon="6.77532">
        <ele>386.4</ele>
        <time>2014-06-01T07:45:49.000Z</time>
      </trkpt>
      <trkpt lat="47.51715" lon="6.77538">
        <ele>387.8</ele>
        <time>2014-06-01T07:45:50.000Z</time>
      </trkpt>
      <trkpt lat="47.51714" lon="6.77544">
        <ele>388.8</ele>
        <time>2014-06-01T07:45:51.000Z</time>
      </trkpt>
      <trkpt lat="47.51712" lon="6.7755">
        <ele>388.6</ele>
        <time>2014-06-01T07:45:52.000Z</time>
      </trkpt>
      <trkpt lat="47.51711" lon="6.77556">
        <ele>389.8</ele>
        <time>2014-06-01T07:45:53.000Z</time>
      </trkpt>
      <trkpt lat="47.5171" lon="6.77561">
        <ele>389.7</ele>
        <time>2014-06-01T07:45:54.000Z</time>
      </trkpt>
      <trkpt lat="47.51707" lon="6.77564">
        <ele>389.4</ele>
        <time>2014-06-01T07:45:55.000Z</time>
      </trkpt>
      <trkpt lat="47.51704" lon="6.77566">
        <ele>389.9</ele>
        <time>2014-06-01T07:45:56.000Z</time>
      </trkpt>
      <trkpt lat="47.51699" lon="6.77566">
        <ele>390.6</ele>
        <time>2014-06-01T07:45:57.000Z</time>
      </trkpt>
      <trkpt lat="47.51694" lon="6.77564">
        <ele>390.9</ele>
        <time>2014-06-01T07:45:58.000Z</time>
      </trkpt>
      <trkpt lat="47.51661" lon="6.77524">
        <ele>384.9</ele>
        <time>2014-06-01T07:46:06.000Z</time>
      </trkpt>
      <trkpt lat="47.51658" lon="6.77518">
        <ele>385.2</ele>
        <time>2014-06-01T07:46:07.000Z</time>
      </trkpt>
      <trkpt lat="47.51653" lon="6.77512">
        <ele>385.7</ele>
        <time>2014-06-01T07:46:08.000Z</time>
      </trkpt>
      <trkpt lat="47.51648" lon="6.77507">
        <ele>385.8</ele>
        <time>2014-06-01T07:46:09.000Z</time>
      </trkpt>
      <trkpt lat="47.51643" lon="6.77501">
        <ele>385.9</ele>
        <time>2014-06-01T07:46:10.000Z</time>
      </trkpt>
      <trkpt lat="47.51639" lon="6.77495">
        <ele>386.5</ele>
        <time>2014-06-01T07:46:11.000Z</time>
      </trkpt>
      <trkpt lat="47.51634" lon="6.7749">
        <ele>387</ele>
        <time>2014-06-01T07:46:12.000Z</time>
      </trkpt>
      <trkpt lat="47.51628" lon="6.77485">
        <ele>386.6</ele>
        <time>2014-06-01T07:46:13.000Z</time>
      </trkpt>
      <trkpt lat="47.51623" lon="6.7748">
        <ele>386.9</ele>
        <time>2014-06-01T07:46:14.000Z</time>
      </trkpt>
      <trkpt lat="47.51619" lon="6.77473">
        <ele>386.4</ele>
        <time>2014-06-01T07:46:15.000Z</time>
      </trkpt>
      <trkpt lat="47.51614" lon="6.77467">
        <ele>386.3</ele>
        <time>2014-06-01T07:46:16.000Z</time>
      </trkpt>
      <trkpt lat="47.51609" lon="6.77461">
        <ele>386.2</ele>
        <time>2014-06-01T07:46:17.000Z</time>
      </trkpt>
      <trkpt lat="47.51603" lon="6.77455">
        <ele>386.4</ele>
        <time>2014-06-01T07:46:18.000Z</time>
      </trkpt>
      <trkpt lat="47.51598" lon="6.77448">
        <ele>386.7</ele>
        <time>2014-06-01T07:46:19.000Z</time>
      </trkpt>
      <trkpt lat="47.51593" lon="6.77442">
        <ele>386.5</ele>
        <time>2014-06-01T07:46:20.000Z</time>
      </trkpt>
      <trkpt lat="47.51587" lon="6.77435">
        <ele>386.8</ele>
        <time>2014-06-01T07:46:21.000Z</time>
      </trkpt>
      <trkpt lat="47.51581" lon="6.77428">
        <ele>386.7</ele>
        <time>2014-06-01T07:46:22.000Z</time>
      </trkpt>
      <trkpt lat="47.51575" lon="6.77421">
        <ele>386.6</ele>
        <time>2014-06-01T07:46:23.000Z</time>
      </trkpt>
      <trkpt lat="47.51569" lon="6.77414">
        <ele>386.2</ele>
        <time>2014-06-01T07:46:24.000Z</time>
      </trkpt>
      <trkpt lat="47.51563" lon="6.77406">
        <ele>385.5</ele>
        <time>2014-06-01T07:46:25.000Z</time>
      </trkpt>
      <trkpt lat="47.51557" lon="6.77397">
        <ele>385.4</ele>
        <time>2014-06-01T07:46:26.000Z</time>
      </trkpt>
      <trkpt lat="47.51551" lon="6.7739">
        <ele>384.9</ele>
        <time>2014-06-01T07:46:27.000Z</time>
      </trkpt>
      <trkpt lat="47.51544" lon="6.77382">
        <ele>383.7</ele>
        <time>2014-06-01T07:46:28.000Z</time>
      </trkpt>
      <trkpt lat="47.51538" lon="6.77374">
        <ele>383</ele>
        <time>2014-06-01T07:46:29.000Z</time>
      </trkpt>
      <trkpt lat="47.51531" lon="6.77366">
        <ele>382.3</ele>
        <time>2014-06-01T07:46:30.000Z</time>
      </trkpt>
      <trkpt lat="47.51524" lon="6.77357">
        <ele>381.6</ele>
        <time>2014-06-01T07:46:31.000Z</time>
      </trkpt>
      <trkpt lat="47.51517" lon="6.77349">
        <ele>380.9</ele>
        <time>2014-06-01T07:46:32.000Z</time>
      </trkpt>
      <trkpt lat="47.5151" lon="6.77341">
        <ele>380.3</ele>
        <time>2014-06-01T07:46:33.000Z</time>
      </trkpt>
      <trkpt lat="47.51503" lon="6.77333">
        <ele>379.4</ele>
        <time>2014-06-01T07:46:34.000Z</time>
      </trkpt>
      <trkpt lat="47.51497" lon="6.77323">
        <ele>379</ele>
        <time>2014-06-01T07:46:35.000Z</time>
      </trkpt>
      <trkpt lat="47.51492" lon="6.77313">
        <ele>379</ele>
        <time>2014-06-01T07:46:36.000Z</time>
      </trkpt>
      <trkpt lat="47.51489" lon="6.77302">
        <ele>379.1</ele>
        <time>2014-06-01T07:46:37.000Z</time>
      </trkpt>
      <trkpt lat="47.51487" lon="6.7729">
        <ele>379.3</ele>
        <time>2014-06-01T07:46:38.000Z</time>
      </trkpt>
      <trkpt lat="47.51485" lon="6.77279">
        <ele>379.7</ele>
        <time>2014-06-01T07:46:39.000Z</time>
      </trkpt>
      <trkpt lat="47.51484" lon="6.77268">
        <ele>380</ele>
        <time>2014-06-01T07:46:40.000Z</time>
      </trkpt>
      <trkpt lat="47.51484" lon="6.77257">
        <ele>380.5</ele>
        <time>2014-06-01T07:46:41.000Z</time>
      </trkpt>
      <trkpt lat="47.51483" lon="6.77246">
        <ele>380.6</ele>
        <time>2014-06-01T07:46:42.000Z</time>
      </trkpt>
      <trkpt lat="47.51482" lon="6.77235">
        <ele>380.7</ele>
        <time>2014-06-01T07:46:43.000Z</time>
      </trkpt>
      <trkpt lat="47.51479" lon="6.77225">
        <ele>380.9</ele>
        <time>2014-06-01T07:46:44.000Z</time>
      </trkpt>
      <trkpt lat="47.51473" lon="6.77219">
        <ele>379.7</ele>
        <time>2014-06-01T07:46:45.000Z</time>
      </trkpt>
      <trkpt lat="47.51466" lon="6.77214">
        <ele>378.3</ele>
        <time>2014-06-01T07:46:46.000Z</time>
      </trkpt>
      <trkpt lat="47.51457" lon="6.77214">
        <ele>377.7</ele>
        <time>2014-06-01T07:46:47.000Z</time>
      </trkpt>
      <trkpt lat="47.51449" lon="6.77219">
        <ele>378.6</ele>
        <time>2014-06-01T07:46:48.000Z</time>
      </trkpt>
      <trkpt lat="47.5144" lon="6.77222">
        <ele>379.2</ele>
        <time>2014-06-01T07:46:49.000Z</time>
      </trkpt>
      <trkpt lat="47.51432" lon="6.77228">
        <ele>379.7</ele>
        <time>2014-06-01T07:46:50.000Z</time>
      </trkpt>
      <trkpt lat="47.51424" lon="6.77231">
        <ele>380.1</ele>
        <time>2014-06-01T07:46:51.000Z</time>
      </trkpt>
      <trkpt lat="47.51415" lon="6.77234">
        <ele>380</ele>
        <time>2014-06-01T07:46:52.000Z</time>
      </trkpt>
      <trkpt lat="47.51408" lon="6.77237">
        <ele>380.3</ele>
        <time>2014-06-01T07:46:53.000Z</time>
      </trkpt>
      <trkpt lat="47.51401" lon="6.7724">
        <ele>380.6</ele>
        <time>2014-06-01T07:46:54.000Z</time>
      </trkpt>
      <trkpt lat="47.51394" lon="6.77244">
        <ele>380.9</ele>
        <time>2014-06-01T07:46:55.000Z</time>
      </trkpt>
      <trkpt lat="47.51389" lon="6.77247">
        <ele>381.5</ele>
        <time>2014-06-01T07:46:56.000Z</time>
      </trkpt>
      <trkpt lat="47.51383" lon="6.77251">
        <ele>381.6</ele>
        <time>2014-06-01T07:46:57.000Z</time>
      </trkpt>
      <trkpt lat="47.51366" lon="6.7726">
        <ele>377.2</ele>
        <time>2014-06-01T07:47:00.000Z</time>
      </trkpt>
      <trkpt lat="47.51362" lon="6.77264">
        <ele>377.4</ele>
        <time>2014-06-01T07:47:01.000Z</time>
      </trkpt>
      <trkpt lat="47.51357" lon="6.77265">
        <ele>378</ele>
        <time>2014-06-01T07:47:02.000Z</time>
      </trkpt>
      <trkpt lat="47.51354" lon="6.77267">
        <ele>378.4</ele>
        <time>2014-06-01T07:47:03.000Z</time>
      </trkpt>
      <trkpt lat="47.51352" lon="6.77269">
        <ele>378.6</ele>
        <time>2014-06-01T07:47:04.000Z</time>
      </trkpt>
      <trkpt lat="47.51349" lon="6.77271">
        <ele>380.3</ele>
        <time>2014-06-01T07:47:05.000Z</time>
      </trkpt>
      <trkpt lat="47.51346" lon="6.77273">
        <ele>380.7</ele>
        <time>2014-06-01T07:47:06.000Z</time>
      </trkpt>
      <trkpt lat="47.51344" lon="6.77274">
        <ele>380.9</ele>
        <time>2014-06-01T07:47:07.000Z</time>
      </trkpt>
      <trkpt lat="47.5134" lon="6.77276">
        <ele>382.1</ele>
        <time>2014-06-01T07:47:08.000Z</time>
      </trkpt>
      <trkpt lat="47.51337" lon="6.77278">
        <ele>383.1</ele>
        <time>2014-06-01T07:47:09.000Z</time>
      </trkpt>
      <trkpt lat="47.51334" lon="6.77279">
        <ele>383.5</ele>
        <time>2014-06-01T07:47:10.000Z</time>
      </trkpt>
      <trkpt lat="47.5133" lon="6.77279">
        <ele>384.1</ele>
        <time>2014-06-01T07:47:11.000Z</time>
      </trkpt>
      <trkpt lat="47.51326" lon="6.77281">
        <ele>384.6</ele>
        <time>2014-06-01T07:47:12.000Z</time>
      </trkpt>
      <trkpt lat="47.51323" lon="6.77282">
        <ele>384.9</ele>
        <time>2014-06-01T07:47:13.000Z</time>
      </trkpt>
      <trkpt lat="47.5132" lon="6.77282">
        <ele>384.6</ele>
        <time>2014-06-01T07:47:14.000Z</time>
      </trkpt>
      <trkpt lat="47.51316" lon="6.77281">
        <ele>384.5</ele>
        <time>2014-06-01T07:47:15.000Z</time>
      </trkpt>
      <trkpt lat="47.51313" lon="6.7728">
        <ele>385.1</ele>
        <time>2014-06-01T07:47:16.000Z</time>
      </trkpt>
      <trkpt lat="47.51309" lon="6.77279">
        <ele>385.4</ele>
        <time>2014-06-01T07:47:17.000Z</time>
      </trkpt>
      <trkpt lat="47.51305" lon="6.77278">
        <ele>385.8</ele>
        <time>2014-06-01T07:47:18.000Z</time>
      </trkpt>
      <trkpt lat="47.51302" lon="6.77276">
        <ele>385.8</ele>
        <time>2014-06-01T07:47:19.000Z</time>
      </trkpt>
      <trkpt lat="47.51298" lon="6.77275">
        <ele>386.4</ele>
        <time>2014-06-01T07:47:20.000Z</time>
      </trkpt>
      <trkpt lat="47.51295" lon="6.77273">
        <ele>386.9</ele>
        <time>2014-06-01T07:47:21.000Z</time>
      </trkpt>
      <trkpt lat="47.51292" lon="6.77272">
        <ele>387</ele>
        <time>2014-06-01T07:47:22.000Z</time>
      </trkpt>
      <trkpt lat="47.51288" lon="6.7727">
        <ele>387.8</ele>
        <time>2014-06-01T07:47:23.000Z</time>
      </trkpt>
      <trkpt lat="47.51284" lon="6.7727">
        <ele>389.4</ele>
        <time>2014-06-01T07:47:24.000Z</time>
      </trkpt>
      <trkpt lat="47.5128" lon="6.77269">
        <ele>389.9</ele>
        <time>2014-06-01T07:47:25.000Z</time>
      </trkpt>
      <trkpt lat="47.51277" lon="6.77268">
        <ele>390.7</ele>
        <time>2014-06-01T07:47:26.000Z</time>
      </trkpt>
      <trkpt lat="47.51273" lon="6.77267">
        <ele>391.2</ele>
        <time>2014-06-01T07:47:27.000Z</time>
      </trkpt>
      <trkpt lat="47.51269" lon="6.77266">
        <ele>390.8</ele>
        <time>2014-06-01T07:47:28.000Z</time>
      </trkpt>
      <trkpt lat="47.51266" lon="6.77264">
        <ele>390.4</ele>
        <time>2014-06-01T07:47:29.000Z</time>
      </trkpt>
      <trkpt lat="47.51262" lon="6.77262">
        <ele>390.4</ele>
        <time>2014-06-01T07:47:30.000Z</time>
      </trkpt>
      <trkpt lat="47.51258" lon="6.77259">
        <ele>390.6</ele>
        <time>2014-06-01T07:47:31.000Z</time>
      </trkpt>
      <trkpt lat="47.51255" lon="6.77257">
        <ele>391.1</ele>
        <time>2014-06-01T07:47:32.000Z</time>
      </trkpt>
      <trkpt lat="47.51251" lon="6.77253">
        <ele>391.2</ele>
        <time>2014-06-01T07:47:33.000Z</time>
      </trkpt>
      <trkpt lat="47.51248" lon="6.7725">
        <ele>391.6</ele>
        <time>2014-06-01T07:47:34.000Z</time>
      </trkpt>
      <trkpt lat="47.51244" lon="6.77247">
        <ele>393</ele>
        <time>2014-06-01T07:47:35.000Z</time>
      </trkpt>
      <trkpt lat="47.51241" lon="6.77242">
        <ele>395.8</ele>
        <time>2014-06-01T07:47:36.000Z</time>
      </trkpt>
      <trkpt lat="47.51237" lon="6.7724">
        <ele>397.4</ele>
        <time>2014-06-01T07:47:37.000Z</time>
      </trkpt>
      <trkpt lat="47.51233" lon="6.77235">
        <ele>399.8</ele>
        <time>2014-06-01T07:47:38.000Z</time>
      </trkpt>
      <trkpt lat="47.5123" lon="6.77228">
        <ele>400</ele>
        <time>2014-06-01T07:47:39.000Z</time>
      </trkpt>
      <trkpt lat="47.51227" lon="6.77223">
        <ele>400.1</ele>
        <time>2014-06-01T07:47:40.000Z</time>
      </trkpt>
      <trkpt lat="47.51223" lon="6.77219">
        <ele>400.8</ele>
        <time>2014-06-01T07:47:41.000Z</time>
      </trkpt>
      <trkpt lat="47.5122" lon="6.77212">
        <ele>401.9</ele>
        <time>2014-06-01T07:47:42.000Z</time>
      </trkpt>
      <trkpt lat="47.51217" lon="6.77205">
        <ele>401.8</ele>
        <time>2014-06-01T07:47:43.000Z</time>
      </trkpt>
      <trkpt lat="47.51213" lon="6.77198">
        <ele>402.1</ele>
        <time>2014-06-01T07:47:44.000Z</time>
      </trkpt>
      <trkpt lat="47.5121" lon="6.77191">
        <ele>402.4</ele>
        <time>2014-06-01T07:47:45.000Z</time>
      </trkpt>
      <trkpt lat="47.51207" lon="6.77184">
        <ele>402.8</ele>
        <time>2014-06-01T07:47:46.000Z</time>
      </trkpt>
      <trkpt lat="47.51203" lon="6.77177">
        <ele>402.8</ele>
        <time>2014-06-01T07:47:47.000Z</time>
      </trkpt>
      <trkpt lat="47.51199" lon="6.7717">
        <ele>402.7</ele>
        <time>2014-06-01T07:47:48.000Z</time>
      </trkpt>
      <trkpt lat="47.51195" lon="6.77163">
        <ele>402.4</ele>
        <time>2014-06-01T07:47:49.000Z</time>
      </trkpt>
      <trkpt lat="47.51191" lon="6.77155">
        <ele>402.5</ele>
        <time>2014-06-01T07:47:50.000Z</time>
      </trkpt>
      <trkpt lat="47.51187" lon="6.77147">
        <ele>402.2</ele>
        <time>2014-06-01T07:47:51.000Z</time>
      </trkpt>
      <trkpt lat="47.51183" lon="6.7714">
        <ele>401.7</ele>
        <time>2014-06-01T07:47:52.000Z</time>
      </trkpt>
      <trkpt lat="47.51179" lon="6.77131">
        <ele>401.5</ele>
        <time>2014-06-01T07:47:53.000Z</time>
      </trkpt>
      <trkpt lat="47.51175" lon="6.77123">
        <ele>401.4</ele>
        <time>2014-06-01T07:47:54.000Z</time>
      </trkpt>
      <trkpt lat="47.5117" lon="6.77116">
        <ele>401.3</ele>
        <time>2014-06-01T07:47:55.000Z</time>
      </trkpt>
      <trkpt lat="47.51166" lon="6.77108">
        <ele>401</ele>
        <time>2014-06-01T07:47:56.000Z</time>
      </trkpt>
      <trkpt lat="47.51162" lon="6.77101">
        <ele>400.9</ele>
        <time>2014-06-01T07:47:57.000Z</time>
      </trkpt>
      <trkpt lat="47.51154" lon="6.77088">
        <ele>352.2</ele>
        <time>2014-06-01T07:48:00.000Z</time>
      </trkpt>
      <trkpt lat="47.51143" lon="6.77056">
        <ele>352.8</ele>
        <time>2014-06-01T07:48:04.000Z</time>
      </trkpt>
      <trkpt lat="47.51141" lon="6.77048">
        <ele>353.2</ele>
        <time>2014-06-01T07:48:05.000Z</time>
      </trkpt>
      <trkpt lat="47.51141" lon="6.77041">
        <ele>353.7</ele>
        <time>2014-06-01T07:48:06.000Z</time>
      </trkpt>
      <trkpt lat="47.51138" lon="6.77036">
        <ele>354</ele>
        <time>2014-06-01T07:48:07.000Z</time>
      </trkpt>
      <trkpt lat="47.51134" lon="6.77034">
        <ele>354.4</ele>
        <time>2014-06-01T07:48:08.000Z</time>
      </trkpt>
      <trkpt lat="47.51127" lon="6.77032">
        <ele>354.6</ele>
        <time>2014-06-01T07:48:09.000Z</time>
      </trkpt>
      <trkpt lat="47.51123" lon="6.77035">
        <ele>355</ele>
        <time>2014-06-01T07:48:10.000Z</time>
      </trkpt>
      <trkpt lat="47.51127" lon="6.77081">
        <ele>354.7</ele>
        <time>2014-06-01T07:48:11.000Z</time>
      </trkpt>
      <trkpt lat="47.5111" lon="6.7707">
        <ele>356</ele>
        <time>2014-06-01T07:48:12.000Z</time>
      </trkpt>
      <trkpt lat="47.51101" lon="6.77061">
        <ele>356.8</ele>
        <time>2014-06-01T07:48:13.000Z</time>
      </trkpt>
      <trkpt lat="47.51093" lon="6.77056">
        <ele>357</ele>
        <time>2014-06-01T07:48:14.000Z</time>
      </trkpt>
      <trkpt lat="47.51081" lon="6.77043">
        <ele>359.7</ele>
        <time>2014-06-01T07:48:15.000Z</time>
      </trkpt>
      <trkpt lat="47.51072" lon="6.77034">
        <ele>360.8</ele>
        <time>2014-06-01T07:48:16.000Z</time>
      </trkpt>
      <trkpt lat="47.51066" lon="6.77029">
        <ele>361.4</ele>
        <time>2014-06-01T07:48:17.000Z</time>
      </trkpt>
      <trkpt lat="47.51058" lon="6.7702">
        <ele>362.9</ele>
        <time>2014-06-01T07:48:18.000Z</time>
      </trkpt>
      <trkpt lat="47.5105" lon="6.77013">
        <ele>363.8</ele>
        <time>2014-06-01T07:48:19.000Z</time>
      </trkpt>
      <trkpt lat="47.51042" lon="6.77006">
        <ele>365.6</ele>
        <time>2014-06-01T07:48:20.000Z</time>
      </trkpt>
      <trkpt lat="47.51035" lon="6.76999">
        <ele>367.3</ele>
        <time>2014-06-01T07:48:21.000Z</time>
      </trkpt>
      <trkpt lat="47.51029" lon="6.76992">
        <ele>369</ele>
        <time>2014-06-01T07:48:22.000Z</time>
      </trkpt>
      <trkpt lat="47.51023" lon="6.76985">
        <ele>370.3</ele>
        <time>2014-06-01T07:48:23.000Z</time>
      </trkpt>
      <trkpt lat="47.51018" lon="6.76978">
        <ele>372.3</ele>
        <time>2014-06-01T07:48:24.000Z</time>
      </trkpt>
      <trkpt lat="47.51013" lon="6.7697">
        <ele>374.5</ele>
        <time>2014-06-01T07:48:25.000Z</time>
      </trkpt>
      <trkpt lat="47.51007" lon="6.76963">
        <ele>376.1</ele>
        <time>2014-06-01T07:48:26.000Z</time>
      </trkpt>
      <trkpt lat="47.51001" lon="6.76961">
        <ele>377.9</ele>
        <time>2014-06-01T07:48:27.000Z</time>
      </trkpt>
      <trkpt lat="47.50995" lon="6.76957">
        <ele>378.8</ele>
        <time>2014-06-01T07:48:28.000Z</time>
      </trkpt>
      <trkpt lat="47.50991" lon="6.76951">
        <ele>379.2</ele>
        <time>2014-06-01T07:48:29.000Z</time>
      </trkpt>
      <trkpt lat="47.50989" lon="6.76944">
        <ele>379.2</ele>
        <time>2014-06-01T07:48:30.000Z</time>
      </trkpt>
      <trkpt lat="47.50986" lon="6.76935">
        <ele>379.9</ele>
        <time>2014-06-01T07:48:31.000Z</time>
      </trkpt>
      <trkpt lat="47.50981" lon="6.76932">
        <ele>379.7</ele>
        <time>2014-06-01T07:48:32.000Z</time>
      </trkpt>
      <trkpt lat="47.50976" lon="6.76927">
        <ele>379.6</ele>
        <time>2014-06-01T07:48:33.000Z</time>
      </trkpt>
      <trkpt lat="47.50971" lon="6.76926">
        <ele>380.8</ele>
        <time>2014-06-01T07:48:34.000Z</time>
      </trkpt>
      <trkpt lat="47.50966" lon="6.76925">
        <ele>381.6</ele>
        <time>2014-06-01T07:48:35.000Z</time>
      </trkpt>
      <trkpt lat="47.50961" lon="6.76921">
        <ele>381.8</ele>
        <time>2014-06-01T07:48:36.000Z</time>
      </trkpt>
      <trkpt lat="47.50956" lon="6.76919">
        <ele>382.5</ele>
        <time>2014-06-01T07:48:37.000Z</time>
      </trkpt>
      <trkpt lat="47.50951" lon="6.76916">
        <ele>383.6</ele>
        <time>2014-06-01T07:48:38.000Z</time>
      </trkpt>
      <trkpt lat="47.50947" lon="6.76913">
        <ele>384.3</ele>
        <time>2014-06-01T07:48:39.000Z</time>
      </trkpt>
      <trkpt lat="47.50943" lon="6.76908">
        <ele>384.6</ele>
        <time>2014-06-01T07:48:40.000Z</time>
      </trkpt>
      <trkpt lat="47.50938" lon="6.76905">
        <ele>385</ele>
        <time>2014-06-01T07:48:41.000Z</time>
      </trkpt>
      <trkpt lat="47.50934" lon="6.76901">
        <ele>385</ele>
        <time>2014-06-01T07:48:42.000Z</time>
      </trkpt>
      <trkpt lat="47.5093" lon="6.76897">
        <ele>385.6</ele>
        <time>2014-06-01T07:48:43.000Z</time>
      </trkpt>
      <trkpt lat="47.50926" lon="6.76892">
        <ele>385.6</ele>
        <time>2014-06-01T07:48:44.000Z</time>
      </trkpt>
      <trkpt lat="47.50923" lon="6.76885">
        <ele>385.7</ele>
        <time>2014-06-01T07:48:45.000Z</time>
      </trkpt>
      <trkpt lat="47.5092" lon="6.7688">
        <ele>385.3</ele>
        <time>2014-06-01T07:48:46.000Z</time>
      </trkpt>
      <trkpt lat="47.50916" lon="6.76875">
        <ele>385.4</ele>
        <time>2014-06-01T07:48:47.000Z</time>
      </trkpt>
      <trkpt lat="47.50914" lon="6.76869">
        <ele>385.7</ele>
        <time>2014-06-01T07:48:48.000Z</time>
      </trkpt>
      <trkpt lat="47.50911" lon="6.76863">
        <ele>386</ele>
        <time>2014-06-01T07:48:49.000Z</time>
      </trkpt>
      <trkpt lat="47.50908" lon="6.76857">
        <ele>386.5</ele>
        <time>2014-06-01T07:48:50.000Z</time>
      </trkpt>
      <trkpt lat="47.50906" lon="6.76851">
        <ele>386.6</ele>
        <time>2014-06-01T07:48:51.000Z</time>
      </trkpt>
      <trkpt lat="47.50903" lon="6.76844">
        <ele>387.3</ele>
        <time>2014-06-01T07:48:52.000Z</time>
      </trkpt>
      <trkpt lat="47.509" lon="6.76838">
        <ele>387.6</ele>
        <time>2014-06-01T07:48:53.000Z</time>
      </trkpt>
      <trkpt lat="47.50897" lon="6.76832">
        <ele>387.7</ele>
        <time>2014-06-01T07:48:54.000Z</time>
      </trkpt>
      <trkpt lat="47.50895" lon="6.76826">
        <ele>388.3</ele>
        <time>2014-06-01T07:48:55.000Z</time>
      </trkpt>
      <trkpt lat="47.50892" lon="6.7682">
        <ele>387.7</ele>
        <time>2014-06-01T07:48:56.000Z</time>
      </trkpt>
      <trkpt lat="47.5089" lon="6.76814">
        <ele>387.9</ele>
        <time>2014-06-01T07:48:57.000Z</time>
      </trkpt>
      <trkpt lat="47.50883" lon="6.76796">
        <ele>384.9</ele>
        <time>2014-06-01T07:49:00.000Z</time>
      </trkpt>
      <trkpt lat="47.5088" lon="6.76792">
        <ele>385.5</ele>
        <time>2014-06-01T07:49:01.000Z</time>
      </trkpt>
      <trkpt lat="47.50878" lon="6.76785">
        <ele>385.3</ele>
        <time>2014-06-01T07:49:02.000Z</time>
      </trkpt>
      <trkpt lat="47.50876" lon="6.76779">
        <ele>386.2</ele>
        <time>2014-06-01T07:49:03.000Z</time>
      </trkpt>
      <trkpt lat="47.50874" lon="6.76773">
        <ele>387.4</ele>
        <time>2014-06-01T07:49:04.000Z</time>
      </trkpt>
      <trkpt lat="47.50872" lon="6.76767">
        <ele>387.7</ele>
        <time>2014-06-01T07:49:05.000Z</time>
      </trkpt>
      <trkpt lat="47.5087" lon="6.76762">
        <ele>388.1</ele>
        <time>2014-06-01T07:49:06.000Z</time>
      </trkpt>
      <trkpt lat="47.50868" lon="6.76756">
        <ele>388.6</ele>
        <time>2014-06-01T07:49:07.000Z</time>
      </trkpt>
      <trkpt lat="47.50867" lon="6.76751">
        <ele>389.1</ele>
        <time>2014-06-01T07:49:08.000Z</time>
      </trkpt>
      <trkpt lat="47.50865" lon="6.76746">
        <ele>389.6</ele>
        <time>2014-06-01T07:49:09.000Z</time>
      </trkpt>
      <trkpt lat="47.50863" lon="6.7674">
        <ele>390.3</ele>
        <time>2014-06-01T07:49:10.000Z</time>
      </trkpt>
      <trkpt lat="47.50861" lon="6.76735">
        <ele>389.9</ele>
        <time>2014-06-01T07:49:11.000Z</time>
      </trkpt>
      <trkpt lat="47.5086" lon="6.7673">
        <ele>390.4</ele>
        <time>2014-06-01T07:49:12.000Z</time>
      </trkpt>
      <trkpt lat="47.50858" lon="6.76726">
        <ele>391.2</ele>
        <time>2014-06-01T07:49:13.000Z</time>
      </trkpt>
      <trkpt lat="47.50856" lon="6.76721">
        <ele>391.4</ele>
        <time>2014-06-01T07:49:14.000Z</time>
      </trkpt>
      <trkpt lat="47.50854" lon="6.76717">
        <ele>391.6</ele>
        <time>2014-06-01T07:49:15.000Z</time>
      </trkpt>
      <trkpt lat="47.50852" lon="6.76712">
        <ele>391.2</ele>
        <time>2014-06-01T07:49:16.000Z</time>
      </trkpt>
      <trkpt lat="47.50851" lon="6.76707">
        <ele>391.6</ele>
        <time>2014-06-01T07:49:17.000Z</time>
      </trkpt>
      <trkpt lat="47.50849" lon="6.76703">
        <ele>391.7</ele>
        <time>2014-06-01T07:49:18.000Z</time>
      </trkpt>
      <trkpt lat="47.50847" lon="6.76698">
        <ele>391.8</ele>
        <time>2014-06-01T07:49:19.000Z</time>
      </trkpt>
      <trkpt lat="47.50845" lon="6.76693">
        <ele>392</ele>
        <time>2014-06-01T07:49:20.000Z</time>
      </trkpt>
      <trkpt lat="47.50843" lon="6.76689">
        <ele>392.6</ele>
        <time>2014-06-01T07:49:21.000Z</time>
      </trkpt>
      <trkpt lat="47.50841" lon="6.76684">
        <ele>393.1</ele>
        <time>2014-06-01T07:49:22.000Z</time>
      </trkpt>
      <trkpt lat="47.50839" lon="6.76679">
        <ele>393.8</ele>
        <time>2014-06-01T07:49:23.000Z</time>
      </trkpt>
      <trkpt lat="47.50838" lon="6.76675">
        <ele>393.9</ele>
        <time>2014-06-01T07:49:24.000Z</time>
      </trkpt>
      <trkpt lat="47.50836" lon="6.7667">
        <ele>394.1</ele>
        <time>2014-06-01T07:49:25.000Z</time>
      </trkpt>
      <trkpt lat="47.50834" lon="6.76666">
        <ele>394.4</ele>
        <time>2014-06-01T07:49:26.000Z</time>
      </trkpt>
      <trkpt lat="47.50832" lon="6.76662">
        <ele>394</ele>
        <time>2014-06-01T07:49:27.000Z</time>
      </trkpt>
      <trkpt lat="47.5083" lon="6.76658">
        <ele>393.9</ele>
        <time>2014-06-01T07:49:28.000Z</time>
      </trkpt>
      <trkpt lat="47.50828" lon="6.76654">
        <ele>393.5</ele>
        <time>2014-06-01T07:49:29.000Z</time>
      </trkpt>
      <trkpt lat="47.50826" lon="6.7665">
        <ele>393.2</ele>
        <time>2014-06-01T07:49:30.000Z</time>
      </trkpt>
      <trkpt lat="47.50825" lon="6.76646">
        <ele>392.3</ele>
        <time>2014-06-01T07:49:31.000Z</time>
      </trkpt>
      <trkpt lat="47.50823" lon="6.76642">
        <ele>390.5</ele>
        <time>2014-06-01T07:49:32.000Z</time>
      </trkpt>
      <trkpt lat="47.50822" lon="6.76639">
        <ele>389.2</ele>
        <time>2014-06-01T07:49:33.000Z</time>
      </trkpt>
      <trkpt lat="47.5082" lon="6.76635">
        <ele>390</ele>
        <time>2014-06-01T07:49:34.000Z</time>
      </trkpt>
      <trkpt lat="47.50818" lon="6.76632">
        <ele>390.4</ele>
        <time>2014-06-01T07:49:35.000Z</time>
      </trkpt>
      <trkpt lat="47.50817" lon="6.76628">
        <ele>391.4</ele>
        <time>2014-06-01T07:49:36.000Z</time>
      </trkpt>
      <trkpt lat="47.50815" lon="6.76623">
        <ele>391.7</ele>
        <time>2014-06-01T07:49:37.000Z</time>
      </trkpt>
      <trkpt lat="47.50814" lon="6.76618">
        <ele>391.8</ele>
        <time>2014-06-01T07:49:38.000Z</time>
      </trkpt>
      <trkpt lat="47.50812" lon="6.76614">
        <ele>392.3</ele>
        <time>2014-06-01T07:49:39.000Z</time>
      </trkpt>
      <trkpt lat="47.5081" lon="6.76612">
        <ele>392.5</ele>
        <time>2014-06-01T07:49:40.000Z</time>
      </trkpt>
      <trkpt lat="47.50807" lon="6.76613">
        <ele>392.5</ele>
        <time>2014-06-01T07:49:41.000Z</time>
      </trkpt>
      <trkpt lat="47.50804" lon="6.76615">
        <ele>392.7</ele>
        <time>2014-06-01T07:49:42.000Z</time>
      </trkpt>
      <trkpt lat="47.50801" lon="6.76615">
        <ele>392.9</ele>
        <time>2014-06-01T07:49:43.000Z</time>
      </trkpt>
      <trkpt lat="47.50799" lon="6.76614">
        <ele>392.9</ele>
        <time>2014-06-01T07:49:44.000Z</time>
      </trkpt>
      <trkpt lat="47.50798" lon="6.7661">
        <ele>392.9</ele>
        <time>2014-06-01T07:49:45.000Z</time>
      </trkpt>
      <trkpt lat="47.50797" lon="6.76606">
        <ele>393.1</ele>
        <time>2014-06-01T07:49:46.000Z</time>
      </trkpt>
      <trkpt lat="47.50796" lon="6.76603">
        <ele>393.4</ele>
        <time>2014-06-01T07:49:47.000Z</time>
      </trkpt>
      <trkpt lat="47.50794" lon="6.76602">
        <ele>393.7</ele>
        <time>2014-06-01T07:49:48.000Z</time>
      </trkpt>
      <trkpt lat="47.50791" lon="6.76602">
        <ele>393.7</ele>
        <time>2014-06-01T07:49:49.000Z</time>
      </trkpt>
      <trkpt lat="47.50788" lon="6.76603">
        <ele>394.2</ele>
        <time>2014-06-01T07:49:50.000Z</time>
      </trkpt>
      <trkpt lat="47.50786" lon="6.76604">
        <ele>395.1</ele>
        <time>2014-06-01T07:49:51.000Z</time>
      </trkpt>
      <trkpt lat="47.50783" lon="6.76605">
        <ele>394.9</ele>
        <time>2014-06-01T07:49:52.000Z</time>
      </trkpt>
      <trkpt lat="47.50781" lon="6.76606">
        <ele>394.9</ele>
        <time>2014-06-01T07:49:53.000Z</time>
      </trkpt>
      <trkpt lat="47.50779" lon="6.76606">
        <ele>394.6</ele>
        <time>2014-06-01T07:49:54.000Z</time>
      </trkpt>
      <trkpt lat="47.50776" lon="6.76606">
        <ele>394.5</ele>
        <time>2014-06-01T07:49:55.000Z</time>
      </trkpt>
      <trkpt lat="47.50773" lon="6.76606">
        <ele>394.4</ele>
        <time>2014-06-01T07:49:56.000Z</time>
      </trkpt>
      <trkpt lat="47.5077" lon="6.76606">
        <ele>395</ele>
        <time>2014-06-01T07:49:57.000Z</time>
      </trkpt>
      <trkpt lat="47.50768" lon="6.76606">
        <ele>396.9</ele>
        <time>2014-06-01T07:49:58.000Z</time>
      </trkpt>
      <trkpt lat="47.50762" lon="6.76604">
        <ele>394.7</ele>
        <time>2014-06-01T07:50:01.000Z</time>
      </trkpt>
      <trkpt lat="47.5076" lon="6.76604">
        <ele>394.8</ele>
        <time>2014-06-01T07:50:02.000Z</time>
      </trkpt>
      <trkpt lat="47.50757" lon="6.76604">
        <ele>394.6</ele>
        <time>2014-06-01T07:50:03.000Z</time>
      </trkpt>
      <trkpt lat="47.50754" lon="6.76603">
        <ele>394.8</ele>
        <time>2014-06-01T07:50:04.000Z</time>
      </trkpt>
      <trkpt lat="47.50751" lon="6.76603">
        <ele>394.7</ele>
        <time>2014-06-01T07:50:05.000Z</time>
      </trkpt>
      <trkpt lat="47.50747" lon="6.76603">
        <ele>395.7</ele>
        <time>2014-06-01T07:50:06.000Z</time>
      </trkpt>
      <trkpt lat="47.50743" lon="6.76603">
        <ele>396</ele>
        <time>2014-06-01T07:50:07.000Z</time>
      </trkpt>
      <trkpt lat="47.5074" lon="6.76603">
        <ele>395.9</ele>
        <time>2014-06-01T07:50:08.000Z</time>
      </trkpt>
      <trkpt lat="47.50736" lon="6.76603">
        <ele>396.4</ele>
        <time>2014-06-01T07:50:09.000Z</time>
      </trkpt>
      <trkpt lat="47.50733" lon="6.76603">
        <ele>397</ele>
        <time>2014-06-01T07:50:10.000Z</time>
      </trkpt>
      <trkpt lat="47.50729" lon="6.76603">
        <ele>397.2</ele>
        <time>2014-06-01T07:50:11.000Z</time>
      </trkpt>
      <trkpt lat="47.50725" lon="6.76602">
        <ele>397.6</ele>
        <time>2014-06-01T07:50:12.000Z</time>
      </trkpt>
      <trkpt lat="47.50722" lon="6.76601">
        <ele>398.4</ele>
        <time>2014-06-01T07:50:13.000Z</time>
      </trkpt>
      <trkpt lat="47.50719" lon="6.766">
        <ele>398.5</ele>
        <time>2014-06-01T07:50:14.000Z</time>
      </trkpt>
      <trkpt lat="47.50715" lon="6.76599">
        <ele>399.1</ele>
        <time>2014-06-01T07:50:15.000Z</time>
      </trkpt>
      <trkpt lat="47.50712" lon="6.76599">
        <ele>397.8</ele>
        <time>2014-06-01T07:50:16.000Z</time>
      </trkpt>
      <trkpt lat="47.50708" lon="6.76598">
        <ele>398.2</ele>
        <time>2014-06-01T07:50:17.000Z</time>
      </trkpt>
      <trkpt lat="47.50704" lon="6.76597">
        <ele>398.4</ele>
        <time>2014-06-01T07:50:18.000Z</time>
      </trkpt>
      <trkpt lat="47.50701" lon="6.76596">
        <ele>398.7</ele>
        <time>2014-06-01T07:50:19.000Z</time>
      </trkpt>
      <trkpt lat="47.50697" lon="6.76596">
        <ele>398.9</ele>
        <time>2014-06-01T07:50:20.000Z</time>
      </trkpt>
      <trkpt lat="47.50694" lon="6.76596">
        <ele>399.6</ele>
        <time>2014-06-01T07:50:21.000Z</time>
      </trkpt>
      <trkpt lat="47.5069" lon="6.76596">
        <ele>400</ele>
        <time>2014-06-01T07:50:22.000Z</time>
      </trkpt>
      <trkpt lat="47.50687" lon="6.76596">
        <ele>400.1</ele>
        <time>2014-06-01T07:50:23.000Z</time>
      </trkpt>
      <trkpt lat="47.50683" lon="6.76596">
        <ele>400.2</ele>
        <time>2014-06-01T07:50:24.000Z</time>
      </trkpt>
      <trkpt lat="47.5068" lon="6.76596">
        <ele>399.4</ele>
        <time>2014-06-01T07:50:25.000Z</time>
      </trkpt>
      <trkpt lat="47.50678" lon="6.76595">
        <ele>399.4</ele>
        <time>2014-06-01T07:50:26.000Z</time>
      </trkpt>
      <trkpt lat="47.50675" lon="6.76594">
        <ele>399.2</ele>
        <time>2014-06-01T07:50:27.000Z</time>
      </trkpt>
      <trkpt lat="47.50672" lon="6.76594">
        <ele>399.1</ele>
        <time>2014-06-01T07:50:28.000Z</time>
      </trkpt>
      <trkpt lat="47.50669" lon="6.76594">
        <ele>399.6</ele>
        <time>2014-06-01T07:50:29.000Z</time>
      </trkpt>
      <trkpt lat="47.50665" lon="6.76594">
        <ele>399.6</ele>
        <time>2014-06-01T07:50:30.000Z</time>
      </trkpt>
      <trkpt lat="47.50662" lon="6.76595">
        <ele>399.9</ele>
        <time>2014-06-01T07:50:31.000Z</time>
      </trkpt>
      <trkpt lat="47.50659" lon="6.76595">
        <ele>399.8</ele>
        <time>2014-06-01T07:50:32.000Z</time>
      </trkpt>
      <trkpt lat="47.50656" lon="6.76596">
        <ele>399.7</ele>
        <time>2014-06-01T07:50:33.000Z</time>
      </trkpt>
      <trkpt lat="47.50653" lon="6.76596">
        <ele>399.8</ele>
        <time>2014-06-01T07:50:34.000Z</time>
      </trkpt>
      <trkpt lat="47.50649" lon="6.76597">
        <ele>399.6</ele>
        <time>2014-06-01T07:50:35.000Z</time>
      </trkpt>
      <trkpt lat="47.50646" lon="6.76598">
        <ele>401</ele>
        <time>2014-06-01T07:50:36.000Z</time>
      </trkpt>
      <trkpt lat="47.50643" lon="6.76599">
        <ele>401.1</ele>
        <time>2014-06-01T07:50:37.000Z</time>
      </trkpt>
      <trkpt lat="47.5064" lon="6.766">
        <ele>400</ele>
        <time>2014-06-01T07:50:38.000Z</time>
      </trkpt>
      <trkpt lat="47.50637" lon="6.76601">
        <ele>399.2</ele>
        <time>2014-06-01T07:50:39.000Z</time>
      </trkpt>
      <trkpt lat="47.50634" lon="6.76602">
        <ele>399</ele>
        <time>2014-06-01T07:50:40.000Z</time>
      </trkpt>
      <trkpt lat="47.50631" lon="6.76604">
        <ele>398.8</ele>
        <time>2014-06-01T07:50:41.000Z</time>
      </trkpt>
      <trkpt lat="47.50628" lon="6.76606">
        <ele>398.5</ele>
        <time>2014-06-01T07:50:42.000Z</time>
      </trkpt>
      <trkpt lat="47.50625" lon="6.76608">
        <ele>397.8</ele>
        <time>2014-06-01T07:50:43.000Z</time>
      </trkpt>
      <trkpt lat="47.50622" lon="6.7661">
        <ele>397.2</ele>
        <time>2014-06-01T07:50:44.000Z</time>
      </trkpt>
      <trkpt lat="47.50619" lon="6.76612">
        <ele>396.8</ele>
        <time>2014-06-01T07:50:45.000Z</time>
      </trkpt>
      <trkpt lat="47.50616" lon="6.76615">
        <ele>397.7</ele>
        <time>2014-06-01T07:50:46.000Z</time>
      </trkpt>
      <trkpt lat="47.50613" lon="6.76617">
        <ele>397.6</ele>
        <time>2014-06-01T07:50:47.000Z</time>
      </trkpt>
      <trkpt lat="47.5061" lon="6.76618">
        <ele>399</ele>
        <time>2014-06-01T07:50:48.000Z</time>
      </trkpt>
      <trkpt lat="47.50607" lon="6.76619">
        <ele>398.1</ele>
        <time>2014-06-01T07:50:49.000Z</time>
      </trkpt>
      <trkpt lat="47.50603" lon="6.7662">
        <ele>397.9</ele>
        <time>2014-06-01T07:50:50.000Z</time>
      </trkpt>
      <trkpt lat="47.506" lon="6.7662">
        <ele>397</ele>
        <time>2014-06-01T07:50:51.000Z</time>
      </trkpt>
      <trkpt lat="47.50597" lon="6.76621">
        <ele>397.3</ele>
        <time>2014-06-01T07:50:52.000Z</time>
      </trkpt>
      <trkpt lat="47.50594" lon="6.76622">
        <ele>398.1</ele>
        <time>2014-06-01T07:50:53.000Z</time>
      </trkpt>
      <trkpt lat="47.50591" lon="6.76623">
        <ele>398.2</ele>
        <time>2014-06-01T07:50:54.000Z</time>
      </trkpt>
      <trkpt lat="47.50588" lon="6.76624">
        <ele>398.1</ele>
        <time>2014-06-01T07:50:55.000Z</time>
      </trkpt>
      <trkpt lat="47.50585" lon="6.76625">
        <ele>398.5</ele>
        <time>2014-06-01T07:50:56.000Z</time>
      </trkpt>
      <trkpt lat="47.50582" lon="6.76626">
        <ele>399.2</ele>
        <time>2014-06-01T07:50:57.000Z</time>
      </trkpt>
      <trkpt lat="47.50579" lon="6.76628">
        <ele>399.2</ele>
        <time>2014-06-01T07:50:58.000Z</time>
      </trkpt>
      <trkpt lat="47.5057" lon="6.76631">
        <ele>395.5</ele>
        <time>2014-06-01T07:51:01.000Z</time>
      </trkpt>
      <trkpt lat="47.50567" lon="6.76632">
        <ele>396.8</ele>
        <time>2014-06-01T07:51:02.000Z</time>
      </trkpt>
      <trkpt lat="47.50564" lon="6.76633">
        <ele>397.1</ele>
        <time>2014-06-01T07:51:03.000Z</time>
      </trkpt>
      <trkpt lat="47.50561" lon="6.76634">
        <ele>397.1</ele>
        <time>2014-06-01T07:51:04.000Z</time>
      </trkpt>
      <trkpt lat="47.50558" lon="6.76635">
        <ele>397.6</ele>
        <time>2014-06-01T07:51:05.000Z</time>
      </trkpt>
      <trkpt lat="47.50555" lon="6.76636">
        <ele>397.8</ele>
        <time>2014-06-01T07:51:06.000Z</time>
      </trkpt>
      <trkpt lat="47.50552" lon="6.76636">
        <ele>397.9</ele>
        <time>2014-06-01T07:51:07.000Z</time>
      </trkpt>
      <trkpt lat="47.50548" lon="6.76637">
        <ele>396.6</ele>
        <time>2014-06-01T07:51:08.000Z</time>
      </trkpt>
      <trkpt lat="47.50545" lon="6.76638">
        <ele>396.8</ele>
        <time>2014-06-01T07:51:09.000Z</time>
      </trkpt>
      <trkpt lat="47.50541" lon="6.76638">
        <ele>396.8</ele>
        <time>2014-06-01T07:51:10.000Z</time>
      </trkpt>
      <trkpt lat="47.50537" lon="6.76639">
        <ele>397.2</ele>
        <time>2014-06-01T07:51:11.000Z</time>
      </trkpt>
      <trkpt lat="47.50534" lon="6.7664">
        <ele>398.1</ele>
        <time>2014-06-01T07:51:12.000Z</time>
      </trkpt>
      <trkpt lat="47.5053" lon="6.76641">
        <ele>398.3</ele>
        <time>2014-06-01T07:51:13.000Z</time>
      </trkpt>
      <trkpt lat="47.50526" lon="6.76643">
        <ele>398.1</ele>
        <time>2014-06-01T07:51:14.000Z</time>
      </trkpt>
      <trkpt lat="47.50522" lon="6.76644">
        <ele>398</ele>
        <time>2014-06-01T07:51:15.000Z</time>
      </trkpt>
      <trkpt lat="47.50517" lon="6.76645">
        <ele>398.3</ele>
        <time>2014-06-01T07:51:16.000Z</time>
      </trkpt>
      <trkpt lat="47.50511" lon="6.76648">
        <ele>398.5</ele>
        <time>2014-06-01T07:51:17.000Z</time>
      </trkpt>
      <trkpt lat="47.50506" lon="6.76649">
        <ele>398.6</ele>
        <time>2014-06-01T07:51:18.000Z</time>
      </trkpt>
      <trkpt lat="47.50502" lon="6.7665">
        <ele>398.2</ele>
        <time>2014-06-01T07:51:19.000Z</time>
      </trkpt>
      <trkpt lat="47.50497" lon="6.76651">
        <ele>398.1</ele>
        <time>2014-06-01T07:51:20.000Z</time>
      </trkpt>
      <trkpt lat="47.50493" lon="6.76653">
        <ele>397.7</ele>
        <time>2014-06-01T07:51:21.000Z</time>
      </trkpt>
      <trkpt lat="47.50488" lon="6.76655">
        <ele>397.8</ele>
        <time>2014-06-01T07:51:22.000Z</time>
      </trkpt>
      <trkpt lat="47.50483" lon="6.76656">
        <ele>397.4</ele>
        <time>2014-06-01T07:51:23.000Z</time>
      </trkpt>
      <trkpt lat="47.50479" lon="6.76658">
        <ele>397.3</ele>
        <time>2014-06-01T07:51:24.000Z</time>
      </trkpt>
      <trkpt lat="47.50474" lon="6.76659">
        <ele>397.3</ele>
        <time>2014-06-01T07:51:25.000Z</time>
      </trkpt>
      <trkpt lat="47.50469" lon="6.76661">
        <ele>397.2</ele>
        <time>2014-06-01T07:51:26.000Z</time>
      </trkpt>
      <trkpt lat="47.50464" lon="6.76663">
        <ele>397.4</ele>
        <time>2014-06-01T07:51:27.000Z</time>
      </trkpt>
      <trkpt lat="47.50459" lon="6.76665">
        <ele>397.4</ele>
        <time>2014-06-01T07:51:28.000Z</time>
      </trkpt>
      <trkpt lat="47.50454" lon="6.76667">
        <ele>397.5</ele>
        <time>2014-06-01T07:51:29.000Z</time>
      </trkpt>
      <trkpt lat="47.5045" lon="6.76669">
        <ele>397.4</ele>
        <time>2014-06-01T07:51:30.000Z</time>
      </trkpt>
      <trkpt lat="47.50445" lon="6.76672">
        <ele>397.8</ele>
        <time>2014-06-01T07:51:31.000Z</time>
      </trkpt>
      <trkpt lat="47.5044" lon="6.76675">
        <ele>397.8</ele>
        <time>2014-06-01T07:51:32.000Z</time>
      </trkpt>
      <trkpt lat="47.50435" lon="6.76677">
        <ele>397.7</ele>
        <time>2014-06-01T07:51:33.000Z</time>
      </trkpt>
      <trkpt lat="47.5043" lon="6.76679">
        <ele>397.6</ele>
        <time>2014-06-01T07:51:34.000Z</time>
      </trkpt>
      <trkpt lat="47.50425" lon="6.76681">
        <ele>397.6</ele>
        <time>2014-06-01T07:51:35.000Z</time>
      </trkpt>
      <trkpt lat="47.5042" lon="6.76684">
        <ele>397.6</ele>
        <time>2014-06-01T07:51:36.000Z</time>
      </trkpt>
      <trkpt lat="47.50415" lon="6.76685">
        <ele>398.7</ele>
        <time>2014-06-01T07:51:37.000Z</time>
      </trkpt>
      <trkpt lat="47.5041" lon="6.76687">
        <ele>398.5</ele>
        <time>2014-06-01T07:51:38.000Z</time>
      </trkpt>
      <trkpt lat="47.50406" lon="6.7669">
        <ele>399</ele>
        <time>2014-06-01T07:51:39.000Z</time>
      </trkpt>
      <trkpt lat="47.50401" lon="6.76692">
        <ele>399.3</ele>
        <time>2014-06-01T07:51:40.000Z</time>
      </trkpt>
      <trkpt lat="47.50396" lon="6.76695">
        <ele>399.5</ele>
        <time>2014-06-01T07:51:41.000Z</time>
      </trkpt>
      <trkpt lat="47.50392" lon="6.76697">
        <ele>399.7</ele>
        <time>2014-06-01T07:51:42.000Z</time>
      </trkpt>
      <trkpt lat="47.50387" lon="6.767">
        <ele>400.3</ele>
        <time>2014-06-01T07:51:43.000Z</time>
      </trkpt>
      <trkpt lat="47.50382" lon="6.76702">
        <ele>401</ele>
        <time>2014-06-01T07:51:44.000Z</time>
      </trkpt>
      <trkpt lat="47.50377" lon="6.76703">
        <ele>401.1</ele>
        <time>2014-06-01T07:51:45.000Z</time>
      </trkpt>
      <trkpt lat="47.50372" lon="6.76705">
        <ele>401.7</ele>
        <time>2014-06-01T07:51:46.000Z</time>
      </trkpt>
      <trkpt lat="47.50367" lon="6.76708">
        <ele>402</ele>
        <time>2014-06-01T07:51:47.000Z</time>
      </trkpt>
      <trkpt lat="47.50362" lon="6.7671">
        <ele>402.3</ele>
        <time>2014-06-01T07:51:48.000Z</time>
      </trkpt>
      <trkpt lat="47.50357" lon="6.76713">
        <ele>402.4</ele>
        <time>2014-06-01T07:51:49.000Z</time>
      </trkpt>
      <trkpt lat="47.50352" lon="6.76715">
        <ele>403.1</ele>
        <time>2014-06-01T07:51:50.000Z</time>
      </trkpt>
      <trkpt lat="47.50347" lon="6.76719">
        <ele>404</ele>
        <time>2014-06-01T07:51:51.000Z</time>
      </trkpt>
      <trkpt lat="47.50342" lon="6.76722">
        <ele>404.5</ele>
        <time>2014-06-01T07:51:52.000Z</time>
      </trkpt>
      <trkpt lat="47.50337" lon="6.76725">
        <ele>404.8</ele>
        <time>2014-06-01T07:51:53.000Z</time>
      </trkpt>
      <trkpt lat="47.50333" lon="6.76727">
        <ele>405.3</ele>
        <time>2014-06-01T07:51:54.000Z</time>
      </trkpt>
      <trkpt lat="47.50328" lon="6.76729">
        <ele>405.7</ele>
        <time>2014-06-01T07:51:55.000Z</time>
      </trkpt>
      <trkpt lat="47.50323" lon="6.7673">
        <ele>405.6</ele>
        <time>2014-06-01T07:51:56.000Z</time>
      </trkpt>
      <trkpt lat="47.50319" lon="6.76733">
        <ele>406.1</ele>
        <time>2014-06-01T07:51:57.000Z</time>
      </trkpt>
      <trkpt lat="47.50314" lon="6.76735">
        <ele>406.2</ele>
        <time>2014-06-01T07:51:58.000Z</time>
      </trkpt>
      <trkpt lat="47.50308" lon="6.76736">
        <ele>358.2</ele>
        <time>2014-06-01T07:52:06.000Z</time>
      </trkpt>
      <trkpt lat="47.50304" lon="6.76737">
        <ele>359</ele>
        <time>2014-06-01T07:52:07.000Z</time>
      </trkpt>
      <trkpt lat="47.50301" lon="6.76737">
        <ele>359.5</ele>
        <time>2014-06-01T07:52:08.000Z</time>
      </trkpt>
      <trkpt lat="47.50298" lon="6.76737">
        <ele>359.9</ele>
        <time>2014-06-01T07:52:09.000Z</time>
      </trkpt>
      <trkpt lat="47.50294" lon="6.76737">
        <ele>360.7</ele>
        <time>2014-06-01T07:52:10.000Z</time>
      </trkpt>
      <trkpt lat="47.50291" lon="6.76737">
        <ele>361.2</ele>
        <time>2014-06-01T07:52:11.000Z</time>
      </trkpt>
      <trkpt lat="47.50288" lon="6.76736">
        <ele>361.7</ele>
        <time>2014-06-01T07:52:12.000Z</time>
      </trkpt>
      <trkpt lat="47.50285" lon="6.76736">
        <ele>362.5</ele>
        <time>2014-06-01T07:52:13.000Z</time>
      </trkpt>
      <trkpt lat="47.50282" lon="6.76737">
        <ele>363.9</ele>
        <time>2014-06-01T07:52:14.000Z</time>
      </trkpt>
      <trkpt lat="47.50279" lon="6.76737">
        <ele>364.2</ele>
        <time>2014-06-01T07:52:15.000Z</time>
      </trkpt>
      <trkpt lat="47.50277" lon="6.76738">
        <ele>364.6</ele>
        <time>2014-06-01T07:52:16.000Z</time>
      </trkpt>
      <trkpt lat="47.50274" lon="6.76739">
        <ele>365</ele>
        <time>2014-06-01T07:52:17.000Z</time>
      </trkpt>
      <trkpt lat="47.50272" lon="6.76739">
        <ele>365.5</ele>
        <time>2014-06-01T07:52:18.000Z</time>
      </trkpt>
      <trkpt lat="47.50269" lon="6.7674">
        <ele>366</ele>
        <time>2014-06-01T07:52:19.000Z</time>
      </trkpt>
      <trkpt lat="47.50266" lon="6.76741">
        <ele>366.3</ele>
        <time>2014-06-01T07:52:20.000Z</time>
      </trkpt>
      <trkpt lat="47.50263" lon="6.76742">
        <ele>366.8</ele>
        <time>2014-06-01T07:52:21.000Z</time>
      </trkpt>
      <trkpt lat="47.5026" lon="6.76743">
        <ele>367.3</ele>
        <time>2014-06-01T07:52:22.000Z</time>
      </trkpt>
      <trkpt lat="47.50257" lon="6.76742">
        <ele>367.9</ele>
        <time>2014-06-01T07:52:23.000Z</time>
      </trkpt>
      <trkpt lat="47.50254" lon="6.76741">
        <ele>368.9</ele>
        <time>2014-06-01T07:52:24.000Z</time>
      </trkpt>
      <trkpt lat="47.50251" lon="6.76739">
        <ele>371.5</ele>
        <time>2014-06-01T07:52:25.000Z</time>
      </trkpt>
      <trkpt lat="47.50249" lon="6.76736">
        <ele>372.3</ele>
        <time>2014-06-01T07:52:26.000Z</time>
      </trkpt>
      <trkpt lat="47.50246" lon="6.76732">
        <ele>372.7</ele>
        <time>2014-06-01T07:52:27.000Z</time>
      </trkpt>
      <trkpt lat="47.50243" lon="6.76729">
        <ele>372.4</ele>
        <time>2014-06-01T07:52:28.000Z</time>
      </trkpt>
      <trkpt lat="47.50241" lon="6.76726">
        <ele>373.4</ele>
        <time>2014-06-01T07:52:29.000Z</time>
      </trkpt>
      <trkpt lat="47.50238" lon="6.76723">
        <ele>374.5</ele>
        <time>2014-06-01T07:52:30.000Z</time>
      </trkpt>
      <trkpt lat="47.50235" lon="6.7672">
        <ele>375.5</ele>
        <time>2014-06-01T07:52:31.000Z</time>
      </trkpt>
      <trkpt lat="47.50233" lon="6.76716">
        <ele>376.3</ele>
        <time>2014-06-01T07:52:32.000Z</time>
      </trkpt>
      <trkpt lat="47.5023" lon="6.76712">
        <ele>376.4</ele>
        <time>2014-06-01T07:52:33.000Z</time>
      </trkpt>
      <trkpt lat="47.50228" lon="6.76707">
        <ele>376.1</ele>
        <time>2014-06-01T07:52:34.000Z</time>
      </trkpt>
      <trkpt lat="47.50226" lon="6.76702">
        <ele>377.1</ele>
        <time>2014-06-01T07:52:35.000Z</time>
      </trkpt>
      <trkpt lat="47.50224" lon="6.76697">
        <ele>377.4</ele>
        <time>2014-06-01T07:52:36.000Z</time>
      </trkpt>
      <trkpt lat="47.50222" lon="6.76693">
        <ele>377.5</ele>
        <time>2014-06-01T07:52:36.999Z</time>
      </trkpt>
      <trkpt lat="47.5022" lon="6.76687">
        <ele>377.8</ele>
        <time>2014-06-01T07:52:38.000Z</time>
      </trkpt>
      <trkpt lat="47.50218" lon="6.76682">
        <ele>377.9</ele>
        <time>2014-06-01T07:52:39.000Z</time>
      </trkpt>
      <trkpt lat="47.50216" lon="6.76677">
        <ele>378.7</ele>
        <time>2014-06-01T07:52:40.000Z</time>
      </trkpt>
      <trkpt lat="47.50214" lon="6.76671">
        <ele>379</ele>
        <time>2014-06-01T07:52:41.000Z</time>
      </trkpt>
      <trkpt lat="47.50213" lon="6.76666">
        <ele>379.5</ele>
        <time>2014-06-01T07:52:42.000Z</time>
      </trkpt>
      <trkpt lat="47.50211" lon="6.76661">
        <ele>379.6</ele>
        <time>2014-06-01T07:52:43.000Z</time>
      </trkpt>
      <trkpt lat="47.50209" lon="6.76656">
        <ele>380</ele>
        <time>2014-06-01T07:52:44.000Z</time>
      </trkpt>
      <trkpt lat="47.50208" lon="6.76651">
        <ele>380.1</ele>
        <time>2014-06-01T07:52:45.000Z</time>
      </trkpt>
      <trkpt lat="47.50206" lon="6.76646">
        <ele>380.2</ele>
        <time>2014-06-01T07:52:46.000Z</time>
      </trkpt>
      <trkpt lat="47.50205" lon="6.76642">
        <ele>380.9</ele>
        <time>2014-06-01T07:52:47.000Z</time>
      </trkpt>
      <trkpt lat="47.50203" lon="6.76637">
        <ele>381.2</ele>
        <time>2014-06-01T07:52:48.000Z</time>
      </trkpt>
      <trkpt lat="47.50201" lon="6.76632">
        <ele>381.4</ele>
        <time>2014-06-01T07:52:49.000Z</time>
      </trkpt>
      <trkpt lat="47.502" lon="6.76627">
        <ele>381.3</ele>
        <time>2014-06-01T07:52:50.000Z</time>
      </trkpt>
      <trkpt lat="47.50198" lon="6.76622">
        <ele>381</ele>
        <time>2014-06-01T07:52:51.000Z</time>
      </trkpt>
      <trkpt lat="47.50196" lon="6.76617">
        <ele>380.8</ele>
        <time>2014-06-01T07:52:52.000Z</time>
      </trkpt>
      <trkpt lat="47.50195" lon="6.76613">
        <ele>381</ele>
        <time>2014-06-01T07:52:53.000Z</time>
      </trkpt>
      <trkpt lat="47.50194" lon="6.7661">
        <ele>381.3</ele>
        <time>2014-06-01T07:52:54.000Z</time>
      </trkpt>
      <trkpt lat="47.50192" lon="6.76604">
        <ele>382.7</ele>
        <time>2014-06-01T07:52:57.000Z</time>
      </trkpt>
      <trkpt lat="47.50194" lon="6.76598">
        <ele>377.4</ele>
        <time>2014-06-01T07:53:00.000Z</time>
      </trkpt>
      <trkpt lat="47.50197" lon="6.76595">
        <ele>376.2</ele>
        <time>2014-06-01T07:53:06.000Z</time>
      </trkpt>
      <trkpt lat="47.50197" lon="6.76594">
        <ele>376</ele>
        <time>2014-06-01T07:53:07.000Z</time>
      </trkpt>
      <trkpt lat="47.50196" lon="6.76588">
        <ele>376.5</ele>
        <time>2014-06-01T07:53:10.000Z</time>
      </trkpt>
      <trkpt lat="47.50195" lon="6.76587">
        <ele>376.6</ele>
        <time>2014-06-01T07:53:11.000Z</time>
      </trkpt>
      <trkpt lat="47.50192" lon="6.76583">
        <ele>377.9</ele>
        <time>2014-06-01T07:53:15.000Z</time>
      </trkpt>
      <trkpt lat="47.50193" lon="6.76581">
        <ele>378.5</ele>
        <time>2014-06-01T07:53:16.000Z</time>
      </trkpt>
      <trkpt lat="47.50194" lon="6.76578">
        <ele>379.1</ele>
        <time>2014-06-01T07:53:17.000Z</time>
      </trkpt>
      <trkpt lat="47.50196" lon="6.76575">
        <ele>379.6</ele>
        <time>2014-06-01T07:53:18.000Z</time>
      </trkpt>
      <trkpt lat="47.50198" lon="6.76572">
        <ele>379.6</ele>
        <time>2014-06-01T07:53:19.000Z</time>
      </trkpt>
      <trkpt lat="47.50201" lon="6.76569">
        <ele>380.5</ele>
        <time>2014-06-01T07:53:20.000Z</time>
      </trkpt>
      <trkpt lat="47.50204" lon="6.76566">
        <ele>380.9</ele>
        <time>2014-06-01T07:53:21.000Z</time>
      </trkpt>
      <trkpt lat="47.50206" lon="6.76563">
        <ele>380.8</ele>
        <time>2014-06-01T07:53:22.000Z</time>
      </trkpt>
      <trkpt lat="47.50209" lon="6.7656">
        <ele>381.2</ele>
        <time>2014-06-01T07:53:23.000Z</time>
      </trkpt>
      <trkpt lat="47.5021" lon="6.76556">
        <ele>382.1</ele>
        <time>2014-06-01T07:53:24.000Z</time>
      </trkpt>
      <trkpt lat="47.50211" lon="6.76551">
        <ele>382.2</ele>
        <time>2014-06-01T07:53:25.000Z</time>
      </trkpt>
      <trkpt lat="47.5021" lon="6.76547">
        <ele>382.5</ele>
        <time>2014-06-01T07:53:26.000Z</time>
      </trkpt>
      <trkpt lat="47.50208" lon="6.76541">
        <ele>382.9</ele>
        <time>2014-06-01T07:53:27.000Z</time>
      </trkpt>
      <trkpt lat="47.50205" lon="6.76535">
        <ele>384</ele>
        <time>2014-06-01T07:53:28.000Z</time>
      </trkpt>
      <trkpt lat="47.50202" lon="6.76529">
        <ele>385.6</ele>
        <time>2014-06-01T07:53:29.000Z</time>
      </trkpt>
      <trkpt lat="47.50189" lon="6.76515">
        <ele>386.2</ele>
        <time>2014-06-01T07:53:30.000Z</time>
      </trkpt>
      <trkpt lat="47.50186" lon="6.76508">
        <ele>387.3</ele>
        <time>2014-06-01T07:53:31.000Z</time>
      </trkpt>
      <trkpt lat="47.50181" lon="6.76498">
        <ele>388.2</ele>
        <time>2014-06-01T07:53:32.000Z</time>
      </trkpt>
      <trkpt lat="47.50176" lon="6.76486">
        <ele>388.7</ele>
        <time>2014-06-01T07:53:33.000Z</time>
      </trkpt>
      <trkpt lat="47.50169" lon="6.76477">
        <ele>389.9</ele>
        <time>2014-06-01T07:53:34.000Z</time>
      </trkpt>
      <trkpt lat="47.50167" lon="6.76464">
        <ele>390.3</ele>
        <time>2014-06-01T07:53:35.000Z</time>
      </trkpt>
      <trkpt lat="47.50163" lon="6.76453">
        <ele>390.6</ele>
        <time>2014-06-01T07:53:36.000Z</time>
      </trkpt>
      <trkpt lat="47.50158" lon="6.76439">
        <ele>391.6</ele>
        <time>2014-06-01T07:53:37.000Z</time>
      </trkpt>
      <trkpt lat="47.50154" lon="6.7643">
        <ele>391.2</ele>
        <time>2014-06-01T07:53:38.000Z</time>
      </trkpt>
      <trkpt lat="47.50148" lon="6.76421">
        <ele>392.4</ele>
        <time>2014-06-01T07:53:39.000Z</time>
      </trkpt>
      <trkpt lat="47.50145" lon="6.76412">
        <ele>393</ele>
        <time>2014-06-01T07:53:40.000Z</time>
      </trkpt>
      <trkpt lat="47.5014" lon="6.76404">
        <ele>393.7</ele>
        <time>2014-06-01T07:53:41.000Z</time>
      </trkpt>
      <trkpt lat="47.50137" lon="6.76395">
        <ele>394.5</ele>
        <time>2014-06-01T07:53:42.000Z</time>
      </trkpt>
      <trkpt lat="47.50134" lon="6.76386">
        <ele>395.2</ele>
        <time>2014-06-01T07:53:43.000Z</time>
      </trkpt>
      <trkpt lat="47.50132" lon="6.76376">
        <ele>395.9</ele>
        <time>2014-06-01T07:53:44.000Z</time>
      </trkpt>
      <trkpt lat="47.50129" lon="6.76367">
        <ele>396.5</ele>
        <time>2014-06-01T07:53:45.000Z</time>
      </trkpt>
      <trkpt lat="47.50127" lon="6.76357">
        <ele>396</ele>
        <time>2014-06-01T07:53:46.000Z</time>
      </trkpt>
      <trkpt lat="47.50126" lon="6.76348">
        <ele>396.3</ele>
        <time>2014-06-01T07:53:47.000Z</time>
      </trkpt>
      <trkpt lat="47.50122" lon="6.76339">
        <ele>397.4</ele>
        <time>2014-06-01T07:53:48.000Z</time>
      </trkpt>
      <trkpt lat="47.5012" lon="6.76332">
        <ele>398.4</ele>
        <time>2014-06-01T07:53:49.000Z</time>
      </trkpt>
      <trkpt lat="47.50119" lon="6.76325">
        <ele>399.1</ele>
        <time>2014-06-01T07:53:50.000Z</time>
      </trkpt>
      <trkpt lat="47.50119" lon="6.76322">
        <ele>399.3</ele>
        <time>2014-06-01T07:53:51.000Z</time>
      </trkpt>
      <trkpt lat="47.50118" lon="6.76317">
        <ele>399.2</ele>
        <time>2014-06-01T07:53:52.000Z</time>
      </trkpt>
      <trkpt lat="47.50119" lon="6.76313">
        <ele>399.5</ele>
        <time>2014-06-01T07:53:54.000Z</time>
      </trkpt>
      <trkpt lat="47.5012" lon="6.7631">
        <ele>399.9</ele>
        <time>2014-06-01T07:53:55.000Z</time>
      </trkpt>
      <trkpt lat="47.50119" lon="6.76308">
        <ele>400.4</ele>
        <time>2014-06-01T07:53:56.000Z</time>
      </trkpt>
      <trkpt lat="47.50119" lon="6.76303">
        <ele>401.1</ele>
        <time>2014-06-01T07:53:57.000Z</time>
      </trkpt>
      <trkpt lat="47.50117" lon="6.76298">
        <ele>353.7</ele>
        <time>2014-06-01T07:54:00.000Z</time>
      </trkpt>
      <trkpt lat="47.50116" lon="6.76294">
        <ele>354.3</ele>
        <time>2014-06-01T07:54:01.000Z</time>
      </trkpt>
      <trkpt lat="47.50114" lon="6.7629">
        <ele>354.8</ele>
        <time>2014-06-01T07:54:02.000Z</time>
      </trkpt>
      <trkpt lat="47.50113" lon="6.76282">
        <ele>355.8</ele>
        <time>2014-06-01T07:54:03.000Z</time>
      </trkpt>
      <trkpt lat="47.50112" lon="6.76277">
        <ele>356.4</ele>
        <time>2014-06-01T07:54:04.000Z</time>
      </trkpt>
      <trkpt lat="47.50111" lon="6.76273">
        <ele>356.6</ele>
        <time>2014-06-01T07:54:05.000Z</time>
      </trkpt>
      <trkpt lat="47.50111" lon="6.76269">
        <ele>357.3</ele>
        <time>2014-06-01T07:54:06.000Z</time>
      </trkpt>
      <trkpt lat="47.5011" lon="6.76263">
        <ele>357.9</ele>
        <time>2014-06-01T07:54:07.000Z</time>
      </trkpt>
      <trkpt lat="47.50108" lon="6.76257">
        <ele>358.6</ele>
        <time>2014-06-01T07:54:08.000Z</time>
      </trkpt>
      <trkpt lat="47.50107" lon="6.76252">
        <ele>359.2</ele>
        <time>2014-06-01T07:54:09.000Z</time>
      </trkpt>
      <trkpt lat="47.50105" lon="6.76247">
        <ele>359.5</ele>
        <time>2014-06-01T07:54:10.000Z</time>
      </trkpt>
      <trkpt lat="47.50103" lon="6.76241">
        <ele>360.2</ele>
        <time>2014-06-01T07:54:11.000Z</time>
      </trkpt>
      <trkpt lat="47.50101" lon="6.76235">
        <ele>360.4</ele>
        <time>2014-06-01T07:54:12.000Z</time>
      </trkpt>
      <trkpt lat="47.50098" lon="6.7622">
        <ele>361.4</ele>
        <time>2014-06-01T07:54:13.000Z</time>
      </trkpt>
      <trkpt lat="47.50095" lon="6.76206">
        <ele>363.6</ele>
        <time>2014-06-01T07:54:14.000Z</time>
      </trkpt>
      <trkpt lat="47.50092" lon="6.76193">
        <ele>364.6</ele>
        <time>2014-06-01T07:54:15.000Z</time>
      </trkpt>
      <trkpt lat="47.50089" lon="6.7618">
        <ele>365.3</ele>
        <time>2014-06-01T07:54:16.000Z</time>
      </trkpt>
      <trkpt lat="47.50087" lon="6.7617">
        <ele>366.2</ele>
        <time>2014-06-01T07:54:17.000Z</time>
      </trkpt>
      <trkpt lat="47.50086" lon="6.76159">
        <ele>367.2</ele>
        <time>2014-06-01T07:54:18.000Z</time>
      </trkpt>
      <trkpt lat="47.50083" lon="6.76151">
        <ele>368.2</ele>
        <time>2014-06-01T07:54:19.000Z</time>
      </trkpt>
      <trkpt lat="47.50081" lon="6.76138">
        <ele>368.5</ele>
        <time>2014-06-01T07:54:20.000Z</time>
      </trkpt>
      <trkpt lat="47.50079" lon="6.76122">
        <ele>369.9</ele>
        <time>2014-06-01T07:54:21.000Z</time>
      </trkpt>
      <trkpt lat="47.50078" lon="6.7611">
        <ele>370</ele>
        <time>2014-06-01T07:54:22.000Z</time>
      </trkpt>
      <trkpt lat="47.50078" lon="6.76094">
        <ele>370.7</ele>
        <time>2014-06-01T07:54:23.000Z</time>
      </trkpt>
      <trkpt lat="47.50076" lon="6.76076">
        <ele>371.6</ele>
        <time>2014-06-01T07:54:24.000Z</time>
      </trkpt>
      <trkpt lat="47.50073" lon="6.76063">
        <ele>371.9</ele>
        <time>2014-06-01T07:54:25.000Z</time>
      </trkpt>
      <trkpt lat="47.50069" lon="6.76048">
        <ele>373.3</ele>
        <time>2014-06-01T07:54:26.000Z</time>
      </trkpt>
      <trkpt lat="47.50063" lon="6.76036">
        <ele>373.6</ele>
        <time>2014-06-01T07:54:27.000Z</time>
      </trkpt>
      <trkpt lat="47.50058" lon="6.76023">
        <ele>374.4</ele>
        <time>2014-06-01T07:54:28.000Z</time>
      </trkpt>
      <trkpt lat="47.50052" lon="6.76008">
        <ele>375.9</ele>
        <time>2014-06-01T07:54:29.000Z</time>
      </trkpt>
      <trkpt lat="47.50046" lon="6.75993">
        <ele>376.1</ele>
        <time>2014-06-01T07:54:30.000Z</time>
      </trkpt>
      <trkpt lat="47.50041" lon="6.75984">
        <ele>376.3</ele>
        <time>2014-06-01T07:54:31.000Z</time>
      </trkpt>
      <trkpt lat="47.50037" lon="6.75971">
        <ele>376.7</ele>
        <time>2014-06-01T07:54:32.000Z</time>
      </trkpt>
      <trkpt lat="47.5003" lon="6.75961">
        <ele>377.3</ele>
        <time>2014-06-01T07:54:33.000Z</time>
      </trkpt>
      <trkpt lat="47.50024" lon="6.75951">
        <ele>378.1</ele>
        <time>2014-06-01T07:54:34.000Z</time>
      </trkpt>
      <trkpt lat="47.50019" lon="6.75942">
        <ele>378.1</ele>
        <time>2014-06-01T07:54:35.000Z</time>
      </trkpt>
      <trkpt lat="47.50015" lon="6.75931">
        <ele>378.7</ele>
        <time>2014-06-01T07:54:36.000Z</time>
      </trkpt>
      <trkpt lat="47.50008" lon="6.75922">
        <ele>379.1</ele>
        <time>2014-06-01T07:54:37.000Z</time>
      </trkpt>
      <trkpt lat="47.50001" lon="6.75912">
        <ele>380</ele>
        <time>2014-06-01T07:54:38.000Z</time>
      </trkpt>
      <trkpt lat="47.49996" lon="6.75904">
        <ele>380.3</ele>
        <time>2014-06-01T07:54:39.000Z</time>
      </trkpt>
      <trkpt lat="47.49991" lon="6.75896">
        <ele>380.2</ele>
        <time>2014-06-01T07:54:40.000Z</time>
      </trkpt>
      <trkpt lat="47.49985" lon="6.75888">
        <ele>380.1</ele>
        <time>2014-06-01T07:54:41.000Z</time>
      </trkpt>
      <trkpt lat="47.49979" lon="6.75878">
        <ele>380.4</ele>
        <time>2014-06-01T07:54:42.000Z</time>
      </trkpt>
      <trkpt lat="47.49974" lon="6.75865">
        <ele>380.8</ele>
        <time>2014-06-01T07:54:43.000Z</time>
      </trkpt>
      <trkpt lat="47.49968" lon="6.75856">
        <ele>381</ele>
        <time>2014-06-01T07:54:44.000Z</time>
      </trkpt>
      <trkpt lat="47.4996" lon="6.75846">
        <ele>381.8</ele>
        <time>2014-06-01T07:54:45.000Z</time>
      </trkpt>
      <trkpt lat="47.49953" lon="6.75835">
        <ele>381.9</ele>
        <time>2014-06-01T07:54:46.000Z</time>
      </trkpt>
      <trkpt lat="47.49947" lon="6.75828">
        <ele>382</ele>
        <time>2014-06-01T07:54:47.000Z</time>
      </trkpt>
      <trkpt lat="47.4994" lon="6.75818">
        <ele>384.8</ele>
        <time>2014-06-01T07:54:48.000Z</time>
      </trkpt>
      <trkpt lat="47.49934" lon="6.7581">
        <ele>385.5</ele>
        <time>2014-06-01T07:54:49.000Z</time>
      </trkpt>
      <trkpt lat="47.4993" lon="6.75802">
        <ele>386.5</ele>
        <time>2014-06-01T07:54:50.000Z</time>
      </trkpt>
      <trkpt lat="47.49926" lon="6.75796">
        <ele>386.4</ele>
        <time>2014-06-01T07:54:51.000Z</time>
      </trkpt>
      <trkpt lat="47.49921" lon="6.75791">
        <ele>386.6</ele>
        <time>2014-06-01T07:54:52.000Z</time>
      </trkpt>
      <trkpt lat="47.49916" lon="6.75783">
        <ele>387.4</ele>
        <time>2014-06-01T07:54:53.000Z</time>
      </trkpt>
      <trkpt lat="47.49913" lon="6.75772">
        <ele>383.1</ele>
        <time>2014-06-01T07:54:54.000Z</time>
      </trkpt>
      <trkpt lat="47.49908" lon="6.75764">
        <ele>381.9</ele>
        <time>2014-06-01T07:54:55.000Z</time>
      </trkpt>
      <trkpt lat="47.49902" lon="6.75759">
        <ele>382</ele>
        <time>2014-06-01T07:54:56.000Z</time>
      </trkpt>
      <trkpt lat="47.49895" lon="6.75758">
        <ele>381.4</ele>
        <time>2014-06-01T07:54:57.000Z</time>
      </trkpt>
      <trkpt lat="47.49878" lon="6.75756">
        <ele>368.1</ele>
        <time>2014-06-01T07:55:00.000Z</time>
      </trkpt>
      <trkpt lat="47.4987" lon="6.75758">
        <ele>367.9</ele>
        <time>2014-06-01T07:55:01.000Z</time>
      </trkpt>
      <trkpt lat="47.49859" lon="6.75756">
        <ele>367.9</ele>
        <time>2014-06-01T07:55:02.000Z</time>
      </trkpt>
      <trkpt lat="47.49851" lon="6.75757">
        <ele>368</ele>
        <time>2014-06-01T07:55:03.000Z</time>
      </trkpt>
      <trkpt lat="47.49842" lon="6.75758">
        <ele>368.4</ele>
        <time>2014-06-01T07:55:04.000Z</time>
      </trkpt>
      <trkpt lat="47.49833" lon="6.75759">
        <ele>368.5</ele>
        <time>2014-06-01T07:55:05.000Z</time>
      </trkpt>
      <trkpt lat="47.49824" lon="6.7576">
        <ele>368.8</ele>
        <time>2014-06-01T07:55:06.000Z</time>
      </trkpt>
      <trkpt lat="47.49815" lon="6.75761">
        <ele>369</ele>
        <time>2014-06-01T07:55:07.000Z</time>
      </trkpt>
      <trkpt lat="47.49807" lon="6.7576">
        <ele>369</ele>
        <time>2014-06-01T07:55:08.000Z</time>
      </trkpt>
      <trkpt lat="47.49797" lon="6.75762">
        <ele>367</ele>
        <time>2014-06-01T07:55:09.000Z</time>
      </trkpt>
      <trkpt lat="47.49787" lon="6.75763">
        <ele>366.7</ele>
        <time>2014-06-01T07:55:10.000Z</time>
      </trkpt>
      <trkpt lat="47.49778" lon="6.75765">
        <ele>366.9</ele>
        <time>2014-06-01T07:55:11.000Z</time>
      </trkpt>
      <trkpt lat="47.49769" lon="6.75767">
        <ele>366.6</ele>
        <time>2014-06-01T07:55:12.000Z</time>
      </trkpt>
      <trkpt lat="47.49759" lon="6.75772">
        <ele>366.7</ele>
        <time>2014-06-01T07:55:13.000Z</time>
      </trkpt>
      <trkpt lat="47.49749" lon="6.75775">
        <ele>364.8</ele>
        <time>2014-06-01T07:55:14.000Z</time>
      </trkpt>
      <trkpt lat="47.4974" lon="6.75778">
        <ele>364.4</ele>
        <time>2014-06-01T07:55:15.000Z</time>
      </trkpt>
      <trkpt lat="47.49731" lon="6.75782">
        <ele>365.1</ele>
        <time>2014-06-01T07:55:16.000Z</time>
      </trkpt>
      <trkpt lat="47.49722" lon="6.75784">
        <ele>366.8</ele>
        <time>2014-06-01T07:55:17.000Z</time>
      </trkpt>
      <trkpt lat="47.49713" lon="6.75788">
        <ele>367.3</ele>
        <time>2014-06-01T07:55:18.000Z</time>
      </trkpt>
      <trkpt lat="47.49704" lon="6.75789">
        <ele>366.7</ele>
        <time>2014-06-01T07:55:19.000Z</time>
      </trkpt>
      <trkpt lat="47.49696" lon="6.75791">
        <ele>365.8</ele>
        <time>2014-06-01T07:55:20.000Z</time>
      </trkpt>
      <trkpt lat="47.49687" lon="6.75795">
        <ele>366.1</ele>
        <time>2014-06-01T07:55:21.000Z</time>
      </trkpt>
      <trkpt lat="47.4968" lon="6.75798">
        <ele>366.1</ele>
        <time>2014-06-01T07:55:22.000Z</time>
      </trkpt>
      <trkpt lat="47.49671" lon="6.75802">
        <ele>366.3</ele>
        <time>2014-06-01T07:55:23.000Z</time>
      </trkpt>
      <trkpt lat="47.49663" lon="6.75802">
        <ele>366</ele>
        <time>2014-06-01T07:55:24.000Z</time>
      </trkpt>
      <trkpt lat="47.49657" lon="6.758">
        <ele>365.7</ele>
        <time>2014-06-01T07:55:25.000Z</time>
      </trkpt>
      <trkpt lat="47.49649" lon="6.758">
        <ele>365.8</ele>
        <time>2014-06-01T07:55:26.000Z</time>
      </trkpt>
      <trkpt lat="47.49641" lon="6.75801">
        <ele>365.9</ele>
        <time>2014-06-01T07:55:27.000Z</time>
      </trkpt>
      <trkpt lat="47.49631" lon="6.75801">
        <ele>366.2</ele>
        <time>2014-06-01T07:55:28.000Z</time>
      </trkpt>
      <trkpt lat="47.49624" lon="6.75803">
        <ele>366.4</ele>
        <time>2014-06-01T07:55:29.000Z</time>
      </trkpt>
      <trkpt lat="47.49616" lon="6.75802">
        <ele>365.6</ele>
        <time>2014-06-01T07:55:30.000Z</time>
      </trkpt>
      <trkpt lat="47.49608" lon="6.75802">
        <ele>365.9</ele>
        <time>2014-06-01T07:55:31.000Z</time>
      </trkpt>
      <trkpt lat="47.49601" lon="6.75804">
        <ele>365.9</ele>
        <time>2014-06-01T07:55:32.000Z</time>
      </trkpt>
      <trkpt lat="47.49593" lon="6.75804">
        <ele>365.9</ele>
        <time>2014-06-01T07:55:33.000Z</time>
      </trkpt>
      <trkpt lat="47.49587" lon="6.75804">
        <ele>365.7</ele>
        <time>2014-06-01T07:55:34.000Z</time>
      </trkpt>
      <trkpt lat="47.4958" lon="6.75802">
        <ele>365.4</ele>
        <time>2014-06-01T07:55:35.000Z</time>
      </trkpt>
      <trkpt lat="47.49572" lon="6.75801">
        <ele>364.8</ele>
        <time>2014-06-01T07:55:36.000Z</time>
      </trkpt>
      <trkpt lat="47.49566" lon="6.75801">
        <ele>364.5</ele>
        <time>2014-06-01T07:55:37.000Z</time>
      </trkpt>
      <trkpt lat="47.4956" lon="6.75797">
        <ele>363.6</ele>
        <time>2014-06-01T07:55:38.000Z</time>
      </trkpt>
      <trkpt lat="47.49555" lon="6.75792">
        <ele>362.7</ele>
        <time>2014-06-01T07:55:39.000Z</time>
      </trkpt>
      <trkpt lat="47.49551" lon="6.75791">
        <ele>360.2</ele>
        <time>2014-06-01T07:55:40.000Z</time>
      </trkpt>
      <trkpt lat="47.49549" lon="6.75788">
        <ele>357.4</ele>
        <time>2014-06-01T07:55:41.000Z</time>
      </trkpt>
      <trkpt lat="47.4955" lon="6.75783">
        <ele>356.2</ele>
        <time>2014-06-01T07:55:42.000Z</time>
      </trkpt>
      <trkpt lat="47.49555" lon="6.75773">
        <ele>350.3</ele>
        <time>2014-06-01T07:55:43.000Z</time>
      </trkpt>
      <trkpt lat="47.49561" lon="6.75765">
        <ele>345.3</ele>
        <time>2014-06-01T07:55:44.000Z</time>
      </trkpt>
      <trkpt lat="47.49566" lon="6.75759">
        <ele>340.8</ele>
        <time>2014-06-01T07:55:45.000Z</time>
      </trkpt>
      <trkpt lat="47.4957" lon="6.75756">
        <ele>339.8</ele>
        <time>2014-06-01T07:55:46.000Z</time>
      </trkpt>
      <trkpt lat="47.49574" lon="6.75752">
        <ele>336.7</ele>
        <time>2014-06-01T07:55:47.000Z</time>
      </trkpt>
      <trkpt lat="47.49578" lon="6.75749">
        <ele>335.3</ele>
        <time>2014-06-01T07:55:48.000Z</time>
      </trkpt>
      <trkpt lat="47.49582" lon="6.75747">
        <ele>334.4</ele>
        <time>2014-06-01T07:55:49.000Z</time>
      </trkpt>
      <trkpt lat="47.49585" lon="6.75743">
        <ele>333.1</ele>
        <time>2014-06-01T07:55:50.000Z</time>
      </trkpt>
      <trkpt lat="47.49588" lon="6.75738">
        <ele>332.1</ele>
        <time>2014-06-01T07:55:51.000Z</time>
      </trkpt>
      <trkpt lat="47.4959" lon="6.75733">
        <ele>331.4</ele>
        <time>2014-06-01T07:55:52.000Z</time>
      </trkpt>
      <trkpt lat="47.49593" lon="6.75727">
        <ele>330.7</ele>
        <time>2014-06-01T07:55:53.000Z</time>
      </trkpt>
      <trkpt lat="47.49596" lon="6.7572">
        <ele>329.3</ele>
        <time>2014-06-01T07:55:54.000Z</time>
      </trkpt>
      <trkpt lat="47.496" lon="6.75715">
        <ele>327.8</ele>
        <time>2014-06-01T07:55:55.000Z</time>
      </trkpt>
      <trkpt lat="47.49599" lon="6.75707">
        <ele>327.7</ele>
        <time>2014-06-01T07:55:56.000Z</time>
      </trkpt>
      <trkpt lat="47.49596" lon="6.75702">
        <ele>328.2</ele>
        <time>2014-06-01T07:55:57.000Z</time>
      </trkpt>
      <trkpt lat="47.49585" lon="6.75686">
        <ele>322.2</ele>
        <time>2014-06-01T07:56:00.000Z</time>
      </trkpt>
      <trkpt lat="47.4958" lon="6.7568">
        <ele>321.4</ele>
        <time>2014-06-01T07:56:01.000Z</time>
      </trkpt>
      <trkpt lat="47.49576" lon="6.75676">
        <ele>320.4</ele>
        <time>2014-06-01T07:56:02.000Z</time>
      </trkpt>
      <trkpt lat="47.49572" lon="6.75674">
        <ele>320.3</ele>
        <time>2014-06-01T07:56:03.000Z</time>
      </trkpt>
      <trkpt lat="47.49567" lon="6.7568">
        <ele>320.1</ele>
        <time>2014-06-01T07:56:04.000Z</time>
      </trkpt>
      <trkpt lat="47.49563" lon="6.75685">
        <ele>320.5</ele>
        <time>2014-06-01T07:56:05.000Z</time>
      </trkpt>
      <trkpt lat="47.49559" lon="6.75689">
        <ele>320.6</ele>
        <time>2014-06-01T07:56:06.000Z</time>
      </trkpt>
      <trkpt lat="47.49555" lon="6.75694">
        <ele>321.3</ele>
        <time>2014-06-01T07:56:07.000Z</time>
      </trkpt>
      <trkpt lat="47.49553" lon="6.75696">
        <ele>319.9</ele>
        <time>2014-06-01T07:56:08.000Z</time>
      </trkpt>
      <trkpt lat="47.49549" lon="6.75699">
        <ele>319.6</ele>
        <time>2014-06-01T07:56:09.000Z</time>
      </trkpt>
      <trkpt lat="47.49544" lon="6.75704">
        <ele>319.5</ele>
        <time>2014-06-01T07:56:10.000Z</time>
      </trkpt>
      <trkpt lat="47.49539" lon="6.7571">
        <ele>319.8</ele>
        <time>2014-06-01T07:56:11.000Z</time>
      </trkpt>
      <trkpt lat="47.49534" lon="6.75714">
        <ele>319.2</ele>
        <time>2014-06-01T07:56:12.000Z</time>
      </trkpt>
      <trkpt lat="47.4953" lon="6.75718">
        <ele>319.3</ele>
        <time>2014-06-01T07:56:13.000Z</time>
      </trkpt>
      <trkpt lat="47.49525" lon="6.75722">
        <ele>319.6</ele>
        <time>2014-06-01T07:56:14.000Z</time>
      </trkpt>
      <trkpt lat="47.49521" lon="6.75725">
        <ele>319.9</ele>
        <time>2014-06-01T07:56:15.000Z</time>
      </trkpt>
      <trkpt lat="47.49516" lon="6.75728">
        <ele>320.1</ele>
        <time>2014-06-01T07:56:16.000Z</time>
      </trkpt>
      <trkpt lat="47.49511" lon="6.75731">
        <ele>320.2</ele>
        <time>2014-06-01T07:56:17.000Z</time>
      </trkpt>
      <trkpt lat="47.49506" lon="6.75733">
        <ele>321.2</ele>
        <time>2014-06-01T07:56:18.000Z</time>
      </trkpt>
      <trkpt lat="47.49501" lon="6.75735">
        <ele>321.4</ele>
        <time>2014-06-01T07:56:19.000Z</time>
      </trkpt>
      <trkpt lat="47.49496" lon="6.75735">
        <ele>319.5</ele>
        <time>2014-06-01T07:56:20.000Z</time>
      </trkpt>
      <trkpt lat="47.49492" lon="6.75737">
        <ele>319.3</ele>
        <time>2014-06-01T07:56:21.000Z</time>
      </trkpt>
      <trkpt lat="47.49487" lon="6.75739">
        <ele>319.2</ele>
        <time>2014-06-01T07:56:22.000Z</time>
      </trkpt>
      <trkpt lat="47.49483" lon="6.75739">
        <ele>318.2</ele>
        <time>2014-06-01T07:56:23.000Z</time>
      </trkpt>
      <trkpt lat="47.49478" lon="6.75736">
        <ele>318.3</ele>
        <time>2014-06-01T07:56:24.000Z</time>
      </trkpt>
      <trkpt lat="47.49475" lon="6.75732">
        <ele>318.5</ele>
        <time>2014-06-01T07:56:25.000Z</time>
      </trkpt>
      <trkpt lat="47.49472" lon="6.75728">
        <ele>318.5</ele>
        <time>2014-06-01T07:56:26.000Z</time>
      </trkpt>
      <trkpt lat="47.4947" lon="6.75723">
        <ele>318.4</ele>
        <time>2014-06-01T07:56:27.000Z</time>
      </trkpt>
      <trkpt lat="47.49469" lon="6.75716">
        <ele>318.5</ele>
        <time>2014-06-01T07:56:28.000Z</time>
      </trkpt>
      <trkpt lat="47.49467" lon="6.75711">
        <ele>318.3</ele>
        <time>2014-06-01T07:56:29.000Z</time>
      </trkpt>
      <trkpt lat="47.49465" lon="6.75705">
        <ele>318.2</ele>
        <time>2014-06-01T07:56:30.000Z</time>
      </trkpt>
      <trkpt lat="47.49463" lon="6.757">
        <ele>318.4</ele>
        <time>2014-06-01T07:56:31.000Z</time>
      </trkpt>
      <trkpt lat="47.4946" lon="6.75696">
        <ele>318.1</ele>
        <time>2014-06-01T07:56:32.000Z</time>
      </trkpt>
      <trkpt lat="47.49456" lon="6.75693">
        <ele>318</ele>
        <time>2014-06-01T07:56:33.000Z</time>
      </trkpt>
      <trkpt lat="47.49453" lon="6.7569">
        <ele>317.4</ele>
        <time>2014-06-01T07:56:34.000Z</time>
      </trkpt>
      <trkpt lat="47.49448" lon="6.75689">
        <ele>317.5</ele>
        <time>2014-06-01T07:56:35.000Z</time>
      </trkpt>
      <trkpt lat="47.49444" lon="6.75689">
        <ele>317.6</ele>
        <time>2014-06-01T07:56:36.000Z</time>
      </trkpt>
      <trkpt lat="47.4944" lon="6.75689">
        <ele>318.1</ele>
        <time>2014-06-01T07:56:37.000Z</time>
      </trkpt>
      <trkpt lat="47.49436" lon="6.75688">
        <ele>318.6</ele>
        <time>2014-06-01T07:56:38.000Z</time>
      </trkpt>
      <trkpt lat="47.49433" lon="6.75685">
        <ele>318.8</ele>
        <time>2014-06-01T07:56:39.000Z</time>
      </trkpt>
      <trkpt lat="47.49431" lon="6.75681">
        <ele>321</ele>
        <time>2014-06-01T07:56:40.000Z</time>
      </trkpt>
      <trkpt lat="47.4943" lon="6.75676">
        <ele>321.8</ele>
        <time>2014-06-01T07:56:41.000Z</time>
      </trkpt>
      <trkpt lat="47.49429" lon="6.7567">
        <ele>321.7</ele>
        <time>2014-06-01T07:56:42.000Z</time>
      </trkpt>
      <trkpt lat="47.49427" lon="6.75665">
        <ele>321.7</ele>
        <time>2014-06-01T07:56:43.000Z</time>
      </trkpt>
      <trkpt lat="47.49424" lon="6.75662">
        <ele>323</ele>
        <time>2014-06-01T07:56:44.000Z</time>
      </trkpt>
      <trkpt lat="47.49421" lon="6.7566">
        <ele>323.5</ele>
        <time>2014-06-01T07:56:45.000Z</time>
      </trkpt>
      <trkpt lat="47.49417" lon="6.75662">
        <ele>323.4</ele>
        <time>2014-06-01T07:56:46.000Z</time>
      </trkpt>
      <trkpt lat="47.49413" lon="6.75666">
        <ele>323.6</ele>
        <time>2014-06-01T07:56:47.000Z</time>
      </trkpt>
      <trkpt lat="47.49409" lon="6.75671">
        <ele>323.6</ele>
        <time>2014-06-01T07:56:48.000Z</time>
      </trkpt>
      <trkpt lat="47.49404" lon="6.75683">
        <ele>322</ele>
        <time>2014-06-01T07:56:49.000Z</time>
      </trkpt>
      <trkpt lat="47.49399" lon="6.75688">
        <ele>323.1</ele>
        <time>2014-06-01T07:56:50.000Z</time>
      </trkpt>
      <trkpt lat="47.49395" lon="6.75691">
        <ele>323.4</ele>
        <time>2014-06-01T07:56:51.000Z</time>
      </trkpt>
      <trkpt lat="47.4939" lon="6.75695">
        <ele>323.5</ele>
        <time>2014-06-01T07:56:52.000Z</time>
      </trkpt>
      <trkpt lat="47.49386" lon="6.75699">
        <ele>324</ele>
        <time>2014-06-01T07:56:53.000Z</time>
      </trkpt>
      <trkpt lat="47.49381" lon="6.75703">
        <ele>323.9</ele>
        <time>2014-06-01T07:56:54.000Z</time>
      </trkpt>
      <trkpt lat="47.49377" lon="6.75707">
        <ele>324.1</ele>
        <time>2014-06-01T07:56:55.000Z</time>
      </trkpt>
      <trkpt lat="47.49373" lon="6.7571">
        <ele>324.2</ele>
        <time>2014-06-01T07:56:56.000Z</time>
      </trkpt>
      <trkpt lat="47.4937" lon="6.75712">
        <ele>324</ele>
        <time>2014-06-01T07:56:57.000Z</time>
      </trkpt>
      <trkpt lat="47.49366" lon="6.75716">
        <ele>324.3</ele>
        <time>2014-06-01T07:56:58.000Z</time>
      </trkpt>
      <trkpt lat="47.49358" lon="6.75717">
        <ele>276.3</ele>
        <time>2014-06-01T07:57:06.000Z</time>
      </trkpt>
      <trkpt lat="47.49355" lon="6.75713">
        <ele>276.6</ele>
        <time>2014-06-01T07:57:07.000Z</time>
      </trkpt>
      <trkpt lat="47.49353" lon="6.75714">
        <ele>276.8</ele>
        <time>2014-06-01T07:57:08.000Z</time>
      </trkpt>
      <trkpt lat="47.49349" lon="6.75712">
        <ele>276.6</ele>
        <time>2014-06-01T07:57:09.000Z</time>
      </trkpt>
      <trkpt lat="47.49344" lon="6.75718">
        <ele>276.7</ele>
        <time>2014-06-01T07:57:10.000Z</time>
      </trkpt>
      <trkpt lat="47.49341" lon="6.75722">
        <ele>276.7</ele>
        <time>2014-06-01T07:57:11.000Z</time>
      </trkpt>
      <trkpt lat="47.49336" lon="6.75726">
        <ele>276.8</ele>
        <time>2014-06-01T07:57:12.000Z</time>
      </trkpt>
      <trkpt lat="47.4933" lon="6.75731">
        <ele>277.1</ele>
        <time>2014-06-01T07:57:13.000Z</time>
      </trkpt>
      <trkpt lat="47.49325" lon="6.75736">
        <ele>277.3</ele>
        <time>2014-06-01T07:57:14.000Z</time>
      </trkpt>
      <trkpt lat="47.49315" lon="6.75745">
        <ele>273.7</ele>
        <time>2014-06-01T07:57:15.000Z</time>
      </trkpt>
      <trkpt lat="47.49309" lon="6.7575">
        <ele>273.5</ele>
        <time>2014-06-01T07:57:16.000Z</time>
      </trkpt>
      <trkpt lat="47.49303" lon="6.75754">
        <ele>273.9</ele>
        <time>2014-06-01T07:57:17.000Z</time>
      </trkpt>
      <trkpt lat="47.49299" lon="6.75758">
        <ele>274.1</ele>
        <time>2014-06-01T07:57:18.000Z</time>
      </trkpt>
      <trkpt lat="47.49294" lon="6.75762">
        <ele>274.4</ele>
        <time>2014-06-01T07:57:19.000Z</time>
      </trkpt>
      <trkpt lat="47.49289" lon="6.75765">
        <ele>275.1</ele>
        <time>2014-06-01T07:57:20.000Z</time>
      </trkpt>
      <trkpt lat="47.49286" lon="6.75771">
        <ele>275.5</ele>
        <time>2014-06-01T07:57:21.000Z</time>
      </trkpt>
      <trkpt lat="47.49282" lon="6.75776">
        <ele>276.6</ele>
        <time>2014-06-01T07:57:22.000Z</time>
      </trkpt>
      <trkpt lat="47.4928" lon="6.75782">
        <ele>277.4</ele>
        <time>2014-06-01T07:57:23.000Z</time>
      </trkpt>
      <trkpt lat="47.49276" lon="6.75786">
        <ele>278.1</ele>
        <time>2014-06-01T07:57:24.000Z</time>
      </trkpt>
      <trkpt lat="47.49271" lon="6.75793">
        <ele>279.4</ele>
        <time>2014-06-01T07:57:25.000Z</time>
      </trkpt>
      <trkpt lat="47.49266" lon="6.75799">
        <ele>280.2</ele>
        <time>2014-06-01T07:57:26.000Z</time>
      </trkpt>
      <trkpt lat="47.49262" lon="6.75805">
        <ele>281.2</ele>
        <time>2014-06-01T07:57:27.000Z</time>
      </trkpt>
      <trkpt lat="47.49258" lon="6.75811">
        <ele>281.8</ele>
        <time>2014-06-01T07:57:28.000Z</time>
      </trkpt>
      <trkpt lat="47.49254" lon="6.75818">
        <ele>282.7</ele>
        <time>2014-06-01T07:57:29.000Z</time>
      </trkpt>
      <trkpt lat="47.49249" lon="6.75826">
        <ele>283.7</ele>
        <time>2014-06-01T07:57:30.000Z</time>
      </trkpt>
      <trkpt lat="47.49245" lon="6.75834">
        <ele>284.6</ele>
        <time>2014-06-01T07:57:31.000Z</time>
      </trkpt>
      <trkpt lat="47.49242" lon="6.75844">
        <ele>286.4</ele>
        <time>2014-06-01T07:57:32.000Z</time>
      </trkpt>
      <trkpt lat="47.49238" lon="6.75852">
        <ele>288.2</ele>
        <time>2014-06-01T07:57:33.000Z</time>
      </trkpt>
      <trkpt lat="47.49235" lon="6.7586">
        <ele>289.1</ele>
        <time>2014-06-01T07:57:34.000Z</time>
      </trkpt>
      <trkpt lat="47.49231" lon="6.75866">
        <ele>289.7</ele>
        <time>2014-06-01T07:57:35.000Z</time>
      </trkpt>
      <trkpt lat="47.49228" lon="6.75873">
        <ele>290.5</ele>
        <time>2014-06-01T07:57:36.000Z</time>
      </trkpt>
      <trkpt lat="47.49225" lon="6.7588">
        <ele>291.2</ele>
        <time>2014-06-01T07:57:37.000Z</time>
      </trkpt>
      <trkpt lat="47.49223" lon="6.75886">
        <ele>292</ele>
        <time>2014-06-01T07:57:38.000Z</time>
      </trkpt>
      <trkpt lat="47.49223" lon="6.75896">
        <ele>295.4</ele>
        <time>2014-06-01T07:57:39.000Z</time>
      </trkpt>
      <trkpt lat="47.4922" lon="6.75904">
        <ele>297.1</ele>
        <time>2014-06-01T07:57:40.000Z</time>
      </trkpt>
      <trkpt lat="47.49219" lon="6.75911">
        <ele>297.8</ele>
        <time>2014-06-01T07:57:41.000Z</time>
      </trkpt>
      <trkpt lat="47.49217" lon="6.75917">
        <ele>298.4</ele>
        <time>2014-06-01T07:57:42.000Z</time>
      </trkpt>
      <trkpt lat="47.49214" lon="6.75922">
        <ele>299.3</ele>
        <time>2014-06-01T07:57:43.000Z</time>
      </trkpt>
      <trkpt lat="47.49211" lon="6.75928">
        <ele>300.5</ele>
        <time>2014-06-01T07:57:44.000Z</time>
      </trkpt>
      <trkpt lat="47.49209" lon="6.7593">
        <ele>301.6</ele>
        <time>2014-06-01T07:57:45.000Z</time>
      </trkpt>
      <trkpt lat="47.49208" lon="6.75934">
        <ele>303</ele>
        <time>2014-06-01T07:57:46.000Z</time>
      </trkpt>
      <trkpt lat="47.49208" lon="6.75938">
        <ele>304</ele>
        <time>2014-06-01T07:57:47.000Z</time>
      </trkpt>
      <trkpt lat="47.49208" lon="6.75945">
        <ele>304.8</ele>
        <time>2014-06-01T07:57:48.000Z</time>
      </trkpt>
      <trkpt lat="47.49209" lon="6.75948">
        <ele>305.6</ele>
        <time>2014-06-01T07:57:49.000Z</time>
      </trkpt>
      <trkpt lat="47.49206" lon="6.75954">
        <ele>305.6</ele>
        <time>2014-06-01T07:57:50.000Z</time>
      </trkpt>
      <trkpt lat="47.49203" lon="6.7596">
        <ele>305.8</ele>
        <time>2014-06-01T07:57:51.000Z</time>
      </trkpt>
      <trkpt lat="47.492" lon="6.75968">
        <ele>306.2</ele>
        <time>2014-06-01T07:57:52.000Z</time>
      </trkpt>
      <trkpt lat="47.49198" lon="6.75976">
        <ele>307.8</ele>
        <time>2014-06-01T07:57:53.000Z</time>
      </trkpt>
      <trkpt lat="47.49197" lon="6.75981">
        <ele>308.7</ele>
        <time>2014-06-01T07:57:54.000Z</time>
      </trkpt>
      <trkpt lat="47.49196" lon="6.75987">
        <ele>309.3</ele>
        <time>2014-06-01T07:57:55.000Z</time>
      </trkpt>
      <trkpt lat="47.49194" lon="6.75993">
        <ele>309.6</ele>
        <time>2014-06-01T07:57:56.000Z</time>
      </trkpt>
      <trkpt lat="47.49193" lon="6.76">
        <ele>310.4</ele>
        <time>2014-06-01T07:57:57.000Z</time>
      </trkpt>
      <trkpt lat="47.49168" lon="6.76056">
        <ele>312</ele>
        <time>2014-06-01T07:58:06.000Z</time>
      </trkpt>
      <trkpt lat="47.49163" lon="6.76064">
        <ele>311.7</ele>
        <time>2014-06-01T07:58:07.000Z</time>
      </trkpt>
      <trkpt lat="47.4916" lon="6.76073">
        <ele>311.6</ele>
        <time>2014-06-01T07:58:08.000Z</time>
      </trkpt>
      <trkpt lat="47.49157" lon="6.76079">
        <ele>311.7</ele>
        <time>2014-06-01T07:58:09.000Z</time>
      </trkpt>
      <trkpt lat="47.49154" lon="6.7609">
        <ele>313.3</ele>
        <time>2014-06-01T07:58:10.000Z</time>
      </trkpt>
      <trkpt lat="47.49149" lon="6.761">
        <ele>313.2</ele>
        <time>2014-06-01T07:58:11.000Z</time>
      </trkpt>
      <trkpt lat="47.49146" lon="6.76107">
        <ele>312.1</ele>
        <time>2014-06-01T07:58:12.000Z</time>
      </trkpt>
      <trkpt lat="47.49143" lon="6.76116">
        <ele>312</ele>
        <time>2014-06-01T07:58:13.000Z</time>
      </trkpt>
      <trkpt lat="47.49142" lon="6.76123">
        <ele>313.7</ele>
        <time>2014-06-01T07:58:14.000Z</time>
      </trkpt>
      <trkpt lat="47.49141" lon="6.76131">
        <ele>314.1</ele>
        <time>2014-06-01T07:58:15.000Z</time>
      </trkpt>
      <trkpt lat="47.49143" lon="6.7614">
        <ele>314.8</ele>
        <time>2014-06-01T07:58:16.000Z</time>
      </trkpt>
      <trkpt lat="47.49142" lon="6.76149">
        <ele>314.7</ele>
        <time>2014-06-01T07:58:17.000Z</time>
      </trkpt>
      <trkpt lat="47.49142" lon="6.76156">
        <ele>315.3</ele>
        <time>2014-06-01T07:58:18.000Z</time>
      </trkpt>
      <trkpt lat="47.49142" lon="6.76164">
        <ele>315.9</ele>
        <time>2014-06-01T07:58:19.000Z</time>
      </trkpt>
      <trkpt lat="47.49141" lon="6.76172">
        <ele>316.2</ele>
        <time>2014-06-01T07:58:20.000Z</time>
      </trkpt>
      <trkpt lat="47.49139" lon="6.7618">
        <ele>315.6</ele>
        <time>2014-06-01T07:58:21.000Z</time>
      </trkpt>
      <trkpt lat="47.49138" lon="6.76187">
        <ele>315.4</ele>
        <time>2014-06-01T07:58:22.000Z</time>
      </trkpt>
      <trkpt lat="47.49138" lon="6.76195">
        <ele>314.2</ele>
        <time>2014-06-01T07:58:23.000Z</time>
      </trkpt>
      <trkpt lat="47.49138" lon="6.76204">
        <ele>313.2</ele>
        <time>2014-06-01T07:58:24.000Z</time>
      </trkpt>
      <trkpt lat="47.49139" lon="6.76211">
        <ele>313.3</ele>
        <time>2014-06-01T07:58:25.000Z</time>
      </trkpt>
      <trkpt lat="47.49139" lon="6.76218">
        <ele>312.9</ele>
        <time>2014-06-01T07:58:26.000Z</time>
      </trkpt>
      <trkpt lat="47.49139" lon="6.76226">
        <ele>312.6</ele>
        <time>2014-06-01T07:58:27.000Z</time>
      </trkpt>
      <trkpt lat="47.49138" lon="6.76234">
        <ele>312.5</ele>
        <time>2014-06-01T07:58:28.000Z</time>
      </trkpt>
      <trkpt lat="47.49138" lon="6.76239">
        <ele>312.5</ele>
        <time>2014-06-01T07:58:29.000Z</time>
      </trkpt>
      <trkpt lat="47.49138" lon="6.76246">
        <ele>312.3</ele>
        <time>2014-06-01T07:58:30.000Z</time>
      </trkpt>
      <trkpt lat="47.49139" lon="6.76253">
        <ele>312.2</ele>
        <time>2014-06-01T07:58:31.000Z</time>
      </trkpt>
      <trkpt lat="47.4914" lon="6.76259">
        <ele>312.4</ele>
        <time>2014-06-01T07:58:32.000Z</time>
      </trkpt>
      <trkpt lat="47.4914" lon="6.76263">
        <ele>312.3</ele>
        <time>2014-06-01T07:58:33.000Z</time>
      </trkpt>
      <trkpt lat="47.49141" lon="6.7627">
        <ele>312.3</ele>
        <time>2014-06-01T07:58:34.000Z</time>
      </trkpt>
      <trkpt lat="47.49141" lon="6.76277">
        <ele>312.4</ele>
        <time>2014-06-01T07:58:35.000Z</time>
      </trkpt>
      <trkpt lat="47.49141" lon="6.76282">
        <ele>312.9</ele>
        <time>2014-06-01T07:58:36.000Z</time>
      </trkpt>
      <trkpt lat="47.49141" lon="6.76286">
        <ele>312.8</ele>
        <time>2014-06-01T07:58:37.000Z</time>
      </trkpt>
      <trkpt lat="47.4914" lon="6.76293">
        <ele>312.8</ele>
        <time>2014-06-01T07:58:38.000Z</time>
      </trkpt>
      <trkpt lat="47.49139" lon="6.763">
        <ele>312.2</ele>
        <time>2014-06-01T07:58:39.000Z</time>
      </trkpt>
      <trkpt lat="47.49139" lon="6.76305">
        <ele>312.4</ele>
        <time>2014-06-01T07:58:40.000Z</time>
      </trkpt>
      <trkpt lat="47.49139" lon="6.7631">
        <ele>313.1</ele>
        <time>2014-06-01T07:58:41.000Z</time>
      </trkpt>
      <trkpt lat="47.49139" lon="6.76315">
        <ele>313.8</ele>
        <time>2014-06-01T07:58:42.000Z</time>
      </trkpt>
      <trkpt lat="47.4914" lon="6.7632">
        <ele>314.1</ele>
        <time>2014-06-01T07:58:43.000Z</time>
      </trkpt>
      <trkpt lat="47.4914" lon="6.76325">
        <ele>314.4</ele>
        <time>2014-06-01T07:58:44.000Z</time>
      </trkpt>
      <trkpt lat="47.4914" lon="6.76329">
        <ele>314</ele>
        <time>2014-06-01T07:58:45.000Z</time>
      </trkpt>
      <trkpt lat="47.4914" lon="6.76333">
        <ele>314</ele>
        <time>2014-06-01T07:58:46.000Z</time>
      </trkpt>
      <trkpt lat="47.49139" lon="6.76338">
        <ele>313.8</ele>
        <time>2014-06-01T07:58:47.000Z</time>
      </trkpt>
      <trkpt lat="47.49139" lon="6.76342">
        <ele>310.9</ele>
        <time>2014-06-01T07:58:48.000Z</time>
      </trkpt>
      <trkpt lat="47.49139" lon="6.76348">
        <ele>310.7</ele>
        <time>2014-06-01T07:58:49.000Z</time>
      </trkpt>
      <trkpt lat="47.4914" lon="6.76354">
        <ele>311</ele>
        <time>2014-06-01T07:58:50.000Z</time>
      </trkpt>
      <trkpt lat="47.49139" lon="6.7636">
        <ele>311</ele>
        <time>2014-06-01T07:58:51.000Z</time>
      </trkpt>
      <trkpt lat="47.49139" lon="6.76366">
        <ele>311.2</ele>
        <time>2014-06-01T07:58:52.000Z</time>
      </trkpt>
      <trkpt lat="47.49139" lon="6.76372">
        <ele>311</ele>
        <time>2014-06-01T07:58:53.000Z</time>
      </trkpt>
      <trkpt lat="47.4914" lon="6.76378">
        <ele>311.4</ele>
        <time>2014-06-01T07:58:54.000Z</time>
      </trkpt>
      <trkpt lat="47.4914" lon="6.76386">
        <ele>310.7</ele>
        <time>2014-06-01T07:58:55.000Z</time>
      </trkpt>
      <trkpt lat="47.49136" lon="6.76405">
        <ele>311.3</ele>
        <time>2014-06-01T07:58:56.000Z</time>
      </trkpt>
      <trkpt lat="47.49135" lon="6.76414">
        <ele>311.6</ele>
        <time>2014-06-01T07:58:57.000Z</time>
      </trkpt>
      <trkpt lat="47.4913" lon="6.76434">
        <ele>300.3</ele>
        <time>2014-06-01T07:59:00.000Z</time>
      </trkpt>
      <trkpt lat="47.49129" lon="6.76442">
        <ele>301.7</ele>
        <time>2014-06-01T07:59:01.000Z</time>
      </trkpt>
      <trkpt lat="47.49129" lon="6.7645">
        <ele>302.6</ele>
        <time>2014-06-01T07:59:02.000Z</time>
      </trkpt>
      <trkpt lat="47.49129" lon="6.76458">
        <ele>303.5</ele>
        <time>2014-06-01T07:59:03.000Z</time>
      </trkpt>
      <trkpt lat="47.49129" lon="6.76468">
        <ele>304.1</ele>
        <time>2014-06-01T07:59:04.000Z</time>
      </trkpt>
      <trkpt lat="47.49129" lon="6.76477">
        <ele>304.1</ele>
        <time>2014-06-01T07:59:05.000Z</time>
      </trkpt>
      <trkpt lat="47.49129" lon="6.76485">
        <ele>305.8</ele>
        <time>2014-06-01T07:59:06.000Z</time>
      </trkpt>
      <trkpt lat="47.49129" lon="6.76494">
        <ele>306.9</ele>
        <time>2014-06-01T07:59:07.000Z</time>
      </trkpt>
      <trkpt lat="47.49129" lon="6.76503">
        <ele>306.9</ele>
        <time>2014-06-01T07:59:08.000Z</time>
      </trkpt>
      <trkpt lat="47.49131" lon="6.76511">
        <ele>306.1</ele>
        <time>2014-06-01T07:59:09.000Z</time>
      </trkpt>
      <trkpt lat="47.49133" lon="6.76518">
        <ele>306</ele>
        <time>2014-06-01T07:59:10.000Z</time>
      </trkpt>
      <trkpt lat="47.49134" lon="6.76524">
        <ele>306.3</ele>
        <time>2014-06-01T07:59:11.000Z</time>
      </trkpt>
      <trkpt lat="47.49141" lon="6.76522">
        <ele>306.7</ele>
        <time>2014-06-01T07:59:12.000Z</time>
      </trkpt>
      <trkpt lat="47.49147" lon="6.76515">
        <ele>306.8</ele>
        <time>2014-06-01T07:59:13.000Z</time>
      </trkpt>
      <trkpt lat="47.49151" lon="6.76514">
        <ele>306.2</ele>
        <time>2014-06-01T07:59:14.000Z</time>
      </trkpt>
      <trkpt lat="47.49154" lon="6.76512">
        <ele>307.4</ele>
        <time>2014-06-01T07:59:15.000Z</time>
      </trkpt>
      <trkpt lat="47.49158" lon="6.76509">
        <ele>306.7</ele>
        <time>2014-06-01T07:59:16.000Z</time>
      </trkpt>
      <trkpt lat="47.4916" lon="6.76507">
        <ele>307</ele>
        <time>2014-06-01T07:59:17.000Z</time>
      </trkpt>
      <trkpt lat="47.49163" lon="6.76505">
        <ele>307.7</ele>
        <time>2014-06-01T07:59:18.000Z</time>
      </trkpt>
      <trkpt lat="47.49164" lon="6.76503">
        <ele>307.5</ele>
        <time>2014-06-01T07:59:19.000Z</time>
      </trkpt>
      <trkpt lat="47.49168" lon="6.765">
        <ele>307.2</ele>
        <time>2014-06-01T07:59:21.000Z</time>
      </trkpt>
      <trkpt lat="47.49168" lon="6.76499">
        <ele>307.2</ele>
        <time>2014-06-01T07:59:22.000Z</time>
      </trkpt>
      <trkpt lat="47.49172" lon="6.76495">
        <ele>306.7</ele>
        <time>2014-06-01T07:59:25.000Z</time>
      </trkpt>
      <trkpt lat="47.49173" lon="6.76494">
        <ele>307.3</ele>
        <time>2014-06-01T07:59:26.000Z</time>
      </trkpt>
      <trkpt lat="47.49174" lon="6.76488">
        <ele>306.6</ele>
        <time>2014-06-01T07:59:30.000Z</time>
      </trkpt>
      <trkpt lat="47.49174" lon="6.76486">
        <ele>307.3</ele>
        <time>2014-06-01T07:59:31.000Z</time>
      </trkpt>
      <trkpt lat="47.49172" lon="6.76488">
        <ele>261.4</ele>
        <time>2014-06-01T08:00:02.000Z</time>
      </trkpt>
      <trkpt lat="47.4915" lon="6.76471">
        <ele>261.6</ele>
        <time>2014-06-01T08:00:03.000Z</time>
      </trkpt>
      <trkpt lat="47.49172" lon="6.76488">
        <ele>261.4</ele>
        <time>2014-06-01T08:00:04.000Z</time>
      </trkpt>
      <trkpt lat="47.49173" lon="6.76492">
        <ele>290.5</ele>
        <time>2014-06-01T08:05:24.000Z</time>
      </trkpt>
      <trkpt lat="47.49172" lon="6.76497">
        <ele>291.7</ele>
        <time>2014-06-01T08:05:25.000Z</time>
      </trkpt>
      <trkpt lat="47.49169" lon="6.76501">
        <ele>292.8</ele>
        <time>2014-06-01T08:05:26.000Z</time>
      </trkpt>
      <trkpt lat="47.49166" lon="6.76505">
        <ele>293.4</ele>
        <time>2014-06-01T08:05:27.000Z</time>
      </trkpt>
      <trkpt lat="47.49163" lon="6.76508">
        <ele>294.3</ele>
        <time>2014-06-01T08:05:28.000Z</time>
      </trkpt>
      <trkpt lat="47.4916" lon="6.7651">
        <ele>293.9</ele>
        <time>2014-06-01T08:05:29.000Z</time>
      </trkpt>
      <trkpt lat="47.49154" lon="6.76513">
        <ele>294.2</ele>
        <time>2014-06-01T08:05:30.000Z</time>
      </trkpt>
      <trkpt lat="47.49149" lon="6.76516">
        <ele>294.5</ele>
        <time>2014-06-01T08:05:31.000Z</time>
      </trkpt>
      <trkpt lat="47.49143" lon="6.7652">
        <ele>294.9</ele>
        <time>2014-06-01T08:05:32.000Z</time>
      </trkpt>
      <trkpt lat="47.49138" lon="6.76523">
        <ele>295.9</ele>
        <time>2014-06-01T08:05:33.000Z</time>
      </trkpt>
      <trkpt lat="47.49132" lon="6.76524">
        <ele>297</ele>
        <time>2014-06-01T08:05:34.000Z</time>
      </trkpt>
      <trkpt lat="47.49126" lon="6.76524">
        <ele>298.3</ele>
        <time>2014-06-01T08:05:35.000Z</time>
      </trkpt>
      <trkpt lat="47.49121" lon="6.76521">
        <ele>299.2</ele>
        <time>2014-06-01T08:05:36.000Z</time>
      </trkpt>
      <trkpt lat="47.49119" lon="6.76514">
        <ele>300.1</ele>
        <time>2014-06-01T08:05:37.000Z</time>
      </trkpt>
      <trkpt lat="47.49116" lon="6.76508">
        <ele>300.6</ele>
        <time>2014-06-01T08:05:38.000Z</time>
      </trkpt>
      <trkpt lat="47.49117" lon="6.76501">
        <ele>300.6</ele>
        <time>2014-06-01T08:05:39.000Z</time>
      </trkpt>
      <trkpt lat="47.49117" lon="6.76494">
        <ele>301.6</ele>
        <time>2014-06-01T08:05:40.000Z</time>
      </trkpt>
      <trkpt lat="47.49118" lon="6.76487">
        <ele>302.4</ele>
        <time>2014-06-01T08:05:41.000Z</time>
      </trkpt>
      <trkpt lat="47.49118" lon="6.76481">
        <ele>304</ele>
        <time>2014-06-01T08:05:42.000Z</time>
      </trkpt>
      <trkpt lat="47.49118" lon="6.76475">
        <ele>305</ele>
        <time>2014-06-01T08:05:43.000Z</time>
      </trkpt>
      <trkpt lat="47.49119" lon="6.76467">
        <ele>305.4</ele>
        <time>2014-06-01T08:05:44.000Z</time>
      </trkpt>
      <trkpt lat="47.4912" lon="6.7646">
        <ele>305.5</ele>
        <time>2014-06-01T08:05:45.000Z</time>
      </trkpt>
      <trkpt lat="47.4912" lon="6.76454">
        <ele>305.9</ele>
        <time>2014-06-01T08:05:46.000Z</time>
      </trkpt>
      <trkpt lat="47.49121" lon="6.76448">
        <ele>306.4</ele>
        <time>2014-06-01T08:05:47.000Z</time>
      </trkpt>
      <trkpt lat="47.49121" lon="6.76443">
        <ele>307.7</ele>
        <time>2014-06-01T08:05:48.000Z</time>
      </trkpt>
      <trkpt lat="47.49121" lon="6.76438">
        <ele>308.4</ele>
        <time>2014-06-01T08:05:49.000Z</time>
      </trkpt>
      <trkpt lat="47.49122" lon="6.76435">
        <ele>309.5</ele>
        <time>2014-06-01T08:05:50.000Z</time>
      </trkpt>
      <trkpt lat="47.49122" lon="6.76432">
        <ele>309.9</ele>
        <time>2014-06-01T08:05:51.000Z</time>
      </trkpt>
      <trkpt lat="47.49119" lon="6.76426">
        <ele>313.3</ele>
        <time>2014-06-01T08:05:54.000Z</time>
      </trkpt>
      <trkpt lat="47.49117" lon="6.76425">
        <ele>315.2</ele>
        <time>2014-06-01T08:05:55.000Z</time>
      </trkpt>
      <trkpt lat="47.49114" lon="6.76425">
        <ele>315.2</ele>
        <time>2014-06-01T08:05:56.000Z</time>
      </trkpt>
      <trkpt lat="47.49111" lon="6.76425">
        <ele>316</ele>
        <time>2014-06-01T08:05:57.000Z</time>
      </trkpt>
      <trkpt lat="47.49096" lon="6.76397">
        <ele>312.8</ele>
        <time>2014-06-01T08:06:04.764Z</time>
      </trkpt>
      <trkpt lat="47.49096" lon="6.76389">
        <ele>312.6</ele>
        <time>2014-06-01T08:06:06.000Z</time>
      </trkpt>
      <trkpt lat="47.49095" lon="6.76382">
        <ele>312.4</ele>
        <time>2014-06-01T08:06:07.000Z</time>
      </trkpt>
      <trkpt lat="47.49094" lon="6.76376">
        <ele>313.2</ele>
        <time>2014-06-01T08:06:08.000Z</time>
      </trkpt>
      <trkpt lat="47.49094" lon="6.7637">
        <ele>314.6</ele>
        <time>2014-06-01T08:06:09.000Z</time>
      </trkpt>
      <trkpt lat="47.49094" lon="6.76364">
        <ele>314.9</ele>
        <time>2014-06-01T08:06:10.000Z</time>
      </trkpt>
      <trkpt lat="47.49093" lon="6.76358">
        <ele>314.4</ele>
        <time>2014-06-01T08:06:11.000Z</time>
      </trkpt>
      <trkpt lat="47.49093" lon="6.76352">
        <ele>314.3</ele>
        <time>2014-06-01T08:06:12.000Z</time>
      </trkpt>
      <trkpt lat="47.49093" lon="6.76346">
        <ele>313.9</ele>
        <time>2014-06-01T08:06:13.000Z</time>
      </trkpt>
      <trkpt lat="47.49092" lon="6.76339">
        <ele>313.8</ele>
        <time>2014-06-01T08:06:14.000Z</time>
      </trkpt>
      <trkpt lat="47.49092" lon="6.76332">
        <ele>313.7</ele>
        <time>2014-06-01T08:06:15.000Z</time>
      </trkpt>
      <trkpt lat="47.49092" lon="6.76324">
        <ele>314.1</ele>
        <time>2014-06-01T08:06:16.000Z</time>
      </trkpt>
      <trkpt lat="47.49093" lon="6.76317">
        <ele>314.5</ele>
        <time>2014-06-01T08:06:17.000Z</time>
      </trkpt>
      <trkpt lat="47.49093" lon="6.7631">
        <ele>315.5</ele>
        <time>2014-06-01T08:06:18.000Z</time>
      </trkpt>
      <trkpt lat="47.49093" lon="6.76303">
        <ele>315.8</ele>
        <time>2014-06-01T08:06:19.000Z</time>
      </trkpt>
      <trkpt lat="47.49093" lon="6.76295">
        <ele>315.7</ele>
        <time>2014-06-01T08:06:20.000Z</time>
      </trkpt>
      <trkpt lat="47.49093" lon="6.76288">
        <ele>315.4</ele>
        <time>2014-06-01T08:06:21.000Z</time>
      </trkpt>
      <trkpt lat="47.49093" lon="6.76282">
        <ele>317.5</ele>
        <time>2014-06-01T08:06:22.000Z</time>
      </trkpt>
      <trkpt lat="47.49092" lon="6.76277">
        <ele>317.3</ele>
        <time>2014-06-01T08:06:23.000Z</time>
      </trkpt>
      <trkpt lat="47.49092" lon="6.76271">
        <ele>317.6</ele>
        <time>2014-06-01T08:06:24.000Z</time>
      </trkpt>
      <trkpt lat="47.49092" lon="6.76265">
        <ele>319.2</ele>
        <time>2014-06-01T08:06:25.000Z</time>
      </trkpt>
      <trkpt lat="47.49092" lon="6.76259">
        <ele>320.1</ele>
        <time>2014-06-01T08:06:26.000Z</time>
      </trkpt>
      <trkpt lat="47.49092" lon="6.76252">
        <ele>320.5</ele>
        <time>2014-06-01T08:06:27.000Z</time>
      </trkpt>
      <trkpt lat="47.49092" lon="6.76246">
        <ele>320.5</ele>
        <time>2014-06-01T08:06:28.000Z</time>
      </trkpt>
      <trkpt lat="47.49091" lon="6.76239">
        <ele>321</ele>
        <time>2014-06-01T08:06:29.000Z</time>
      </trkpt>
      <trkpt lat="47.49091" lon="6.76233">
        <ele>321.2</ele>
        <time>2014-06-01T08:06:30.000Z</time>
      </trkpt>
      <trkpt lat="47.49091" lon="6.76227">
        <ele>322.5</ele>
        <time>2014-06-01T08:06:31.000Z</time>
      </trkpt>
      <trkpt lat="47.4909" lon="6.76222">
        <ele>323.7</ele>
        <time>2014-06-01T08:06:32.000Z</time>
      </trkpt>
      <trkpt lat="47.4909" lon="6.76217">
        <ele>324.4</ele>
        <time>2014-06-01T08:06:33.000Z</time>
      </trkpt>
      <trkpt lat="47.49089" lon="6.76212">
        <ele>324.5</ele>
        <time>2014-06-01T08:06:34.000Z</time>
      </trkpt>
      <trkpt lat="47.49089" lon="6.76206">
        <ele>322.5</ele>
        <time>2014-06-01T08:06:35.000Z</time>
      </trkpt>
      <trkpt lat="47.49089" lon="6.76199">
        <ele>321.7</ele>
        <time>2014-06-01T08:06:36.000Z</time>
      </trkpt>
      <trkpt lat="47.49089" lon="6.76192">
        <ele>319.9</ele>
        <time>2014-06-01T08:06:37.000Z</time>
      </trkpt>
      <trkpt lat="47.4909" lon="6.76185">
        <ele>319.8</ele>
        <time>2014-06-01T08:06:38.000Z</time>
      </trkpt>
      <trkpt lat="47.4909" lon="6.76179">
        <ele>321.5</ele>
        <time>2014-06-01T08:06:39.000Z</time>
      </trkpt>
      <trkpt lat="47.4909" lon="6.76172">
        <ele>317.2</ele>
        <time>2014-06-01T08:06:40.000Z</time>
      </trkpt>
      <trkpt lat="47.4909" lon="6.76166">
        <ele>315.4</ele>
        <time>2014-06-01T08:06:41.000Z</time>
      </trkpt>
      <trkpt lat="47.4909" lon="6.7616">
        <ele>315.2</ele>
        <time>2014-06-01T08:06:42.000Z</time>
      </trkpt>
      <trkpt lat="47.4909" lon="6.76155">
        <ele>315.6</ele>
        <time>2014-06-01T08:06:43.000Z</time>
      </trkpt>
      <trkpt lat="47.49091" lon="6.7615">
        <ele>319</ele>
        <time>2014-06-01T08:06:44.000Z</time>
      </trkpt>
      <trkpt lat="47.49091" lon="6.76146">
        <ele>321.7</ele>
        <time>2014-06-01T08:06:45.000Z</time>
      </trkpt>
      <trkpt lat="47.49091" lon="6.76143">
        <ele>323.4</ele>
        <time>2014-06-01T08:06:46.000Z</time>
      </trkpt>
      <trkpt lat="47.49092" lon="6.76136">
        <ele>326.5</ele>
        <time>2014-06-01T08:06:48.000Z</time>
      </trkpt>
      <trkpt lat="47.49093" lon="6.76134">
        <ele>327.5</ele>
        <time>2014-06-01T08:06:49.000Z</time>
      </trkpt>
      <trkpt lat="47.49094" lon="6.76128">
        <ele>328.4</ele>
        <time>2014-06-01T08:06:51.000Z</time>
      </trkpt>
      <trkpt lat="47.49094" lon="6.76124">
        <ele>328.7</ele>
        <time>2014-06-01T08:06:52.000Z</time>
      </trkpt>
      <trkpt lat="47.49094" lon="6.76119">
        <ele>329.1</ele>
        <time>2014-06-01T08:06:53.000Z</time>
      </trkpt>
      <trkpt lat="47.49093" lon="6.76115">
        <ele>329.6</ele>
        <time>2014-06-01T08:06:54.000Z</time>
      </trkpt>
      <trkpt lat="47.49093" lon="6.7611">
        <ele>331.3</ele>
        <time>2014-06-01T08:06:55.000Z</time>
      </trkpt>
      <trkpt lat="47.49093" lon="6.76106">
        <ele>331.6</ele>
        <time>2014-06-01T08:06:56.000Z</time>
      </trkpt>
      <trkpt lat="47.49093" lon="6.76102">
        <ele>331.3</ele>
        <time>2014-06-01T08:06:57.000Z</time>
      </trkpt>
      <trkpt lat="47.49097" lon="6.76061">
        <ele>332.1</ele>
        <time>2014-06-01T08:07:06.000Z</time>
      </trkpt>
      <trkpt lat="47.49098" lon="6.76056">
        <ele>332.3</ele>
        <time>2014-06-01T08:07:07.000Z</time>
      </trkpt>
      <trkpt lat="47.49099" lon="6.76052">
        <ele>330.4</ele>
        <time>2014-06-01T08:07:08.000Z</time>
      </trkpt>
      <trkpt lat="47.49099" lon="6.76047">
        <ele>329.5</ele>
        <time>2014-06-01T08:07:09.000Z</time>
      </trkpt>
      <trkpt lat="47.491" lon="6.76042">
        <ele>328</ele>
        <time>2014-06-01T08:07:10.000Z</time>
      </trkpt>
      <trkpt lat="47.49101" lon="6.76037">
        <ele>327.7</ele>
        <time>2014-06-01T08:07:11.000Z</time>
      </trkpt>
      <trkpt lat="47.49101" lon="6.76031">
        <ele>326.4</ele>
        <time>2014-06-01T08:07:12.000Z</time>
      </trkpt>
      <trkpt lat="47.49102" lon="6.76026">
        <ele>325.8</ele>
        <time>2014-06-01T08:07:13.000Z</time>
      </trkpt>
      <trkpt lat="47.49103" lon="6.76021">
        <ele>325.4</ele>
        <time>2014-06-01T08:07:14.000Z</time>
      </trkpt>
      <trkpt lat="47.49104" lon="6.76016">
        <ele>325.9</ele>
        <time>2014-06-01T08:07:15.000Z</time>
      </trkpt>
      <trkpt lat="47.49106" lon="6.76012">
        <ele>328.3</ele>
        <time>2014-06-01T08:07:16.000Z</time>
      </trkpt>
      <trkpt lat="47.49107" lon="6.76007">
        <ele>328.3</ele>
        <time>2014-06-01T08:07:17.000Z</time>
      </trkpt>
      <trkpt lat="47.49108" lon="6.76003">
        <ele>327.2</ele>
        <time>2014-06-01T08:07:18.000Z</time>
      </trkpt>
      <trkpt lat="47.4911" lon="6.75999">
        <ele>328</ele>
        <time>2014-06-01T08:07:19.000Z</time>
      </trkpt>
      <trkpt lat="47.49111" lon="6.75995">
        <ele>328.3</ele>
        <time>2014-06-01T08:07:20.000Z</time>
      </trkpt>
      <trkpt lat="47.49112" lon="6.75991">
        <ele>327.9</ele>
        <time>2014-06-01T08:07:21.000Z</time>
      </trkpt>
      <trkpt lat="47.49114" lon="6.75987">
        <ele>327.9</ele>
        <time>2014-06-01T08:07:22.000Z</time>
      </trkpt>
      <trkpt lat="47.49115" lon="6.75984">
        <ele>328.3</ele>
        <time>2014-06-01T08:07:23.000Z</time>
      </trkpt>
      <trkpt lat="47.49116" lon="6.7598">
        <ele>329.2</ele>
        <time>2014-06-01T08:07:24.000Z</time>
      </trkpt>
      <trkpt lat="47.49117" lon="6.75975">
        <ele>324.1</ele>
        <time>2014-06-01T08:07:25.000Z</time>
      </trkpt>
      <trkpt lat="47.49118" lon="6.75969">
        <ele>322.5</ele>
        <time>2014-06-01T08:07:26.000Z</time>
      </trkpt>
      <trkpt lat="47.4912" lon="6.75964">
        <ele>321.9</ele>
        <time>2014-06-01T08:07:27.000Z</time>
      </trkpt>
      <trkpt lat="47.49121" lon="6.75958">
        <ele>315.9</ele>
        <time>2014-06-01T08:07:28.000Z</time>
      </trkpt>
      <trkpt lat="47.49122" lon="6.75953">
        <ele>313.6</ele>
        <time>2014-06-01T08:07:29.000Z</time>
      </trkpt>
      <trkpt lat="47.49123" lon="6.75948">
        <ele>315.3</ele>
        <time>2014-06-01T08:07:30.000Z</time>
      </trkpt>
      <trkpt lat="47.49124" lon="6.75944">
        <ele>316</ele>
        <time>2014-06-01T08:07:31.000Z</time>
      </trkpt>
      <trkpt lat="47.49125" lon="6.75939">
        <ele>316.6</ele>
        <time>2014-06-01T08:07:32.000Z</time>
      </trkpt>
      <trkpt lat="47.49126" lon="6.75935">
        <ele>317.2</ele>
        <time>2014-06-01T08:07:33.000Z</time>
      </trkpt>
      <trkpt lat="47.49127" lon="6.75932">
        <ele>317.4</ele>
        <time>2014-06-01T08:07:34.000Z</time>
      </trkpt>
      <trkpt lat="47.49128" lon="6.7593">
        <ele>317.6</ele>
        <time>2014-06-01T08:07:35.000Z</time>
      </trkpt>
      <trkpt lat="47.4913" lon="6.75926">
        <ele>319</ele>
        <time>2014-06-01T08:07:36.000Z</time>
      </trkpt>
      <trkpt lat="47.49131" lon="6.75923">
        <ele>318.9</ele>
        <time>2014-06-01T08:07:37.000Z</time>
      </trkpt>
      <trkpt lat="47.49132" lon="6.75919">
        <ele>319.4</ele>
        <time>2014-06-01T08:07:38.000Z</time>
      </trkpt>
      <trkpt lat="47.49133" lon="6.75915">
        <ele>320.1</ele>
        <time>2014-06-01T08:07:39.000Z</time>
      </trkpt>
      <trkpt lat="47.49133" lon="6.75911">
        <ele>321</ele>
        <time>2014-06-01T08:07:40.000Z</time>
      </trkpt>
      <trkpt lat="47.49134" lon="6.75908">
        <ele>323.7</ele>
        <time>2014-06-01T08:07:41.000Z</time>
      </trkpt>
      <trkpt lat="47.49134" lon="6.75904">
        <ele>323.5</ele>
        <time>2014-06-01T08:07:42.000Z</time>
      </trkpt>
      <trkpt lat="47.49135" lon="6.75899">
        <ele>322.8</ele>
        <time>2014-06-01T08:07:43.000Z</time>
      </trkpt>
      <trkpt lat="47.49136" lon="6.75894">
        <ele>322.4</ele>
        <time>2014-06-01T08:07:44.000Z</time>
      </trkpt>
      <trkpt lat="47.49137" lon="6.75889">
        <ele>321.8</ele>
        <time>2014-06-01T08:07:45.000Z</time>
      </trkpt>
      <trkpt lat="47.49138" lon="6.75884">
        <ele>321.9</ele>
        <time>2014-06-01T08:07:46.000Z</time>
      </trkpt>
      <trkpt lat="47.49139" lon="6.75879">
        <ele>322.2</ele>
        <time>2014-06-01T08:07:47.000Z</time>
      </trkpt>
      <trkpt lat="47.4914" lon="6.75874">
        <ele>323.4</ele>
        <time>2014-06-01T08:07:48.000Z</time>
      </trkpt>
      <trkpt lat="47.49141" lon="6.75869">
        <ele>324.8</ele>
        <time>2014-06-01T08:07:49.000Z</time>
      </trkpt>
      <trkpt lat="47.49142" lon="6.75864">
        <ele>327</ele>
        <time>2014-06-01T08:07:50.000Z</time>
      </trkpt>
      <trkpt lat="47.49144" lon="6.7586">
        <ele>327.6</ele>
        <time>2014-06-01T08:07:51.000Z</time>
      </trkpt>
      <trkpt lat="47.49145" lon="6.75855">
        <ele>328.7</ele>
        <time>2014-06-01T08:07:52.000Z</time>
      </trkpt>
      <trkpt lat="47.49146" lon="6.7585">
        <ele>330.4</ele>
        <time>2014-06-01T08:07:53.000Z</time>
      </trkpt>
      <trkpt lat="47.49147" lon="6.75844">
        <ele>331.5</ele>
        <time>2014-06-01T08:07:54.000Z</time>
      </trkpt>
      <trkpt lat="47.49149" lon="6.75838">
        <ele>331.6</ele>
        <time>2014-06-01T08:07:55.000Z</time>
      </trkpt>
      <trkpt lat="47.4915" lon="6.75831">
        <ele>332.2</ele>
        <time>2014-06-01T08:07:56.000Z</time>
      </trkpt>
      <trkpt lat="47.49152" lon="6.75825">
        <ele>332.5</ele>
        <time>2014-06-01T08:07:57.000Z</time>
      </trkpt>
      <trkpt lat="47.49155" lon="6.75811">
        <ele>334.5</ele>
        <time>2014-06-01T08:08:00.000Z</time>
      </trkpt>
      <trkpt lat="47.49157" lon="6.75805">
        <ele>334.7</ele>
        <time>2014-06-01T08:08:01.000Z</time>
      </trkpt>
      <trkpt lat="47.49159" lon="6.75798">
        <ele>334.7</ele>
        <time>2014-06-01T08:08:02.000Z</time>
      </trkpt>
      <trkpt lat="47.49163" lon="6.75782">
        <ele>323.9</ele>
        <time>2014-06-01T08:08:03.000Z</time>
      </trkpt>
      <trkpt lat="47.49165" lon="6.75774">
        <ele>322</ele>
        <time>2014-06-01T08:08:04.000Z</time>
      </trkpt>
      <trkpt lat="47.49167" lon="6.75769">
        <ele>319.2</ele>
        <time>2014-06-01T08:08:05.000Z</time>
      </trkpt>
      <trkpt lat="47.49169" lon="6.75763">
        <ele>318</ele>
        <time>2014-06-01T08:08:06.000Z</time>
      </trkpt>
      <trkpt lat="47.49171" lon="6.75758">
        <ele>317.2</ele>
        <time>2014-06-01T08:08:07.000Z</time>
      </trkpt>
      <trkpt lat="47.49174" lon="6.75751">
        <ele>318.7</ele>
        <time>2014-06-01T08:08:08.000Z</time>
      </trkpt>
      <trkpt lat="47.49176" lon="6.75746">
        <ele>320</ele>
        <time>2014-06-01T08:08:09.000Z</time>
      </trkpt>
      <trkpt lat="47.49177" lon="6.75739">
        <ele>320.3</ele>
        <time>2014-06-01T08:08:10.000Z</time>
      </trkpt>
      <trkpt lat="47.4918" lon="6.75734">
        <ele>322</ele>
        <time>2014-06-01T08:08:11.000Z</time>
      </trkpt>
      <trkpt lat="47.49182" lon="6.75726">
        <ele>321.6</ele>
        <time>2014-06-01T08:08:12.000Z</time>
      </trkpt>
      <trkpt lat="47.49184" lon="6.7572">
        <ele>321.2</ele>
        <time>2014-06-01T08:08:13.000Z</time>
      </trkpt>
      <trkpt lat="47.49185" lon="6.75715">
        <ele>320.8</ele>
        <time>2014-06-01T08:08:14.000Z</time>
      </trkpt>
      <trkpt lat="47.49187" lon="6.75711">
        <ele>327.4</ele>
        <time>2014-06-01T08:08:15.000Z</time>
      </trkpt>
      <trkpt lat="47.49189" lon="6.75706">
        <ele>328.7</ele>
        <time>2014-06-01T08:08:16.000Z</time>
      </trkpt>
      <trkpt lat="47.49191" lon="6.75701">
        <ele>328.8</ele>
        <time>2014-06-01T08:08:17.000Z</time>
      </trkpt>
      <trkpt lat="47.49193" lon="6.75696">
        <ele>330.9</ele>
        <time>2014-06-01T08:08:18.000Z</time>
      </trkpt>
      <trkpt lat="47.49194" lon="6.75691">
        <ele>331.3</ele>
        <time>2014-06-01T08:08:19.000Z</time>
      </trkpt>
      <trkpt lat="47.49196" lon="6.75687">
        <ele>332.8</ele>
        <time>2014-06-01T08:08:20.000Z</time>
      </trkpt>
      <trkpt lat="47.49197" lon="6.75682">
        <ele>333.8</ele>
        <time>2014-06-01T08:08:21.000Z</time>
      </trkpt>
      <trkpt lat="47.49198" lon="6.75677">
        <ele>335.8</ele>
        <time>2014-06-01T08:08:22.000Z</time>
      </trkpt>
      <trkpt lat="47.492" lon="6.75672">
        <ele>334.8</ele>
        <time>2014-06-01T08:08:23.000Z</time>
      </trkpt>
      <trkpt lat="47.49202" lon="6.75667">
        <ele>335.7</ele>
        <time>2014-06-01T08:08:24.000Z</time>
      </trkpt>
      <trkpt lat="47.49204" lon="6.75662">
        <ele>335.6</ele>
        <time>2014-06-01T08:08:25.000Z</time>
      </trkpt>
      <trkpt lat="47.49207" lon="6.75657">
        <ele>336</ele>
        <time>2014-06-01T08:08:26.000Z</time>
      </trkpt>
      <trkpt lat="47.49209" lon="6.75651">
        <ele>334.6</ele>
        <time>2014-06-01T08:08:27.000Z</time>
      </trkpt>
      <trkpt lat="47.4921" lon="6.75644">
        <ele>333.8</ele>
        <time>2014-06-01T08:08:28.000Z</time>
      </trkpt>
      <trkpt lat="47.49215" lon="6.75631">
        <ele>333.3</ele>
        <time>2014-06-01T08:08:29.000Z</time>
      </trkpt>
      <trkpt lat="47.49217" lon="6.75624">
        <ele>333.1</ele>
        <time>2014-06-01T08:08:30.000Z</time>
      </trkpt>
      <trkpt lat="47.49219" lon="6.75619">
        <ele>332.8</ele>
        <time>2014-06-01T08:08:31.000Z</time>
      </trkpt>
      <trkpt lat="47.4922" lon="6.75614">
        <ele>333</ele>
        <time>2014-06-01T08:08:32.000Z</time>
      </trkpt>
      <trkpt lat="47.49223" lon="6.75607">
        <ele>333.3</ele>
        <time>2014-06-01T08:08:33.000Z</time>
      </trkpt>
      <trkpt lat="47.49225" lon="6.75602">
        <ele>334.2</ele>
        <time>2014-06-01T08:08:34.000Z</time>
      </trkpt>
      <trkpt lat="47.49227" lon="6.75596">
        <ele>334.7</ele>
        <time>2014-06-01T08:08:35.000Z</time>
      </trkpt>
      <trkpt lat="47.4923" lon="6.75588">
        <ele>335</ele>
        <time>2014-06-01T08:08:36.000Z</time>
      </trkpt>
      <trkpt lat="47.49232" lon="6.75582">
        <ele>335.2</ele>
        <time>2014-06-01T08:08:37.000Z</time>
      </trkpt>
      <trkpt lat="47.49234" lon="6.75576">
        <ele>335.4</ele>
        <time>2014-06-01T08:08:38.000Z</time>
      </trkpt>
      <trkpt lat="47.49235" lon="6.75571">
        <ele>336</ele>
        <time>2014-06-01T08:08:39.000Z</time>
      </trkpt>
      <trkpt lat="47.49237" lon="6.75565">
        <ele>335.8</ele>
        <time>2014-06-01T08:08:40.000Z</time>
      </trkpt>
      <trkpt lat="47.49239" lon="6.75559">
        <ele>335.5</ele>
        <time>2014-06-01T08:08:41.000Z</time>
      </trkpt>
      <trkpt lat="47.49241" lon="6.75553">
        <ele>334.8</ele>
        <time>2014-06-01T08:08:42.000Z</time>
      </trkpt>
      <trkpt lat="47.49242" lon="6.75547">
        <ele>334.8</ele>
        <time>2014-06-01T08:08:43.000Z</time>
      </trkpt>
      <trkpt lat="47.49244" lon="6.75541">
        <ele>333.5</ele>
        <time>2014-06-01T08:08:44.000Z</time>
      </trkpt>
      <trkpt lat="47.49245" lon="6.75535">
        <ele>333.1</ele>
        <time>2014-06-01T08:08:45.000Z</time>
      </trkpt>
      <trkpt lat="47.49246" lon="6.75529">
        <ele>333.2</ele>
        <time>2014-06-01T08:08:46.000Z</time>
      </trkpt>
      <trkpt lat="47.49248" lon="6.75523">
        <ele>333.3</ele>
        <time>2014-06-01T08:08:47.000Z</time>
      </trkpt>
      <trkpt lat="47.49249" lon="6.75517">
        <ele>334.3</ele>
        <time>2014-06-01T08:08:48.000Z</time>
      </trkpt>
      <trkpt lat="47.4925" lon="6.75512">
        <ele>334.7</ele>
        <time>2014-06-01T08:08:49.000Z</time>
      </trkpt>
      <trkpt lat="47.49251" lon="6.75508">
        <ele>334.9</ele>
        <time>2014-06-01T08:08:50.000Z</time>
      </trkpt>
      <trkpt lat="47.49252" lon="6.75503">
        <ele>335.6</ele>
        <time>2014-06-01T08:08:51.000Z</time>
      </trkpt>
      <trkpt lat="47.49253" lon="6.75499">
        <ele>335.6</ele>
        <time>2014-06-01T08:08:52.000Z</time>
      </trkpt>
      <trkpt lat="47.49254" lon="6.75493">
        <ele>334.6</ele>
        <time>2014-06-01T08:08:53.000Z</time>
      </trkpt>
      <trkpt lat="47.49256" lon="6.75486">
        <ele>336.2</ele>
        <time>2014-06-01T08:08:54.000Z</time>
      </trkpt>
      <trkpt lat="47.49257" lon="6.7548">
        <ele>337</ele>
        <time>2014-06-01T08:08:55.000Z</time>
      </trkpt>
      <trkpt lat="47.49258" lon="6.75473">
        <ele>338.1</ele>
        <time>2014-06-01T08:08:56.000Z</time>
      </trkpt>
      <trkpt lat="47.49259" lon="6.75467">
        <ele>336.8</ele>
        <time>2014-06-01T08:08:57.000Z</time>
      </trkpt>
      <trkpt lat="47.49259" lon="6.75461">
        <ele>337.8</ele>
        <time>2014-06-01T08:08:58.000Z</time>
      </trkpt>
      <trkpt lat="47.4926" lon="6.75443">
        <ele>345.8</ele>
        <time>2014-06-01T08:09:01.000Z</time>
      </trkpt>
      <trkpt lat="47.49261" lon="6.75437">
        <ele>346.5</ele>
        <time>2014-06-01T08:09:02.000Z</time>
      </trkpt>
      <trkpt lat="47.49263" lon="6.75431">
        <ele>347.1</ele>
        <time>2014-06-01T08:09:03.000Z</time>
      </trkpt>
      <trkpt lat="47.49265" lon="6.75421">
        <ele>345.1</ele>
        <time>2014-06-01T08:09:04.000Z</time>
      </trkpt>
      <trkpt lat="47.49267" lon="6.75414">
        <ele>345.1</ele>
        <time>2014-06-01T08:09:05.000Z</time>
      </trkpt>
      <trkpt lat="47.49267" lon="6.7541">
        <ele>345.4</ele>
        <time>2014-06-01T08:09:06.000Z</time>
      </trkpt>
      <trkpt lat="47.49269" lon="6.75404">
        <ele>346.9</ele>
        <time>2014-06-01T08:09:07.000Z</time>
      </trkpt>
      <trkpt lat="47.4927" lon="6.75397">
        <ele>345.2</ele>
        <time>2014-06-01T08:09:08.000Z</time>
      </trkpt>
      <trkpt lat="47.49271" lon="6.7539">
        <ele>344.6</ele>
        <time>2014-06-01T08:09:09.000Z</time>
      </trkpt>
      <trkpt lat="47.49272" lon="6.75384">
        <ele>344.4</ele>
        <time>2014-06-01T08:09:10.000Z</time>
      </trkpt>
      <trkpt lat="47.49273" lon="6.7538">
        <ele>344.6</ele>
        <time>2014-06-01T08:09:11.000Z</time>
      </trkpt>
      <trkpt lat="47.49275" lon="6.75375">
        <ele>343.9</ele>
        <time>2014-06-01T08:09:12.000Z</time>
      </trkpt>
      <trkpt lat="47.49278" lon="6.7537">
        <ele>343.1</ele>
        <time>2014-06-01T08:09:13.000Z</time>
      </trkpt>
      <trkpt lat="47.49279" lon="6.75365">
        <ele>344</ele>
        <time>2014-06-01T08:09:14.000Z</time>
      </trkpt>
      <trkpt lat="47.4928" lon="6.75361">
        <ele>345.7</ele>
        <time>2014-06-01T08:09:15.000Z</time>
      </trkpt>
      <trkpt lat="47.49281" lon="6.75357">
        <ele>346.4</ele>
        <time>2014-06-01T08:09:16.000Z</time>
      </trkpt>
      <trkpt lat="47.49282" lon="6.75353">
        <ele>342.9</ele>
        <time>2014-06-01T08:09:17.000Z</time>
      </trkpt>
      <trkpt lat="47.49283" lon="6.75349">
        <ele>342.9</ele>
        <time>2014-06-01T08:09:18.000Z</time>
      </trkpt>
      <trkpt lat="47.49284" lon="6.75344">
        <ele>342.4</ele>
        <time>2014-06-01T08:09:19.000Z</time>
      </trkpt>
      <trkpt lat="47.49286" lon="6.7534">
        <ele>343.2</ele>
        <time>2014-06-01T08:09:20.000Z</time>
      </trkpt>
      <trkpt lat="47.49286" lon="6.75335">
        <ele>342.3</ele>
        <time>2014-06-01T08:09:21.000Z</time>
      </trkpt>
      <trkpt lat="47.49286" lon="6.7533">
        <ele>341.3</ele>
        <time>2014-06-01T08:09:22.000Z</time>
      </trkpt>
      <trkpt lat="47.49286" lon="6.75325">
        <ele>342.4</ele>
        <time>2014-06-01T08:09:23.000Z</time>
      </trkpt>
      <trkpt lat="47.49286" lon="6.7532">
        <ele>344.2</ele>
        <time>2014-06-01T08:09:24.000Z</time>
      </trkpt>
      <trkpt lat="47.49286" lon="6.75316">
        <ele>344.7</ele>
        <time>2014-06-01T08:09:25.000Z</time>
      </trkpt>
      <trkpt lat="47.49286" lon="6.75313">
        <ele>344.9</ele>
        <time>2014-06-01T08:09:26.000Z</time>
      </trkpt>
      <trkpt lat="47.49285" lon="6.75309">
        <ele>345.1</ele>
        <time>2014-06-01T08:09:27.000Z</time>
      </trkpt>
      <trkpt lat="47.49286" lon="6.75305">
        <ele>344.8</ele>
        <time>2014-06-01T08:09:28.000Z</time>
      </trkpt>
      <trkpt lat="47.49286" lon="6.753">
        <ele>344.8</ele>
        <time>2014-06-01T08:09:29.000Z</time>
      </trkpt>
      <trkpt lat="47.49286" lon="6.75296">
        <ele>346.2</ele>
        <time>2014-06-01T08:09:30.000Z</time>
      </trkpt>
      <trkpt lat="47.49287" lon="6.75291">
        <ele>345.8</ele>
        <time>2014-06-01T08:09:31.000Z</time>
      </trkpt>
      <trkpt lat="47.49287" lon="6.75287">
        <ele>346.1</ele>
        <time>2014-06-01T08:09:32.000Z</time>
      </trkpt>
      <trkpt lat="47.49288" lon="6.75282">
        <ele>347.1</ele>
        <time>2014-06-01T08:09:33.000Z</time>
      </trkpt>
      <trkpt lat="47.49289" lon="6.75278">
        <ele>347.1</ele>
        <time>2014-06-01T08:09:34.000Z</time>
      </trkpt>
      <trkpt lat="47.49289" lon="6.75274">
        <ele>347</ele>
        <time>2014-06-01T08:09:35.000Z</time>
      </trkpt>
      <trkpt lat="47.49289" lon="6.75271">
        <ele>348.8</ele>
        <time>2014-06-01T08:09:36.000Z</time>
      </trkpt>
      <trkpt lat="47.49289" lon="6.75268">
        <ele>350.2</ele>
        <time>2014-06-01T08:09:37.000Z</time>
      </trkpt>
      <trkpt lat="47.49289" lon="6.75261">
        <ele>353.6</ele>
        <time>2014-06-01T08:09:39.000Z</time>
      </trkpt>
      <trkpt lat="47.49289" lon="6.75259">
        <ele>352.9</ele>
        <time>2014-06-01T08:09:40.000Z</time>
      </trkpt>
      <trkpt lat="47.49288" lon="6.75255">
        <ele>351.8</ele>
        <time>2014-06-01T08:09:41.000Z</time>
      </trkpt>
      <trkpt lat="47.49288" lon="6.75252">
        <ele>352.4</ele>
        <time>2014-06-01T08:09:42.000Z</time>
      </trkpt>
      <trkpt lat="47.49287" lon="6.75249">
        <ele>353.1</ele>
        <time>2014-06-01T08:09:43.000Z</time>
      </trkpt>
      <trkpt lat="47.49286" lon="6.75245">
        <ele>353.6</ele>
        <time>2014-06-01T08:09:44.000Z</time>
      </trkpt>
      <trkpt lat="47.49286" lon="6.75238">
        <ele>354.4</ele>
        <time>2014-06-01T08:09:46.000Z</time>
      </trkpt>
      <trkpt lat="47.49286" lon="6.75235">
        <ele>352.8</ele>
        <time>2014-06-01T08:09:47.000Z</time>
      </trkpt>
      <trkpt lat="47.49285" lon="6.75231">
        <ele>352.6</ele>
        <time>2014-06-01T08:09:48.000Z</time>
      </trkpt>
      <trkpt lat="47.49285" lon="6.75227">
        <ele>352.2</ele>
        <time>2014-06-01T08:09:49.000Z</time>
      </trkpt>
      <trkpt lat="47.49284" lon="6.75224">
        <ele>352.6</ele>
        <time>2014-06-01T08:09:50.000Z</time>
      </trkpt>
      <trkpt lat="47.49284" lon="6.7522">
        <ele>353.7</ele>
        <time>2014-06-01T08:09:51.000Z</time>
      </trkpt>
      <trkpt lat="47.49284" lon="6.75214">
        <ele>354.7</ele>
        <time>2014-06-01T08:09:53.000Z</time>
      </trkpt>
      <trkpt lat="47.49285" lon="6.7521">
        <ele>353.7</ele>
        <time>2014-06-01T08:09:54.000Z</time>
      </trkpt>
      <trkpt lat="47.49285" lon="6.75206">
        <ele>353.6</ele>
        <time>2014-06-01T08:09:55.000Z</time>
      </trkpt>
      <trkpt lat="47.49285" lon="6.75202">
        <ele>356.6</ele>
        <time>2014-06-01T08:09:56.000Z</time>
      </trkpt>
      <trkpt lat="47.49286" lon="6.75197">
        <ele>355.2</ele>
        <time>2014-06-01T08:09:57.000Z</time>
      </trkpt>
      <trkpt lat="47.49287" lon="6.75193">
        <ele>350.5</ele>
        <time>2014-06-01T08:09:58.000Z</time>
      </trkpt>
      <trkpt lat="47.49284" lon="6.75161">
        <ele>354</ele>
        <time>2014-06-01T08:10:06.000Z</time>
      </trkpt>
      <trkpt lat="47.49284" lon="6.75155">
        <ele>354</ele>
        <time>2014-06-01T08:10:07.000Z</time>
      </trkpt>
      <trkpt lat="47.49283" lon="6.75149">
        <ele>353.7</ele>
        <time>2014-06-01T08:10:08.000Z</time>
      </trkpt>
      <trkpt lat="47.49283" lon="6.75143">
        <ele>354.9</ele>
        <time>2014-06-01T08:10:09.000Z</time>
      </trkpt>
      <trkpt lat="47.49283" lon="6.75137">
        <ele>355</ele>
        <time>2014-06-01T08:10:10.000Z</time>
      </trkpt>
      <trkpt lat="47.49283" lon="6.75132">
        <ele>354.9</ele>
        <time>2014-06-01T08:10:11.000Z</time>
      </trkpt>
      <trkpt lat="47.49284" lon="6.75127">
        <ele>362.8</ele>
        <time>2014-06-01T08:10:12.000Z</time>
      </trkpt>
      <trkpt lat="47.49284" lon="6.75123">
        <ele>365.9</ele>
        <time>2014-06-01T08:10:13.000Z</time>
      </trkpt>
      <trkpt lat="47.49285" lon="6.75118">
        <ele>368.1</ele>
        <time>2014-06-01T08:10:14.000Z</time>
      </trkpt>
      <trkpt lat="47.49287" lon="6.75113">
        <ele>364.2</ele>
        <time>2014-06-01T08:10:15.000Z</time>
      </trkpt>
      <trkpt lat="47.49289" lon="6.75107">
        <ele>362.4</ele>
        <time>2014-06-01T08:10:16.000Z</time>
      </trkpt>
      <trkpt lat="47.49291" lon="6.75101">
        <ele>361.2</ele>
        <time>2014-06-01T08:10:17.000Z</time>
      </trkpt>
      <trkpt lat="47.49294" lon="6.75095">
        <ele>360.9</ele>
        <time>2014-06-01T08:10:18.000Z</time>
      </trkpt>
      <trkpt lat="47.49297" lon="6.75089">
        <ele>360.9</ele>
        <time>2014-06-01T08:10:19.000Z</time>
      </trkpt>
      <trkpt lat="47.49301" lon="6.75083">
        <ele>361</ele>
        <time>2014-06-01T08:10:20.000Z</time>
      </trkpt>
      <trkpt lat="47.49311" lon="6.75073">
        <ele>360.2</ele>
        <time>2014-06-01T08:10:21.000Z</time>
      </trkpt>
      <trkpt lat="47.49314" lon="6.75068">
        <ele>359.6</ele>
        <time>2014-06-01T08:10:22.000Z</time>
      </trkpt>
      <trkpt lat="47.49317" lon="6.75061">
        <ele>357.3</ele>
        <time>2014-06-01T08:10:23.000Z</time>
      </trkpt>
      <trkpt lat="47.49321" lon="6.75055">
        <ele>356.5</ele>
        <time>2014-06-01T08:10:24.000Z</time>
      </trkpt>
      <trkpt lat="47.49323" lon="6.75049">
        <ele>356.4</ele>
        <time>2014-06-01T08:10:25.000Z</time>
      </trkpt>
      <trkpt lat="47.49326" lon="6.75042">
        <ele>356</ele>
        <time>2014-06-01T08:10:26.000Z</time>
      </trkpt>
      <trkpt lat="47.49329" lon="6.75036">
        <ele>355.8</ele>
        <time>2014-06-01T08:10:27.000Z</time>
      </trkpt>
      <trkpt lat="47.49328" lon="6.75032">
        <ele>357</ele>
        <time>2014-06-01T08:10:28.000Z</time>
      </trkpt>
      <trkpt lat="47.49329" lon="6.75027">
        <ele>357</ele>
        <time>2014-06-01T08:10:29.000Z</time>
      </trkpt>
      <trkpt lat="47.49329" lon="6.75024">
        <ele>355.1</ele>
        <time>2014-06-01T08:10:30.000Z</time>
      </trkpt>
      <trkpt lat="47.4933" lon="6.7502">
        <ele>355.8</ele>
        <time>2014-06-01T08:10:31.000Z</time>
      </trkpt>
      <trkpt lat="47.49331" lon="6.75015">
        <ele>361</ele>
        <time>2014-06-01T08:10:33.000Z</time>
      </trkpt>
      <trkpt lat="47.49332" lon="6.75012">
        <ele>363</ele>
        <time>2014-06-01T08:10:34.000Z</time>
      </trkpt>
      <trkpt lat="47.49332" lon="6.7501">
        <ele>361.2</ele>
        <time>2014-06-01T08:10:35.000Z</time>
      </trkpt>
      <trkpt lat="47.49333" lon="6.75006">
        <ele>357.7</ele>
        <time>2014-06-01T08:10:36.000Z</time>
      </trkpt>
      <trkpt lat="47.49333" lon="6.75002">
        <ele>358</ele>
        <time>2014-06-01T08:10:37.000Z</time>
      </trkpt>
      <trkpt lat="47.49333" lon="6.74999">
        <ele>358.4</ele>
        <time>2014-06-01T08:10:38.000Z</time>
      </trkpt>
      <trkpt lat="47.49332" lon="6.74993">
        <ele>361.8</ele>
        <time>2014-06-01T08:10:41.000Z</time>
      </trkpt>
      <trkpt lat="47.49331" lon="6.74991">
        <ele>361.9</ele>
        <time>2014-06-01T08:10:42.000Z</time>
      </trkpt>
      <trkpt lat="47.4933" lon="6.74986">
        <ele>360.7</ele>
        <time>2014-06-01T08:10:44.000Z</time>
      </trkpt>
      <trkpt lat="47.4933" lon="6.74984">
        <ele>360.8</ele>
        <time>2014-06-01T08:10:45.000Z</time>
      </trkpt>
      <trkpt lat="47.4933" lon="6.74978">
        <ele>364.4</ele>
        <time>2014-06-01T08:10:47.999Z</time>
      </trkpt>
      <trkpt lat="47.49331" lon="6.74975">
        <ele>363.9</ele>
        <time>2014-06-01T08:10:49.000Z</time>
      </trkpt>
      <trkpt lat="47.49332" lon="6.74971">
        <ele>363.8</ele>
        <time>2014-06-01T08:10:50.000Z</time>
      </trkpt>
      <trkpt lat="47.49333" lon="6.74967">
        <ele>364.1</ele>
        <time>2014-06-01T08:10:51.000Z</time>
      </trkpt>
      <trkpt lat="47.49334" lon="6.74963">
        <ele>364.4</ele>
        <time>2014-06-01T08:10:52.000Z</time>
      </trkpt>
      <trkpt lat="47.49335" lon="6.7496">
        <ele>370.9</ele>
        <time>2014-06-01T08:10:53.000Z</time>
      </trkpt>
      <trkpt lat="47.49335" lon="6.74956">
        <ele>372.5</ele>
        <time>2014-06-01T08:10:54.000Z</time>
      </trkpt>
      <trkpt lat="47.49336" lon="6.74952">
        <ele>373.5</ele>
        <time>2014-06-01T08:10:55.000Z</time>
      </trkpt>
      <trkpt lat="47.49336" lon="6.74949">
        <ele>373.3</ele>
        <time>2014-06-01T08:10:56.000Z</time>
      </trkpt>
      <trkpt lat="47.49336" lon="6.74945">
        <ele>373.5</ele>
        <time>2014-06-01T08:10:57.000Z</time>
      </trkpt>
      <trkpt lat="47.49336" lon="6.74936">
        <ele>370.4</ele>
        <time>2014-06-01T08:11:00.000Z</time>
      </trkpt>
      <trkpt lat="47.49337" lon="6.7493">
        <ele>371</ele>
        <time>2014-06-01T08:11:02.000Z</time>
      </trkpt>
      <trkpt lat="47.49338" lon="6.74928">
        <ele>371</ele>
        <time>2014-06-01T08:11:03.000Z</time>
      </trkpt>
      <trkpt lat="47.4934" lon="6.74924">
        <ele>370.6</ele>
        <time>2014-06-01T08:11:04.000Z</time>
      </trkpt>
      <trkpt lat="47.49341" lon="6.7492">
        <ele>370.3</ele>
        <time>2014-06-01T08:11:05.000Z</time>
      </trkpt>
      <trkpt lat="47.49342" lon="6.74916">
        <ele>370.4</ele>
        <time>2014-06-01T08:11:06.000Z</time>
      </trkpt>
      <trkpt lat="47.49344" lon="6.74911">
        <ele>370.7</ele>
        <time>2014-06-01T08:11:07.000Z</time>
      </trkpt>
      <trkpt lat="47.49345" lon="6.74907">
        <ele>371.1</ele>
        <time>2014-06-01T08:11:08.000Z</time>
      </trkpt>
      <trkpt lat="47.49348" lon="6.74902">
        <ele>371</ele>
        <time>2014-06-01T08:11:09.000Z</time>
      </trkpt>
      <trkpt lat="47.4935" lon="6.74898">
        <ele>370.8</ele>
        <time>2014-06-01T08:11:10.000Z</time>
      </trkpt>
      <trkpt lat="47.49352" lon="6.74895">
        <ele>370.6</ele>
        <time>2014-06-01T08:11:11.000Z</time>
      </trkpt>
      <trkpt lat="47.49355" lon="6.74892">
        <ele>372.2</ele>
        <time>2014-06-01T08:11:12.000Z</time>
      </trkpt>
      <trkpt lat="47.49357" lon="6.7489">
        <ele>371.3</ele>
        <time>2014-06-01T08:11:13.000Z</time>
      </trkpt>
      <trkpt lat="47.4936" lon="6.74886">
        <ele>371.4</ele>
        <time>2014-06-01T08:11:15.000Z</time>
      </trkpt>
      <trkpt lat="47.49361" lon="6.74883">
        <ele>370.4</ele>
        <time>2014-06-01T08:11:16.000Z</time>
      </trkpt>
      <trkpt lat="47.49362" lon="6.7488">
        <ele>371.9</ele>
        <time>2014-06-01T08:11:17.000Z</time>
      </trkpt>
      <trkpt lat="47.49363" lon="6.74876">
        <ele>372.1</ele>
        <time>2014-06-01T08:11:18.000Z</time>
      </trkpt>
      <trkpt lat="47.49363" lon="6.7487">
        <ele>372.6</ele>
        <time>2014-06-01T08:11:20.000Z</time>
      </trkpt>
      <trkpt lat="47.49364" lon="6.74868">
        <ele>372.4</ele>
        <time>2014-06-01T08:11:21.000Z</time>
      </trkpt>
      <trkpt lat="47.49365" lon="6.74862">
        <ele>371.5</ele>
        <time>2014-06-01T08:11:23.000Z</time>
      </trkpt>
      <trkpt lat="47.49366" lon="6.74859">
        <ele>370.8</ele>
        <time>2014-06-01T08:11:24.000Z</time>
      </trkpt>
      <trkpt lat="47.49367" lon="6.74855">
        <ele>369.9</ele>
        <time>2014-06-01T08:11:25.000Z</time>
      </trkpt>
      <trkpt lat="47.49368" lon="6.74851">
        <ele>368.6</ele>
        <time>2014-06-01T08:11:26.000Z</time>
      </trkpt>
      <trkpt lat="47.49369" lon="6.74847">
        <ele>369.6</ele>
        <time>2014-06-01T08:11:27.000Z</time>
      </trkpt>
      <trkpt lat="47.49371" lon="6.74842">
        <ele>369.3</ele>
        <time>2014-06-01T08:11:28.000Z</time>
      </trkpt>
      <trkpt lat="47.49372" lon="6.74838">
        <ele>370.3</ele>
        <time>2014-06-01T08:11:29.000Z</time>
      </trkpt>
      <trkpt lat="47.49373" lon="6.74834">
        <ele>370.3</ele>
        <time>2014-06-01T08:11:30.000Z</time>
      </trkpt>
      <trkpt lat="47.49374" lon="6.74831">
        <ele>370.4</ele>
        <time>2014-06-01T08:11:31.000Z</time>
      </trkpt>
      <trkpt lat="47.49375" lon="6.74827">
        <ele>372.1</ele>
        <time>2014-06-01T08:11:32.000Z</time>
      </trkpt>
      <trkpt lat="47.49376" lon="6.74822">
        <ele>372.4</ele>
        <time>2014-06-01T08:11:33.000Z</time>
      </trkpt>
      <trkpt lat="47.49377" lon="6.74816">
        <ele>373.5</ele>
        <time>2014-06-01T08:11:34.000Z</time>
      </trkpt>
      <trkpt lat="47.49378" lon="6.74809">
        <ele>371.8</ele>
        <time>2014-06-01T08:11:35.000Z</time>
      </trkpt>
      <trkpt lat="47.49379" lon="6.74802">
        <ele>370.4</ele>
        <time>2014-06-01T08:11:36.000Z</time>
      </trkpt>
      <trkpt lat="47.4938" lon="6.74797">
        <ele>373</ele>
        <time>2014-06-01T08:11:37.000Z</time>
      </trkpt>
      <trkpt lat="47.4938" lon="6.74792">
        <ele>373</ele>
        <time>2014-06-01T08:11:38.000Z</time>
      </trkpt>
      <trkpt lat="47.4938" lon="6.74788">
        <ele>373.3</ele>
        <time>2014-06-01T08:11:39.000Z</time>
      </trkpt>
      <trkpt lat="47.49381" lon="6.74784">
        <ele>373.4</ele>
        <time>2014-06-01T08:11:40.000Z</time>
      </trkpt>
      <trkpt lat="47.49381" lon="6.7478">
        <ele>376.3</ele>
        <time>2014-06-01T08:11:41.000Z</time>
      </trkpt>
      <trkpt lat="47.49383" lon="6.74776">
        <ele>380.2</ele>
        <time>2014-06-01T08:11:42.000Z</time>
      </trkpt>
      <trkpt lat="47.49384" lon="6.74772">
        <ele>381.3</ele>
        <time>2014-06-01T08:11:43.000Z</time>
      </trkpt>
      <trkpt lat="47.49386" lon="6.74767">
        <ele>381.8</ele>
        <time>2014-06-01T08:11:44.000Z</time>
      </trkpt>
      <trkpt lat="47.49387" lon="6.74762">
        <ele>378.5</ele>
        <time>2014-06-01T08:11:45.000Z</time>
      </trkpt>
      <trkpt lat="47.49387" lon="6.74758">
        <ele>378.9</ele>
        <time>2014-06-01T08:11:46.000Z</time>
      </trkpt>
      <trkpt lat="47.49386" lon="6.74753">
        <ele>379.2</ele>
        <time>2014-06-01T08:11:47.000Z</time>
      </trkpt>
      <trkpt lat="47.49386" lon="6.74749">
        <ele>381.2</ele>
        <time>2014-06-01T08:11:48.000Z</time>
      </trkpt>
      <trkpt lat="47.49387" lon="6.74744">
        <ele>381.5</ele>
        <time>2014-06-01T08:11:49.000Z</time>
      </trkpt>
      <trkpt lat="47.49388" lon="6.7474">
        <ele>382.5</ele>
        <time>2014-06-01T08:11:50.000Z</time>
      </trkpt>
      <trkpt lat="47.49388" lon="6.74736">
        <ele>383.2</ele>
        <time>2014-06-01T08:11:51.000Z</time>
      </trkpt>
      <trkpt lat="47.49389" lon="6.74732">
        <ele>382.7</ele>
        <time>2014-06-01T08:11:52.000Z</time>
      </trkpt>
      <trkpt lat="47.49389" lon="6.74727">
        <ele>382.5</ele>
        <time>2014-06-01T08:11:53.000Z</time>
      </trkpt>
      <trkpt lat="47.4939" lon="6.74723">
        <ele>387.2</ele>
        <time>2014-06-01T08:11:54.000Z</time>
      </trkpt>
      <trkpt lat="47.4939" lon="6.74719">
        <ele>388.3</ele>
        <time>2014-06-01T08:11:55.000Z</time>
      </trkpt>
      <trkpt lat="47.4939" lon="6.74715">
        <ele>391.4</ele>
        <time>2014-06-01T08:11:56.000Z</time>
      </trkpt>
      <trkpt lat="47.49391" lon="6.74712">
        <ele>391.6</ele>
        <time>2014-06-01T08:11:57.000Z</time>
      </trkpt>
      <trkpt lat="47.49391" lon="6.74708">
        <ele>393.4</ele>
        <time>2014-06-01T08:11:58.000Z</time>
      </trkpt>
      <trkpt lat="47.49392" lon="6.74698">
        <ele>392.9</ele>
        <time>2014-06-01T08:12:01.000Z</time>
      </trkpt>
      <trkpt lat="47.49391" lon="6.74694">
        <ele>391.6</ele>
        <time>2014-06-01T08:12:02.000Z</time>
      </trkpt>
      <trkpt lat="47.49391" lon="6.74689">
        <ele>394.1</ele>
        <time>2014-06-01T08:12:03.000Z</time>
      </trkpt>
      <trkpt lat="47.49392" lon="6.74685">
        <ele>394</ele>
        <time>2014-06-01T08:12:04.000Z</time>
      </trkpt>
      <trkpt lat="47.49392" lon="6.7468">
        <ele>390.9</ele>
        <time>2014-06-01T08:12:05.000Z</time>
      </trkpt>
      <trkpt lat="47.49393" lon="6.74676">
        <ele>390.3</ele>
        <time>2014-06-01T08:12:06.000Z</time>
      </trkpt>
      <trkpt lat="47.49393" lon="6.74671">
        <ele>389.6</ele>
        <time>2014-06-01T08:12:07.000Z</time>
      </trkpt>
      <trkpt lat="47.49393" lon="6.74665">
        <ele>388.4</ele>
        <time>2014-06-01T08:12:08.000Z</time>
      </trkpt>
      <trkpt lat="47.49394" lon="6.7466">
        <ele>391.1</ele>
        <time>2014-06-01T08:12:09.000Z</time>
      </trkpt>
      <trkpt lat="47.49394" lon="6.74654">
        <ele>392.2</ele>
        <time>2014-06-01T08:12:10.000Z</time>
      </trkpt>
      <trkpt lat="47.49394" lon="6.74649">
        <ele>393.6</ele>
        <time>2014-06-01T08:12:11.000Z</time>
      </trkpt>
      <trkpt lat="47.49394" lon="6.74644">
        <ele>396.4</ele>
        <time>2014-06-01T08:12:12.000Z</time>
      </trkpt>
      <trkpt lat="47.49394" lon="6.74639">
        <ele>397.3</ele>
        <time>2014-06-01T08:12:13.000Z</time>
      </trkpt>
      <trkpt lat="47.49395" lon="6.74634">
        <ele>397.5</ele>
        <time>2014-06-01T08:12:14.000Z</time>
      </trkpt>
      <trkpt lat="47.49394" lon="6.74629">
        <ele>397.5</ele>
        <time>2014-06-01T08:12:15.000Z</time>
      </trkpt>
      <trkpt lat="47.49394" lon="6.74625">
        <ele>397.4</ele>
        <time>2014-06-01T08:12:16.000Z</time>
      </trkpt>
      <trkpt lat="47.49394" lon="6.74619">
        <ele>399.2</ele>
        <time>2014-06-01T08:12:17.000Z</time>
      </trkpt>
      <trkpt lat="47.49393" lon="6.74614">
        <ele>400.2</ele>
        <time>2014-06-01T08:12:18.000Z</time>
      </trkpt>
      <trkpt lat="47.49392" lon="6.74609">
        <ele>403.9</ele>
        <time>2014-06-01T08:12:19.000Z</time>
      </trkpt>
      <trkpt lat="47.49392" lon="6.74603">
        <ele>404.2</ele>
        <time>2014-06-01T08:12:20.000Z</time>
      </trkpt>
      <trkpt lat="47.49392" lon="6.74598">
        <ele>404.6</ele>
        <time>2014-06-01T08:12:21.000Z</time>
      </trkpt>
      <trkpt lat="47.49392" lon="6.74593">
        <ele>404.1</ele>
        <time>2014-06-01T08:12:22.000Z</time>
      </trkpt>
      <trkpt lat="47.49393" lon="6.74587">
        <ele>403.9</ele>
        <time>2014-06-01T08:12:23.000Z</time>
      </trkpt>
      <trkpt lat="47.49393" lon="6.74581">
        <ele>403.1</ele>
        <time>2014-06-01T08:12:24.000Z</time>
      </trkpt>
      <trkpt lat="47.49392" lon="6.74574">
        <ele>405.8</ele>
        <time>2014-06-01T08:12:25.000Z</time>
      </trkpt>
      <trkpt lat="47.49392" lon="6.74566">
        <ele>406.8</ele>
        <time>2014-06-01T08:12:26.000Z</time>
      </trkpt>
      <trkpt lat="47.49391" lon="6.74558">
        <ele>407.2</ele>
        <time>2014-06-01T08:12:27.000Z</time>
      </trkpt>
      <trkpt lat="47.49391" lon="6.7455">
        <ele>407.3</ele>
        <time>2014-06-01T08:12:28.000Z</time>
      </trkpt>
      <trkpt lat="47.4939" lon="6.74542">
        <ele>407.6</ele>
        <time>2014-06-01T08:12:29.000Z</time>
      </trkpt>
      <trkpt lat="47.4939" lon="6.74535">
        <ele>407.7</ele>
        <time>2014-06-01T08:12:30.000Z</time>
      </trkpt>
      <trkpt lat="47.4939" lon="6.7453">
        <ele>410.2</ele>
        <time>2014-06-01T08:12:31.000Z</time>
      </trkpt>
      <trkpt lat="47.4939" lon="6.74525">
        <ele>410.2</ele>
        <time>2014-06-01T08:12:32.000Z</time>
      </trkpt>
      <trkpt lat="47.4939" lon="6.74521">
        <ele>410.4</ele>
        <time>2014-06-01T08:12:33.000Z</time>
      </trkpt>
      <trkpt lat="47.49389" lon="6.74516">
        <ele>408.9</ele>
        <time>2014-06-01T08:12:34.000Z</time>
      </trkpt>
      <trkpt lat="47.49389" lon="6.74512">
        <ele>407</ele>
        <time>2014-06-01T08:12:35.000Z</time>
      </trkpt>
      <trkpt lat="47.49389" lon="6.74508">
        <ele>408.6</ele>
        <time>2014-06-01T08:12:36.000Z</time>
      </trkpt>
      <trkpt lat="47.49389" lon="6.74504">
        <ele>406.7</ele>
        <time>2014-06-01T08:12:37.000Z</time>
      </trkpt>
      <trkpt lat="47.4939" lon="6.74501">
        <ele>408.4</ele>
        <time>2014-06-01T08:12:38.000Z</time>
      </trkpt>
      <trkpt lat="47.4939" lon="6.74498">
        <ele>408.4</ele>
        <time>2014-06-01T08:12:39.000Z</time>
      </trkpt>
      <trkpt lat="47.4939" lon="6.74494">
        <ele>411.4</ele>
        <time>2014-06-01T08:12:40.000Z</time>
      </trkpt>
      <trkpt lat="47.4939" lon="6.7449">
        <ele>412.8</ele>
        <time>2014-06-01T08:12:41.000Z</time>
      </trkpt>
      <trkpt lat="47.4939" lon="6.74486">
        <ele>411.2</ele>
        <time>2014-06-01T08:12:42.000Z</time>
      </trkpt>
      <trkpt lat="47.4939" lon="6.74482">
        <ele>411.3</ele>
        <time>2014-06-01T08:12:43.000Z</time>
      </trkpt>
      <trkpt lat="47.4939" lon="6.74476">
        <ele>404.5</ele>
        <time>2014-06-01T08:12:44.000Z</time>
      </trkpt>
      <trkpt lat="47.49391" lon="6.7447">
        <ele>402.4</ele>
        <time>2014-06-01T08:12:45.000Z</time>
      </trkpt>
      <trkpt lat="47.49391" lon="6.74465">
        <ele>402.6</ele>
        <time>2014-06-01T08:12:46.000Z</time>
      </trkpt>
      <trkpt lat="47.49391" lon="6.74459">
        <ele>402.2</ele>
        <time>2014-06-01T08:12:47.000Z</time>
      </trkpt>
      <trkpt lat="47.4939" lon="6.74454">
        <ele>401.9</ele>
        <time>2014-06-01T08:12:48.000Z</time>
      </trkpt>
      <trkpt lat="47.4939" lon="6.74449">
        <ele>401.7</ele>
        <time>2014-06-01T08:12:49.000Z</time>
      </trkpt>
      <trkpt lat="47.4939" lon="6.74443">
        <ele>397.5</ele>
        <time>2014-06-01T08:12:50.000Z</time>
      </trkpt>
      <trkpt lat="47.49391" lon="6.74438">
        <ele>398.2</ele>
        <time>2014-06-01T08:12:51.000Z</time>
      </trkpt>
      <trkpt lat="47.4939" lon="6.74433">
        <ele>397.9</ele>
        <time>2014-06-01T08:12:52.000Z</time>
      </trkpt>
      <trkpt lat="47.4939" lon="6.74428">
        <ele>398.9</ele>
        <time>2014-06-01T08:12:53.000Z</time>
      </trkpt>
      <trkpt lat="47.4939" lon="6.74423">
        <ele>397.5</ele>
        <time>2014-06-01T08:12:54.000Z</time>
      </trkpt>
      <trkpt lat="47.4939" lon="6.74418">
        <ele>398.2</ele>
        <time>2014-06-01T08:12:55.000Z</time>
      </trkpt>
      <trkpt lat="47.49391" lon="6.74413">
        <ele>399.1</ele>
        <time>2014-06-01T08:12:56.000Z</time>
      </trkpt>
      <trkpt lat="47.49392" lon="6.74408">
        <ele>399.5</ele>
        <time>2014-06-01T08:12:57.000Z</time>
      </trkpt>
      <trkpt lat="47.49395" lon="6.74394">
        <ele>394.7</ele>
        <time>2014-06-01T08:13:00.000Z</time>
      </trkpt>
      <trkpt lat="47.49396" lon="6.74389">
        <ele>394.6</ele>
        <time>2014-06-01T08:13:01.000Z</time>
      </trkpt>
      <trkpt lat="47.49396" lon="6.74384">
        <ele>399.5</ele>
        <time>2014-06-01T08:13:02.000Z</time>
      </trkpt>
      <trkpt lat="47.49395" lon="6.7438">
        <ele>400</ele>
        <time>2014-06-01T08:13:03.000Z</time>
      </trkpt>
      <trkpt lat="47.49395" lon="6.74375">
        <ele>399.5</ele>
        <time>2014-06-01T08:13:04.000Z</time>
      </trkpt>
      <trkpt lat="47.49394" lon="6.74371">
        <ele>397</ele>
        <time>2014-06-01T08:13:05.000Z</time>
      </trkpt>
      <trkpt lat="47.49394" lon="6.74368">
        <ele>398.4</ele>
        <time>2014-06-01T08:13:06.000Z</time>
      </trkpt>
      <trkpt lat="47.49395" lon="6.74364">
        <ele>399.7</ele>
        <time>2014-06-01T08:13:07.000Z</time>
      </trkpt>
      <trkpt lat="47.49395" lon="6.74361">
        <ele>399</ele>
        <time>2014-06-01T08:13:08.000Z</time>
      </trkpt>
      <trkpt lat="47.49395" lon="6.74357">
        <ele>400.3</ele>
        <time>2014-06-01T08:13:09.000Z</time>
      </trkpt>
      <trkpt lat="47.49395" lon="6.74353">
        <ele>400.3</ele>
        <time>2014-06-01T08:13:10.000Z</time>
      </trkpt>
      <trkpt lat="47.49395" lon="6.7435">
        <ele>400.1</ele>
        <time>2014-06-01T08:13:11.000Z</time>
      </trkpt>
      <trkpt lat="47.49394" lon="6.74346">
        <ele>400.8</ele>
        <time>2014-06-01T08:13:12.000Z</time>
      </trkpt>
      <trkpt lat="47.49393" lon="6.74342">
        <ele>396.6</ele>
        <time>2014-06-01T08:13:13.000Z</time>
      </trkpt>
      <trkpt lat="47.49393" lon="6.74337">
        <ele>397</ele>
        <time>2014-06-01T08:13:14.000Z</time>
      </trkpt>
      <trkpt lat="47.49393" lon="6.74332">
        <ele>398.2</ele>
        <time>2014-06-01T08:13:15.000Z</time>
      </trkpt>
      <trkpt lat="47.49393" lon="6.74326">
        <ele>397</ele>
        <time>2014-06-01T08:13:16.000Z</time>
      </trkpt>
      <trkpt lat="47.49393" lon="6.7432">
        <ele>397</ele>
        <time>2014-06-01T08:13:17.000Z</time>
      </trkpt>
      <trkpt lat="47.49394" lon="6.74316">
        <ele>397</ele>
        <time>2014-06-01T08:13:18.000Z</time>
      </trkpt>
      <trkpt lat="47.49394" lon="6.74311">
        <ele>396.9</ele>
        <time>2014-06-01T08:13:19.000Z</time>
      </trkpt>
      <trkpt lat="47.49395" lon="6.74306">
        <ele>395.9</ele>
        <time>2014-06-01T08:13:20.000Z</time>
      </trkpt>
      <trkpt lat="47.49396" lon="6.74301">
        <ele>398.6</ele>
        <time>2014-06-01T08:13:21.000Z</time>
      </trkpt>
      <trkpt lat="47.49397" lon="6.74295">
        <ele>397.4</ele>
        <time>2014-06-01T08:13:22.000Z</time>
      </trkpt>
      <trkpt lat="47.49397" lon="6.74288">
        <ele>392.9</ele>
        <time>2014-06-01T08:13:23.000Z</time>
      </trkpt>
      <trkpt lat="47.49401" lon="6.74275">
        <ele>395.5</ele>
        <time>2014-06-01T08:13:24.000Z</time>
      </trkpt>
      <trkpt lat="47.49402" lon="6.74267">
        <ele>392.9</ele>
        <time>2014-06-01T08:13:25.000Z</time>
      </trkpt>
      <trkpt lat="47.49403" lon="6.74262">
        <ele>393.5</ele>
        <time>2014-06-01T08:13:25.999Z</time>
      </trkpt>
      <trkpt lat="47.49405" lon="6.74258">
        <ele>397.5</ele>
        <time>2014-06-01T08:13:27.000Z</time>
      </trkpt>
      <trkpt lat="47.49407" lon="6.74253">
        <ele>397.8</ele>
        <time>2014-06-01T08:13:28.000Z</time>
      </trkpt>
      <trkpt lat="47.49406" lon="6.74243">
        <ele>390.8</ele>
        <time>2014-06-01T08:13:29.000Z</time>
      </trkpt>
      <trkpt lat="47.49407" lon="6.74236">
        <ele>387.6</ele>
        <time>2014-06-01T08:13:30.000Z</time>
      </trkpt>
      <trkpt lat="47.49407" lon="6.7423">
        <ele>391.2</ele>
        <time>2014-06-01T08:13:32.000Z</time>
      </trkpt>
      <trkpt lat="47.49408" lon="6.74226">
        <ele>390.8</ele>
        <time>2014-06-01T08:13:33.000Z</time>
      </trkpt>
      <trkpt lat="47.49411" lon="6.74219">
        <ele>392.4</ele>
        <time>2014-06-01T08:13:34.000Z</time>
      </trkpt>
      <trkpt lat="47.49413" lon="6.74211">
        <ele>390.4</ele>
        <time>2014-06-01T08:13:35.000Z</time>
      </trkpt>
      <trkpt lat="47.49413" lon="6.74201">
        <ele>383.8</ele>
        <time>2014-06-01T08:13:36.000Z</time>
      </trkpt>
      <trkpt lat="47.49415" lon="6.74192">
        <ele>381</ele>
        <time>2014-06-01T08:13:37.000Z</time>
      </trkpt>
      <trkpt lat="47.49415" lon="6.74184">
        <ele>379.4</ele>
        <time>2014-06-01T08:13:38.000Z</time>
      </trkpt>
      <trkpt lat="47.49416" lon="6.74177">
        <ele>378.1</ele>
        <time>2014-06-01T08:13:39.000Z</time>
      </trkpt>
      <trkpt lat="47.49416" lon="6.74171">
        <ele>377.6</ele>
        <time>2014-06-01T08:13:40.000Z</time>
      </trkpt>
      <trkpt lat="47.49416" lon="6.7417">
        <ele>382.6</ele>
        <time>2014-06-01T08:13:41.000Z</time>
      </trkpt>
      <trkpt lat="47.49416" lon="6.74163">
        <ele>382.6</ele>
        <time>2014-06-01T08:13:42.000Z</time>
      </trkpt>
      <trkpt lat="47.49416" lon="6.74157">
        <ele>384</ele>
        <time>2014-06-01T08:13:43.000Z</time>
      </trkpt>
      <trkpt lat="47.49414" lon="6.74153">
        <ele>383.2</ele>
        <time>2014-06-01T08:13:44.000Z</time>
      </trkpt>
      <trkpt lat="47.49413" lon="6.74147">
        <ele>382.9</ele>
        <time>2014-06-01T08:13:45.000Z</time>
      </trkpt>
      <trkpt lat="47.49413" lon="6.74141">
        <ele>388.3</ele>
        <time>2014-06-01T08:13:47.000Z</time>
      </trkpt>
      <trkpt lat="47.49413" lon="6.74138">
        <ele>388.3</ele>
        <time>2014-06-01T08:13:48.000Z</time>
      </trkpt>
      <trkpt lat="47.49414" lon="6.74132">
        <ele>388</ele>
        <time>2014-06-01T08:13:50.000Z</time>
      </trkpt>
      <trkpt lat="47.49414" lon="6.74129">
        <ele>388.3</ele>
        <time>2014-06-01T08:13:51.000Z</time>
      </trkpt>
      <trkpt lat="47.49414" lon="6.74125">
        <ele>389</ele>
        <time>2014-06-01T08:13:52.000Z</time>
      </trkpt>
      <trkpt lat="47.49414" lon="6.74121">
        <ele>388.9</ele>
        <time>2014-06-01T08:13:53.000Z</time>
      </trkpt>
      <trkpt lat="47.49413" lon="6.74117">
        <ele>388.8</ele>
        <time>2014-06-01T08:13:54.000Z</time>
      </trkpt>
      <trkpt lat="47.49412" lon="6.74113">
        <ele>387.5</ele>
        <time>2014-06-01T08:13:55.000Z</time>
      </trkpt>
      <trkpt lat="47.49411" lon="6.74109">
        <ele>386.6</ele>
        <time>2014-06-01T08:13:56.000Z</time>
      </trkpt>
      <trkpt lat="47.4941" lon="6.74105">
        <ele>386.3</ele>
        <time>2014-06-01T08:13:57.000Z</time>
      </trkpt>
      <trkpt lat="47.49406" lon="6.74096">
        <ele>383.3</ele>
        <time>2014-06-01T08:14:00.000Z</time>
      </trkpt>
      <trkpt lat="47.49406" lon="6.74091">
        <ele>382.8</ele>
        <time>2014-06-01T08:14:02.000Z</time>
      </trkpt>
      <trkpt lat="47.49406" lon="6.74088">
        <ele>382.6</ele>
        <time>2014-06-01T08:14:03.000Z</time>
      </trkpt>
      <trkpt lat="47.49405" lon="6.74083">
        <ele>383.2</ele>
        <time>2014-06-01T08:14:05.000Z</time>
      </trkpt>
      <trkpt lat="47.49405" lon="6.7408">
        <ele>383.3</ele>
        <time>2014-06-01T08:14:06.000Z</time>
      </trkpt>
      <trkpt lat="47.49406" lon="6.74076">
        <ele>383.6</ele>
        <time>2014-06-01T08:14:07.000Z</time>
      </trkpt>
      <trkpt lat="47.49407" lon="6.74072">
        <ele>387.8</ele>
        <time>2014-06-01T08:14:08.000Z</time>
      </trkpt>
      <trkpt lat="47.49408" lon="6.74067">
        <ele>383.9</ele>
        <time>2014-06-01T08:14:09.000Z</time>
      </trkpt>
      <trkpt lat="47.4941" lon="6.74061">
        <ele>384.4</ele>
        <time>2014-06-01T08:14:10.000Z</time>
      </trkpt>
      <trkpt lat="47.49412" lon="6.74056">
        <ele>384.7</ele>
        <time>2014-06-01T08:14:11.000Z</time>
      </trkpt>
      <trkpt lat="47.49413" lon="6.74051">
        <ele>386.6</ele>
        <time>2014-06-01T08:14:12.000Z</time>
      </trkpt>
      <trkpt lat="47.49415" lon="6.74045">
        <ele>386.9</ele>
        <time>2014-06-01T08:14:13.000Z</time>
      </trkpt>
      <trkpt lat="47.49416" lon="6.74039">
        <ele>387.4</ele>
        <time>2014-06-01T08:14:14.000Z</time>
      </trkpt>
      <trkpt lat="47.49417" lon="6.74032">
        <ele>387.9</ele>
        <time>2014-06-01T08:14:15.000Z</time>
      </trkpt>
      <trkpt lat="47.49418" lon="6.74026">
        <ele>391.1</ele>
        <time>2014-06-01T08:14:16.000Z</time>
      </trkpt>
      <trkpt lat="47.49418" lon="6.7402">
        <ele>389.8</ele>
        <time>2014-06-01T08:14:17.000Z</time>
      </trkpt>
      <trkpt lat="47.49418" lon="6.74016">
        <ele>389.5</ele>
        <time>2014-06-01T08:14:18.000Z</time>
      </trkpt>
      <trkpt lat="47.49418" lon="6.74013">
        <ele>391.3</ele>
        <time>2014-06-01T08:14:19.000Z</time>
      </trkpt>
      <trkpt lat="47.49419" lon="6.74008">
        <ele>394.9</ele>
        <time>2014-06-01T08:14:21.000Z</time>
      </trkpt>
      <trkpt lat="47.49419" lon="6.74004">
        <ele>394.7</ele>
        <time>2014-06-01T08:14:22.000Z</time>
      </trkpt>
      <trkpt lat="47.49419" lon="6.74001">
        <ele>395.7</ele>
        <time>2014-06-01T08:14:23.000Z</time>
      </trkpt>
      <trkpt lat="47.4942" lon="6.73998">
        <ele>394</ele>
        <time>2014-06-01T08:14:24.000Z</time>
      </trkpt>
      <trkpt lat="47.49419" lon="6.73994">
        <ele>392.9</ele>
        <time>2014-06-01T08:14:25.000Z</time>
      </trkpt>
      <trkpt lat="47.49419" lon="6.73991">
        <ele>394.5</ele>
        <time>2014-06-01T08:14:26.000Z</time>
      </trkpt>
      <trkpt lat="47.49419" lon="6.73986">
        <ele>395.8</ele>
        <time>2014-06-01T08:14:27.000Z</time>
      </trkpt>
      <trkpt lat="47.49419" lon="6.73981">
        <ele>393.3</ele>
        <time>2014-06-01T08:14:28.000Z</time>
      </trkpt>
      <trkpt lat="47.49419" lon="6.73976">
        <ele>393.2</ele>
        <time>2014-06-01T08:14:29.000Z</time>
      </trkpt>
      <trkpt lat="47.49419" lon="6.73971">
        <ele>392.7</ele>
        <time>2014-06-01T08:14:30.000Z</time>
      </trkpt>
      <trkpt lat="47.49419" lon="6.73966">
        <ele>395.7</ele>
        <time>2014-06-01T08:14:31.000Z</time>
      </trkpt>
      <trkpt lat="47.49419" lon="6.7396">
        <ele>395.3</ele>
        <time>2014-06-01T08:14:32.000Z</time>
      </trkpt>
      <trkpt lat="47.49418" lon="6.73955">
        <ele>396.9</ele>
        <time>2014-06-01T08:14:33.000Z</time>
      </trkpt>
      <trkpt lat="47.49419" lon="6.73949">
        <ele>398.2</ele>
        <time>2014-06-01T08:14:34.000Z</time>
      </trkpt>
      <trkpt lat="47.49419" lon="6.73943">
        <ele>398.7</ele>
        <time>2014-06-01T08:14:35.000Z</time>
      </trkpt>
      <trkpt lat="47.49419" lon="6.73935">
        <ele>397.9</ele>
        <time>2014-06-01T08:14:36.000Z</time>
      </trkpt>
      <trkpt lat="47.49419" lon="6.73929">
        <ele>400.1</ele>
        <time>2014-06-01T08:14:37.000Z</time>
      </trkpt>
      <trkpt lat="47.49419" lon="6.73924">
        <ele>400.1</ele>
        <time>2014-06-01T08:14:38.000Z</time>
      </trkpt>
      <trkpt lat="47.49419" lon="6.73919">
        <ele>399.5</ele>
        <time>2014-06-01T08:14:39.000Z</time>
      </trkpt>
      <trkpt lat="47.49418" lon="6.73915">
        <ele>398.9</ele>
        <time>2014-06-01T08:14:40.000Z</time>
      </trkpt>
      <trkpt lat="47.49418" lon="6.73911">
        <ele>398.7</ele>
        <time>2014-06-01T08:14:41.000Z</time>
      </trkpt>
      <trkpt lat="47.49417" lon="6.73906">
        <ele>398.5</ele>
        <time>2014-06-01T08:14:42.000Z</time>
      </trkpt>
      <trkpt lat="47.49417" lon="6.73901">
        <ele>402.1</ele>
        <time>2014-06-01T08:14:43.000Z</time>
      </trkpt>
      <trkpt lat="47.49417" lon="6.73896">
        <ele>402.7</ele>
        <time>2014-06-01T08:14:44.000Z</time>
      </trkpt>
      <trkpt lat="47.49418" lon="6.73891">
        <ele>404.4</ele>
        <time>2014-06-01T08:14:45.000Z</time>
      </trkpt>
      <trkpt lat="47.49418" lon="6.73886">
        <ele>406.8</ele>
        <time>2014-06-01T08:14:46.000Z</time>
      </trkpt>
      <trkpt lat="47.49419" lon="6.73881">
        <ele>408.6</ele>
        <time>2014-06-01T08:14:47.000Z</time>
      </trkpt>
      <trkpt lat="47.4942" lon="6.73876">
        <ele>410</ele>
        <time>2014-06-01T08:14:48.000Z</time>
      </trkpt>
      <trkpt lat="47.4942" lon="6.73871">
        <ele>410.3</ele>
        <time>2014-06-01T08:14:49.000Z</time>
      </trkpt>
      <trkpt lat="47.49419" lon="6.73867">
        <ele>409.7</ele>
        <time>2014-06-01T08:14:50.000Z</time>
      </trkpt>
      <trkpt lat="47.49419" lon="6.73862">
        <ele>408.3</ele>
        <time>2014-06-01T08:14:51.000Z</time>
      </trkpt>
      <trkpt lat="47.49419" lon="6.73856">
        <ele>411.5</ele>
        <time>2014-06-01T08:14:52.000Z</time>
      </trkpt>
      <trkpt lat="47.49419" lon="6.7385">
        <ele>411.4</ele>
        <time>2014-06-01T08:14:53.000Z</time>
      </trkpt>
      <trkpt lat="47.4942" lon="6.73843">
        <ele>411.4</ele>
        <time>2014-06-01T08:14:54.000Z</time>
      </trkpt>
      <trkpt lat="47.49421" lon="6.73837">
        <ele>411</ele>
        <time>2014-06-01T08:14:55.000Z</time>
      </trkpt>
      <trkpt lat="47.49422" lon="6.73832">
        <ele>410.8</ele>
        <time>2014-06-01T08:14:56.000Z</time>
      </trkpt>
      <trkpt lat="47.49424" lon="6.73827">
        <ele>413.7</ele>
        <time>2014-06-01T08:14:57.000Z</time>
      </trkpt>
      <trkpt lat="47.4943" lon="6.73811">
        <ele>412</ele>
        <time>2014-06-01T08:15:00.000Z</time>
      </trkpt>
      <trkpt lat="47.49437" lon="6.73797">
        <ele>412.4</ele>
        <time>2014-06-01T08:15:01.000Z</time>
      </trkpt>
      <trkpt lat="47.49443" lon="6.73791">
        <ele>414.5</ele>
        <time>2014-06-01T08:15:02.000Z</time>
      </trkpt>
      <trkpt lat="47.49446" lon="6.73783">
        <ele>413.5</ele>
        <time>2014-06-01T08:15:03.000Z</time>
      </trkpt>
      <trkpt lat="47.49449" lon="6.73778">
        <ele>414.1</ele>
        <time>2014-06-01T08:15:04.000Z</time>
      </trkpt>
      <trkpt lat="47.49452" lon="6.73771">
        <ele>413.5</ele>
        <time>2014-06-01T08:15:05.000Z</time>
      </trkpt>
      <trkpt lat="47.49456" lon="6.73765">
        <ele>413.3</ele>
        <time>2014-06-01T08:15:06.000Z</time>
      </trkpt>
      <trkpt lat="47.49458" lon="6.73759">
        <ele>412.6</ele>
        <time>2014-06-01T08:15:07.000Z</time>
      </trkpt>
      <trkpt lat="47.49461" lon="6.73752">
        <ele>411.4</ele>
        <time>2014-06-01T08:15:08.000Z</time>
      </trkpt>
      <trkpt lat="47.49464" lon="6.73746">
        <ele>410.4</ele>
        <time>2014-06-01T08:15:09.000Z</time>
      </trkpt>
      <trkpt lat="47.49467" lon="6.73739">
        <ele>409.4</ele>
        <time>2014-06-01T08:15:10.000Z</time>
      </trkpt>
      <trkpt lat="47.49469" lon="6.73733">
        <ele>409.4</ele>
        <time>2014-06-01T08:15:11.000Z</time>
      </trkpt>
      <trkpt lat="47.49472" lon="6.73725">
        <ele>408.9</ele>
        <time>2014-06-01T08:15:12.000Z</time>
      </trkpt>
      <trkpt lat="47.49474" lon="6.73719">
        <ele>409.2</ele>
        <time>2014-06-01T08:15:13.000Z</time>
      </trkpt>
      <trkpt lat="47.49477" lon="6.73712">
        <ele>408.2</ele>
        <time>2014-06-01T08:15:14.000Z</time>
      </trkpt>
      <trkpt lat="47.4948" lon="6.73704">
        <ele>407.3</ele>
        <time>2014-06-01T08:15:15.000Z</time>
      </trkpt>
      <trkpt lat="47.49482" lon="6.73697">
        <ele>406.5</ele>
        <time>2014-06-01T08:15:16.000Z</time>
      </trkpt>
      <trkpt lat="47.49485" lon="6.7369">
        <ele>406.1</ele>
        <time>2014-06-01T08:15:17.000Z</time>
      </trkpt>
      <trkpt lat="47.49487" lon="6.73684">
        <ele>406.2</ele>
        <time>2014-06-01T08:15:18.000Z</time>
      </trkpt>
      <trkpt lat="47.49489" lon="6.73677">
        <ele>406.2</ele>
        <time>2014-06-01T08:15:19.000Z</time>
      </trkpt>
      <trkpt lat="47.49492" lon="6.73672">
        <ele>406.2</ele>
        <time>2014-06-01T08:15:20.000Z</time>
      </trkpt>
      <trkpt lat="47.49495" lon="6.73667">
        <ele>404.9</ele>
        <time>2014-06-01T08:15:21.000Z</time>
      </trkpt>
      <trkpt lat="47.49498" lon="6.73661">
        <ele>404.5</ele>
        <time>2014-06-01T08:15:22.000Z</time>
      </trkpt>
      <trkpt lat="47.49502" lon="6.73655">
        <ele>403.8</ele>
        <time>2014-06-01T08:15:23.000Z</time>
      </trkpt>
      <trkpt lat="47.49505" lon="6.7365">
        <ele>401.8</ele>
        <time>2014-06-01T08:15:24.000Z</time>
      </trkpt>
      <trkpt lat="47.49507" lon="6.73645">
        <ele>400.1</ele>
        <time>2014-06-01T08:15:25.000Z</time>
      </trkpt>
      <trkpt lat="47.4951" lon="6.7364">
        <ele>398.9</ele>
        <time>2014-06-01T08:15:26.000Z</time>
      </trkpt>
      <trkpt lat="47.49514" lon="6.73636">
        <ele>397.5</ele>
        <time>2014-06-01T08:15:27.000Z</time>
      </trkpt>
      <trkpt lat="47.49517" lon="6.7363">
        <ele>395.8</ele>
        <time>2014-06-01T08:15:28.000Z</time>
      </trkpt>
      <trkpt lat="47.4952" lon="6.73626">
        <ele>394.5</ele>
        <time>2014-06-01T08:15:29.000Z</time>
      </trkpt>
      <trkpt lat="47.49523" lon="6.73621">
        <ele>393.2</ele>
        <time>2014-06-01T08:15:30.000Z</time>
      </trkpt>
      <trkpt lat="47.49527" lon="6.73617">
        <ele>393</ele>
        <time>2014-06-01T08:15:31.000Z</time>
      </trkpt>
      <trkpt lat="47.4953" lon="6.73613">
        <ele>392.4</ele>
        <time>2014-06-01T08:15:32.000Z</time>
      </trkpt>
      <trkpt lat="47.49534" lon="6.73608">
        <ele>392.2</ele>
        <time>2014-06-01T08:15:33.000Z</time>
      </trkpt>
      <trkpt lat="47.49538" lon="6.73604">
        <ele>392.3</ele>
        <time>2014-06-01T08:15:34.000Z</time>
      </trkpt>
      <trkpt lat="47.49542" lon="6.73599">
        <ele>392</ele>
        <time>2014-06-01T08:15:35.000Z</time>
      </trkpt>
      <trkpt lat="47.49546" lon="6.73594">
        <ele>391.9</ele>
        <time>2014-06-01T08:15:36.000Z</time>
      </trkpt>
      <trkpt lat="47.4955" lon="6.7359">
        <ele>391.8</ele>
        <time>2014-06-01T08:15:37.000Z</time>
      </trkpt>
      <trkpt lat="47.49554" lon="6.73586">
        <ele>390.4</ele>
        <time>2014-06-01T08:15:38.000Z</time>
      </trkpt>
      <trkpt lat="47.49558" lon="6.73581">
        <ele>388.3</ele>
        <time>2014-06-01T08:15:39.000Z</time>
      </trkpt>
      <trkpt lat="47.49562" lon="6.73577">
        <ele>387.5</ele>
        <time>2014-06-01T08:15:40.000Z</time>
      </trkpt>
      <trkpt lat="47.49566" lon="6.73572">
        <ele>386.5</ele>
        <time>2014-06-01T08:15:41.000Z</time>
      </trkpt>
      <trkpt lat="47.4957" lon="6.73568">
        <ele>384.4</ele>
        <time>2014-06-01T08:15:42.000Z</time>
      </trkpt>
      <trkpt lat="47.49574" lon="6.73564">
        <ele>383.7</ele>
        <time>2014-06-01T08:15:43.000Z</time>
      </trkpt>
      <trkpt lat="47.49578" lon="6.7356">
        <ele>382.6</ele>
        <time>2014-06-01T08:15:44.000Z</time>
      </trkpt>
      <trkpt lat="47.49582" lon="6.73556">
        <ele>381.6</ele>
        <time>2014-06-01T08:15:45.000Z</time>
      </trkpt>
      <trkpt lat="47.49586" lon="6.73552">
        <ele>381.1</ele>
        <time>2014-06-01T08:15:46.000Z</time>
      </trkpt>
      <trkpt lat="47.4959" lon="6.73548">
        <ele>380</ele>
        <time>2014-06-01T08:15:47.000Z</time>
      </trkpt>
      <trkpt lat="47.49593" lon="6.73544">
        <ele>378.9</ele>
        <time>2014-06-01T08:15:48.000Z</time>
      </trkpt>
      <trkpt lat="47.49597" lon="6.7354">
        <ele>378.5</ele>
        <time>2014-06-01T08:15:49.000Z</time>
      </trkpt>
      <trkpt lat="47.496" lon="6.73536">
        <ele>377.6</ele>
        <time>2014-06-01T08:15:50.000Z</time>
      </trkpt>
      <trkpt lat="47.49604" lon="6.73532">
        <ele>377.6</ele>
        <time>2014-06-01T08:15:51.000Z</time>
      </trkpt>
      <trkpt lat="47.49607" lon="6.73527">
        <ele>376.6</ele>
        <time>2014-06-01T08:15:52.000Z</time>
      </trkpt>
      <trkpt lat="47.4961" lon="6.73523">
        <ele>376.4</ele>
        <time>2014-06-01T08:15:53.000Z</time>
      </trkpt>
      <trkpt lat="47.49612" lon="6.73518">
        <ele>376</ele>
        <time>2014-06-01T08:15:54.000Z</time>
      </trkpt>
      <trkpt lat="47.49616" lon="6.73514">
        <ele>374.7</ele>
        <time>2014-06-01T08:15:55.000Z</time>
      </trkpt>
      <trkpt lat="47.49619" lon="6.7351">
        <ele>373.7</ele>
        <time>2014-06-01T08:15:56.000Z</time>
      </trkpt>
      <trkpt lat="47.49621" lon="6.73506">
        <ele>372.8</ele>
        <time>2014-06-01T08:15:57.000Z</time>
      </trkpt>
      <trkpt lat="47.49629" lon="6.73496">
        <ele>368.4</ele>
        <time>2014-06-01T08:16:00.000Z</time>
      </trkpt>
      <trkpt lat="47.49629" lon="6.7349">
        <ele>347.3</ele>
        <time>2014-06-01T08:16:20.000Z</time>
      </trkpt>
      <trkpt lat="47.49629" lon="6.73489">
        <ele>347.2</ele>
        <time>2014-06-01T08:16:21.000Z</time>
      </trkpt>
      <trkpt lat="47.49633" lon="6.73489">
        <ele>345.2</ele>
        <time>2014-06-01T08:17:16.000Z</time>
      </trkpt>
      <trkpt lat="47.49636" lon="6.73489">
        <ele>344.7</ele>
        <time>2014-06-01T08:17:17.000Z</time>
      </trkpt>
      <trkpt lat="47.49639" lon="6.73491">
        <ele>344.4</ele>
        <time>2014-06-01T08:17:18.000Z</time>
      </trkpt>
      <trkpt lat="47.49642" lon="6.73493">
        <ele>344.2</ele>
        <time>2014-06-01T08:17:19.000Z</time>
      </trkpt>
      <trkpt lat="47.49648" lon="6.735">
        <ele>344</ele>
        <time>2014-06-01T08:17:20.000Z</time>
      </trkpt>
      <trkpt lat="47.49653" lon="6.73505">
        <ele>343.8</ele>
        <time>2014-06-01T08:17:21.000Z</time>
      </trkpt>
      <trkpt lat="47.49658" lon="6.73509">
        <ele>343.7</ele>
        <time>2014-06-01T08:17:22.000Z</time>
      </trkpt>
      <trkpt lat="47.49663" lon="6.73513">
        <ele>343.4</ele>
        <time>2014-06-01T08:17:23.000Z</time>
      </trkpt>
      <trkpt lat="47.49667" lon="6.73517">
        <ele>342.9</ele>
        <time>2014-06-01T08:17:24.000Z</time>
      </trkpt>
      <trkpt lat="47.49673" lon="6.73522">
        <ele>342.8</ele>
        <time>2014-06-01T08:17:25.000Z</time>
      </trkpt>
      <trkpt lat="47.49677" lon="6.73527">
        <ele>342.6</ele>
        <time>2014-06-01T08:17:26.000Z</time>
      </trkpt>
      <trkpt lat="47.49682" lon="6.73531">
        <ele>342.3</ele>
        <time>2014-06-01T08:17:27.000Z</time>
      </trkpt>
      <trkpt lat="47.49687" lon="6.73536">
        <ele>342.5</ele>
        <time>2014-06-01T08:17:28.000Z</time>
      </trkpt>
      <trkpt lat="47.49691" lon="6.7354">
        <ele>342.4</ele>
        <time>2014-06-01T08:17:29.000Z</time>
      </trkpt>
      <trkpt lat="47.49696" lon="6.73546">
        <ele>342.1</ele>
        <time>2014-06-01T08:17:30.000Z</time>
      </trkpt>
      <trkpt lat="47.49701" lon="6.73551">
        <ele>341.9</ele>
        <time>2014-06-01T08:17:31.000Z</time>
      </trkpt>
      <trkpt lat="47.49706" lon="6.73555">
        <ele>341.8</ele>
        <time>2014-06-01T08:17:32.000Z</time>
      </trkpt>
      <trkpt lat="47.49711" lon="6.7356">
        <ele>341.6</ele>
        <time>2014-06-01T08:17:33.000Z</time>
      </trkpt>
      <trkpt lat="47.49716" lon="6.73564">
        <ele>341.1</ele>
        <time>2014-06-01T08:17:34.000Z</time>
      </trkpt>
      <trkpt lat="47.49721" lon="6.73569">
        <ele>340.8</ele>
        <time>2014-06-01T08:17:35.000Z</time>
      </trkpt>
      <trkpt lat="47.49726" lon="6.73574">
        <ele>340.5</ele>
        <time>2014-06-01T08:17:36.000Z</time>
      </trkpt>
      <trkpt lat="47.49731" lon="6.73579">
        <ele>340.7</ele>
        <time>2014-06-01T08:17:37.000Z</time>
      </trkpt>
      <trkpt lat="47.49735" lon="6.73583">
        <ele>340.3</ele>
        <time>2014-06-01T08:17:38.000Z</time>
      </trkpt>
      <trkpt lat="47.4974" lon="6.73588">
        <ele>340.1</ele>
        <time>2014-06-01T08:17:39.000Z</time>
      </trkpt>
      <trkpt lat="47.49745" lon="6.73593">
        <ele>339.9</ele>
        <time>2014-06-01T08:17:40.000Z</time>
      </trkpt>
      <trkpt lat="47.4975" lon="6.73598">
        <ele>339.9</ele>
        <time>2014-06-01T08:17:41.000Z</time>
      </trkpt>
      <trkpt lat="47.49755" lon="6.73603">
        <ele>339.6</ele>
        <time>2014-06-01T08:17:42.000Z</time>
      </trkpt>
      <trkpt lat="47.49759" lon="6.73608">
        <ele>339.6</ele>
        <time>2014-06-01T08:17:43.000Z</time>
      </trkpt>
      <trkpt lat="47.49763" lon="6.73612">
        <ele>340.1</ele>
        <time>2014-06-01T08:17:44.000Z</time>
      </trkpt>
      <trkpt lat="47.49768" lon="6.73616">
        <ele>340.8</ele>
        <time>2014-06-01T08:17:45.000Z</time>
      </trkpt>
      <trkpt lat="47.49772" lon="6.73621">
        <ele>341</ele>
        <time>2014-06-01T08:17:46.000Z</time>
      </trkpt>
      <trkpt lat="47.49775" lon="6.73626">
        <ele>341.1</ele>
        <time>2014-06-01T08:17:47.000Z</time>
      </trkpt>
      <trkpt lat="47.49778" lon="6.73632">
        <ele>341.6</ele>
        <time>2014-06-01T08:17:48.000Z</time>
      </trkpt>
      <trkpt lat="47.49781" lon="6.73637">
        <ele>341.8</ele>
        <time>2014-06-01T08:17:49.000Z</time>
      </trkpt>
      <trkpt lat="47.49784" lon="6.73643">
        <ele>341.8</ele>
        <time>2014-06-01T08:17:50.000Z</time>
      </trkpt>
      <trkpt lat="47.49787" lon="6.73647">
        <ele>342</ele>
        <time>2014-06-01T08:17:51.000Z</time>
      </trkpt>
      <trkpt lat="47.4979" lon="6.73651">
        <ele>342.2</ele>
        <time>2014-06-01T08:17:52.000Z</time>
      </trkpt>
      <trkpt lat="47.49793" lon="6.73654">
        <ele>342.6</ele>
        <time>2014-06-01T08:17:53.000Z</time>
      </trkpt>
      <trkpt lat="47.49796" lon="6.73658">
        <ele>342.7</ele>
        <time>2014-06-01T08:17:54.000Z</time>
      </trkpt>
      <trkpt lat="47.49798" lon="6.7366">
        <ele>343.4</ele>
        <time>2014-06-01T08:17:55.000Z</time>
      </trkpt>
      <trkpt lat="47.498" lon="6.73662">
        <ele>343.6</ele>
        <time>2014-06-01T08:17:56.000Z</time>
      </trkpt>
      <trkpt lat="47.49802" lon="6.73664">
        <ele>343.6</ele>
        <time>2014-06-01T08:17:57.000Z</time>
      </trkpt>
      <trkpt lat="47.49808" lon="6.73669">
        <ele>343.8</ele>
        <time>2014-06-01T08:18:00.000Z</time>
      </trkpt>
      <trkpt lat="47.49816" lon="6.73672">
        <ele>342.9</ele>
        <time>2014-06-01T08:18:01.000Z</time>
      </trkpt>
      <trkpt lat="47.4982" lon="6.73675">
        <ele>342.8</ele>
        <time>2014-06-01T08:18:02.000Z</time>
      </trkpt>
      <trkpt lat="47.49825" lon="6.73679">
        <ele>342.5</ele>
        <time>2014-06-01T08:18:03.000Z</time>
      </trkpt>
      <trkpt lat="47.4983" lon="6.73682">
        <ele>343</ele>
        <time>2014-06-01T08:18:04.000Z</time>
      </trkpt>
      <trkpt lat="47.49835" lon="6.73686">
        <ele>343.2</ele>
        <time>2014-06-01T08:18:05.000Z</time>
      </trkpt>
      <trkpt lat="47.49839" lon="6.73689">
        <ele>343</ele>
        <time>2014-06-01T08:18:06.000Z</time>
      </trkpt>
      <trkpt lat="47.49844" lon="6.73693">
        <ele>343.4</ele>
        <time>2014-06-01T08:18:07.000Z</time>
      </trkpt>
      <trkpt lat="47.49848" lon="6.73696">
        <ele>343.5</ele>
        <time>2014-06-01T08:18:08.000Z</time>
      </trkpt>
      <trkpt lat="47.49853" lon="6.73699">
        <ele>343.6</ele>
        <time>2014-06-01T08:18:09.000Z</time>
      </trkpt>
      <trkpt lat="47.49857" lon="6.73703">
        <ele>343.6</ele>
        <time>2014-06-01T08:18:10.000Z</time>
      </trkpt>
      <trkpt lat="47.49861" lon="6.73707">
        <ele>343.8</ele>
        <time>2014-06-01T08:18:11.000Z</time>
      </trkpt>
      <trkpt lat="47.49866" lon="6.7371">
        <ele>343.9</ele>
        <time>2014-06-01T08:18:12.000Z</time>
      </trkpt>
      <trkpt lat="47.4987" lon="6.73714">
        <ele>344.4</ele>
        <time>2014-06-01T08:18:13.000Z</time>
      </trkpt>
      <trkpt lat="47.49874" lon="6.73717">
        <ele>344</ele>
        <time>2014-06-01T08:18:14.000Z</time>
      </trkpt>
      <trkpt lat="47.49878" lon="6.7372">
        <ele>344.3</ele>
        <time>2014-06-01T08:18:15.000Z</time>
      </trkpt>
      <trkpt lat="47.49883" lon="6.73724">
        <ele>344.3</ele>
        <time>2014-06-01T08:18:16.000Z</time>
      </trkpt>
      <trkpt lat="47.49887" lon="6.73727">
        <ele>344.5</ele>
        <time>2014-06-01T08:18:17.000Z</time>
      </trkpt>
      <trkpt lat="47.49891" lon="6.7373">
        <ele>344.5</ele>
        <time>2014-06-01T08:18:18.000Z</time>
      </trkpt>
      <trkpt lat="47.49895" lon="6.73733">
        <ele>344.5</ele>
        <time>2014-06-01T08:18:19.000Z</time>
      </trkpt>
      <trkpt lat="47.49899" lon="6.73736">
        <ele>344.9</ele>
        <time>2014-06-01T08:18:20.000Z</time>
      </trkpt>
      <trkpt lat="47.49903" lon="6.73739">
        <ele>344.9</ele>
        <time>2014-06-01T08:18:21.000Z</time>
      </trkpt>
      <trkpt lat="47.49907" lon="6.73742">
        <ele>344.8</ele>
        <time>2014-06-01T08:18:22.000Z</time>
      </trkpt>
      <trkpt lat="47.49912" lon="6.73745">
        <ele>344.6</ele>
        <time>2014-06-01T08:18:23.000Z</time>
      </trkpt>
      <trkpt lat="47.49916" lon="6.73749">
        <ele>344.7</ele>
        <time>2014-06-01T08:18:24.000Z</time>
      </trkpt>
      <trkpt lat="47.4992" lon="6.73752">
        <ele>344.6</ele>
        <time>2014-06-01T08:18:25.000Z</time>
      </trkpt>
      <trkpt lat="47.49924" lon="6.73755">
        <ele>344.9</ele>
        <time>2014-06-01T08:18:26.000Z</time>
      </trkpt>
      <trkpt lat="47.49928" lon="6.73758">
        <ele>344.8</ele>
        <time>2014-06-01T08:18:27.000Z</time>
      </trkpt>
      <trkpt lat="47.49932" lon="6.73761">
        <ele>344.8</ele>
        <time>2014-06-01T08:18:28.000Z</time>
      </trkpt>
      <trkpt lat="47.49935" lon="6.73764">
        <ele>345</ele>
        <time>2014-06-01T08:18:29.000Z</time>
      </trkpt>
      <trkpt lat="47.49939" lon="6.73767">
        <ele>345.2</ele>
        <time>2014-06-01T08:18:30.000Z</time>
      </trkpt>
      <trkpt lat="47.49942" lon="6.7377">
        <ele>345.4</ele>
        <time>2014-06-01T08:18:31.000Z</time>
      </trkpt>
      <trkpt lat="47.49946" lon="6.73773">
        <ele>345.5</ele>
        <time>2014-06-01T08:18:32.000Z</time>
      </trkpt>
      <trkpt lat="47.4995" lon="6.73775">
        <ele>345.5</ele>
        <time>2014-06-01T08:18:33.000Z</time>
      </trkpt>
      <trkpt lat="47.49954" lon="6.73778">
        <ele>345.5</ele>
        <time>2014-06-01T08:18:34.000Z</time>
      </trkpt>
      <trkpt lat="47.49957" lon="6.73781">
        <ele>345.8</ele>
        <time>2014-06-01T08:18:35.000Z</time>
      </trkpt>
      <trkpt lat="47.49961" lon="6.73783">
        <ele>345.6</ele>
        <time>2014-06-01T08:18:36.000Z</time>
      </trkpt>
      <trkpt lat="47.49964" lon="6.73786">
        <ele>345.9</ele>
        <time>2014-06-01T08:18:37.000Z</time>
      </trkpt>
      <trkpt lat="47.49968" lon="6.73789">
        <ele>346.1</ele>
        <time>2014-06-01T08:18:38.000Z</time>
      </trkpt>
      <trkpt lat="47.49971" lon="6.73792">
        <ele>346.3</ele>
        <time>2014-06-01T08:18:39.000Z</time>
      </trkpt>
      <trkpt lat="47.49975" lon="6.73794">
        <ele>346.4</ele>
        <time>2014-06-01T08:18:40.000Z</time>
      </trkpt>
      <trkpt lat="47.49978" lon="6.73796">
        <ele>346.6</ele>
        <time>2014-06-01T08:18:41.000Z</time>
      </trkpt>
      <trkpt lat="47.49981" lon="6.73799">
        <ele>346.7</ele>
        <time>2014-06-01T08:18:42.000Z</time>
      </trkpt>
      <trkpt lat="47.49984" lon="6.73801">
        <ele>346.7</ele>
        <time>2014-06-01T08:18:43.000Z</time>
      </trkpt>
      <trkpt lat="47.49988" lon="6.73804">
        <ele>346.8</ele>
        <time>2014-06-01T08:18:44.000Z</time>
      </trkpt>
      <trkpt lat="47.49991" lon="6.73807">
        <ele>347.3</ele>
        <time>2014-06-01T08:18:45.000Z</time>
      </trkpt>
      <trkpt lat="47.49994" lon="6.7381">
        <ele>347.5</ele>
        <time>2014-06-01T08:18:46.000Z</time>
      </trkpt>
      <trkpt lat="47.49997" lon="6.73813">
        <ele>347.6</ele>
        <time>2014-06-01T08:18:47.000Z</time>
      </trkpt>
      <trkpt lat="47.5" lon="6.73816">
        <ele>347.9</ele>
        <time>2014-06-01T08:18:48.000Z</time>
      </trkpt>
      <trkpt lat="47.50003" lon="6.73818">
        <ele>348.2</ele>
        <time>2014-06-01T08:18:49.000Z</time>
      </trkpt>
      <trkpt lat="47.50007" lon="6.73821">
        <ele>348.3</ele>
        <time>2014-06-01T08:18:50.000Z</time>
      </trkpt>
      <trkpt lat="47.5001" lon="6.73823">
        <ele>348.7</ele>
        <time>2014-06-01T08:18:51.000Z</time>
      </trkpt>
      <trkpt lat="47.50013" lon="6.73826">
        <ele>349.3</ele>
        <time>2014-06-01T08:18:52.000Z</time>
      </trkpt>
      <trkpt lat="47.50016" lon="6.73828">
        <ele>349.6</ele>
        <time>2014-06-01T08:18:53.000Z</time>
      </trkpt>
      <trkpt lat="47.50019" lon="6.7383">
        <ele>349.9</ele>
        <time>2014-06-01T08:18:54.000Z</time>
      </trkpt>
      <trkpt lat="47.50022" lon="6.73833">
        <ele>349.3</ele>
        <time>2014-06-01T08:18:55.000Z</time>
      </trkpt>
      <trkpt lat="47.50025" lon="6.73835">
        <ele>350.1</ele>
        <time>2014-06-01T08:18:56.000Z</time>
      </trkpt>
      <trkpt lat="47.50029" lon="6.73837">
        <ele>351.3</ele>
        <time>2014-06-01T08:18:57.000Z</time>
      </trkpt>
      <trkpt lat="47.50038" lon="6.73843">
        <ele>353.3</ele>
        <time>2014-06-01T08:19:00.000Z</time>
      </trkpt>
      <trkpt lat="47.50041" lon="6.73845">
        <ele>353.2</ele>
        <time>2014-06-01T08:19:01.000Z</time>
      </trkpt>
      <trkpt lat="47.50045" lon="6.73847">
        <ele>354.1</ele>
        <time>2014-06-01T08:19:02.000Z</time>
      </trkpt>
      <trkpt lat="47.50048" lon="6.73849">
        <ele>353.8</ele>
        <time>2014-06-01T08:19:03.000Z</time>
      </trkpt>
      <trkpt lat="47.50052" lon="6.73852">
        <ele>354.7</ele>
        <time>2014-06-01T08:19:04.000Z</time>
      </trkpt>
      <trkpt lat="47.50055" lon="6.73854">
        <ele>354.8</ele>
        <time>2014-06-01T08:19:05.000Z</time>
      </trkpt>
      <trkpt lat="47.50058" lon="6.73856">
        <ele>354.9</ele>
        <time>2014-06-01T08:19:06.000Z</time>
      </trkpt>
      <trkpt lat="47.50061" lon="6.73857">
        <ele>355</ele>
        <time>2014-06-01T08:19:07.000Z</time>
      </trkpt>
      <trkpt lat="47.50065" lon="6.73858">
        <ele>355.6</ele>
        <time>2014-06-01T08:19:08.000Z</time>
      </trkpt>
      <trkpt lat="47.50068" lon="6.73859">
        <ele>355.7</ele>
        <time>2014-06-01T08:19:09.000Z</time>
      </trkpt>
      <trkpt lat="47.5007" lon="6.73859">
        <ele>355.5</ele>
        <time>2014-06-01T08:19:10.000Z</time>
      </trkpt>
      <trkpt lat="47.50073" lon="6.73856">
        <ele>356.9</ele>
        <time>2014-06-01T08:19:12.000Z</time>
      </trkpt>
      <trkpt lat="47.50074" lon="6.73852">
        <ele>357.7</ele>
        <time>2014-06-01T08:19:13.000Z</time>
      </trkpt>
      <trkpt lat="47.50075" lon="6.73847">
        <ele>359.2</ele>
        <time>2014-06-01T08:19:14.000Z</time>
      </trkpt>
      <trkpt lat="47.50074" lon="6.73841">
        <ele>360.6</ele>
        <time>2014-06-01T08:19:15.000Z</time>
      </trkpt>
      <trkpt lat="47.50074" lon="6.73836">
        <ele>361.5</ele>
        <time>2014-06-01T08:19:16.000Z</time>
      </trkpt>
      <trkpt lat="47.50073" lon="6.7383">
        <ele>361.8</ele>
        <time>2014-06-01T08:19:17.000Z</time>
      </trkpt>
      <trkpt lat="47.50071" lon="6.73824">
        <ele>360.7</ele>
        <time>2014-06-01T08:19:18.000Z</time>
      </trkpt>
      <trkpt lat="47.5007" lon="6.73818">
        <ele>360.7</ele>
        <time>2014-06-01T08:19:19.000Z</time>
      </trkpt>
      <trkpt lat="47.50069" lon="6.73812">
        <ele>360.4</ele>
        <time>2014-06-01T08:19:20.000Z</time>
      </trkpt>
      <trkpt lat="47.50067" lon="6.73805">
        <ele>360.6</ele>
        <time>2014-06-01T08:19:21.000Z</time>
      </trkpt>
      <trkpt lat="47.50066" lon="6.73798">
        <ele>360.8</ele>
        <time>2014-06-01T08:19:22.000Z</time>
      </trkpt>
      <trkpt lat="47.50065" lon="6.73792">
        <ele>360.1</ele>
        <time>2014-06-01T08:19:23.000Z</time>
      </trkpt>
      <trkpt lat="47.50065" lon="6.73786">
        <ele>360.9</ele>
        <time>2014-06-01T08:19:24.000Z</time>
      </trkpt>
      <trkpt lat="47.50064" lon="6.7378">
        <ele>361.4</ele>
        <time>2014-06-01T08:19:25.000Z</time>
      </trkpt>
      <trkpt lat="47.50063" lon="6.73773">
        <ele>361.5</ele>
        <time>2014-06-01T08:19:26.000Z</time>
      </trkpt>
      <trkpt lat="47.50062" lon="6.73763">
        <ele>361.8</ele>
        <time>2014-06-01T08:19:27.000Z</time>
      </trkpt>
      <trkpt lat="47.50061" lon="6.73755">
        <ele>361.7</ele>
        <time>2014-06-01T08:19:28.000Z</time>
      </trkpt>
      <trkpt lat="47.50061" lon="6.73749">
        <ele>362</ele>
        <time>2014-06-01T08:19:29.000Z</time>
      </trkpt>
      <trkpt lat="47.5006" lon="6.73741">
        <ele>362.4</ele>
        <time>2014-06-01T08:19:30.000Z</time>
      </trkpt>
      <trkpt lat="47.5006" lon="6.73733">
        <ele>362.8</ele>
        <time>2014-06-01T08:19:31.000Z</time>
      </trkpt>
      <trkpt lat="47.50059" lon="6.73726">
        <ele>362.6</ele>
        <time>2014-06-01T08:19:32.000Z</time>
      </trkpt>
      <trkpt lat="47.50059" lon="6.73719">
        <ele>362.3</ele>
        <time>2014-06-01T08:19:33.000Z</time>
      </trkpt>
      <trkpt lat="47.50058" lon="6.73712">
        <ele>361.5</ele>
        <time>2014-06-01T08:19:34.000Z</time>
      </trkpt>
      <trkpt lat="47.50058" lon="6.73705">
        <ele>361.8</ele>
        <time>2014-06-01T08:19:35.000Z</time>
      </trkpt>
      <trkpt lat="47.50059" lon="6.73698">
        <ele>361.7</ele>
        <time>2014-06-01T08:19:36.000Z</time>
      </trkpt>
      <trkpt lat="47.50059" lon="6.73691">
        <ele>361.5</ele>
        <time>2014-06-01T08:19:37.000Z</time>
      </trkpt>
      <trkpt lat="47.5006" lon="6.73684">
        <ele>361.6</ele>
        <time>2014-06-01T08:19:38.000Z</time>
      </trkpt>
      <trkpt lat="47.5006" lon="6.73677">
        <ele>361.5</ele>
        <time>2014-06-01T08:19:39.000Z</time>
      </trkpt>
      <trkpt lat="47.5006" lon="6.73671">
        <ele>361.3</ele>
        <time>2014-06-01T08:19:40.000Z</time>
      </trkpt>
      <trkpt lat="47.5006" lon="6.73664">
        <ele>361.1</ele>
        <time>2014-06-01T08:19:41.000Z</time>
      </trkpt>
      <trkpt lat="47.5006" lon="6.73657">
        <ele>361.1</ele>
        <time>2014-06-01T08:19:42.000Z</time>
      </trkpt>
      <trkpt lat="47.50061" lon="6.73649">
        <ele>361.2</ele>
        <time>2014-06-01T08:19:43.000Z</time>
      </trkpt>
      <trkpt lat="47.50061" lon="6.73641">
        <ele>360.7</ele>
        <time>2014-06-01T08:19:44.000Z</time>
      </trkpt>
      <trkpt lat="47.50061" lon="6.73633">
        <ele>360.7</ele>
        <time>2014-06-01T08:19:45.000Z</time>
      </trkpt>
      <trkpt lat="47.50061" lon="6.73625">
        <ele>361.5</ele>
        <time>2014-06-01T08:19:46.000Z</time>
      </trkpt>
      <trkpt lat="47.50062" lon="6.73616">
        <ele>361.8</ele>
        <time>2014-06-01T08:19:47.000Z</time>
      </trkpt>
      <trkpt lat="47.50062" lon="6.73607">
        <ele>360.9</ele>
        <time>2014-06-01T08:19:48.000Z</time>
      </trkpt>
      <trkpt lat="47.50063" lon="6.73598">
        <ele>360</ele>
        <time>2014-06-01T08:19:49.000Z</time>
      </trkpt>
      <trkpt lat="47.50063" lon="6.73588">
        <ele>358.6</ele>
        <time>2014-06-01T08:19:50.000Z</time>
      </trkpt>
      <trkpt lat="47.50063" lon="6.73578">
        <ele>357.7</ele>
        <time>2014-06-01T08:19:51.000Z</time>
      </trkpt>
      <trkpt lat="47.50064" lon="6.73569">
        <ele>357.4</ele>
        <time>2014-06-01T08:19:52.000Z</time>
      </trkpt>
      <trkpt lat="47.50065" lon="6.73559">
        <ele>357.1</ele>
        <time>2014-06-01T08:19:53.000Z</time>
      </trkpt>
      <trkpt lat="47.50066" lon="6.7355">
        <ele>357.1</ele>
        <time>2014-06-01T08:19:54.000Z</time>
      </trkpt>
      <trkpt lat="47.50066" lon="6.73541">
        <ele>357.1</ele>
        <time>2014-06-01T08:19:55.000Z</time>
      </trkpt>
      <trkpt lat="47.50068" lon="6.73532">
        <ele>356.6</ele>
        <time>2014-06-01T08:19:56.000Z</time>
      </trkpt>
      <trkpt lat="47.50069" lon="6.73522">
        <ele>356.5</ele>
        <time>2014-06-01T08:19:57.000Z</time>
      </trkpt>
      <trkpt lat="47.50071" lon="6.73498">
        <ele>356.8</ele>
        <time>2014-06-01T08:20:00.000Z</time>
      </trkpt>
      <trkpt lat="47.50074" lon="6.7349">
        <ele>357.5</ele>
        <time>2014-06-01T08:20:01.000Z</time>
      </trkpt>
      <trkpt lat="47.50077" lon="6.73482">
        <ele>356.6</ele>
        <time>2014-06-01T08:20:02.000Z</time>
      </trkpt>
      <trkpt lat="47.50078" lon="6.73474">
        <ele>357.3</ele>
        <time>2014-06-01T08:20:03.000Z</time>
      </trkpt>
      <trkpt lat="47.5008" lon="6.73467">
        <ele>357.5</ele>
        <time>2014-06-01T08:20:04.001Z</time>
      </trkpt>
      <trkpt lat="47.50082" lon="6.73461">
        <ele>357.1</ele>
        <time>2014-06-01T08:20:05.000Z</time>
      </trkpt>
      <trkpt lat="47.50083" lon="6.73456">
        <ele>356.9</ele>
        <time>2014-06-01T08:20:06.000Z</time>
      </trkpt>
      <trkpt lat="47.50084" lon="6.73453">
        <ele>356.7</ele>
        <time>2014-06-01T08:20:07.000Z</time>
      </trkpt>
      <trkpt lat="47.50085" lon="6.73447">
        <ele>357.9</ele>
        <time>2014-06-01T08:20:30.000Z</time>
      </trkpt>
      <trkpt lat="47.50085" lon="6.73447">
        <ele>358.2</ele>
        <time>2014-06-01T08:20:31.000Z</time>
      </trkpt>
      <trkpt lat="47.50088" lon="6.73442">
        <ele>357.7</ele>
        <time>2014-06-01T08:22:56.000Z</time>
      </trkpt>
      <trkpt lat="47.50088" lon="6.73441">
        <ele>357.3</ele>
        <time>2014-06-01T08:22:57.000Z</time>
      </trkpt>
      <trkpt lat="47.50089" lon="6.73434">
        <ele>356.3</ele>
        <time>2014-06-01T08:23:32.000Z</time>
      </trkpt>
      <trkpt lat="47.50089" lon="6.73434">
        <ele>356.4</ele>
        <time>2014-06-01T08:23:33.000Z</time>
      </trkpt>
      <trkpt lat="47.50089" lon="6.73431">
        <ele>356.2</ele>
        <time>2014-06-01T08:30:57.000Z</time>
      </trkpt>
      <trkpt lat="47.5009" lon="6.73427">
        <ele>357.2</ele>
        <time>2014-06-01T08:31:00.000Z</time>
      </trkpt>
      <trkpt lat="47.50092" lon="6.73423">
        <ele>355.7</ele>
        <time>2014-06-01T08:31:03.000Z</time>
      </trkpt>
      <trkpt lat="47.50093" lon="6.73422">
        <ele>356.1</ele>
        <time>2014-06-01T08:31:04.000Z</time>
      </trkpt>
      <trkpt lat="47.50095" lon="6.73418">
        <ele>356.5</ele>
        <time>2014-06-01T08:31:06.000Z</time>
      </trkpt>
      <trkpt lat="47.50096" lon="6.73416">
        <ele>356.4</ele>
        <time>2014-06-01T08:31:07.000Z</time>
      </trkpt>
      <trkpt lat="47.50098" lon="6.7341">
        <ele>356.6</ele>
        <time>2014-06-01T08:31:09.000Z</time>
      </trkpt>
      <trkpt lat="47.50098" lon="6.73408">
        <ele>356.6</ele>
        <time>2014-06-01T08:31:10.000Z</time>
      </trkpt>
      <trkpt lat="47.501" lon="6.73403">
        <ele>357.1</ele>
        <time>2014-06-01T08:31:12.000Z</time>
      </trkpt>
      <trkpt lat="47.501" lon="6.73401">
        <ele>356.9</ele>
        <time>2014-06-01T08:31:13.000Z</time>
      </trkpt>
      <trkpt lat="47.50102" lon="6.73396">
        <ele>357.2</ele>
        <time>2014-06-01T08:31:15.000Z</time>
      </trkpt>
      <trkpt lat="47.50102" lon="6.73393">
        <ele>357.4</ele>
        <time>2014-06-01T08:31:16.000Z</time>
      </trkpt>
      <trkpt lat="47.50104" lon="6.73387">
        <ele>357.2</ele>
        <time>2014-06-01T08:31:18.000Z</time>
      </trkpt>
      <trkpt lat="47.50106" lon="6.73384">
        <ele>357.3</ele>
        <time>2014-06-01T08:31:19.000Z</time>
      </trkpt>
      <trkpt lat="47.50107" lon="6.73381">
        <ele>357.4</ele>
        <time>2014-06-01T08:31:20.000Z</time>
      </trkpt>
      <trkpt lat="47.50109" lon="6.73378">
        <ele>357.6</ele>
        <time>2014-06-01T08:31:21.000Z</time>
      </trkpt>
      <trkpt lat="47.5011" lon="6.73375">
        <ele>357.8</ele>
        <time>2014-06-01T08:31:22.000Z</time>
      </trkpt>
      <trkpt lat="47.50111" lon="6.73372">
        <ele>357.8</ele>
        <time>2014-06-01T08:31:23.000Z</time>
      </trkpt>
      <trkpt lat="47.50112" lon="6.73368">
        <ele>357.8</ele>
        <time>2014-06-01T08:31:24.000Z</time>
      </trkpt>
      <trkpt lat="47.50113" lon="6.73364">
        <ele>357.9</ele>
        <time>2014-06-01T08:31:25.000Z</time>
      </trkpt>
      <trkpt lat="47.50115" lon="6.7336">
        <ele>356.8</ele>
        <time>2014-06-01T08:31:26.000Z</time>
      </trkpt>
      <trkpt lat="47.50116" lon="6.73357">
        <ele>356.2</ele>
        <time>2014-06-01T08:31:27.000Z</time>
      </trkpt>
      <trkpt lat="47.50118" lon="6.73351">
        <ele>356.6</ele>
        <time>2014-06-01T08:31:29.000Z</time>
      </trkpt>
      <trkpt lat="47.50118" lon="6.73348">
        <ele>356.9</ele>
        <time>2014-06-01T08:31:30.000Z</time>
      </trkpt>
      <trkpt lat="47.5012" lon="6.73343">
        <ele>356.9</ele>
        <time>2014-06-01T08:31:32.000Z</time>
      </trkpt>
      <trkpt lat="47.50121" lon="6.7334">
        <ele>357.4</ele>
        <time>2014-06-01T08:31:33.000Z</time>
      </trkpt>
      <trkpt lat="47.50123" lon="6.73336">
        <ele>357.6</ele>
        <time>2014-06-01T08:31:34.000Z</time>
      </trkpt>
      <trkpt lat="47.50124" lon="6.73333">
        <ele>358.5</ele>
        <time>2014-06-01T08:31:35.000Z</time>
      </trkpt>
      <trkpt lat="47.50125" lon="6.73329">
        <ele>357.7</ele>
        <time>2014-06-01T08:31:36.000Z</time>
      </trkpt>
      <trkpt lat="47.50127" lon="6.73326">
        <ele>358.4</ele>
        <time>2014-06-01T08:31:37.000Z</time>
      </trkpt>
      <trkpt lat="47.50128" lon="6.73322">
        <ele>358.7</ele>
        <time>2014-06-01T08:31:38.000Z</time>
      </trkpt>
      <trkpt lat="47.50129" lon="6.73318">
        <ele>359.4</ele>
        <time>2014-06-01T08:31:39.000Z</time>
      </trkpt>
      <trkpt lat="47.50131" lon="6.73314">
        <ele>359.4</ele>
        <time>2014-06-01T08:31:40.000Z</time>
      </trkpt>
      <trkpt lat="47.50133" lon="6.7331">
        <ele>359.9</ele>
        <time>2014-06-01T08:31:41.000Z</time>
      </trkpt>
      <trkpt lat="47.50134" lon="6.73305">
        <ele>359.7</ele>
        <time>2014-06-01T08:31:42.000Z</time>
      </trkpt>
      <trkpt lat="47.50136" lon="6.733">
        <ele>359.6</ele>
        <time>2014-06-01T08:31:43.000Z</time>
      </trkpt>
      <trkpt lat="47.50138" lon="6.73296">
        <ele>359.8</ele>
        <time>2014-06-01T08:31:44.000Z</time>
      </trkpt>
      <trkpt lat="47.50139" lon="6.7329">
        <ele>359.5</ele>
        <time>2014-06-01T08:31:45.000Z</time>
      </trkpt>
      <trkpt lat="47.50141" lon="6.73285">
        <ele>359.4</ele>
        <time>2014-06-01T08:31:46.000Z</time>
      </trkpt>
      <trkpt lat="47.50143" lon="6.7328">
        <ele>359.1</ele>
        <time>2014-06-01T08:31:47.000Z</time>
      </trkpt>
      <trkpt lat="47.50144" lon="6.73275">
        <ele>358.7</ele>
        <time>2014-06-01T08:31:48.000Z</time>
      </trkpt>
      <trkpt lat="47.50146" lon="6.7327">
        <ele>358.5</ele>
        <time>2014-06-01T08:31:49.000Z</time>
      </trkpt>
      <trkpt lat="47.50148" lon="6.73265">
        <ele>358</ele>
        <time>2014-06-01T08:31:50.000Z</time>
      </trkpt>
      <trkpt lat="47.50149" lon="6.73259">
        <ele>358</ele>
        <time>2014-06-01T08:31:51.000Z</time>
      </trkpt>
      <trkpt lat="47.50151" lon="6.73254">
        <ele>358.3</ele>
        <time>2014-06-01T08:31:52.000Z</time>
      </trkpt>
      <trkpt lat="47.50153" lon="6.73249">
        <ele>357.9</ele>
        <time>2014-06-01T08:31:53.000Z</time>
      </trkpt>
      <trkpt lat="47.50154" lon="6.73245">
        <ele>357.3</ele>
        <time>2014-06-01T08:31:54.000Z</time>
      </trkpt>
      <trkpt lat="47.50156" lon="6.7324">
        <ele>357.5</ele>
        <time>2014-06-01T08:31:55.000Z</time>
      </trkpt>
      <trkpt lat="47.50158" lon="6.73236">
        <ele>357.4</ele>
        <time>2014-06-01T08:31:56.000Z</time>
      </trkpt>
      <trkpt lat="47.50159" lon="6.73232">
        <ele>357.5</ele>
        <time>2014-06-01T08:31:57.000Z</time>
      </trkpt>
      <trkpt lat="47.5016" lon="6.73228">
        <ele>357.5</ele>
        <time>2014-06-01T08:31:58.000Z</time>
      </trkpt>
      <trkpt lat="47.50164" lon="6.73217">
        <ele>356.8</ele>
        <time>2014-06-01T08:32:01.000Z</time>
      </trkpt>
      <trkpt lat="47.50165" lon="6.73213">
        <ele>356.6</ele>
        <time>2014-06-01T08:32:02.000Z</time>
      </trkpt>
      <trkpt lat="47.50166" lon="6.73209">
        <ele>356.6</ele>
        <time>2014-06-01T08:32:03.000Z</time>
      </trkpt>
      <trkpt lat="47.50167" lon="6.73205">
        <ele>356.1</ele>
        <time>2014-06-01T08:32:04.000Z</time>
      </trkpt>
      <trkpt lat="47.50169" lon="6.732">
        <ele>357.3</ele>
        <time>2014-06-01T08:32:05.000Z</time>
      </trkpt>
      <trkpt lat="47.5017" lon="6.73195">
        <ele>358</ele>
        <time>2014-06-01T08:32:06.000Z</time>
      </trkpt>
      <trkpt lat="47.50172" lon="6.7319">
        <ele>356.9</ele>
        <time>2014-06-01T08:32:07.000Z</time>
      </trkpt>
      <trkpt lat="47.50174" lon="6.73185">
        <ele>356.7</ele>
        <time>2014-06-01T08:32:08.000Z</time>
      </trkpt>
      <trkpt lat="47.50177" lon="6.73179">
        <ele>356</ele>
        <time>2014-06-01T08:32:09.000Z</time>
      </trkpt>
      <trkpt lat="47.50179" lon="6.73173">
        <ele>355.9</ele>
        <time>2014-06-01T08:32:10.000Z</time>
      </trkpt>
      <trkpt lat="47.50182" lon="6.73165">
        <ele>355.4</ele>
        <time>2014-06-01T08:32:11.000Z</time>
      </trkpt>
      <trkpt lat="47.50184" lon="6.73159">
        <ele>355.5</ele>
        <time>2014-06-01T08:32:12.000Z</time>
      </trkpt>
      <trkpt lat="47.50187" lon="6.73153">
        <ele>355.1</ele>
        <time>2014-06-01T08:32:13.000Z</time>
      </trkpt>
      <trkpt lat="47.50189" lon="6.73147">
        <ele>354.9</ele>
        <time>2014-06-01T08:32:14.000Z</time>
      </trkpt>
      <trkpt lat="47.50191" lon="6.7314">
        <ele>355.1</ele>
        <time>2014-06-01T08:32:15.000Z</time>
      </trkpt>
      <trkpt lat="47.50193" lon="6.73133">
        <ele>354</ele>
        <time>2014-06-01T08:32:16.000Z</time>
      </trkpt>
      <trkpt lat="47.50195" lon="6.73126">
        <ele>354</ele>
        <time>2014-06-01T08:32:17.000Z</time>
      </trkpt>
      <trkpt lat="47.50198" lon="6.7312">
        <ele>353.6</ele>
        <time>2014-06-01T08:32:18.000Z</time>
      </trkpt>
      <trkpt lat="47.502" lon="6.73113">
        <ele>352.7</ele>
        <time>2014-06-01T08:32:19.000Z</time>
      </trkpt>
      <trkpt lat="47.50203" lon="6.73107">
        <ele>352.2</ele>
        <time>2014-06-01T08:32:20.000Z</time>
      </trkpt>
      <trkpt lat="47.50205" lon="6.731">
        <ele>352</ele>
        <time>2014-06-01T08:32:21.000Z</time>
      </trkpt>
      <trkpt lat="47.50207" lon="6.73094">
        <ele>352.2</ele>
        <time>2014-06-01T08:32:22.000Z</time>
      </trkpt>
      <trkpt lat="47.50209" lon="6.73087">
        <ele>352.3</ele>
        <time>2014-06-01T08:32:23.000Z</time>
      </trkpt>
      <trkpt lat="47.50211" lon="6.73081">
        <ele>352.3</ele>
        <time>2014-06-01T08:32:24.000Z</time>
      </trkpt>
      <trkpt lat="47.50213" lon="6.73075">
        <ele>352.3</ele>
        <time>2014-06-01T08:32:25.000Z</time>
      </trkpt>
      <trkpt lat="47.50216" lon="6.73069">
        <ele>352.1</ele>
        <time>2014-06-01T08:32:26.000Z</time>
      </trkpt>
      <trkpt lat="47.50218" lon="6.73063">
        <ele>351.4</ele>
        <time>2014-06-01T08:32:27.000Z</time>
      </trkpt>
      <trkpt lat="47.5022" lon="6.73058">
        <ele>351</ele>
        <time>2014-06-01T08:32:28.000Z</time>
      </trkpt>
      <trkpt lat="47.50222" lon="6.73052">
        <ele>351.3</ele>
        <time>2014-06-01T08:32:29.000Z</time>
      </trkpt>
      <trkpt lat="47.50224" lon="6.73046">
        <ele>350.9</ele>
        <time>2014-06-01T08:32:30.000Z</time>
      </trkpt>
      <trkpt lat="47.50226" lon="6.73039">
        <ele>351.2</ele>
        <time>2014-06-01T08:32:31.000Z</time>
      </trkpt>
      <trkpt lat="47.50229" lon="6.73033">
        <ele>351.5</ele>
        <time>2014-06-01T08:32:32.000Z</time>
      </trkpt>
      <trkpt lat="47.50231" lon="6.73027">
        <ele>351.6</ele>
        <time>2014-06-01T08:32:33.000Z</time>
      </trkpt>
      <trkpt lat="47.50233" lon="6.73021">
        <ele>351.6</ele>
        <time>2014-06-01T08:32:34.000Z</time>
      </trkpt>
      <trkpt lat="47.50235" lon="6.73014">
        <ele>351.8</ele>
        <time>2014-06-01T08:32:35.000Z</time>
      </trkpt>
      <trkpt lat="47.50238" lon="6.73008">
        <ele>352</ele>
        <time>2014-06-01T08:32:36.000Z</time>
      </trkpt>
      <trkpt lat="47.5024" lon="6.73002">
        <ele>352</ele>
        <time>2014-06-01T08:32:37.000Z</time>
      </trkpt>
      <trkpt lat="47.50243" lon="6.72996">
        <ele>352.1</ele>
        <time>2014-06-01T08:32:38.000Z</time>
      </trkpt>
      <trkpt lat="47.50245" lon="6.7299">
        <ele>351.9</ele>
        <time>2014-06-01T08:32:39.000Z</time>
      </trkpt>
      <trkpt lat="47.50248" lon="6.72984">
        <ele>351.7</ele>
        <time>2014-06-01T08:32:40.000Z</time>
      </trkpt>
      <trkpt lat="47.5025" lon="6.72979">
        <ele>351.9</ele>
        <time>2014-06-01T08:32:41.000Z</time>
      </trkpt>
      <trkpt lat="47.50252" lon="6.72975">
        <ele>351.1</ele>
        <time>2014-06-01T08:32:42.000Z</time>
      </trkpt>
      <trkpt lat="47.50254" lon="6.72969">
        <ele>351.6</ele>
        <time>2014-06-01T08:32:43.000Z</time>
      </trkpt>
      <trkpt lat="47.50254" lon="6.72963">
        <ele>352.1</ele>
        <time>2014-06-01T08:32:44.000Z</time>
      </trkpt>
      <trkpt lat="47.50256" lon="6.72958">
        <ele>352.1</ele>
        <time>2014-06-01T08:32:45.000Z</time>
      </trkpt>
      <trkpt lat="47.50258" lon="6.72952">
        <ele>352.1</ele>
        <time>2014-06-01T08:32:46.000Z</time>
      </trkpt>
      <trkpt lat="47.5026" lon="6.72946">
        <ele>352</ele>
        <time>2014-06-01T08:32:47.000Z</time>
      </trkpt>
      <trkpt lat="47.50263" lon="6.7294">
        <ele>352.2</ele>
        <time>2014-06-01T08:32:48.000Z</time>
      </trkpt>
      <trkpt lat="47.50265" lon="6.72934">
        <ele>352.3</ele>
        <time>2014-06-01T08:32:49.000Z</time>
      </trkpt>
      <trkpt lat="47.50267" lon="6.72928">
        <ele>352.3</ele>
        <time>2014-06-01T08:32:50.000Z</time>
      </trkpt>
      <trkpt lat="47.5027" lon="6.72921">
        <ele>352.2</ele>
        <time>2014-06-01T08:32:51.000Z</time>
      </trkpt>
      <trkpt lat="47.50272" lon="6.72915">
        <ele>352</ele>
        <time>2014-06-01T08:32:52.000Z</time>
      </trkpt>
      <trkpt lat="47.50274" lon="6.72909">
        <ele>351.8</ele>
        <time>2014-06-01T08:32:53.000Z</time>
      </trkpt>
      <trkpt lat="47.50275" lon="6.72905">
        <ele>351.9</ele>
        <time>2014-06-01T08:32:54.000Z</time>
      </trkpt>
      <trkpt lat="47.50277" lon="6.72901">
        <ele>353</ele>
        <time>2014-06-01T08:32:55.000Z</time>
      </trkpt>
      <trkpt lat="47.50279" lon="6.72897">
        <ele>353.6</ele>
        <time>2014-06-01T08:32:56.000Z</time>
      </trkpt>
      <trkpt lat="47.50281" lon="6.72895">
        <ele>353.5</ele>
        <time>2014-06-01T08:32:57.000Z</time>
      </trkpt>
      <trkpt lat="47.50287" lon="6.72897">
        <ele>352.8</ele>
        <time>2014-06-01T08:32:58.000Z</time>
      </trkpt>
      <trkpt lat="47.50297" lon="6.72899">
        <ele>353.8</ele>
        <time>2014-06-01T08:33:01.000Z</time>
      </trkpt>
      <trkpt lat="47.50303" lon="6.72901">
        <ele>353.4</ele>
        <time>2014-06-01T08:33:02.000Z</time>
      </trkpt>
      <trkpt lat="47.50307" lon="6.72902">
        <ele>353.4</ele>
        <time>2014-06-01T08:33:03.000Z</time>
      </trkpt>
      <trkpt lat="47.5031" lon="6.72904">
        <ele>352.1</ele>
        <time>2014-06-01T08:33:04.000Z</time>
      </trkpt>
      <trkpt lat="47.50314" lon="6.72906">
        <ele>352.5</ele>
        <time>2014-06-01T08:33:05.000Z</time>
      </trkpt>
      <trkpt lat="47.50318" lon="6.72908">
        <ele>352.7</ele>
        <time>2014-06-01T08:33:06.000Z</time>
      </trkpt>
      <trkpt lat="47.50322" lon="6.72909">
        <ele>352.8</ele>
        <time>2014-06-01T08:33:07.000Z</time>
      </trkpt>
      <trkpt lat="47.50326" lon="6.7291">
        <ele>352.9</ele>
        <time>2014-06-01T08:33:08.000Z</time>
      </trkpt>
      <trkpt lat="47.5033" lon="6.72913">
        <ele>353</ele>
        <time>2014-06-01T08:33:09.000Z</time>
      </trkpt>
      <trkpt lat="47.50333" lon="6.72915">
        <ele>352.8</ele>
        <time>2014-06-01T08:33:10.000Z</time>
      </trkpt>
      <trkpt lat="47.50337" lon="6.72916">
        <ele>353.2</ele>
        <time>2014-06-01T08:33:11.000Z</time>
      </trkpt>
      <trkpt lat="47.5034" lon="6.72917">
        <ele>353.3</ele>
        <time>2014-06-01T08:33:12.000Z</time>
      </trkpt>
      <trkpt lat="47.50343" lon="6.72918">
        <ele>353.6</ele>
        <time>2014-06-01T08:33:13.000Z</time>
      </trkpt>
      <trkpt lat="47.50346" lon="6.72919">
        <ele>353.8</ele>
        <time>2014-06-01T08:33:14.000Z</time>
      </trkpt>
      <trkpt lat="47.50349" lon="6.7292">
        <ele>354.3</ele>
        <time>2014-06-01T08:33:15.000Z</time>
      </trkpt>
      <trkpt lat="47.50352" lon="6.7292">
        <ele>354.3</ele>
        <time>2014-06-01T08:33:16.000Z</time>
      </trkpt>
      <trkpt lat="47.50355" lon="6.72921">
        <ele>354.8</ele>
        <time>2014-06-01T08:33:17.000Z</time>
      </trkpt>
      <trkpt lat="47.50357" lon="6.72922">
        <ele>354.7</ele>
        <time>2014-06-01T08:33:18.000Z</time>
      </trkpt>
      <trkpt lat="47.5036" lon="6.72923">
        <ele>354.9</ele>
        <time>2014-06-01T08:33:19.000Z</time>
      </trkpt>
      <trkpt lat="47.50363" lon="6.72924">
        <ele>354.7</ele>
        <time>2014-06-01T08:33:20.000Z</time>
      </trkpt>
      <trkpt lat="47.50366" lon="6.72925">
        <ele>354.6</ele>
        <time>2014-06-01T08:33:21.000Z</time>
      </trkpt>
      <trkpt lat="47.50369" lon="6.72926">
        <ele>354.7</ele>
        <time>2014-06-01T08:33:22.000Z</time>
      </trkpt>
      <trkpt lat="47.50372" lon="6.72927">
        <ele>355.2</ele>
        <time>2014-06-01T08:33:23.000Z</time>
      </trkpt>
      <trkpt lat="47.50375" lon="6.72928">
        <ele>355.7</ele>
        <time>2014-06-01T08:33:24.000Z</time>
      </trkpt>
      <trkpt lat="47.50378" lon="6.72929">
        <ele>356.1</ele>
        <time>2014-06-01T08:33:25.000Z</time>
      </trkpt>
      <trkpt lat="47.50381" lon="6.7293">
        <ele>356.4</ele>
        <time>2014-06-01T08:33:26.000Z</time>
      </trkpt>
      <trkpt lat="47.50384" lon="6.72931">
        <ele>357.3</ele>
        <time>2014-06-01T08:33:27.000Z</time>
      </trkpt>
      <trkpt lat="47.50388" lon="6.72931">
        <ele>357.7</ele>
        <time>2014-06-01T08:33:28.000Z</time>
      </trkpt>
      <trkpt lat="47.50391" lon="6.72931">
        <ele>357.6</ele>
        <time>2014-06-01T08:33:29.000Z</time>
      </trkpt>
      <trkpt lat="47.50394" lon="6.72931">
        <ele>358</ele>
        <time>2014-06-01T08:33:30.000Z</time>
      </trkpt>
      <trkpt lat="47.50397" lon="6.72931">
        <ele>358.5</ele>
        <time>2014-06-01T08:33:31.000Z</time>
      </trkpt>
      <trkpt lat="47.504" lon="6.72932">
        <ele>358.8</ele>
        <time>2014-06-01T08:33:32.000Z</time>
      </trkpt>
      <trkpt lat="47.50403" lon="6.72932">
        <ele>359.2</ele>
        <time>2014-06-01T08:33:33.000Z</time>
      </trkpt>
      <trkpt lat="47.50405" lon="6.72933">
        <ele>359.3</ele>
        <time>2014-06-01T08:33:34.000Z</time>
      </trkpt>
      <trkpt lat="47.50408" lon="6.72933">
        <ele>359.8</ele>
        <time>2014-06-01T08:33:35.000Z</time>
      </trkpt>
      <trkpt lat="47.50411" lon="6.72934">
        <ele>360</ele>
        <time>2014-06-01T08:33:36.000Z</time>
      </trkpt>
      <trkpt lat="47.50413" lon="6.72934">
        <ele>360</ele>
        <time>2014-06-01T08:33:37.000Z</time>
      </trkpt>
      <trkpt lat="47.50416" lon="6.72935">
        <ele>359.9</ele>
        <time>2014-06-01T08:33:38.000Z</time>
      </trkpt>
      <trkpt lat="47.50419" lon="6.72935">
        <ele>360.3</ele>
        <time>2014-06-01T08:33:39.000Z</time>
      </trkpt>
      <trkpt lat="47.50422" lon="6.72936">
        <ele>360</ele>
        <time>2014-06-01T08:33:40.000Z</time>
      </trkpt>
      <trkpt lat="47.50424" lon="6.72936">
        <ele>360.4</ele>
        <time>2014-06-01T08:33:41.000Z</time>
      </trkpt>
      <trkpt lat="47.50427" lon="6.72937">
        <ele>360.4</ele>
        <time>2014-06-01T08:33:42.000Z</time>
      </trkpt>
      <trkpt lat="47.5043" lon="6.72937">
        <ele>360.7</ele>
        <time>2014-06-01T08:33:43.000Z</time>
      </trkpt>
      <trkpt lat="47.50433" lon="6.72938">
        <ele>360.9</ele>
        <time>2014-06-01T08:33:44.000Z</time>
      </trkpt>
      <trkpt lat="47.50435" lon="6.72939">
        <ele>361.3</ele>
        <time>2014-06-01T08:33:45.000Z</time>
      </trkpt>
      <trkpt lat="47.50438" lon="6.7294">
        <ele>361.4</ele>
        <time>2014-06-01T08:33:46.000Z</time>
      </trkpt>
      <trkpt lat="47.5044" lon="6.72941">
        <ele>361.5</ele>
        <time>2014-06-01T08:33:47.000Z</time>
      </trkpt>
      <trkpt lat="47.50443" lon="6.72941">
        <ele>361.7</ele>
        <time>2014-06-01T08:33:48.000Z</time>
      </trkpt>
      <trkpt lat="47.50445" lon="6.72941">
        <ele>361.9</ele>
        <time>2014-06-01T08:33:49.000Z</time>
      </trkpt>
      <trkpt lat="47.50448" lon="6.72941">
        <ele>362.1</ele>
        <time>2014-06-01T08:33:50.000Z</time>
      </trkpt>
      <trkpt lat="47.5045" lon="6.7294">
        <ele>362</ele>
        <time>2014-06-01T08:33:51.000Z</time>
      </trkpt>
      <trkpt lat="47.50453" lon="6.72939">
        <ele>362.2</ele>
        <time>2014-06-01T08:33:52.000Z</time>
      </trkpt>
      <trkpt lat="47.50455" lon="6.72938">
        <ele>362.4</ele>
        <time>2014-06-01T08:33:53.000Z</time>
      </trkpt>
      <trkpt lat="47.50458" lon="6.72937">
        <ele>362.5</ele>
        <time>2014-06-01T08:33:54.000Z</time>
      </trkpt>
      <trkpt lat="47.5046" lon="6.72935">
        <ele>362.9</ele>
        <time>2014-06-01T08:33:55.000Z</time>
      </trkpt>
      <trkpt lat="47.50462" lon="6.72932">
        <ele>362.9</ele>
        <time>2014-06-01T08:33:56.000Z</time>
      </trkpt>
      <trkpt lat="47.50464" lon="6.72929">
        <ele>362.8</ele>
        <time>2014-06-01T08:33:57.000Z</time>
      </trkpt>
      <trkpt lat="47.50466" lon="6.72926">
        <ele>363</ele>
        <time>2014-06-01T08:33:58.000Z</time>
      </trkpt>
      <trkpt lat="47.50481" lon="6.72903">
        <ele>362.2</ele>
        <time>2014-06-01T08:34:06.000Z</time>
      </trkpt>
      <trkpt lat="47.50483" lon="6.729">
        <ele>362</ele>
        <time>2014-06-01T08:34:07.000Z</time>
      </trkpt>
      <trkpt lat="47.50484" lon="6.72897">
        <ele>362.2</ele>
        <time>2014-06-01T08:34:08.000Z</time>
      </trkpt>
      <trkpt lat="47.50486" lon="6.72894">
        <ele>362.7</ele>
        <time>2014-06-01T08:34:09.000Z</time>
      </trkpt>
      <trkpt lat="47.50488" lon="6.72891">
        <ele>363.4</ele>
        <time>2014-06-01T08:34:10.000Z</time>
      </trkpt>
      <trkpt lat="47.5049" lon="6.72889">
        <ele>363.9</ele>
        <time>2014-06-01T08:34:11.000Z</time>
      </trkpt>
      <trkpt lat="47.50492" lon="6.72886">
        <ele>364.7</ele>
        <time>2014-06-01T08:34:12.000Z</time>
      </trkpt>
      <trkpt lat="47.50493" lon="6.72884">
        <ele>365.1</ele>
        <time>2014-06-01T08:34:13.000Z</time>
      </trkpt>
      <trkpt lat="47.50495" lon="6.72882">
        <ele>364.8</ele>
        <time>2014-06-01T08:34:14.000Z</time>
      </trkpt>
      <trkpt lat="47.50497" lon="6.7288">
        <ele>365.1</ele>
        <time>2014-06-01T08:34:15.000Z</time>
      </trkpt>
      <trkpt lat="47.50499" lon="6.72878">
        <ele>369.2</ele>
        <time>2014-06-01T08:34:16.000Z</time>
      </trkpt>
      <trkpt lat="47.50502" lon="6.72875">
        <ele>372.9</ele>
        <time>2014-06-01T08:34:18.000Z</time>
      </trkpt>
      <trkpt lat="47.50504" lon="6.72873">
        <ele>373.5</ele>
        <time>2014-06-01T08:34:19.000Z</time>
      </trkpt>
      <trkpt lat="47.50507" lon="6.72869">
        <ele>374.1</ele>
        <time>2014-06-01T08:34:21.000Z</time>
      </trkpt>
      <trkpt lat="47.50509" lon="6.72867">
        <ele>374.7</ele>
        <time>2014-06-01T08:34:22.000Z</time>
      </trkpt>
      <trkpt lat="47.50511" lon="6.72865">
        <ele>374.7</ele>
        <time>2014-06-01T08:34:23.000Z</time>
      </trkpt>
      <trkpt lat="47.50513" lon="6.72864">
        <ele>374.8</ele>
        <time>2014-06-01T08:34:24.000Z</time>
      </trkpt>
      <trkpt lat="47.50515" lon="6.72862">
        <ele>374.9</ele>
        <time>2014-06-01T08:34:25.000Z</time>
      </trkpt>
      <trkpt lat="47.50517" lon="6.7286">
        <ele>374.7</ele>
        <time>2014-06-01T08:34:26.000Z</time>
      </trkpt>
      <trkpt lat="47.50519" lon="6.72858">
        <ele>374.6</ele>
        <time>2014-06-01T08:34:27.000Z</time>
      </trkpt>
      <trkpt lat="47.5052" lon="6.72856">
        <ele>374.5</ele>
        <time>2014-06-01T08:34:28.000Z</time>
      </trkpt>
      <trkpt lat="47.50522" lon="6.72853">
        <ele>375.1</ele>
        <time>2014-06-01T08:34:29.000Z</time>
      </trkpt>
      <trkpt lat="47.50523" lon="6.72849">
        <ele>375</ele>
        <time>2014-06-01T08:34:30.000Z</time>
      </trkpt>
      <trkpt lat="47.50524" lon="6.72845">
        <ele>374.6</ele>
        <time>2014-06-01T08:34:31.000Z</time>
      </trkpt>
      <trkpt lat="47.50525" lon="6.7284">
        <ele>373.7</ele>
        <time>2014-06-01T08:34:32.000Z</time>
      </trkpt>
      <trkpt lat="47.50525" lon="6.72836">
        <ele>373.6</ele>
        <time>2014-06-01T08:34:33.000Z</time>
      </trkpt>
      <trkpt lat="47.50526" lon="6.72831">
        <ele>373.5</ele>
        <time>2014-06-01T08:34:34.000Z</time>
      </trkpt>
      <trkpt lat="47.50526" lon="6.72826">
        <ele>372.3</ele>
        <time>2014-06-01T08:34:35.000Z</time>
      </trkpt>
      <trkpt lat="47.50526" lon="6.72821">
        <ele>372.5</ele>
        <time>2014-06-01T08:34:36.000Z</time>
      </trkpt>
      <trkpt lat="47.50526" lon="6.72817">
        <ele>372.3</ele>
        <time>2014-06-01T08:34:37.000Z</time>
      </trkpt>
      <trkpt lat="47.50527" lon="6.72812">
        <ele>371.9</ele>
        <time>2014-06-01T08:34:38.000Z</time>
      </trkpt>
      <trkpt lat="47.50527" lon="6.72808">
        <ele>373</ele>
        <time>2014-06-01T08:34:39.000Z</time>
      </trkpt>
      <trkpt lat="47.50527" lon="6.72803">
        <ele>371.9</ele>
        <time>2014-06-01T08:34:40.000Z</time>
      </trkpt>
      <trkpt lat="47.50527" lon="6.72798">
        <ele>371.4</ele>
        <time>2014-06-01T08:34:41.000Z</time>
      </trkpt>
      <trkpt lat="47.50527" lon="6.72793">
        <ele>371.2</ele>
        <time>2014-06-01T08:34:42.000Z</time>
      </trkpt>
      <trkpt lat="47.50527" lon="6.72788">
        <ele>371.3</ele>
        <time>2014-06-01T08:34:43.000Z</time>
      </trkpt>
      <trkpt lat="47.50527" lon="6.72784">
        <ele>371.1</ele>
        <time>2014-06-01T08:34:44.000Z</time>
      </trkpt>
      <trkpt lat="47.50527" lon="6.72778">
        <ele>370.5</ele>
        <time>2014-06-01T08:34:45.000Z</time>
      </trkpt>
      <trkpt lat="47.50527" lon="6.72773">
        <ele>370.3</ele>
        <time>2014-06-01T08:34:46.000Z</time>
      </trkpt>
      <trkpt lat="47.50527" lon="6.72767">
        <ele>369.4</ele>
        <time>2014-06-01T08:34:47.000Z</time>
      </trkpt>
      <trkpt lat="47.50527" lon="6.72761">
        <ele>369.7</ele>
        <time>2014-06-01T08:34:48.000Z</time>
      </trkpt>
      <trkpt lat="47.50527" lon="6.72755">
        <ele>369.5</ele>
        <time>2014-06-01T08:34:49.000Z</time>
      </trkpt>
      <trkpt lat="47.50527" lon="6.72749">
        <ele>369.9</ele>
        <time>2014-06-01T08:34:50.000Z</time>
      </trkpt>
      <trkpt lat="47.50527" lon="6.72741">
        <ele>369.5</ele>
        <time>2014-06-01T08:34:51.000Z</time>
      </trkpt>
      <trkpt lat="47.50526" lon="6.72738">
        <ele>374</ele>
        <time>2014-06-01T08:34:52.000Z</time>
      </trkpt>
      <trkpt lat="47.50526" lon="6.72734">
        <ele>376</ele>
        <time>2014-06-01T08:34:53.000Z</time>
      </trkpt>
      <trkpt lat="47.50525" lon="6.72729">
        <ele>382.9</ele>
        <time>2014-06-01T08:34:55.000Z</time>
      </trkpt>
      <trkpt lat="47.50525" lon="6.72726">
        <ele>384.4</ele>
        <time>2014-06-01T08:34:56.000Z</time>
      </trkpt>
      <trkpt lat="47.50523" lon="6.72718">
        <ele>386.4</ele>
        <time>2014-06-01T08:34:57.000Z</time>
      </trkpt>
      <trkpt lat="47.50527" lon="6.72696">
        <ele>383.1</ele>
        <time>2014-06-01T08:35:00.000Z</time>
      </trkpt>
      <trkpt lat="47.50528" lon="6.72688">
        <ele>383.1</ele>
        <time>2014-06-01T08:35:01.000Z</time>
      </trkpt>
      <trkpt lat="47.50529" lon="6.7268">
        <ele>383</ele>
        <time>2014-06-01T08:35:02.000Z</time>
      </trkpt>
      <trkpt lat="47.5053" lon="6.72672">
        <ele>382.5</ele>
        <time>2014-06-01T08:35:03.000Z</time>
      </trkpt>
      <trkpt lat="47.50531" lon="6.72664">
        <ele>382.3</ele>
        <time>2014-06-01T08:35:04.000Z</time>
      </trkpt>
      <trkpt lat="47.50532" lon="6.72656">
        <ele>382.4</ele>
        <time>2014-06-01T08:35:05.000Z</time>
      </trkpt>
      <trkpt lat="47.50534" lon="6.72647">
        <ele>381</ele>
        <time>2014-06-01T08:35:06.000Z</time>
      </trkpt>
      <trkpt lat="47.50537" lon="6.72637">
        <ele>379.2</ele>
        <time>2014-06-01T08:35:07.000Z</time>
      </trkpt>
      <trkpt lat="47.50539" lon="6.7263">
        <ele>378.1</ele>
        <time>2014-06-01T08:35:08.000Z</time>
      </trkpt>
      <trkpt lat="47.50541" lon="6.72622">
        <ele>377.6</ele>
        <time>2014-06-01T08:35:09.000Z</time>
      </trkpt>
      <trkpt lat="47.50543" lon="6.72615">
        <ele>377.3</ele>
        <time>2014-06-01T08:35:10.000Z</time>
      </trkpt>
      <trkpt lat="47.50545" lon="6.72608">
        <ele>376.9</ele>
        <time>2014-06-01T08:35:11.000Z</time>
      </trkpt>
      <trkpt lat="47.50548" lon="6.72601">
        <ele>376.7</ele>
        <time>2014-06-01T08:35:12.000Z</time>
      </trkpt>
      <trkpt lat="47.50551" lon="6.72595">
        <ele>376.1</ele>
        <time>2014-06-01T08:35:13.000Z</time>
      </trkpt>
      <trkpt lat="47.50553" lon="6.72588">
        <ele>375.5</ele>
        <time>2014-06-01T08:35:14.000Z</time>
      </trkpt>
      <trkpt lat="47.50556" lon="6.72582">
        <ele>375.3</ele>
        <time>2014-06-01T08:35:15.000Z</time>
      </trkpt>
      <trkpt lat="47.50559" lon="6.72575">
        <ele>375</ele>
        <time>2014-06-01T08:35:16.000Z</time>
      </trkpt>
      <trkpt lat="47.50561" lon="6.72569">
        <ele>374.7</ele>
        <time>2014-06-01T08:35:17.000Z</time>
      </trkpt>
      <trkpt lat="47.50564" lon="6.72563">
        <ele>374.3</ele>
        <time>2014-06-01T08:35:18.000Z</time>
      </trkpt>
      <trkpt lat="47.50566" lon="6.72557">
        <ele>374.3</ele>
        <time>2014-06-01T08:35:19.000Z</time>
      </trkpt>
      <trkpt lat="47.50569" lon="6.72551">
        <ele>373.8</ele>
        <time>2014-06-01T08:35:20.000Z</time>
      </trkpt>
      <trkpt lat="47.50571" lon="6.72544">
        <ele>373.7</ele>
        <time>2014-06-01T08:35:21.000Z</time>
      </trkpt>
      <trkpt lat="47.50574" lon="6.72538">
        <ele>373.3</ele>
        <time>2014-06-01T08:35:22.000Z</time>
      </trkpt>
      <trkpt lat="47.50576" lon="6.72532">
        <ele>372.9</ele>
        <time>2014-06-01T08:35:23.000Z</time>
      </trkpt>
      <trkpt lat="47.50579" lon="6.72525">
        <ele>372.6</ele>
        <time>2014-06-01T08:35:24.000Z</time>
      </trkpt>
      <trkpt lat="47.50581" lon="6.72519">
        <ele>372.8</ele>
        <time>2014-06-01T08:35:25.000Z</time>
      </trkpt>
      <trkpt lat="47.50584" lon="6.72513">
        <ele>373.1</ele>
        <time>2014-06-01T08:35:26.000Z</time>
      </trkpt>
      <trkpt lat="47.50587" lon="6.72505">
        <ele>371.9</ele>
        <time>2014-06-01T08:35:27.000Z</time>
      </trkpt>
      <trkpt lat="47.50589" lon="6.72499">
        <ele>371.9</ele>
        <time>2014-06-01T08:35:28.000Z</time>
      </trkpt>
      <trkpt lat="47.50592" lon="6.72493">
        <ele>371.8</ele>
        <time>2014-06-01T08:35:29.000Z</time>
      </trkpt>
      <trkpt lat="47.50594" lon="6.72487">
        <ele>371.8</ele>
        <time>2014-06-01T08:35:30.000Z</time>
      </trkpt>
      <trkpt lat="47.50597" lon="6.7248">
        <ele>371.3</ele>
        <time>2014-06-01T08:35:31.000Z</time>
      </trkpt>
      <trkpt lat="47.50599" lon="6.72475">
        <ele>371.2</ele>
        <time>2014-06-01T08:35:32.000Z</time>
      </trkpt>
      <trkpt lat="47.50601" lon="6.72469">
        <ele>371.3</ele>
        <time>2014-06-01T08:35:33.000Z</time>
      </trkpt>
      <trkpt lat="47.50604" lon="6.72463">
        <ele>371.1</ele>
        <time>2014-06-01T08:35:34.000Z</time>
      </trkpt>
      <trkpt lat="47.50606" lon="6.72457">
        <ele>371.5</ele>
        <time>2014-06-01T08:35:35.000Z</time>
      </trkpt>
      <trkpt lat="47.50609" lon="6.72451">
        <ele>372</ele>
        <time>2014-06-01T08:35:36.000Z</time>
      </trkpt>
      <trkpt lat="47.50611" lon="6.72445">
        <ele>372.4</ele>
        <time>2014-06-01T08:35:36.999Z</time>
      </trkpt>
      <trkpt lat="47.50615" lon="6.72439">
        <ele>371.2</ele>
        <time>2014-06-01T08:35:38.000Z</time>
      </trkpt>
      <trkpt lat="47.50618" lon="6.72434">
        <ele>371</ele>
        <time>2014-06-01T08:35:39.000Z</time>
      </trkpt>
      <trkpt lat="47.50621" lon="6.7243">
        <ele>370.9</ele>
        <time>2014-06-01T08:35:40.000Z</time>
      </trkpt>
      <trkpt lat="47.50623" lon="6.72426">
        <ele>370.7</ele>
        <time>2014-06-01T08:35:41.000Z</time>
      </trkpt>
      <trkpt lat="47.50626" lon="6.72421">
        <ele>370.7</ele>
        <time>2014-06-01T08:35:42.000Z</time>
      </trkpt>
      <trkpt lat="47.50628" lon="6.72412">
        <ele>370.6</ele>
        <time>2014-06-01T08:35:43.000Z</time>
      </trkpt>
      <trkpt lat="47.5063" lon="6.72408">
        <ele>370.4</ele>
        <time>2014-06-01T08:35:44.000Z</time>
      </trkpt>
      <trkpt lat="47.50632" lon="6.72403">
        <ele>370.4</ele>
        <time>2014-06-01T08:35:45.000Z</time>
      </trkpt>
      <trkpt lat="47.50635" lon="6.72398">
        <ele>370</ele>
        <time>2014-06-01T08:35:46.000Z</time>
      </trkpt>
      <trkpt lat="47.50638" lon="6.72392">
        <ele>369.1</ele>
        <time>2014-06-01T08:35:47.000Z</time>
      </trkpt>
      <trkpt lat="47.5064" lon="6.72387">
        <ele>369.2</ele>
        <time>2014-06-01T08:35:48.000Z</time>
      </trkpt>
      <trkpt lat="47.50642" lon="6.72382">
        <ele>368.8</ele>
        <time>2014-06-01T08:35:49.000Z</time>
      </trkpt>
      <trkpt lat="47.50643" lon="6.72377">
        <ele>369.8</ele>
        <time>2014-06-01T08:35:50.000Z</time>
      </trkpt>
      <trkpt lat="47.50645" lon="6.72371">
        <ele>369.8</ele>
        <time>2014-06-01T08:35:51.000Z</time>
      </trkpt>
      <trkpt lat="47.50646" lon="6.72366">
        <ele>370.1</ele>
        <time>2014-06-01T08:35:52.000Z</time>
      </trkpt>
      <trkpt lat="47.50649" lon="6.72361">
        <ele>370.1</ele>
        <time>2014-06-01T08:35:53.000Z</time>
      </trkpt>
      <trkpt lat="47.50652" lon="6.72354">
        <ele>369.6</ele>
        <time>2014-06-01T08:35:54.000Z</time>
      </trkpt>
      <trkpt lat="47.50656" lon="6.72348">
        <ele>370</ele>
        <time>2014-06-01T08:35:55.000Z</time>
      </trkpt>
      <trkpt lat="47.50659" lon="6.72342">
        <ele>370.1</ele>
        <time>2014-06-01T08:35:56.000Z</time>
      </trkpt>
      <trkpt lat="47.50662" lon="6.72337">
        <ele>370</ele>
        <time>2014-06-01T08:35:57.015Z</time>
      </trkpt>
      <trkpt lat="47.50665" lon="6.72332">
        <ele>370.1</ele>
        <time>2014-06-01T08:35:58.000Z</time>
      </trkpt>
      <trkpt lat="47.50673" lon="6.72313">
        <ele>366.5</ele>
        <time>2014-06-01T08:36:01.000Z</time>
      </trkpt>
      <trkpt lat="47.50676" lon="6.72308">
        <ele>366.1</ele>
        <time>2014-06-01T08:36:02.000Z</time>
      </trkpt>
      <trkpt lat="47.50679" lon="6.723">
        <ele>361.2</ele>
        <time>2014-06-01T08:36:03.000Z</time>
      </trkpt>
      <trkpt lat="47.50682" lon="6.72295">
        <ele>360.9</ele>
        <time>2014-06-01T08:36:04.000Z</time>
      </trkpt>
      <trkpt lat="47.50683" lon="6.72293">
        <ele>362.3</ele>
        <time>2014-06-01T08:36:05.000Z</time>
      </trkpt>
      <trkpt lat="47.50685" lon="6.72288">
        <ele>362</ele>
        <time>2014-06-01T08:36:06.000Z</time>
      </trkpt>
      <trkpt lat="47.50686" lon="6.72285">
        <ele>361.9</ele>
        <time>2014-06-01T08:36:07.000Z</time>
      </trkpt>
      <trkpt lat="47.50687" lon="6.72281">
        <ele>363</ele>
        <time>2014-06-01T08:36:08.000Z</time>
      </trkpt>
      <trkpt lat="47.50688" lon="6.72278">
        <ele>364.1</ele>
        <time>2014-06-01T08:36:09.000Z</time>
      </trkpt>
      <trkpt lat="47.50688" lon="6.72274">
        <ele>365</ele>
        <time>2014-06-01T08:36:10.000Z</time>
      </trkpt>
      <trkpt lat="47.50691" lon="6.72268">
        <ele>366.2</ele>
        <time>2014-06-01T08:36:11.000Z</time>
      </trkpt>
      <trkpt lat="47.50693" lon="6.72263">
        <ele>369.4</ele>
        <time>2014-06-01T08:36:13.000Z</time>
      </trkpt>
      <trkpt lat="47.50694" lon="6.7226">
        <ele>370.1</ele>
        <time>2014-06-01T08:36:14.000Z</time>
      </trkpt>
      <trkpt lat="47.50696" lon="6.72255">
        <ele>369</ele>
        <time>2014-06-01T08:36:16.000Z</time>
      </trkpt>
      <trkpt lat="47.50698" lon="6.72252">
        <ele>369.3</ele>
        <time>2014-06-01T08:36:17.000Z</time>
      </trkpt>
      <trkpt lat="47.50699" lon="6.72248">
        <ele>368.3</ele>
        <time>2014-06-01T08:36:18.000Z</time>
      </trkpt>
      <trkpt lat="47.507" lon="6.72244">
        <ele>368.5</ele>
        <time>2014-06-01T08:36:19.000Z</time>
      </trkpt>
      <trkpt lat="47.50702" lon="6.72239">
        <ele>368.1</ele>
        <time>2014-06-01T08:36:20.000Z</time>
      </trkpt>
      <trkpt lat="47.50703" lon="6.72235">
        <ele>367.7</ele>
        <time>2014-06-01T08:36:21.000Z</time>
      </trkpt>
      <trkpt lat="47.50704" lon="6.7223">
        <ele>366.8</ele>
        <time>2014-06-01T08:36:22.000Z</time>
      </trkpt>
      <trkpt lat="47.50706" lon="6.72225">
        <ele>366.5</ele>
        <time>2014-06-01T08:36:23.000Z</time>
      </trkpt>
      <trkpt lat="47.50707" lon="6.72221">
        <ele>365.8</ele>
        <time>2014-06-01T08:36:24.000Z</time>
      </trkpt>
      <trkpt lat="47.50708" lon="6.72218">
        <ele>365.5</ele>
        <time>2014-06-01T08:36:25.000Z</time>
      </trkpt>
      <trkpt lat="47.50711" lon="6.72213">
        <ele>365.8</ele>
        <time>2014-06-01T08:36:28.000Z</time>
      </trkpt>
      <trkpt lat="47.50712" lon="6.72212">
        <ele>364.1</ele>
        <time>2014-06-01T08:36:29.000Z</time>
      </trkpt>
      <trkpt lat="47.50715" lon="6.72212">
        <ele>363.4</ele>
        <time>2014-06-01T08:36:30.000Z</time>
      </trkpt>
      <trkpt lat="47.50717" lon="6.72212">
        <ele>363.2</ele>
        <time>2014-06-01T08:36:31.000Z</time>
      </trkpt>
      <trkpt lat="47.5072" lon="6.72213">
        <ele>362.6</ele>
        <time>2014-06-01T08:36:32.000Z</time>
      </trkpt>
      <trkpt lat="47.50723" lon="6.72215">
        <ele>362.7</ele>
        <time>2014-06-01T08:36:33.000Z</time>
      </trkpt>
      <trkpt lat="47.50726" lon="6.72216">
        <ele>362.6</ele>
        <time>2014-06-01T08:36:34.000Z</time>
      </trkpt>
      <trkpt lat="47.50729" lon="6.72218">
        <ele>362.5</ele>
        <time>2014-06-01T08:36:35.000Z</time>
      </trkpt>
      <trkpt lat="47.50732" lon="6.72219">
        <ele>362.5</ele>
        <time>2014-06-01T08:36:36.000Z</time>
      </trkpt>
      <trkpt lat="47.50735" lon="6.72221">
        <ele>362.3</ele>
        <time>2014-06-01T08:36:37.000Z</time>
      </trkpt>
      <trkpt lat="47.50738" lon="6.72222">
        <ele>362.4</ele>
        <time>2014-06-01T08:36:38.000Z</time>
      </trkpt>
      <trkpt lat="47.50741" lon="6.72224">
        <ele>362.6</ele>
        <time>2014-06-01T08:36:39.000Z</time>
      </trkpt>
      <trkpt lat="47.50744" lon="6.72225">
        <ele>362.4</ele>
        <time>2014-06-01T08:36:40.000Z</time>
      </trkpt>
      <trkpt lat="47.50747" lon="6.72226">
        <ele>362.5</ele>
        <time>2014-06-01T08:36:41.000Z</time>
      </trkpt>
      <trkpt lat="47.5075" lon="6.72227">
        <ele>362.6</ele>
        <time>2014-06-01T08:36:42.000Z</time>
      </trkpt>
      <trkpt lat="47.50752" lon="6.72229">
        <ele>362.7</ele>
        <time>2014-06-01T08:36:43.000Z</time>
      </trkpt>
      <trkpt lat="47.50755" lon="6.7223">
        <ele>362.9</ele>
        <time>2014-06-01T08:36:44.000Z</time>
      </trkpt>
      <trkpt lat="47.50758" lon="6.72231">
        <ele>363.1</ele>
        <time>2014-06-01T08:36:45.000Z</time>
      </trkpt>
      <trkpt lat="47.5076" lon="6.72233">
        <ele>363.1</ele>
        <time>2014-06-01T08:36:46.000Z</time>
      </trkpt>
      <trkpt lat="47.50763" lon="6.72234">
        <ele>363.2</ele>
        <time>2014-06-01T08:36:47.035Z</time>
      </trkpt>
      <trkpt lat="47.50766" lon="6.72236">
        <ele>363.2</ele>
        <time>2014-06-01T08:36:48.000Z</time>
      </trkpt>
      <trkpt lat="47.50768" lon="6.72237">
        <ele>363.7</ele>
        <time>2014-06-01T08:36:49.000Z</time>
      </trkpt>
      <trkpt lat="47.50771" lon="6.72238">
        <ele>363.6</ele>
        <time>2014-06-01T08:36:50.000Z</time>
      </trkpt>
      <trkpt lat="47.50774" lon="6.72239">
        <ele>363.4</ele>
        <time>2014-06-01T08:36:51.000Z</time>
      </trkpt>
      <trkpt lat="47.50776" lon="6.7224">
        <ele>363.8</ele>
        <time>2014-06-01T08:36:52.000Z</time>
      </trkpt>
      <trkpt lat="47.50779" lon="6.72241">
        <ele>364.1</ele>
        <time>2014-06-01T08:36:53.000Z</time>
      </trkpt>
      <trkpt lat="47.50781" lon="6.72243">
        <ele>363.9</ele>
        <time>2014-06-01T08:36:54.000Z</time>
      </trkpt>
      <trkpt lat="47.50784" lon="6.72244">
        <ele>364.8</ele>
        <time>2014-06-01T08:36:55.000Z</time>
      </trkpt>
      <trkpt lat="47.50786" lon="6.72245">
        <ele>364.7</ele>
        <time>2014-06-01T08:36:56.000Z</time>
      </trkpt>
      <trkpt lat="47.50789" lon="6.72246">
        <ele>364.4</ele>
        <time>2014-06-01T08:36:57.000Z</time>
      </trkpt>
      <trkpt lat="47.50792" lon="6.72247">
        <ele>364.5</ele>
        <time>2014-06-01T08:36:58.000Z</time>
      </trkpt>
      <trkpt lat="47.50811" lon="6.72259">
        <ele>366.8</ele>
        <time>2014-06-01T08:37:06.000Z</time>
      </trkpt>
      <trkpt lat="47.50815" lon="6.72259">
        <ele>367.6</ele>
        <time>2014-06-01T08:37:08.000Z</time>
      </trkpt>
      <trkpt lat="47.50817" lon="6.72259">
        <ele>367.8</ele>
        <time>2014-06-01T08:37:09.000Z</time>
      </trkpt>
      <trkpt lat="47.5082" lon="6.7226">
        <ele>369.8</ele>
        <time>2014-06-01T08:37:11.000Z</time>
      </trkpt>
      <trkpt lat="47.50822" lon="6.72261">
        <ele>370.4</ele>
        <time>2014-06-01T08:37:11.999Z</time>
      </trkpt>
      <trkpt lat="47.50826" lon="6.7226">
        <ele>376.5</ele>
        <time>2014-06-01T08:37:16.000Z</time>
      </trkpt>
      <trkpt lat="47.50828" lon="6.7226">
        <ele>376.9</ele>
        <time>2014-06-01T08:37:17.000Z</time>
      </trkpt>
      <trkpt lat="47.50831" lon="6.7226">
        <ele>377.6</ele>
        <time>2014-06-01T08:37:19.000Z</time>
      </trkpt>
      <trkpt lat="47.50833" lon="6.72261">
        <ele>378</ele>
        <time>2014-06-01T08:37:20.000Z</time>
      </trkpt>
      <trkpt lat="47.50837" lon="6.72262">
        <ele>379</ele>
        <time>2014-06-01T08:37:22.000Z</time>
      </trkpt>
      <trkpt lat="47.50839" lon="6.72264">
        <ele>379.6</ele>
        <time>2014-06-01T08:37:23.000Z</time>
      </trkpt>
      <trkpt lat="47.50842" lon="6.72267">
        <ele>385.7</ele>
        <time>2014-06-01T08:37:26.000Z</time>
      </trkpt>
      <trkpt lat="47.50844" lon="6.72266">
        <ele>387.8</ele>
        <time>2014-06-01T08:37:27.000Z</time>
      </trkpt>
      <trkpt lat="47.50845" lon="6.72261">
        <ele>391.2</ele>
        <time>2014-06-01T08:37:29.000Z</time>
      </trkpt>
      <trkpt lat="47.50846" lon="6.72259">
        <ele>394</ele>
        <time>2014-06-01T08:37:30.000Z</time>
      </trkpt>
      <trkpt lat="47.50848" lon="6.72256">
        <ele>395.2</ele>
        <time>2014-06-01T08:37:31.000Z</time>
      </trkpt>
      <trkpt lat="47.50849" lon="6.72253">
        <ele>395.9</ele>
        <time>2014-06-01T08:37:32.000Z</time>
      </trkpt>
      <trkpt lat="47.50851" lon="6.72251">
        <ele>396.6</ele>
        <time>2014-06-01T08:37:33.000Z</time>
      </trkpt>
      <trkpt lat="47.50853" lon="6.72249">
        <ele>397.4</ele>
        <time>2014-06-01T08:37:34.000Z</time>
      </trkpt>
      <trkpt lat="47.50854" lon="6.72246">
        <ele>397.3</ele>
        <time>2014-06-01T08:37:35.000Z</time>
      </trkpt>
      <trkpt lat="47.50856" lon="6.72244">
        <ele>397</ele>
        <time>2014-06-01T08:37:36.000Z</time>
      </trkpt>
      <trkpt lat="47.50857" lon="6.72241">
        <ele>397.2</ele>
        <time>2014-06-01T08:37:37.000Z</time>
      </trkpt>
      <trkpt lat="47.50859" lon="6.72238">
        <ele>403.4</ele>
        <time>2014-06-01T08:37:38.000Z</time>
      </trkpt>
      <trkpt lat="47.50861" lon="6.72234">
        <ele>404.7</ele>
        <time>2014-06-01T08:37:39.000Z</time>
      </trkpt>
      <trkpt lat="47.50863" lon="6.7223">
        <ele>406.8</ele>
        <time>2014-06-01T08:37:40.000Z</time>
      </trkpt>
      <trkpt lat="47.50866" lon="6.72226">
        <ele>408.2</ele>
        <time>2014-06-01T08:37:41.000Z</time>
      </trkpt>
      <trkpt lat="47.50868" lon="6.72222">
        <ele>410.2</ele>
        <time>2014-06-01T08:37:42.000Z</time>
      </trkpt>
      <trkpt lat="47.50871" lon="6.72218">
        <ele>410.6</ele>
        <time>2014-06-01T08:37:43.000Z</time>
      </trkpt>
      <trkpt lat="47.50874" lon="6.72214">
        <ele>411.3</ele>
        <time>2014-06-01T08:37:44.000Z</time>
      </trkpt>
      <trkpt lat="47.50876" lon="6.72211">
        <ele>411.3</ele>
        <time>2014-06-01T08:37:45.000Z</time>
      </trkpt>
      <trkpt lat="47.50878" lon="6.72207">
        <ele>410.8</ele>
        <time>2014-06-01T08:37:46.000Z</time>
      </trkpt>
      <trkpt lat="47.50881" lon="6.72203">
        <ele>410.3</ele>
        <time>2014-06-01T08:37:47.000Z</time>
      </trkpt>
      <trkpt lat="47.50882" lon="6.722">
        <ele>413.6</ele>
        <time>2014-06-01T08:37:48.000Z</time>
      </trkpt>
      <trkpt lat="47.50884" lon="6.72197">
        <ele>413.8</ele>
        <time>2014-06-01T08:37:49.000Z</time>
      </trkpt>
      <trkpt lat="47.50886" lon="6.72194">
        <ele>416.6</ele>
        <time>2014-06-01T08:37:50.000Z</time>
      </trkpt>
      <trkpt lat="47.50889" lon="6.72191">
        <ele>417.3</ele>
        <time>2014-06-01T08:37:51.000Z</time>
      </trkpt>
      <trkpt lat="47.50892" lon="6.72188">
        <ele>418.5</ele>
        <time>2014-06-01T08:37:52.000Z</time>
      </trkpt>
      <trkpt lat="47.50895" lon="6.72184">
        <ele>420</ele>
        <time>2014-06-01T08:37:53.000Z</time>
      </trkpt>
      <trkpt lat="47.50897" lon="6.72181">
        <ele>420.4</ele>
        <time>2014-06-01T08:37:54.000Z</time>
      </trkpt>
      <trkpt lat="47.50899" lon="6.72176">
        <ele>421.5</ele>
        <time>2014-06-01T08:37:55.000Z</time>
      </trkpt>
      <trkpt lat="47.50902" lon="6.72172">
        <ele>425.1</ele>
        <time>2014-06-01T08:37:56.000Z</time>
      </trkpt>
      <trkpt lat="47.50904" lon="6.72167">
        <ele>425.1</ele>
        <time>2014-06-01T08:37:57.000Z</time>
      </trkpt>
      <trkpt lat="47.50907" lon="6.72164">
        <ele>426.2</ele>
        <time>2014-06-01T08:37:58.000Z</time>
      </trkpt>
      <trkpt lat="47.50921" lon="6.72131">
        <ele>425.5</ele>
        <time>2014-06-01T08:38:06.000Z</time>
      </trkpt>
      <trkpt lat="47.50923" lon="6.72126">
        <ele>426.9</ele>
        <time>2014-06-01T08:38:07.000Z</time>
      </trkpt>
      <trkpt lat="47.50925" lon="6.72121">
        <ele>427.7</ele>
        <time>2014-06-01T08:38:08.000Z</time>
      </trkpt>
      <trkpt lat="47.50927" lon="6.72117">
        <ele>424.5</ele>
        <time>2014-06-01T08:38:09.000Z</time>
      </trkpt>
      <trkpt lat="47.50928" lon="6.72112">
        <ele>425.8</ele>
        <time>2014-06-01T08:38:10.000Z</time>
      </trkpt>
      <trkpt lat="47.5093" lon="6.72108">
        <ele>426.3</ele>
        <time>2014-06-01T08:38:11.000Z</time>
      </trkpt>
      <trkpt lat="47.50931" lon="6.72105">
        <ele>426.4</ele>
        <time>2014-06-01T08:38:12.000Z</time>
      </trkpt>
      <trkpt lat="47.50933" lon="6.72101">
        <ele>425.6</ele>
        <time>2014-06-01T08:38:13.000Z</time>
      </trkpt>
      <trkpt lat="47.50934" lon="6.72098">
        <ele>427.7</ele>
        <time>2014-06-01T08:38:14.000Z</time>
      </trkpt>
      <trkpt lat="47.50935" lon="6.72094">
        <ele>428.1</ele>
        <time>2014-06-01T08:38:15.000Z</time>
      </trkpt>
      <trkpt lat="47.50936" lon="6.72091">
        <ele>430</ele>
        <time>2014-06-01T08:38:16.000Z</time>
      </trkpt>
      <trkpt lat="47.50938" lon="6.72087">
        <ele>426.7</ele>
        <time>2014-06-01T08:38:17.000Z</time>
      </trkpt>
      <trkpt lat="47.50939" lon="6.72082">
        <ele>424.1</ele>
        <time>2014-06-01T08:38:18.000Z</time>
      </trkpt>
      <trkpt lat="47.5094" lon="6.72078">
        <ele>423.6</ele>
        <time>2014-06-01T08:38:19.000Z</time>
      </trkpt>
      <trkpt lat="47.50941" lon="6.72073">
        <ele>423.3</ele>
        <time>2014-06-01T08:38:20.000Z</time>
      </trkpt>
      <trkpt lat="47.50943" lon="6.72069">
        <ele>423.8</ele>
        <time>2014-06-01T08:38:21.000Z</time>
      </trkpt>
      <trkpt lat="47.50944" lon="6.72066">
        <ele>424.6</ele>
        <time>2014-06-01T08:38:22.000Z</time>
      </trkpt>
      <trkpt lat="47.50946" lon="6.72063">
        <ele>425.7</ele>
        <time>2014-06-01T08:38:23.000Z</time>
      </trkpt>
      <trkpt lat="47.50947" lon="6.7206">
        <ele>426.2</ele>
        <time>2014-06-01T08:38:24.000Z</time>
      </trkpt>
      <trkpt lat="47.5095" lon="6.72055">
        <ele>426.9</ele>
        <time>2014-06-01T08:38:26.000Z</time>
      </trkpt>
      <trkpt lat="47.50951" lon="6.72053">
        <ele>427</ele>
        <time>2014-06-01T08:38:27.000Z</time>
      </trkpt>
      <trkpt lat="47.50952" lon="6.7205">
        <ele>427.4</ele>
        <time>2014-06-01T08:38:28.000Z</time>
      </trkpt>
      <trkpt lat="47.50953" lon="6.72047">
        <ele>427.7</ele>
        <time>2014-06-01T08:38:29.000Z</time>
      </trkpt>
      <trkpt lat="47.50954" lon="6.72044">
        <ele>424.5</ele>
        <time>2014-06-01T08:38:30.000Z</time>
      </trkpt>
      <trkpt lat="47.50956" lon="6.72041">
        <ele>423.4</ele>
        <time>2014-06-01T08:38:31.000Z</time>
      </trkpt>
      <trkpt lat="47.50958" lon="6.72035">
        <ele>421.8</ele>
        <time>2014-06-01T08:38:33.000Z</time>
      </trkpt>
      <trkpt lat="47.50959" lon="6.72033">
        <ele>421.4</ele>
        <time>2014-06-01T08:38:34.000Z</time>
      </trkpt>
      <trkpt lat="47.5096" lon="6.72027">
        <ele>424.9</ele>
        <time>2014-06-01T08:38:36.000Z</time>
      </trkpt>
      <trkpt lat="47.50961" lon="6.72023">
        <ele>425.7</ele>
        <time>2014-06-01T08:38:37.000Z</time>
      </trkpt>
      <trkpt lat="47.50962" lon="6.72018">
        <ele>430.5</ele>
        <time>2014-06-01T08:38:39.000Z</time>
      </trkpt>
      <trkpt lat="47.50962" lon="6.72017">
        <ele>429.8</ele>
        <time>2014-06-01T08:38:40.000Z</time>
      </trkpt>
      <trkpt lat="47.50963" lon="6.72011">
        <ele>430.1</ele>
        <time>2014-06-01T08:38:43.000Z</time>
      </trkpt>
      <trkpt lat="47.50963" lon="6.72009">
        <ele>427.2</ele>
        <time>2014-06-01T08:38:44.000Z</time>
      </trkpt>
      <trkpt lat="47.50964" lon="6.72003">
        <ele>426.9</ele>
        <time>2014-06-01T08:38:46.000Z</time>
      </trkpt>
      <trkpt lat="47.50965" lon="6.72">
        <ele>426.5</ele>
        <time>2014-06-01T08:38:47.000Z</time>
      </trkpt>
      <trkpt lat="47.50966" lon="6.71994">
        <ele>423.1</ele>
        <time>2014-06-01T08:38:49.000Z</time>
      </trkpt>
      <trkpt lat="47.50966" lon="6.71992">
        <ele>421.7</ele>
        <time>2014-06-01T08:38:50.000Z</time>
      </trkpt>
      <trkpt lat="47.50966" lon="6.71987">
        <ele>422.6</ele>
        <time>2014-06-01T08:38:53.000Z</time>
      </trkpt>
      <trkpt lat="47.50966" lon="6.71985">
        <ele>422.9</ele>
        <time>2014-06-01T08:38:54.000Z</time>
      </trkpt>
      <trkpt lat="47.50966" lon="6.7198">
        <ele>422.4</ele>
        <time>2014-06-01T08:38:57.000Z</time>
      </trkpt>
      <trkpt lat="47.50966" lon="6.71973">
        <ele>418.8</ele>
        <time>2014-06-01T08:39:00.000Z</time>
      </trkpt>
      <trkpt lat="47.50963" lon="6.71971">
        <ele>417.7</ele>
        <time>2014-06-01T08:39:15.000Z</time>
      </trkpt>
      <trkpt lat="47.50962" lon="6.71968">
        <ele>417.2</ele>
        <time>2014-06-01T08:39:16.000Z</time>
      </trkpt>
      <trkpt lat="47.50961" lon="6.71965">
        <ele>417</ele>
        <time>2014-06-01T08:39:17.000Z</time>
      </trkpt>
      <trkpt lat="47.50961" lon="6.71962">
        <ele>417</ele>
        <time>2014-06-01T08:39:18.000Z</time>
      </trkpt>
      <trkpt lat="47.5096" lon="6.71956">
        <ele>418.8</ele>
        <time>2014-06-01T08:39:20.000Z</time>
      </trkpt>
      <trkpt lat="47.50959" lon="6.71955">
        <ele>416.8</ele>
        <time>2014-06-01T08:39:21.000Z</time>
      </trkpt>
      <trkpt lat="47.50957" lon="6.71951">
        <ele>417.1</ele>
        <time>2014-06-01T08:39:23.000Z</time>
      </trkpt>
      <trkpt lat="47.50955" lon="6.71948">
        <ele>417.7</ele>
        <time>2014-06-01T08:39:24.000Z</time>
      </trkpt>
      <trkpt lat="47.50954" lon="6.71944">
        <ele>415.9</ele>
        <time>2014-06-01T08:39:25.000Z</time>
      </trkpt>
      <trkpt lat="47.50954" lon="6.71939">
        <ele>415.9</ele>
        <time>2014-06-01T08:39:26.000Z</time>
      </trkpt>
      <trkpt lat="47.50954" lon="6.71935">
        <ele>415.3</ele>
        <time>2014-06-01T08:39:27.000Z</time>
      </trkpt>
      <trkpt lat="47.50953" lon="6.71931">
        <ele>414.6</ele>
        <time>2014-06-01T08:39:28.000Z</time>
      </trkpt>
      <trkpt lat="47.50953" lon="6.71924">
        <ele>415.8</ele>
        <time>2014-06-01T08:39:30.000Z</time>
      </trkpt>
      <trkpt lat="47.50953" lon="6.71922">
        <ele>413.7</ele>
        <time>2014-06-01T08:39:31.000Z</time>
      </trkpt>
      <trkpt lat="47.50951" lon="6.71917">
        <ele>412.9</ele>
        <time>2014-06-01T08:39:33.000Z</time>
      </trkpt>
      <trkpt lat="47.5095" lon="6.71915">
        <ele>413.2</ele>
        <time>2014-06-01T08:39:34.000Z</time>
      </trkpt>
      <trkpt lat="47.50949" lon="6.71912">
        <ele>413.2</ele>
        <time>2014-06-01T08:39:35.000Z</time>
      </trkpt>
      <trkpt lat="47.50947" lon="6.71908">
        <ele>413.5</ele>
        <time>2014-06-01T08:39:36.000Z</time>
      </trkpt>
      <trkpt lat="47.50946" lon="6.71904">
        <ele>413.4</ele>
        <time>2014-06-01T08:39:37.000Z</time>
      </trkpt>
      <trkpt lat="47.50945" lon="6.719">
        <ele>413.1</ele>
        <time>2014-06-01T08:39:38.000Z</time>
      </trkpt>
      <trkpt lat="47.50943" lon="6.71897">
        <ele>411.1</ele>
        <time>2014-06-01T08:39:39.000Z</time>
      </trkpt>
      <trkpt lat="47.50941" lon="6.71893">
        <ele>411.2</ele>
        <time>2014-06-01T08:39:40.000Z</time>
      </trkpt>
      <trkpt lat="47.50939" lon="6.71887">
        <ele>412.4</ele>
        <time>2014-06-01T08:39:42.000Z</time>
      </trkpt>
      <trkpt lat="47.50939" lon="6.71884">
        <ele>412.5</ele>
        <time>2014-06-01T08:39:43.000Z</time>
      </trkpt>
      <trkpt lat="47.50938" lon="6.7188">
        <ele>412.9</ele>
        <time>2014-06-01T08:39:44.000Z</time>
      </trkpt>
      <trkpt lat="47.50937" lon="6.71876">
        <ele>413.6</ele>
        <time>2014-06-01T08:39:45.000Z</time>
      </trkpt>
      <trkpt lat="47.50935" lon="6.71873">
        <ele>414.6</ele>
        <time>2014-06-01T08:39:46.000Z</time>
      </trkpt>
      <trkpt lat="47.50934" lon="6.7187">
        <ele>415.7</ele>
        <time>2014-06-01T08:39:47.000Z</time>
      </trkpt>
      <trkpt lat="47.50933" lon="6.71866">
        <ele>415.4</ele>
        <time>2014-06-01T08:39:48.000Z</time>
      </trkpt>
      <trkpt lat="47.50931" lon="6.71863">
        <ele>415.3</ele>
        <time>2014-06-01T08:39:49.000Z</time>
      </trkpt>
      <trkpt lat="47.5093" lon="6.71859">
        <ele>415.3</ele>
        <time>2014-06-01T08:39:50.000Z</time>
      </trkpt>
      <trkpt lat="47.50929" lon="6.71855">
        <ele>415.4</ele>
        <time>2014-06-01T08:39:51.000Z</time>
      </trkpt>
      <trkpt lat="47.50928" lon="6.71849">
        <ele>414.8</ele>
        <time>2014-06-01T08:39:52.000Z</time>
      </trkpt>
      <trkpt lat="47.50927" lon="6.71843">
        <ele>413.6</ele>
        <time>2014-06-01T08:39:53.000Z</time>
      </trkpt>
      <trkpt lat="47.50926" lon="6.71837">
        <ele>414</ele>
        <time>2014-06-01T08:39:54.000Z</time>
      </trkpt>
      <trkpt lat="47.50925" lon="6.71831">
        <ele>413</ele>
        <time>2014-06-01T08:39:55.000Z</time>
      </trkpt>
      <trkpt lat="47.50924" lon="6.71825">
        <ele>414.9</ele>
        <time>2014-06-01T08:39:56.000Z</time>
      </trkpt>
      <trkpt lat="47.50924" lon="6.71819">
        <ele>414.7</ele>
        <time>2014-06-01T08:39:57.000Z</time>
      </trkpt>
      <trkpt lat="47.50924" lon="6.71814">
        <ele>417.7</ele>
        <time>2014-06-01T08:39:58.000Z</time>
      </trkpt>
      <trkpt lat="47.50923" lon="6.718">
        <ele>418.4</ele>
        <time>2014-06-01T08:40:01.000Z</time>
      </trkpt>
      <trkpt lat="47.50921" lon="6.71796">
        <ele>416</ele>
        <time>2014-06-01T08:40:02.000Z</time>
      </trkpt>
      <trkpt lat="47.50918" lon="6.71792">
        <ele>414.9</ele>
        <time>2014-06-01T08:40:03.000Z</time>
      </trkpt>
      <trkpt lat="47.50915" lon="6.71789">
        <ele>418.1</ele>
        <time>2014-06-01T08:40:04.000Z</time>
      </trkpt>
      <trkpt lat="47.50912" lon="6.71785">
        <ele>417.6</ele>
        <time>2014-06-01T08:40:05.000Z</time>
      </trkpt>
      <trkpt lat="47.50908" lon="6.71781">
        <ele>418.1</ele>
        <time>2014-06-01T08:40:06.000Z</time>
      </trkpt>
      <trkpt lat="47.50905" lon="6.71777">
        <ele>418.4</ele>
        <time>2014-06-01T08:40:07.000Z</time>
      </trkpt>
      <trkpt lat="47.50901" lon="6.71772">
        <ele>418.2</ele>
        <time>2014-06-01T08:40:08.000Z</time>
      </trkpt>
      <trkpt lat="47.50898" lon="6.71767">
        <ele>417.6</ele>
        <time>2014-06-01T08:40:09.000Z</time>
      </trkpt>
      <trkpt lat="47.50893" lon="6.71756">
        <ele>413.6</ele>
        <time>2014-06-01T08:40:10.000Z</time>
      </trkpt>
      <trkpt lat="47.50893" lon="6.71748">
        <ele>411.6</ele>
        <time>2014-06-01T08:40:11.000Z</time>
      </trkpt>
      <trkpt lat="47.50891" lon="6.71742">
        <ele>410.5</ele>
        <time>2014-06-01T08:40:12.000Z</time>
      </trkpt>
      <trkpt lat="47.5089" lon="6.71737">
        <ele>409.9</ele>
        <time>2014-06-01T08:40:13.000Z</time>
      </trkpt>
      <trkpt lat="47.50883" lon="6.71741">
        <ele>408.9</ele>
        <time>2014-06-01T08:40:14.000Z</time>
      </trkpt>
      <trkpt lat="47.50882" lon="6.71733">
        <ele>405.2</ele>
        <time>2014-06-01T08:40:15.000Z</time>
      </trkpt>
      <trkpt lat="47.50878" lon="6.7173">
        <ele>405.2</ele>
        <time>2014-06-01T08:40:16.000Z</time>
      </trkpt>
      <trkpt lat="47.50875" lon="6.71726">
        <ele>407.8</ele>
        <time>2014-06-01T08:40:17.000Z</time>
      </trkpt>
      <trkpt lat="47.50872" lon="6.71723">
        <ele>407.9</ele>
        <time>2014-06-01T08:40:18.000Z</time>
      </trkpt>
      <trkpt lat="47.50871" lon="6.7172">
        <ele>407.2</ele>
        <time>2014-06-01T08:40:19.000Z</time>
      </trkpt>
      <trkpt lat="47.50866" lon="6.71719">
        <ele>406.5</ele>
        <time>2014-06-01T08:40:21.000Z</time>
      </trkpt>
      <trkpt lat="47.50865" lon="6.71719">
        <ele>406.6</ele>
        <time>2014-06-01T08:40:22.000Z</time>
      </trkpt>
      <trkpt lat="47.50862" lon="6.71721">
        <ele>405.4</ele>
        <time>2014-06-01T08:40:24.000Z</time>
      </trkpt>
      <trkpt lat="47.50861" lon="6.71722">
        <ele>404.4</ele>
        <time>2014-06-01T08:40:25.000Z</time>
      </trkpt>
      <trkpt lat="47.50858" lon="6.71723">
        <ele>403.5</ele>
        <time>2014-06-01T08:40:26.000Z</time>
      </trkpt>
      <trkpt lat="47.50855" lon="6.71722">
        <ele>401.8</ele>
        <time>2014-06-01T08:40:27.000Z</time>
      </trkpt>
      <trkpt lat="47.50851" lon="6.7172">
        <ele>401</ele>
        <time>2014-06-01T08:40:28.000Z</time>
      </trkpt>
      <trkpt lat="47.50847" lon="6.71717">
        <ele>401.4</ele>
        <time>2014-06-01T08:40:29.000Z</time>
      </trkpt>
      <trkpt lat="47.50835" lon="6.71712">
        <ele>404.3</ele>
        <time>2014-06-01T08:40:30.000Z</time>
      </trkpt>
      <trkpt lat="47.50831" lon="6.71711">
        <ele>403.4</ele>
        <time>2014-06-01T08:40:31.000Z</time>
      </trkpt>
      <trkpt lat="47.50826" lon="6.7171">
        <ele>402.6</ele>
        <time>2014-06-01T08:40:32.000Z</time>
      </trkpt>
      <trkpt lat="47.50822" lon="6.7171">
        <ele>402.2</ele>
        <time>2014-06-01T08:40:33.000Z</time>
      </trkpt>
      <trkpt lat="47.50818" lon="6.7171">
        <ele>402.5</ele>
        <time>2014-06-01T08:40:34.050Z</time>
      </trkpt>
      <trkpt lat="47.50813" lon="6.71707">
        <ele>398.6</ele>
        <time>2014-06-01T08:40:35.000Z</time>
      </trkpt>
      <trkpt lat="47.50809" lon="6.71706">
        <ele>398.3</ele>
        <time>2014-06-01T08:40:36.000Z</time>
      </trkpt>
      <trkpt lat="47.50806" lon="6.71706">
        <ele>397.9</ele>
        <time>2014-06-01T08:40:37.000Z</time>
      </trkpt>
      <trkpt lat="47.50803" lon="6.71705">
        <ele>397.7</ele>
        <time>2014-06-01T08:40:39.000Z</time>
      </trkpt>
      <trkpt lat="47.50801" lon="6.71703">
        <ele>396.2</ele>
        <time>2014-06-01T08:40:40.000Z</time>
      </trkpt>
      <trkpt lat="47.50798" lon="6.71701">
        <ele>396.6</ele>
        <time>2014-06-01T08:40:42.000Z</time>
      </trkpt>
      <trkpt lat="47.50796" lon="6.717">
        <ele>396.7</ele>
        <time>2014-06-01T08:40:43.000Z</time>
      </trkpt>
      <trkpt lat="47.50795" lon="6.71694">
        <ele>392</ele>
        <time>2014-06-01T08:40:46.000Z</time>
      </trkpt>
      <trkpt lat="47.50795" lon="6.71692">
        <ele>391.7</ele>
        <time>2014-06-01T08:40:47.000Z</time>
      </trkpt>
      <trkpt lat="47.50799" lon="6.71689">
        <ele>389.2</ele>
        <time>2014-06-01T08:40:50.000Z</time>
      </trkpt>
      <trkpt lat="47.50801" lon="6.71689">
        <ele>389</ele>
        <time>2014-06-01T08:40:51.000Z</time>
      </trkpt>
      <trkpt lat="47.50805" lon="6.71687">
        <ele>388.5</ele>
        <time>2014-06-01T08:40:53.000Z</time>
      </trkpt>
      <trkpt lat="47.50806" lon="6.71685">
        <ele>390.6</ele>
        <time>2014-06-01T08:40:54.000Z</time>
      </trkpt>
      <trkpt lat="47.50808" lon="6.7168">
        <ele>389.8</ele>
        <time>2014-06-01T08:40:56.000Z</time>
      </trkpt>
      <trkpt lat="47.50809" lon="6.71677">
        <ele>387.1</ele>
        <time>2014-06-01T08:40:57.000Z</time>
      </trkpt>
      <trkpt lat="47.50809" lon="6.71674">
        <ele>387.5</ele>
        <time>2014-06-01T08:40:58.000Z</time>
      </trkpt>
      <trkpt lat="47.50806" lon="6.71643">
        <ele>389.2</ele>
        <time>2014-06-01T08:41:06.000Z</time>
      </trkpt>
      <trkpt lat="47.50806" lon="6.71638">
        <ele>389.8</ele>
        <time>2014-06-01T08:41:07.000Z</time>
      </trkpt>
      <trkpt lat="47.50806" lon="6.71632">
        <ele>392.4</ele>
        <time>2014-06-01T08:41:08.000Z</time>
      </trkpt>
      <trkpt lat="47.50806" lon="6.71625">
        <ele>392.8</ele>
        <time>2014-06-01T08:41:09.000Z</time>
      </trkpt>
      <trkpt lat="47.50807" lon="6.71618">
        <ele>394.3</ele>
        <time>2014-06-01T08:41:10.000Z</time>
      </trkpt>
      <trkpt lat="47.50808" lon="6.7161">
        <ele>395.3</ele>
        <time>2014-06-01T08:41:11.000Z</time>
      </trkpt>
      <trkpt lat="47.50809" lon="6.71603">
        <ele>395.6</ele>
        <time>2014-06-01T08:41:12.000Z</time>
      </trkpt>
      <trkpt lat="47.5081" lon="6.71597">
        <ele>396.1</ele>
        <time>2014-06-01T08:41:13.000Z</time>
      </trkpt>
      <trkpt lat="47.50811" lon="6.71591">
        <ele>396.5</ele>
        <time>2014-06-01T08:41:14.000Z</time>
      </trkpt>
      <trkpt lat="47.50811" lon="6.71586">
        <ele>396.7</ele>
        <time>2014-06-01T08:41:15.000Z</time>
      </trkpt>
      <trkpt lat="47.50812" lon="6.71581">
        <ele>397.4</ele>
        <time>2014-06-01T08:41:16.000Z</time>
      </trkpt>
      <trkpt lat="47.50812" lon="6.71576">
        <ele>396.9</ele>
        <time>2014-06-01T08:41:17.000Z</time>
      </trkpt>
      <trkpt lat="47.50813" lon="6.71571">
        <ele>398.2</ele>
        <time>2014-06-01T08:41:18.000Z</time>
      </trkpt>
      <trkpt lat="47.50813" lon="6.71566">
        <ele>398.9</ele>
        <time>2014-06-01T08:41:19.000Z</time>
      </trkpt>
      <trkpt lat="47.50813" lon="6.7156">
        <ele>399.2</ele>
        <time>2014-06-01T08:41:20.000Z</time>
      </trkpt>
      <trkpt lat="47.50814" lon="6.71554">
        <ele>400</ele>
        <time>2014-06-01T08:41:21.000Z</time>
      </trkpt>
      <trkpt lat="47.50814" lon="6.71548">
        <ele>400.4</ele>
        <time>2014-06-01T08:41:22.000Z</time>
      </trkpt>
      <trkpt lat="47.50815" lon="6.71543">
        <ele>399.9</ele>
        <time>2014-06-01T08:41:23.000Z</time>
      </trkpt>
      <trkpt lat="47.50816" lon="6.71538">
        <ele>398.9</ele>
        <time>2014-06-01T08:41:24.000Z</time>
      </trkpt>
      <trkpt lat="47.50817" lon="6.71532">
        <ele>397.5</ele>
        <time>2014-06-01T08:41:26.000Z</time>
      </trkpt>
      <trkpt lat="47.50817" lon="6.71529">
        <ele>398.4</ele>
        <time>2014-06-01T08:41:27.000Z</time>
      </trkpt>
      <trkpt lat="47.50817" lon="6.71523">
        <ele>400.2</ele>
        <time>2014-06-01T08:41:29.000Z</time>
      </trkpt>
      <trkpt lat="47.50817" lon="6.71519">
        <ele>399.8</ele>
        <time>2014-06-01T08:41:30.000Z</time>
      </trkpt>
      <trkpt lat="47.50818" lon="6.71515">
        <ele>400.8</ele>
        <time>2014-06-01T08:41:31.000Z</time>
      </trkpt>
      <trkpt lat="47.50819" lon="6.71511">
        <ele>402.5</ele>
        <time>2014-06-01T08:41:32.000Z</time>
      </trkpt>
      <trkpt lat="47.5082" lon="6.71506">
        <ele>402.4</ele>
        <time>2014-06-01T08:41:33.000Z</time>
      </trkpt>
      <trkpt lat="47.50822" lon="6.71502">
        <ele>404.3</ele>
        <time>2014-06-01T08:41:34.000Z</time>
      </trkpt>
      <trkpt lat="47.50823" lon="6.71497">
        <ele>405.6</ele>
        <time>2014-06-01T08:41:35.000Z</time>
      </trkpt>
      <trkpt lat="47.50824" lon="6.71492">
        <ele>406.2</ele>
        <time>2014-06-01T08:41:36.000Z</time>
      </trkpt>
      <trkpt lat="47.50825" lon="6.71487">
        <ele>408.6</ele>
        <time>2014-06-01T08:41:37.000Z</time>
      </trkpt>
      <trkpt lat="47.50826" lon="6.71483">
        <ele>409.2</ele>
        <time>2014-06-01T08:41:38.000Z</time>
      </trkpt>
      <trkpt lat="47.50827" lon="6.71479">
        <ele>410.1</ele>
        <time>2014-06-01T08:41:39.000Z</time>
      </trkpt>
      <trkpt lat="47.50828" lon="6.71475">
        <ele>410.2</ele>
        <time>2014-06-01T08:41:40.000Z</time>
      </trkpt>
      <trkpt lat="47.50828" lon="6.71471">
        <ele>410.5</ele>
        <time>2014-06-01T08:41:41.000Z</time>
      </trkpt>
      <trkpt lat="47.50829" lon="6.71467">
        <ele>410.7</ele>
        <time>2014-06-01T08:41:42.000Z</time>
      </trkpt>
      <trkpt lat="47.50829" lon="6.71462">
        <ele>410.8</ele>
        <time>2014-06-01T08:41:43.000Z</time>
      </trkpt>
      <trkpt lat="47.5083" lon="6.71457">
        <ele>412.6</ele>
        <time>2014-06-01T08:41:44.000Z</time>
      </trkpt>
      <trkpt lat="47.50831" lon="6.71452">
        <ele>413.2</ele>
        <time>2014-06-01T08:41:45.000Z</time>
      </trkpt>
      <trkpt lat="47.50832" lon="6.71447">
        <ele>413.8</ele>
        <time>2014-06-01T08:41:46.000Z</time>
      </trkpt>
      <trkpt lat="47.50832" lon="6.71443">
        <ele>419.2</ele>
        <time>2014-06-01T08:41:47.000Z</time>
      </trkpt>
      <trkpt lat="47.50833" lon="6.71439">
        <ele>419.4</ele>
        <time>2014-06-01T08:41:48.000Z</time>
      </trkpt>
      <trkpt lat="47.50832" lon="6.71435">
        <ele>421.4</ele>
        <time>2014-06-01T08:41:49.000Z</time>
      </trkpt>
      <trkpt lat="47.50833" lon="6.71431">
        <ele>421.5</ele>
        <time>2014-06-01T08:41:50.000Z</time>
      </trkpt>
      <trkpt lat="47.50833" lon="6.71427">
        <ele>421.7</ele>
        <time>2014-06-01T08:41:51.000Z</time>
      </trkpt>
      <trkpt lat="47.50834" lon="6.71424">
        <ele>422</ele>
        <time>2014-06-01T08:41:52.000Z</time>
      </trkpt>
      <trkpt lat="47.50836" lon="6.71419">
        <ele>421.6</ele>
        <time>2014-06-01T08:41:54.000Z</time>
      </trkpt>
      <trkpt lat="47.50837" lon="6.71417">
        <ele>422.7</ele>
        <time>2014-06-01T08:41:55.000Z</time>
      </trkpt>
      <trkpt lat="47.50839" lon="6.71413">
        <ele>420.4</ele>
        <time>2014-06-01T08:41:56.000Z</time>
      </trkpt>
      <trkpt lat="47.50841" lon="6.71409">
        <ele>420.3</ele>
        <time>2014-06-01T08:41:57.000Z</time>
      </trkpt>
      <trkpt lat="47.50846" lon="6.71395">
        <ele>417.5</ele>
        <time>2014-06-01T08:42:00.000Z</time>
      </trkpt>
      <trkpt lat="47.50848" lon="6.71389">
        <ele>417.1</ele>
        <time>2014-06-01T08:42:01.000Z</time>
      </trkpt>
      <trkpt lat="47.50849" lon="6.71384">
        <ele>416.2</ele>
        <time>2014-06-01T08:42:02.000Z</time>
      </trkpt>
      <trkpt lat="47.50851" lon="6.71379">
        <ele>415.2</ele>
        <time>2014-06-01T08:42:03.000Z</time>
      </trkpt>
      <trkpt lat="47.50852" lon="6.71374">
        <ele>417.9</ele>
        <time>2014-06-01T08:42:04.000Z</time>
      </trkpt>
      <trkpt lat="47.50853" lon="6.71371">
        <ele>420</ele>
        <time>2014-06-01T08:42:04.998Z</time>
      </trkpt>
      <trkpt lat="47.50854" lon="6.71364">
        <ele>416.4</ele>
        <time>2014-06-01T08:42:06.000Z</time>
      </trkpt>
      <trkpt lat="47.50856" lon="6.71359">
        <ele>415.4</ele>
        <time>2014-06-01T08:42:07.000Z</time>
      </trkpt>
      <trkpt lat="47.50857" lon="6.71355">
        <ele>417.3</ele>
        <time>2014-06-01T08:42:08.000Z</time>
      </trkpt>
      <trkpt lat="47.50857" lon="6.71351">
        <ele>419</ele>
        <time>2014-06-01T08:42:09.000Z</time>
      </trkpt>
      <trkpt lat="47.50858" lon="6.71348">
        <ele>419.9</ele>
        <time>2014-06-01T08:42:10.000Z</time>
      </trkpt>
      <trkpt lat="47.50859" lon="6.71345">
        <ele>420.2</ele>
        <time>2014-06-01T08:42:11.000Z</time>
      </trkpt>
      <trkpt lat="47.50859" lon="6.71341">
        <ele>419.7</ele>
        <time>2014-06-01T08:42:12.000Z</time>
      </trkpt>
      <trkpt lat="47.5086" lon="6.71337">
        <ele>420</ele>
        <time>2014-06-01T08:42:13.000Z</time>
      </trkpt>
      <trkpt lat="47.50861" lon="6.71332">
        <ele>420</ele>
        <time>2014-06-01T08:42:14.000Z</time>
      </trkpt>
      <trkpt lat="47.50862" lon="6.71328">
        <ele>421</ele>
        <time>2014-06-01T08:42:15.000Z</time>
      </trkpt>
      <trkpt lat="47.50864" lon="6.71325">
        <ele>421.7</ele>
        <time>2014-06-01T08:42:16.000Z</time>
      </trkpt>
      <trkpt lat="47.50865" lon="6.71321">
        <ele>421.3</ele>
        <time>2014-06-01T08:42:17.000Z</time>
      </trkpt>
      <trkpt lat="47.50867" lon="6.71318">
        <ele>421.4</ele>
        <time>2014-06-01T08:42:18.000Z</time>
      </trkpt>
      <trkpt lat="47.50868" lon="6.71315">
        <ele>421.9</ele>
        <time>2014-06-01T08:42:19.000Z</time>
      </trkpt>
      <trkpt lat="47.50869" lon="6.71311">
        <ele>421.6</ele>
        <time>2014-06-01T08:42:20.000Z</time>
      </trkpt>
      <trkpt lat="47.5087" lon="6.71305">
        <ele>425.4</ele>
        <time>2014-06-01T08:42:22.000Z</time>
      </trkpt>
      <trkpt lat="47.50871" lon="6.71303">
        <ele>429.1</ele>
        <time>2014-06-01T08:42:23.000Z</time>
      </trkpt>
      <trkpt lat="47.50871" lon="6.71299">
        <ele>431.5</ele>
        <time>2014-06-01T08:42:25.000Z</time>
      </trkpt>
      <trkpt lat="47.50871" lon="6.71296">
        <ele>433</ele>
        <time>2014-06-01T08:42:26.000Z</time>
      </trkpt>
      <trkpt lat="47.50872" lon="6.71293">
        <ele>433</ele>
        <time>2014-06-01T08:42:27.000Z</time>
      </trkpt>
      <trkpt lat="47.50873" lon="6.7129">
        <ele>433.1</ele>
        <time>2014-06-01T08:42:28.000Z</time>
      </trkpt>
      <trkpt lat="47.50874" lon="6.71286">
        <ele>432.9</ele>
        <time>2014-06-01T08:42:29.000Z</time>
      </trkpt>
      <trkpt lat="47.50874" lon="6.71283">
        <ele>432.4</ele>
        <time>2014-06-01T08:42:30.000Z</time>
      </trkpt>
      <trkpt lat="47.50875" lon="6.71277">
        <ele>434.5</ele>
        <time>2014-06-01T08:42:32.000Z</time>
      </trkpt>
      <trkpt lat="47.50875" lon="6.71273">
        <ele>436.2</ele>
        <time>2014-06-01T08:42:33.000Z</time>
      </trkpt>
      <trkpt lat="47.50875" lon="6.7127">
        <ele>437.2</ele>
        <time>2014-06-01T08:42:34.000Z</time>
      </trkpt>
      <trkpt lat="47.50875" lon="6.71266">
        <ele>437.1</ele>
        <time>2014-06-01T08:42:35.000Z</time>
      </trkpt>
      <trkpt lat="47.50875" lon="6.71262">
        <ele>436.9</ele>
        <time>2014-06-01T08:42:36.000Z</time>
      </trkpt>
      <trkpt lat="47.50875" lon="6.71259">
        <ele>437.7</ele>
        <time>2014-06-01T08:42:37.000Z</time>
      </trkpt>
      <trkpt lat="47.50877" lon="6.71253">
        <ele>435.9</ele>
        <time>2014-06-01T08:42:42.000Z</time>
      </trkpt>
      <trkpt lat="47.50877" lon="6.71252">
        <ele>435.8</ele>
        <time>2014-06-01T08:42:43.000Z</time>
      </trkpt>
      <trkpt lat="47.50878" lon="6.71247">
        <ele>434.8</ele>
        <time>2014-06-01T08:42:46.000Z</time>
      </trkpt>
      <trkpt lat="47.50878" lon="6.71245">
        <ele>434.5</ele>
        <time>2014-06-01T08:42:47.000Z</time>
      </trkpt>
      <trkpt lat="47.50879" lon="6.71242">
        <ele>433.8</ele>
        <time>2014-06-01T08:42:48.000Z</time>
      </trkpt>
      <trkpt lat="47.50881" lon="6.71239">
        <ele>431.6</ele>
        <time>2014-06-01T08:42:49.000Z</time>
      </trkpt>
      <trkpt lat="47.50882" lon="6.71237">
        <ele>431.1</ele>
        <time>2014-06-01T08:42:50.000Z</time>
      </trkpt>
      <trkpt lat="47.50885" lon="6.71233">
        <ele>425</ele>
        <time>2014-06-01T08:42:51.000Z</time>
      </trkpt>
      <trkpt lat="47.50887" lon="6.71231">
        <ele>421.8</ele>
        <time>2014-06-01T08:42:52.000Z</time>
      </trkpt>
      <trkpt lat="47.5089" lon="6.71228">
        <ele>422</ele>
        <time>2014-06-01T08:42:53.000Z</time>
      </trkpt>
      <trkpt lat="47.50892" lon="6.71226">
        <ele>421.8</ele>
        <time>2014-06-01T08:42:54.000Z</time>
      </trkpt>
      <trkpt lat="47.50894" lon="6.71224">
        <ele>420.4</ele>
        <time>2014-06-01T08:42:55.000Z</time>
      </trkpt>
      <trkpt lat="47.50896" lon="6.71222">
        <ele>417.8</ele>
        <time>2014-06-01T08:42:56.000Z</time>
      </trkpt>
      <trkpt lat="47.50898" lon="6.71221">
        <ele>416.7</ele>
        <time>2014-06-01T08:42:57.000Z</time>
      </trkpt>
      <trkpt lat="47.50904" lon="6.71217">
        <ele>411</ele>
        <time>2014-06-01T08:43:00.000Z</time>
      </trkpt>
      <trkpt lat="47.50908" lon="6.71215">
        <ele>412.8</ele>
        <time>2014-06-01T08:43:02.000Z</time>
      </trkpt>
      <trkpt lat="47.5091" lon="6.71214">
        <ele>412</ele>
        <time>2014-06-01T08:43:03.000Z</time>
      </trkpt>
      <trkpt lat="47.50914" lon="6.71212">
        <ele>410.2</ele>
        <time>2014-06-01T08:43:05.000Z</time>
      </trkpt>
      <trkpt lat="47.50916" lon="6.71212">
        <ele>409.8</ele>
        <time>2014-06-01T08:43:06.000Z</time>
      </trkpt>
      <trkpt lat="47.5092" lon="6.7121">
        <ele>410.8</ele>
        <time>2014-06-01T08:43:09.000Z</time>
      </trkpt>
      <trkpt lat="47.50921" lon="6.71209">
        <ele>411.9</ele>
        <time>2014-06-01T08:43:10.000Z</time>
      </trkpt>
      <trkpt lat="47.50924" lon="6.71206">
        <ele>411.9</ele>
        <time>2014-06-01T08:43:12.000Z</time>
      </trkpt>
      <trkpt lat="47.50925" lon="6.71204">
        <ele>412.4</ele>
        <time>2014-06-01T08:43:13.000Z</time>
      </trkpt>
      <trkpt lat="47.50928" lon="6.712">
        <ele>412.8</ele>
        <time>2014-06-01T08:43:15.000Z</time>
      </trkpt>
      <trkpt lat="47.50929" lon="6.71198">
        <ele>412.8</ele>
        <time>2014-06-01T08:43:16.000Z</time>
      </trkpt>
      <trkpt lat="47.50932" lon="6.71193">
        <ele>413.8</ele>
        <time>2014-06-01T08:43:20.000Z</time>
      </trkpt>
      <trkpt lat="47.50931" lon="6.71192">
        <ele>414.2</ele>
        <time>2014-06-01T08:43:21.000Z</time>
      </trkpt>
      <trkpt lat="47.50928" lon="6.71187">
        <ele>418.4</ele>
        <time>2014-06-01T08:43:24.000Z</time>
      </trkpt>
      <trkpt lat="47.50928" lon="6.71185">
        <ele>419.8</ele>
        <time>2014-06-01T08:43:25.000Z</time>
      </trkpt>
      <trkpt lat="47.50927" lon="6.71182">
        <ele>419</ele>
        <time>2014-06-01T08:43:26.000Z</time>
      </trkpt>
      <trkpt lat="47.50927" lon="6.71178">
        <ele>419</ele>
        <time>2014-06-01T08:43:27.000Z</time>
      </trkpt>
      <trkpt lat="47.50927" lon="6.71174">
        <ele>418.4</ele>
        <time>2014-06-01T08:43:28.000Z</time>
      </trkpt>
      <trkpt lat="47.50928" lon="6.71169">
        <ele>417.5</ele>
        <time>2014-06-01T08:43:29.000Z</time>
      </trkpt>
      <trkpt lat="47.50928" lon="6.71166">
        <ele>416.9</ele>
        <time>2014-06-01T08:43:30.000Z</time>
      </trkpt>
      <trkpt lat="47.50928" lon="6.71162">
        <ele>416.6</ele>
        <time>2014-06-01T08:43:31.000Z</time>
      </trkpt>
      <trkpt lat="47.50929" lon="6.71156">
        <ele>416.2</ele>
        <time>2014-06-01T08:43:33.000Z</time>
      </trkpt>
      <trkpt lat="47.5093" lon="6.71152">
        <ele>418.5</ele>
        <time>2014-06-01T08:43:34.000Z</time>
      </trkpt>
      <trkpt lat="47.50931" lon="6.71148">
        <ele>418.4</ele>
        <time>2014-06-01T08:43:35.000Z</time>
      </trkpt>
      <trkpt lat="47.50931" lon="6.71145">
        <ele>421.6</ele>
        <time>2014-06-01T08:43:36.000Z</time>
      </trkpt>
      <trkpt lat="47.5093" lon="6.71139">
        <ele>423.6</ele>
        <time>2014-06-01T08:43:38.000Z</time>
      </trkpt>
      <trkpt lat="47.5093" lon="6.71137">
        <ele>425.4</ele>
        <time>2014-06-01T08:43:39.000Z</time>
      </trkpt>
      <trkpt lat="47.50928" lon="6.71134">
        <ele>426.6</ele>
        <time>2014-06-01T08:43:42.000Z</time>
      </trkpt>
      <trkpt lat="47.50928" lon="6.71131">
        <ele>426.6</ele>
        <time>2014-06-01T08:43:43.000Z</time>
      </trkpt>
      <trkpt lat="47.50928" lon="6.71126">
        <ele>425.3</ele>
        <time>2014-06-01T08:43:44.000Z</time>
      </trkpt>
      <trkpt lat="47.50928" lon="6.71121">
        <ele>427.3</ele>
        <time>2014-06-01T08:43:45.000Z</time>
      </trkpt>
      <trkpt lat="47.5093" lon="6.71115">
        <ele>426.5</ele>
        <time>2014-06-01T08:43:46.000Z</time>
      </trkpt>
      <trkpt lat="47.50932" lon="6.7111">
        <ele>425.6</ele>
        <time>2014-06-01T08:43:47.000Z</time>
      </trkpt>
      <trkpt lat="47.50933" lon="6.71104">
        <ele>425.8</ele>
        <time>2014-06-01T08:43:48.000Z</time>
      </trkpt>
      <trkpt lat="47.50934" lon="6.71099">
        <ele>428.6</ele>
        <time>2014-06-01T08:43:49.000Z</time>
      </trkpt>
      <trkpt lat="47.50933" lon="6.71095">
        <ele>432</ele>
        <time>2014-06-01T08:43:50.000Z</time>
      </trkpt>
      <trkpt lat="47.50932" lon="6.7109">
        <ele>427.4</ele>
        <time>2014-06-01T08:43:51.000Z</time>
      </trkpt>
      <trkpt lat="47.5093" lon="6.71085">
        <ele>426.1</ele>
        <time>2014-06-01T08:43:52.000Z</time>
      </trkpt>
      <trkpt lat="47.50928" lon="6.7108">
        <ele>424</ele>
        <time>2014-06-01T08:43:53.000Z</time>
      </trkpt>
      <trkpt lat="47.50926" lon="6.71075">
        <ele>423.1</ele>
        <time>2014-06-01T08:43:54.000Z</time>
      </trkpt>
      <trkpt lat="47.50924" lon="6.71071">
        <ele>421.9</ele>
        <time>2014-06-01T08:43:55.000Z</time>
      </trkpt>
      <trkpt lat="47.50923" lon="6.71066">
        <ele>418.4</ele>
        <time>2014-06-01T08:43:56.000Z</time>
      </trkpt>
      <trkpt lat="47.50922" lon="6.71059">
        <ele>413.3</ele>
        <time>2014-06-01T08:43:57.000Z</time>
      </trkpt>
      <trkpt lat="47.5092" lon="6.71039">
        <ele>406.5</ele>
        <time>2014-06-01T08:44:00.000Z</time>
      </trkpt>
      <trkpt lat="47.5092" lon="6.71032">
        <ele>408.9</ele>
        <time>2014-06-01T08:44:01.000Z</time>
      </trkpt>
      <trkpt lat="47.5092" lon="6.71025">
        <ele>408.8</ele>
        <time>2014-06-01T08:44:02.000Z</time>
      </trkpt>
      <trkpt lat="47.5092" lon="6.71018">
        <ele>408.6</ele>
        <time>2014-06-01T08:44:03.000Z</time>
      </trkpt>
      <trkpt lat="47.50921" lon="6.71012">
        <ele>408.6</ele>
        <time>2014-06-01T08:44:04.000Z</time>
      </trkpt>
      <trkpt lat="47.50921" lon="6.71006">
        <ele>404.5</ele>
        <time>2014-06-01T08:44:05.000Z</time>
      </trkpt>
      <trkpt lat="47.50921" lon="6.70999">
        <ele>405.1</ele>
        <time>2014-06-01T08:44:06.000Z</time>
      </trkpt>
      <trkpt lat="47.50921" lon="6.70992">
        <ele>404.9</ele>
        <time>2014-06-01T08:44:07.000Z</time>
      </trkpt>
      <trkpt lat="47.5092" lon="6.70985">
        <ele>405.4</ele>
        <time>2014-06-01T08:44:08.000Z</time>
      </trkpt>
      <trkpt lat="47.50921" lon="6.70979">
        <ele>405.6</ele>
        <time>2014-06-01T08:44:09.000Z</time>
      </trkpt>
      <trkpt lat="47.50921" lon="6.70974">
        <ele>406.2</ele>
        <time>2014-06-01T08:44:10.000Z</time>
      </trkpt>
      <trkpt lat="47.5092" lon="6.7097">
        <ele>407.6</ele>
        <time>2014-06-01T08:44:11.000Z</time>
      </trkpt>
      <trkpt lat="47.50918" lon="6.70967">
        <ele>407.4</ele>
        <time>2014-06-01T08:44:12.000Z</time>
      </trkpt>
      <trkpt lat="47.50915" lon="6.70964">
        <ele>402.5</ele>
        <time>2014-06-01T08:44:14.000Z</time>
      </trkpt>
      <trkpt lat="47.50914" lon="6.70962">
        <ele>401.4</ele>
        <time>2014-06-01T08:44:15.000Z</time>
      </trkpt>
      <trkpt lat="47.50912" lon="6.70958">
        <ele>400.3</ele>
        <time>2014-06-01T08:44:17.000Z</time>
      </trkpt>
      <trkpt lat="47.50911" lon="6.70956">
        <ele>405.1</ele>
        <time>2014-06-01T08:44:18.000Z</time>
      </trkpt>
      <trkpt lat="47.50909" lon="6.70951">
        <ele>406.8</ele>
        <time>2014-06-01T08:44:20.000Z</time>
      </trkpt>
      <trkpt lat="47.50908" lon="6.70947">
        <ele>407</ele>
        <time>2014-06-01T08:44:21.000Z</time>
      </trkpt>
      <trkpt lat="47.50907" lon="6.70944">
        <ele>407.1</ele>
        <time>2014-06-01T08:44:22.000Z</time>
      </trkpt>
      <trkpt lat="47.50906" lon="6.7094">
        <ele>407.4</ele>
        <time>2014-06-01T08:44:23.000Z</time>
      </trkpt>
      <trkpt lat="47.50905" lon="6.70936">
        <ele>407.3</ele>
        <time>2014-06-01T08:44:24.000Z</time>
      </trkpt>
      <trkpt lat="47.50905" lon="6.70931">
        <ele>408.3</ele>
        <time>2014-06-01T08:44:25.000Z</time>
      </trkpt>
      <trkpt lat="47.50905" lon="6.70925">
        <ele>408.6</ele>
        <time>2014-06-01T08:44:26.000Z</time>
      </trkpt>
      <trkpt lat="47.50906" lon="6.70918">
        <ele>408.2</ele>
        <time>2014-06-01T08:44:27.000Z</time>
      </trkpt>
      <trkpt lat="47.50907" lon="6.70912">
        <ele>408.6</ele>
        <time>2014-06-01T08:44:28.000Z</time>
      </trkpt>
      <trkpt lat="47.50908" lon="6.70906">
        <ele>409.1</ele>
        <time>2014-06-01T08:44:29.000Z</time>
      </trkpt>
      <trkpt lat="47.50909" lon="6.70902">
        <ele>408.5</ele>
        <time>2014-06-01T08:44:30.000Z</time>
      </trkpt>
      <trkpt lat="47.50909" lon="6.70899">
        <ele>412.7</ele>
        <time>2014-06-01T08:44:31.000Z</time>
      </trkpt>
      <trkpt lat="47.50908" lon="6.70893">
        <ele>413.8</ele>
        <time>2014-06-01T08:44:33.000Z</time>
      </trkpt>
      <trkpt lat="47.50908" lon="6.7089">
        <ele>414.4</ele>
        <time>2014-06-01T08:44:34.000Z</time>
      </trkpt>
      <trkpt lat="47.50908" lon="6.70884">
        <ele>415.3</ele>
        <time>2014-06-01T08:44:36.000Z</time>
      </trkpt>
      <trkpt lat="47.50907" lon="6.70881">
        <ele>415.9</ele>
        <time>2014-06-01T08:44:37.000Z</time>
      </trkpt>
      <trkpt lat="47.50905" lon="6.70876">
        <ele>417.6</ele>
        <time>2014-06-01T08:44:38.000Z</time>
      </trkpt>
      <trkpt lat="47.50903" lon="6.7087">
        <ele>418.1</ele>
        <time>2014-06-01T08:44:39.000Z</time>
      </trkpt>
      <trkpt lat="47.50901" lon="6.70865">
        <ele>418.5</ele>
        <time>2014-06-01T08:44:40.000Z</time>
      </trkpt>
      <trkpt lat="47.509" lon="6.70859">
        <ele>418.6</ele>
        <time>2014-06-01T08:44:41.000Z</time>
      </trkpt>
      <trkpt lat="47.50899" lon="6.70854">
        <ele>419</ele>
        <time>2014-06-01T08:44:42.000Z</time>
      </trkpt>
      <trkpt lat="47.50898" lon="6.70849">
        <ele>418.6</ele>
        <time>2014-06-01T08:44:43.000Z</time>
      </trkpt>
      <trkpt lat="47.50897" lon="6.70843">
        <ele>417.5</ele>
        <time>2014-06-01T08:44:44.000Z</time>
      </trkpt>
      <trkpt lat="47.50897" lon="6.70838">
        <ele>417.5</ele>
        <time>2014-06-01T08:44:45.000Z</time>
      </trkpt>
      <trkpt lat="47.50897" lon="6.70833">
        <ele>417.1</ele>
        <time>2014-06-01T08:44:46.000Z</time>
      </trkpt>
      <trkpt lat="47.50897" lon="6.70828">
        <ele>415.9</ele>
        <time>2014-06-01T08:44:47.000Z</time>
      </trkpt>
      <trkpt lat="47.50896" lon="6.70822">
        <ele>419.6</ele>
        <time>2014-06-01T08:44:48.000Z</time>
      </trkpt>
      <trkpt lat="47.50896" lon="6.70815">
        <ele>420.1</ele>
        <time>2014-06-01T08:44:49.000Z</time>
      </trkpt>
      <trkpt lat="47.50895" lon="6.70808">
        <ele>420.3</ele>
        <time>2014-06-01T08:44:50.000Z</time>
      </trkpt>
      <trkpt lat="47.50895" lon="6.70802">
        <ele>422</ele>
        <time>2014-06-01T08:44:51.000Z</time>
      </trkpt>
      <trkpt lat="47.50895" lon="6.70797">
        <ele>421.6</ele>
        <time>2014-06-01T08:44:52.000Z</time>
      </trkpt>
      <trkpt lat="47.50895" lon="6.70793">
        <ele>421.6</ele>
        <time>2014-06-01T08:44:53.000Z</time>
      </trkpt>
      <trkpt lat="47.50895" lon="6.70789">
        <ele>420.9</ele>
        <time>2014-06-01T08:44:54.000Z</time>
      </trkpt>
      <trkpt lat="47.50896" lon="6.70785">
        <ele>420.7</ele>
        <time>2014-06-01T08:44:55.000Z</time>
      </trkpt>
      <trkpt lat="47.50896" lon="6.7078">
        <ele>420.9</ele>
        <time>2014-06-01T08:44:56.000Z</time>
      </trkpt>
      <trkpt lat="47.50897" lon="6.70774">
        <ele>419</ele>
        <time>2014-06-01T08:44:57.000Z</time>
      </trkpt>
      <trkpt lat="47.50911" lon="6.70729">
        <ele>417.6</ele>
        <time>2014-06-01T08:45:06.000Z</time>
      </trkpt>
      <trkpt lat="47.50915" lon="6.70726">
        <ele>414.3</ele>
        <time>2014-06-01T08:45:07.000Z</time>
      </trkpt>
      <trkpt lat="47.50918" lon="6.70723">
        <ele>413.2</ele>
        <time>2014-06-01T08:45:08.000Z</time>
      </trkpt>
      <trkpt lat="47.50921" lon="6.70721">
        <ele>411.7</ele>
        <time>2014-06-01T08:45:09.000Z</time>
      </trkpt>
      <trkpt lat="47.50924" lon="6.7072">
        <ele>412.1</ele>
        <time>2014-06-01T08:45:10.000Z</time>
      </trkpt>
      <trkpt lat="47.50927" lon="6.70719">
        <ele>414.2</ele>
        <time>2014-06-01T08:45:11.000Z</time>
      </trkpt>
      <trkpt lat="47.50929" lon="6.70717">
        <ele>414.6</ele>
        <time>2014-06-01T08:45:12.000Z</time>
      </trkpt>
      <trkpt lat="47.50931" lon="6.70714">
        <ele>415.8</ele>
        <time>2014-06-01T08:45:13.000Z</time>
      </trkpt>
      <trkpt lat="47.50933" lon="6.70711">
        <ele>416.2</ele>
        <time>2014-06-01T08:45:14.000Z</time>
      </trkpt>
      <trkpt lat="47.50935" lon="6.70708">
        <ele>417.6</ele>
        <time>2014-06-01T08:45:15.000Z</time>
      </trkpt>
      <trkpt lat="47.50937" lon="6.70705">
        <ele>419.1</ele>
        <time>2014-06-01T08:45:16.000Z</time>
      </trkpt>
      <trkpt lat="47.50938" lon="6.70701">
        <ele>419.7</ele>
        <time>2014-06-01T08:45:17.000Z</time>
      </trkpt>
      <trkpt lat="47.5094" lon="6.70698">
        <ele>419.9</ele>
        <time>2014-06-01T08:45:18.000Z</time>
      </trkpt>
      <trkpt lat="47.50941" lon="6.70693">
        <ele>422.2</ele>
        <time>2014-06-01T08:45:20.000Z</time>
      </trkpt>
      <trkpt lat="47.50941" lon="6.70691">
        <ele>422</ele>
        <time>2014-06-01T08:45:21.000Z</time>
      </trkpt>
      <trkpt lat="47.50944" lon="6.70688">
        <ele>421.1</ele>
        <time>2014-06-01T08:45:25.000Z</time>
      </trkpt>
      <trkpt lat="47.50946" lon="6.70687">
        <ele>420.9</ele>
        <time>2014-06-01T08:45:26.000Z</time>
      </trkpt>
      <trkpt lat="47.50949" lon="6.70686">
        <ele>421.8</ele>
        <time>2014-06-01T08:45:28.000Z</time>
      </trkpt>
      <trkpt lat="47.5095" lon="6.70685">
        <ele>422.3</ele>
        <time>2014-06-01T08:45:29.000Z</time>
      </trkpt>
      <trkpt lat="47.50953" lon="6.70682">
        <ele>424.6</ele>
        <time>2014-06-01T08:45:31.000Z</time>
      </trkpt>
      <trkpt lat="47.50955" lon="6.70681">
        <ele>425.2</ele>
        <time>2014-06-01T08:45:32.000Z</time>
      </trkpt>
      <trkpt lat="47.50958" lon="6.70678">
        <ele>427.2</ele>
        <time>2014-06-01T08:45:34.000Z</time>
      </trkpt>
      <trkpt lat="47.5096" lon="6.70677">
        <ele>428.6</ele>
        <time>2014-06-01T08:45:35.000Z</time>
      </trkpt>
      <trkpt lat="47.50963" lon="6.70675">
        <ele>432.1</ele>
        <time>2014-06-01T08:45:37.000Z</time>
      </trkpt>
      <trkpt lat="47.50964" lon="6.70673">
        <ele>434.5</ele>
        <time>2014-06-01T08:45:38.000Z</time>
      </trkpt>
      <trkpt lat="47.50967" lon="6.7067">
        <ele>434.9</ele>
        <time>2014-06-01T08:45:40.000Z</time>
      </trkpt>
      <trkpt lat="47.50968" lon="6.70668">
        <ele>436.6</ele>
        <time>2014-06-01T08:45:41.000Z</time>
      </trkpt>
      <trkpt lat="47.5097" lon="6.70663">
        <ele>441.4</ele>
        <time>2014-06-01T08:45:45.000Z</time>
      </trkpt>
      <trkpt lat="47.50971" lon="6.70662">
        <ele>443.2</ele>
        <time>2014-06-01T08:45:46.000Z</time>
      </trkpt>
      <trkpt lat="47.50974" lon="6.70661">
        <ele>447.8</ele>
        <time>2014-06-01T08:45:48.000Z</time>
      </trkpt>
      <trkpt lat="47.50976" lon="6.70659">
        <ele>447.9</ele>
        <time>2014-06-01T08:45:49.000Z</time>
      </trkpt>
      <trkpt lat="47.50978" lon="6.70656">
        <ele>448.2</ele>
        <time>2014-06-01T08:45:51.000Z</time>
      </trkpt>
      <trkpt lat="47.5098" lon="6.70655">
        <ele>448.4</ele>
        <time>2014-06-01T08:45:52.000Z</time>
      </trkpt>
      <trkpt lat="47.50982" lon="6.70652">
        <ele>448.2</ele>
        <time>2014-06-01T08:45:54.000Z</time>
      </trkpt>
      <trkpt lat="47.50983" lon="6.7065">
        <ele>448.1</ele>
        <time>2014-06-01T08:45:55.000Z</time>
      </trkpt>
      <trkpt lat="47.50987" lon="6.70648">
        <ele>443.6</ele>
        <time>2014-06-01T08:46:01.000Z</time>
      </trkpt>
      <trkpt lat="47.50988" lon="6.70648">
        <ele>448.2</ele>
        <time>2014-06-01T08:46:02.000Z</time>
      </trkpt>
      <trkpt lat="47.50992" lon="6.70646">
        <ele>449.7</ele>
        <time>2014-06-01T08:46:04.000Z</time>
      </trkpt>
      <trkpt lat="47.50994" lon="6.70644">
        <ele>449.7</ele>
        <time>2014-06-01T08:46:05.000Z</time>
      </trkpt>
      <trkpt lat="47.50996" lon="6.70642">
        <ele>449.5</ele>
        <time>2014-06-01T08:46:06.000Z</time>
      </trkpt>
      <trkpt lat="47.50998" lon="6.70639">
        <ele>449.4</ele>
        <time>2014-06-01T08:46:07.000Z</time>
      </trkpt>
      <trkpt lat="47.51" lon="6.70636">
        <ele>448.7</ele>
        <time>2014-06-01T08:46:08.000Z</time>
      </trkpt>
      <trkpt lat="47.51001" lon="6.70632">
        <ele>449.9</ele>
        <time>2014-06-01T08:46:09.000Z</time>
      </trkpt>
      <trkpt lat="47.51003" lon="6.70629">
        <ele>448.1</ele>
        <time>2014-06-01T08:46:10.000Z</time>
      </trkpt>
      <trkpt lat="47.51005" lon="6.70625">
        <ele>448.2</ele>
        <time>2014-06-01T08:46:11.000Z</time>
      </trkpt>
      <trkpt lat="47.51007" lon="6.70622">
        <ele>446.9</ele>
        <time>2014-06-01T08:46:12.000Z</time>
      </trkpt>
      <trkpt lat="47.51008" lon="6.70619">
        <ele>447.5</ele>
        <time>2014-06-01T08:46:13.000Z</time>
      </trkpt>
      <trkpt lat="47.5101" lon="6.70617">
        <ele>448</ele>
        <time>2014-06-01T08:46:14.000Z</time>
      </trkpt>
      <trkpt lat="47.51011" lon="6.70613">
        <ele>450.8</ele>
        <time>2014-06-01T08:46:15.000Z</time>
      </trkpt>
      <trkpt lat="47.51012" lon="6.70609">
        <ele>445.4</ele>
        <time>2014-06-01T08:46:16.000Z</time>
      </trkpt>
      <trkpt lat="47.51014" lon="6.70604">
        <ele>442.1</ele>
        <time>2014-06-01T08:46:17.000Z</time>
      </trkpt>
      <trkpt lat="47.51015" lon="6.70599">
        <ele>440.6</ele>
        <time>2014-06-01T08:46:18.000Z</time>
      </trkpt>
      <trkpt lat="47.51017" lon="6.70594">
        <ele>440</ele>
        <time>2014-06-01T08:46:19.000Z</time>
      </trkpt>
      <trkpt lat="47.51019" lon="6.70591">
        <ele>438.9</ele>
        <time>2014-06-01T08:46:20.000Z</time>
      </trkpt>
      <trkpt lat="47.5102" lon="6.70587">
        <ele>439.1</ele>
        <time>2014-06-01T08:46:21.000Z</time>
      </trkpt>
      <trkpt lat="47.51022" lon="6.70583">
        <ele>438.6</ele>
        <time>2014-06-01T08:46:22.000Z</time>
      </trkpt>
      <trkpt lat="47.51023" lon="6.70578">
        <ele>438.5</ele>
        <time>2014-06-01T08:46:23.000Z</time>
      </trkpt>
      <trkpt lat="47.51024" lon="6.70574">
        <ele>442.2</ele>
        <time>2014-06-01T08:46:24.000Z</time>
      </trkpt>
      <trkpt lat="47.51024" lon="6.7057">
        <ele>442.5</ele>
        <time>2014-06-01T08:46:25.000Z</time>
      </trkpt>
      <trkpt lat="47.51024" lon="6.70567">
        <ele>442.2</ele>
        <time>2014-06-01T08:46:26.000Z</time>
      </trkpt>
      <trkpt lat="47.51025" lon="6.70562">
        <ele>440.4</ele>
        <time>2014-06-01T08:46:27.000Z</time>
      </trkpt>
      <trkpt lat="47.51026" lon="6.70557">
        <ele>439.3</ele>
        <time>2014-06-01T08:46:28.000Z</time>
      </trkpt>
      <trkpt lat="47.51028" lon="6.70553">
        <ele>439.3</ele>
        <time>2014-06-01T08:46:29.000Z</time>
      </trkpt>
      <trkpt lat="47.51029" lon="6.70549">
        <ele>438.6</ele>
        <time>2014-06-01T08:46:30.000Z</time>
      </trkpt>
      <trkpt lat="47.51031" lon="6.70545">
        <ele>437.5</ele>
        <time>2014-06-01T08:46:31.000Z</time>
      </trkpt>
      <trkpt lat="47.51032" lon="6.7054">
        <ele>436.5</ele>
        <time>2014-06-01T08:46:32.000Z</time>
      </trkpt>
      <trkpt lat="47.51033" lon="6.70536">
        <ele>435.5</ele>
        <time>2014-06-01T08:46:33.000Z</time>
      </trkpt>
      <trkpt lat="47.51035" lon="6.70532">
        <ele>434.5</ele>
        <time>2014-06-01T08:46:34.000Z</time>
      </trkpt>
      <trkpt lat="47.51036" lon="6.70528">
        <ele>434</ele>
        <time>2014-06-01T08:46:35.000Z</time>
      </trkpt>
      <trkpt lat="47.51037" lon="6.70525">
        <ele>433.6</ele>
        <time>2014-06-01T08:46:36.000Z</time>
      </trkpt>
      <trkpt lat="47.51038" lon="6.70522">
        <ele>431.8</ele>
        <time>2014-06-01T08:46:37.000Z</time>
      </trkpt>
      <trkpt lat="47.5104" lon="6.70518">
        <ele>431.2</ele>
        <time>2014-06-01T08:46:38.000Z</time>
      </trkpt>
      <trkpt lat="47.51041" lon="6.70513">
        <ele>431.1</ele>
        <time>2014-06-01T08:46:39.000Z</time>
      </trkpt>
      <trkpt lat="47.51042" lon="6.70508">
        <ele>433.1</ele>
        <time>2014-06-01T08:46:40.000Z</time>
      </trkpt>
      <trkpt lat="47.51043" lon="6.70502">
        <ele>432.8</ele>
        <time>2014-06-01T08:46:41.000Z</time>
      </trkpt>
      <trkpt lat="47.51044" lon="6.70498">
        <ele>433.8</ele>
        <time>2014-06-01T08:46:42.000Z</time>
      </trkpt>
      <trkpt lat="47.51046" lon="6.70494">
        <ele>434.6</ele>
        <time>2014-06-01T08:46:43.000Z</time>
      </trkpt>
      <trkpt lat="47.51048" lon="6.7049">
        <ele>434.9</ele>
        <time>2014-06-01T08:46:44.000Z</time>
      </trkpt>
      <trkpt lat="47.51052" lon="6.70486">
        <ele>434.6</ele>
        <time>2014-06-01T08:46:45.000Z</time>
      </trkpt>
      <trkpt lat="47.51055" lon="6.70482">
        <ele>433.4</ele>
        <time>2014-06-01T08:46:46.000Z</time>
      </trkpt>
      <trkpt lat="47.51059" lon="6.70481">
        <ele>438.7</ele>
        <time>2014-06-01T08:46:47.000Z</time>
      </trkpt>
      <trkpt lat="47.51062" lon="6.7048">
        <ele>440.2</ele>
        <time>2014-06-01T08:46:48.000Z</time>
      </trkpt>
      <trkpt lat="47.51066" lon="6.70479">
        <ele>437.8</ele>
        <time>2014-06-01T08:46:49.000Z</time>
      </trkpt>
      <trkpt lat="47.51069" lon="6.70479">
        <ele>436</ele>
        <time>2014-06-01T08:46:50.000Z</time>
      </trkpt>
      <trkpt lat="47.51072" lon="6.70478">
        <ele>435.9</ele>
        <time>2014-06-01T08:46:51.000Z</time>
      </trkpt>
      <trkpt lat="47.51076" lon="6.70477">
        <ele>435.3</ele>
        <time>2014-06-01T08:46:52.000Z</time>
      </trkpt>
      <trkpt lat="47.51079" lon="6.70475">
        <ele>434.7</ele>
        <time>2014-06-01T08:46:53.000Z</time>
      </trkpt>
      <trkpt lat="47.51082" lon="6.70473">
        <ele>436.8</ele>
        <time>2014-06-01T08:46:54.000Z</time>
      </trkpt>
      <trkpt lat="47.51084" lon="6.70471">
        <ele>437.1</ele>
        <time>2014-06-01T08:46:55.000Z</time>
      </trkpt>
      <trkpt lat="47.51087" lon="6.70467">
        <ele>443</ele>
        <time>2014-06-01T08:46:57.000Z</time>
      </trkpt>
      <trkpt lat="47.51088" lon="6.70465">
        <ele>442.8</ele>
        <time>2014-06-01T08:46:58.000Z</time>
      </trkpt>
      <trkpt lat="47.51105" lon="6.70459">
        <ele>434.7</ele>
        <time>2014-06-01T08:47:06.000Z</time>
      </trkpt>
      <trkpt lat="47.51108" lon="6.70462">
        <ele>435.7</ele>
        <time>2014-06-01T08:47:07.000Z</time>
      </trkpt>
      <trkpt lat="47.51111" lon="6.70463">
        <ele>439.8</ele>
        <time>2014-06-01T08:47:08.000Z</time>
      </trkpt>
      <trkpt lat="47.51114" lon="6.70462">
        <ele>439.5</ele>
        <time>2014-06-01T08:47:09.000Z</time>
      </trkpt>
      <trkpt lat="47.51117" lon="6.70461">
        <ele>437.9</ele>
        <time>2014-06-01T08:47:10.000Z</time>
      </trkpt>
      <trkpt lat="47.5112" lon="6.70459">
        <ele>435.6</ele>
        <time>2014-06-01T08:47:11.000Z</time>
      </trkpt>
      <trkpt lat="47.51123" lon="6.70457">
        <ele>433.7</ele>
        <time>2014-06-01T08:47:12.000Z</time>
      </trkpt>
      <trkpt lat="47.51126" lon="6.70454">
        <ele>431.9</ele>
        <time>2014-06-01T08:47:13.000Z</time>
      </trkpt>
      <trkpt lat="47.51128" lon="6.70451">
        <ele>432</ele>
        <time>2014-06-01T08:47:14.000Z</time>
      </trkpt>
      <trkpt lat="47.5113" lon="6.70448">
        <ele>432.5</ele>
        <time>2014-06-01T08:47:15.000Z</time>
      </trkpt>
      <trkpt lat="47.51133" lon="6.70446">
        <ele>432.1</ele>
        <time>2014-06-01T08:47:16.000Z</time>
      </trkpt>
      <trkpt lat="47.51135" lon="6.70443">
        <ele>438.8</ele>
        <time>2014-06-01T08:47:17.000Z</time>
      </trkpt>
      <trkpt lat="47.51138" lon="6.70441">
        <ele>440.5</ele>
        <time>2014-06-01T08:47:18.000Z</time>
      </trkpt>
      <trkpt lat="47.51141" lon="6.70439">
        <ele>441.5</ele>
        <time>2014-06-01T08:47:19.000Z</time>
      </trkpt>
      <trkpt lat="47.51144" lon="6.70437">
        <ele>441.2</ele>
        <time>2014-06-01T08:47:20.000Z</time>
      </trkpt>
      <trkpt lat="47.51147" lon="6.70435">
        <ele>440.7</ele>
        <time>2014-06-01T08:47:21.000Z</time>
      </trkpt>
      <trkpt lat="47.51149" lon="6.70433">
        <ele>440</ele>
        <time>2014-06-01T08:47:22.000Z</time>
      </trkpt>
      <trkpt lat="47.51151" lon="6.7043">
        <ele>441.7</ele>
        <time>2014-06-01T08:47:23.000Z</time>
      </trkpt>
      <trkpt lat="47.51153" lon="6.70426">
        <ele>441.7</ele>
        <time>2014-06-01T08:47:24.000Z</time>
      </trkpt>
      <trkpt lat="47.51156" lon="6.70423">
        <ele>439.8</ele>
        <time>2014-06-01T08:47:25.000Z</time>
      </trkpt>
      <trkpt lat="47.51159" lon="6.7042">
        <ele>439.2</ele>
        <time>2014-06-01T08:47:26.000Z</time>
      </trkpt>
      <trkpt lat="47.51161" lon="6.70417">
        <ele>445.1</ele>
        <time>2014-06-01T08:47:27.000Z</time>
      </trkpt>
      <trkpt lat="47.51163" lon="6.70414">
        <ele>445</ele>
        <time>2014-06-01T08:47:28.000Z</time>
      </trkpt>
      <trkpt lat="47.51166" lon="6.70412">
        <ele>446.1</ele>
        <time>2014-06-01T08:47:29.000Z</time>
      </trkpt>
      <trkpt lat="47.51168" lon="6.70409">
        <ele>446.6</ele>
        <time>2014-06-01T08:47:30.000Z</time>
      </trkpt>
      <trkpt lat="47.51171" lon="6.70408">
        <ele>450.1</ele>
        <time>2014-06-01T08:47:31.000Z</time>
      </trkpt>
      <trkpt lat="47.51175" lon="6.70407">
        <ele>449.6</ele>
        <time>2014-06-01T08:47:32.000Z</time>
      </trkpt>
      <trkpt lat="47.51179" lon="6.70405">
        <ele>449.9</ele>
        <time>2014-06-01T08:47:34.000Z</time>
      </trkpt>
      <trkpt lat="47.51181" lon="6.70404">
        <ele>450</ele>
        <time>2014-06-01T08:47:35.000Z</time>
      </trkpt>
      <trkpt lat="47.51184" lon="6.70401">
        <ele>448.7</ele>
        <time>2014-06-01T08:47:37.000Z</time>
      </trkpt>
      <trkpt lat="47.51185" lon="6.704">
        <ele>452.4</ele>
        <time>2014-06-01T08:47:38.000Z</time>
      </trkpt>
      <trkpt lat="47.51187" lon="6.70396">
        <ele>448.8</ele>
        <time>2014-06-01T08:47:40.000Z</time>
      </trkpt>
      <trkpt lat="47.51188" lon="6.70395">
        <ele>448.9</ele>
        <time>2014-06-01T08:47:41.000Z</time>
      </trkpt>
      <trkpt lat="47.51191" lon="6.70391">
        <ele>445.2</ele>
        <time>2014-06-01T08:47:44.000Z</time>
      </trkpt>
      <trkpt lat="47.51192" lon="6.70389">
        <ele>445.7</ele>
        <time>2014-06-01T08:47:45.000Z</time>
      </trkpt>
      <trkpt lat="47.51195" lon="6.70386">
        <ele>444.7</ele>
        <time>2014-06-01T08:47:47.000Z</time>
      </trkpt>
      <trkpt lat="47.51197" lon="6.70385">
        <ele>444.5</ele>
        <time>2014-06-01T08:47:48.000Z</time>
      </trkpt>
      <trkpt lat="47.512" lon="6.70383">
        <ele>444</ele>
        <time>2014-06-01T08:47:49.000Z</time>
      </trkpt>
      <trkpt lat="47.51202" lon="6.70382">
        <ele>443.4</ele>
        <time>2014-06-01T08:47:50.000Z</time>
      </trkpt>
      <trkpt lat="47.51204" lon="6.7038">
        <ele>442.8</ele>
        <time>2014-06-01T08:47:51.000Z</time>
      </trkpt>
      <trkpt lat="47.51206" lon="6.70378">
        <ele>442.4</ele>
        <time>2014-06-01T08:47:52.000Z</time>
      </trkpt>
      <trkpt lat="47.51208" lon="6.70376">
        <ele>444.4</ele>
        <time>2014-06-01T08:47:53.000Z</time>
      </trkpt>
      <trkpt lat="47.51212" lon="6.70374">
        <ele>445.9</ele>
        <time>2014-06-01T08:47:54.000Z</time>
      </trkpt>
      <trkpt lat="47.51216" lon="6.70372">
        <ele>444.4</ele>
        <time>2014-06-01T08:47:55.000Z</time>
      </trkpt>
      <trkpt lat="47.5122" lon="6.7037">
        <ele>443.5</ele>
        <time>2014-06-01T08:47:56.000Z</time>
      </trkpt>
      <trkpt lat="47.51225" lon="6.70369">
        <ele>443.1</ele>
        <time>2014-06-01T08:47:57.000Z</time>
      </trkpt>
      <trkpt lat="47.51228" lon="6.70368">
        <ele>444</ele>
        <time>2014-06-01T08:47:58.000Z</time>
      </trkpt>
      <trkpt lat="47.51237" lon="6.70366">
        <ele>441.6</ele>
        <time>2014-06-01T08:48:01.000Z</time>
      </trkpt>
      <trkpt lat="47.51239" lon="6.70364">
        <ele>441.8</ele>
        <time>2014-06-01T08:48:02.000Z</time>
      </trkpt>
      <trkpt lat="47.51241" lon="6.70362">
        <ele>441.4</ele>
        <time>2014-06-01T08:48:03.000Z</time>
      </trkpt>
      <trkpt lat="47.51244" lon="6.70359">
        <ele>440.9</ele>
        <time>2014-06-01T08:48:04.000Z</time>
      </trkpt>
      <trkpt lat="47.51247" lon="6.70356">
        <ele>440.2</ele>
        <time>2014-06-01T08:48:05.000Z</time>
      </trkpt>
      <trkpt lat="47.51251" lon="6.70351">
        <ele>438.6</ele>
        <time>2014-06-01T08:48:06.000Z</time>
      </trkpt>
      <trkpt lat="47.51256" lon="6.70346">
        <ele>437.6</ele>
        <time>2014-06-01T08:48:07.000Z</time>
      </trkpt>
      <trkpt lat="47.5126" lon="6.70341">
        <ele>436.4</ele>
        <time>2014-06-01T08:48:08.000Z</time>
      </trkpt>
      <trkpt lat="47.51265" lon="6.70337">
        <ele>436.1</ele>
        <time>2014-06-01T08:48:09.000Z</time>
      </trkpt>
      <trkpt lat="47.51269" lon="6.70334">
        <ele>436.3</ele>
        <time>2014-06-01T08:48:10.000Z</time>
      </trkpt>
      <trkpt lat="47.51274" lon="6.7033">
        <ele>436.1</ele>
        <time>2014-06-01T08:48:11.000Z</time>
      </trkpt>
      <trkpt lat="47.5128" lon="6.70327">
        <ele>435</ele>
        <time>2014-06-01T08:48:12.000Z</time>
      </trkpt>
      <trkpt lat="47.51285" lon="6.70325">
        <ele>433.6</ele>
        <time>2014-06-01T08:48:13.000Z</time>
      </trkpt>
      <trkpt lat="47.5129" lon="6.70323">
        <ele>432.5</ele>
        <time>2014-06-01T08:48:14.000Z</time>
      </trkpt>
      <trkpt lat="47.51295" lon="6.70322">
        <ele>431.1</ele>
        <time>2014-06-01T08:48:15.000Z</time>
      </trkpt>
      <trkpt lat="47.513" lon="6.70321">
        <ele>430.3</ele>
        <time>2014-06-01T08:48:16.000Z</time>
      </trkpt>
      <trkpt lat="47.51305" lon="6.70318">
        <ele>435.1</ele>
        <time>2014-06-01T08:48:17.000Z</time>
      </trkpt>
      <trkpt lat="47.5131" lon="6.70316">
        <ele>434.2</ele>
        <time>2014-06-01T08:48:18.000Z</time>
      </trkpt>
      <trkpt lat="47.51314" lon="6.70313">
        <ele>432.4</ele>
        <time>2014-06-01T08:48:19.000Z</time>
      </trkpt>
      <trkpt lat="47.51318" lon="6.7031">
        <ele>430</ele>
        <time>2014-06-01T08:48:20.000Z</time>
      </trkpt>
      <trkpt lat="47.51322" lon="6.70308">
        <ele>427.5</ele>
        <time>2014-06-01T08:48:21.000Z</time>
      </trkpt>
      <trkpt lat="47.51324" lon="6.70307">
        <ele>425.6</ele>
        <time>2014-06-01T08:48:22.000Z</time>
      </trkpt>
      <trkpt lat="47.51327" lon="6.70306">
        <ele>420.6</ele>
        <time>2014-06-01T08:48:23.000Z</time>
      </trkpt>
      <trkpt lat="47.51329" lon="6.70306">
        <ele>419.9</ele>
        <time>2014-06-01T08:48:24.000Z</time>
      </trkpt>
      <trkpt lat="47.51333" lon="6.70303">
        <ele>416.2</ele>
        <time>2014-06-01T08:48:42.000Z</time>
      </trkpt>
      <trkpt lat="47.51334" lon="6.70303">
        <ele>415.9</ele>
        <time>2014-06-01T08:48:43.000Z</time>
      </trkpt>
      <trkpt lat="47.51336" lon="6.70308">
        <ele>405</ele>
        <time>2014-06-01T08:49:11.000Z</time>
      </trkpt>
      <trkpt lat="47.51336" lon="6.7031">
        <ele>403.8</ele>
        <time>2014-06-01T08:49:12.000Z</time>
      </trkpt>
      <trkpt lat="47.51336" lon="6.70314">
        <ele>400.1</ele>
        <time>2014-06-01T08:49:14.000Z</time>
      </trkpt>
      <trkpt lat="47.51334" lon="6.70316">
        <ele>401</ele>
        <time>2014-06-01T08:49:15.000Z</time>
      </trkpt>
      <trkpt lat="47.51333" lon="6.70321">
        <ele>401.4</ele>
        <time>2014-06-01T08:49:18.000Z</time>
      </trkpt>
      <trkpt lat="47.51334" lon="6.70323">
        <ele>401.9</ele>
        <time>2014-06-01T08:49:19.000Z</time>
      </trkpt>
      <trkpt lat="47.51335" lon="6.70328">
        <ele>401.4</ele>
        <time>2014-06-01T08:49:21.000Z</time>
      </trkpt>
      <trkpt lat="47.51336" lon="6.7033">
        <ele>402.2</ele>
        <time>2014-06-01T08:49:22.000Z</time>
      </trkpt>
      <trkpt lat="47.51337" lon="6.70335">
        <ele>407.2</ele>
        <time>2014-06-01T08:49:26.000Z</time>
      </trkpt>
      <trkpt lat="47.51337" lon="6.70336">
        <ele>408.8</ele>
        <time>2014-06-01T08:49:27.000Z</time>
      </trkpt>
      <trkpt lat="47.51337" lon="6.70343">
        <ele>412.5</ele>
        <time>2014-06-01T08:49:33.000Z</time>
      </trkpt>
      <trkpt lat="47.51337" lon="6.70343">
        <ele>414.4</ele>
        <time>2014-06-01T08:49:34.000Z</time>
      </trkpt>
      <trkpt lat="47.51338" lon="6.70349">
        <ele>412.5</ele>
        <time>2014-06-01T08:49:38.000Z</time>
      </trkpt>
      <trkpt lat="47.51337" lon="6.7035">
        <ele>414.1</ele>
        <time>2014-06-01T08:49:39.000Z</time>
      </trkpt>
      <trkpt lat="47.51335" lon="6.70356">
        <ele>415.3</ele>
        <time>2014-06-01T08:49:42.000Z</time>
      </trkpt>
      <trkpt lat="47.51336" lon="6.70357">
        <ele>414.4</ele>
        <time>2014-06-01T08:49:43.000Z</time>
      </trkpt>
      <trkpt lat="47.51335" lon="6.70363">
        <ele>413.7</ele>
        <time>2014-06-01T08:49:53.000Z</time>
      </trkpt>
      <trkpt lat="47.51336" lon="6.70364">
        <ele>413.6</ele>
        <time>2014-06-01T08:49:54.000Z</time>
      </trkpt>
      <trkpt lat="47.51334" lon="6.70366">
        <ele>413.8</ele>
        <time>2014-06-01T08:49:57.000Z</time>
      </trkpt>
      <trkpt lat="47.51333" lon="6.70371">
        <ele>410.3</ele>
        <time>2014-06-01T08:50:00.000Z</time>
      </trkpt>
      <trkpt lat="47.51333" lon="6.70376">
        <ele>412.1</ele>
        <time>2014-06-01T08:50:02.000Z</time>
      </trkpt>
      <trkpt lat="47.51333" lon="6.70378">
        <ele>411.3</ele>
        <time>2014-06-01T08:50:03.000Z</time>
      </trkpt>
      <trkpt lat="47.51335" lon="6.70383">
        <ele>409.3</ele>
        <time>2014-06-01T08:50:05.000Z</time>
      </trkpt>
      <trkpt lat="47.51335" lon="6.70386">
        <ele>407.6</ele>
        <time>2014-06-01T08:50:06.000Z</time>
      </trkpt>
      <trkpt lat="47.51336" lon="6.70392">
        <ele>407.3</ele>
        <time>2014-06-01T08:50:08.000Z</time>
      </trkpt>
      <trkpt lat="47.51336" lon="6.70394">
        <ele>407.3</ele>
        <time>2014-06-01T08:50:09.000Z</time>
      </trkpt>
      <trkpt lat="47.51337" lon="6.70397">
        <ele>412.6</ele>
        <time>2014-06-01T08:50:10.000Z</time>
      </trkpt>
      <trkpt lat="47.51339" lon="6.70399">
        <ele>413.3</ele>
        <time>2014-06-01T08:50:11.000Z</time>
      </trkpt>
      <trkpt lat="47.51342" lon="6.70403">
        <ele>414.6</ele>
        <time>2014-06-01T08:50:13.000Z</time>
      </trkpt>
      <trkpt lat="47.51343" lon="6.70405">
        <ele>414.1</ele>
        <time>2014-06-01T08:50:14.000Z</time>
      </trkpt>
      <trkpt lat="47.51346" lon="6.7041">
        <ele>414.5</ele>
        <time>2014-06-01T08:50:21.000Z</time>
      </trkpt>
      <trkpt lat="47.51346" lon="6.70411">
        <ele>414.4</ele>
        <time>2014-06-01T08:50:22.000Z</time>
      </trkpt>
      <trkpt lat="47.51345" lon="6.70416">
        <ele>411.1</ele>
        <time>2014-06-01T08:50:24.000Z</time>
      </trkpt>
      <trkpt lat="47.51344" lon="6.70418">
        <ele>412.1</ele>
        <time>2014-06-01T08:50:25.000Z</time>
      </trkpt>
      <trkpt lat="47.51342" lon="6.70423">
        <ele>412</ele>
        <time>2014-06-01T08:50:28.000Z</time>
      </trkpt>
      <trkpt lat="47.51342" lon="6.70425">
        <ele>411.5</ele>
        <time>2014-06-01T08:50:29.000Z</time>
      </trkpt>
      <trkpt lat="47.5134" lon="6.7043">
        <ele>412.8</ele>
        <time>2014-06-01T08:50:31.000Z</time>
      </trkpt>
      <trkpt lat="47.5134" lon="6.70432">
        <ele>412.9</ele>
        <time>2014-06-01T08:50:32.000Z</time>
      </trkpt>
      <trkpt lat="47.51339" lon="6.70437">
        <ele>412.8</ele>
        <time>2014-06-01T08:50:34.000Z</time>
      </trkpt>
      <trkpt lat="47.5134" lon="6.70439">
        <ele>412.1</ele>
        <time>2014-06-01T08:50:35.000Z</time>
      </trkpt>
      <trkpt lat="47.5134" lon="6.70444">
        <ele>413.8</ele>
        <time>2014-06-01T08:50:37.000Z</time>
      </trkpt>
      <trkpt lat="47.5134" lon="6.70445">
        <ele>415.1</ele>
        <time>2014-06-01T08:50:38.000Z</time>
      </trkpt>
      <trkpt lat="47.5134" lon="6.70452">
        <ele>418.7</ele>
        <time>2014-06-01T08:50:42.000Z</time>
      </trkpt>
      <trkpt lat="47.5134" lon="6.70453">
        <ele>418.9</ele>
        <time>2014-06-01T08:50:43.000Z</time>
      </trkpt>
      <trkpt lat="47.51338" lon="6.70458">
        <ele>420.8</ele>
        <time>2014-06-01T08:50:47.000Z</time>
      </trkpt>
      <trkpt lat="47.51338" lon="6.7046">
        <ele>420.3</ele>
        <time>2014-06-01T08:50:48.000Z</time>
      </trkpt>
      <trkpt lat="47.51336" lon="6.70465">
        <ele>420.1</ele>
        <time>2014-06-01T08:50:51.000Z</time>
      </trkpt>
      <trkpt lat="47.51335" lon="6.70466">
        <ele>422.3</ele>
        <time>2014-06-01T08:50:52.000Z</time>
      </trkpt>
      <trkpt lat="47.51333" lon="6.7047">
        <ele>426.3</ele>
        <time>2014-06-01T08:50:57.000Z</time>
      </trkpt>
      <trkpt lat="47.51331" lon="6.70472">
        <ele>422.4</ele>
        <time>2014-06-01T08:51:00.000Z</time>
      </trkpt>
      <trkpt lat="47.5133" lon="6.70478">
        <ele>423.3</ele>
        <time>2014-06-01T08:51:05.000Z</time>
      </trkpt>
      <trkpt lat="47.51329" lon="6.7048">
        <ele>423.9</ele>
        <time>2014-06-01T08:51:06.000Z</time>
      </trkpt>
      <trkpt lat="47.51329" lon="6.70486">
        <ele>422.3</ele>
        <time>2014-06-01T08:51:09.000Z</time>
      </trkpt>
      <trkpt lat="47.5133" lon="6.70488">
        <ele>421.9</ele>
        <time>2014-06-01T08:51:10.000Z</time>
      </trkpt>
      <trkpt lat="47.5133" lon="6.70492">
        <ele>423.4</ele>
        <time>2014-06-01T08:51:12.000Z</time>
      </trkpt>
      <trkpt lat="47.51329" lon="6.70495">
        <ele>417.7</ele>
        <time>2014-06-01T08:51:13.000Z</time>
      </trkpt>
      <trkpt lat="47.51329" lon="6.705">
        <ele>416.9</ele>
        <time>2014-06-01T08:51:15.000Z</time>
      </trkpt>
      <trkpt lat="47.51328" lon="6.70502">
        <ele>418.1</ele>
        <time>2014-06-01T08:51:16.000Z</time>
      </trkpt>
      <trkpt lat="47.51328" lon="6.70508">
        <ele>420.2</ele>
        <time>2014-06-01T08:51:19.000Z</time>
      </trkpt>
      <trkpt lat="47.51327" lon="6.70509">
        <ele>420.8</ele>
        <time>2014-06-01T08:51:20.000Z</time>
      </trkpt>
      <trkpt lat="47.51327" lon="6.70515">
        <ele>422.7</ele>
        <time>2014-06-01T08:51:24.000Z</time>
      </trkpt>
      <trkpt lat="47.51327" lon="6.70516">
        <ele>423.6</ele>
        <time>2014-06-01T08:51:25.000Z</time>
      </trkpt>
      <trkpt lat="47.51327" lon="6.70523">
        <ele>425</ele>
        <time>2014-06-01T08:51:29.000Z</time>
      </trkpt>
      <trkpt lat="47.51327" lon="6.70525">
        <ele>424.1</ele>
        <time>2014-06-01T08:51:30.000Z</time>
      </trkpt>
      <trkpt lat="47.51325" lon="6.7053">
        <ele>426.8</ele>
        <time>2014-06-01T08:51:34.000Z</time>
      </trkpt>
      <trkpt lat="47.51325" lon="6.70531">
        <ele>427.6</ele>
        <time>2014-06-01T08:51:35.000Z</time>
      </trkpt>
      <trkpt lat="47.51325" lon="6.70536">
        <ele>429.1</ele>
        <time>2014-06-01T08:51:38.000Z</time>
      </trkpt>
      <trkpt lat="47.51325" lon="6.70538">
        <ele>428.3</ele>
        <time>2014-06-01T08:51:39.000Z</time>
      </trkpt>
      <trkpt lat="47.51324" lon="6.70544">
        <ele>426.9</ele>
        <time>2014-06-01T08:51:42.000Z</time>
      </trkpt>
      <trkpt lat="47.51324" lon="6.70546">
        <ele>427.7</ele>
        <time>2014-06-01T08:51:43.000Z</time>
      </trkpt>
      <trkpt lat="47.51323" lon="6.70552">
        <ele>433.5</ele>
        <time>2014-06-01T08:51:50.000Z</time>
      </trkpt>
      <trkpt lat="47.51323" lon="6.70553">
        <ele>433.7</ele>
        <time>2014-06-01T08:51:51.000Z</time>
      </trkpt>
      <trkpt lat="47.51321" lon="6.70558">
        <ele>435.3</ele>
        <time>2014-06-01T08:51:55.000Z</time>
      </trkpt>
      <trkpt lat="47.51321" lon="6.70559">
        <ele>436.1</ele>
        <time>2014-06-01T08:51:56.000Z</time>
      </trkpt>
      <trkpt lat="47.51321" lon="6.70562">
        <ele>437</ele>
        <time>2014-06-01T08:51:58.000Z</time>
      </trkpt>
      <trkpt lat="47.51317" lon="6.70573">
        <ele>442.5</ele>
        <time>2014-06-01T08:52:06.000Z</time>
      </trkpt>
      <trkpt lat="47.51317" lon="6.70579">
        <ele>443.5</ele>
        <time>2014-06-01T08:52:11.000Z</time>
      </trkpt>
      <trkpt lat="47.51317" lon="6.7058">
        <ele>445.5</ele>
        <time>2014-06-01T08:52:12.000Z</time>
      </trkpt>
      <trkpt lat="47.51316" lon="6.70586">
        <ele>444.5</ele>
        <time>2014-06-01T08:52:16.000Z</time>
      </trkpt>
      <trkpt lat="47.51316" lon="6.70588">
        <ele>444.2</ele>
        <time>2014-06-01T08:52:17.000Z</time>
      </trkpt>
      <trkpt lat="47.51315" lon="6.70592">
        <ele>444.9</ele>
        <time>2014-06-01T08:52:19.000Z</time>
      </trkpt>
      <trkpt lat="47.51315" lon="6.70595">
        <ele>446.2</ele>
        <time>2014-06-01T08:52:20.000Z</time>
      </trkpt>
      <trkpt lat="47.51314" lon="6.706">
        <ele>447.1</ele>
        <time>2014-06-01T08:52:23.000Z</time>
      </trkpt>
      <trkpt lat="47.51314" lon="6.70601">
        <ele>447</ele>
        <time>2014-06-01T08:52:24.000Z</time>
      </trkpt>
      <trkpt lat="47.51313" lon="6.70607">
        <ele>448.4</ele>
        <time>2014-06-01T08:52:28.000Z</time>
      </trkpt>
      <trkpt lat="47.51313" lon="6.70608">
        <ele>450.2</ele>
        <time>2014-06-01T08:52:29.000Z</time>
      </trkpt>
      <trkpt lat="47.51311" lon="6.70612">
        <ele>453</ele>
        <time>2014-06-01T08:52:34.000Z</time>
      </trkpt>
      <trkpt lat="47.51311" lon="6.70614">
        <ele>452.6</ele>
        <time>2014-06-01T08:52:35.000Z</time>
      </trkpt>
      <trkpt lat="47.5131" lon="6.70619">
        <ele>452.6</ele>
        <time>2014-06-01T08:52:38.000Z</time>
      </trkpt>
      <trkpt lat="47.5131" lon="6.70621">
        <ele>452.5</ele>
        <time>2014-06-01T08:52:39.000Z</time>
      </trkpt>
      <trkpt lat="47.51309" lon="6.70627">
        <ele>454</ele>
        <time>2014-06-01T08:52:43.000Z</time>
      </trkpt>
      <trkpt lat="47.51308" lon="6.70628">
        <ele>453.4</ele>
        <time>2014-06-01T08:52:44.000Z</time>
      </trkpt>
      <trkpt lat="47.51307" lon="6.70635">
        <ele>457.3</ele>
        <time>2014-06-01T08:52:48.000Z</time>
      </trkpt>
      <trkpt lat="47.51307" lon="6.70636">
        <ele>458.7</ele>
        <time>2014-06-01T08:52:49.000Z</time>
      </trkpt>
      <trkpt lat="47.51305" lon="6.70642">
        <ele>461.7</ele>
        <time>2014-06-01T08:52:53.000Z</time>
      </trkpt>
      <trkpt lat="47.51305" lon="6.70643">
        <ele>461.2</ele>
        <time>2014-06-01T08:52:54.000Z</time>
      </trkpt>
      <trkpt lat="47.51303" lon="6.70649">
        <ele>467.8</ele>
        <time>2014-06-01T08:53:00.000Z</time>
      </trkpt>
      <trkpt lat="47.51303" lon="6.7065">
        <ele>469.2</ele>
        <time>2014-06-01T08:53:01.000Z</time>
      </trkpt>
      <trkpt lat="47.51302" lon="6.70656">
        <ele>470.6</ele>
        <time>2014-06-01T08:53:06.000Z</time>
      </trkpt>
      <trkpt lat="47.51302" lon="6.70658">
        <ele>470.2</ele>
        <time>2014-06-01T08:53:07.000Z</time>
      </trkpt>
      <trkpt lat="47.51302" lon="6.70664">
        <ele>469.5</ele>
        <time>2014-06-01T08:53:10.000Z</time>
      </trkpt>
      <trkpt lat="47.51302" lon="6.70665">
        <ele>469.4</ele>
        <time>2014-06-01T08:53:11.000Z</time>
      </trkpt>
      <trkpt lat="47.51301" lon="6.70671">
        <ele>470.1</ele>
        <time>2014-06-01T08:53:24.000Z</time>
      </trkpt>
      <trkpt lat="47.51301" lon="6.70672">
        <ele>470</ele>
        <time>2014-06-01T08:53:25.000Z</time>
      </trkpt>
      <trkpt lat="47.51301" lon="6.70678">
        <ele>470.3</ele>
        <time>2014-06-01T08:53:42.000Z</time>
      </trkpt>
      <trkpt lat="47.51301" lon="6.70679">
        <ele>470.3</ele>
        <time>2014-06-01T08:53:43.000Z</time>
      </trkpt>
      <trkpt lat="47.51301" lon="6.70685">
        <ele>466.9</ele>
        <time>2014-06-01T08:54:06.000Z</time>
      </trkpt>
      <trkpt lat="47.51301" lon="6.70686">
        <ele>466.8</ele>
        <time>2014-06-01T08:54:07.000Z</time>
      </trkpt>
      <trkpt lat="47.51299" lon="6.70691">
        <ele>467</ele>
        <time>2014-06-01T08:54:12.000Z</time>
      </trkpt>
      <trkpt lat="47.51299" lon="6.70692">
        <ele>466.5</ele>
        <time>2014-06-01T08:54:13.000Z</time>
      </trkpt>
      <trkpt lat="47.51299" lon="6.70699">
        <ele>463.5</ele>
        <time>2014-06-01T08:54:17.000Z</time>
      </trkpt>
      <trkpt lat="47.51299" lon="6.707">
        <ele>463.4</ele>
        <time>2014-06-01T08:54:18.000Z</time>
      </trkpt>
      <trkpt lat="47.51296" lon="6.70705">
        <ele>461.3</ele>
        <time>2014-06-01T08:54:34.000Z</time>
      </trkpt>
      <trkpt lat="47.51295" lon="6.70706">
        <ele>460.2</ele>
        <time>2014-06-01T08:54:35.000Z</time>
      </trkpt>
      <trkpt lat="47.51293" lon="6.70711">
        <ele>460.2</ele>
        <time>2014-06-01T08:54:44.000Z</time>
      </trkpt>
      <trkpt lat="47.51292" lon="6.70711">
        <ele>460.2</ele>
        <time>2014-06-01T08:54:45.000Z</time>
      </trkpt>
      <trkpt lat="47.5129" lon="6.70717">
        <ele>461</ele>
        <time>2014-06-01T08:54:55.000Z</time>
      </trkpt>
      <trkpt lat="47.5129" lon="6.70717">
        <ele>460.6</ele>
        <time>2014-06-01T08:54:56.000Z</time>
      </trkpt>
      <trkpt lat="47.51291" lon="6.70723">
        <ele>449.3</ele>
        <time>2014-06-01T08:55:00.000Z</time>
      </trkpt>
      <trkpt lat="47.51291" lon="6.70724">
        <ele>449.3</ele>
        <time>2014-06-01T08:55:01.000Z</time>
      </trkpt>
      <trkpt lat="47.5129" lon="6.7073">
        <ele>451.5</ele>
        <time>2014-06-01T08:55:11.000Z</time>
      </trkpt>
      <trkpt lat="47.5129" lon="6.70732">
        <ele>451.9</ele>
        <time>2014-06-01T08:55:12.000Z</time>
      </trkpt>
      <trkpt lat="47.51288" lon="6.70738">
        <ele>453.3</ele>
        <time>2014-06-01T08:55:16.000Z</time>
      </trkpt>
      <trkpt lat="47.51288" lon="6.70739">
        <ele>454.3</ele>
        <time>2014-06-01T08:55:17.000Z</time>
      </trkpt>
      <trkpt lat="47.51288" lon="6.70744">
        <ele>454.4</ele>
        <time>2014-06-01T08:55:20.000Z</time>
      </trkpt>
      <trkpt lat="47.51288" lon="6.70748">
        <ele>453.9</ele>
        <time>2014-06-01T08:55:21.000Z</time>
      </trkpt>
      <trkpt lat="47.51289" lon="6.70753">
        <ele>456</ele>
        <time>2014-06-01T08:55:33.000Z</time>
      </trkpt>
      <trkpt lat="47.51289" lon="6.70755">
        <ele>455.7</ele>
        <time>2014-06-01T08:55:34.000Z</time>
      </trkpt>
      <trkpt lat="47.51289" lon="6.7076">
        <ele>462.3</ele>
        <time>2014-06-01T08:55:39.000Z</time>
      </trkpt>
      <trkpt lat="47.51289" lon="6.70761">
        <ele>461.4</ele>
        <time>2014-06-01T08:55:40.000Z</time>
      </trkpt>
      <trkpt lat="47.51289" lon="6.70767">
        <ele>460.7</ele>
        <time>2014-06-01T08:55:43.000Z</time>
      </trkpt>
      <trkpt lat="47.51288" lon="6.70768">
        <ele>460.6</ele>
        <time>2014-06-01T08:55:44.000Z</time>
      </trkpt>
      <trkpt lat="47.51286" lon="6.70774">
        <ele>462.6</ele>
        <time>2014-06-01T08:55:48.000Z</time>
      </trkpt>
      <trkpt lat="47.51286" lon="6.70775">
        <ele>463</ele>
        <time>2014-06-01T08:55:49.000Z</time>
      </trkpt>
      <trkpt lat="47.51286" lon="6.70781">
        <ele>462.7</ele>
        <time>2014-06-01T08:55:53.000Z</time>
      </trkpt>
      <trkpt lat="47.51286" lon="6.70783">
        <ele>463.6</ele>
        <time>2014-06-01T08:55:54.000Z</time>
      </trkpt>
      <trkpt lat="47.51286" lon="6.70786">
        <ele>465</ele>
        <time>2014-06-01T08:55:57.000Z</time>
      </trkpt>
      <trkpt lat="47.51287" lon="6.70794">
        <ele>462.4</ele>
        <time>2014-06-01T08:56:04.740Z</time>
      </trkpt>
      <trkpt lat="47.51288" lon="6.708">
        <ele>463.6</ele>
        <time>2014-06-01T08:56:16.000Z</time>
      </trkpt>
      <trkpt lat="47.51288" lon="6.70801">
        <ele>463.4</ele>
        <time>2014-06-01T08:56:17.000Z</time>
      </trkpt>
      <trkpt lat="47.51287" lon="6.70807">
        <ele>467.3</ele>
        <time>2014-06-01T08:56:22.000Z</time>
      </trkpt>
      <trkpt lat="47.51287" lon="6.70808">
        <ele>467.6</ele>
        <time>2014-06-01T08:56:23.000Z</time>
      </trkpt>
      <trkpt lat="47.51288" lon="6.70814">
        <ele>470</ele>
        <time>2014-06-01T08:56:26.000Z</time>
      </trkpt>
      <trkpt lat="47.51288" lon="6.70815">
        <ele>471.1</ele>
        <time>2014-06-01T08:56:27.000Z</time>
      </trkpt>
      <trkpt lat="47.51288" lon="6.70821">
        <ele>473</ele>
        <time>2014-06-01T08:56:32.000Z</time>
      </trkpt>
      <trkpt lat="47.51288" lon="6.70822">
        <ele>473.4</ele>
        <time>2014-06-01T08:56:33.000Z</time>
      </trkpt>
      <trkpt lat="47.51287" lon="6.70828">
        <ele>477.1</ele>
        <time>2014-06-01T08:56:38.000Z</time>
      </trkpt>
      <trkpt lat="47.51287" lon="6.7083">
        <ele>477.4</ele>
        <time>2014-06-01T08:56:39.000Z</time>
      </trkpt>
      <trkpt lat="47.51287" lon="6.70835">
        <ele>480.4</ele>
        <time>2014-06-01T08:56:42.000Z</time>
      </trkpt>
      <trkpt lat="47.51287" lon="6.70837">
        <ele>481.8</ele>
        <time>2014-06-01T08:56:43.000Z</time>
      </trkpt>
      <trkpt lat="47.51287" lon="6.70843">
        <ele>487.9</ele>
        <time>2014-06-01T08:56:47.000Z</time>
      </trkpt>
      <trkpt lat="47.51287" lon="6.70844">
        <ele>489.1</ele>
        <time>2014-06-01T08:56:48.000Z</time>
      </trkpt>
      <trkpt lat="47.51287" lon="6.70849">
        <ele>489.5</ele>
        <time>2014-06-01T08:56:51.000Z</time>
      </trkpt>
      <trkpt lat="47.51288" lon="6.70851">
        <ele>489.9</ele>
        <time>2014-06-01T08:56:52.000Z</time>
      </trkpt>
      <trkpt lat="47.51288" lon="6.70857">
        <ele>490.8</ele>
        <time>2014-06-01T08:56:55.000Z</time>
      </trkpt>
      <trkpt lat="47.51288" lon="6.70859">
        <ele>490.8</ele>
        <time>2014-06-01T08:56:56.000Z</time>
      </trkpt>
      <trkpt lat="47.51288" lon="6.70862">
        <ele>489.1</ele>
        <time>2014-06-01T08:56:58.000Z</time>
      </trkpt>
      <trkpt lat="47.51288" lon="6.70867">
        <ele>485.9</ele>
        <time>2014-06-01T08:57:01.000Z</time>
      </trkpt>
      <trkpt lat="47.51289" lon="6.70872">
        <ele>484.6</ele>
        <time>2014-06-01T08:57:04.000Z</time>
      </trkpt>
      <trkpt lat="47.5129" lon="6.70873">
        <ele>484.2</ele>
        <time>2014-06-01T08:57:05.000Z</time>
      </trkpt>
      <trkpt lat="47.5129" lon="6.7088">
        <ele>482.3</ele>
        <time>2014-06-01T08:57:40.000Z</time>
      </trkpt>
      <trkpt lat="47.5129" lon="6.70881">
        <ele>482.7</ele>
        <time>2014-06-01T08:57:41.000Z</time>
      </trkpt>
      <trkpt lat="47.51289" lon="6.70887">
        <ele>482.2</ele>
        <time>2014-06-01T08:58:35.000Z</time>
      </trkpt>
      <trkpt lat="47.51289" lon="6.70888">
        <ele>481.8</ele>
        <time>2014-06-01T08:58:36.000Z</time>
      </trkpt>
      <trkpt lat="47.51288" lon="6.70889">
        <ele>478.2</ele>
        <time>2014-06-01T08:59:57.000Z</time>
      </trkpt>
      <trkpt lat="47.51264" lon="6.70901">
        <ele>463.5</ele>
        <time>2014-06-01T09:00:04.778Z</time>
      </trkpt>
      <trkpt lat="47.51261" lon="6.70903">
        <ele>463.5</ele>
        <time>2014-06-01T09:00:06.000Z</time>
      </trkpt>
      <trkpt lat="47.51259" lon="6.70905">
        <ele>464.1</ele>
        <time>2014-06-01T09:00:07.000Z</time>
      </trkpt>
      <trkpt lat="47.51256" lon="6.70907">
        <ele>467.9</ele>
        <time>2014-06-01T09:00:10.000Z</time>
      </trkpt>
      <trkpt lat="47.51255" lon="6.70908">
        <ele>468.3</ele>
        <time>2014-06-01T09:00:11.000Z</time>
      </trkpt>
      <trkpt lat="47.51257" lon="6.70913">
        <ele>471.5</ele>
        <time>2014-06-01T09:00:15.000Z</time>
      </trkpt>
      <trkpt lat="47.51258" lon="6.70915">
        <ele>476.5</ele>
        <time>2014-06-01T09:00:16.000Z</time>
      </trkpt>
      <trkpt lat="47.5126" lon="6.70919">
        <ele>479.7</ele>
        <time>2014-06-01T09:00:19.000Z</time>
      </trkpt>
      <trkpt lat="47.5126" lon="6.7092">
        <ele>481</ele>
        <time>2014-06-01T09:00:20.000Z</time>
      </trkpt>
      <trkpt lat="47.51261" lon="6.70925">
        <ele>485.6</ele>
        <time>2014-06-01T09:00:22.000Z</time>
      </trkpt>
      <trkpt lat="47.51261" lon="6.70928">
        <ele>486.9</ele>
        <time>2014-06-01T09:00:23.000Z</time>
      </trkpt>
      <trkpt lat="47.51259" lon="6.70933">
        <ele>490.2</ele>
        <time>2014-06-01T09:00:25.000Z</time>
      </trkpt>
      <trkpt lat="47.51259" lon="6.70935">
        <ele>490.9</ele>
        <time>2014-06-01T09:00:26.000Z</time>
      </trkpt>
      <trkpt lat="47.51258" lon="6.70939">
        <ele>491.9</ele>
        <time>2014-06-01T09:00:28.000Z</time>
      </trkpt>
      <trkpt lat="47.51258" lon="6.70942">
        <ele>493.6</ele>
        <time>2014-06-01T09:00:29.000Z</time>
      </trkpt>
      <trkpt lat="47.51258" lon="6.70946">
        <ele>493.7</ele>
        <time>2014-06-01T09:00:30.000Z</time>
      </trkpt>
      <trkpt lat="47.51258" lon="6.7095">
        <ele>496</ele>
        <time>2014-06-01T09:00:31.000Z</time>
      </trkpt>
      <trkpt lat="47.51258" lon="6.70954">
        <ele>496.9</ele>
        <time>2014-06-01T09:00:32.000Z</time>
      </trkpt>
      <trkpt lat="47.51258" lon="6.70957">
        <ele>494.7</ele>
        <time>2014-06-01T09:00:33.000Z</time>
      </trkpt>
      <trkpt lat="47.51257" lon="6.70961">
        <ele>496.1</ele>
        <time>2014-06-01T09:00:35.000Z</time>
      </trkpt>
      <trkpt lat="47.51257" lon="6.70963">
        <ele>496.5</ele>
        <time>2014-06-01T09:00:36.000Z</time>
      </trkpt>
      <trkpt lat="47.51258" lon="6.70969">
        <ele>498.6</ele>
        <time>2014-06-01T09:00:38.000Z</time>
      </trkpt>
      <trkpt lat="47.51258" lon="6.70971">
        <ele>498.4</ele>
        <time>2014-06-01T09:00:39.000Z</time>
      </trkpt>
      <trkpt lat="47.51258" lon="6.70977">
        <ele>498.8</ele>
        <time>2014-06-01T09:00:41.000Z</time>
      </trkpt>
      <trkpt lat="47.51258" lon="6.7098">
        <ele>499.3</ele>
        <time>2014-06-01T09:00:42.000Z</time>
      </trkpt>
      <trkpt lat="47.51258" lon="6.70986">
        <ele>499.2</ele>
        <time>2014-06-01T09:00:44.000Z</time>
      </trkpt>
      <trkpt lat="47.51259" lon="6.7099">
        <ele>498.2</ele>
        <time>2014-06-01T09:00:45.000Z</time>
      </trkpt>
      <trkpt lat="47.51258" lon="6.70994">
        <ele>498.6</ele>
        <time>2014-06-01T09:00:46.000Z</time>
      </trkpt>
      <trkpt lat="47.51258" lon="6.70999">
        <ele>498.1</ele>
        <time>2014-06-01T09:00:47.000Z</time>
      </trkpt>
      <trkpt lat="47.51257" lon="6.71005">
        <ele>497.6</ele>
        <time>2014-06-01T09:00:48.000Z</time>
      </trkpt>
      <trkpt lat="47.51255" lon="6.7101">
        <ele>497.4</ele>
        <time>2014-06-01T09:00:49.000Z</time>
      </trkpt>
      <trkpt lat="47.51255" lon="6.71014">
        <ele>496.9</ele>
        <time>2014-06-01T09:00:50.000Z</time>
      </trkpt>
      <trkpt lat="47.51255" lon="6.71018">
        <ele>496.4</ele>
        <time>2014-06-01T09:00:51.000Z</time>
      </trkpt>
      <trkpt lat="47.51256" lon="6.71024">
        <ele>495.8</ele>
        <time>2014-06-01T09:00:53.000Z</time>
      </trkpt>
      <trkpt lat="47.51256" lon="6.71027">
        <ele>496</ele>
        <time>2014-06-01T09:00:54.000Z</time>
      </trkpt>
      <trkpt lat="47.51255" lon="6.71032">
        <ele>497.2</ele>
        <time>2014-06-01T09:00:55.000Z</time>
      </trkpt>
      <trkpt lat="47.51254" lon="6.71036">
        <ele>496.4</ele>
        <time>2014-06-01T09:00:56.000Z</time>
      </trkpt>
      <trkpt lat="47.51253" lon="6.71042">
        <ele>497</ele>
        <time>2014-06-01T09:00:57.000Z</time>
      </trkpt>
      <trkpt lat="47.51252" lon="6.71048">
        <ele>497</ele>
        <time>2014-06-01T09:00:58.000Z</time>
      </trkpt>
      <trkpt lat="47.51249" lon="6.7106">
        <ele>495.6</ele>
        <time>2014-06-01T09:01:01.000Z</time>
      </trkpt>
      <trkpt lat="47.51248" lon="6.71066">
        <ele>495</ele>
        <time>2014-06-01T09:01:02.000Z</time>
      </trkpt>
      <trkpt lat="47.51248" lon="6.71071">
        <ele>492.6</ele>
        <time>2014-06-01T09:01:03.000Z</time>
      </trkpt>
      <trkpt lat="47.51247" lon="6.71075">
        <ele>493.3</ele>
        <time>2014-06-01T09:01:04.000Z</time>
      </trkpt>
      <trkpt lat="47.51247" lon="6.71079">
        <ele>495.1</ele>
        <time>2014-06-01T09:01:05.000Z</time>
      </trkpt>
      <trkpt lat="47.51247" lon="6.71083">
        <ele>496.1</ele>
        <time>2014-06-01T09:01:06.000Z</time>
      </trkpt>
      <trkpt lat="47.51247" lon="6.71088">
        <ele>497.5</ele>
        <time>2014-06-01T09:01:07.000Z</time>
      </trkpt>
      <trkpt lat="47.51247" lon="6.71092">
        <ele>496.7</ele>
        <time>2014-06-01T09:01:08.000Z</time>
      </trkpt>
      <trkpt lat="47.51246" lon="6.71098">
        <ele>499.6</ele>
        <time>2014-06-01T09:01:09.000Z</time>
      </trkpt>
      <trkpt lat="47.51246" lon="6.71105">
        <ele>499.4</ele>
        <time>2014-06-01T09:01:10.000Z</time>
      </trkpt>
      <trkpt lat="47.51245" lon="6.71111">
        <ele>499.6</ele>
        <time>2014-06-01T09:01:11.000Z</time>
      </trkpt>
      <trkpt lat="47.51244" lon="6.71118">
        <ele>499.4</ele>
        <time>2014-06-01T09:01:12.000Z</time>
      </trkpt>
      <trkpt lat="47.51243" lon="6.71125">
        <ele>499.3</ele>
        <time>2014-06-01T09:01:13.000Z</time>
      </trkpt>
      <trkpt lat="47.51242" lon="6.71132">
        <ele>499.3</ele>
        <time>2014-06-01T09:01:14.000Z</time>
      </trkpt>
      <trkpt lat="47.51242" lon="6.71138">
        <ele>499.6</ele>
        <time>2014-06-01T09:01:15.000Z</time>
      </trkpt>
      <trkpt lat="47.51241" lon="6.71146">
        <ele>499.1</ele>
        <time>2014-06-01T09:01:16.000Z</time>
      </trkpt>
      <trkpt lat="47.5124" lon="6.71178">
        <ele>498.1</ele>
        <time>2014-06-01T09:01:17.000Z</time>
      </trkpt>
      <trkpt lat="47.51239" lon="6.71182">
        <ele>497.8</ele>
        <time>2014-06-01T09:01:18.000Z</time>
      </trkpt>
      <trkpt lat="47.51239" lon="6.71187">
        <ele>497</ele>
        <time>2014-06-01T09:01:19.000Z</time>
      </trkpt>
      <trkpt lat="47.51239" lon="6.71193">
        <ele>494.9</ele>
        <time>2014-06-01T09:01:20.000Z</time>
      </trkpt>
      <trkpt lat="47.51239" lon="6.712">
        <ele>493.8</ele>
        <time>2014-06-01T09:01:21.000Z</time>
      </trkpt>
      <trkpt lat="47.51239" lon="6.71208">
        <ele>489.9</ele>
        <time>2014-06-01T09:01:22.000Z</time>
      </trkpt>
      <trkpt lat="47.51236" lon="6.71236">
        <ele>488.5</ele>
        <time>2014-06-01T09:01:23.000Z</time>
      </trkpt>
      <trkpt lat="47.51234" lon="6.71247">
        <ele>487.6</ele>
        <time>2014-06-01T09:01:24.000Z</time>
      </trkpt>
      <trkpt lat="47.51232" lon="6.71253">
        <ele>487.9</ele>
        <time>2014-06-01T09:01:25.000Z</time>
      </trkpt>
      <trkpt lat="47.51232" lon="6.71257">
        <ele>488.7</ele>
        <time>2014-06-01T09:01:26.000Z</time>
      </trkpt>
      <trkpt lat="47.51232" lon="6.71262">
        <ele>489.4</ele>
        <time>2014-06-01T09:01:27.000Z</time>
      </trkpt>
      <trkpt lat="47.51234" lon="6.71271">
        <ele>489.8</ele>
        <time>2014-06-01T09:01:28.000Z</time>
      </trkpt>
      <trkpt lat="47.51232" lon="6.71275">
        <ele>496.1</ele>
        <time>2014-06-01T09:01:29.000Z</time>
      </trkpt>
      <trkpt lat="47.51231" lon="6.7128">
        <ele>499.5</ele>
        <time>2014-06-01T09:01:30.000Z</time>
      </trkpt>
      <trkpt lat="47.51231" lon="6.71284">
        <ele>501.4</ele>
        <time>2014-06-01T09:01:31.000Z</time>
      </trkpt>
      <trkpt lat="47.5123" lon="6.71291">
        <ele>501.5</ele>
        <time>2014-06-01T09:01:32.000Z</time>
      </trkpt>
      <trkpt lat="47.5123" lon="6.71296">
        <ele>501</ele>
        <time>2014-06-01T09:01:33.000Z</time>
      </trkpt>
      <trkpt lat="47.51229" lon="6.713">
        <ele>500.1</ele>
        <time>2014-06-01T09:01:34.000Z</time>
      </trkpt>
      <trkpt lat="47.51228" lon="6.71305">
        <ele>499.9</ele>
        <time>2014-06-01T09:01:35.000Z</time>
      </trkpt>
      <trkpt lat="47.51228" lon="6.71309">
        <ele>499.6</ele>
        <time>2014-06-01T09:01:36.000Z</time>
      </trkpt>
      <trkpt lat="47.51227" lon="6.71313">
        <ele>499.4</ele>
        <time>2014-06-01T09:01:37.000Z</time>
      </trkpt>
      <trkpt lat="47.51227" lon="6.71317">
        <ele>499.1</ele>
        <time>2014-06-01T09:01:38.000Z</time>
      </trkpt>
      <trkpt lat="47.51227" lon="6.71321">
        <ele>498.8</ele>
        <time>2014-06-01T09:01:39.000Z</time>
      </trkpt>
      <trkpt lat="47.51227" lon="6.71327">
        <ele>499.2</ele>
        <time>2014-06-01T09:01:40.000Z</time>
      </trkpt>
      <trkpt lat="47.51227" lon="6.71333">
        <ele>499.4</ele>
        <time>2014-06-01T09:01:41.000Z</time>
      </trkpt>
      <trkpt lat="47.51226" lon="6.71338">
        <ele>499.9</ele>
        <time>2014-06-01T09:01:42.000Z</time>
      </trkpt>
      <trkpt lat="47.51226" lon="6.71344">
        <ele>500.9</ele>
        <time>2014-06-01T09:01:43.000Z</time>
      </trkpt>
      <trkpt lat="47.51225" lon="6.7135">
        <ele>500.7</ele>
        <time>2014-06-01T09:01:44.000Z</time>
      </trkpt>
      <trkpt lat="47.51224" lon="6.71356">
        <ele>501.1</ele>
        <time>2014-06-01T09:01:45.000Z</time>
      </trkpt>
      <trkpt lat="47.51225" lon="6.71362">
        <ele>503.5</ele>
        <time>2014-06-01T09:01:46.000Z</time>
      </trkpt>
      <trkpt lat="47.51225" lon="6.71367">
        <ele>503.2</ele>
        <time>2014-06-01T09:01:47.000Z</time>
      </trkpt>
      <trkpt lat="47.51226" lon="6.71372">
        <ele>503.5</ele>
        <time>2014-06-01T09:01:48.000Z</time>
      </trkpt>
      <trkpt lat="47.51228" lon="6.71377">
        <ele>503.3</ele>
        <time>2014-06-01T09:01:49.000Z</time>
      </trkpt>
      <trkpt lat="47.51227" lon="6.71382">
        <ele>509.5</ele>
        <time>2014-06-01T09:01:50.000Z</time>
      </trkpt>
      <trkpt lat="47.51227" lon="6.71387">
        <ele>509.8</ele>
        <time>2014-06-01T09:01:51.000Z</time>
      </trkpt>
      <trkpt lat="47.51225" lon="6.71393">
        <ele>510</ele>
        <time>2014-06-01T09:01:52.000Z</time>
      </trkpt>
      <trkpt lat="47.51224" lon="6.71399">
        <ele>509.7</ele>
        <time>2014-06-01T09:01:53.000Z</time>
      </trkpt>
      <trkpt lat="47.51223" lon="6.71404">
        <ele>509.5</ele>
        <time>2014-06-01T09:01:54.000Z</time>
      </trkpt>
      <trkpt lat="47.51222" lon="6.71409">
        <ele>509</ele>
        <time>2014-06-01T09:01:55.000Z</time>
      </trkpt>
      <trkpt lat="47.51221" lon="6.71414">
        <ele>509.3</ele>
        <time>2014-06-01T09:01:56.000Z</time>
      </trkpt>
      <trkpt lat="47.51221" lon="6.7142">
        <ele>507.4</ele>
        <time>2014-06-01T09:01:57.000Z</time>
      </trkpt>
      <trkpt lat="47.51222" lon="6.71427">
        <ele>505.6</ele>
        <time>2014-06-01T09:01:58.000Z</time>
      </trkpt>
      <trkpt lat="47.51221" lon="6.71444">
        <ele>500.5</ele>
        <time>2014-06-01T09:02:01.000Z</time>
      </trkpt>
      <trkpt lat="47.51221" lon="6.71449">
        <ele>499.3</ele>
        <time>2014-06-01T09:02:02.000Z</time>
      </trkpt>
      <trkpt lat="47.5122" lon="6.71456">
        <ele>498.5</ele>
        <time>2014-06-01T09:02:03.000Z</time>
      </trkpt>
      <trkpt lat="47.5122" lon="6.71463">
        <ele>498.5</ele>
        <time>2014-06-01T09:02:04.000Z</time>
      </trkpt>
      <trkpt lat="47.51219" lon="6.7147">
        <ele>498.2</ele>
        <time>2014-06-01T09:02:05.000Z</time>
      </trkpt>
      <trkpt lat="47.51218" lon="6.71479">
        <ele>496.6</ele>
        <time>2014-06-01T09:02:06.000Z</time>
      </trkpt>
      <trkpt lat="47.51217" lon="6.71487">
        <ele>495.9</ele>
        <time>2014-06-01T09:02:07.000Z</time>
      </trkpt>
      <trkpt lat="47.51215" lon="6.71496">
        <ele>495.9</ele>
        <time>2014-06-01T09:02:08.000Z</time>
      </trkpt>
      <trkpt lat="47.51213" lon="6.71504">
        <ele>495.2</ele>
        <time>2014-06-01T09:02:09.000Z</time>
      </trkpt>
      <trkpt lat="47.51212" lon="6.71513">
        <ele>495.8</ele>
        <time>2014-06-01T09:02:10.000Z</time>
      </trkpt>
      <trkpt lat="47.51212" lon="6.71521">
        <ele>495.3</ele>
        <time>2014-06-01T09:02:11.000Z</time>
      </trkpt>
      <trkpt lat="47.51211" lon="6.71529">
        <ele>495.4</ele>
        <time>2014-06-01T09:02:12.000Z</time>
      </trkpt>
      <trkpt lat="47.5121" lon="6.71537">
        <ele>496</ele>
        <time>2014-06-01T09:02:13.000Z</time>
      </trkpt>
      <trkpt lat="47.51209" lon="6.71544">
        <ele>496.3</ele>
        <time>2014-06-01T09:02:14.000Z</time>
      </trkpt>
      <trkpt lat="47.51209" lon="6.71552">
        <ele>496.4</ele>
        <time>2014-06-01T09:02:15.000Z</time>
      </trkpt>
      <trkpt lat="47.51208" lon="6.7156">
        <ele>497</ele>
        <time>2014-06-01T09:02:16.000Z</time>
      </trkpt>
      <trkpt lat="47.51207" lon="6.71568">
        <ele>497.6</ele>
        <time>2014-06-01T09:02:17.000Z</time>
      </trkpt>
      <trkpt lat="47.51207" lon="6.71577">
        <ele>496.1</ele>
        <time>2014-06-01T09:02:18.000Z</time>
      </trkpt>
      <trkpt lat="47.51206" lon="6.71587">
        <ele>495</ele>
        <time>2014-06-01T09:02:19.000Z</time>
      </trkpt>
      <trkpt lat="47.51205" lon="6.71596">
        <ele>495</ele>
        <time>2014-06-01T09:02:20.000Z</time>
      </trkpt>
      <trkpt lat="47.51204" lon="6.71605">
        <ele>495.7</ele>
        <time>2014-06-01T09:02:21.000Z</time>
      </trkpt>
      <trkpt lat="47.51203" lon="6.71614">
        <ele>496.9</ele>
        <time>2014-06-01T09:02:22.000Z</time>
      </trkpt>
      <trkpt lat="47.51201" lon="6.71622">
        <ele>498.1</ele>
        <time>2014-06-01T09:02:23.000Z</time>
      </trkpt>
      <trkpt lat="47.512" lon="6.71631">
        <ele>498.7</ele>
        <time>2014-06-01T09:02:24.000Z</time>
      </trkpt>
      <trkpt lat="47.51199" lon="6.7164">
        <ele>497</ele>
        <time>2014-06-01T09:02:25.000Z</time>
      </trkpt>
      <trkpt lat="47.51199" lon="6.7165">
        <ele>496.7</ele>
        <time>2014-06-01T09:02:26.000Z</time>
      </trkpt>
      <trkpt lat="47.51199" lon="6.71659">
        <ele>497.1</ele>
        <time>2014-06-01T09:02:27.000Z</time>
      </trkpt>
      <trkpt lat="47.51199" lon="6.71669">
        <ele>498.2</ele>
        <time>2014-06-01T09:02:28.000Z</time>
      </trkpt>
      <trkpt lat="47.51198" lon="6.71678">
        <ele>498.8</ele>
        <time>2014-06-01T09:02:29.000Z</time>
      </trkpt>
      <trkpt lat="47.51198" lon="6.71687">
        <ele>500</ele>
        <time>2014-06-01T09:02:30.000Z</time>
      </trkpt>
      <trkpt lat="47.51197" lon="6.71696">
        <ele>499.6</ele>
        <time>2014-06-01T09:02:31.000Z</time>
      </trkpt>
      <trkpt lat="47.51196" lon="6.71706">
        <ele>499.3</ele>
        <time>2014-06-01T09:02:32.000Z</time>
      </trkpt>
      <trkpt lat="47.51196" lon="6.71716">
        <ele>499</ele>
        <time>2014-06-01T09:02:33.000Z</time>
      </trkpt>
      <trkpt lat="47.51196" lon="6.71727">
        <ele>498.4</ele>
        <time>2014-06-01T09:02:34.000Z</time>
      </trkpt>
      <trkpt lat="47.51197" lon="6.71737">
        <ele>499.2</ele>
        <time>2014-06-01T09:02:35.000Z</time>
      </trkpt>
      <trkpt lat="47.51198" lon="6.71747">
        <ele>498.6</ele>
        <time>2014-06-01T09:02:36.000Z</time>
      </trkpt>
      <trkpt lat="47.51198" lon="6.71757">
        <ele>499.9</ele>
        <time>2014-06-01T09:02:37.000Z</time>
      </trkpt>
      <trkpt lat="47.512" lon="6.71766">
        <ele>500.8</ele>
        <time>2014-06-01T09:02:38.000Z</time>
      </trkpt>
      <trkpt lat="47.51201" lon="6.71775">
        <ele>502</ele>
        <time>2014-06-01T09:02:39.000Z</time>
      </trkpt>
      <trkpt lat="47.51202" lon="6.71783">
        <ele>502.9</ele>
        <time>2014-06-01T09:02:40.000Z</time>
      </trkpt>
      <trkpt lat="47.51203" lon="6.71792">
        <ele>502.9</ele>
        <time>2014-06-01T09:02:41.000Z</time>
      </trkpt>
      <trkpt lat="47.51204" lon="6.71801">
        <ele>503.9</ele>
        <time>2014-06-01T09:02:42.000Z</time>
      </trkpt>
      <trkpt lat="47.51204" lon="6.7181">
        <ele>504.1</ele>
        <time>2014-06-01T09:02:43.000Z</time>
      </trkpt>
      <trkpt lat="47.51204" lon="6.7182">
        <ele>505.1</ele>
        <time>2014-06-01T09:02:44.000Z</time>
      </trkpt>
      <trkpt lat="47.51205" lon="6.71829">
        <ele>504.8</ele>
        <time>2014-06-01T09:02:45.000Z</time>
      </trkpt>
      <trkpt lat="47.51205" lon="6.71837">
        <ele>505</ele>
        <time>2014-06-01T09:02:46.000Z</time>
      </trkpt>
      <trkpt lat="47.51205" lon="6.71846">
        <ele>504.9</ele>
        <time>2014-06-01T09:02:47.000Z</time>
      </trkpt>
      <trkpt lat="47.51205" lon="6.71855">
        <ele>505.7</ele>
        <time>2014-06-01T09:02:48.000Z</time>
      </trkpt>
      <trkpt lat="47.51205" lon="6.71865">
        <ele>507</ele>
        <time>2014-06-01T09:02:49.000Z</time>
      </trkpt>
      <trkpt lat="47.51206" lon="6.71874">
        <ele>507.9</ele>
        <time>2014-06-01T09:02:50.000Z</time>
      </trkpt>
      <trkpt lat="47.5121" lon="6.7191">
        <ele>508</ele>
        <time>2014-06-01T09:02:51.000Z</time>
      </trkpt>
      <trkpt lat="47.51211" lon="6.71918">
        <ele>508.5</ele>
        <time>2014-06-01T09:02:52.000Z</time>
      </trkpt>
      <trkpt lat="47.51211" lon="6.71925">
        <ele>509.1</ele>
        <time>2014-06-01T09:02:53.000Z</time>
      </trkpt>
      <trkpt lat="47.5121" lon="6.71932">
        <ele>515.4</ele>
        <time>2014-06-01T09:02:54.000Z</time>
      </trkpt>
      <trkpt lat="47.5121" lon="6.71939">
        <ele>513.1</ele>
        <time>2014-06-01T09:02:55.000Z</time>
      </trkpt>
      <trkpt lat="47.51209" lon="6.71947">
        <ele>511.8</ele>
        <time>2014-06-01T09:02:56.000Z</time>
      </trkpt>
      <trkpt lat="47.51208" lon="6.71955">
        <ele>512</ele>
        <time>2014-06-01T09:02:57.000Z</time>
      </trkpt>
      <trkpt lat="47.51214" lon="6.72054">
        <ele>502.2</ele>
        <time>2014-06-01T09:03:06.000Z</time>
      </trkpt>
      <trkpt lat="47.51216" lon="6.72098">
        <ele>488.4</ele>
        <time>2014-06-01T09:03:07.000Z</time>
      </trkpt>
      <trkpt lat="47.5122" lon="6.72119">
        <ele>483.1</ele>
        <time>2014-06-01T09:03:08.000Z</time>
      </trkpt>
      <trkpt lat="47.51221" lon="6.72127">
        <ele>482.3</ele>
        <time>2014-06-01T09:03:09.000Z</time>
      </trkpt>
      <trkpt lat="47.51221" lon="6.72133">
        <ele>482.1</ele>
        <time>2014-06-01T09:03:10.000Z</time>
      </trkpt>
      <trkpt lat="47.51221" lon="6.72144">
        <ele>481.7</ele>
        <time>2014-06-01T09:03:11.000Z</time>
      </trkpt>
      <trkpt lat="47.51219" lon="6.72155">
        <ele>481.8</ele>
        <time>2014-06-01T09:03:12.000Z</time>
      </trkpt>
      <trkpt lat="47.51218" lon="6.72163">
        <ele>482.1</ele>
        <time>2014-06-01T09:03:13.000Z</time>
      </trkpt>
      <trkpt lat="47.51215" lon="6.72172">
        <ele>482.4</ele>
        <time>2014-06-01T09:03:14.000Z</time>
      </trkpt>
      <trkpt lat="47.51216" lon="6.72182">
        <ele>483.5</ele>
        <time>2014-06-01T09:03:15.000Z</time>
      </trkpt>
      <trkpt lat="47.51216" lon="6.7219">
        <ele>484.4</ele>
        <time>2014-06-01T09:03:16.000Z</time>
      </trkpt>
      <trkpt lat="47.51217" lon="6.722">
        <ele>484.9</ele>
        <time>2014-06-01T09:03:17.000Z</time>
      </trkpt>
      <trkpt lat="47.51216" lon="6.72212">
        <ele>485.5</ele>
        <time>2014-06-01T09:03:18.000Z</time>
      </trkpt>
      <trkpt lat="47.51216" lon="6.72221">
        <ele>486.2</ele>
        <time>2014-06-01T09:03:19.000Z</time>
      </trkpt>
      <trkpt lat="47.51215" lon="6.7223">
        <ele>485.8</ele>
        <time>2014-06-01T09:03:20.000Z</time>
      </trkpt>
      <trkpt lat="47.51216" lon="6.72241">
        <ele>485.4</ele>
        <time>2014-06-01T09:03:21.000Z</time>
      </trkpt>
      <trkpt lat="47.51215" lon="6.72247">
        <ele>485.2</ele>
        <time>2014-06-01T09:03:22.000Z</time>
      </trkpt>
      <trkpt lat="47.51214" lon="6.72253">
        <ele>484.7</ele>
        <time>2014-06-01T09:03:23.000Z</time>
      </trkpt>
      <trkpt lat="47.51213" lon="6.7226">
        <ele>485</ele>
        <time>2014-06-01T09:03:24.000Z</time>
      </trkpt>
      <trkpt lat="47.51213" lon="6.7227">
        <ele>484.2</ele>
        <time>2014-06-01T09:03:25.000Z</time>
      </trkpt>
      <trkpt lat="47.51212" lon="6.72279">
        <ele>484.8</ele>
        <time>2014-06-01T09:03:26.000Z</time>
      </trkpt>
      <trkpt lat="47.51212" lon="6.72288">
        <ele>485.8</ele>
        <time>2014-06-01T09:03:27.000Z</time>
      </trkpt>
      <trkpt lat="47.51212" lon="6.72295">
        <ele>485.8</ele>
        <time>2014-06-01T09:03:28.000Z</time>
      </trkpt>
      <trkpt lat="47.5121" lon="6.72303">
        <ele>484.5</ele>
        <time>2014-06-01T09:03:29.000Z</time>
      </trkpt>
      <trkpt lat="47.51208" lon="6.72323">
        <ele>483.7</ele>
        <time>2014-06-01T09:03:30.000Z</time>
      </trkpt>
      <trkpt lat="47.51209" lon="6.72339">
        <ele>481.6</ele>
        <time>2014-06-01T09:03:31.000Z</time>
      </trkpt>
      <trkpt lat="47.51208" lon="6.72348">
        <ele>480.5</ele>
        <time>2014-06-01T09:03:32.000Z</time>
      </trkpt>
      <trkpt lat="47.51206" lon="6.72353">
        <ele>480.3</ele>
        <time>2014-06-01T09:03:33.000Z</time>
      </trkpt>
      <trkpt lat="47.51205" lon="6.72362">
        <ele>479.4</ele>
        <time>2014-06-01T09:03:34.000Z</time>
      </trkpt>
      <trkpt lat="47.51202" lon="6.72372">
        <ele>480.2</ele>
        <time>2014-06-01T09:03:35.000Z</time>
      </trkpt>
      <trkpt lat="47.51201" lon="6.7238">
        <ele>479.3</ele>
        <time>2014-06-01T09:03:36.000Z</time>
      </trkpt>
      <trkpt lat="47.51198" lon="6.72391">
        <ele>478.4</ele>
        <time>2014-06-01T09:03:37.000Z</time>
      </trkpt>
      <trkpt lat="47.51195" lon="6.72402">
        <ele>476.9</ele>
        <time>2014-06-01T09:03:38.000Z</time>
      </trkpt>
      <trkpt lat="47.51189" lon="6.72406">
        <ele>475.9</ele>
        <time>2014-06-01T09:03:39.000Z</time>
      </trkpt>
      <trkpt lat="47.51185" lon="6.72414">
        <ele>475</ele>
        <time>2014-06-01T09:03:40.000Z</time>
      </trkpt>
      <trkpt lat="47.51181" lon="6.72422">
        <ele>473.9</ele>
        <time>2014-06-01T09:03:41.000Z</time>
      </trkpt>
      <trkpt lat="47.51178" lon="6.72426">
        <ele>474.2</ele>
        <time>2014-06-01T09:03:41.998Z</time>
      </trkpt>
      <trkpt lat="47.51178" lon="6.72435">
        <ele>470</ele>
        <time>2014-06-01T09:03:43.000Z</time>
      </trkpt>
      <trkpt lat="47.51174" lon="6.72435">
        <ele>468.5</ele>
        <time>2014-06-01T09:03:46.000Z</time>
      </trkpt>
      <trkpt lat="47.51173" lon="6.72438">
        <ele>468.3</ele>
        <time>2014-06-01T09:03:47.000Z</time>
      </trkpt>
      <trkpt lat="47.51173" lon="6.72445">
        <ele>469.6</ele>
        <time>2014-06-01T09:03:50.000Z</time>
      </trkpt>
      <trkpt lat="47.51173" lon="6.72447">
        <ele>470.2</ele>
        <time>2014-06-01T09:03:51.000Z</time>
      </trkpt>
      <trkpt lat="47.51174" lon="6.72452">
        <ele>471.2</ele>
        <time>2014-06-01T09:03:54.000Z</time>
      </trkpt>
      <trkpt lat="47.51175" lon="6.72454">
        <ele>472.8</ele>
        <time>2014-06-01T09:03:55.000Z</time>
      </trkpt>
      <trkpt lat="47.51175" lon="6.72459">
        <ele>472.3</ele>
        <time>2014-06-01T09:03:57.000Z</time>
      </trkpt>
      <trkpt lat="47.51175" lon="6.72466">
        <ele>476.4</ele>
        <time>2014-06-01T09:03:59.100Z</time>
      </trkpt>
      <trkpt lat="47.51174" lon="6.72473">
        <ele>476.7</ele>
        <time>2014-06-01T09:04:01.000Z</time>
      </trkpt>
      <trkpt lat="47.51173" lon="6.72478">
        <ele>475.8</ele>
        <time>2014-06-01T09:04:02.000Z</time>
      </trkpt>
      <trkpt lat="47.51172" lon="6.72483">
        <ele>475.8</ele>
        <time>2014-06-01T09:04:03.000Z</time>
      </trkpt>
      <trkpt lat="47.51171" lon="6.72489">
        <ele>475.4</ele>
        <time>2014-06-01T09:04:04.000Z</time>
      </trkpt>
      <trkpt lat="47.5117" lon="6.72495">
        <ele>475.5</ele>
        <time>2014-06-01T09:04:05.000Z</time>
      </trkpt>
      <trkpt lat="47.51169" lon="6.72501">
        <ele>475.4</ele>
        <time>2014-06-01T09:04:06.000Z</time>
      </trkpt>
      <trkpt lat="47.51169" lon="6.72505">
        <ele>474.9</ele>
        <time>2014-06-01T09:04:07.000Z</time>
      </trkpt>
      <trkpt lat="47.51169" lon="6.72511">
        <ele>476.1</ele>
        <time>2014-06-01T09:04:10.000Z</time>
      </trkpt>
      <trkpt lat="47.51169" lon="6.72512">
        <ele>475.6</ele>
        <time>2014-06-01T09:04:11.000Z</time>
      </trkpt>
      <trkpt lat="47.51169" lon="6.72518">
        <ele>474</ele>
        <time>2014-06-01T09:04:21.000Z</time>
      </trkpt>
      <trkpt lat="47.51169" lon="6.72519">
        <ele>474.3</ele>
        <time>2014-06-01T09:04:22.000Z</time>
      </trkpt>
      <trkpt lat="47.51173" lon="6.72523">
        <ele>475.1</ele>
        <time>2014-06-01T09:04:26.000Z</time>
      </trkpt>
      <trkpt lat="47.51174" lon="6.72524">
        <ele>474.6</ele>
        <time>2014-06-01T09:04:27.000Z</time>
      </trkpt>
      <trkpt lat="47.51175" lon="6.72528">
        <ele>474.8</ele>
        <time>2014-06-01T09:04:30.000Z</time>
      </trkpt>
      <trkpt lat="47.51176" lon="6.7253">
        <ele>474.4</ele>
        <time>2014-06-01T09:04:31.000Z</time>
      </trkpt>
      <trkpt lat="47.51179" lon="6.72533">
        <ele>474.1</ele>
        <time>2014-06-01T09:04:33.000Z</time>
      </trkpt>
      <trkpt lat="47.51181" lon="6.72535">
        <ele>473.6</ele>
        <time>2014-06-01T09:04:34.000Z</time>
      </trkpt>
      <trkpt lat="47.51184" lon="6.72538">
        <ele>474.2</ele>
        <time>2014-06-01T09:04:36.000Z</time>
      </trkpt>
      <trkpt lat="47.51186" lon="6.72539">
        <ele>476.7</ele>
        <time>2014-06-01T09:04:37.000Z</time>
      </trkpt>
      <trkpt lat="47.5119" lon="6.7254">
        <ele>477.3</ele>
        <time>2014-06-01T09:04:39.000Z</time>
      </trkpt>
      <trkpt lat="47.51192" lon="6.72541">
        <ele>478</ele>
        <time>2014-06-01T09:04:40.000Z</time>
      </trkpt>
      <trkpt lat="47.51195" lon="6.72544">
        <ele>479.8</ele>
        <time>2014-06-01T09:04:42.000Z</time>
      </trkpt>
      <trkpt lat="47.51197" lon="6.72546">
        <ele>482.3</ele>
        <time>2014-06-01T09:04:43.000Z</time>
      </trkpt>
      <trkpt lat="47.51198" lon="6.72548">
        <ele>483.8</ele>
        <time>2014-06-01T09:04:44.000Z</time>
      </trkpt>
      <trkpt lat="47.512" lon="6.7255">
        <ele>483.7</ele>
        <time>2014-06-01T09:04:45.000Z</time>
      </trkpt>
      <trkpt lat="47.51202" lon="6.72553">
        <ele>483.7</ele>
        <time>2014-06-01T09:04:46.000Z</time>
      </trkpt>
      <trkpt lat="47.51205" lon="6.72555">
        <ele>484</ele>
        <time>2014-06-01T09:04:47.000Z</time>
      </trkpt>
      <trkpt lat="47.51208" lon="6.72556">
        <ele>483.6</ele>
        <time>2014-06-01T09:04:48.000Z</time>
      </trkpt>
      <trkpt lat="47.51212" lon="6.72556">
        <ele>480.4</ele>
        <time>2014-06-01T09:04:49.000Z</time>
      </trkpt>
      <trkpt lat="47.51216" lon="6.72556">
        <ele>480.5</ele>
        <time>2014-06-01T09:04:50.000Z</time>
      </trkpt>
      <trkpt lat="47.51221" lon="6.72555">
        <ele>481.1</ele>
        <time>2014-06-01T09:04:51.000Z</time>
      </trkpt>
      <trkpt lat="47.51226" lon="6.72554">
        <ele>479.8</ele>
        <time>2014-06-01T09:04:52.000Z</time>
      </trkpt>
      <trkpt lat="47.51231" lon="6.72554">
        <ele>481.6</ele>
        <time>2014-06-01T09:04:53.000Z</time>
      </trkpt>
      <trkpt lat="47.51235" lon="6.72553">
        <ele>479.8</ele>
        <time>2014-06-01T09:04:54.000Z</time>
      </trkpt>
      <trkpt lat="47.5124" lon="6.72552">
        <ele>480</ele>
        <time>2014-06-01T09:04:55.000Z</time>
      </trkpt>
      <trkpt lat="47.51244" lon="6.72551">
        <ele>480.1</ele>
        <time>2014-06-01T09:04:56.000Z</time>
      </trkpt>
      <trkpt lat="47.51248" lon="6.7255">
        <ele>480</ele>
        <time>2014-06-01T09:04:57.000Z</time>
      </trkpt>
      <trkpt lat="47.51277" lon="6.72555">
        <ele>476.7</ele>
        <time>2014-06-01T09:05:06.000Z</time>
      </trkpt>
      <trkpt lat="47.51281" lon="6.72555">
        <ele>477</ele>
        <time>2014-06-01T09:05:07.000Z</time>
      </trkpt>
      <trkpt lat="47.51284" lon="6.72556">
        <ele>479.7</ele>
        <time>2014-06-01T09:05:08.000Z</time>
      </trkpt>
      <trkpt lat="47.51288" lon="6.72558">
        <ele>480</ele>
        <time>2014-06-01T09:05:09.000Z</time>
      </trkpt>
      <trkpt lat="47.51291" lon="6.72561">
        <ele>483.5</ele>
        <time>2014-06-01T09:05:10.000Z</time>
      </trkpt>
      <trkpt lat="47.51295" lon="6.72564">
        <ele>482.9</ele>
        <time>2014-06-01T09:05:11.000Z</time>
      </trkpt>
      <trkpt lat="47.51298" lon="6.72568">
        <ele>481.1</ele>
        <time>2014-06-01T09:05:12.000Z</time>
      </trkpt>
      <trkpt lat="47.51302" lon="6.72572">
        <ele>481.5</ele>
        <time>2014-06-01T09:05:13.000Z</time>
      </trkpt>
      <trkpt lat="47.51306" lon="6.72577">
        <ele>481</ele>
        <time>2014-06-01T09:05:14.000Z</time>
      </trkpt>
      <trkpt lat="47.51309" lon="6.72583">
        <ele>480.5</ele>
        <time>2014-06-01T09:05:15.000Z</time>
      </trkpt>
      <trkpt lat="47.51313" lon="6.72588">
        <ele>479.6</ele>
        <time>2014-06-01T09:05:16.000Z</time>
      </trkpt>
      <trkpt lat="47.51316" lon="6.72594">
        <ele>479.8</ele>
        <time>2014-06-01T09:05:17.000Z</time>
      </trkpt>
      <trkpt lat="47.51319" lon="6.72598">
        <ele>480.8</ele>
        <time>2014-06-01T09:05:18.000Z</time>
      </trkpt>
      <trkpt lat="47.51322" lon="6.72602">
        <ele>477.1</ele>
        <time>2014-06-01T09:05:19.000Z</time>
      </trkpt>
      <trkpt lat="47.51324" lon="6.72606">
        <ele>477.6</ele>
        <time>2014-06-01T09:05:20.000Z</time>
      </trkpt>
      <trkpt lat="47.51326" lon="6.72609">
        <ele>476.9</ele>
        <time>2014-06-01T09:05:21.000Z</time>
      </trkpt>
      <trkpt lat="47.51328" lon="6.72613">
        <ele>475.5</ele>
        <time>2014-06-01T09:05:22.000Z</time>
      </trkpt>
      <trkpt lat="47.5133" lon="6.72616">
        <ele>473.8</ele>
        <time>2014-06-01T09:05:23.000Z</time>
      </trkpt>
      <trkpt lat="47.51332" lon="6.7262">
        <ele>473.5</ele>
        <time>2014-06-01T09:05:24.000Z</time>
      </trkpt>
      <trkpt lat="47.51334" lon="6.72623">
        <ele>472.2</ele>
        <time>2014-06-01T09:05:25.000Z</time>
      </trkpt>
      <trkpt lat="47.51336" lon="6.72626">
        <ele>472.6</ele>
        <time>2014-06-01T09:05:26.000Z</time>
      </trkpt>
      <trkpt lat="47.51337" lon="6.72629">
        <ele>473.5</ele>
        <time>2014-06-01T09:05:27.000Z</time>
      </trkpt>
      <trkpt lat="47.51339" lon="6.72632">
        <ele>474.2</ele>
        <time>2014-06-01T09:05:28.000Z</time>
      </trkpt>
      <trkpt lat="47.51341" lon="6.72636">
        <ele>470.7</ele>
        <time>2014-06-01T09:05:29.000Z</time>
      </trkpt>
      <trkpt lat="47.51343" lon="6.72639">
        <ele>469.5</ele>
        <time>2014-06-01T09:05:30.000Z</time>
      </trkpt>
      <trkpt lat="47.51345" lon="6.7264">
        <ele>468.3</ele>
        <time>2014-06-01T09:05:31.000Z</time>
      </trkpt>
      <trkpt lat="47.51349" lon="6.72643">
        <ele>467.2</ele>
        <time>2014-06-01T09:05:33.000Z</time>
      </trkpt>
      <trkpt lat="47.51351" lon="6.72645">
        <ele>465.7</ele>
        <time>2014-06-01T09:05:34.000Z</time>
      </trkpt>
      <trkpt lat="47.51353" lon="6.72647">
        <ele>463.3</ele>
        <time>2014-06-01T09:05:35.000Z</time>
      </trkpt>
      <trkpt lat="47.51355" lon="6.72649">
        <ele>461.5</ele>
        <time>2014-06-01T09:05:36.000Z</time>
      </trkpt>
      <trkpt lat="47.51357" lon="6.72651">
        <ele>460.7</ele>
        <time>2014-06-01T09:05:37.000Z</time>
      </trkpt>
      <trkpt lat="47.51359" lon="6.72654">
        <ele>458.8</ele>
        <time>2014-06-01T09:05:38.000Z</time>
      </trkpt>
      <trkpt lat="47.51361" lon="6.72657">
        <ele>459.5</ele>
        <time>2014-06-01T09:05:39.000Z</time>
      </trkpt>
      <trkpt lat="47.51362" lon="6.7266">
        <ele>459.7</ele>
        <time>2014-06-01T09:05:40.000Z</time>
      </trkpt>
      <trkpt lat="47.51364" lon="6.72664">
        <ele>460.6</ele>
        <time>2014-06-01T09:05:41.000Z</time>
      </trkpt>
      <trkpt lat="47.51366" lon="6.72668">
        <ele>461.2</ele>
        <time>2014-06-01T09:05:42.000Z</time>
      </trkpt>
      <trkpt lat="47.51368" lon="6.72671">
        <ele>461.1</ele>
        <time>2014-06-01T09:05:43.000Z</time>
      </trkpt>
      <trkpt lat="47.51371" lon="6.72674">
        <ele>460.6</ele>
        <time>2014-06-01T09:05:44.000Z</time>
      </trkpt>
      <trkpt lat="47.51373" lon="6.72675">
        <ele>461</ele>
        <time>2014-06-01T09:05:45.000Z</time>
      </trkpt>
      <trkpt lat="47.51376" lon="6.72676">
        <ele>460.5</ele>
        <time>2014-06-01T09:05:46.000Z</time>
      </trkpt>
      <trkpt lat="47.51379" lon="6.72675">
        <ele>460.3</ele>
        <time>2014-06-01T09:05:47.000Z</time>
      </trkpt>
      <trkpt lat="47.51381" lon="6.72674">
        <ele>459.2</ele>
        <time>2014-06-01T09:05:48.000Z</time>
      </trkpt>
      <trkpt lat="47.51383" lon="6.7267">
        <ele>456.9</ele>
        <time>2014-06-01T09:05:50.000Z</time>
      </trkpt>
      <trkpt lat="47.51383" lon="6.72666">
        <ele>457.5</ele>
        <time>2014-06-01T09:05:51.000Z</time>
      </trkpt>
      <trkpt lat="47.51383" lon="6.72663">
        <ele>455.9</ele>
        <time>2014-06-01T09:05:52.000Z</time>
      </trkpt>
      <trkpt lat="47.51383" lon="6.72659">
        <ele>456.1</ele>
        <time>2014-06-01T09:05:53.000Z</time>
      </trkpt>
      <trkpt lat="47.51384" lon="6.72655">
        <ele>453.7</ele>
        <time>2014-06-01T09:05:54.000Z</time>
      </trkpt>
      <trkpt lat="47.51385" lon="6.72651">
        <ele>452.5</ele>
        <time>2014-06-01T09:05:55.000Z</time>
      </trkpt>
      <trkpt lat="47.51386" lon="6.72647">
        <ele>452.4</ele>
        <time>2014-06-01T09:05:56.000Z</time>
      </trkpt>
      <trkpt lat="47.51386" lon="6.72644">
        <ele>450.5</ele>
        <time>2014-06-01T09:05:57.000Z</time>
      </trkpt>
      <trkpt lat="47.51386" lon="6.72641">
        <ele>448.7</ele>
        <time>2014-06-01T09:05:58.000Z</time>
      </trkpt>
      <trkpt lat="47.51386" lon="6.72633">
        <ele>444.7</ele>
        <time>2014-06-01T09:06:01.000Z</time>
      </trkpt>
      <trkpt lat="47.51386" lon="6.72626">
        <ele>445.9</ele>
        <time>2014-06-01T09:06:07.000Z</time>
      </trkpt>
      <trkpt lat="47.51386" lon="6.72625">
        <ele>446.7</ele>
        <time>2014-06-01T09:06:08.000Z</time>
      </trkpt>
      <trkpt lat="47.51386" lon="6.7262">
        <ele>447.5</ele>
        <time>2014-06-01T09:06:11.000Z</time>
      </trkpt>
      <trkpt lat="47.51386" lon="6.72618">
        <ele>447.1</ele>
        <time>2014-06-01T09:06:12.000Z</time>
      </trkpt>
      <trkpt lat="47.51385" lon="6.72613">
        <ele>446.3</ele>
        <time>2014-06-01T09:06:14.000Z</time>
      </trkpt>
      <trkpt lat="47.51385" lon="6.7261">
        <ele>445.7</ele>
        <time>2014-06-01T09:06:15.000Z</time>
      </trkpt>
      <trkpt lat="47.51385" lon="6.72606">
        <ele>445.8</ele>
        <time>2014-06-01T09:06:16.000Z</time>
      </trkpt>
      <trkpt lat="47.51384" lon="6.72601">
        <ele>445.1</ele>
        <time>2014-06-01T09:06:17.000Z</time>
      </trkpt>
      <trkpt lat="47.51383" lon="6.72597">
        <ele>444.3</ele>
        <time>2014-06-01T09:06:18.000Z</time>
      </trkpt>
      <trkpt lat="47.51382" lon="6.72593">
        <ele>443.6</ele>
        <time>2014-06-01T09:06:19.000Z</time>
      </trkpt>
      <trkpt lat="47.51381" lon="6.72588">
        <ele>443.5</ele>
        <time>2014-06-01T09:06:20.000Z</time>
      </trkpt>
      <trkpt lat="47.5138" lon="6.72584">
        <ele>442.4</ele>
        <time>2014-06-01T09:06:21.000Z</time>
      </trkpt>
      <trkpt lat="47.51379" lon="6.7258">
        <ele>442.2</ele>
        <time>2014-06-01T09:06:22.000Z</time>
      </trkpt>
      <trkpt lat="47.51378" lon="6.72577">
        <ele>441.8</ele>
        <time>2014-06-01T09:06:23.000Z</time>
      </trkpt>
      <trkpt lat="47.51377" lon="6.7257">
        <ele>442.1</ele>
        <time>2014-06-01T09:06:25.000Z</time>
      </trkpt>
      <trkpt lat="47.51377" lon="6.72567">
        <ele>443.7</ele>
        <time>2014-06-01T09:06:26.000Z</time>
      </trkpt>
      <trkpt lat="47.51376" lon="6.72563">
        <ele>443.4</ele>
        <time>2014-06-01T09:06:27.000Z</time>
      </trkpt>
      <trkpt lat="47.51376" lon="6.72559">
        <ele>443.1</ele>
        <time>2014-06-01T09:06:28.000Z</time>
      </trkpt>
      <trkpt lat="47.51376" lon="6.72554">
        <ele>440</ele>
        <time>2014-06-01T09:06:29.000Z</time>
      </trkpt>
      <trkpt lat="47.51376" lon="6.72549">
        <ele>440.9</ele>
        <time>2014-06-01T09:06:30.000Z</time>
      </trkpt>
      <trkpt lat="47.51377" lon="6.72544">
        <ele>440.3</ele>
        <time>2014-06-01T09:06:31.000Z</time>
      </trkpt>
      <trkpt lat="47.51377" lon="6.72539">
        <ele>440.4</ele>
        <time>2014-06-01T09:06:32.000Z</time>
      </trkpt>
      <trkpt lat="47.51377" lon="6.72535">
        <ele>440.3</ele>
        <time>2014-06-01T09:06:33.000Z</time>
      </trkpt>
      <trkpt lat="47.51376" lon="6.72531">
        <ele>440.5</ele>
        <time>2014-06-01T09:06:34.000Z</time>
      </trkpt>
      <trkpt lat="47.51375" lon="6.72527">
        <ele>442.8</ele>
        <time>2014-06-01T09:06:35.000Z</time>
      </trkpt>
      <trkpt lat="47.51374" lon="6.72523">
        <ele>444.6</ele>
        <time>2014-06-01T09:06:36.000Z</time>
      </trkpt>
      <trkpt lat="47.51373" lon="6.72518">
        <ele>444.8</ele>
        <time>2014-06-01T09:06:37.000Z</time>
      </trkpt>
      <trkpt lat="47.51372" lon="6.72514">
        <ele>444.9</ele>
        <time>2014-06-01T09:06:38.000Z</time>
      </trkpt>
      <trkpt lat="47.51371" lon="6.72509">
        <ele>445.4</ele>
        <time>2014-06-01T09:06:39.000Z</time>
      </trkpt>
      <trkpt lat="47.51371" lon="6.72505">
        <ele>445.5</ele>
        <time>2014-06-01T09:06:40.000Z</time>
      </trkpt>
      <trkpt lat="47.51369" lon="6.72501">
        <ele>447</ele>
        <time>2014-06-01T09:06:41.000Z</time>
      </trkpt>
      <trkpt lat="47.51368" lon="6.72496">
        <ele>446.9</ele>
        <time>2014-06-01T09:06:42.000Z</time>
      </trkpt>
      <trkpt lat="47.51366" lon="6.72492">
        <ele>446.9</ele>
        <time>2014-06-01T09:06:43.000Z</time>
      </trkpt>
      <trkpt lat="47.51365" lon="6.72488">
        <ele>448.9</ele>
        <time>2014-06-01T09:06:44.000Z</time>
      </trkpt>
      <trkpt lat="47.51364" lon="6.72485">
        <ele>450.1</ele>
        <time>2014-06-01T09:06:45.000Z</time>
      </trkpt>
      <trkpt lat="47.51363" lon="6.72481">
        <ele>450.8</ele>
        <time>2014-06-01T09:06:46.000Z</time>
      </trkpt>
      <trkpt lat="47.51362" lon="6.72477">
        <ele>452.2</ele>
        <time>2014-06-01T09:06:47.000Z</time>
      </trkpt>
      <trkpt lat="47.51362" lon="6.72474">
        <ele>452.8</ele>
        <time>2014-06-01T09:06:48.000Z</time>
      </trkpt>
      <trkpt lat="47.51363" lon="6.72468">
        <ele>453.9</ele>
        <time>2014-06-01T09:06:50.000Z</time>
      </trkpt>
      <trkpt lat="47.51363" lon="6.72467">
        <ele>455.3</ele>
        <time>2014-06-01T09:06:51.000Z</time>
      </trkpt>
      <trkpt lat="47.51366" lon="6.72464">
        <ele>456.5</ele>
        <time>2014-06-01T09:06:55.000Z</time>
      </trkpt>
      <trkpt lat="47.51367" lon="6.72462">
        <ele>455.9</ele>
        <time>2014-06-01T09:06:56.000Z</time>
      </trkpt>
      <trkpt lat="47.51368" lon="6.72462">
        <ele>456.8</ele>
        <time>2014-06-01T09:06:57.000Z</time>
      </trkpt>
      <trkpt lat="47.51392" lon="6.72443">
        <ele>452</ele>
        <time>2014-06-01T09:07:06.000Z</time>
      </trkpt>
      <trkpt lat="47.51396" lon="6.72441">
        <ele>456.2</ele>
        <time>2014-06-01T09:07:07.000Z</time>
      </trkpt>
      <trkpt lat="47.514" lon="6.72438">
        <ele>456.8</ele>
        <time>2014-06-01T09:07:08.000Z</time>
      </trkpt>
      <trkpt lat="47.51404" lon="6.72436">
        <ele>457.2</ele>
        <time>2014-06-01T09:07:09.000Z</time>
      </trkpt>
      <trkpt lat="47.51408" lon="6.72434">
        <ele>457.7</ele>
        <time>2014-06-01T09:07:10.000Z</time>
      </trkpt>
      <trkpt lat="47.51412" lon="6.72431">
        <ele>457.8</ele>
        <time>2014-06-01T09:07:11.000Z</time>
      </trkpt>
      <trkpt lat="47.51416" lon="6.72428">
        <ele>457.5</ele>
        <time>2014-06-01T09:07:12.000Z</time>
      </trkpt>
      <trkpt lat="47.51419" lon="6.72424">
        <ele>457.1</ele>
        <time>2014-06-01T09:07:13.000Z</time>
      </trkpt>
      <trkpt lat="47.51423" lon="6.72421">
        <ele>457.1</ele>
        <time>2014-06-01T09:07:14.000Z</time>
      </trkpt>
      <trkpt lat="47.51427" lon="6.72418">
        <ele>456.7</ele>
        <time>2014-06-01T09:07:15.000Z</time>
      </trkpt>
      <trkpt lat="47.51432" lon="6.72415">
        <ele>456.5</ele>
        <time>2014-06-01T09:07:16.000Z</time>
      </trkpt>
      <trkpt lat="47.51437" lon="6.72412">
        <ele>455.3</ele>
        <time>2014-06-01T09:07:17.000Z</time>
      </trkpt>
      <trkpt lat="47.51441" lon="6.72409">
        <ele>454.7</ele>
        <time>2014-06-01T09:07:18.000Z</time>
      </trkpt>
      <trkpt lat="47.51447" lon="6.72406">
        <ele>453.8</ele>
        <time>2014-06-01T09:07:19.000Z</time>
      </trkpt>
      <trkpt lat="47.51452" lon="6.72402">
        <ele>452.8</ele>
        <time>2014-06-01T09:07:20.000Z</time>
      </trkpt>
      <trkpt lat="47.51456" lon="6.724">
        <ele>449.8</ele>
        <time>2014-06-01T09:07:21.000Z</time>
      </trkpt>
      <trkpt lat="47.51459" lon="6.72398">
        <ele>449.2</ele>
        <time>2014-06-01T09:07:22.000Z</time>
      </trkpt>
      <trkpt lat="47.51462" lon="6.72397">
        <ele>446.1</ele>
        <time>2014-06-01T09:07:23.000Z</time>
      </trkpt>
      <trkpt lat="47.51464" lon="6.72397">
        <ele>443.5</ele>
        <time>2014-06-01T09:07:24.000Z</time>
      </trkpt>
      <trkpt lat="47.51468" lon="6.72395">
        <ele>442.2</ele>
        <time>2014-06-01T09:07:27.000Z</time>
      </trkpt>
      <trkpt lat="47.51468" lon="6.72393">
        <ele>441.9</ele>
        <time>2014-06-01T09:07:28.000Z</time>
      </trkpt>
      <trkpt lat="47.51468" lon="6.72387">
        <ele>441.5</ele>
        <time>2014-06-01T09:07:30.000Z</time>
      </trkpt>
      <trkpt lat="47.51467" lon="6.72384">
        <ele>442.5</ele>
        <time>2014-06-01T09:07:31.000Z</time>
      </trkpt>
      <trkpt lat="47.51467" lon="6.7238">
        <ele>441.9</ele>
        <time>2014-06-01T09:07:32.000Z</time>
      </trkpt>
      <trkpt lat="47.51467" lon="6.72376">
        <ele>441.5</ele>
        <time>2014-06-01T09:07:33.000Z</time>
      </trkpt>
      <trkpt lat="47.51467" lon="6.72371">
        <ele>441.1</ele>
        <time>2014-06-01T09:07:34.000Z</time>
      </trkpt>
      <trkpt lat="47.51467" lon="6.72367">
        <ele>440.8</ele>
        <time>2014-06-01T09:07:35.000Z</time>
      </trkpt>
      <trkpt lat="47.51467" lon="6.72362">
        <ele>440.4</ele>
        <time>2014-06-01T09:07:36.000Z</time>
      </trkpt>
      <trkpt lat="47.51467" lon="6.72357">
        <ele>440.1</ele>
        <time>2014-06-01T09:07:37.000Z</time>
      </trkpt>
      <trkpt lat="47.51466" lon="6.72353">
        <ele>438.9</ele>
        <time>2014-06-01T09:07:38.000Z</time>
      </trkpt>
      <trkpt lat="47.51466" lon="6.72348">
        <ele>437.5</ele>
        <time>2014-06-01T09:07:39.000Z</time>
      </trkpt>
      <trkpt lat="47.51465" lon="6.72343">
        <ele>436.8</ele>
        <time>2014-06-01T09:07:40.000Z</time>
      </trkpt>
      <trkpt lat="47.51465" lon="6.72338">
        <ele>434</ele>
        <time>2014-06-01T09:07:41.000Z</time>
      </trkpt>
      <trkpt lat="47.51464" lon="6.72334">
        <ele>431.1</ele>
        <time>2014-06-01T09:07:42.000Z</time>
      </trkpt>
      <trkpt lat="47.51463" lon="6.7233">
        <ele>430.7</ele>
        <time>2014-06-01T09:07:43.000Z</time>
      </trkpt>
      <trkpt lat="47.51463" lon="6.72325">
        <ele>429.8</ele>
        <time>2014-06-01T09:07:45.000Z</time>
      </trkpt>
      <trkpt lat="47.51462" lon="6.72323">
        <ele>429.8</ele>
        <time>2014-06-01T09:07:46.000Z</time>
      </trkpt>
      <trkpt lat="47.51463" lon="6.72317">
        <ele>429.2</ele>
        <time>2014-06-01T09:07:49.000Z</time>
      </trkpt>
      <trkpt lat="47.51463" lon="6.72314">
        <ele>429.5</ele>
        <time>2014-06-01T09:07:50.000Z</time>
      </trkpt>
      <trkpt lat="47.51464" lon="6.72308">
        <ele>427.9</ele>
        <time>2014-06-01T09:07:53.000Z</time>
      </trkpt>
      <trkpt lat="47.51465" lon="6.72307">
        <ele>428.6</ele>
        <time>2014-06-01T09:07:54.000Z</time>
      </trkpt>
      <trkpt lat="47.51466" lon="6.72301">
        <ele>427.4</ele>
        <time>2014-06-01T09:07:57.000Z</time>
      </trkpt>
      <trkpt lat="47.51467" lon="6.72297">
        <ele>423.4</ele>
        <time>2014-06-01T09:08:00.000Z</time>
      </trkpt>
      <trkpt lat="47.5147" lon="6.72294">
        <ele>421.2</ele>
        <time>2014-06-01T09:08:17.000Z</time>
      </trkpt>
      <trkpt lat="47.51471" lon="6.72293">
        <ele>421.4</ele>
        <time>2014-06-01T09:08:18.000Z</time>
      </trkpt>
      <trkpt lat="47.51474" lon="6.7229">
        <ele>423.2</ele>
        <time>2014-06-01T09:08:20.000Z</time>
      </trkpt>
      <trkpt lat="47.51476" lon="6.72288">
        <ele>423.7</ele>
        <time>2014-06-01T09:08:21.000Z</time>
      </trkpt>
      <trkpt lat="47.51479" lon="6.72287">
        <ele>424.1</ele>
        <time>2014-06-01T09:08:22.000Z</time>
      </trkpt>
      <trkpt lat="47.51482" lon="6.72285">
        <ele>424.4</ele>
        <time>2014-06-01T09:08:23.000Z</time>
      </trkpt>
      <trkpt lat="47.51487" lon="6.72282">
        <ele>424.9</ele>
        <time>2014-06-01T09:08:24.000Z</time>
      </trkpt>
      <trkpt lat="47.51491" lon="6.72279">
        <ele>426.6</ele>
        <time>2014-06-01T09:08:25.000Z</time>
      </trkpt>
      <trkpt lat="47.51505" lon="6.72272">
        <ele>426.7</ele>
        <time>2014-06-01T09:08:26.000Z</time>
      </trkpt>
      <trkpt lat="47.51512" lon="6.7227">
        <ele>426.4</ele>
        <time>2014-06-01T09:08:27.000Z</time>
      </trkpt>
      <trkpt lat="47.5152" lon="6.72267">
        <ele>426.1</ele>
        <time>2014-06-01T09:08:28.000Z</time>
      </trkpt>
      <trkpt lat="47.5153" lon="6.72259">
        <ele>426.4</ele>
        <time>2014-06-01T09:08:29.000Z</time>
      </trkpt>
      <trkpt lat="47.5154" lon="6.72253">
        <ele>425.8</ele>
        <time>2014-06-01T09:08:30.000Z</time>
      </trkpt>
      <trkpt lat="47.51551" lon="6.72245">
        <ele>424.8</ele>
        <time>2014-06-01T09:08:31.000Z</time>
      </trkpt>
      <trkpt lat="47.5156" lon="6.72244">
        <ele>424.4</ele>
        <time>2014-06-01T09:08:32.000Z</time>
      </trkpt>
      <trkpt lat="47.51571" lon="6.72239">
        <ele>423.6</ele>
        <time>2014-06-01T09:08:33.000Z</time>
      </trkpt>
      <trkpt lat="47.51579" lon="6.72238">
        <ele>423</ele>
        <time>2014-06-01T09:08:34.000Z</time>
      </trkpt>
      <trkpt lat="47.51588" lon="6.72236">
        <ele>422</ele>
        <time>2014-06-01T09:08:35.000Z</time>
      </trkpt>
      <trkpt lat="47.51597" lon="6.72234">
        <ele>420.7</ele>
        <time>2014-06-01T09:08:36.000Z</time>
      </trkpt>
      <trkpt lat="47.51607" lon="6.7223">
        <ele>420.1</ele>
        <time>2014-06-01T09:08:37.000Z</time>
      </trkpt>
      <trkpt lat="47.51616" lon="6.72226">
        <ele>419.4</ele>
        <time>2014-06-01T09:08:38.000Z</time>
      </trkpt>
      <trkpt lat="47.51625" lon="6.72223">
        <ele>418.8</ele>
        <time>2014-06-01T09:08:39.000Z</time>
      </trkpt>
      <trkpt lat="47.51635" lon="6.72217">
        <ele>419.1</ele>
        <time>2014-06-01T09:08:40.000Z</time>
      </trkpt>
      <trkpt lat="47.51647" lon="6.72213">
        <ele>418.1</ele>
        <time>2014-06-01T09:08:41.000Z</time>
      </trkpt>
      <trkpt lat="47.5166" lon="6.72209">
        <ele>417.2</ele>
        <time>2014-06-01T09:08:42.000Z</time>
      </trkpt>
      <trkpt lat="47.51673" lon="6.722">
        <ele>417</ele>
        <time>2014-06-01T09:08:43.000Z</time>
      </trkpt>
      <trkpt lat="47.51684" lon="6.72193">
        <ele>416.8</ele>
        <time>2014-06-01T09:08:44.000Z</time>
      </trkpt>
      <trkpt lat="47.51695" lon="6.72188">
        <ele>416.1</ele>
        <time>2014-06-01T09:08:45.000Z</time>
      </trkpt>
      <trkpt lat="47.51705" lon="6.72184">
        <ele>416.9</ele>
        <time>2014-06-01T09:08:46.000Z</time>
      </trkpt>
      <trkpt lat="47.51714" lon="6.72183">
        <ele>419.4</ele>
        <time>2014-06-01T09:08:47.000Z</time>
      </trkpt>
      <trkpt lat="47.51724" lon="6.7218">
        <ele>421.1</ele>
        <time>2014-06-01T09:08:48.000Z</time>
      </trkpt>
      <trkpt lat="47.51732" lon="6.72179">
        <ele>420.3</ele>
        <time>2014-06-01T09:08:49.000Z</time>
      </trkpt>
      <trkpt lat="47.51741" lon="6.72177">
        <ele>419.7</ele>
        <time>2014-06-01T09:08:50.000Z</time>
      </trkpt>
      <trkpt lat="47.5175" lon="6.72176">
        <ele>418.7</ele>
        <time>2014-06-01T09:08:51.000Z</time>
      </trkpt>
      <trkpt lat="47.51757" lon="6.72177">
        <ele>417.8</ele>
        <time>2014-06-01T09:08:52.000Z</time>
      </trkpt>
      <trkpt lat="47.51764" lon="6.72178">
        <ele>417.3</ele>
        <time>2014-06-01T09:08:53.000Z</time>
      </trkpt>
      <trkpt lat="47.51771" lon="6.72178">
        <ele>417.2</ele>
        <time>2014-06-01T09:08:54.000Z</time>
      </trkpt>
      <trkpt lat="47.51778" lon="6.72182">
        <ele>416.8</ele>
        <time>2014-06-01T09:08:55.000Z</time>
      </trkpt>
      <trkpt lat="47.51788" lon="6.72187">
        <ele>416.1</ele>
        <time>2014-06-01T09:08:56.000Z</time>
      </trkpt>
      <trkpt lat="47.51796" lon="6.72191">
        <ele>416.3</ele>
        <time>2014-06-01T09:08:57.000Z</time>
      </trkpt>
      <trkpt lat="47.51827" lon="6.72192">
        <ele>409.6</ele>
        <time>2014-06-01T09:09:01.000Z</time>
      </trkpt>
      <trkpt lat="47.51838" lon="6.72186">
        <ele>410.1</ele>
        <time>2014-06-01T09:09:02.000Z</time>
      </trkpt>
      <trkpt lat="47.51848" lon="6.72182">
        <ele>409.7</ele>
        <time>2014-06-01T09:09:03.000Z</time>
      </trkpt>
      <trkpt lat="47.51858" lon="6.72179">
        <ele>409.5</ele>
        <time>2014-06-01T09:09:04.000Z</time>
      </trkpt>
      <trkpt lat="47.51871" lon="6.72177">
        <ele>410.3</ele>
        <time>2014-06-01T09:09:05.000Z</time>
      </trkpt>
      <trkpt lat="47.51882" lon="6.72181">
        <ele>411.3</ele>
        <time>2014-06-01T09:09:06.000Z</time>
      </trkpt>
      <trkpt lat="47.51888" lon="6.72182">
        <ele>411.6</ele>
        <time>2014-06-01T09:09:07.000Z</time>
      </trkpt>
      <trkpt lat="47.51895" lon="6.72185">
        <ele>411</ele>
        <time>2014-06-01T09:09:08.000Z</time>
      </trkpt>
      <trkpt lat="47.51902" lon="6.72185">
        <ele>409.3</ele>
        <time>2014-06-01T09:09:09.000Z</time>
      </trkpt>
      <trkpt lat="47.51906" lon="6.72181">
        <ele>409</ele>
        <time>2014-06-01T09:09:10.000Z</time>
      </trkpt>
      <trkpt lat="47.51911" lon="6.72178">
        <ele>408.7</ele>
        <time>2014-06-01T09:09:11.000Z</time>
      </trkpt>
      <trkpt lat="47.51916" lon="6.72177">
        <ele>408.5</ele>
        <time>2014-06-01T09:09:12.000Z</time>
      </trkpt>
      <trkpt lat="47.5192" lon="6.72177">
        <ele>407.7</ele>
        <time>2014-06-01T09:09:13.000Z</time>
      </trkpt>
      <trkpt lat="47.51924" lon="6.7218">
        <ele>408.8</ele>
        <time>2014-06-01T09:09:14.000Z</time>
      </trkpt>
      <trkpt lat="47.51929" lon="6.72188">
        <ele>406.2</ele>
        <time>2014-06-01T09:09:15.000Z</time>
      </trkpt>
      <trkpt lat="47.51933" lon="6.7219">
        <ele>406.1</ele>
        <time>2014-06-01T09:09:17.000Z</time>
      </trkpt>
      <trkpt lat="47.51934" lon="6.72191">
        <ele>405.3</ele>
        <time>2014-06-01T09:09:18.000Z</time>
      </trkpt>
      <trkpt lat="47.51938" lon="6.72194">
        <ele>404.7</ele>
        <time>2014-06-01T09:09:20.000Z</time>
      </trkpt>
      <trkpt lat="47.5194" lon="6.72198">
        <ele>403.1</ele>
        <time>2014-06-01T09:09:21.000Z</time>
      </trkpt>
      <trkpt lat="47.51942" lon="6.72201">
        <ele>404.1</ele>
        <time>2014-06-01T09:09:22.000Z</time>
      </trkpt>
      <trkpt lat="47.51943" lon="6.72203">
        <ele>405</ele>
        <time>2014-06-01T09:09:23.000Z</time>
      </trkpt>
      <trkpt lat="47.51946" lon="6.72206">
        <ele>404.9</ele>
        <time>2014-06-01T09:09:25.000Z</time>
      </trkpt>
      <trkpt lat="47.51948" lon="6.72208">
        <ele>406</ele>
        <time>2014-06-01T09:09:26.000Z</time>
      </trkpt>
      <trkpt lat="47.51951" lon="6.72212">
        <ele>408.5</ele>
        <time>2014-06-01T09:09:28.000Z</time>
      </trkpt>
      <trkpt lat="47.51952" lon="6.72213">
        <ele>409.5</ele>
        <time>2014-06-01T09:09:29.000Z</time>
      </trkpt>
      <trkpt lat="47.51954" lon="6.72215">
        <ele>408.9</ele>
        <time>2014-06-01T09:09:30.000Z</time>
      </trkpt>
      <trkpt lat="47.51957" lon="6.72216">
        <ele>409.3</ele>
        <time>2014-06-01T09:09:31.000Z</time>
      </trkpt>
      <trkpt lat="47.51961" lon="6.72219">
        <ele>414.6</ele>
        <time>2014-06-01T09:09:33.000Z</time>
      </trkpt>
      <trkpt lat="47.51962" lon="6.72219">
        <ele>414.8</ele>
        <time>2014-06-01T09:09:34.000Z</time>
      </trkpt>
      <trkpt lat="47.51966" lon="6.72218">
        <ele>416.5</ele>
        <time>2014-06-01T09:09:37.000Z</time>
      </trkpt>
      <trkpt lat="47.51968" lon="6.72218">
        <ele>418.7</ele>
        <time>2014-06-01T09:09:38.000Z</time>
      </trkpt>
      <trkpt lat="47.5197" lon="6.72216">
        <ele>419.5</ele>
        <time>2014-06-01T09:09:39.000Z</time>
      </trkpt>
      <trkpt lat="47.51973" lon="6.72215">
        <ele>419</ele>
        <time>2014-06-01T09:09:40.000Z</time>
      </trkpt>
      <trkpt lat="47.51976" lon="6.72212">
        <ele>420.8</ele>
        <time>2014-06-01T09:09:41.000Z</time>
      </trkpt>
      <trkpt lat="47.5198" lon="6.72209">
        <ele>421.6</ele>
        <time>2014-06-01T09:09:42.000Z</time>
      </trkpt>
      <trkpt lat="47.51983" lon="6.72206">
        <ele>422</ele>
        <time>2014-06-01T09:09:43.000Z</time>
      </trkpt>
      <trkpt lat="47.51986" lon="6.72202">
        <ele>422.6</ele>
        <time>2014-06-01T09:09:44.000Z</time>
      </trkpt>
      <trkpt lat="47.51989" lon="6.72198">
        <ele>418.4</ele>
        <time>2014-06-01T09:09:45.000Z</time>
      </trkpt>
      <trkpt lat="47.5199" lon="6.72195">
        <ele>416.8</ele>
        <time>2014-06-01T09:09:46.000Z</time>
      </trkpt>
      <trkpt lat="47.51992" lon="6.72189">
        <ele>417.3</ele>
        <time>2014-06-01T09:09:48.000Z</time>
      </trkpt>
      <trkpt lat="47.51992" lon="6.72187">
        <ele>417.7</ele>
        <time>2014-06-01T09:09:49.000Z</time>
      </trkpt>
      <trkpt lat="47.51995" lon="6.72182">
        <ele>416.7</ele>
        <time>2014-06-01T09:09:51.000Z</time>
      </trkpt>
      <trkpt lat="47.51996" lon="6.72179">
        <ele>416.1</ele>
        <time>2014-06-01T09:09:52.000Z</time>
      </trkpt>
      <trkpt lat="47.51998" lon="6.72177">
        <ele>416.4</ele>
        <time>2014-06-01T09:09:53.000Z</time>
      </trkpt>
      <trkpt lat="47.52" lon="6.72174">
        <ele>416.1</ele>
        <time>2014-06-01T09:09:54.000Z</time>
      </trkpt>
      <trkpt lat="47.52001" lon="6.72171">
        <ele>414.5</ele>
        <time>2014-06-01T09:09:55.000Z</time>
      </trkpt>
      <trkpt lat="47.52002" lon="6.72168">
        <ele>413.1</ele>
        <time>2014-06-01T09:09:56.000Z</time>
      </trkpt>
      <trkpt lat="47.52005" lon="6.72163">
        <ele>411.8</ele>
        <time>2014-06-01T09:09:58.000Z</time>
      </trkpt>
      <trkpt lat="47.52018" lon="6.72139">
        <ele>403.7</ele>
        <time>2014-06-01T09:10:07.000Z</time>
      </trkpt>
      <trkpt lat="47.52019" lon="6.72134">
        <ele>406</ele>
        <time>2014-06-01T09:10:09.000Z</time>
      </trkpt>
      <trkpt lat="47.52019" lon="6.72131">
        <ele>405.7</ele>
        <time>2014-06-01T09:10:10.000Z</time>
      </trkpt>
      <trkpt lat="47.5202" lon="6.72125">
        <ele>405.9</ele>
        <time>2014-06-01T09:10:12.000Z</time>
      </trkpt>
      <trkpt lat="47.52021" lon="6.72122">
        <ele>406.1</ele>
        <time>2014-06-01T09:10:13.000Z</time>
      </trkpt>
      <trkpt lat="47.52022" lon="6.72119">
        <ele>406.1</ele>
        <time>2014-06-01T09:10:14.000Z</time>
      </trkpt>
      <trkpt lat="47.52022" lon="6.72115">
        <ele>405.5</ele>
        <time>2014-06-01T09:10:15.000Z</time>
      </trkpt>
      <trkpt lat="47.52022" lon="6.72111">
        <ele>405.2</ele>
        <time>2014-06-01T09:10:16.000Z</time>
      </trkpt>
      <trkpt lat="47.52022" lon="6.72108">
        <ele>405.1</ele>
        <time>2014-06-01T09:10:17.000Z</time>
      </trkpt>
      <trkpt lat="47.52022" lon="6.72104">
        <ele>406</ele>
        <time>2014-06-01T09:10:18.000Z</time>
      </trkpt>
      <trkpt lat="47.52023" lon="6.721">
        <ele>406.3</ele>
        <time>2014-06-01T09:10:19.000Z</time>
      </trkpt>
      <trkpt lat="47.52024" lon="6.72097">
        <ele>405.5</ele>
        <time>2014-06-01T09:10:20.000Z</time>
      </trkpt>
      <trkpt lat="47.52025" lon="6.72094">
        <ele>405.6</ele>
        <time>2014-06-01T09:10:21.000Z</time>
      </trkpt>
      <trkpt lat="47.52025" lon="6.72088">
        <ele>407.4</ele>
        <time>2014-06-01T09:10:23.000Z</time>
      </trkpt>
      <trkpt lat="47.52025" lon="6.72085">
        <ele>406.6</ele>
        <time>2014-06-01T09:10:24.000Z</time>
      </trkpt>
      <trkpt lat="47.52026" lon="6.7208">
        <ele>407.4</ele>
        <time>2014-06-01T09:10:26.000Z</time>
      </trkpt>
      <trkpt lat="47.52027" lon="6.72077">
        <ele>405.8</ele>
        <time>2014-06-01T09:10:27.000Z</time>
      </trkpt>
      <trkpt lat="47.52028" lon="6.72071">
        <ele>407.1</ele>
        <time>2014-06-01T09:10:29.000Z</time>
      </trkpt>
      <trkpt lat="47.52027" lon="6.72069">
        <ele>407.2</ele>
        <time>2014-06-01T09:10:30.000Z</time>
      </trkpt>
      <trkpt lat="47.52027" lon="6.72063">
        <ele>408.1</ele>
        <time>2014-06-01T09:10:33.000Z</time>
      </trkpt>
      <trkpt lat="47.52027" lon="6.72061">
        <ele>407.9</ele>
        <time>2014-06-01T09:10:34.000Z</time>
      </trkpt>
      <trkpt lat="47.52027" lon="6.72056">
        <ele>408.2</ele>
        <time>2014-06-01T09:10:36.000Z</time>
      </trkpt>
      <trkpt lat="47.52027" lon="6.72054">
        <ele>407.8</ele>
        <time>2014-06-01T09:10:37.000Z</time>
      </trkpt>
      <trkpt lat="47.52027" lon="6.72049">
        <ele>410.2</ele>
        <time>2014-06-01T09:10:39.000Z</time>
      </trkpt>
      <trkpt lat="47.52027" lon="6.72046">
        <ele>410.7</ele>
        <time>2014-06-01T09:10:40.000Z</time>
      </trkpt>
      <trkpt lat="47.52026" lon="6.72041">
        <ele>410.8</ele>
        <time>2014-06-01T09:10:42.000Z</time>
      </trkpt>
      <trkpt lat="47.52027" lon="6.72038">
        <ele>411.8</ele>
        <time>2014-06-01T09:10:43.000Z</time>
      </trkpt>
      <trkpt lat="47.52027" lon="6.72035">
        <ele>413.5</ele>
        <time>2014-06-01T09:10:44.000Z</time>
      </trkpt>
      <trkpt lat="47.52028" lon="6.72032">
        <ele>415.1</ele>
        <time>2014-06-01T09:10:45.000Z</time>
      </trkpt>
      <trkpt lat="47.52027" lon="6.72025">
        <ele>421.3</ele>
        <time>2014-06-01T09:10:47.000Z</time>
      </trkpt>
      <trkpt lat="47.52026" lon="6.72022">
        <ele>422.3</ele>
        <time>2014-06-01T09:10:48.000Z</time>
      </trkpt>
      <trkpt lat="47.52025" lon="6.72016">
        <ele>421.4</ele>
        <time>2014-06-01T09:10:50.000Z</time>
      </trkpt>
      <trkpt lat="47.52025" lon="6.72012">
        <ele>421.2</ele>
        <time>2014-06-01T09:10:51.000Z</time>
      </trkpt>
      <trkpt lat="47.52026" lon="6.72008">
        <ele>421.4</ele>
        <time>2014-06-01T09:10:52.000Z</time>
      </trkpt>
      <trkpt lat="47.52026" lon="6.72005">
        <ele>420.9</ele>
        <time>2014-06-01T09:10:53.000Z</time>
      </trkpt>
      <trkpt lat="47.52025" lon="6.71999">
        <ele>421</ele>
        <time>2014-06-01T09:10:55.000Z</time>
      </trkpt>
      <trkpt lat="47.52025" lon="6.71996">
        <ele>421.2</ele>
        <time>2014-06-01T09:10:56.000Z</time>
      </trkpt>
      <trkpt lat="47.52025" lon="6.71992">
        <ele>421</ele>
        <time>2014-06-01T09:10:57.000Z</time>
      </trkpt>
      <trkpt lat="47.52025" lon="6.71988">
        <ele>421.8</ele>
        <time>2014-06-01T09:10:58.000Z</time>
      </trkpt>
      <trkpt lat="47.52025" lon="6.71977">
        <ele>420.2</ele>
        <time>2014-06-01T09:11:01.000Z</time>
      </trkpt>
      <trkpt lat="47.52025" lon="6.71974">
        <ele>419</ele>
        <time>2014-06-01T09:11:02.000Z</time>
      </trkpt>
      <trkpt lat="47.52025" lon="6.7197">
        <ele>417.9</ele>
        <time>2014-06-01T09:11:03.000Z</time>
      </trkpt>
      <trkpt lat="47.52025" lon="6.71966">
        <ele>418</ele>
        <time>2014-06-01T09:11:04.000Z</time>
      </trkpt>
      <trkpt lat="47.52025" lon="6.71962">
        <ele>417.3</ele>
        <time>2014-06-01T09:11:05.000Z</time>
      </trkpt>
      <trkpt lat="47.52025" lon="6.71959">
        <ele>417.4</ele>
        <time>2014-06-01T09:11:06.000Z</time>
      </trkpt>
      <trkpt lat="47.52025" lon="6.71955">
        <ele>416.6</ele>
        <time>2014-06-01T09:11:07.000Z</time>
      </trkpt>
      <trkpt lat="47.52025" lon="6.7195">
        <ele>418.6</ele>
        <time>2014-06-01T09:11:09.000Z</time>
      </trkpt>
      <trkpt lat="47.52025" lon="6.71947">
        <ele>418.5</ele>
        <time>2014-06-01T09:11:10.000Z</time>
      </trkpt>
      <trkpt lat="47.52023" lon="6.71942">
        <ele>418.5</ele>
        <time>2014-06-01T09:11:12.000Z</time>
      </trkpt>
      <trkpt lat="47.52022" lon="6.7194">
        <ele>418.2</ele>
        <time>2014-06-01T09:11:13.000Z</time>
      </trkpt>
      <trkpt lat="47.52021" lon="6.71934">
        <ele>417.7</ele>
        <time>2014-06-01T09:11:15.998Z</time>
      </trkpt>
      <trkpt lat="47.52021" lon="6.71932">
        <ele>420.3</ele>
        <time>2014-06-01T09:11:16.989Z</time>
      </trkpt>
      <trkpt lat="47.52021" lon="6.71926">
        <ele>419.9</ele>
        <time>2014-06-01T09:11:19.000Z</time>
      </trkpt>
      <trkpt lat="47.52022" lon="6.71923">
        <ele>419.1</ele>
        <time>2014-06-01T09:11:20.000Z</time>
      </trkpt>
      <trkpt lat="47.52023" lon="6.71919">
        <ele>419.4</ele>
        <time>2014-06-01T09:11:21.000Z</time>
      </trkpt>
      <trkpt lat="47.52023" lon="6.71914">
        <ele>419.9</ele>
        <time>2014-06-01T09:11:22.000Z</time>
      </trkpt>
      <trkpt lat="47.52024" lon="6.71911">
        <ele>420.3</ele>
        <time>2014-06-01T09:11:23.044Z</time>
      </trkpt>
      <trkpt lat="47.52025" lon="6.71906">
        <ele>419.6</ele>
        <time>2014-06-01T09:11:24.000Z</time>
      </trkpt>
      <trkpt lat="47.52025" lon="6.719">
        <ele>421.3</ele>
        <time>2014-06-01T09:11:26.000Z</time>
      </trkpt>
      <trkpt lat="47.52024" lon="6.71897">
        <ele>421</ele>
        <time>2014-06-01T09:11:27.000Z</time>
      </trkpt>
      <trkpt lat="47.52023" lon="6.71893">
        <ele>422</ele>
        <time>2014-06-01T09:11:28.928Z</time>
      </trkpt>
      <trkpt lat="47.52022" lon="6.7189">
        <ele>423.8</ele>
        <time>2014-06-01T09:11:29.947Z</time>
      </trkpt>
      <trkpt lat="47.5202" lon="6.71885">
        <ele>422.1</ele>
        <time>2014-06-01T09:11:32.000Z</time>
      </trkpt>
      <trkpt lat="47.5202" lon="6.71882">
        <ele>423.4</ele>
        <time>2014-06-01T09:11:33.000Z</time>
      </trkpt>
      <trkpt lat="47.52019" lon="6.71876">
        <ele>424.8</ele>
        <time>2014-06-01T09:11:34.995Z</time>
      </trkpt>
      <trkpt lat="47.52019" lon="6.71872">
        <ele>425.7</ele>
        <time>2014-06-01T09:11:35.948Z</time>
      </trkpt>
      <trkpt lat="47.52019" lon="6.71868">
        <ele>425</ele>
        <time>2014-06-01T09:11:36.982Z</time>
      </trkpt>
      <trkpt lat="47.52018" lon="6.71863">
        <ele>423.9</ele>
        <time>2014-06-01T09:11:38.000Z</time>
      </trkpt>
      <trkpt lat="47.52017" lon="6.71859">
        <ele>422.8</ele>
        <time>2014-06-01T09:11:39.000Z</time>
      </trkpt>
      <trkpt lat="47.52017" lon="6.71855">
        <ele>422.4</ele>
        <time>2014-06-01T09:11:40.000Z</time>
      </trkpt>
      <trkpt lat="47.52016" lon="6.71851">
        <ele>422.6</ele>
        <time>2014-06-01T09:11:41.000Z</time>
      </trkpt>
      <trkpt lat="47.52016" lon="6.71848">
        <ele>423.1</ele>
        <time>2014-06-01T09:11:42.000Z</time>
      </trkpt>
      <trkpt lat="47.52014" lon="6.71842">
        <ele>424.4</ele>
        <time>2014-06-01T09:11:43.937Z</time>
      </trkpt>
      <trkpt lat="47.52014" lon="6.71838">
        <ele>424.6</ele>
        <time>2014-06-01T09:11:45.000Z</time>
      </trkpt>
      <trkpt lat="47.52014" lon="6.71835">
        <ele>425.7</ele>
        <time>2014-06-01T09:11:46.000Z</time>
      </trkpt>
      <trkpt lat="47.52014" lon="6.71831">
        <ele>425.4</ele>
        <time>2014-06-01T09:11:47.000Z</time>
      </trkpt>
      <trkpt lat="47.52014" lon="6.71829">
        <ele>425.9</ele>
        <time>2014-06-01T09:11:47.998Z</time>
      </trkpt>
      <trkpt lat="47.52016" lon="6.71823">
        <ele>426.2</ele>
        <time>2014-06-01T09:11:49.000Z</time>
      </trkpt>
      <trkpt lat="47.52016" lon="6.71819">
        <ele>426.7</ele>
        <time>2014-06-01T09:11:50.000Z</time>
      </trkpt>
      <trkpt lat="47.52017" lon="6.71816">
        <ele>428.5</ele>
        <time>2014-06-01T09:11:51.000Z</time>
      </trkpt>
      <trkpt lat="47.52018" lon="6.71812">
        <ele>429.1</ele>
        <time>2014-06-01T09:11:52.000Z</time>
      </trkpt>
      <trkpt lat="47.52018" lon="6.71808">
        <ele>428.7</ele>
        <time>2014-06-01T09:11:53.000Z</time>
      </trkpt>
      <trkpt lat="47.52019" lon="6.71801">
        <ele>430.4</ele>
        <time>2014-06-01T09:11:54.990Z</time>
      </trkpt>
      <trkpt lat="47.5202" lon="6.71797">
        <ele>429.2</ele>
        <time>2014-06-01T09:11:55.941Z</time>
      </trkpt>
      <trkpt lat="47.52022" lon="6.71791">
        <ele>428.4</ele>
        <time>2014-06-01T09:11:56.939Z</time>
      </trkpt>
      <trkpt lat="47.52032" lon="6.71768">
        <ele>426.9</ele>
        <time>2014-06-01T09:12:01.000Z</time>
      </trkpt>
      <trkpt lat="47.52034" lon="6.71762">
        <ele>427.4</ele>
        <time>2014-06-01T09:12:02.000Z</time>
      </trkpt>
      <trkpt lat="47.52036" lon="6.71757">
        <ele>427.7</ele>
        <time>2014-06-01T09:12:03.000Z</time>
      </trkpt>
      <trkpt lat="47.52038" lon="6.71752">
        <ele>427.3</ele>
        <time>2014-06-01T09:12:04.000Z</time>
      </trkpt>
      <trkpt lat="47.5204" lon="6.71747">
        <ele>426.7</ele>
        <time>2014-06-01T09:12:05.000Z</time>
      </trkpt>
      <trkpt lat="47.52042" lon="6.71742">
        <ele>425.5</ele>
        <time>2014-06-01T09:12:06.000Z</time>
      </trkpt>
      <trkpt lat="47.52044" lon="6.71737">
        <ele>424.1</ele>
        <time>2014-06-01T09:12:07.000Z</time>
      </trkpt>
      <trkpt lat="47.52045" lon="6.71733">
        <ele>424.4</ele>
        <time>2014-06-01T09:12:08.000Z</time>
      </trkpt>
      <trkpt lat="47.52047" lon="6.71728">
        <ele>424.2</ele>
        <time>2014-06-01T09:12:09.000Z</time>
      </trkpt>
      <trkpt lat="47.52048" lon="6.71723">
        <ele>423.5</ele>
        <time>2014-06-01T09:12:10.000Z</time>
      </trkpt>
      <trkpt lat="47.52049" lon="6.71719">
        <ele>423.1</ele>
        <time>2014-06-01T09:12:11.000Z</time>
      </trkpt>
      <trkpt lat="47.52051" lon="6.71714">
        <ele>422.9</ele>
        <time>2014-06-01T09:12:12.000Z</time>
      </trkpt>
      <trkpt lat="47.52052" lon="6.7171">
        <ele>422.6</ele>
        <time>2014-06-01T09:12:13.000Z</time>
      </trkpt>
      <trkpt lat="47.52054" lon="6.71705">
        <ele>422.9</ele>
        <time>2014-06-01T09:12:14.000Z</time>
      </trkpt>
      <trkpt lat="47.52056" lon="6.71701">
        <ele>421.4</ele>
        <time>2014-06-01T09:12:15.000Z</time>
      </trkpt>
      <trkpt lat="47.52057" lon="6.71696">
        <ele>420.8</ele>
        <time>2014-06-01T09:12:16.000Z</time>
      </trkpt>
      <trkpt lat="47.52059" lon="6.71692">
        <ele>420.4</ele>
        <time>2014-06-01T09:12:17.000Z</time>
      </trkpt>
      <trkpt lat="47.52062" lon="6.71689">
        <ele>419.6</ele>
        <time>2014-06-01T09:12:18.000Z</time>
      </trkpt>
      <trkpt lat="47.52065" lon="6.71685">
        <ele>418.8</ele>
        <time>2014-06-01T09:12:19.000Z</time>
      </trkpt>
      <trkpt lat="47.52068" lon="6.71681">
        <ele>418.6</ele>
        <time>2014-06-01T09:12:20.000Z</time>
      </trkpt>
      <trkpt lat="47.52071" lon="6.71677">
        <ele>418.5</ele>
        <time>2014-06-01T09:12:21.000Z</time>
      </trkpt>
      <trkpt lat="47.52074" lon="6.71673">
        <ele>418.1</ele>
        <time>2014-06-01T09:12:22.000Z</time>
      </trkpt>
      <trkpt lat="47.5208" lon="6.71665">
        <ele>417.6</ele>
        <time>2014-06-01T09:12:23.000Z</time>
      </trkpt>
      <trkpt lat="47.52084" lon="6.7166">
        <ele>417</ele>
        <time>2014-06-01T09:12:24.000Z</time>
      </trkpt>
      <trkpt lat="47.52088" lon="6.71655">
        <ele>416.5</ele>
        <time>2014-06-01T09:12:25.000Z</time>
      </trkpt>
      <trkpt lat="47.52092" lon="6.71649">
        <ele>416.4</ele>
        <time>2014-06-01T09:12:26.000Z</time>
      </trkpt>
      <trkpt lat="47.52096" lon="6.71644">
        <ele>416</ele>
        <time>2014-06-01T09:12:27.000Z</time>
      </trkpt>
      <trkpt lat="47.521" lon="6.71638">
        <ele>415.5</ele>
        <time>2014-06-01T09:12:28.000Z</time>
      </trkpt>
      <trkpt lat="47.52105" lon="6.71631">
        <ele>414.9</ele>
        <time>2014-06-01T09:12:29.000Z</time>
      </trkpt>
      <trkpt lat="47.52109" lon="6.71625">
        <ele>414.8</ele>
        <time>2014-06-01T09:12:30.000Z</time>
      </trkpt>
      <trkpt lat="47.52114" lon="6.7162">
        <ele>414.2</ele>
        <time>2014-06-01T09:12:31.000Z</time>
      </trkpt>
      <trkpt lat="47.52119" lon="6.71614">
        <ele>413.5</ele>
        <time>2014-06-01T09:12:32.000Z</time>
      </trkpt>
      <trkpt lat="47.52124" lon="6.71609">
        <ele>413.3</ele>
        <time>2014-06-01T09:12:33.000Z</time>
      </trkpt>
      <trkpt lat="47.5213" lon="6.71608">
        <ele>413.1</ele>
        <time>2014-06-01T09:12:34.000Z</time>
      </trkpt>
      <trkpt lat="47.52136" lon="6.71606">
        <ele>414.9</ele>
        <time>2014-06-01T09:12:35.000Z</time>
      </trkpt>
      <trkpt lat="47.52142" lon="6.71602">
        <ele>414.9</ele>
        <time>2014-06-01T09:12:36.000Z</time>
      </trkpt>
      <trkpt lat="47.52145" lon="6.71599">
        <ele>416.9</ele>
        <time>2014-06-01T09:12:37.000Z</time>
      </trkpt>
      <trkpt lat="47.52149" lon="6.71595">
        <ele>416.8</ele>
        <time>2014-06-01T09:12:38.000Z</time>
      </trkpt>
      <trkpt lat="47.52153" lon="6.7159">
        <ele>415.5</ele>
        <time>2014-06-01T09:12:39.000Z</time>
      </trkpt>
      <trkpt lat="47.52156" lon="6.71584">
        <ele>414</ele>
        <time>2014-06-01T09:12:40.000Z</time>
      </trkpt>
      <trkpt lat="47.52158" lon="6.71579">
        <ele>413.4</ele>
        <time>2014-06-01T09:12:41.000Z</time>
      </trkpt>
      <trkpt lat="47.52159" lon="6.71574">
        <ele>412.8</ele>
        <time>2014-06-01T09:12:42.000Z</time>
      </trkpt>
      <trkpt lat="47.52161" lon="6.71571">
        <ele>412.8</ele>
        <time>2014-06-01T09:12:43.000Z</time>
      </trkpt>
      <trkpt lat="47.52163" lon="6.71568">
        <ele>413.3</ele>
        <time>2014-06-01T09:12:44.000Z</time>
      </trkpt>
      <trkpt lat="47.52165" lon="6.71565">
        <ele>413.7</ele>
        <time>2014-06-01T09:12:45.000Z</time>
      </trkpt>
      <trkpt lat="47.52166" lon="6.7156">
        <ele>414.1</ele>
        <time>2014-06-01T09:12:46.000Z</time>
      </trkpt>
      <trkpt lat="47.52167" lon="6.71556">
        <ele>414.2</ele>
        <time>2014-06-01T09:12:47.000Z</time>
      </trkpt>
      <trkpt lat="47.52166" lon="6.71552">
        <ele>413.2</ele>
        <time>2014-06-01T09:12:48.000Z</time>
      </trkpt>
      <trkpt lat="47.52166" lon="6.71548">
        <ele>412.6</ele>
        <time>2014-06-01T09:12:49.000Z</time>
      </trkpt>
      <trkpt lat="47.52166" lon="6.71544">
        <ele>411.7</ele>
        <time>2014-06-01T09:12:50.000Z</time>
      </trkpt>
      <trkpt lat="47.52165" lon="6.71539">
        <ele>408.5</ele>
        <time>2014-06-01T09:12:52.000Z</time>
      </trkpt>
      <trkpt lat="47.52165" lon="6.71536">
        <ele>407</ele>
        <time>2014-06-01T09:12:53.000Z</time>
      </trkpt>
      <trkpt lat="47.52165" lon="6.7153">
        <ele>406.1</ele>
        <time>2014-06-01T09:12:55.000Z</time>
      </trkpt>
      <trkpt lat="47.52165" lon="6.71528">
        <ele>405.4</ele>
        <time>2014-06-01T09:12:56.000Z</time>
      </trkpt>
      <trkpt lat="47.52167" lon="6.71521">
        <ele>404.8</ele>
        <time>2014-06-01T09:12:58.000Z</time>
      </trkpt>
      <trkpt lat="47.52169" lon="6.71497">
        <ele>406.3</ele>
        <time>2014-06-01T09:13:06.000Z</time>
      </trkpt>
      <trkpt lat="47.52168" lon="6.71503">
        <ele>406.2</ele>
        <time>2014-06-01T09:13:08.000Z</time>
      </trkpt>
      <trkpt lat="47.52167" lon="6.71505">
        <ele>406.1</ele>
        <time>2014-06-01T09:13:09.000Z</time>
      </trkpt>
      <trkpt lat="47.52168" lon="6.71499">
        <ele>403.2</ele>
        <time>2014-06-01T09:14:44.000Z</time>
      </trkpt>
      <trkpt lat="47.52168" lon="6.71498">
        <ele>403.2</ele>
        <time>2014-06-01T09:14:45.000Z</time>
      </trkpt>
      <trkpt lat="47.52166" lon="6.71493">
        <ele>402.8</ele>
        <time>2014-06-01T09:14:50.000Z</time>
      </trkpt>
      <trkpt lat="47.52166" lon="6.71492">
        <ele>403</ele>
        <time>2014-06-01T09:14:51.000Z</time>
      </trkpt>
      <trkpt lat="47.52166" lon="6.71486">
        <ele>403.1</ele>
        <time>2014-06-01T09:14:56.000Z</time>
      </trkpt>
      <trkpt lat="47.52166" lon="6.71484">
        <ele>402.8</ele>
        <time>2014-06-01T09:14:57.000Z</time>
      </trkpt>
      <trkpt lat="47.52166" lon="6.71482">
        <ele>402.4</ele>
        <time>2014-06-01T09:14:58.000Z</time>
      </trkpt>
      <trkpt lat="47.52166" lon="6.71475">
        <ele>402.1</ele>
        <time>2014-06-01T09:15:01.000Z</time>
      </trkpt>
      <trkpt lat="47.52167" lon="6.71468">
        <ele>401.7</ele>
        <time>2014-06-01T09:15:03.000Z</time>
      </trkpt>
      <trkpt lat="47.52167" lon="6.71465">
        <ele>401.6</ele>
        <time>2014-06-01T09:15:04.000Z</time>
      </trkpt>
      <trkpt lat="47.52168" lon="6.71461">
        <ele>401.5</ele>
        <time>2014-06-01T09:15:05.000Z</time>
      </trkpt>
      <trkpt lat="47.52167" lon="6.71456">
        <ele>401.3</ele>
        <time>2014-06-01T09:15:06.000Z</time>
      </trkpt>
      <trkpt lat="47.52167" lon="6.71451">
        <ele>400.9</ele>
        <time>2014-06-01T09:15:07.000Z</time>
      </trkpt>
      <trkpt lat="47.52166" lon="6.71446">
        <ele>400.5</ele>
        <time>2014-06-01T09:15:08.000Z</time>
      </trkpt>
      <trkpt lat="47.52165" lon="6.71442">
        <ele>400.1</ele>
        <time>2014-06-01T09:15:09.000Z</time>
      </trkpt>
      <trkpt lat="47.52165" lon="6.71437">
        <ele>400.1</ele>
        <time>2014-06-01T09:15:10.000Z</time>
      </trkpt>
      <trkpt lat="47.52164" lon="6.71432">
        <ele>399.6</ele>
        <time>2014-06-01T09:15:11.000Z</time>
      </trkpt>
      <trkpt lat="47.52162" lon="6.71427">
        <ele>399.3</ele>
        <time>2014-06-01T09:15:12.000Z</time>
      </trkpt>
      <trkpt lat="47.52161" lon="6.71421">
        <ele>398.9</ele>
        <time>2014-06-01T09:15:13.000Z</time>
      </trkpt>
      <trkpt lat="47.5216" lon="6.71416">
        <ele>398.4</ele>
        <time>2014-06-01T09:15:14.000Z</time>
      </trkpt>
      <trkpt lat="47.52158" lon="6.71411">
        <ele>398.1</ele>
        <time>2014-06-01T09:15:15.000Z</time>
      </trkpt>
      <trkpt lat="47.52155" lon="6.71406">
        <ele>397.9</ele>
        <time>2014-06-01T09:15:16.000Z</time>
      </trkpt>
      <trkpt lat="47.52153" lon="6.714">
        <ele>397.4</ele>
        <time>2014-06-01T09:15:17.000Z</time>
      </trkpt>
      <trkpt lat="47.52149" lon="6.71393">
        <ele>396.5</ele>
        <time>2014-06-01T09:15:18.000Z</time>
      </trkpt>
      <trkpt lat="47.52147" lon="6.71386">
        <ele>396.4</ele>
        <time>2014-06-01T09:15:19.000Z</time>
      </trkpt>
      <trkpt lat="47.52145" lon="6.7138">
        <ele>395.5</ele>
        <time>2014-06-01T09:15:20.000Z</time>
      </trkpt>
      <trkpt lat="47.52144" lon="6.71371">
        <ele>394.2</ele>
        <time>2014-06-01T09:15:21.000Z</time>
      </trkpt>
      <trkpt lat="47.52145" lon="6.71362">
        <ele>393.3</ele>
        <time>2014-06-01T09:15:22.000Z</time>
      </trkpt>
      <trkpt lat="47.52146" lon="6.71354">
        <ele>392.3</ele>
        <time>2014-06-01T09:15:23.000Z</time>
      </trkpt>
      <trkpt lat="47.52149" lon="6.71347">
        <ele>391.8</ele>
        <time>2014-06-01T09:15:24.000Z</time>
      </trkpt>
      <trkpt lat="47.52154" lon="6.71339">
        <ele>391.5</ele>
        <time>2014-06-01T09:15:25.000Z</time>
      </trkpt>
      <trkpt lat="47.52159" lon="6.71332">
        <ele>389.5</ele>
        <time>2014-06-01T09:15:26.000Z</time>
      </trkpt>
      <trkpt lat="47.52165" lon="6.71326">
        <ele>388.9</ele>
        <time>2014-06-01T09:15:27.000Z</time>
      </trkpt>
      <trkpt lat="47.5217" lon="6.7132">
        <ele>388.8</ele>
        <time>2014-06-01T09:15:28.000Z</time>
      </trkpt>
      <trkpt lat="47.52175" lon="6.71314">
        <ele>388.9</ele>
        <time>2014-06-01T09:15:29.000Z</time>
      </trkpt>
      <trkpt lat="47.5218" lon="6.71307">
        <ele>388.9</ele>
        <time>2014-06-01T09:15:30.000Z</time>
      </trkpt>
      <trkpt lat="47.52188" lon="6.71296">
        <ele>388.7</ele>
        <time>2014-06-01T09:15:31.000Z</time>
      </trkpt>
      <trkpt lat="47.52194" lon="6.71289">
        <ele>388.3</ele>
        <time>2014-06-01T09:15:32.000Z</time>
      </trkpt>
      <trkpt lat="47.52202" lon="6.71279">
        <ele>387.8</ele>
        <time>2014-06-01T09:15:33.000Z</time>
      </trkpt>
      <trkpt lat="47.52209" lon="6.71272">
        <ele>387.5</ele>
        <time>2014-06-01T09:15:34.000Z</time>
      </trkpt>
      <trkpt lat="47.52214" lon="6.71266">
        <ele>387.2</ele>
        <time>2014-06-01T09:15:35.000Z</time>
      </trkpt>
      <trkpt lat="47.52222" lon="6.71259">
        <ele>385.6</ele>
        <time>2014-06-01T09:15:36.000Z</time>
      </trkpt>
      <trkpt lat="47.52229" lon="6.71252">
        <ele>384.9</ele>
        <time>2014-06-01T09:15:37.000Z</time>
      </trkpt>
      <trkpt lat="47.52236" lon="6.71245">
        <ele>386</ele>
        <time>2014-06-01T09:15:38.000Z</time>
      </trkpt>
      <trkpt lat="47.52242" lon="6.7124">
        <ele>386.1</ele>
        <time>2014-06-01T09:15:39.000Z</time>
      </trkpt>
      <trkpt lat="47.52248" lon="6.71236">
        <ele>384.9</ele>
        <time>2014-06-01T09:15:40.000Z</time>
      </trkpt>
      <trkpt lat="47.52253" lon="6.71231">
        <ele>384.5</ele>
        <time>2014-06-01T09:15:41.000Z</time>
      </trkpt>
      <trkpt lat="47.52257" lon="6.71227">
        <ele>384.1</ele>
        <time>2014-06-01T09:15:42.000Z</time>
      </trkpt>
      <trkpt lat="47.52263" lon="6.71224">
        <ele>384.1</ele>
        <time>2014-06-01T09:15:43.000Z</time>
      </trkpt>
      <trkpt lat="47.52269" lon="6.71221">
        <ele>383.8</ele>
        <time>2014-06-01T09:15:44.000Z</time>
      </trkpt>
      <trkpt lat="47.52274" lon="6.71217">
        <ele>383.7</ele>
        <time>2014-06-01T09:15:45.000Z</time>
      </trkpt>
      <trkpt lat="47.52279" lon="6.71211">
        <ele>383.7</ele>
        <time>2014-06-01T09:15:46.000Z</time>
      </trkpt>
      <trkpt lat="47.52285" lon="6.71204">
        <ele>383.4</ele>
        <time>2014-06-01T09:15:47.000Z</time>
      </trkpt>
      <trkpt lat="47.52291" lon="6.71196">
        <ele>382.1</ele>
        <time>2014-06-01T09:15:48.000Z</time>
      </trkpt>
      <trkpt lat="47.52297" lon="6.71189">
        <ele>381</ele>
        <time>2014-06-01T09:15:49.000Z</time>
      </trkpt>
      <trkpt lat="47.52303" lon="6.71182">
        <ele>380.4</ele>
        <time>2014-06-01T09:15:50.000Z</time>
      </trkpt>
      <trkpt lat="47.52308" lon="6.71174">
        <ele>379.8</ele>
        <time>2014-06-01T09:15:51.000Z</time>
      </trkpt>
      <trkpt lat="47.52314" lon="6.71168">
        <ele>379.1</ele>
        <time>2014-06-01T09:15:52.000Z</time>
      </trkpt>
      <trkpt lat="47.5232" lon="6.71161">
        <ele>379</ele>
        <time>2014-06-01T09:15:53.000Z</time>
      </trkpt>
      <trkpt lat="47.52326" lon="6.71158">
        <ele>379.1</ele>
        <time>2014-06-01T09:15:54.000Z</time>
      </trkpt>
      <trkpt lat="47.52333" lon="6.71157">
        <ele>378.6</ele>
        <time>2014-06-01T09:15:55.000Z</time>
      </trkpt>
      <trkpt lat="47.52339" lon="6.71161">
        <ele>378</ele>
        <time>2014-06-01T09:15:56.000Z</time>
      </trkpt>
      <trkpt lat="47.52345" lon="6.71166">
        <ele>377.7</ele>
        <time>2014-06-01T09:15:57.000Z</time>
      </trkpt>
      <trkpt lat="47.52352" lon="6.71172">
        <ele>377.3</ele>
        <time>2014-06-01T09:15:58.000Z</time>
      </trkpt>
      <trkpt lat="47.52374" lon="6.71185">
        <ele>373.7</ele>
        <time>2014-06-01T09:16:01.000Z</time>
      </trkpt>
      <trkpt lat="47.52383" lon="6.71184">
        <ele>373.3</ele>
        <time>2014-06-01T09:16:02.000Z</time>
      </trkpt>
      <trkpt lat="47.52391" lon="6.71183">
        <ele>372.5</ele>
        <time>2014-06-01T09:16:03.000Z</time>
      </trkpt>
      <trkpt lat="47.524" lon="6.71182">
        <ele>372.6</ele>
        <time>2014-06-01T09:16:04.000Z</time>
      </trkpt>
      <trkpt lat="47.52408" lon="6.71182">
        <ele>372.1</ele>
        <time>2014-06-01T09:16:05.000Z</time>
      </trkpt>
      <trkpt lat="47.52417" lon="6.71183">
        <ele>371.5</ele>
        <time>2014-06-01T09:16:06.000Z</time>
      </trkpt>
      <trkpt lat="47.52425" lon="6.71182">
        <ele>371.1</ele>
        <time>2014-06-01T09:16:07.000Z</time>
      </trkpt>
      <trkpt lat="47.52434" lon="6.71181">
        <ele>370.3</ele>
        <time>2014-06-01T09:16:08.000Z</time>
      </trkpt>
      <trkpt lat="47.52443" lon="6.7118">
        <ele>369.4</ele>
        <time>2014-06-01T09:16:09.000Z</time>
      </trkpt>
      <trkpt lat="47.52451" lon="6.71179">
        <ele>368.8</ele>
        <time>2014-06-01T09:16:10.000Z</time>
      </trkpt>
      <trkpt lat="47.52459" lon="6.71179">
        <ele>368.5</ele>
        <time>2014-06-01T09:16:11.000Z</time>
      </trkpt>
      <trkpt lat="47.52467" lon="6.7118">
        <ele>368.1</ele>
        <time>2014-06-01T09:16:12.000Z</time>
      </trkpt>
      <trkpt lat="47.52474" lon="6.71181">
        <ele>367.7</ele>
        <time>2014-06-01T09:16:13.000Z</time>
      </trkpt>
      <trkpt lat="47.52482" lon="6.71187">
        <ele>367</ele>
        <time>2014-06-01T09:16:14.000Z</time>
      </trkpt>
      <trkpt lat="47.52488" lon="6.71193">
        <ele>367.3</ele>
        <time>2014-06-01T09:16:15.000Z</time>
      </trkpt>
      <trkpt lat="47.52494" lon="6.71201">
        <ele>367.6</ele>
        <time>2014-06-01T09:16:16.000Z</time>
      </trkpt>
      <trkpt lat="47.52499" lon="6.71209">
        <ele>367.5</ele>
        <time>2014-06-01T09:16:17.000Z</time>
      </trkpt>
      <trkpt lat="47.52505" lon="6.71217">
        <ele>367.3</ele>
        <time>2014-06-01T09:16:18.000Z</time>
      </trkpt>
      <trkpt lat="47.52511" lon="6.71224">
        <ele>367.2</ele>
        <time>2014-06-01T09:16:19.000Z</time>
      </trkpt>
      <trkpt lat="47.52516" lon="6.7123">
        <ele>367.2</ele>
        <time>2014-06-01T09:16:20.000Z</time>
      </trkpt>
      <trkpt lat="47.52522" lon="6.71234">
        <ele>366.8</ele>
        <time>2014-06-01T09:16:21.000Z</time>
      </trkpt>
      <trkpt lat="47.52528" lon="6.71237">
        <ele>367</ele>
        <time>2014-06-01T09:16:22.000Z</time>
      </trkpt>
      <trkpt lat="47.52535" lon="6.71241">
        <ele>366.7</ele>
        <time>2014-06-01T09:16:23.000Z</time>
      </trkpt>
      <trkpt lat="47.5254" lon="6.71245">
        <ele>366.8</ele>
        <time>2014-06-01T09:16:24.000Z</time>
      </trkpt>
      <trkpt lat="47.52547" lon="6.71249">
        <ele>366.5</ele>
        <time>2014-06-01T09:16:25.000Z</time>
      </trkpt>
      <trkpt lat="47.52553" lon="6.71251">
        <ele>366.2</ele>
        <time>2014-06-01T09:16:26.000Z</time>
      </trkpt>
      <trkpt lat="47.52559" lon="6.71253">
        <ele>366.3</ele>
        <time>2014-06-01T09:16:27.000Z</time>
      </trkpt>
      <trkpt lat="47.52566" lon="6.71256">
        <ele>366</ele>
        <time>2014-06-01T09:16:28.000Z</time>
      </trkpt>
      <trkpt lat="47.52573" lon="6.71258">
        <ele>366.2</ele>
        <time>2014-06-01T09:16:29.000Z</time>
      </trkpt>
      <trkpt lat="47.52579" lon="6.71258">
        <ele>366.6</ele>
        <time>2014-06-01T09:16:30.000Z</time>
      </trkpt>
      <trkpt lat="47.52586" lon="6.71258">
        <ele>366.7</ele>
        <time>2014-06-01T09:16:31.000Z</time>
      </trkpt>
      <trkpt lat="47.52591" lon="6.71259">
        <ele>367.1</ele>
        <time>2014-06-01T09:16:32.000Z</time>
      </trkpt>
      <trkpt lat="47.52596" lon="6.71259">
        <ele>367.2</ele>
        <time>2014-06-01T09:16:33.000Z</time>
      </trkpt>
      <trkpt lat="47.52603" lon="6.71264">
        <ele>367.1</ele>
        <time>2014-06-01T09:16:34.000Z</time>
      </trkpt>
      <trkpt lat="47.52609" lon="6.71267">
        <ele>367</ele>
        <time>2014-06-01T09:16:35.000Z</time>
      </trkpt>
      <trkpt lat="47.52614" lon="6.71267">
        <ele>367.2</ele>
        <time>2014-06-01T09:16:36.000Z</time>
      </trkpt>
      <trkpt lat="47.5262" lon="6.71268">
        <ele>367.5</ele>
        <time>2014-06-01T09:16:37.000Z</time>
      </trkpt>
      <trkpt lat="47.52626" lon="6.71271">
        <ele>367.5</ele>
        <time>2014-06-01T09:16:38.000Z</time>
      </trkpt>
      <trkpt lat="47.52633" lon="6.71275">
        <ele>368.9</ele>
        <time>2014-06-01T09:16:39.000Z</time>
      </trkpt>
      <trkpt lat="47.5264" lon="6.71279">
        <ele>369.7</ele>
        <time>2014-06-01T09:16:40.000Z</time>
      </trkpt>
      <trkpt lat="47.52649" lon="6.71281">
        <ele>369.8</ele>
        <time>2014-06-01T09:16:41.000Z</time>
      </trkpt>
      <trkpt lat="47.52657" lon="6.71284">
        <ele>370</ele>
        <time>2014-06-01T09:16:42.000Z</time>
      </trkpt>
      <trkpt lat="47.52663" lon="6.71288">
        <ele>369.7</ele>
        <time>2014-06-01T09:16:43.000Z</time>
      </trkpt>
      <trkpt lat="47.52672" lon="6.71288">
        <ele>368.9</ele>
        <time>2014-06-01T09:16:44.000Z</time>
      </trkpt>
      <trkpt lat="47.52681" lon="6.71288">
        <ele>368.3</ele>
        <time>2014-06-01T09:16:45.000Z</time>
      </trkpt>
      <trkpt lat="47.52689" lon="6.71287">
        <ele>367.9</ele>
        <time>2014-06-01T09:16:46.000Z</time>
      </trkpt>
      <trkpt lat="47.52696" lon="6.71285">
        <ele>368.3</ele>
        <time>2014-06-01T09:16:47.000Z</time>
      </trkpt>
      <trkpt lat="47.52703" lon="6.71284">
        <ele>368.6</ele>
        <time>2014-06-01T09:16:48.000Z</time>
      </trkpt>
      <trkpt lat="47.52708" lon="6.7128">
        <ele>368.3</ele>
        <time>2014-06-01T09:16:49.000Z</time>
      </trkpt>
      <trkpt lat="47.5271" lon="6.71273">
        <ele>368.4</ele>
        <time>2014-06-01T09:16:50.000Z</time>
      </trkpt>
      <trkpt lat="47.52708" lon="6.71267">
        <ele>368.2</ele>
        <time>2014-06-01T09:16:51.000Z</time>
      </trkpt>
      <trkpt lat="47.5271" lon="6.71261">
        <ele>366.4</ele>
        <time>2014-06-01T09:16:52.000Z</time>
      </trkpt>
      <trkpt lat="47.52709" lon="6.71255">
        <ele>367.2</ele>
        <time>2014-06-01T09:16:53.000Z</time>
      </trkpt>
      <trkpt lat="47.52708" lon="6.71249">
        <ele>366.7</ele>
        <time>2014-06-01T09:16:54.000Z</time>
      </trkpt>
      <trkpt lat="47.5271" lon="6.71247">
        <ele>368.5</ele>
        <time>2014-06-01T09:16:55.000Z</time>
      </trkpt>
      <trkpt lat="47.52709" lon="6.71243">
        <ele>367.1</ele>
        <time>2014-06-01T09:16:56.000Z</time>
      </trkpt>
      <trkpt lat="47.5271" lon="6.71237">
        <ele>365.9</ele>
        <time>2014-06-01T09:16:57.000Z</time>
      </trkpt>
      <trkpt lat="47.52712" lon="6.71234">
        <ele>365.8</ele>
        <time>2014-06-01T09:16:58.000Z</time>
      </trkpt>
      <trkpt lat="47.52708" lon="6.71213">
        <ele>360.5</ele>
        <time>2014-06-01T09:17:06.000Z</time>
      </trkpt>
      <trkpt lat="47.52708" lon="6.71207">
        <ele>365</ele>
        <time>2014-06-01T09:17:10.000Z</time>
      </trkpt>
      <trkpt lat="47.52709" lon="6.71206">
        <ele>366.3</ele>
        <time>2014-06-01T09:17:11.000Z</time>
      </trkpt>
      <trkpt lat="47.52713" lon="6.71204">
        <ele>368</ele>
        <time>2014-06-01T09:17:13.000Z</time>
      </trkpt>
      <trkpt lat="47.52714" lon="6.71202">
        <ele>368</ele>
        <time>2014-06-01T09:17:14.000Z</time>
      </trkpt>
      <trkpt lat="47.52715" lon="6.712">
        <ele>368.5</ele>
        <time>2014-06-01T09:17:15.000Z</time>
      </trkpt>
      <trkpt lat="47.52717" lon="6.71198">
        <ele>368.6</ele>
        <time>2014-06-01T09:17:16.000Z</time>
      </trkpt>
      <trkpt lat="47.5272" lon="6.71195">
        <ele>369.6</ele>
        <time>2014-06-01T09:17:17.000Z</time>
      </trkpt>
      <trkpt lat="47.5273" lon="6.71187">
        <ele>368.6</ele>
        <time>2014-06-01T09:17:18.000Z</time>
      </trkpt>
      <trkpt lat="47.52735" lon="6.71181">
        <ele>368.2</ele>
        <time>2014-06-01T09:17:19.000Z</time>
      </trkpt>
      <trkpt lat="47.52738" lon="6.71175">
        <ele>367.9</ele>
        <time>2014-06-01T09:17:20.000Z</time>
      </trkpt>
      <trkpt lat="47.52741" lon="6.71167">
        <ele>368</ele>
        <time>2014-06-01T09:17:21.000Z</time>
      </trkpt>
      <trkpt lat="47.52743" lon="6.71159">
        <ele>368.3</ele>
        <time>2014-06-01T09:17:22.000Z</time>
      </trkpt>
      <trkpt lat="47.52741" lon="6.71142">
        <ele>366</ele>
        <time>2014-06-01T09:17:23.000Z</time>
      </trkpt>
      <trkpt lat="47.52742" lon="6.71127">
        <ele>365.6</ele>
        <time>2014-06-01T09:17:24.000Z</time>
      </trkpt>
      <trkpt lat="47.52739" lon="6.71111">
        <ele>364.2</ele>
        <time>2014-06-01T09:17:25.000Z</time>
      </trkpt>
      <trkpt lat="47.52738" lon="6.71095">
        <ele>362.8</ele>
        <time>2014-06-01T09:17:26.000Z</time>
      </trkpt>
      <trkpt lat="47.52737" lon="6.71078">
        <ele>361.5</ele>
        <time>2014-06-01T09:17:27.000Z</time>
      </trkpt>
      <trkpt lat="47.52737" lon="6.71065">
        <ele>360.1</ele>
        <time>2014-06-01T09:17:28.000Z</time>
      </trkpt>
      <trkpt lat="47.5274" lon="6.71053">
        <ele>360.1</ele>
        <time>2014-06-01T09:17:29.000Z</time>
      </trkpt>
      <trkpt lat="47.52742" lon="6.71041">
        <ele>359.8</ele>
        <time>2014-06-01T09:17:30.000Z</time>
      </trkpt>
      <trkpt lat="47.5274" lon="6.71033">
        <ele>356.3</ele>
        <time>2014-06-01T09:17:31.000Z</time>
      </trkpt>
      <trkpt lat="47.52737" lon="6.71026">
        <ele>353.5</ele>
        <time>2014-06-01T09:17:32.000Z</time>
      </trkpt>
      <trkpt lat="47.52735" lon="6.71018">
        <ele>353</ele>
        <time>2014-06-01T09:17:33.000Z</time>
      </trkpt>
      <trkpt lat="47.52734" lon="6.71012">
        <ele>352.9</ele>
        <time>2014-06-01T09:17:34.000Z</time>
      </trkpt>
      <trkpt lat="47.52733" lon="6.71005">
        <ele>351.9</ele>
        <time>2014-06-01T09:17:35.000Z</time>
      </trkpt>
      <trkpt lat="47.52732" lon="6.70999">
        <ele>351.9</ele>
        <time>2014-06-01T09:17:36.000Z</time>
      </trkpt>
      <trkpt lat="47.52731" lon="6.70991">
        <ele>351.4</ele>
        <time>2014-06-01T09:17:37.000Z</time>
      </trkpt>
      <trkpt lat="47.5273" lon="6.70983">
        <ele>350.9</ele>
        <time>2014-06-01T09:17:38.000Z</time>
      </trkpt>
      <trkpt lat="47.5273" lon="6.70976">
        <ele>351.8</ele>
        <time>2014-06-01T09:17:39.000Z</time>
      </trkpt>
      <trkpt lat="47.52729" lon="6.70969">
        <ele>351.6</ele>
        <time>2014-06-01T09:17:40.000Z</time>
      </trkpt>
      <trkpt lat="47.52729" lon="6.70961">
        <ele>351.1</ele>
        <time>2014-06-01T09:17:41.000Z</time>
      </trkpt>
      <trkpt lat="47.52726" lon="6.70959">
        <ele>351.8</ele>
        <time>2014-06-01T09:17:43.000Z</time>
      </trkpt>
      <trkpt lat="47.52726" lon="6.70953">
        <ele>352.2</ele>
        <time>2014-06-01T09:17:44.000Z</time>
      </trkpt>
      <trkpt lat="47.52726" lon="6.70949">
        <ele>352.5</ele>
        <time>2014-06-01T09:17:45.000Z</time>
      </trkpt>
      <trkpt lat="47.52726" lon="6.7094">
        <ele>353.3</ele>
        <time>2014-06-01T09:17:46.000Z</time>
      </trkpt>
      <trkpt lat="47.52724" lon="6.70932">
        <ele>353.7</ele>
        <time>2014-06-01T09:17:47.000Z</time>
      </trkpt>
      <trkpt lat="47.52728" lon="6.70925">
        <ele>355.2</ele>
        <time>2014-06-01T09:17:48.000Z</time>
      </trkpt>
      <trkpt lat="47.52731" lon="6.70918">
        <ele>355.7</ele>
        <time>2014-06-01T09:17:49.000Z</time>
      </trkpt>
      <trkpt lat="47.52731" lon="6.70911">
        <ele>356</ele>
        <time>2014-06-01T09:17:50.000Z</time>
      </trkpt>
      <trkpt lat="47.52732" lon="6.709">
        <ele>355.9</ele>
        <time>2014-06-01T09:17:51.000Z</time>
      </trkpt>
      <trkpt lat="47.52732" lon="6.70893">
        <ele>354.8</ele>
        <time>2014-06-01T09:17:52.000Z</time>
      </trkpt>
      <trkpt lat="47.52732" lon="6.70882">
        <ele>352.1</ele>
        <time>2014-06-01T09:17:53.000Z</time>
      </trkpt>
      <trkpt lat="47.52731" lon="6.70872">
        <ele>349.6</ele>
        <time>2014-06-01T09:17:54.000Z</time>
      </trkpt>
      <trkpt lat="47.52732" lon="6.70863">
        <ele>349.8</ele>
        <time>2014-06-01T09:17:55.000Z</time>
      </trkpt>
      <trkpt lat="47.52732" lon="6.70856">
        <ele>353.6</ele>
        <time>2014-06-01T09:17:57.000Z</time>
      </trkpt>
      <trkpt lat="47.52732" lon="6.70852">
        <ele>354.1</ele>
        <time>2014-06-01T09:17:58.000Z</time>
      </trkpt>
      <trkpt lat="47.52738" lon="6.708">
        <ele>354.9</ele>
        <time>2014-06-01T09:18:06.000Z</time>
      </trkpt>
      <trkpt lat="47.52736" lon="6.70795">
        <ele>355.5</ele>
        <time>2014-06-01T09:18:07.000Z</time>
      </trkpt>
      <trkpt lat="47.52737" lon="6.70786">
        <ele>356.3</ele>
        <time>2014-06-01T09:18:08.000Z</time>
      </trkpt>
      <trkpt lat="47.52743" lon="6.70773">
        <ele>355.5</ele>
        <time>2014-06-01T09:18:09.000Z</time>
      </trkpt>
      <trkpt lat="47.52743" lon="6.70765">
        <ele>356.6</ele>
        <time>2014-06-01T09:18:10.000Z</time>
      </trkpt>
      <trkpt lat="47.52744" lon="6.70758">
        <ele>357.6</ele>
        <time>2014-06-01T09:18:11.000Z</time>
      </trkpt>
      <trkpt lat="47.52746" lon="6.70751">
        <ele>358.2</ele>
        <time>2014-06-01T09:18:12.000Z</time>
      </trkpt>
      <trkpt lat="47.52746" lon="6.70744">
        <ele>358.2</ele>
        <time>2014-06-01T09:18:13.000Z</time>
      </trkpt>
      <trkpt lat="47.52746" lon="6.70739">
        <ele>358.2</ele>
        <time>2014-06-01T09:18:14.000Z</time>
      </trkpt>
      <trkpt lat="47.52746" lon="6.70732">
        <ele>361.6</ele>
        <time>2014-06-01T09:18:15.000Z</time>
      </trkpt>
      <trkpt lat="47.52746" lon="6.70725">
        <ele>363</ele>
        <time>2014-06-01T09:18:16.000Z</time>
      </trkpt>
      <trkpt lat="47.52749" lon="6.70715">
        <ele>363.4</ele>
        <time>2014-06-01T09:18:17.000Z</time>
      </trkpt>
      <trkpt lat="47.52752" lon="6.70703">
        <ele>363.6</ele>
        <time>2014-06-01T09:18:18.000Z</time>
      </trkpt>
      <trkpt lat="47.52752" lon="6.70698">
        <ele>364.1</ele>
        <time>2014-06-01T09:18:19.000Z</time>
      </trkpt>
      <trkpt lat="47.52748" lon="6.70694">
        <ele>367.9</ele>
        <time>2014-06-01T09:18:20.000Z</time>
      </trkpt>
      <trkpt lat="47.52747" lon="6.70687">
        <ele>368</ele>
        <time>2014-06-01T09:18:21.000Z</time>
      </trkpt>
      <trkpt lat="47.5275" lon="6.70676">
        <ele>367.2</ele>
        <time>2014-06-01T09:18:22.000Z</time>
      </trkpt>
      <trkpt lat="47.52751" lon="6.7067">
        <ele>366.7</ele>
        <time>2014-06-01T09:18:23.000Z</time>
      </trkpt>
      <trkpt lat="47.5275" lon="6.70663">
        <ele>365.6</ele>
        <time>2014-06-01T09:18:24.000Z</time>
      </trkpt>
      <trkpt lat="47.52748" lon="6.70658">
        <ele>365.3</ele>
        <time>2014-06-01T09:18:25.000Z</time>
      </trkpt>
      <trkpt lat="47.52747" lon="6.70653">
        <ele>365.3</ele>
        <time>2014-06-01T09:18:26.000Z</time>
      </trkpt>
      <trkpt lat="47.52747" lon="6.70645">
        <ele>364.9</ele>
        <time>2014-06-01T09:18:27.000Z</time>
      </trkpt>
      <trkpt lat="47.52747" lon="6.7064">
        <ele>365</ele>
        <time>2014-06-01T09:18:28.000Z</time>
      </trkpt>
      <trkpt lat="47.52749" lon="6.70636">
        <ele>366.9</ele>
        <time>2014-06-01T09:18:29.000Z</time>
      </trkpt>
      <trkpt lat="47.5275" lon="6.70631">
        <ele>367.4</ele>
        <time>2014-06-01T09:18:30.000Z</time>
      </trkpt>
      <trkpt lat="47.52752" lon="6.70629">
        <ele>366.6</ele>
        <time>2014-06-01T09:18:31.000Z</time>
      </trkpt>
      <trkpt lat="47.52755" lon="6.70624">
        <ele>365.3</ele>
        <time>2014-06-01T09:18:33.000Z</time>
      </trkpt>
      <trkpt lat="47.52757" lon="6.70622">
        <ele>364.4</ele>
        <time>2014-06-01T09:18:34.000Z</time>
      </trkpt>
      <trkpt lat="47.52761" lon="6.7062">
        <ele>364.8</ele>
        <time>2014-06-01T09:18:35.000Z</time>
      </trkpt>
      <trkpt lat="47.52764" lon="6.70619">
        <ele>364.4</ele>
        <time>2014-06-01T09:18:36.000Z</time>
      </trkpt>
      <trkpt lat="47.52768" lon="6.70618">
        <ele>363.6</ele>
        <time>2014-06-01T09:18:37.000Z</time>
      </trkpt>
      <trkpt lat="47.5277" lon="6.70617">
        <ele>362.7</ele>
        <time>2014-06-01T09:18:38.000Z</time>
      </trkpt>
      <trkpt lat="47.52773" lon="6.70613">
        <ele>361.6</ele>
        <time>2014-06-01T09:18:42.000Z</time>
      </trkpt>
      <trkpt lat="47.52774" lon="6.70612">
        <ele>360.3</ele>
        <time>2014-06-01T09:18:43.000Z</time>
      </trkpt>
      <trkpt lat="47.52777" lon="6.70609">
        <ele>359.5</ele>
        <time>2014-06-01T09:18:47.000Z</time>
      </trkpt>
      <trkpt lat="47.52777" lon="6.70608">
        <ele>359.2</ele>
        <time>2014-06-01T09:18:48.000Z</time>
      </trkpt>
      <trkpt lat="47.52775" lon="6.70603">
        <ele>356.6</ele>
        <time>2014-06-01T09:18:53.000Z</time>
      </trkpt>
      <trkpt lat="47.52774" lon="6.70603">
        <ele>356</ele>
        <time>2014-06-01T09:18:54.000Z</time>
      </trkpt>
      <trkpt lat="47.52774" lon="6.70596">
        <ele>350.4</ele>
        <time>2014-06-01T09:20:58.000Z</time>
      </trkpt>
      <trkpt lat="47.52776" lon="6.70594">
        <ele>349.6</ele>
        <time>2014-06-01T09:21:06.000Z</time>
      </trkpt>
      <trkpt lat="47.52779" lon="6.70593">
        <ele>345.4</ele>
        <time>2014-06-01T09:23:23.000Z</time>
      </trkpt>
      <trkpt lat="47.5278" lon="6.70593">
        <ele>346.8</ele>
        <time>2014-06-01T09:23:24.000Z</time>
      </trkpt>
      <trkpt lat="47.52782" lon="6.70588">
        <ele>348.3</ele>
        <time>2014-06-01T09:23:27.000Z</time>
      </trkpt>
      <trkpt lat="47.52783" lon="6.70585">
        <ele>348.4</ele>
        <time>2014-06-01T09:23:28.000Z</time>
      </trkpt>
      <trkpt lat="47.52783" lon="6.7058">
        <ele>349.3</ele>
        <time>2014-06-01T09:23:29.000Z</time>
      </trkpt>
      <trkpt lat="47.52784" lon="6.70574">
        <ele>350.7</ele>
        <time>2014-06-01T09:23:30.000Z</time>
      </trkpt>
      <trkpt lat="47.52784" lon="6.70567">
        <ele>350.9</ele>
        <time>2014-06-01T09:23:31.000Z</time>
      </trkpt>
      <trkpt lat="47.52785" lon="6.70562">
        <ele>351.8</ele>
        <time>2014-06-01T09:23:32.000Z</time>
      </trkpt>
      <trkpt lat="47.52787" lon="6.70558">
        <ele>351.9</ele>
        <time>2014-06-01T09:23:33.000Z</time>
      </trkpt>
      <trkpt lat="47.52789" lon="6.70556">
        <ele>352.2</ele>
        <time>2014-06-01T09:23:34.000Z</time>
      </trkpt>
      <trkpt lat="47.52791" lon="6.70556">
        <ele>352</ele>
        <time>2014-06-01T09:23:35.000Z</time>
      </trkpt>
      <trkpt lat="47.52794" lon="6.70557">
        <ele>351.9</ele>
        <time>2014-06-01T09:23:36.000Z</time>
      </trkpt>
      <trkpt lat="47.52797" lon="6.70557">
        <ele>351.9</ele>
        <time>2014-06-01T09:23:37.000Z</time>
      </trkpt>
      <trkpt lat="47.528" lon="6.70559">
        <ele>351.9</ele>
        <time>2014-06-01T09:23:38.000Z</time>
      </trkpt>
      <trkpt lat="47.52803" lon="6.70562">
        <ele>351.2</ele>
        <time>2014-06-01T09:23:39.000Z</time>
      </trkpt>
      <trkpt lat="47.52806" lon="6.70565">
        <ele>350.5</ele>
        <time>2014-06-01T09:23:40.000Z</time>
      </trkpt>
      <trkpt lat="47.52809" lon="6.7057">
        <ele>350.9</ele>
        <time>2014-06-01T09:23:41.000Z</time>
      </trkpt>
      <trkpt lat="47.52815" lon="6.70577">
        <ele>350.2</ele>
        <time>2014-06-01T09:23:42.000Z</time>
      </trkpt>
      <trkpt lat="47.5282" lon="6.70578">
        <ele>350.8</ele>
        <time>2014-06-01T09:23:43.000Z</time>
      </trkpt>
      <trkpt lat="47.52825" lon="6.7058">
        <ele>351.2</ele>
        <time>2014-06-01T09:23:44.000Z</time>
      </trkpt>
      <trkpt lat="47.52828" lon="6.70581">
        <ele>352</ele>
        <time>2014-06-01T09:23:45.000Z</time>
      </trkpt>
      <trkpt lat="47.52832" lon="6.70579">
        <ele>352.6</ele>
        <time>2014-06-01T09:23:46.000Z</time>
      </trkpt>
      <trkpt lat="47.52835" lon="6.70579">
        <ele>353.3</ele>
        <time>2014-06-01T09:23:47.000Z</time>
      </trkpt>
      <trkpt lat="47.52838" lon="6.70579">
        <ele>353.5</ele>
        <time>2014-06-01T09:23:48.000Z</time>
      </trkpt>
      <trkpt lat="47.52841" lon="6.70574">
        <ele>357.3</ele>
        <time>2014-06-01T09:23:51.000Z</time>
      </trkpt>
      <trkpt lat="47.52842" lon="6.70572">
        <ele>358</ele>
        <time>2014-06-01T09:23:52.000Z</time>
      </trkpt>
      <trkpt lat="47.52844" lon="6.70568">
        <ele>358.4</ele>
        <time>2014-06-01T09:23:54.000Z</time>
      </trkpt>
      <trkpt lat="47.52845" lon="6.70567">
        <ele>358.4</ele>
        <time>2014-06-01T09:23:55.000Z</time>
      </trkpt>
      <trkpt lat="47.52845" lon="6.70561">
        <ele>359</ele>
        <time>2014-06-01T09:23:57.000Z</time>
      </trkpt>
      <trkpt lat="47.52845" lon="6.70558">
        <ele>358.8</ele>
        <time>2014-06-01T09:23:58.000Z</time>
      </trkpt>
      <trkpt lat="47.52838" lon="6.7053">
        <ele>364.2</ele>
        <time>2014-06-01T09:24:06.000Z</time>
      </trkpt>
      <trkpt lat="47.52836" lon="6.70525">
        <ele>367.2</ele>
        <time>2014-06-01T09:24:07.000Z</time>
      </trkpt>
      <trkpt lat="47.52835" lon="6.70519">
        <ele>368.1</ele>
        <time>2014-06-01T09:24:08.000Z</time>
      </trkpt>
      <trkpt lat="47.52834" lon="6.70513">
        <ele>370.4</ele>
        <time>2014-06-01T09:24:09.000Z</time>
      </trkpt>
      <trkpt lat="47.52833" lon="6.70507">
        <ele>371.1</ele>
        <time>2014-06-01T09:24:10.000Z</time>
      </trkpt>
      <trkpt lat="47.52833" lon="6.70501">
        <ele>371.1</ele>
        <time>2014-06-01T09:24:11.000Z</time>
      </trkpt>
      <trkpt lat="47.52833" lon="6.70495">
        <ele>375.1</ele>
        <time>2014-06-01T09:24:12.000Z</time>
      </trkpt>
      <trkpt lat="47.52832" lon="6.7049">
        <ele>375.2</ele>
        <time>2014-06-01T09:24:13.000Z</time>
      </trkpt>
      <trkpt lat="47.52831" lon="6.70485">
        <ele>372.7</ele>
        <time>2014-06-01T09:24:14.000Z</time>
      </trkpt>
      <trkpt lat="47.52829" lon="6.7048">
        <ele>370.6</ele>
        <time>2014-06-01T09:24:15.000Z</time>
      </trkpt>
      <trkpt lat="47.52828" lon="6.70477">
        <ele>370.3</ele>
        <time>2014-06-01T09:24:16.000Z</time>
      </trkpt>
      <trkpt lat="47.52826" lon="6.70471">
        <ele>370.3</ele>
        <time>2014-06-01T09:24:19.000Z</time>
      </trkpt>
      <trkpt lat="47.52825" lon="6.7047">
        <ele>369.8</ele>
        <time>2014-06-01T09:24:20.000Z</time>
      </trkpt>
      <trkpt lat="47.52823" lon="6.70465">
        <ele>368.8</ele>
        <time>2014-06-01T09:24:22.000Z</time>
      </trkpt>
      <trkpt lat="47.52822" lon="6.70462">
        <ele>368.1</ele>
        <time>2014-06-01T09:24:23.000Z</time>
      </trkpt>
      <trkpt lat="47.52824" lon="6.70457">
        <ele>368.5</ele>
        <time>2014-06-01T09:24:25.000Z</time>
      </trkpt>
      <trkpt lat="47.52825" lon="6.70455">
        <ele>368.8</ele>
        <time>2014-06-01T09:24:26.000Z</time>
      </trkpt>
      <trkpt lat="47.52827" lon="6.70451">
        <ele>369</ele>
        <time>2014-06-01T09:24:28.000Z</time>
      </trkpt>
      <trkpt lat="47.52829" lon="6.7045">
        <ele>370.3</ele>
        <time>2014-06-01T09:24:29.000Z</time>
      </trkpt>
      <trkpt lat="47.52831" lon="6.7045">
        <ele>371.2</ele>
        <time>2014-06-01T09:24:30.000Z</time>
      </trkpt>
      <trkpt lat="47.52834" lon="6.7045">
        <ele>372.9</ele>
        <time>2014-06-01T09:24:31.000Z</time>
      </trkpt>
      <trkpt lat="47.52837" lon="6.70449">
        <ele>373.6</ele>
        <time>2014-06-01T09:24:32.000Z</time>
      </trkpt>
      <trkpt lat="47.5284" lon="6.70449">
        <ele>374.1</ele>
        <time>2014-06-01T09:24:33.000Z</time>
      </trkpt>
      <trkpt lat="47.52843" lon="6.70449">
        <ele>373.3</ele>
        <time>2014-06-01T09:24:34.000Z</time>
      </trkpt>
      <trkpt lat="47.52845" lon="6.70448">
        <ele>374.7</ele>
        <time>2014-06-01T09:24:35.000Z</time>
      </trkpt>
      <trkpt lat="47.52848" lon="6.70447">
        <ele>375.4</ele>
        <time>2014-06-01T09:24:36.000Z</time>
      </trkpt>
      <trkpt lat="47.5285" lon="6.70446">
        <ele>376</ele>
        <time>2014-06-01T09:24:37.000Z</time>
      </trkpt>
      <trkpt lat="47.52852" lon="6.70445">
        <ele>376</ele>
        <time>2014-06-01T09:24:38.000Z</time>
      </trkpt>
      <trkpt lat="47.52854" lon="6.70443">
        <ele>376.4</ele>
        <time>2014-06-01T09:24:39.000Z</time>
      </trkpt>
      <trkpt lat="47.52858" lon="6.70442">
        <ele>383.2</ele>
        <time>2014-06-01T09:24:41.000Z</time>
      </trkpt>
      <trkpt lat="47.5286" lon="6.70442">
        <ele>384.1</ele>
        <time>2014-06-01T09:24:42.000Z</time>
      </trkpt>
      <trkpt lat="47.52864" lon="6.70443">
        <ele>388.4</ele>
        <time>2014-06-01T09:24:44.000Z</time>
      </trkpt>
      <trkpt lat="47.52866" lon="6.70442">
        <ele>387.9</ele>
        <time>2014-06-01T09:24:45.000Z</time>
      </trkpt>
      <trkpt lat="47.52868" lon="6.70441">
        <ele>389.7</ele>
        <time>2014-06-01T09:24:46.000Z</time>
      </trkpt>
      <trkpt lat="47.5287" lon="6.7044">
        <ele>390.9</ele>
        <time>2014-06-01T09:24:47.000Z</time>
      </trkpt>
      <trkpt lat="47.52874" lon="6.70438">
        <ele>392.2</ele>
        <time>2014-06-01T09:24:49.000Z</time>
      </trkpt>
      <trkpt lat="47.52876" lon="6.70437">
        <ele>392.5</ele>
        <time>2014-06-01T09:24:50.000Z</time>
      </trkpt>
      <trkpt lat="47.52878" lon="6.70437">
        <ele>393.1</ele>
        <time>2014-06-01T09:24:51.000Z</time>
      </trkpt>
      <trkpt lat="47.5288" lon="6.70437">
        <ele>393.5</ele>
        <time>2014-06-01T09:24:52.000Z</time>
      </trkpt>
      <trkpt lat="47.52883" lon="6.70438">
        <ele>393.9</ele>
        <time>2014-06-01T09:24:53.000Z</time>
      </trkpt>
      <trkpt lat="47.52885" lon="6.70438">
        <ele>394</ele>
        <time>2014-06-01T09:24:54.000Z</time>
      </trkpt>
      <trkpt lat="47.52889" lon="6.70438">
        <ele>400.4</ele>
        <time>2014-06-01T09:24:56.000Z</time>
      </trkpt>
      <trkpt lat="47.5289" lon="6.70438">
        <ele>401.2</ele>
        <time>2014-06-01T09:24:57.000Z</time>
      </trkpt>
      <trkpt lat="47.52892" lon="6.70438">
        <ele>401.5</ele>
        <time>2014-06-01T09:24:58.000Z</time>
      </trkpt>
      <trkpt lat="47.52897" lon="6.70438">
        <ele>393.5</ele>
        <time>2014-06-01T09:25:01.000Z</time>
      </trkpt>
      <trkpt lat="47.52899" lon="6.70438">
        <ele>393.4</ele>
        <time>2014-06-01T09:25:02.000Z</time>
      </trkpt>
      <trkpt lat="47.52902" lon="6.70438">
        <ele>393.7</ele>
        <time>2014-06-01T09:25:03.000Z</time>
      </trkpt>
      <trkpt lat="47.52904" lon="6.70437">
        <ele>393.6</ele>
        <time>2014-06-01T09:25:04.000Z</time>
      </trkpt>
      <trkpt lat="47.52907" lon="6.70436">
        <ele>393.3</ele>
        <time>2014-06-01T09:25:05.000Z</time>
      </trkpt>
      <trkpt lat="47.5291" lon="6.70435">
        <ele>393</ele>
        <time>2014-06-01T09:25:06.000Z</time>
      </trkpt>
      <trkpt lat="47.52912" lon="6.70434">
        <ele>393</ele>
        <time>2014-06-01T09:25:07.000Z</time>
      </trkpt>
      <trkpt lat="47.52916" lon="6.70435">
        <ele>388.8</ele>
        <time>2014-06-01T09:25:08.000Z</time>
      </trkpt>
      <trkpt lat="47.52919" lon="6.70436">
        <ele>390</ele>
        <time>2014-06-01T09:25:09.000Z</time>
      </trkpt>
      <trkpt lat="47.52922" lon="6.70438">
        <ele>391.3</ele>
        <time>2014-06-01T09:25:10.000Z</time>
      </trkpt>
      <trkpt lat="47.52925" lon="6.70439">
        <ele>392</ele>
        <time>2014-06-01T09:25:11.000Z</time>
      </trkpt>
      <trkpt lat="47.52928" lon="6.7044">
        <ele>392.2</ele>
        <time>2014-06-01T09:25:12.000Z</time>
      </trkpt>
      <trkpt lat="47.5293" lon="6.7044">
        <ele>392.1</ele>
        <time>2014-06-01T09:25:13.000Z</time>
      </trkpt>
      <trkpt lat="47.52934" lon="6.70439">
        <ele>395.6</ele>
        <time>2014-06-01T09:25:15.000Z</time>
      </trkpt>
      <trkpt lat="47.52935" lon="6.70439">
        <ele>394.8</ele>
        <time>2014-06-01T09:25:16.000Z</time>
      </trkpt>
      <trkpt lat="47.52938" lon="6.7044">
        <ele>394.6</ele>
        <time>2014-06-01T09:25:18.000Z</time>
      </trkpt>
      <trkpt lat="47.52939" lon="6.7044">
        <ele>396.5</ele>
        <time>2014-06-01T09:25:19.000Z</time>
      </trkpt>
      <trkpt lat="47.52943" lon="6.70441">
        <ele>396.7</ele>
        <time>2014-06-01T09:25:21.000Z</time>
      </trkpt>
      <trkpt lat="47.52945" lon="6.70441">
        <ele>396.9</ele>
        <time>2014-06-01T09:25:22.000Z</time>
      </trkpt>
      <trkpt lat="47.52949" lon="6.70441">
        <ele>397.1</ele>
        <time>2014-06-01T09:25:24.000Z</time>
      </trkpt>
      <trkpt lat="47.52951" lon="6.7044">
        <ele>397.9</ele>
        <time>2014-06-01T09:25:25.000Z</time>
      </trkpt>
      <trkpt lat="47.52954" lon="6.70438">
        <ele>398.7</ele>
        <time>2014-06-01T09:25:27.000Z</time>
      </trkpt>
      <trkpt lat="47.52956" lon="6.70438">
        <ele>398.5</ele>
        <time>2014-06-01T09:25:28.000Z</time>
      </trkpt>
      <trkpt lat="47.52959" lon="6.70438">
        <ele>398.2</ele>
        <time>2014-06-01T09:25:30.000Z</time>
      </trkpt>
      <trkpt lat="47.52961" lon="6.70439">
        <ele>398</ele>
        <time>2014-06-01T09:25:31.000Z</time>
      </trkpt>
      <trkpt lat="47.52965" lon="6.7044">
        <ele>399.7</ele>
        <time>2014-06-01T09:25:34.000Z</time>
      </trkpt>
      <trkpt lat="47.52965" lon="6.7044">
        <ele>400.4</ele>
        <time>2014-06-01T09:25:35.000Z</time>
      </trkpt>
      <trkpt lat="47.52969" lon="6.70442">
        <ele>403.7</ele>
        <time>2014-06-01T09:25:39.000Z</time>
      </trkpt>
      <trkpt lat="47.5297" lon="6.70443">
        <ele>404.4</ele>
        <time>2014-06-01T09:25:40.000Z</time>
      </trkpt>
      <trkpt lat="47.52974" lon="6.70446">
        <ele>401.5</ele>
        <time>2014-06-01T09:25:43.000Z</time>
      </trkpt>
      <trkpt lat="47.52975" lon="6.70447">
        <ele>401.6</ele>
        <time>2014-06-01T09:25:44.000Z</time>
      </trkpt>
      <trkpt lat="47.52978" lon="6.70447">
        <ele>404.1</ele>
        <time>2014-06-01T09:25:47.038Z</time>
      </trkpt>
      <trkpt lat="47.5298" lon="6.70448">
        <ele>402.3</ele>
        <time>2014-06-01T09:25:48.000Z</time>
      </trkpt>
      <trkpt lat="47.52984" lon="6.7045">
        <ele>400.6</ele>
        <time>2014-06-01T09:25:50.000Z</time>
      </trkpt>
      <trkpt lat="47.52985" lon="6.70451">
        <ele>401.9</ele>
        <time>2014-06-01T09:25:51.000Z</time>
      </trkpt>
      <trkpt lat="47.52989" lon="6.70454">
        <ele>401.8</ele>
        <time>2014-06-01T09:25:55.000Z</time>
      </trkpt>
      <trkpt lat="47.5299" lon="6.70454">
        <ele>402.5</ele>
        <time>2014-06-01T09:25:56.000Z</time>
      </trkpt>
      <trkpt lat="47.52994" lon="6.70456">
        <ele>398.9</ele>
        <time>2014-06-01T09:26:01.000Z</time>
      </trkpt>
      <trkpt lat="47.52995" lon="6.70456">
        <ele>398.4</ele>
        <time>2014-06-01T09:26:02.000Z</time>
      </trkpt>
      <trkpt lat="47.52999" lon="6.70458">
        <ele>401.3</ele>
        <time>2014-06-01T09:26:05.000Z</time>
      </trkpt>
      <trkpt lat="47.53001" lon="6.70458">
        <ele>402.1</ele>
        <time>2014-06-01T09:26:06.000Z</time>
      </trkpt>
      <trkpt lat="47.53004" lon="6.70459">
        <ele>402.3</ele>
        <time>2014-06-01T09:26:08.000Z</time>
      </trkpt>
      <trkpt lat="47.53006" lon="6.7046">
        <ele>403.4</ele>
        <time>2014-06-01T09:26:09.000Z</time>
      </trkpt>
      <trkpt lat="47.5301" lon="6.70462">
        <ele>400.9</ele>
        <time>2014-06-01T09:26:11.000Z</time>
      </trkpt>
      <trkpt lat="47.53011" lon="6.70463">
        <ele>401.4</ele>
        <time>2014-06-01T09:26:12.000Z</time>
      </trkpt>
      <trkpt lat="47.53014" lon="6.70465">
        <ele>401</ele>
        <time>2014-06-01T09:26:14.000Z</time>
      </trkpt>
      <trkpt lat="47.53016" lon="6.70466">
        <ele>400.7</ele>
        <time>2014-06-01T09:26:15.000Z</time>
      </trkpt>
      <trkpt lat="47.53019" lon="6.70468">
        <ele>398.5</ele>
        <time>2014-06-01T09:26:17.000Z</time>
      </trkpt>
      <trkpt lat="47.53021" lon="6.70468">
        <ele>398.9</ele>
        <time>2014-06-01T09:26:18.000Z</time>
      </trkpt>
      <trkpt lat="47.53024" lon="6.70472">
        <ele>403.1</ele>
        <time>2014-06-01T09:26:21.000Z</time>
      </trkpt>
      <trkpt lat="47.53025" lon="6.70475">
        <ele>403.8</ele>
        <time>2014-06-01T09:26:22.000Z</time>
      </trkpt>
      <trkpt lat="47.53026" lon="6.70479">
        <ele>405</ele>
        <time>2014-06-01T09:26:24.000Z</time>
      </trkpt>
      <trkpt lat="47.53027" lon="6.70481">
        <ele>405.2</ele>
        <time>2014-06-01T09:26:25.000Z</time>
      </trkpt>
      <trkpt lat="47.5303" lon="6.70483">
        <ele>404.5</ele>
        <time>2014-06-01T09:26:28.000Z</time>
      </trkpt>
      <trkpt lat="47.53032" lon="6.70483">
        <ele>404.9</ele>
        <time>2014-06-01T09:26:29.000Z</time>
      </trkpt>
      <trkpt lat="47.53036" lon="6.70482">
        <ele>404.6</ele>
        <time>2014-06-01T09:26:32.000Z</time>
      </trkpt>
      <trkpt lat="47.53037" lon="6.70482">
        <ele>403.8</ele>
        <time>2014-06-01T09:26:33.000Z</time>
      </trkpt>
      <trkpt lat="47.53041" lon="6.70482">
        <ele>401.6</ele>
        <time>2014-06-01T09:26:36.000Z</time>
      </trkpt>
      <trkpt lat="47.53043" lon="6.70482">
        <ele>401.7</ele>
        <time>2014-06-01T09:26:37.000Z</time>
      </trkpt>
      <trkpt lat="47.53046" lon="6.70483">
        <ele>400.5</ele>
        <time>2014-06-01T09:26:41.000Z</time>
      </trkpt>
      <trkpt lat="47.53047" lon="6.70483">
        <ele>401.5</ele>
        <time>2014-06-01T09:26:42.000Z</time>
      </trkpt>
      <trkpt lat="47.5305" lon="6.70487">
        <ele>404.1</ele>
        <time>2014-06-01T09:26:49.000Z</time>
      </trkpt>
      <trkpt lat="47.53051" lon="6.70488">
        <ele>404.9</ele>
        <time>2014-06-01T09:26:50.000Z</time>
      </trkpt>
      <trkpt lat="47.53055" lon="6.70489">
        <ele>405.7</ele>
        <time>2014-06-01T09:26:54.000Z</time>
      </trkpt>
      <trkpt lat="47.53057" lon="6.70488">
        <ele>402.4</ele>
        <time>2014-06-01T09:26:55.000Z</time>
      </trkpt>
      <trkpt lat="47.53061" lon="6.70488">
        <ele>403.6</ele>
        <time>2014-06-01T09:26:58.000Z</time>
      </trkpt>
      <trkpt lat="47.5307" lon="6.70485">
        <ele>399.7</ele>
        <time>2014-06-01T09:27:06.000Z</time>
      </trkpt>
      <trkpt lat="47.53074" lon="6.70482">
        <ele>403.2</ele>
        <time>2014-06-01T09:27:09.000Z</time>
      </trkpt>
      <trkpt lat="47.53075" lon="6.70482">
        <ele>402.4</ele>
        <time>2014-06-01T09:27:10.000Z</time>
      </trkpt>
      <trkpt lat="47.53079" lon="6.70481">
        <ele>401.9</ele>
        <time>2014-06-01T09:27:12.000Z</time>
      </trkpt>
      <trkpt lat="47.5308" lon="6.7048">
        <ele>401.8</ele>
        <time>2014-06-01T09:27:13.000Z</time>
      </trkpt>
      <trkpt lat="47.53084" lon="6.70481">
        <ele>401.7</ele>
        <time>2014-06-01T09:27:19.000Z</time>
      </trkpt>
      <trkpt lat="47.53085" lon="6.70479">
        <ele>402.7</ele>
        <time>2014-06-01T09:27:20.000Z</time>
      </trkpt>
      <trkpt lat="47.53087" lon="6.70475">
        <ele>402.6</ele>
        <time>2014-06-01T09:27:23.000Z</time>
      </trkpt>
      <trkpt lat="47.53088" lon="6.70474">
        <ele>404</ele>
        <time>2014-06-01T09:27:24.000Z</time>
      </trkpt>
      <trkpt lat="47.53091" lon="6.70472">
        <ele>403.7</ele>
        <time>2014-06-01T09:27:28.000Z</time>
      </trkpt>
      <trkpt lat="47.53092" lon="6.70471">
        <ele>403.9</ele>
        <time>2014-06-01T09:27:29.000Z</time>
      </trkpt>
      <trkpt lat="47.53096" lon="6.70469">
        <ele>404.4</ele>
        <time>2014-06-01T09:27:32.000Z</time>
      </trkpt>
      <trkpt lat="47.53097" lon="6.70469">
        <ele>405.1</ele>
        <time>2014-06-01T09:27:33.000Z</time>
      </trkpt>
      <trkpt lat="47.531" lon="6.70468">
        <ele>405.9</ele>
        <time>2014-06-01T09:27:37.000Z</time>
      </trkpt>
      <trkpt lat="47.53101" lon="6.70467">
        <ele>407.1</ele>
        <time>2014-06-01T09:27:38.000Z</time>
      </trkpt>
      <trkpt lat="47.53105" lon="6.70464">
        <ele>409.6</ele>
        <time>2014-06-01T09:27:42.000Z</time>
      </trkpt>
      <trkpt lat="47.53106" lon="6.70464">
        <ele>409.6</ele>
        <time>2014-06-01T09:27:43.000Z</time>
      </trkpt>
      <trkpt lat="47.5311" lon="6.70461">
        <ele>409.5</ele>
        <time>2014-06-01T09:27:45.000Z</time>
      </trkpt>
      <trkpt lat="47.53111" lon="6.7046">
        <ele>409.8</ele>
        <time>2014-06-01T09:27:46.000Z</time>
      </trkpt>
      <trkpt lat="47.53114" lon="6.70457">
        <ele>411.2</ele>
        <time>2014-06-01T09:27:49.000Z</time>
      </trkpt>
      <trkpt lat="47.53115" lon="6.70456">
        <ele>412</ele>
        <time>2014-06-01T09:27:50.000Z</time>
      </trkpt>
      <trkpt lat="47.53118" lon="6.70454">
        <ele>411.8</ele>
        <time>2014-06-01T09:27:52.000Z</time>
      </trkpt>
      <trkpt lat="47.53121" lon="6.7045">
        <ele>413.1</ele>
        <time>2014-06-01T09:27:53.000Z</time>
      </trkpt>
      <trkpt lat="47.53124" lon="6.7045">
        <ele>413.9</ele>
        <time>2014-06-01T09:27:56.000Z</time>
      </trkpt>
      <trkpt lat="47.53126" lon="6.7045">
        <ele>413.1</ele>
        <time>2014-06-01T09:27:57.000Z</time>
      </trkpt>
      <trkpt lat="47.53127" lon="6.70448">
        <ele>414.6</ele>
        <time>2014-06-01T09:27:58.000Z</time>
      </trkpt>
      <trkpt lat="47.5313" lon="6.70443">
        <ele>413.9</ele>
        <time>2014-06-01T09:28:01.000Z</time>
      </trkpt>
      <trkpt lat="47.53132" lon="6.70441">
        <ele>414.7</ele>
        <time>2014-06-01T09:28:02.000Z</time>
      </trkpt>
      <trkpt lat="47.53135" lon="6.70439">
        <ele>414.7</ele>
        <time>2014-06-01T09:28:03.000Z</time>
      </trkpt>
      <trkpt lat="47.53137" lon="6.70437">
        <ele>415.8</ele>
        <time>2014-06-01T09:28:04.000Z</time>
      </trkpt>
      <trkpt lat="47.5314" lon="6.70435">
        <ele>416.5</ele>
        <time>2014-06-01T09:28:05.000Z</time>
      </trkpt>
      <trkpt lat="47.53142" lon="6.70433">
        <ele>416.3</ele>
        <time>2014-06-01T09:28:06.000Z</time>
      </trkpt>
      <trkpt lat="47.53145" lon="6.70431">
        <ele>416</ele>
        <time>2014-06-01T09:28:07.000Z</time>
      </trkpt>
      <trkpt lat="47.53147" lon="6.70429">
        <ele>414.8</ele>
        <time>2014-06-01T09:28:08.000Z</time>
      </trkpt>
      <trkpt lat="47.53149" lon="6.70427">
        <ele>416.7</ele>
        <time>2014-06-01T09:28:09.000Z</time>
      </trkpt>
      <trkpt lat="47.53151" lon="6.70426">
        <ele>416.5</ele>
        <time>2014-06-01T09:28:10.000Z</time>
      </trkpt>
      <trkpt lat="47.53154" lon="6.70424">
        <ele>416.3</ele>
        <time>2014-06-01T09:28:11.000Z</time>
      </trkpt>
      <trkpt lat="47.53156" lon="6.70422">
        <ele>419.9</ele>
        <time>2014-06-01T09:28:12.000Z</time>
      </trkpt>
      <trkpt lat="47.53157" lon="6.70419">
        <ele>421.3</ele>
        <time>2014-06-01T09:28:13.000Z</time>
      </trkpt>
      <trkpt lat="47.5316" lon="6.70416">
        <ele>420.1</ele>
        <time>2014-06-01T09:28:15.000Z</time>
      </trkpt>
      <trkpt lat="47.53162" lon="6.70414">
        <ele>420.6</ele>
        <time>2014-06-01T09:28:16.000Z</time>
      </trkpt>
      <trkpt lat="47.53166" lon="6.70412">
        <ele>421.3</ele>
        <time>2014-06-01T09:28:18.000Z</time>
      </trkpt>
      <trkpt lat="47.53168" lon="6.70411">
        <ele>421.5</ele>
        <time>2014-06-01T09:28:19.000Z</time>
      </trkpt>
      <trkpt lat="47.5317" lon="6.7041">
        <ele>421</ele>
        <time>2014-06-01T09:28:20.000Z</time>
      </trkpt>
      <trkpt lat="47.53173" lon="6.70409">
        <ele>419.5</ele>
        <time>2014-06-01T09:28:21.000Z</time>
      </trkpt>
      <trkpt lat="47.53175" lon="6.70407">
        <ele>420</ele>
        <time>2014-06-01T09:28:22.000Z</time>
      </trkpt>
      <trkpt lat="47.53178" lon="6.70406">
        <ele>419.3</ele>
        <time>2014-06-01T09:28:23.000Z</time>
      </trkpt>
      <trkpt lat="47.5318" lon="6.70405">
        <ele>418.9</ele>
        <time>2014-06-01T09:28:24.000Z</time>
      </trkpt>
      <trkpt lat="47.53182" lon="6.70404">
        <ele>418.5</ele>
        <time>2014-06-01T09:28:25.000Z</time>
      </trkpt>
      <trkpt lat="47.53186" lon="6.70404">
        <ele>420.1</ele>
        <time>2014-06-01T09:28:28.000Z</time>
      </trkpt>
      <trkpt lat="47.53187" lon="6.70404">
        <ele>416.3</ele>
        <time>2014-06-01T09:28:29.000Z</time>
      </trkpt>
      <trkpt lat="47.53191" lon="6.70403">
        <ele>415.3</ele>
        <time>2014-06-01T09:28:31.000Z</time>
      </trkpt>
      <trkpt lat="47.53193" lon="6.70401">
        <ele>414.1</ele>
        <time>2014-06-01T09:28:32.000Z</time>
      </trkpt>
      <trkpt lat="47.53196" lon="6.704">
        <ele>415.6</ele>
        <time>2014-06-01T09:28:33.000Z</time>
      </trkpt>
      <trkpt lat="47.53198" lon="6.70398">
        <ele>415.6</ele>
        <time>2014-06-01T09:28:34.000Z</time>
      </trkpt>
      <trkpt lat="47.532" lon="6.70397">
        <ele>415.1</ele>
        <time>2014-06-01T09:28:35.000Z</time>
      </trkpt>
      <trkpt lat="47.53202" lon="6.70396">
        <ele>415.4</ele>
        <time>2014-06-01T09:28:36.000Z</time>
      </trkpt>
      <trkpt lat="47.53205" lon="6.70394">
        <ele>414.8</ele>
        <time>2014-06-01T09:28:37.000Z</time>
      </trkpt>
      <trkpt lat="47.53208" lon="6.70393">
        <ele>414.7</ele>
        <time>2014-06-01T09:28:38.000Z</time>
      </trkpt>
      <trkpt lat="47.53211" lon="6.70391">
        <ele>414.8</ele>
        <time>2014-06-01T09:28:39.000Z</time>
      </trkpt>
      <trkpt lat="47.53213" lon="6.7039">
        <ele>414.3</ele>
        <time>2014-06-01T09:28:40.000Z</time>
      </trkpt>
      <trkpt lat="47.53217" lon="6.70387">
        <ele>414</ele>
        <time>2014-06-01T09:28:42.000Z</time>
      </trkpt>
      <trkpt lat="47.53219" lon="6.70386">
        <ele>414.1</ele>
        <time>2014-06-01T09:28:43.000Z</time>
      </trkpt>
      <trkpt lat="47.53222" lon="6.70384">
        <ele>414.5</ele>
        <time>2014-06-01T09:28:45.000Z</time>
      </trkpt>
      <trkpt lat="47.53224" lon="6.70384">
        <ele>414.6</ele>
        <time>2014-06-01T09:28:46.000Z</time>
      </trkpt>
      <trkpt lat="47.53227" lon="6.70384">
        <ele>413.7</ele>
        <time>2014-06-01T09:28:47.000Z</time>
      </trkpt>
      <trkpt lat="47.53229" lon="6.70384">
        <ele>413.8</ele>
        <time>2014-06-01T09:28:48.000Z</time>
      </trkpt>
      <trkpt lat="47.53233" lon="6.70386">
        <ele>415.6</ele>
        <time>2014-06-01T09:28:50.000Z</time>
      </trkpt>
      <trkpt lat="47.53234" lon="6.70388">
        <ele>418.2</ele>
        <time>2014-06-01T09:28:51.000Z</time>
      </trkpt>
      <trkpt lat="47.53235" lon="6.70392">
        <ele>421.1</ele>
        <time>2014-06-01T09:28:53.000Z</time>
      </trkpt>
      <trkpt lat="47.53236" lon="6.70394">
        <ele>421</ele>
        <time>2014-06-01T09:28:54.000Z</time>
      </trkpt>
      <trkpt lat="47.53237" lon="6.70398">
        <ele>423.7</ele>
        <time>2014-06-01T09:28:56.000Z</time>
      </trkpt>
      <trkpt lat="47.53239" lon="6.70399">
        <ele>425.1</ele>
        <time>2014-06-01T09:28:57.000Z</time>
      </trkpt>
      <trkpt lat="47.5324" lon="6.704">
        <ele>425.4</ele>
        <time>2014-06-01T09:28:58.000Z</time>
      </trkpt>
      <trkpt lat="47.53253" lon="6.70402">
        <ele>425.7</ele>
        <time>2014-06-01T09:29:06.000Z</time>
      </trkpt>
      <trkpt lat="47.53256" lon="6.70404">
        <ele>423.8</ele>
        <time>2014-06-01T09:29:08.000Z</time>
      </trkpt>
      <trkpt lat="47.53257" lon="6.70405">
        <ele>424.1</ele>
        <time>2014-06-01T09:29:09.000Z</time>
      </trkpt>
      <trkpt lat="47.53261" lon="6.70409">
        <ele>425.7</ele>
        <time>2014-06-01T09:29:12.000Z</time>
      </trkpt>
      <trkpt lat="47.53262" lon="6.7041">
        <ele>426.1</ele>
        <time>2014-06-01T09:29:13.000Z</time>
      </trkpt>
      <trkpt lat="47.53264" lon="6.70412">
        <ele>425.4</ele>
        <time>2014-06-01T09:29:14.000Z</time>
      </trkpt>
      <trkpt lat="47.53266" lon="6.70415">
        <ele>424.4</ele>
        <time>2014-06-01T09:29:15.000Z</time>
      </trkpt>
      <trkpt lat="47.53268" lon="6.70418">
        <ele>424</ele>
        <time>2014-06-01T09:29:16.000Z</time>
      </trkpt>
      <trkpt lat="47.5327" lon="6.7042">
        <ele>425.4</ele>
        <time>2014-06-01T09:29:17.000Z</time>
      </trkpt>
      <trkpt lat="47.53273" lon="6.70423">
        <ele>427.9</ele>
        <time>2014-06-01T09:29:19.000Z</time>
      </trkpt>
      <trkpt lat="47.53275" lon="6.70425">
        <ele>430.2</ele>
        <time>2014-06-01T09:29:20.000Z</time>
      </trkpt>
      <trkpt lat="47.53277" lon="6.70429">
        <ele>434.1</ele>
        <time>2014-06-01T09:29:22.000Z</time>
      </trkpt>
      <trkpt lat="47.53278" lon="6.7043">
        <ele>434.1</ele>
        <time>2014-06-01T09:29:23.000Z</time>
      </trkpt>
      <trkpt lat="47.53281" lon="6.70433">
        <ele>434.6</ele>
        <time>2014-06-01T09:29:25.000Z</time>
      </trkpt>
      <trkpt lat="47.53282" lon="6.70433">
        <ele>435.1</ele>
        <time>2014-06-01T09:29:26.000Z</time>
      </trkpt>
      <trkpt lat="47.53285" lon="6.70436">
        <ele>436.4</ele>
        <time>2014-06-01T09:29:28.000Z</time>
      </trkpt>
      <trkpt lat="47.53287" lon="6.70437">
        <ele>437.9</ele>
        <time>2014-06-01T09:29:29.000Z</time>
      </trkpt>
      <trkpt lat="47.53288" lon="6.7044">
        <ele>439.1</ele>
        <time>2014-06-01T09:29:30.000Z</time>
      </trkpt>
      <trkpt lat="47.5329" lon="6.70442">
        <ele>440.1</ele>
        <time>2014-06-01T09:29:31.000Z</time>
      </trkpt>
      <trkpt lat="47.53291" lon="6.70445">
        <ele>440.8</ele>
        <time>2014-06-01T09:29:32.000Z</time>
      </trkpt>
      <trkpt lat="47.53293" lon="6.70449">
        <ele>441.5</ele>
        <time>2014-06-01T09:29:33.000Z</time>
      </trkpt>
      <trkpt lat="47.53295" lon="6.70453">
        <ele>441.4</ele>
        <time>2014-06-01T09:29:34.000Z</time>
      </trkpt>
      <trkpt lat="47.53297" lon="6.70457">
        <ele>441.3</ele>
        <time>2014-06-01T09:29:35.000Z</time>
      </trkpt>
      <trkpt lat="47.53299" lon="6.70459">
        <ele>440.3</ele>
        <time>2014-06-01T09:29:36.000Z</time>
      </trkpt>
      <trkpt lat="47.53301" lon="6.7046">
        <ele>444.8</ele>
        <time>2014-06-01T09:29:37.000Z</time>
      </trkpt>
      <trkpt lat="47.53304" lon="6.70463">
        <ele>446.9</ele>
        <time>2014-06-01T09:29:40.000Z</time>
      </trkpt>
      <trkpt lat="47.53305" lon="6.70465">
        <ele>449.8</ele>
        <time>2014-06-01T09:29:41.000Z</time>
      </trkpt>
      <trkpt lat="47.53307" lon="6.70467">
        <ele>449.7</ele>
        <time>2014-06-01T09:29:42.000Z</time>
      </trkpt>
      <trkpt lat="47.53309" lon="6.70469">
        <ele>450</ele>
        <time>2014-06-01T09:29:43.000Z</time>
      </trkpt>
      <trkpt lat="47.53311" lon="6.70472">
        <ele>450.1</ele>
        <time>2014-06-01T09:29:44.000Z</time>
      </trkpt>
      <trkpt lat="47.53313" lon="6.70475">
        <ele>449.8</ele>
        <time>2014-06-01T09:29:45.000Z</time>
      </trkpt>
      <trkpt lat="47.53316" lon="6.70478">
        <ele>449.5</ele>
        <time>2014-06-01T09:29:46.000Z</time>
      </trkpt>
      <trkpt lat="47.53318" lon="6.7048">
        <ele>449.4</ele>
        <time>2014-06-01T09:29:47.000Z</time>
      </trkpt>
      <trkpt lat="47.53322" lon="6.70482">
        <ele>451.2</ele>
        <time>2014-06-01T09:29:49.000Z</time>
      </trkpt>
      <trkpt lat="47.53323" lon="6.70483">
        <ele>451.7</ele>
        <time>2014-06-01T09:29:50.000Z</time>
      </trkpt>
      <trkpt lat="47.53327" lon="6.70484">
        <ele>454.3</ele>
        <time>2014-06-01T09:29:54.000Z</time>
      </trkpt>
      <trkpt lat="47.53328" lon="6.70484">
        <ele>455.3</ele>
        <time>2014-06-01T09:29:55.000Z</time>
      </trkpt>
      <trkpt lat="47.5333" lon="6.70485">
        <ele>453.6</ele>
        <time>2014-06-01T09:29:58.000Z</time>
      </trkpt>
      <trkpt lat="47.53338" lon="6.70495">
        <ele>449</ele>
        <time>2014-06-01T09:30:06.000Z</time>
      </trkpt>
      <trkpt lat="47.53341" lon="6.70497">
        <ele>448.2</ele>
        <time>2014-06-01T09:30:08.000Z</time>
      </trkpt>
      <trkpt lat="47.53344" lon="6.705">
        <ele>448.1</ele>
        <time>2014-06-01T09:30:09.000Z</time>
      </trkpt>
      <trkpt lat="47.53352" lon="6.7051">
        <ele>445.4</ele>
        <time>2014-06-01T09:30:10.000Z</time>
      </trkpt>
      <trkpt lat="47.53356" lon="6.70515">
        <ele>444.8</ele>
        <time>2014-06-01T09:30:11.000Z</time>
      </trkpt>
      <trkpt lat="47.53361" lon="6.70519">
        <ele>444.5</ele>
        <time>2014-06-01T09:30:12.000Z</time>
      </trkpt>
      <trkpt lat="47.53366" lon="6.70523">
        <ele>443.7</ele>
        <time>2014-06-01T09:30:13.000Z</time>
      </trkpt>
      <trkpt lat="47.53369" lon="6.70526">
        <ele>443.7</ele>
        <time>2014-06-01T09:30:14.000Z</time>
      </trkpt>
      <trkpt lat="47.53372" lon="6.7053">
        <ele>444.3</ele>
        <time>2014-06-01T09:30:15.000Z</time>
      </trkpt>
      <trkpt lat="47.53376" lon="6.70531">
        <ele>445.1</ele>
        <time>2014-06-01T09:30:16.000Z</time>
      </trkpt>
      <trkpt lat="47.53383" lon="6.70538">
        <ele>445.5</ele>
        <time>2014-06-01T09:30:17.000Z</time>
      </trkpt>
      <trkpt lat="47.53388" lon="6.70541">
        <ele>444.9</ele>
        <time>2014-06-01T09:30:18.000Z</time>
      </trkpt>
      <trkpt lat="47.53392" lon="6.70543">
        <ele>445.9</ele>
        <time>2014-06-01T09:30:19.000Z</time>
      </trkpt>
      <trkpt lat="47.53396" lon="6.70545">
        <ele>446.4</ele>
        <time>2014-06-01T09:30:20.000Z</time>
      </trkpt>
      <trkpt lat="47.53401" lon="6.70548">
        <ele>447.2</ele>
        <time>2014-06-01T09:30:21.000Z</time>
      </trkpt>
      <trkpt lat="47.53406" lon="6.70552">
        <ele>447.2</ele>
        <time>2014-06-01T09:30:22.000Z</time>
      </trkpt>
      <trkpt lat="47.53416" lon="6.70562">
        <ele>446</ele>
        <time>2014-06-01T09:30:23.000Z</time>
      </trkpt>
      <trkpt lat="47.53425" lon="6.70567">
        <ele>445.4</ele>
        <time>2014-06-01T09:30:24.000Z</time>
      </trkpt>
      <trkpt lat="47.53435" lon="6.70573">
        <ele>443.6</ele>
        <time>2014-06-01T09:30:25.000Z</time>
      </trkpt>
      <trkpt lat="47.53436" lon="6.70575">
        <ele>445</ele>
        <time>2014-06-01T09:30:26.000Z</time>
      </trkpt>
      <trkpt lat="47.5344" lon="6.70578">
        <ele>445.2</ele>
        <time>2014-06-01T09:30:27.000Z</time>
      </trkpt>
      <trkpt lat="47.53443" lon="6.7058">
        <ele>445.3</ele>
        <time>2014-06-01T09:30:28.000Z</time>
      </trkpt>
      <trkpt lat="47.53443" lon="6.70584">
        <ele>446.8</ele>
        <time>2014-06-01T09:30:29.000Z</time>
      </trkpt>
      <trkpt lat="47.53446" lon="6.7059">
        <ele>448.1</ele>
        <time>2014-06-01T09:30:31.000Z</time>
      </trkpt>
      <trkpt lat="47.53448" lon="6.70592">
        <ele>446.7</ele>
        <time>2014-06-01T09:30:32.000Z</time>
      </trkpt>
      <trkpt lat="47.5345" lon="6.70596">
        <ele>445.9</ele>
        <time>2014-06-01T09:30:33.000Z</time>
      </trkpt>
      <trkpt lat="47.53451" lon="6.70598">
        <ele>445.9</ele>
        <time>2014-06-01T09:30:34.000Z</time>
      </trkpt>
      <trkpt lat="47.53454" lon="6.70603">
        <ele>441.8</ele>
        <time>2014-06-01T09:30:37.000Z</time>
      </trkpt>
      <trkpt lat="47.53455" lon="6.70603">
        <ele>441.2</ele>
        <time>2014-06-01T09:30:38.000Z</time>
      </trkpt>
      <trkpt lat="47.53459" lon="6.70603">
        <ele>441.8</ele>
        <time>2014-06-01T09:30:42.000Z</time>
      </trkpt>
      <trkpt lat="47.5346" lon="6.70603">
        <ele>443.1</ele>
        <time>2014-06-01T09:30:43.000Z</time>
      </trkpt>
      <trkpt lat="47.53463" lon="6.70604">
        <ele>445.8</ele>
        <time>2014-06-01T09:30:45.000Z</time>
      </trkpt>
      <trkpt lat="47.53466" lon="6.70605">
        <ele>445.9</ele>
        <time>2014-06-01T09:30:46.000Z</time>
      </trkpt>
      <trkpt lat="47.53469" lon="6.70607">
        <ele>446.5</ele>
        <time>2014-06-01T09:30:47.000Z</time>
      </trkpt>
      <trkpt lat="47.53472" lon="6.70608">
        <ele>447.2</ele>
        <time>2014-06-01T09:30:48.000Z</time>
      </trkpt>
      <trkpt lat="47.53475" lon="6.70609">
        <ele>447.5</ele>
        <time>2014-06-01T09:30:49.000Z</time>
      </trkpt>
      <trkpt lat="47.53478" lon="6.7061">
        <ele>448.6</ele>
        <time>2014-06-01T09:30:50.000Z</time>
      </trkpt>
      <trkpt lat="47.53482" lon="6.70611">
        <ele>448.6</ele>
        <time>2014-06-01T09:30:51.000Z</time>
      </trkpt>
      <trkpt lat="47.53486" lon="6.70612">
        <ele>449.1</ele>
        <time>2014-06-01T09:30:52.000Z</time>
      </trkpt>
      <trkpt lat="47.53491" lon="6.70613">
        <ele>449.1</ele>
        <time>2014-06-01T09:30:53.000Z</time>
      </trkpt>
      <trkpt lat="47.53496" lon="6.70616">
        <ele>449</ele>
        <time>2014-06-01T09:30:54.000Z</time>
      </trkpt>
      <trkpt lat="47.53501" lon="6.70618">
        <ele>448.2</ele>
        <time>2014-06-01T09:30:55.000Z</time>
      </trkpt>
      <trkpt lat="47.53506" lon="6.70621">
        <ele>447.8</ele>
        <time>2014-06-01T09:30:56.000Z</time>
      </trkpt>
      <trkpt lat="47.53511" lon="6.70623">
        <ele>447</ele>
        <time>2014-06-01T09:30:57.000Z</time>
      </trkpt>
      <trkpt lat="47.53516" lon="6.70626">
        <ele>446.7</ele>
        <time>2014-06-01T09:30:58.000Z</time>
      </trkpt>
      <trkpt lat="47.5356" lon="6.70647">
        <ele>448.6</ele>
        <time>2014-06-01T09:31:06.000Z</time>
      </trkpt>
      <trkpt lat="47.53565" lon="6.70651">
        <ele>444.8</ele>
        <time>2014-06-01T09:31:07.000Z</time>
      </trkpt>
      <trkpt lat="47.53568" lon="6.70656">
        <ele>441.7</ele>
        <time>2014-06-01T09:31:08.000Z</time>
      </trkpt>
      <trkpt lat="47.53571" lon="6.70661">
        <ele>439.9</ele>
        <time>2014-06-01T09:31:09.000Z</time>
      </trkpt>
      <trkpt lat="47.53574" lon="6.70666">
        <ele>438.4</ele>
        <time>2014-06-01T09:31:10.000Z</time>
      </trkpt>
      <trkpt lat="47.53576" lon="6.70669">
        <ele>437.8</ele>
        <time>2014-06-01T09:31:11.000Z</time>
      </trkpt>
      <trkpt lat="47.53578" lon="6.70673">
        <ele>436.7</ele>
        <time>2014-06-01T09:31:12.000Z</time>
      </trkpt>
      <trkpt lat="47.5358" lon="6.70675">
        <ele>435.9</ele>
        <time>2014-06-01T09:31:13.000Z</time>
      </trkpt>
      <trkpt lat="47.53582" lon="6.70679">
        <ele>435.2</ele>
        <time>2014-06-01T09:31:15.000Z</time>
      </trkpt>
      <trkpt lat="47.53583" lon="6.70682">
        <ele>432.8</ele>
        <time>2014-06-01T09:31:16.000Z</time>
      </trkpt>
      <trkpt lat="47.53586" lon="6.70687">
        <ele>436.7</ele>
        <time>2014-06-01T09:31:19.000Z</time>
      </trkpt>
      <trkpt lat="47.53587" lon="6.70688">
        <ele>438</ele>
        <time>2014-06-01T09:31:20.000Z</time>
      </trkpt>
      <trkpt lat="47.53591" lon="6.70692">
        <ele>439.1</ele>
        <time>2014-06-01T09:31:22.000Z</time>
      </trkpt>
      <trkpt lat="47.53593" lon="6.70694">
        <ele>438.8</ele>
        <time>2014-06-01T09:31:23.000Z</time>
      </trkpt>
      <trkpt lat="47.53597" lon="6.70697">
        <ele>438.4</ele>
        <time>2014-06-01T09:31:24.000Z</time>
      </trkpt>
      <trkpt lat="47.53601" lon="6.707">
        <ele>438.8</ele>
        <time>2014-06-01T09:31:25.000Z</time>
      </trkpt>
      <trkpt lat="47.53618" lon="6.70716">
        <ele>437.2</ele>
        <time>2014-06-01T09:31:26.000Z</time>
      </trkpt>
      <trkpt lat="47.53625" lon="6.70724">
        <ele>437.2</ele>
        <time>2014-06-01T09:31:27.000Z</time>
      </trkpt>
      <trkpt lat="47.5363" lon="6.70729">
        <ele>436.8</ele>
        <time>2014-06-01T09:31:28.000Z</time>
      </trkpt>
      <trkpt lat="47.53635" lon="6.70737">
        <ele>436</ele>
        <time>2014-06-01T09:31:29.000Z</time>
      </trkpt>
      <trkpt lat="47.5364" lon="6.70744">
        <ele>435.5</ele>
        <time>2014-06-01T09:31:30.000Z</time>
      </trkpt>
      <trkpt lat="47.53643" lon="6.70749">
        <ele>435.1</ele>
        <time>2014-06-01T09:31:31.000Z</time>
      </trkpt>
      <trkpt lat="47.53648" lon="6.70752">
        <ele>435.2</ele>
        <time>2014-06-01T09:31:32.000Z</time>
      </trkpt>
      <trkpt lat="47.53653" lon="6.70754">
        <ele>435.7</ele>
        <time>2014-06-01T09:31:33.000Z</time>
      </trkpt>
      <trkpt lat="47.53655" lon="6.70756">
        <ele>437.5</ele>
        <time>2014-06-01T09:31:35.000Z</time>
      </trkpt>
      <trkpt lat="47.53659" lon="6.70763">
        <ele>434.8</ele>
        <time>2014-06-01T09:31:36.000Z</time>
      </trkpt>
      <trkpt lat="47.53661" lon="6.70768">
        <ele>433.6</ele>
        <time>2014-06-01T09:31:37.000Z</time>
      </trkpt>
      <trkpt lat="47.53664" lon="6.70772">
        <ele>433</ele>
        <time>2014-06-01T09:31:38.000Z</time>
      </trkpt>
      <trkpt lat="47.53667" lon="6.70776">
        <ele>431.9</ele>
        <time>2014-06-01T09:31:39.000Z</time>
      </trkpt>
      <trkpt lat="47.53669" lon="6.70777">
        <ele>433.3</ele>
        <time>2014-06-01T09:31:40.000Z</time>
      </trkpt>
      <trkpt lat="47.53672" lon="6.70778">
        <ele>433</ele>
        <time>2014-06-01T09:31:41.000Z</time>
      </trkpt>
      <trkpt lat="47.53675" lon="6.70779">
        <ele>433</ele>
        <time>2014-06-01T09:31:42.000Z</time>
      </trkpt>
      <trkpt lat="47.53677" lon="6.7078">
        <ele>432</ele>
        <time>2014-06-01T09:31:43.000Z</time>
      </trkpt>
      <trkpt lat="47.53679" lon="6.70782">
        <ele>431.6</ele>
        <time>2014-06-01T09:31:44.000Z</time>
      </trkpt>
      <trkpt lat="47.53683" lon="6.70784">
        <ele>437.1</ele>
        <time>2014-06-01T09:31:46.000Z</time>
      </trkpt>
      <trkpt lat="47.53685" lon="6.70784">
        <ele>437.7</ele>
        <time>2014-06-01T09:31:47.000Z</time>
      </trkpt>
      <trkpt lat="47.53688" lon="6.70784">
        <ele>437.3</ele>
        <time>2014-06-01T09:31:48.000Z</time>
      </trkpt>
      <trkpt lat="47.53691" lon="6.70783">
        <ele>435.6</ele>
        <time>2014-06-01T09:31:49.000Z</time>
      </trkpt>
      <trkpt lat="47.53694" lon="6.70783">
        <ele>432.7</ele>
        <time>2014-06-01T09:31:50.000Z</time>
      </trkpt>
      <trkpt lat="47.53698" lon="6.70784">
        <ele>431.3</ele>
        <time>2014-06-01T09:31:51.000Z</time>
      </trkpt>
      <trkpt lat="47.53701" lon="6.70787">
        <ele>430.6</ele>
        <time>2014-06-01T09:31:52.000Z</time>
      </trkpt>
      <trkpt lat="47.53703" lon="6.7079">
        <ele>430.5</ele>
        <time>2014-06-01T09:31:53.000Z</time>
      </trkpt>
      <trkpt lat="47.53705" lon="6.70794">
        <ele>430.4</ele>
        <time>2014-06-01T09:31:54.000Z</time>
      </trkpt>
      <trkpt lat="47.53707" lon="6.70798">
        <ele>430.4</ele>
        <time>2014-06-01T09:31:55.000Z</time>
      </trkpt>
      <trkpt lat="47.5371" lon="6.708">
        <ele>424.1</ele>
        <time>2014-06-01T09:31:56.000Z</time>
      </trkpt>
      <trkpt lat="47.53713" lon="6.70801">
        <ele>422.6</ele>
        <time>2014-06-01T09:31:57.000Z</time>
      </trkpt>
      <trkpt lat="47.53716" lon="6.70802">
        <ele>426.2</ele>
        <time>2014-06-01T09:31:58.000Z</time>
      </trkpt>
      <trkpt lat="47.53723" lon="6.70805">
        <ele>423</ele>
        <time>2014-06-01T09:32:01.000Z</time>
      </trkpt>
      <trkpt lat="47.53725" lon="6.70807">
        <ele>423.7</ele>
        <time>2014-06-01T09:32:02.000Z</time>
      </trkpt>
      <trkpt lat="47.53727" lon="6.7081">
        <ele>425.3</ele>
        <time>2014-06-01T09:32:03.000Z</time>
      </trkpt>
      <trkpt lat="47.5373" lon="6.70813">
        <ele>424.9</ele>
        <time>2014-06-01T09:32:04.000Z</time>
      </trkpt>
      <trkpt lat="47.53732" lon="6.70816">
        <ele>425.3</ele>
        <time>2014-06-01T09:32:05.000Z</time>
      </trkpt>
      <trkpt lat="47.53733" lon="6.70819">
        <ele>425.7</ele>
        <time>2014-06-01T09:32:06.000Z</time>
      </trkpt>
      <trkpt lat="47.53735" lon="6.70821">
        <ele>429.2</ele>
        <time>2014-06-01T09:32:07.000Z</time>
      </trkpt>
      <trkpt lat="47.53736" lon="6.70824">
        <ele>431.2</ele>
        <time>2014-06-01T09:32:08.000Z</time>
      </trkpt>
      <trkpt lat="47.53738" lon="6.70826">
        <ele>431.9</ele>
        <time>2014-06-01T09:32:09.000Z</time>
      </trkpt>
      <trkpt lat="47.5374" lon="6.70828">
        <ele>432.6</ele>
        <time>2014-06-01T09:32:10.000Z</time>
      </trkpt>
      <trkpt lat="47.53743" lon="6.70829">
        <ele>432.7</ele>
        <time>2014-06-01T09:32:11.000Z</time>
      </trkpt>
      <trkpt lat="47.53745" lon="6.70831">
        <ele>430.9</ele>
        <time>2014-06-01T09:32:12.000Z</time>
      </trkpt>
      <trkpt lat="47.53748" lon="6.70832">
        <ele>430.9</ele>
        <time>2014-06-01T09:32:13.000Z</time>
      </trkpt>
      <trkpt lat="47.53751" lon="6.70833">
        <ele>429.8</ele>
        <time>2014-06-01T09:32:14.000Z</time>
      </trkpt>
      <trkpt lat="47.53754" lon="6.70835">
        <ele>431.6</ele>
        <time>2014-06-01T09:32:15.000Z</time>
      </trkpt>
      <trkpt lat="47.53756" lon="6.70837">
        <ele>431.8</ele>
        <time>2014-06-01T09:32:16.000Z</time>
      </trkpt>
      <trkpt lat="47.53758" lon="6.70839">
        <ele>432.2</ele>
        <time>2014-06-01T09:32:17.000Z</time>
      </trkpt>
      <trkpt lat="47.5376" lon="6.7084">
        <ele>432</ele>
        <time>2014-06-01T09:32:18.000Z</time>
      </trkpt>
      <trkpt lat="47.53762" lon="6.70842">
        <ele>431</ele>
        <time>2014-06-01T09:32:19.000Z</time>
      </trkpt>
      <trkpt lat="47.53765" lon="6.70844">
        <ele>431</ele>
        <time>2014-06-01T09:32:20.000Z</time>
      </trkpt>
      <trkpt lat="47.53768" lon="6.70847">
        <ele>429.4</ele>
        <time>2014-06-01T09:32:21.000Z</time>
      </trkpt>
      <trkpt lat="47.5377" lon="6.7085">
        <ele>429</ele>
        <time>2014-06-01T09:32:22.000Z</time>
      </trkpt>
      <trkpt lat="47.53773" lon="6.70852">
        <ele>428.8</ele>
        <time>2014-06-01T09:32:23.000Z</time>
      </trkpt>
      <trkpt lat="47.53777" lon="6.70855">
        <ele>430.8</ele>
        <time>2014-06-01T09:32:25.000Z</time>
      </trkpt>
      <trkpt lat="47.53778" lon="6.70855">
        <ele>430.4</ele>
        <time>2014-06-01T09:32:26.000Z</time>
      </trkpt>
      <trkpt lat="47.53783" lon="6.70857">
        <ele>428.9</ele>
        <time>2014-06-01T09:32:30.000Z</time>
      </trkpt>
      <trkpt lat="47.53783" lon="6.70857">
        <ele>429</ele>
        <time>2014-06-01T09:32:31.000Z</time>
      </trkpt>
      <trkpt lat="47.53784" lon="6.70858">
        <ele>429.6</ele>
        <time>2014-06-01T09:32:32.000Z</time>
      </trkpt>
      <trkpt lat="47.53798" lon="6.70856">
        <ele>388.9</ele>
        <time>2014-06-01T09:32:32.338Z</time>
      </trkpt>
      <trkpt lat="47.53801" lon="6.70868">
        <ele>389.3</ele>
        <time>2014-06-01T09:32:34.338Z</time>
      </trkpt>
      <trkpt lat="47.53786" lon="6.7086">
        <ele>429.9</ele>
        <time>2014-06-01T09:32:35.000Z</time>
      </trkpt>
      <trkpt lat="47.5379" lon="6.7086">
        <ele>431.9</ele>
        <time>2014-06-01T09:32:40.000Z</time>
      </trkpt>
      <trkpt lat="47.53791" lon="6.7086">
        <ele>436.4</ele>
        <time>2014-06-01T09:32:41.000Z</time>
      </trkpt>
      <trkpt lat="47.53787" lon="6.70858">
        <ele>428</ele>
        <time>2014-06-01T09:32:54.000Z</time>
      </trkpt>
      <trkpt lat="47.53785" lon="6.70857">
        <ele>428.6</ele>
        <time>2014-06-01T09:32:55.000Z</time>
      </trkpt>
      <trkpt lat="47.53784" lon="6.70858">
        <ele>430</ele>
        <time>2014-06-01T09:32:58.000Z</time>
      </trkpt>
      <trkpt lat="47.53791" lon="6.70875">
        <ele>425</ele>
        <time>2014-06-01T09:33:06.000Z</time>
      </trkpt>
      <trkpt lat="47.53793" lon="6.70881">
        <ele>423.6</ele>
        <time>2014-06-01T09:33:07.000Z</time>
      </trkpt>
      <trkpt lat="47.53795" lon="6.70886">
        <ele>425.6</ele>
        <time>2014-06-01T09:33:08.000Z</time>
      </trkpt>
      <trkpt lat="47.53797" lon="6.70891">
        <ele>426.7</ele>
        <time>2014-06-01T09:33:09.000Z</time>
      </trkpt>
      <trkpt lat="47.53798" lon="6.70897">
        <ele>428.7</ele>
        <time>2014-06-01T09:33:10.000Z</time>
      </trkpt>
      <trkpt lat="47.53799" lon="6.70901">
        <ele>430.3</ele>
        <time>2014-06-01T09:33:11.000Z</time>
      </trkpt>
      <trkpt lat="47.53801" lon="6.70905">
        <ele>430.7</ele>
        <time>2014-06-01T09:33:12.000Z</time>
      </trkpt>
      <trkpt lat="47.53803" lon="6.70908">
        <ele>430.6</ele>
        <time>2014-06-01T09:33:13.000Z</time>
      </trkpt>
      <trkpt lat="47.53804" lon="6.70912">
        <ele>435.5</ele>
        <time>2014-06-01T09:33:14.000Z</time>
      </trkpt>
      <trkpt lat="47.53805" lon="6.70916">
        <ele>437.6</ele>
        <time>2014-06-01T09:33:15.000Z</time>
      </trkpt>
      <trkpt lat="47.53805" lon="6.70921">
        <ele>438.3</ele>
        <time>2014-06-01T09:33:16.000Z</time>
      </trkpt>
      <trkpt lat="47.53805" lon="6.70925">
        <ele>436.7</ele>
        <time>2014-06-01T09:33:17.000Z</time>
      </trkpt>
      <trkpt lat="47.53805" lon="6.70929">
        <ele>436.8</ele>
        <time>2014-06-01T09:33:18.000Z</time>
      </trkpt>
      <trkpt lat="47.53807" lon="6.70935">
        <ele>438.2</ele>
        <time>2014-06-01T09:33:20.000Z</time>
      </trkpt>
      <trkpt lat="47.53807" lon="6.70938">
        <ele>438.9</ele>
        <time>2014-06-01T09:33:21.000Z</time>
      </trkpt>
      <trkpt lat="47.53808" lon="6.7094">
        <ele>438.7</ele>
        <time>2014-06-01T09:33:22.000Z</time>
      </trkpt>
      <trkpt lat="47.53809" lon="6.70944">
        <ele>440.3</ele>
        <time>2014-06-01T09:33:23.000Z</time>
      </trkpt>
      <trkpt lat="47.53809" lon="6.70949">
        <ele>440.8</ele>
        <time>2014-06-01T09:33:24.000Z</time>
      </trkpt>
      <trkpt lat="47.53809" lon="6.70954">
        <ele>441.5</ele>
        <time>2014-06-01T09:33:25.000Z</time>
      </trkpt>
      <trkpt lat="47.5381" lon="6.7096">
        <ele>442.2</ele>
        <time>2014-06-01T09:33:26.000Z</time>
      </trkpt>
      <trkpt lat="47.5381" lon="6.70964">
        <ele>443</ele>
        <time>2014-06-01T09:33:27.000Z</time>
      </trkpt>
      <trkpt lat="47.53811" lon="6.70969">
        <ele>439.2</ele>
        <time>2014-06-01T09:33:28.000Z</time>
      </trkpt>
      <trkpt lat="47.53813" lon="6.70973">
        <ele>437.1</ele>
        <time>2014-06-01T09:33:29.000Z</time>
      </trkpt>
      <trkpt lat="47.53814" lon="6.70977">
        <ele>436.7</ele>
        <time>2014-06-01T09:33:30.000Z</time>
      </trkpt>
      <trkpt lat="47.53816" lon="6.70981">
        <ele>435.7</ele>
        <time>2014-06-01T09:33:31.000Z</time>
      </trkpt>
      <trkpt lat="47.53817" lon="6.70984">
        <ele>436</ele>
        <time>2014-06-01T09:33:32.000Z</time>
      </trkpt>
      <trkpt lat="47.53818" lon="6.70987">
        <ele>437.5</ele>
        <time>2014-06-01T09:33:33.000Z</time>
      </trkpt>
      <trkpt lat="47.5382" lon="6.70991">
        <ele>436.3</ele>
        <time>2014-06-01T09:33:34.000Z</time>
      </trkpt>
      <trkpt lat="47.53822" lon="6.70995">
        <ele>435.7</ele>
        <time>2014-06-01T09:33:35.000Z</time>
      </trkpt>
      <trkpt lat="47.53825" lon="6.70998">
        <ele>435.5</ele>
        <time>2014-06-01T09:33:36.000Z</time>
      </trkpt>
      <trkpt lat="47.53827" lon="6.71002">
        <ele>435.2</ele>
        <time>2014-06-01T09:33:37.000Z</time>
      </trkpt>
      <trkpt lat="47.53829" lon="6.71005">
        <ele>436.9</ele>
        <time>2014-06-01T09:33:38.000Z</time>
      </trkpt>
      <trkpt lat="47.53831" lon="6.71007">
        <ele>437.9</ele>
        <time>2014-06-01T09:33:39.000Z</time>
      </trkpt>
      <trkpt lat="47.53832" lon="6.7101">
        <ele>440.4</ele>
        <time>2014-06-01T09:33:40.000Z</time>
      </trkpt>
      <trkpt lat="47.53833" lon="6.71014">
        <ele>441.5</ele>
        <time>2014-06-01T09:33:41.000Z</time>
      </trkpt>
      <trkpt lat="47.53834" lon="6.71017">
        <ele>441.8</ele>
        <time>2014-06-01T09:33:42.000Z</time>
      </trkpt>
      <trkpt lat="47.53834" lon="6.7102">
        <ele>441.7</ele>
        <time>2014-06-01T09:33:43.000Z</time>
      </trkpt>
      <trkpt lat="47.53836" lon="6.71026">
        <ele>444.8</ele>
        <time>2014-06-01T09:33:45.000Z</time>
      </trkpt>
      <trkpt lat="47.53836" lon="6.71029">
        <ele>446.2</ele>
        <time>2014-06-01T09:33:46.000Z</time>
      </trkpt>
      <trkpt lat="47.53836" lon="6.71034">
        <ele>445.9</ele>
        <time>2014-06-01T09:33:48.000Z</time>
      </trkpt>
      <trkpt lat="47.53837" lon="6.71036">
        <ele>446.5</ele>
        <time>2014-06-01T09:33:49.000Z</time>
      </trkpt>
      <trkpt lat="47.53839" lon="6.71041">
        <ele>442.6</ele>
        <time>2014-06-01T09:33:51.000Z</time>
      </trkpt>
      <trkpt lat="47.5384" lon="6.71043">
        <ele>442.8</ele>
        <time>2014-06-01T09:33:52.000Z</time>
      </trkpt>
      <trkpt lat="47.5384" lon="6.71047">
        <ele>435.9</ele>
        <time>2014-06-01T09:33:54.000Z</time>
      </trkpt>
      <trkpt lat="47.5384" lon="6.7105">
        <ele>433.6</ele>
        <time>2014-06-01T09:33:55.000Z</time>
      </trkpt>
      <trkpt lat="47.53838" lon="6.71056">
        <ele>433.4</ele>
        <time>2014-06-01T09:33:57.000Z</time>
      </trkpt>
      <trkpt lat="47.53837" lon="6.71059">
        <ele>433.6</ele>
        <time>2014-06-01T09:33:58.000Z</time>
      </trkpt>
      <trkpt lat="47.53836" lon="6.71066">
        <ele>433.3</ele>
        <time>2014-06-01T09:34:01.000Z</time>
      </trkpt>
      <trkpt lat="47.53836" lon="6.71072">
        <ele>435</ele>
        <time>2014-06-01T09:34:03.000Z</time>
      </trkpt>
      <trkpt lat="47.53836" lon="6.71075">
        <ele>436.1</ele>
        <time>2014-06-01T09:34:04.000Z</time>
      </trkpt>
      <trkpt lat="47.53836" lon="6.71078">
        <ele>437.6</ele>
        <time>2014-06-01T09:34:05.000Z</time>
      </trkpt>
      <trkpt lat="47.53836" lon="6.71082">
        <ele>436.7</ele>
        <time>2014-06-01T09:34:06.000Z</time>
      </trkpt>
      <trkpt lat="47.53836" lon="6.71085">
        <ele>434.2</ele>
        <time>2014-06-01T09:34:07.000Z</time>
      </trkpt>
      <trkpt lat="47.53836" lon="6.71089">
        <ele>430.3</ele>
        <time>2014-06-01T09:34:08.000Z</time>
      </trkpt>
      <trkpt lat="47.53835" lon="6.71093">
        <ele>426.5</ele>
        <time>2014-06-01T09:34:09.000Z</time>
      </trkpt>
      <trkpt lat="47.53834" lon="6.71096">
        <ele>424.9</ele>
        <time>2014-06-01T09:34:10.000Z</time>
      </trkpt>
      <trkpt lat="47.53833" lon="6.71103">
        <ele>423.6</ele>
        <time>2014-06-01T09:34:12.000Z</time>
      </trkpt>
      <trkpt lat="47.53832" lon="6.71106">
        <ele>423.6</ele>
        <time>2014-06-01T09:34:13.000Z</time>
      </trkpt>
      <trkpt lat="47.5383" lon="6.71111">
        <ele>421.5</ele>
        <time>2014-06-01T09:34:15.000Z</time>
      </trkpt>
      <trkpt lat="47.53829" lon="6.71114">
        <ele>420.7</ele>
        <time>2014-06-01T09:34:16.000Z</time>
      </trkpt>
      <trkpt lat="47.53827" lon="6.71118">
        <ele>419.9</ele>
        <time>2014-06-01T09:34:18.000Z</time>
      </trkpt>
      <trkpt lat="47.53826" lon="6.7112">
        <ele>419.6</ele>
        <time>2014-06-01T09:34:19.000Z</time>
      </trkpt>
      <trkpt lat="47.53825" lon="6.71123">
        <ele>419</ele>
        <time>2014-06-01T09:34:20.000Z</time>
      </trkpt>
      <trkpt lat="47.53823" lon="6.71126">
        <ele>417.9</ele>
        <time>2014-06-01T09:34:21.000Z</time>
      </trkpt>
      <trkpt lat="47.53822" lon="6.71129">
        <ele>417.2</ele>
        <time>2014-06-01T09:34:22.000Z</time>
      </trkpt>
      <trkpt lat="47.5382" lon="6.71132">
        <ele>416.2</ele>
        <time>2014-06-01T09:34:23.000Z</time>
      </trkpt>
      <trkpt lat="47.53819" lon="6.71135">
        <ele>416</ele>
        <time>2014-06-01T09:34:24.000Z</time>
      </trkpt>
      <trkpt lat="47.53817" lon="6.71139">
        <ele>415.5</ele>
        <time>2014-06-01T09:34:25.000Z</time>
      </trkpt>
      <trkpt lat="47.53816" lon="6.71142">
        <ele>415.3</ele>
        <time>2014-06-01T09:34:26.000Z</time>
      </trkpt>
      <trkpt lat="47.53814" lon="6.71146">
        <ele>415</ele>
        <time>2014-06-01T09:34:27.000Z</time>
      </trkpt>
      <trkpt lat="47.53813" lon="6.71149">
        <ele>414.6</ele>
        <time>2014-06-01T09:34:28.000Z</time>
      </trkpt>
      <trkpt lat="47.53812" lon="6.71151">
        <ele>414.3</ele>
        <time>2014-06-01T09:34:29.000Z</time>
      </trkpt>
      <trkpt lat="47.5381" lon="6.71156">
        <ele>408.7</ele>
        <time>2014-06-01T09:34:58.000Z</time>
      </trkpt>
      <trkpt lat="47.53802" lon="6.71176">
        <ele>408.4</ele>
        <time>2014-06-01T09:35:06.000Z</time>
      </trkpt>
      <trkpt lat="47.538" lon="6.71178">
        <ele>408.5</ele>
        <time>2014-06-01T09:35:07.000Z</time>
      </trkpt>
      <trkpt lat="47.53798" lon="6.71182">
        <ele>408.8</ele>
        <time>2014-06-01T09:35:08.000Z</time>
      </trkpt>
      <trkpt lat="47.53796" lon="6.71185">
        <ele>409</ele>
        <time>2014-06-01T09:35:09.000Z</time>
      </trkpt>
      <trkpt lat="47.53794" lon="6.71189">
        <ele>408.8</ele>
        <time>2014-06-01T09:35:10.000Z</time>
      </trkpt>
      <trkpt lat="47.53792" lon="6.71192">
        <ele>408.5</ele>
        <time>2014-06-01T09:35:11.000Z</time>
      </trkpt>
      <trkpt lat="47.5379" lon="6.71196">
        <ele>408.6</ele>
        <time>2014-06-01T09:35:12.000Z</time>
      </trkpt>
      <trkpt lat="47.53788" lon="6.712">
        <ele>408.7</ele>
        <time>2014-06-01T09:35:13.000Z</time>
      </trkpt>
      <trkpt lat="47.53785" lon="6.71205">
        <ele>408.7</ele>
        <time>2014-06-01T09:35:14.000Z</time>
      </trkpt>
      <trkpt lat="47.53783" lon="6.71209">
        <ele>408.3</ele>
        <time>2014-06-01T09:35:15.000Z</time>
      </trkpt>
      <trkpt lat="47.53781" lon="6.71214">
        <ele>408.1</ele>
        <time>2014-06-01T09:35:16.000Z</time>
      </trkpt>
      <trkpt lat="47.53779" lon="6.71217">
        <ele>408</ele>
        <time>2014-06-01T09:35:17.000Z</time>
      </trkpt>
      <trkpt lat="47.53778" lon="6.71221">
        <ele>408</ele>
        <time>2014-06-01T09:35:18.000Z</time>
      </trkpt>
      <trkpt lat="47.53776" lon="6.71224">
        <ele>407.9</ele>
        <time>2014-06-01T09:35:19.000Z</time>
      </trkpt>
      <trkpt lat="47.53775" lon="6.71228">
        <ele>407.6</ele>
        <time>2014-06-01T09:35:20.000Z</time>
      </trkpt>
      <trkpt lat="47.53773" lon="6.71231">
        <ele>408</ele>
        <time>2014-06-01T09:35:21.000Z</time>
      </trkpt>
      <trkpt lat="47.53772" lon="6.71235">
        <ele>407.7</ele>
        <time>2014-06-01T09:35:22.000Z</time>
      </trkpt>
      <trkpt lat="47.5377" lon="6.71239">
        <ele>407.6</ele>
        <time>2014-06-01T09:35:23.000Z</time>
      </trkpt>
      <trkpt lat="47.53768" lon="6.71242">
        <ele>407.7</ele>
        <time>2014-06-01T09:35:24.000Z</time>
      </trkpt>
      <trkpt lat="47.53767" lon="6.71246">
        <ele>408.2</ele>
        <time>2014-06-01T09:35:25.000Z</time>
      </trkpt>
      <trkpt lat="47.53765" lon="6.7125">
        <ele>408</ele>
        <time>2014-06-01T09:35:26.000Z</time>
      </trkpt>
      <trkpt lat="47.53763" lon="6.71253">
        <ele>407.6</ele>
        <time>2014-06-01T09:35:27.000Z</time>
      </trkpt>
      <trkpt lat="47.53761" lon="6.71257">
        <ele>407.7</ele>
        <time>2014-06-01T09:35:28.000Z</time>
      </trkpt>
      <trkpt lat="47.53759" lon="6.71261">
        <ele>407.6</ele>
        <time>2014-06-01T09:35:28.999Z</time>
      </trkpt>
      <trkpt lat="47.53757" lon="6.71265">
        <ele>407.6</ele>
        <time>2014-06-01T09:35:30.000Z</time>
      </trkpt>
      <trkpt lat="47.53755" lon="6.71269">
        <ele>407.5</ele>
        <time>2014-06-01T09:35:31.000Z</time>
      </trkpt>
      <trkpt lat="47.53753" lon="6.71273">
        <ele>406.9</ele>
        <time>2014-06-01T09:35:32.000Z</time>
      </trkpt>
      <trkpt lat="47.53751" lon="6.71277">
        <ele>406.6</ele>
        <time>2014-06-01T09:35:33.000Z</time>
      </trkpt>
      <trkpt lat="47.5375" lon="6.71281">
        <ele>406.5</ele>
        <time>2014-06-01T09:35:34.000Z</time>
      </trkpt>
      <trkpt lat="47.53748" lon="6.71285">
        <ele>406</ele>
        <time>2014-06-01T09:35:35.000Z</time>
      </trkpt>
      <trkpt lat="47.53746" lon="6.7129">
        <ele>405.8</ele>
        <time>2014-06-01T09:35:36.000Z</time>
      </trkpt>
      <trkpt lat="47.53744" lon="6.71294">
        <ele>405.4</ele>
        <time>2014-06-01T09:35:37.000Z</time>
      </trkpt>
      <trkpt lat="47.53742" lon="6.71298">
        <ele>405.2</ele>
        <time>2014-06-01T09:35:38.000Z</time>
      </trkpt>
      <trkpt lat="47.53739" lon="6.71302">
        <ele>405</ele>
        <time>2014-06-01T09:35:39.000Z</time>
      </trkpt>
      <trkpt lat="47.53737" lon="6.71306">
        <ele>404.8</ele>
        <time>2014-06-01T09:35:40.000Z</time>
      </trkpt>
      <trkpt lat="47.53733" lon="6.7131">
        <ele>404.1</ele>
        <time>2014-06-01T09:35:41.000Z</time>
      </trkpt>
      <trkpt lat="47.5373" lon="6.71314">
        <ele>403.9</ele>
        <time>2014-06-01T09:35:42.000Z</time>
      </trkpt>
      <trkpt lat="47.53727" lon="6.71316">
        <ele>403.9</ele>
        <time>2014-06-01T09:35:43.002Z</time>
      </trkpt>
      <trkpt lat="47.53722" lon="6.71318">
        <ele>404</ele>
        <time>2014-06-01T09:35:44.000Z</time>
      </trkpt>
      <trkpt lat="47.53719" lon="6.7132">
        <ele>403.4</ele>
        <time>2014-06-01T09:35:45.000Z</time>
      </trkpt>
      <trkpt lat="47.53715" lon="6.71324">
        <ele>402.9</ele>
        <time>2014-06-01T09:35:46.000Z</time>
      </trkpt>
      <trkpt lat="47.5371" lon="6.71329">
        <ele>401.7</ele>
        <time>2014-06-01T09:35:47.000Z</time>
      </trkpt>
      <trkpt lat="47.53706" lon="6.71333">
        <ele>401.6</ele>
        <time>2014-06-01T09:35:48.000Z</time>
      </trkpt>
      <trkpt lat="47.53702" lon="6.71337">
        <ele>401.4</ele>
        <time>2014-06-01T09:35:49.000Z</time>
      </trkpt>
      <trkpt lat="47.53698" lon="6.71341">
        <ele>401.2</ele>
        <time>2014-06-01T09:35:50.000Z</time>
      </trkpt>
      <trkpt lat="47.53694" lon="6.71345">
        <ele>400.8</ele>
        <time>2014-06-01T09:35:51.000Z</time>
      </trkpt>
      <trkpt lat="47.5369" lon="6.7135">
        <ele>400.7</ele>
        <time>2014-06-01T09:35:52.000Z</time>
      </trkpt>
      <trkpt lat="47.53685" lon="6.71355">
        <ele>400.2</ele>
        <time>2014-06-01T09:35:53.000Z</time>
      </trkpt>
      <trkpt lat="47.5368" lon="6.71361">
        <ele>398.9</ele>
        <time>2014-06-01T09:35:54.000Z</time>
      </trkpt>
      <trkpt lat="47.53676" lon="6.71367">
        <ele>398.3</ele>
        <time>2014-06-01T09:35:55.000Z</time>
      </trkpt>
      <trkpt lat="47.53671" lon="6.71371">
        <ele>397.2</ele>
        <time>2014-06-01T09:35:56.000Z</time>
      </trkpt>
      <trkpt lat="47.53666" lon="6.71374">
        <ele>396.8</ele>
        <time>2014-06-01T09:35:57.000Z</time>
      </trkpt>
      <trkpt lat="47.53661" lon="6.71378">
        <ele>396.8</ele>
        <time>2014-06-01T09:35:58.000Z</time>
      </trkpt>
      <trkpt lat="47.53636" lon="6.71404">
        <ele>394.2</ele>
        <time>2014-06-01T09:36:06.000Z</time>
      </trkpt>
      <trkpt lat="47.53632" lon="6.71403">
        <ele>393.8</ele>
        <time>2014-06-01T09:36:11.000Z</time>
      </trkpt>
      <trkpt lat="47.53631" lon="6.71402">
        <ele>393.6</ele>
        <time>2014-06-01T09:36:12.000Z</time>
      </trkpt>
      <trkpt lat="47.53627" lon="6.71403">
        <ele>394</ele>
        <time>2014-06-01T09:36:16.000Z</time>
      </trkpt>
      <trkpt lat="47.53626" lon="6.71403">
        <ele>394.2</ele>
        <time>2014-06-01T09:36:17.000Z</time>
      </trkpt>
      <trkpt lat="47.53625" lon="6.71409">
        <ele>393.2</ele>
        <time>2014-06-01T09:36:25.000Z</time>
      </trkpt>
      <trkpt lat="47.53624" lon="6.71412">
        <ele>393</ele>
        <time>2014-06-01T09:36:26.000Z</time>
      </trkpt>
      <trkpt lat="47.53623" lon="6.71417">
        <ele>391.9</ele>
        <time>2014-06-01T09:36:27.000Z</time>
      </trkpt>
      <trkpt lat="47.53622" lon="6.71422">
        <ele>390.7</ele>
        <time>2014-06-01T09:36:28.000Z</time>
      </trkpt>
      <trkpt lat="47.5362" lon="6.71427">
        <ele>390.5</ele>
        <time>2014-06-01T09:36:29.000Z</time>
      </trkpt>
      <trkpt lat="47.53618" lon="6.71433">
        <ele>389.8</ele>
        <time>2014-06-01T09:36:30.000Z</time>
      </trkpt>
      <trkpt lat="47.53615" lon="6.71438">
        <ele>389.7</ele>
        <time>2014-06-01T09:36:31.000Z</time>
      </trkpt>
      <trkpt lat="47.53613" lon="6.71444">
        <ele>389</ele>
        <time>2014-06-01T09:36:32.000Z</time>
      </trkpt>
      <trkpt lat="47.5361" lon="6.7145">
        <ele>388.5</ele>
        <time>2014-06-01T09:36:33.000Z</time>
      </trkpt>
      <trkpt lat="47.53607" lon="6.71457">
        <ele>387.8</ele>
        <time>2014-06-01T09:36:34.000Z</time>
      </trkpt>
      <trkpt lat="47.53605" lon="6.71463">
        <ele>387.8</ele>
        <time>2014-06-01T09:36:35.000Z</time>
      </trkpt>
      <trkpt lat="47.53602" lon="6.71468">
        <ele>387.2</ele>
        <time>2014-06-01T09:36:36.000Z</time>
      </trkpt>
      <trkpt lat="47.53599" lon="6.71473">
        <ele>387.1</ele>
        <time>2014-06-01T09:36:37.000Z</time>
      </trkpt>
      <trkpt lat="47.53594" lon="6.71478">
        <ele>386.9</ele>
        <time>2014-06-01T09:36:38.000Z</time>
      </trkpt>
      <trkpt lat="47.5359" lon="6.71484">
        <ele>386.6</ele>
        <time>2014-06-01T09:36:39.000Z</time>
      </trkpt>
      <trkpt lat="47.53585" lon="6.71489">
        <ele>386.3</ele>
        <time>2014-06-01T09:36:40.000Z</time>
      </trkpt>
      <trkpt lat="47.53581" lon="6.71496">
        <ele>385.7</ele>
        <time>2014-06-01T09:36:41.000Z</time>
      </trkpt>
      <trkpt lat="47.53575" lon="6.71503">
        <ele>385.2</ele>
        <time>2014-06-01T09:36:42.000Z</time>
      </trkpt>
      <trkpt lat="47.5357" lon="6.71509">
        <ele>384.8</ele>
        <time>2014-06-01T09:36:43.000Z</time>
      </trkpt>
      <trkpt lat="47.53565" lon="6.71517">
        <ele>384</ele>
        <time>2014-06-01T09:36:44.000Z</time>
      </trkpt>
      <trkpt lat="47.53559" lon="6.71524">
        <ele>383.6</ele>
        <time>2014-06-01T09:36:45.000Z</time>
      </trkpt>
      <trkpt lat="47.53553" lon="6.71531">
        <ele>383.8</ele>
        <time>2014-06-01T09:36:46.000Z</time>
      </trkpt>
      <trkpt lat="47.53547" lon="6.7154">
        <ele>383.3</ele>
        <time>2014-06-01T09:36:47.000Z</time>
      </trkpt>
      <trkpt lat="47.53541" lon="6.71549">
        <ele>382.3</ele>
        <time>2014-06-01T09:36:48.000Z</time>
      </trkpt>
      <trkpt lat="47.53535" lon="6.71559">
        <ele>381.3</ele>
        <time>2014-06-01T09:36:49.000Z</time>
      </trkpt>
      <trkpt lat="47.5353" lon="6.71569">
        <ele>381.5</ele>
        <time>2014-06-01T09:36:50.000Z</time>
      </trkpt>
      <trkpt lat="47.53524" lon="6.7158">
        <ele>381.2</ele>
        <time>2014-06-01T09:36:51.000Z</time>
      </trkpt>
      <trkpt lat="47.53519" lon="6.7159">
        <ele>380.3</ele>
        <time>2014-06-01T09:36:52.000Z</time>
      </trkpt>
      <trkpt lat="47.53513" lon="6.716">
        <ele>379.5</ele>
        <time>2014-06-01T09:36:53.000Z</time>
      </trkpt>
      <trkpt lat="47.53507" lon="6.7161">
        <ele>378.6</ele>
        <time>2014-06-01T09:36:54.000Z</time>
      </trkpt>
      <trkpt lat="47.53501" lon="6.71619">
        <ele>378.1</ele>
        <time>2014-06-01T09:36:55.000Z</time>
      </trkpt>
      <trkpt lat="47.53495" lon="6.71628">
        <ele>377.2</ele>
        <time>2014-06-01T09:36:56.000Z</time>
      </trkpt>
      <trkpt lat="47.53489" lon="6.71637">
        <ele>376.9</ele>
        <time>2014-06-01T09:36:57.000Z</time>
      </trkpt>
      <trkpt lat="47.53483" lon="6.71646">
        <ele>376.6</ele>
        <time>2014-06-01T09:36:58.000Z</time>
      </trkpt>
      <trkpt lat="47.53435" lon="6.71718">
        <ele>372.3</ele>
        <time>2014-06-01T09:37:06.000Z</time>
      </trkpt>
      <trkpt lat="47.5343" lon="6.71726">
        <ele>371.2</ele>
        <time>2014-06-01T09:37:07.000Z</time>
      </trkpt>
      <trkpt lat="47.53424" lon="6.71733">
        <ele>370.1</ele>
        <time>2014-06-01T09:37:08.000Z</time>
      </trkpt>
      <trkpt lat="47.53419" lon="6.7174">
        <ele>368.9</ele>
        <time>2014-06-01T09:37:09.000Z</time>
      </trkpt>
      <trkpt lat="47.53416" lon="6.71749">
        <ele>368.9</ele>
        <time>2014-06-01T09:37:10.000Z</time>
      </trkpt>
      <trkpt lat="47.53412" lon="6.7176">
        <ele>368</ele>
        <time>2014-06-01T09:37:11.000Z</time>
      </trkpt>
      <trkpt lat="47.5341" lon="6.7177">
        <ele>368</ele>
        <time>2014-06-01T09:37:12.000Z</time>
      </trkpt>
      <trkpt lat="47.53406" lon="6.71779">
        <ele>367.8</ele>
        <time>2014-06-01T09:37:13.000Z</time>
      </trkpt>
      <trkpt lat="47.53402" lon="6.71788">
        <ele>367.6</ele>
        <time>2014-06-01T09:37:14.000Z</time>
      </trkpt>
      <trkpt lat="47.53397" lon="6.71796">
        <ele>368.3</ele>
        <time>2014-06-01T09:37:15.000Z</time>
      </trkpt>
      <trkpt lat="47.53393" lon="6.71803">
        <ele>368.4</ele>
        <time>2014-06-01T09:37:16.000Z</time>
      </trkpt>
      <trkpt lat="47.53388" lon="6.71811">
        <ele>368.2</ele>
        <time>2014-06-01T09:37:17.000Z</time>
      </trkpt>
      <trkpt lat="47.53383" lon="6.71817">
        <ele>367.4</ele>
        <time>2014-06-01T09:37:18.000Z</time>
      </trkpt>
      <trkpt lat="47.53378" lon="6.71824">
        <ele>367</ele>
        <time>2014-06-01T09:37:19.000Z</time>
      </trkpt>
      <trkpt lat="47.53373" lon="6.7183">
        <ele>366.8</ele>
        <time>2014-06-01T09:37:20.000Z</time>
      </trkpt>
      <trkpt lat="47.5337" lon="6.71837">
        <ele>367.1</ele>
        <time>2014-06-01T09:37:21.000Z</time>
      </trkpt>
      <trkpt lat="47.53366" lon="6.71842">
        <ele>367</ele>
        <time>2014-06-01T09:37:22.000Z</time>
      </trkpt>
      <trkpt lat="47.53361" lon="6.71848">
        <ele>366.7</ele>
        <time>2014-06-01T09:37:23.000Z</time>
      </trkpt>
      <trkpt lat="47.53357" lon="6.71853">
        <ele>366.4</ele>
        <time>2014-06-01T09:37:24.000Z</time>
      </trkpt>
      <trkpt lat="47.53352" lon="6.71856">
        <ele>366.4</ele>
        <time>2014-06-01T09:37:25.000Z</time>
      </trkpt>
      <trkpt lat="47.53348" lon="6.7186">
        <ele>366.5</ele>
        <time>2014-06-01T09:37:26.000Z</time>
      </trkpt>
      <trkpt lat="47.53343" lon="6.71863">
        <ele>366.2</ele>
        <time>2014-06-01T09:37:27.000Z</time>
      </trkpt>
      <trkpt lat="47.53339" lon="6.71866">
        <ele>365.9</ele>
        <time>2014-06-01T09:37:28.000Z</time>
      </trkpt>
      <trkpt lat="47.53335" lon="6.71869">
        <ele>365.7</ele>
        <time>2014-06-01T09:37:29.000Z</time>
      </trkpt>
      <trkpt lat="47.53331" lon="6.71873">
        <ele>365.4</ele>
        <time>2014-06-01T09:37:30.000Z</time>
      </trkpt>
      <trkpt lat="47.53327" lon="6.71876">
        <ele>365.5</ele>
        <time>2014-06-01T09:37:31.000Z</time>
      </trkpt>
      <trkpt lat="47.53324" lon="6.71881">
        <ele>365.5</ele>
        <time>2014-06-01T09:37:32.000Z</time>
      </trkpt>
      <trkpt lat="47.5332" lon="6.71886">
        <ele>365.2</ele>
        <time>2014-06-01T09:37:33.000Z</time>
      </trkpt>
      <trkpt lat="47.53317" lon="6.71892">
        <ele>364.7</ele>
        <time>2014-06-01T09:37:34.000Z</time>
      </trkpt>
      <trkpt lat="47.53315" lon="6.71898">
        <ele>364.5</ele>
        <time>2014-06-01T09:37:35.000Z</time>
      </trkpt>
      <trkpt lat="47.53312" lon="6.71904">
        <ele>364.3</ele>
        <time>2014-06-01T09:37:36.000Z</time>
      </trkpt>
      <trkpt lat="47.5331" lon="6.71911">
        <ele>364.5</ele>
        <time>2014-06-01T09:37:37.000Z</time>
      </trkpt>
      <trkpt lat="47.53307" lon="6.71917">
        <ele>364.2</ele>
        <time>2014-06-01T09:37:38.000Z</time>
      </trkpt>
      <trkpt lat="47.53305" lon="6.71924">
        <ele>364</ele>
        <time>2014-06-01T09:37:39.000Z</time>
      </trkpt>
      <trkpt lat="47.53302" lon="6.7193">
        <ele>363.9</ele>
        <time>2014-06-01T09:37:40.000Z</time>
      </trkpt>
      <trkpt lat="47.533" lon="6.71937">
        <ele>364</ele>
        <time>2014-06-01T09:37:41.000Z</time>
      </trkpt>
      <trkpt lat="47.53298" lon="6.71943">
        <ele>364.4</ele>
        <time>2014-06-01T09:37:42.000Z</time>
      </trkpt>
      <trkpt lat="47.53296" lon="6.7195">
        <ele>364.5</ele>
        <time>2014-06-01T09:37:43.000Z</time>
      </trkpt>
      <trkpt lat="47.53295" lon="6.71959">
        <ele>363.9</ele>
        <time>2014-06-01T09:37:44.000Z</time>
      </trkpt>
      <trkpt lat="47.53293" lon="6.71965">
        <ele>363.9</ele>
        <time>2014-06-01T09:37:45.000Z</time>
      </trkpt>
      <trkpt lat="47.53292" lon="6.71972">
        <ele>364</ele>
        <time>2014-06-01T09:37:46.000Z</time>
      </trkpt>
      <trkpt lat="47.53293" lon="6.71979">
        <ele>365.2</ele>
        <time>2014-06-01T09:37:47.000Z</time>
      </trkpt>
      <trkpt lat="47.53293" lon="6.71985">
        <ele>365.8</ele>
        <time>2014-06-01T09:37:48.000Z</time>
      </trkpt>
      <trkpt lat="47.53294" lon="6.71992">
        <ele>365.4</ele>
        <time>2014-06-01T09:37:49.000Z</time>
      </trkpt>
      <trkpt lat="47.53296" lon="6.71999">
        <ele>365.9</ele>
        <time>2014-06-01T09:37:50.000Z</time>
      </trkpt>
      <trkpt lat="47.53297" lon="6.72003">
        <ele>366.9</ele>
        <time>2014-06-01T09:37:51.000Z</time>
      </trkpt>
      <trkpt lat="47.533" lon="6.72009">
        <ele>366.8</ele>
        <time>2014-06-01T09:37:52.000Z</time>
      </trkpt>
      <trkpt lat="47.53304" lon="6.72012">
        <ele>367</ele>
        <time>2014-06-01T09:37:53.000Z</time>
      </trkpt>
      <trkpt lat="47.53307" lon="6.72017">
        <ele>367.2</ele>
        <time>2014-06-01T09:37:54.000Z</time>
      </trkpt>
      <trkpt lat="47.5331" lon="6.7202">
        <ele>366.9</ele>
        <time>2014-06-01T09:37:55.000Z</time>
      </trkpt>
      <trkpt lat="47.53314" lon="6.72024">
        <ele>366</ele>
        <time>2014-06-01T09:37:56.000Z</time>
      </trkpt>
      <trkpt lat="47.53317" lon="6.72028">
        <ele>365.6</ele>
        <time>2014-06-01T09:37:57.000Z</time>
      </trkpt>
      <trkpt lat="47.53321" lon="6.72032">
        <ele>365.1</ele>
        <time>2014-06-01T09:37:58.000Z</time>
      </trkpt>
      <trkpt lat="47.53346" lon="6.72057">
        <ele>363.1</ele>
        <time>2014-06-01T09:38:06.000Z</time>
      </trkpt>
      <trkpt lat="47.53349" lon="6.72064">
        <ele>362.5</ele>
        <time>2014-06-01T09:38:07.000Z</time>
      </trkpt>
      <trkpt lat="47.53352" lon="6.72072">
        <ele>362.4</ele>
        <time>2014-06-01T09:38:08.000Z</time>
      </trkpt>
      <trkpt lat="47.53356" lon="6.72079">
        <ele>361.2</ele>
        <time>2014-06-01T09:38:09.000Z</time>
      </trkpt>
      <trkpt lat="47.53359" lon="6.72086">
        <ele>360.8</ele>
        <time>2014-06-01T09:38:10.000Z</time>
      </trkpt>
      <trkpt lat="47.53362" lon="6.72094">
        <ele>360.8</ele>
        <time>2014-06-01T09:38:11.000Z</time>
      </trkpt>
      <trkpt lat="47.5336" lon="6.72104">
        <ele>360.4</ele>
        <time>2014-06-01T09:38:12.000Z</time>
      </trkpt>
      <trkpt lat="47.53361" lon="6.72114">
        <ele>359.7</ele>
        <time>2014-06-01T09:38:13.000Z</time>
      </trkpt>
      <trkpt lat="47.5336" lon="6.72124">
        <ele>359.7</ele>
        <time>2014-06-01T09:38:14.000Z</time>
      </trkpt>
      <trkpt lat="47.5336" lon="6.72134">
        <ele>359.5</ele>
        <time>2014-06-01T09:38:15.000Z</time>
      </trkpt>
      <trkpt lat="47.5336" lon="6.72143">
        <ele>359.6</ele>
        <time>2014-06-01T09:38:16.000Z</time>
      </trkpt>
      <trkpt lat="47.53358" lon="6.72151">
        <ele>359.5</ele>
        <time>2014-06-01T09:38:17.000Z</time>
      </trkpt>
      <trkpt lat="47.53357" lon="6.72159">
        <ele>359.3</ele>
        <time>2014-06-01T09:38:18.000Z</time>
      </trkpt>
      <trkpt lat="47.53356" lon="6.72167">
        <ele>358.6</ele>
        <time>2014-06-01T09:38:19.000Z</time>
      </trkpt>
      <trkpt lat="47.53354" lon="6.72173">
        <ele>358</ele>
        <time>2014-06-01T09:38:20.000Z</time>
      </trkpt>
      <trkpt lat="47.53351" lon="6.72181">
        <ele>357.9</ele>
        <time>2014-06-01T09:38:21.000Z</time>
      </trkpt>
      <trkpt lat="47.5335" lon="6.72188">
        <ele>357.9</ele>
        <time>2014-06-01T09:38:22.000Z</time>
      </trkpt>
      <trkpt lat="47.53347" lon="6.72193">
        <ele>358.3</ele>
        <time>2014-06-01T09:38:23.000Z</time>
      </trkpt>
      <trkpt lat="47.53344" lon="6.72198">
        <ele>358.8</ele>
        <time>2014-06-01T09:38:24.000Z</time>
      </trkpt>
      <trkpt lat="47.53341" lon="6.72203">
        <ele>359.1</ele>
        <time>2014-06-01T09:38:25.000Z</time>
      </trkpt>
      <trkpt lat="47.53338" lon="6.72209">
        <ele>359.8</ele>
        <time>2014-06-01T09:38:26.000Z</time>
      </trkpt>
      <trkpt lat="47.53335" lon="6.72214">
        <ele>359.7</ele>
        <time>2014-06-01T09:38:27.000Z</time>
      </trkpt>
      <trkpt lat="47.53332" lon="6.72218">
        <ele>359.8</ele>
        <time>2014-06-01T09:38:28.000Z</time>
      </trkpt>
      <trkpt lat="47.53329" lon="6.72223">
        <ele>360.4</ele>
        <time>2014-06-01T09:38:29.000Z</time>
      </trkpt>
      <trkpt lat="47.53328" lon="6.72227">
        <ele>360.5</ele>
        <time>2014-06-01T09:38:30.000Z</time>
      </trkpt>
      <trkpt lat="47.53326" lon="6.72232">
        <ele>360.6</ele>
        <time>2014-06-01T09:38:31.000Z</time>
      </trkpt>
      <trkpt lat="47.53325" lon="6.72236">
        <ele>360.5</ele>
        <time>2014-06-01T09:38:32.000Z</time>
      </trkpt>
      <trkpt lat="47.53323" lon="6.72241">
        <ele>359.8</ele>
        <time>2014-06-01T09:38:33.000Z</time>
      </trkpt>
      <trkpt lat="47.53322" lon="6.72246">
        <ele>359.4</ele>
        <time>2014-06-01T09:38:34.000Z</time>
      </trkpt>
      <trkpt lat="47.5332" lon="6.72251">
        <ele>359.9</ele>
        <time>2014-06-01T09:38:35.000Z</time>
      </trkpt>
      <trkpt lat="47.53319" lon="6.72256">
        <ele>360.1</ele>
        <time>2014-06-01T09:38:36.000Z</time>
      </trkpt>
      <trkpt lat="47.53317" lon="6.72261">
        <ele>360.2</ele>
        <time>2014-06-01T09:38:37.000Z</time>
      </trkpt>
      <trkpt lat="47.53315" lon="6.72266">
        <ele>359.8</ele>
        <time>2014-06-01T09:38:38.000Z</time>
      </trkpt>
      <trkpt lat="47.53314" lon="6.7227">
        <ele>359.9</ele>
        <time>2014-06-01T09:38:39.000Z</time>
      </trkpt>
      <trkpt lat="47.53313" lon="6.72275">
        <ele>359.7</ele>
        <time>2014-06-01T09:38:40.000Z</time>
      </trkpt>
      <trkpt lat="47.53312" lon="6.7228">
        <ele>359.8</ele>
        <time>2014-06-01T09:38:41.000Z</time>
      </trkpt>
      <trkpt lat="47.53311" lon="6.72285">
        <ele>359.8</ele>
        <time>2014-06-01T09:38:42.000Z</time>
      </trkpt>
      <trkpt lat="47.5331" lon="6.7229">
        <ele>360</ele>
        <time>2014-06-01T09:38:43.000Z</time>
      </trkpt>
      <trkpt lat="47.5331" lon="6.72295">
        <ele>360</ele>
        <time>2014-06-01T09:38:44.000Z</time>
      </trkpt>
      <trkpt lat="47.53309" lon="6.723">
        <ele>360.2</ele>
        <time>2014-06-01T09:38:45.000Z</time>
      </trkpt>
      <trkpt lat="47.53309" lon="6.72306">
        <ele>360.5</ele>
        <time>2014-06-01T09:38:46.000Z</time>
      </trkpt>
      <trkpt lat="47.53309" lon="6.72311">
        <ele>360.4</ele>
        <time>2014-06-01T09:38:47.000Z</time>
      </trkpt>
      <trkpt lat="47.53309" lon="6.72315">
        <ele>360.3</ele>
        <time>2014-06-01T09:38:48.000Z</time>
      </trkpt>
      <trkpt lat="47.5331" lon="6.7232">
        <ele>360.2</ele>
        <time>2014-06-01T09:38:49.000Z</time>
      </trkpt>
      <trkpt lat="47.5331" lon="6.72325">
        <ele>360.2</ele>
        <time>2014-06-01T09:38:50.000Z</time>
      </trkpt>
      <trkpt lat="47.53311" lon="6.7233">
        <ele>359.8</ele>
        <time>2014-06-01T09:38:51.000Z</time>
      </trkpt>
      <trkpt lat="47.53312" lon="6.72335">
        <ele>360.1</ele>
        <time>2014-06-01T09:38:52.000Z</time>
      </trkpt>
      <trkpt lat="47.53313" lon="6.7234">
        <ele>359.9</ele>
        <time>2014-06-01T09:38:53.000Z</time>
      </trkpt>
      <trkpt lat="47.53315" lon="6.72346">
        <ele>359.9</ele>
        <time>2014-06-01T09:38:54.000Z</time>
      </trkpt>
      <trkpt lat="47.53316" lon="6.72352">
        <ele>359.7</ele>
        <time>2014-06-01T09:38:55.000Z</time>
      </trkpt>
      <trkpt lat="47.53317" lon="6.72358">
        <ele>359.6</ele>
        <time>2014-06-01T09:38:56.000Z</time>
      </trkpt>
      <trkpt lat="47.5332" lon="6.72366">
        <ele>359.8</ele>
        <time>2014-06-01T09:38:57.000Z</time>
      </trkpt>
      <trkpt lat="47.5332" lon="6.72373">
        <ele>359.3</ele>
        <time>2014-06-01T09:38:58.000Z</time>
      </trkpt>
      <trkpt lat="47.53315" lon="6.72424">
        <ele>356.5</ele>
        <time>2014-06-01T09:39:06.000Z</time>
      </trkpt>
      <trkpt lat="47.53316" lon="6.72437">
        <ele>355.3</ele>
        <time>2014-06-01T09:39:07.000Z</time>
      </trkpt>
      <trkpt lat="47.53315" lon="6.72445">
        <ele>355.7</ele>
        <time>2014-06-01T09:39:08.000Z</time>
      </trkpt>
      <trkpt lat="47.53315" lon="6.72452">
        <ele>355.2</ele>
        <time>2014-06-01T09:39:09.000Z</time>
      </trkpt>
      <trkpt lat="47.53317" lon="6.72461">
        <ele>354.9</ele>
        <time>2014-06-01T09:39:10.000Z</time>
      </trkpt>
      <trkpt lat="47.5332" lon="6.72468">
        <ele>354.6</ele>
        <time>2014-06-01T09:39:11.000Z</time>
      </trkpt>
      <trkpt lat="47.53323" lon="6.72475">
        <ele>354.1</ele>
        <time>2014-06-01T09:39:12.000Z</time>
      </trkpt>
      <trkpt lat="47.53327" lon="6.72482">
        <ele>354</ele>
        <time>2014-06-01T09:39:13.000Z</time>
      </trkpt>
      <trkpt lat="47.53333" lon="6.72487">
        <ele>353.2</ele>
        <time>2014-06-01T09:39:14.000Z</time>
      </trkpt>
      <trkpt lat="47.53338" lon="6.72491">
        <ele>353.3</ele>
        <time>2014-06-01T09:39:15.000Z</time>
      </trkpt>
      <trkpt lat="47.53343" lon="6.72494">
        <ele>353.6</ele>
        <time>2014-06-01T09:39:16.000Z</time>
      </trkpt>
      <trkpt lat="47.53349" lon="6.72497">
        <ele>353.4</ele>
        <time>2014-06-01T09:39:17.000Z</time>
      </trkpt>
      <trkpt lat="47.53353" lon="6.72499">
        <ele>355.2</ele>
        <time>2014-06-01T09:39:18.000Z</time>
      </trkpt>
      <trkpt lat="47.53359" lon="6.72501">
        <ele>355.7</ele>
        <time>2014-06-01T09:39:19.000Z</time>
      </trkpt>
      <trkpt lat="47.53365" lon="6.72502">
        <ele>355.3</ele>
        <time>2014-06-01T09:39:20.000Z</time>
      </trkpt>
      <trkpt lat="47.5337" lon="6.72505">
        <ele>354.9</ele>
        <time>2014-06-01T09:39:21.000Z</time>
      </trkpt>
      <trkpt lat="47.53374" lon="6.72506">
        <ele>354.5</ele>
        <time>2014-06-01T09:39:22.000Z</time>
      </trkpt>
      <trkpt lat="47.53379" lon="6.72506">
        <ele>354.3</ele>
        <time>2014-06-01T09:39:23.000Z</time>
      </trkpt>
      <trkpt lat="47.53385" lon="6.72509">
        <ele>356.8</ele>
        <time>2014-06-01T09:39:24.000Z</time>
      </trkpt>
      <trkpt lat="47.53391" lon="6.72512">
        <ele>355.8</ele>
        <time>2014-06-01T09:39:25.000Z</time>
      </trkpt>
      <trkpt lat="47.53397" lon="6.72515">
        <ele>355.1</ele>
        <time>2014-06-01T09:39:26.000Z</time>
      </trkpt>
      <trkpt lat="47.53403" lon="6.72519">
        <ele>353.4</ele>
        <time>2014-06-01T09:39:27.000Z</time>
      </trkpt>
      <trkpt lat="47.53408" lon="6.72525">
        <ele>352.4</ele>
        <time>2014-06-01T09:39:28.000Z</time>
      </trkpt>
      <trkpt lat="47.53414" lon="6.7253">
        <ele>351.9</ele>
        <time>2014-06-01T09:39:29.000Z</time>
      </trkpt>
      <trkpt lat="47.5342" lon="6.72538">
        <ele>352.1</ele>
        <time>2014-06-01T09:39:30.000Z</time>
      </trkpt>
      <trkpt lat="47.53425" lon="6.72546">
        <ele>352.3</ele>
        <time>2014-06-01T09:39:31.000Z</time>
      </trkpt>
      <trkpt lat="47.53429" lon="6.72554">
        <ele>352.2</ele>
        <time>2014-06-01T09:39:32.000Z</time>
      </trkpt>
      <trkpt lat="47.53433" lon="6.72562">
        <ele>352.3</ele>
        <time>2014-06-01T09:39:33.000Z</time>
      </trkpt>
      <trkpt lat="47.53437" lon="6.7257">
        <ele>352.3</ele>
        <time>2014-06-01T09:39:34.000Z</time>
      </trkpt>
      <trkpt lat="47.5344" lon="6.72579">
        <ele>352.3</ele>
        <time>2014-06-01T09:39:35.000Z</time>
      </trkpt>
      <trkpt lat="47.53443" lon="6.72586">
        <ele>352.2</ele>
        <time>2014-06-01T09:39:36.000Z</time>
      </trkpt>
      <trkpt lat="47.53446" lon="6.72594">
        <ele>352</ele>
        <time>2014-06-01T09:39:37.000Z</time>
      </trkpt>
      <trkpt lat="47.53451" lon="6.72598">
        <ele>350.7</ele>
        <time>2014-06-01T09:39:38.000Z</time>
      </trkpt>
      <trkpt lat="47.53456" lon="6.72603">
        <ele>349.8</ele>
        <time>2014-06-01T09:39:39.000Z</time>
      </trkpt>
      <trkpt lat="47.53459" lon="6.72609">
        <ele>349.5</ele>
        <time>2014-06-01T09:39:40.000Z</time>
      </trkpt>
      <trkpt lat="47.53462" lon="6.72616">
        <ele>349.8</ele>
        <time>2014-06-01T09:39:41.000Z</time>
      </trkpt>
      <trkpt lat="47.53465" lon="6.72622">
        <ele>349.7</ele>
        <time>2014-06-01T09:39:42.000Z</time>
      </trkpt>
      <trkpt lat="47.53468" lon="6.72628">
        <ele>349.8</ele>
        <time>2014-06-01T09:39:43.000Z</time>
      </trkpt>
      <trkpt lat="47.5347" lon="6.72635">
        <ele>349.9</ele>
        <time>2014-06-01T09:39:44.000Z</time>
      </trkpt>
      <trkpt lat="47.53473" lon="6.72642">
        <ele>350</ele>
        <time>2014-06-01T09:39:45.000Z</time>
      </trkpt>
      <trkpt lat="47.53475" lon="6.72648">
        <ele>350.2</ele>
        <time>2014-06-01T09:39:46.000Z</time>
      </trkpt>
      <trkpt lat="47.53476" lon="6.72655">
        <ele>350.4</ele>
        <time>2014-06-01T09:39:47.000Z</time>
      </trkpt>
      <trkpt lat="47.53478" lon="6.7266">
        <ele>350.3</ele>
        <time>2014-06-01T09:39:48.000Z</time>
      </trkpt>
      <trkpt lat="47.5348" lon="6.72666">
        <ele>350.2</ele>
        <time>2014-06-01T09:39:49.000Z</time>
      </trkpt>
      <trkpt lat="47.53481" lon="6.72671">
        <ele>350.3</ele>
        <time>2014-06-01T09:39:51.000Z</time>
      </trkpt>
      <trkpt lat="47.53481" lon="6.72673">
        <ele>350.6</ele>
        <time>2014-06-01T09:39:52.000Z</time>
      </trkpt>
      <trkpt lat="47.53482" lon="6.72678">
        <ele>350.8</ele>
        <time>2014-06-01T09:39:55.000Z</time>
      </trkpt>
      <trkpt lat="47.53483" lon="6.72681">
        <ele>350.6</ele>
        <time>2014-06-01T09:39:56.000Z</time>
      </trkpt>
      <trkpt lat="47.53483" lon="6.72684">
        <ele>350.6</ele>
        <time>2014-06-01T09:39:57.000Z</time>
      </trkpt>
      <trkpt lat="47.53485" lon="6.72687">
        <ele>350.6</ele>
        <time>2014-06-01T09:39:58.000Z</time>
      </trkpt>
      <trkpt lat="47.53494" lon="6.72719">
        <ele>350.3</ele>
        <time>2014-06-01T09:40:06.000Z</time>
      </trkpt>
      <trkpt lat="47.53494" lon="6.72724">
        <ele>350.9</ele>
        <time>2014-06-01T09:40:07.000Z</time>
      </trkpt>
      <trkpt lat="47.53494" lon="6.72728">
        <ele>350.7</ele>
        <time>2014-06-01T09:40:08.000Z</time>
      </trkpt>
      <trkpt lat="47.53495" lon="6.72731">
        <ele>350.5</ele>
        <time>2014-06-01T09:40:09.000Z</time>
      </trkpt>
      <trkpt lat="47.53495" lon="6.72735">
        <ele>350.8</ele>
        <time>2014-06-01T09:40:10.000Z</time>
      </trkpt>
      <trkpt lat="47.53495" lon="6.72741">
        <ele>351</ele>
        <time>2014-06-01T09:40:12.000Z</time>
      </trkpt>
      <trkpt lat="47.53495" lon="6.72743">
        <ele>351.2</ele>
        <time>2014-06-01T09:40:13.000Z</time>
      </trkpt>
      <trkpt lat="47.53493" lon="6.72746">
        <ele>350.8</ele>
        <time>2014-06-01T09:40:14.000Z</time>
      </trkpt>
      <trkpt lat="47.53491" lon="6.72748">
        <ele>350.5</ele>
        <time>2014-06-01T09:40:15.000Z</time>
      </trkpt>
      <trkpt lat="47.53488" lon="6.72749">
        <ele>350.4</ele>
        <time>2014-06-01T09:40:16.000Z</time>
      </trkpt>
      <trkpt lat="47.53484" lon="6.72751">
        <ele>350.1</ele>
        <time>2014-06-01T09:40:17.000Z</time>
      </trkpt>
      <trkpt lat="47.5348" lon="6.72753">
        <ele>350.3</ele>
        <time>2014-06-01T09:40:18.000Z</time>
      </trkpt>
      <trkpt lat="47.53476" lon="6.72754">
        <ele>350.7</ele>
        <time>2014-06-01T09:40:19.000Z</time>
      </trkpt>
      <trkpt lat="47.53472" lon="6.72756">
        <ele>351</ele>
        <time>2014-06-01T09:40:20.000Z</time>
      </trkpt>
      <trkpt lat="47.53468" lon="6.72757">
        <ele>350.8</ele>
        <time>2014-06-01T09:40:21.000Z</time>
      </trkpt>
      <trkpt lat="47.53464" lon="6.72758">
        <ele>351</ele>
        <time>2014-06-01T09:40:22.000Z</time>
      </trkpt>
      <trkpt lat="47.5346" lon="6.7276">
        <ele>351.1</ele>
        <time>2014-06-01T09:40:23.000Z</time>
      </trkpt>
      <trkpt lat="47.53457" lon="6.72762">
        <ele>351.3</ele>
        <time>2014-06-01T09:40:24.000Z</time>
      </trkpt>
      <trkpt lat="47.53454" lon="6.72765">
        <ele>351.5</ele>
        <time>2014-06-01T09:40:25.000Z</time>
      </trkpt>
      <trkpt lat="47.53452" lon="6.72767">
        <ele>351.5</ele>
        <time>2014-06-01T09:40:26.000Z</time>
      </trkpt>
      <trkpt lat="47.5345" lon="6.72769">
        <ele>352.1</ele>
        <time>2014-06-01T09:40:27.000Z</time>
      </trkpt>
      <trkpt lat="47.53447" lon="6.72771">
        <ele>352.5</ele>
        <time>2014-06-01T09:40:28.000Z</time>
      </trkpt>
      <trkpt lat="47.53446" lon="6.72773">
        <ele>352.7</ele>
        <time>2014-06-01T09:40:29.000Z</time>
      </trkpt>
      <trkpt lat="47.53442" lon="6.72777">
        <ele>352.8</ele>
        <time>2014-06-01T09:40:31.000Z</time>
      </trkpt>
      <trkpt lat="47.53441" lon="6.72778">
        <ele>352.9</ele>
        <time>2014-06-01T09:40:32.000Z</time>
      </trkpt>
      <trkpt lat="47.53438" lon="6.72782">
        <ele>353.5</ele>
        <time>2014-06-01T09:40:35.000Z</time>
      </trkpt>
      <trkpt lat="47.53437" lon="6.72783">
        <ele>353.7</ele>
        <time>2014-06-01T09:40:36.000Z</time>
      </trkpt>
      <trkpt lat="47.53434" lon="6.72786">
        <ele>354.4</ele>
        <time>2014-06-01T09:40:38.000Z</time>
      </trkpt>
      <trkpt lat="47.53433" lon="6.72788">
        <ele>354.7</ele>
        <time>2014-06-01T09:40:39.000Z</time>
      </trkpt>
      <trkpt lat="47.5343" lon="6.72791">
        <ele>356.5</ele>
        <time>2014-06-01T09:40:42.000Z</time>
      </trkpt>
      <trkpt lat="47.53429" lon="6.72792">
        <ele>356.7</ele>
        <time>2014-06-01T09:40:43.000Z</time>
      </trkpt>
      <trkpt lat="47.53425" lon="6.72794">
        <ele>357.5</ele>
        <time>2014-06-01T09:40:46.000Z</time>
      </trkpt>
      <trkpt lat="47.53424" lon="6.72795">
        <ele>357.8</ele>
        <time>2014-06-01T09:40:47.000Z</time>
      </trkpt>
      <trkpt lat="47.5342" lon="6.72797">
        <ele>358.1</ele>
        <time>2014-06-01T09:40:50.000Z</time>
      </trkpt>
      <trkpt lat="47.53419" lon="6.72798">
        <ele>358.2</ele>
        <time>2014-06-01T09:40:51.000Z</time>
      </trkpt>
      <trkpt lat="47.53416" lon="6.72802">
        <ele>357.2</ele>
        <time>2014-06-01T09:40:54.000Z</time>
      </trkpt>
      <trkpt lat="47.53415" lon="6.72803">
        <ele>357.7</ele>
        <time>2014-06-01T09:40:55.000Z</time>
      </trkpt>
      <trkpt lat="47.53412" lon="6.72806">
        <ele>356.7</ele>
        <time>2014-06-01T09:40:57.000Z</time>
      </trkpt>
      <trkpt lat="47.5341" lon="6.72807">
        <ele>356.5</ele>
        <time>2014-06-01T09:40:58.000Z</time>
      </trkpt>
      <trkpt lat="47.53404" lon="6.72822">
        <ele>356.2</ele>
        <time>2014-06-01T09:41:06.000Z</time>
      </trkpt>
      <trkpt lat="47.53402" lon="6.72825">
        <ele>357.2</ele>
        <time>2014-06-01T09:41:08.000Z</time>
      </trkpt>
      <trkpt lat="47.53401" lon="6.72828">
        <ele>358.3</ele>
        <time>2014-06-01T09:41:09.000Z</time>
      </trkpt>
      <trkpt lat="47.53398" lon="6.72832">
        <ele>359.9</ele>
        <time>2014-06-01T09:41:11.000Z</time>
      </trkpt>
      <trkpt lat="47.53396" lon="6.72834">
        <ele>360.7</ele>
        <time>2014-06-01T09:41:12.000Z</time>
      </trkpt>
      <trkpt lat="47.53393" lon="6.72838">
        <ele>361.8</ele>
        <time>2014-06-01T09:41:14.000Z</time>
      </trkpt>
      <trkpt lat="47.53391" lon="6.72839">
        <ele>362</ele>
        <time>2014-06-01T09:41:15.000Z</time>
      </trkpt>
      <trkpt lat="47.53388" lon="6.72843">
        <ele>361.8</ele>
        <time>2014-06-01T09:41:17.000Z</time>
      </trkpt>
      <trkpt lat="47.53387" lon="6.72845">
        <ele>360.9</ele>
        <time>2014-06-01T09:41:18.000Z</time>
      </trkpt>
      <trkpt lat="47.53385" lon="6.72848">
        <ele>360.4</ele>
        <time>2014-06-01T09:41:19.000Z</time>
      </trkpt>
      <trkpt lat="47.53383" lon="6.7285">
        <ele>359.1</ele>
        <time>2014-06-01T09:41:20.000Z</time>
      </trkpt>
      <trkpt lat="47.53382" lon="6.72853">
        <ele>358.4</ele>
        <time>2014-06-01T09:41:21.000Z</time>
      </trkpt>
      <trkpt lat="47.5338" lon="6.72856">
        <ele>359.6</ele>
        <time>2014-06-01T09:41:22.000Z</time>
      </trkpt>
      <trkpt lat="47.53378" lon="6.72859">
        <ele>359.9</ele>
        <time>2014-06-01T09:41:23.000Z</time>
      </trkpt>
      <trkpt lat="47.53377" lon="6.72861">
        <ele>360.1</ele>
        <time>2014-06-01T09:41:24.000Z</time>
      </trkpt>
      <trkpt lat="47.53375" lon="6.72864">
        <ele>360.2</ele>
        <time>2014-06-01T09:41:25.000Z</time>
      </trkpt>
      <trkpt lat="47.53374" lon="6.72867">
        <ele>360.8</ele>
        <time>2014-06-01T09:41:26.000Z</time>
      </trkpt>
      <trkpt lat="47.53373" lon="6.7287">
        <ele>360.5</ele>
        <time>2014-06-01T09:41:27.000Z</time>
      </trkpt>
      <trkpt lat="47.53371" lon="6.72874">
        <ele>361</ele>
        <time>2014-06-01T09:41:28.000Z</time>
      </trkpt>
      <trkpt lat="47.53369" lon="6.72877">
        <ele>361.3</ele>
        <time>2014-06-01T09:41:29.000Z</time>
      </trkpt>
      <trkpt lat="47.53367" lon="6.7288">
        <ele>362.4</ele>
        <time>2014-06-01T09:41:30.000Z</time>
      </trkpt>
      <trkpt lat="47.53365" lon="6.72882">
        <ele>363.9</ele>
        <time>2014-06-01T09:41:31.000Z</time>
      </trkpt>
      <trkpt lat="47.53363" lon="6.72885">
        <ele>364.3</ele>
        <time>2014-06-01T09:41:32.000Z</time>
      </trkpt>
      <trkpt lat="47.5336" lon="6.72889">
        <ele>365.6</ele>
        <time>2014-06-01T09:41:34.000Z</time>
      </trkpt>
      <trkpt lat="47.53358" lon="6.72891">
        <ele>366.7</ele>
        <time>2014-06-01T09:41:35.000Z</time>
      </trkpt>
      <trkpt lat="47.53356" lon="6.72893">
        <ele>367.7</ele>
        <time>2014-06-01T09:41:36.000Z</time>
      </trkpt>
      <trkpt lat="47.53354" lon="6.72895">
        <ele>368.6</ele>
        <time>2014-06-01T09:41:37.000Z</time>
      </trkpt>
      <trkpt lat="47.53352" lon="6.72897">
        <ele>370.1</ele>
        <time>2014-06-01T09:41:38.000Z</time>
      </trkpt>
      <trkpt lat="47.5335" lon="6.72899">
        <ele>370.2</ele>
        <time>2014-06-01T09:41:39.000Z</time>
      </trkpt>
      <trkpt lat="47.53348" lon="6.72902">
        <ele>371</ele>
        <time>2014-06-01T09:41:40.000Z</time>
      </trkpt>
      <trkpt lat="47.53346" lon="6.72904">
        <ele>371.8</ele>
        <time>2014-06-01T09:41:41.000Z</time>
      </trkpt>
      <trkpt lat="47.53344" lon="6.72906">
        <ele>371.4</ele>
        <time>2014-06-01T09:41:42.000Z</time>
      </trkpt>
      <trkpt lat="47.53342" lon="6.72908">
        <ele>371.7</ele>
        <time>2014-06-01T09:41:43.000Z</time>
      </trkpt>
      <trkpt lat="47.5334" lon="6.72911">
        <ele>372.1</ele>
        <time>2014-06-01T09:41:44.000Z</time>
      </trkpt>
      <trkpt lat="47.53338" lon="6.72913">
        <ele>372.3</ele>
        <time>2014-06-01T09:41:45.000Z</time>
      </trkpt>
      <trkpt lat="47.53335" lon="6.72915">
        <ele>371.8</ele>
        <time>2014-06-01T09:41:46.000Z</time>
      </trkpt>
      <trkpt lat="47.53333" lon="6.72917">
        <ele>373.3</ele>
        <time>2014-06-01T09:41:47.000Z</time>
      </trkpt>
      <trkpt lat="47.53331" lon="6.72919">
        <ele>374.1</ele>
        <time>2014-06-01T09:41:48.000Z</time>
      </trkpt>
      <trkpt lat="47.53329" lon="6.72921">
        <ele>373.8</ele>
        <time>2014-06-01T09:41:49.000Z</time>
      </trkpt>
      <trkpt lat="47.53326" lon="6.72925">
        <ele>375.5</ele>
        <time>2014-06-01T09:41:51.000Z</time>
      </trkpt>
      <trkpt lat="47.53324" lon="6.72926">
        <ele>376.3</ele>
        <time>2014-06-01T09:41:52.000Z</time>
      </trkpt>
      <trkpt lat="47.53321" lon="6.7293">
        <ele>377.5</ele>
        <time>2014-06-01T09:41:55.000Z</time>
      </trkpt>
      <trkpt lat="47.5332" lon="6.72931">
        <ele>376.7</ele>
        <time>2014-06-01T09:41:56.000Z</time>
      </trkpt>
      <trkpt lat="47.53318" lon="6.72933">
        <ele>375.4</ele>
        <time>2014-06-01T09:41:58.000Z</time>
      </trkpt>
      <trkpt lat="47.5331" lon="6.7294">
        <ele>367.5</ele>
        <time>2014-06-01T09:42:06.000Z</time>
      </trkpt>
      <trkpt lat="47.53307" lon="6.72944">
        <ele>366.5</ele>
        <time>2014-06-01T09:42:09.000Z</time>
      </trkpt>
      <trkpt lat="47.53306" lon="6.72945">
        <ele>366.7</ele>
        <time>2014-06-01T09:42:10.000Z</time>
      </trkpt>
      <trkpt lat="47.53302" lon="6.72948">
        <ele>366.5</ele>
        <time>2014-06-01T09:42:12.000Z</time>
      </trkpt>
      <trkpt lat="47.533" lon="6.7295">
        <ele>367.2</ele>
        <time>2014-06-01T09:42:13.000Z</time>
      </trkpt>
      <trkpt lat="47.53296" lon="6.72954">
        <ele>367.7</ele>
        <time>2014-06-01T09:42:15.000Z</time>
      </trkpt>
      <trkpt lat="47.53295" lon="6.72956">
        <ele>367.3</ele>
        <time>2014-06-01T09:42:16.000Z</time>
      </trkpt>
      <trkpt lat="47.53291" lon="6.7296">
        <ele>367.9</ele>
        <time>2014-06-01T09:42:18.000Z</time>
      </trkpt>
      <trkpt lat="47.5329" lon="6.72962">
        <ele>367.9</ele>
        <time>2014-06-01T09:42:19.000Z</time>
      </trkpt>
      <trkpt lat="47.53287" lon="6.72966">
        <ele>368</ele>
        <time>2014-06-01T09:42:21.000Z</time>
      </trkpt>
      <trkpt lat="47.53286" lon="6.72967">
        <ele>368.1</ele>
        <time>2014-06-01T09:42:22.000Z</time>
      </trkpt>
      <trkpt lat="47.53282" lon="6.7297">
        <ele>368.1</ele>
        <time>2014-06-01T09:42:51.000Z</time>
      </trkpt>
      <trkpt lat="47.53281" lon="6.72971">
        <ele>368.3</ele>
        <time>2014-06-01T09:42:52.000Z</time>
      </trkpt>
      <trkpt lat="47.53278" lon="6.72972">
        <ele>367.7</ele>
        <time>2014-06-01T09:42:54.000Z</time>
      </trkpt>
      <trkpt lat="47.53275" lon="6.72973">
        <ele>367.4</ele>
        <time>2014-06-01T09:42:55.000Z</time>
      </trkpt>
      <trkpt lat="47.53273" lon="6.72975">
        <ele>367.4</ele>
        <time>2014-06-01T09:42:56.000Z</time>
      </trkpt>
      <trkpt lat="47.5327" lon="6.72977">
        <ele>367.4</ele>
        <time>2014-06-01T09:42:57.000Z</time>
      </trkpt>
      <trkpt lat="47.53268" lon="6.72978">
        <ele>367.5</ele>
        <time>2014-06-01T09:42:58.000Z</time>
      </trkpt>
      <trkpt lat="47.53255" lon="6.72988">
        <ele>366.6</ele>
        <time>2014-06-01T09:43:05.750Z</time>
      </trkpt>
      <trkpt lat="47.53253" lon="6.72989">
        <ele>366.4</ele>
        <time>2014-06-01T09:43:07.000Z</time>
      </trkpt>
      <trkpt lat="47.5325" lon="6.72991">
        <ele>367.2</ele>
        <time>2014-06-01T09:43:08.000Z</time>
      </trkpt>
      <trkpt lat="47.53248" lon="6.72993">
        <ele>367.2</ele>
        <time>2014-06-01T09:43:09.000Z</time>
      </trkpt>
      <trkpt lat="47.53246" lon="6.72995">
        <ele>367.4</ele>
        <time>2014-06-01T09:43:10.000Z</time>
      </trkpt>
      <trkpt lat="47.53244" lon="6.72997">
        <ele>367.5</ele>
        <time>2014-06-01T09:43:11.000Z</time>
      </trkpt>
      <trkpt lat="47.53242" lon="6.72999">
        <ele>368.1</ele>
        <time>2014-06-01T09:43:12.000Z</time>
      </trkpt>
      <trkpt lat="47.5324" lon="6.73">
        <ele>368.5</ele>
        <time>2014-06-01T09:43:13.000Z</time>
      </trkpt>
      <trkpt lat="47.53237" lon="6.73002">
        <ele>370.1</ele>
        <time>2014-06-01T09:43:14.000Z</time>
      </trkpt>
      <trkpt lat="47.53235" lon="6.73004">
        <ele>370.7</ele>
        <time>2014-06-01T09:43:15.000Z</time>
      </trkpt>
      <trkpt lat="47.53232" lon="6.73006">
        <ele>370.8</ele>
        <time>2014-06-01T09:43:16.000Z</time>
      </trkpt>
      <trkpt lat="47.5323" lon="6.73008">
        <ele>371</ele>
        <time>2014-06-01T09:43:17.000Z</time>
      </trkpt>
      <trkpt lat="47.53227" lon="6.7301">
        <ele>371.6</ele>
        <time>2014-06-01T09:43:18.000Z</time>
      </trkpt>
      <trkpt lat="47.53225" lon="6.73011">
        <ele>371.9</ele>
        <time>2014-06-01T09:43:19.000Z</time>
      </trkpt>
      <trkpt lat="47.53223" lon="6.73013">
        <ele>372</ele>
        <time>2014-06-01T09:43:20.000Z</time>
      </trkpt>
      <trkpt lat="47.53221" lon="6.73015">
        <ele>372.3</ele>
        <time>2014-06-01T09:43:21.000Z</time>
      </trkpt>
      <trkpt lat="47.53219" lon="6.73017">
        <ele>372.4</ele>
        <time>2014-06-01T09:43:22.000Z</time>
      </trkpt>
      <trkpt lat="47.53216" lon="6.73019">
        <ele>371.7</ele>
        <time>2014-06-01T09:43:24.000Z</time>
      </trkpt>
      <trkpt lat="47.53214" lon="6.7302">
        <ele>371.8</ele>
        <time>2014-06-01T09:43:25.000Z</time>
      </trkpt>
      <trkpt lat="47.53211" lon="6.73022">
        <ele>371.3</ele>
        <time>2014-06-01T09:43:27.000Z</time>
      </trkpt>
      <trkpt lat="47.53209" lon="6.73023">
        <ele>371.8</ele>
        <time>2014-06-01T09:43:28.000Z</time>
      </trkpt>
      <trkpt lat="47.53205" lon="6.73026">
        <ele>372.7</ele>
        <time>2014-06-01T09:43:30.000Z</time>
      </trkpt>
      <trkpt lat="47.53204" lon="6.73028">
        <ele>373.5</ele>
        <time>2014-06-01T09:43:31.000Z</time>
      </trkpt>
      <trkpt lat="47.53201" lon="6.73032">
        <ele>373.8</ele>
        <time>2014-06-01T09:43:33.000Z</time>
      </trkpt>
      <trkpt lat="47.53199" lon="6.73034">
        <ele>374.7</ele>
        <time>2014-06-01T09:43:34.000Z</time>
      </trkpt>
      <trkpt lat="47.53196" lon="6.73037">
        <ele>375.1</ele>
        <time>2014-06-01T09:43:36.000Z</time>
      </trkpt>
      <trkpt lat="47.53195" lon="6.73039">
        <ele>374.8</ele>
        <time>2014-06-01T09:43:37.000Z</time>
      </trkpt>
      <trkpt lat="47.53192" lon="6.73042">
        <ele>374.6</ele>
        <time>2014-06-01T09:43:39.000Z</time>
      </trkpt>
      <trkpt lat="47.5319" lon="6.73043">
        <ele>375</ele>
        <time>2014-06-01T09:43:40.000Z</time>
      </trkpt>
      <trkpt lat="47.53187" lon="6.73046">
        <ele>374.8</ele>
        <time>2014-06-01T09:43:42.000Z</time>
      </trkpt>
      <trkpt lat="47.53186" lon="6.73047">
        <ele>374.5</ele>
        <time>2014-06-01T09:43:43.000Z</time>
      </trkpt>
      <trkpt lat="47.53182" lon="6.7305">
        <ele>375.1</ele>
        <time>2014-06-01T09:43:46.000Z</time>
      </trkpt>
      <trkpt lat="47.53181" lon="6.73051">
        <ele>375.4</ele>
        <time>2014-06-01T09:43:47.000Z</time>
      </trkpt>
      <trkpt lat="47.53178" lon="6.73055">
        <ele>375.4</ele>
        <time>2014-06-01T09:43:49.000Z</time>
      </trkpt>
      <trkpt lat="47.53176" lon="6.73058">
        <ele>376.1</ele>
        <time>2014-06-01T09:43:50.000Z</time>
      </trkpt>
      <trkpt lat="47.53174" lon="6.73061">
        <ele>375.5</ele>
        <time>2014-06-01T09:43:51.000Z</time>
      </trkpt>
      <trkpt lat="47.53172" lon="6.73063">
        <ele>375.1</ele>
        <time>2014-06-01T09:43:52.000Z</time>
      </trkpt>
      <trkpt lat="47.53169" lon="6.73067">
        <ele>375</ele>
        <time>2014-06-01T09:43:54.000Z</time>
      </trkpt>
      <trkpt lat="47.53167" lon="6.73068">
        <ele>375.3</ele>
        <time>2014-06-01T09:43:55.000Z</time>
      </trkpt>
      <trkpt lat="47.53164" lon="6.73072">
        <ele>375.5</ele>
        <time>2014-06-01T09:43:57.000Z</time>
      </trkpt>
      <trkpt lat="47.53162" lon="6.73075">
        <ele>375.7</ele>
        <time>2014-06-01T09:43:58.000Z</time>
      </trkpt>
      <trkpt lat="47.53151" lon="6.73095">
        <ele>373.2</ele>
        <time>2014-06-01T09:44:06.000Z</time>
      </trkpt>
      <trkpt lat="47.53148" lon="6.731">
        <ele>373.5</ele>
        <time>2014-06-01T09:44:08.000Z</time>
      </trkpt>
      <trkpt lat="47.53147" lon="6.73103">
        <ele>371.6</ele>
        <time>2014-06-01T09:44:09.000Z</time>
      </trkpt>
      <trkpt lat="47.53145" lon="6.73105">
        <ele>371.7</ele>
        <time>2014-06-01T09:44:10.000Z</time>
      </trkpt>
      <trkpt lat="47.53143" lon="6.73108">
        <ele>371.8</ele>
        <time>2014-06-01T09:44:10.999Z</time>
      </trkpt>
      <trkpt lat="47.53142" lon="6.73111">
        <ele>371.7</ele>
        <time>2014-06-01T09:44:12.000Z</time>
      </trkpt>
      <trkpt lat="47.5314" lon="6.73113">
        <ele>372.2</ele>
        <time>2014-06-01T09:44:13.000Z</time>
      </trkpt>
      <trkpt lat="47.53139" lon="6.73116">
        <ele>372.2</ele>
        <time>2014-06-01T09:44:14.000Z</time>
      </trkpt>
      <trkpt lat="47.53137" lon="6.73119">
        <ele>372.5</ele>
        <time>2014-06-01T09:44:15.000Z</time>
      </trkpt>
      <trkpt lat="47.53136" lon="6.73121">
        <ele>372.8</ele>
        <time>2014-06-01T09:44:16.000Z</time>
      </trkpt>
      <trkpt lat="47.53134" lon="6.73124">
        <ele>373.3</ele>
        <time>2014-06-01T09:44:17.000Z</time>
      </trkpt>
      <trkpt lat="47.53133" lon="6.73127">
        <ele>373.7</ele>
        <time>2014-06-01T09:44:18.000Z</time>
      </trkpt>
      <trkpt lat="47.53131" lon="6.7313">
        <ele>372.6</ele>
        <time>2014-06-01T09:44:19.000Z</time>
      </trkpt>
      <trkpt lat="47.53129" lon="6.73133">
        <ele>372.8</ele>
        <time>2014-06-01T09:44:20.000Z</time>
      </trkpt>
      <trkpt lat="47.53127" lon="6.73136">
        <ele>372.3</ele>
        <time>2014-06-01T09:44:21.000Z</time>
      </trkpt>
      <trkpt lat="47.53126" lon="6.73139">
        <ele>372.3</ele>
        <time>2014-06-01T09:44:22.000Z</time>
      </trkpt>
      <trkpt lat="47.53124" lon="6.73143">
        <ele>371.9</ele>
        <time>2014-06-01T09:44:23.000Z</time>
      </trkpt>
      <trkpt lat="47.53122" lon="6.73146">
        <ele>372.2</ele>
        <time>2014-06-01T09:44:24.000Z</time>
      </trkpt>
      <trkpt lat="47.53121" lon="6.73149">
        <ele>372.7</ele>
        <time>2014-06-01T09:44:25.000Z</time>
      </trkpt>
      <trkpt lat="47.53119" lon="6.73152">
        <ele>373.5</ele>
        <time>2014-06-01T09:44:26.000Z</time>
      </trkpt>
      <trkpt lat="47.53117" lon="6.73156">
        <ele>374.1</ele>
        <time>2014-06-01T09:44:27.000Z</time>
      </trkpt>
      <trkpt lat="47.53115" lon="6.73159">
        <ele>374.6</ele>
        <time>2014-06-01T09:44:28.000Z</time>
      </trkpt>
      <trkpt lat="47.53113" lon="6.73162">
        <ele>376.9</ele>
        <time>2014-06-01T09:44:29.000Z</time>
      </trkpt>
      <trkpt lat="47.53111" lon="6.73166">
        <ele>376.7</ele>
        <time>2014-06-01T09:44:30.000Z</time>
      </trkpt>
      <trkpt lat="47.5311" lon="6.73169">
        <ele>377</ele>
        <time>2014-06-01T09:44:31.000Z</time>
      </trkpt>
      <trkpt lat="47.53108" lon="6.73173">
        <ele>376.6</ele>
        <time>2014-06-01T09:44:32.000Z</time>
      </trkpt>
      <trkpt lat="47.53106" lon="6.73176">
        <ele>376.4</ele>
        <time>2014-06-01T09:44:33.000Z</time>
      </trkpt>
      <trkpt lat="47.53104" lon="6.73179">
        <ele>376.3</ele>
        <time>2014-06-01T09:44:34.000Z</time>
      </trkpt>
      <trkpt lat="47.53103" lon="6.73183">
        <ele>376.4</ele>
        <time>2014-06-01T09:44:35.000Z</time>
      </trkpt>
      <trkpt lat="47.53101" lon="6.73187">
        <ele>376.3</ele>
        <time>2014-06-01T09:44:36.000Z</time>
      </trkpt>
      <trkpt lat="47.53099" lon="6.73191">
        <ele>377</ele>
        <time>2014-06-01T09:44:37.000Z</time>
      </trkpt>
      <trkpt lat="47.53096" lon="6.73195">
        <ele>376.6</ele>
        <time>2014-06-01T09:44:38.000Z</time>
      </trkpt>
      <trkpt lat="47.53094" lon="6.73199">
        <ele>376.3</ele>
        <time>2014-06-01T09:44:39.000Z</time>
      </trkpt>
      <trkpt lat="47.53091" lon="6.73204">
        <ele>376.6</ele>
        <time>2014-06-01T09:44:40.000Z</time>
      </trkpt>
      <trkpt lat="47.53088" lon="6.73209">
        <ele>376.8</ele>
        <time>2014-06-01T09:44:41.000Z</time>
      </trkpt>
      <trkpt lat="47.53084" lon="6.73218">
        <ele>376.9</ele>
        <time>2014-06-01T09:44:42.000Z</time>
      </trkpt>
      <trkpt lat="47.53081" lon="6.73224">
        <ele>377.1</ele>
        <time>2014-06-01T09:44:43.000Z</time>
      </trkpt>
      <trkpt lat="47.53077" lon="6.73229">
        <ele>376</ele>
        <time>2014-06-01T09:44:44.000Z</time>
      </trkpt>
      <trkpt lat="47.53074" lon="6.73234">
        <ele>376.1</ele>
        <time>2014-06-01T09:44:45.000Z</time>
      </trkpt>
      <trkpt lat="47.53071" lon="6.73241">
        <ele>377</ele>
        <time>2014-06-01T09:44:46.000Z</time>
      </trkpt>
      <trkpt lat="47.53067" lon="6.73248">
        <ele>376.8</ele>
        <time>2014-06-01T09:44:47.000Z</time>
      </trkpt>
      <trkpt lat="47.53063" lon="6.73255">
        <ele>376.8</ele>
        <time>2014-06-01T09:44:48.000Z</time>
      </trkpt>
      <trkpt lat="47.53059" lon="6.7326">
        <ele>376.1</ele>
        <time>2014-06-01T09:44:49.000Z</time>
      </trkpt>
      <trkpt lat="47.53056" lon="6.73266">
        <ele>376</ele>
        <time>2014-06-01T09:44:50.000Z</time>
      </trkpt>
      <trkpt lat="47.53052" lon="6.73272">
        <ele>375.1</ele>
        <time>2014-06-01T09:44:51.000Z</time>
      </trkpt>
      <trkpt lat="47.53049" lon="6.73278">
        <ele>375.8</ele>
        <time>2014-06-01T09:44:52.000Z</time>
      </trkpt>
      <trkpt lat="47.53046" lon="6.73284">
        <ele>376</ele>
        <time>2014-06-01T09:44:53.000Z</time>
      </trkpt>
      <trkpt lat="47.53042" lon="6.7329">
        <ele>376</ele>
        <time>2014-06-01T09:44:54.000Z</time>
      </trkpt>
      <trkpt lat="47.53039" lon="6.73296">
        <ele>375.9</ele>
        <time>2014-06-01T09:44:55.000Z</time>
      </trkpt>
      <trkpt lat="47.53035" lon="6.73302">
        <ele>375.9</ele>
        <time>2014-06-01T09:44:56.000Z</time>
      </trkpt>
      <trkpt lat="47.53032" lon="6.73308">
        <ele>376.7</ele>
        <time>2014-06-01T09:44:57.000Z</time>
      </trkpt>
      <trkpt lat="47.53028" lon="6.73314">
        <ele>377.9</ele>
        <time>2014-06-01T09:44:58.000Z</time>
      </trkpt>
      <trkpt lat="47.53009" lon="6.73353">
        <ele>378.5</ele>
        <time>2014-06-01T09:45:06.000Z</time>
      </trkpt>
      <trkpt lat="47.53006" lon="6.73356">
        <ele>378.2</ele>
        <time>2014-06-01T09:45:07.000Z</time>
      </trkpt>
      <trkpt lat="47.53001" lon="6.73358">
        <ele>378.6</ele>
        <time>2014-06-01T09:45:08.000Z</time>
      </trkpt>
      <trkpt lat="47.52999" lon="6.73362">
        <ele>378.4</ele>
        <time>2014-06-01T09:45:09.000Z</time>
      </trkpt>
      <trkpt lat="47.52997" lon="6.73365">
        <ele>378.6</ele>
        <time>2014-06-01T09:45:10.000Z</time>
      </trkpt>
      <trkpt lat="47.52994" lon="6.73369">
        <ele>379</ele>
        <time>2014-06-01T09:45:11.000Z</time>
      </trkpt>
      <trkpt lat="47.52992" lon="6.73372">
        <ele>379.3</ele>
        <time>2014-06-01T09:45:12.000Z</time>
      </trkpt>
      <trkpt lat="47.52989" lon="6.73375">
        <ele>379.3</ele>
        <time>2014-06-01T09:45:13.000Z</time>
      </trkpt>
      <trkpt lat="47.52986" lon="6.73379">
        <ele>379.3</ele>
        <time>2014-06-01T09:45:14.000Z</time>
      </trkpt>
      <trkpt lat="47.52983" lon="6.73382">
        <ele>379.4</ele>
        <time>2014-06-01T09:45:15.000Z</time>
      </trkpt>
      <trkpt lat="47.5298" lon="6.73385">
        <ele>379.7</ele>
        <time>2014-06-01T09:45:16.000Z</time>
      </trkpt>
      <trkpt lat="47.52976" lon="6.73387">
        <ele>379.9</ele>
        <time>2014-06-01T09:45:17.000Z</time>
      </trkpt>
      <trkpt lat="47.52973" lon="6.7339">
        <ele>380.1</ele>
        <time>2014-06-01T09:45:18.000Z</time>
      </trkpt>
      <trkpt lat="47.52971" lon="6.73394">
        <ele>378.7</ele>
        <time>2014-06-01T09:45:19.000Z</time>
      </trkpt>
      <trkpt lat="47.52971" lon="6.73398">
        <ele>379</ele>
        <time>2014-06-01T09:45:20.000Z</time>
      </trkpt>
      <trkpt lat="47.52973" lon="6.73403">
        <ele>380.1</ele>
        <time>2014-06-01T09:45:21.000Z</time>
      </trkpt>
      <trkpt lat="47.52975" lon="6.73407">
        <ele>380.1</ele>
        <time>2014-06-01T09:45:22.000Z</time>
      </trkpt>
      <trkpt lat="47.52978" lon="6.73411">
        <ele>379.8</ele>
        <time>2014-06-01T09:45:23.000Z</time>
      </trkpt>
      <trkpt lat="47.52981" lon="6.73415">
        <ele>380.3</ele>
        <time>2014-06-01T09:45:24.000Z</time>
      </trkpt>
      <trkpt lat="47.52985" lon="6.73418">
        <ele>380.9</ele>
        <time>2014-06-01T09:45:25.000Z</time>
      </trkpt>
      <trkpt lat="47.52987" lon="6.73421">
        <ele>382.2</ele>
        <time>2014-06-01T09:45:26.000Z</time>
      </trkpt>
      <trkpt lat="47.5299" lon="6.73424">
        <ele>382.4</ele>
        <time>2014-06-01T09:45:27.000Z</time>
      </trkpt>
      <trkpt lat="47.52992" lon="6.73427">
        <ele>382.8</ele>
        <time>2014-06-01T09:45:28.000Z</time>
      </trkpt>
      <trkpt lat="47.52993" lon="6.73431">
        <ele>382.5</ele>
        <time>2014-06-01T09:45:29.000Z</time>
      </trkpt>
      <trkpt lat="47.52995" lon="6.73435">
        <ele>382.4</ele>
        <time>2014-06-01T09:45:30.000Z</time>
      </trkpt>
      <trkpt lat="47.52995" lon="6.73439">
        <ele>382.8</ele>
        <time>2014-06-01T09:45:31.000Z</time>
      </trkpt>
      <trkpt lat="47.52996" lon="6.73443">
        <ele>382.7</ele>
        <time>2014-06-01T09:45:32.000Z</time>
      </trkpt>
      <trkpt lat="47.52998" lon="6.73447">
        <ele>382.1</ele>
        <time>2014-06-01T09:45:33.000Z</time>
      </trkpt>
      <trkpt lat="47.52999" lon="6.73451">
        <ele>382.8</ele>
        <time>2014-06-01T09:45:34.000Z</time>
      </trkpt>
      <trkpt lat="47.53" lon="6.73454">
        <ele>383.2</ele>
        <time>2014-06-01T09:45:35.000Z</time>
      </trkpt>
      <trkpt lat="47.53001" lon="6.73458">
        <ele>383.6</ele>
        <time>2014-06-01T09:45:36.000Z</time>
      </trkpt>
      <trkpt lat="47.53002" lon="6.73461">
        <ele>384.3</ele>
        <time>2014-06-01T09:45:37.000Z</time>
      </trkpt>
      <trkpt lat="47.53003" lon="6.73464">
        <ele>385.4</ele>
        <time>2014-06-01T09:45:38.000Z</time>
      </trkpt>
      <trkpt lat="47.53004" lon="6.73468">
        <ele>384.4</ele>
        <time>2014-06-01T09:45:39.000Z</time>
      </trkpt>
      <trkpt lat="47.53005" lon="6.73472">
        <ele>384.3</ele>
        <time>2014-06-01T09:45:40.000Z</time>
      </trkpt>
      <trkpt lat="47.53006" lon="6.73476">
        <ele>384.4</ele>
        <time>2014-06-01T09:45:41.000Z</time>
      </trkpt>
      <trkpt lat="47.53007" lon="6.7348">
        <ele>384.5</ele>
        <time>2014-06-01T09:45:42.000Z</time>
      </trkpt>
      <trkpt lat="47.53008" lon="6.73484">
        <ele>384.8</ele>
        <time>2014-06-01T09:45:43.000Z</time>
      </trkpt>
      <trkpt lat="47.53009" lon="6.73488">
        <ele>384.9</ele>
        <time>2014-06-01T09:45:44.000Z</time>
      </trkpt>
      <trkpt lat="47.5301" lon="6.73491">
        <ele>385.4</ele>
        <time>2014-06-01T09:45:45.000Z</time>
      </trkpt>
      <trkpt lat="47.53011" lon="6.73494">
        <ele>385.6</ele>
        <time>2014-06-01T09:45:46.000Z</time>
      </trkpt>
      <trkpt lat="47.53013" lon="6.73498">
        <ele>385.6</ele>
        <time>2014-06-01T09:45:47.000Z</time>
      </trkpt>
      <trkpt lat="47.53015" lon="6.73501">
        <ele>386.6</ele>
        <time>2014-06-01T09:45:48.000Z</time>
      </trkpt>
      <trkpt lat="47.53016" lon="6.73504">
        <ele>386.2</ele>
        <time>2014-06-01T09:45:49.000Z</time>
      </trkpt>
      <trkpt lat="47.53018" lon="6.73507">
        <ele>386.6</ele>
        <time>2014-06-01T09:45:50.000Z</time>
      </trkpt>
      <trkpt lat="47.5302" lon="6.7351">
        <ele>387.1</ele>
        <time>2014-06-01T09:45:51.000Z</time>
      </trkpt>
      <trkpt lat="47.53021" lon="6.73513">
        <ele>387.5</ele>
        <time>2014-06-01T09:45:52.000Z</time>
      </trkpt>
      <trkpt lat="47.53023" lon="6.73516">
        <ele>387.7</ele>
        <time>2014-06-01T09:45:53.000Z</time>
      </trkpt>
      <trkpt lat="47.53025" lon="6.73519">
        <ele>387.5</ele>
        <time>2014-06-01T09:45:54.000Z</time>
      </trkpt>
      <trkpt lat="47.53027" lon="6.73521">
        <ele>387.5</ele>
        <time>2014-06-01T09:45:55.000Z</time>
      </trkpt>
      <trkpt lat="47.5303" lon="6.73524">
        <ele>388.1</ele>
        <time>2014-06-01T09:45:56.000Z</time>
      </trkpt>
      <trkpt lat="47.53032" lon="6.73526">
        <ele>388.4</ele>
        <time>2014-06-01T09:45:57.000Z</time>
      </trkpt>
      <trkpt lat="47.53034" lon="6.73528">
        <ele>388.3</ele>
        <time>2014-06-01T09:45:58.000Z</time>
      </trkpt>
      <trkpt lat="47.5305" lon="6.7355">
        <ele>389</ele>
        <time>2014-06-01T09:46:06.000Z</time>
      </trkpt>
      <trkpt lat="47.53052" lon="6.73553">
        <ele>390.5</ele>
        <time>2014-06-01T09:46:07.000Z</time>
      </trkpt>
      <trkpt lat="47.53054" lon="6.73556">
        <ele>390.4</ele>
        <time>2014-06-01T09:46:08.000Z</time>
      </trkpt>
      <trkpt lat="47.53056" lon="6.73559">
        <ele>390.6</ele>
        <time>2014-06-01T09:46:09.000Z</time>
      </trkpt>
      <trkpt lat="47.53059" lon="6.73562">
        <ele>390.7</ele>
        <time>2014-06-01T09:46:10.000Z</time>
      </trkpt>
      <trkpt lat="47.53061" lon="6.73565">
        <ele>390.9</ele>
        <time>2014-06-01T09:46:11.000Z</time>
      </trkpt>
      <trkpt lat="47.53063" lon="6.73568">
        <ele>390.5</ele>
        <time>2014-06-01T09:46:12.000Z</time>
      </trkpt>
      <trkpt lat="47.53064" lon="6.73572">
        <ele>390.9</ele>
        <time>2014-06-01T09:46:13.000Z</time>
      </trkpt>
      <trkpt lat="47.53066" lon="6.73575">
        <ele>391.1</ele>
        <time>2014-06-01T09:46:14.000Z</time>
      </trkpt>
      <trkpt lat="47.53068" lon="6.73579">
        <ele>391.2</ele>
        <time>2014-06-01T09:46:15.000Z</time>
      </trkpt>
      <trkpt lat="47.5307" lon="6.73582">
        <ele>391.6</ele>
        <time>2014-06-01T09:46:16.000Z</time>
      </trkpt>
      <trkpt lat="47.53072" lon="6.73585">
        <ele>391.3</ele>
        <time>2014-06-01T09:46:17.000Z</time>
      </trkpt>
      <trkpt lat="47.53074" lon="6.73588">
        <ele>391.6</ele>
        <time>2014-06-01T09:46:18.000Z</time>
      </trkpt>
      <trkpt lat="47.53076" lon="6.73591">
        <ele>390.4</ele>
        <time>2014-06-01T09:46:19.000Z</time>
      </trkpt>
      <trkpt lat="47.53078" lon="6.73594">
        <ele>391.2</ele>
        <time>2014-06-01T09:46:20.000Z</time>
      </trkpt>
      <trkpt lat="47.5308" lon="6.73597">
        <ele>391.7</ele>
        <time>2014-06-01T09:46:21.000Z</time>
      </trkpt>
      <trkpt lat="47.53082" lon="6.73601">
        <ele>391.8</ele>
        <time>2014-06-01T09:46:22.000Z</time>
      </trkpt>
      <trkpt lat="47.53084" lon="6.73604">
        <ele>392.1</ele>
        <time>2014-06-01T09:46:23.000Z</time>
      </trkpt>
      <trkpt lat="47.53086" lon="6.73607">
        <ele>392.1</ele>
        <time>2014-06-01T09:46:24.000Z</time>
      </trkpt>
      <trkpt lat="47.53088" lon="6.7361">
        <ele>391.8</ele>
        <time>2014-06-01T09:46:25.000Z</time>
      </trkpt>
      <trkpt lat="47.53091" lon="6.73614">
        <ele>392</ele>
        <time>2014-06-01T09:46:26.000Z</time>
      </trkpt>
      <trkpt lat="47.53092" lon="6.73619">
        <ele>387.8</ele>
        <time>2014-06-01T09:46:28.000Z</time>
      </trkpt>
      <trkpt lat="47.53092" lon="6.73622">
        <ele>388.9</ele>
        <time>2014-06-01T09:46:29.000Z</time>
      </trkpt>
      <trkpt lat="47.53095" lon="6.73626">
        <ele>390</ele>
        <time>2014-06-01T09:46:31.000Z</time>
      </trkpt>
      <trkpt lat="47.53097" lon="6.73629">
        <ele>389.8</ele>
        <time>2014-06-01T09:46:32.000Z</time>
      </trkpt>
      <trkpt lat="47.53099" lon="6.73631">
        <ele>390.1</ele>
        <time>2014-06-01T09:46:33.000Z</time>
      </trkpt>
      <trkpt lat="47.53101" lon="6.73633">
        <ele>390.4</ele>
        <time>2014-06-01T09:46:34.000Z</time>
      </trkpt>
      <trkpt lat="47.53105" lon="6.73635">
        <ele>390.6</ele>
        <time>2014-06-01T09:46:36.000Z</time>
      </trkpt>
      <trkpt lat="47.53107" lon="6.73635">
        <ele>392.1</ele>
        <time>2014-06-01T09:46:37.000Z</time>
      </trkpt>
      <trkpt lat="47.5311" lon="6.73636">
        <ele>394.3</ele>
        <time>2014-06-01T09:46:38.000Z</time>
      </trkpt>
      <trkpt lat="47.53113" lon="6.73636">
        <ele>395.9</ele>
        <time>2014-06-01T09:46:39.000Z</time>
      </trkpt>
      <trkpt lat="47.53116" lon="6.73636">
        <ele>397.8</ele>
        <time>2014-06-01T09:46:40.000Z</time>
      </trkpt>
      <trkpt lat="47.53118" lon="6.73637">
        <ele>396.8</ele>
        <time>2014-06-01T09:46:41.000Z</time>
      </trkpt>
      <trkpt lat="47.53121" lon="6.73637">
        <ele>397.1</ele>
        <time>2014-06-01T09:46:42.000Z</time>
      </trkpt>
      <trkpt lat="47.53124" lon="6.73638">
        <ele>399.2</ele>
        <time>2014-06-01T09:46:43.000Z</time>
      </trkpt>
      <trkpt lat="47.53127" lon="6.73639">
        <ele>399.6</ele>
        <time>2014-06-01T09:46:44.000Z</time>
      </trkpt>
      <trkpt lat="47.5313" lon="6.7364">
        <ele>400</ele>
        <time>2014-06-01T09:46:45.000Z</time>
      </trkpt>
      <trkpt lat="47.53133" lon="6.7364">
        <ele>400.2</ele>
        <time>2014-06-01T09:46:46.000Z</time>
      </trkpt>
      <trkpt lat="47.53135" lon="6.73642">
        <ele>399.8</ele>
        <time>2014-06-01T09:46:47.000Z</time>
      </trkpt>
      <trkpt lat="47.53138" lon="6.73643">
        <ele>400.8</ele>
        <time>2014-06-01T09:46:48.000Z</time>
      </trkpt>
      <trkpt lat="47.53141" lon="6.73646">
        <ele>400.8</ele>
        <time>2014-06-01T09:46:49.000Z</time>
      </trkpt>
      <trkpt lat="47.53144" lon="6.73648">
        <ele>401.4</ele>
        <time>2014-06-01T09:46:50.000Z</time>
      </trkpt>
      <trkpt lat="47.53147" lon="6.7365">
        <ele>401.8</ele>
        <time>2014-06-01T09:46:51.000Z</time>
      </trkpt>
      <trkpt lat="47.5315" lon="6.73653">
        <ele>402</ele>
        <time>2014-06-01T09:46:52.000Z</time>
      </trkpt>
      <trkpt lat="47.53152" lon="6.73655">
        <ele>402.3</ele>
        <time>2014-06-01T09:46:53.000Z</time>
      </trkpt>
      <trkpt lat="47.53154" lon="6.73657">
        <ele>402.6</ele>
        <time>2014-06-01T09:46:54.000Z</time>
      </trkpt>
      <trkpt lat="47.53156" lon="6.7366">
        <ele>403.8</ele>
        <time>2014-06-01T09:46:55.000Z</time>
      </trkpt>
      <trkpt lat="47.53158" lon="6.73665">
        <ele>403.2</ele>
        <time>2014-06-01T09:46:57.000Z</time>
      </trkpt>
      <trkpt lat="47.53159" lon="6.73668">
        <ele>402.4</ele>
        <time>2014-06-01T09:46:58.000Z</time>
      </trkpt>
      <trkpt lat="47.53169" lon="6.73686">
        <ele>398.4</ele>
        <time>2014-06-01T09:47:06.000Z</time>
      </trkpt>
      <trkpt lat="47.53171" lon="6.73689">
        <ele>399.9</ele>
        <time>2014-06-01T09:47:07.000Z</time>
      </trkpt>
      <trkpt lat="47.53172" lon="6.73692">
        <ele>399</ele>
        <time>2014-06-01T09:47:08.000Z</time>
      </trkpt>
      <trkpt lat="47.53174" lon="6.73696">
        <ele>399.6</ele>
        <time>2014-06-01T09:47:09.000Z</time>
      </trkpt>
      <trkpt lat="47.53176" lon="6.737">
        <ele>399.9</ele>
        <time>2014-06-01T09:47:10.000Z</time>
      </trkpt>
      <trkpt lat="47.53178" lon="6.73704">
        <ele>400.7</ele>
        <time>2014-06-01T09:47:11.000Z</time>
      </trkpt>
      <trkpt lat="47.53179" lon="6.73709">
        <ele>400.7</ele>
        <time>2014-06-01T09:47:12.000Z</time>
      </trkpt>
      <trkpt lat="47.53179" lon="6.73713">
        <ele>400.9</ele>
        <time>2014-06-01T09:47:13.000Z</time>
      </trkpt>
      <trkpt lat="47.5318" lon="6.73718">
        <ele>401.3</ele>
        <time>2014-06-01T09:47:14.000Z</time>
      </trkpt>
      <trkpt lat="47.5318" lon="6.73722">
        <ele>397</ele>
        <time>2014-06-01T09:47:15.000Z</time>
      </trkpt>
      <trkpt lat="47.5318" lon="6.73726">
        <ele>395.7</ele>
        <time>2014-06-01T09:47:16.000Z</time>
      </trkpt>
      <trkpt lat="47.53181" lon="6.73731">
        <ele>393.5</ele>
        <time>2014-06-01T09:47:18.000Z</time>
      </trkpt>
      <trkpt lat="47.53182" lon="6.73733">
        <ele>392.4</ele>
        <time>2014-06-01T09:47:19.000Z</time>
      </trkpt>
      <trkpt lat="47.53184" lon="6.73739">
        <ele>393.1</ele>
        <time>2014-06-01T09:47:22.000Z</time>
      </trkpt>
      <trkpt lat="47.53184" lon="6.7374">
        <ele>393.1</ele>
        <time>2014-06-01T09:47:23.000Z</time>
      </trkpt>
      <trkpt lat="47.53187" lon="6.73744">
        <ele>391.9</ele>
        <time>2014-06-01T09:47:26.000Z</time>
      </trkpt>
      <trkpt lat="47.53187" lon="6.73746">
        <ele>391</ele>
        <time>2014-06-01T09:47:27.000Z</time>
      </trkpt>
      <trkpt lat="47.53189" lon="6.73751">
        <ele>390.8</ele>
        <time>2014-06-01T09:47:29.000Z</time>
      </trkpt>
      <trkpt lat="47.5319" lon="6.73755">
        <ele>391.2</ele>
        <time>2014-06-01T09:47:30.000Z</time>
      </trkpt>
      <trkpt lat="47.53192" lon="6.73758">
        <ele>391.4</ele>
        <time>2014-06-01T09:47:31.000Z</time>
      </trkpt>
      <trkpt lat="47.53194" lon="6.73762">
        <ele>392</ele>
        <time>2014-06-01T09:47:32.000Z</time>
      </trkpt>
      <trkpt lat="47.53196" lon="6.73766">
        <ele>394</ele>
        <time>2014-06-01T09:47:33.000Z</time>
      </trkpt>
      <trkpt lat="47.53197" lon="6.73771">
        <ele>393.4</ele>
        <time>2014-06-01T09:47:34.000Z</time>
      </trkpt>
      <trkpt lat="47.53199" lon="6.73776">
        <ele>390.6</ele>
        <time>2014-06-01T09:47:35.000Z</time>
      </trkpt>
      <trkpt lat="47.532" lon="6.73782">
        <ele>389.5</ele>
        <time>2014-06-01T09:47:36.000Z</time>
      </trkpt>
      <trkpt lat="47.53202" lon="6.73787">
        <ele>389</ele>
        <time>2014-06-01T09:47:37.000Z</time>
      </trkpt>
      <trkpt lat="47.53203" lon="6.73792">
        <ele>389.6</ele>
        <time>2014-06-01T09:47:38.000Z</time>
      </trkpt>
      <trkpt lat="47.53205" lon="6.73797">
        <ele>390.4</ele>
        <time>2014-06-01T09:47:39.000Z</time>
      </trkpt>
      <trkpt lat="47.53206" lon="6.73802">
        <ele>391.7</ele>
        <time>2014-06-01T09:47:40.000Z</time>
      </trkpt>
      <trkpt lat="47.53207" lon="6.73806">
        <ele>393.2</ele>
        <time>2014-06-01T09:47:41.000Z</time>
      </trkpt>
      <trkpt lat="47.53209" lon="6.7381">
        <ele>394.2</ele>
        <time>2014-06-01T09:47:42.000Z</time>
      </trkpt>
      <trkpt lat="47.5321" lon="6.73813">
        <ele>393.9</ele>
        <time>2014-06-01T09:47:43.000Z</time>
      </trkpt>
      <trkpt lat="47.53211" lon="6.73817">
        <ele>395</ele>
        <time>2014-06-01T09:47:44.000Z</time>
      </trkpt>
      <trkpt lat="47.53211" lon="6.7382">
        <ele>395.4</ele>
        <time>2014-06-01T09:47:45.000Z</time>
      </trkpt>
      <trkpt lat="47.53212" lon="6.73823">
        <ele>395.8</ele>
        <time>2014-06-01T09:47:46.000Z</time>
      </trkpt>
      <trkpt lat="47.53213" lon="6.73827">
        <ele>396.5</ele>
        <time>2014-06-01T09:47:47.000Z</time>
      </trkpt>
      <trkpt lat="47.53214" lon="6.7383">
        <ele>396.8</ele>
        <time>2014-06-01T09:47:48.000Z</time>
      </trkpt>
      <trkpt lat="47.53214" lon="6.73833">
        <ele>397.7</ele>
        <time>2014-06-01T09:47:49.000Z</time>
      </trkpt>
      <trkpt lat="47.53216" lon="6.73837">
        <ele>393.6</ele>
        <time>2014-06-01T09:47:50.000Z</time>
      </trkpt>
      <trkpt lat="47.53217" lon="6.7384">
        <ele>392.6</ele>
        <time>2014-06-01T09:47:51.000Z</time>
      </trkpt>
      <trkpt lat="47.53218" lon="6.73844">
        <ele>395.4</ele>
        <time>2014-06-01T09:47:52.000Z</time>
      </trkpt>
      <trkpt lat="47.53219" lon="6.73848">
        <ele>395.9</ele>
        <time>2014-06-01T09:47:53.000Z</time>
      </trkpt>
      <trkpt lat="47.5322" lon="6.73852">
        <ele>396.6</ele>
        <time>2014-06-01T09:47:54.000Z</time>
      </trkpt>
      <trkpt lat="47.5322" lon="6.73856">
        <ele>396.6</ele>
        <time>2014-06-01T09:47:55.000Z</time>
      </trkpt>
      <trkpt lat="47.53221" lon="6.7386">
        <ele>396.1</ele>
        <time>2014-06-01T09:47:56.000Z</time>
      </trkpt>
      <trkpt lat="47.53221" lon="6.73864">
        <ele>395.7</ele>
        <time>2014-06-01T09:47:57.000Z</time>
      </trkpt>
      <trkpt lat="47.53222" lon="6.73869">
        <ele>395.6</ele>
        <time>2014-06-01T09:47:58.000Z</time>
      </trkpt>
      <trkpt lat="47.53226" lon="6.73899">
        <ele>393.3</ele>
        <time>2014-06-01T09:48:06.000Z</time>
      </trkpt>
      <trkpt lat="47.53226" lon="6.73903">
        <ele>393.1</ele>
        <time>2014-06-01T09:48:07.000Z</time>
      </trkpt>
      <trkpt lat="47.53227" lon="6.73907">
        <ele>393.6</ele>
        <time>2014-06-01T09:48:08.000Z</time>
      </trkpt>
      <trkpt lat="47.53228" lon="6.73911">
        <ele>394.5</ele>
        <time>2014-06-01T09:48:09.000Z</time>
      </trkpt>
      <trkpt lat="47.53229" lon="6.73916">
        <ele>394.6</ele>
        <time>2014-06-01T09:48:10.000Z</time>
      </trkpt>
      <trkpt lat="47.53231" lon="6.73921">
        <ele>396.2</ele>
        <time>2014-06-01T09:48:11.000Z</time>
      </trkpt>
      <trkpt lat="47.53232" lon="6.73925">
        <ele>394.2</ele>
        <time>2014-06-01T09:48:12.000Z</time>
      </trkpt>
      <trkpt lat="47.53234" lon="6.7393">
        <ele>394.2</ele>
        <time>2014-06-01T09:48:13.000Z</time>
      </trkpt>
      <trkpt lat="47.53236" lon="6.73934">
        <ele>395</ele>
        <time>2014-06-01T09:48:14.000Z</time>
      </trkpt>
      <trkpt lat="47.53238" lon="6.73938">
        <ele>395.6</ele>
        <time>2014-06-01T09:48:15.000Z</time>
      </trkpt>
      <trkpt lat="47.53241" lon="6.73943">
        <ele>396.2</ele>
        <time>2014-06-01T09:48:16.000Z</time>
      </trkpt>
      <trkpt lat="47.53243" lon="6.73948">
        <ele>397.2</ele>
        <time>2014-06-01T09:48:17.000Z</time>
      </trkpt>
      <trkpt lat="47.53245" lon="6.73953">
        <ele>398</ele>
        <time>2014-06-01T09:48:18.000Z</time>
      </trkpt>
      <trkpt lat="47.53247" lon="6.73958">
        <ele>398.2</ele>
        <time>2014-06-01T09:48:19.000Z</time>
      </trkpt>
      <trkpt lat="47.5325" lon="6.73963">
        <ele>399.2</ele>
        <time>2014-06-01T09:48:20.000Z</time>
      </trkpt>
      <trkpt lat="47.53252" lon="6.73968">
        <ele>401.2</ele>
        <time>2014-06-01T09:48:21.000Z</time>
      </trkpt>
      <trkpt lat="47.53256" lon="6.73973">
        <ele>402.2</ele>
        <time>2014-06-01T09:48:22.000Z</time>
      </trkpt>
      <trkpt lat="47.53259" lon="6.73977">
        <ele>401.3</ele>
        <time>2014-06-01T09:48:23.000Z</time>
      </trkpt>
      <trkpt lat="47.53261" lon="6.73981">
        <ele>401.5</ele>
        <time>2014-06-01T09:48:24.000Z</time>
      </trkpt>
      <trkpt lat="47.53264" lon="6.73985">
        <ele>401</ele>
        <time>2014-06-01T09:48:25.000Z</time>
      </trkpt>
      <trkpt lat="47.53266" lon="6.73988">
        <ele>401.8</ele>
        <time>2014-06-01T09:48:26.000Z</time>
      </trkpt>
      <trkpt lat="47.53267" lon="6.73991">
        <ele>402.4</ele>
        <time>2014-06-01T09:48:27.000Z</time>
      </trkpt>
      <trkpt lat="47.53269" lon="6.73994">
        <ele>402.2</ele>
        <time>2014-06-01T09:48:28.000Z</time>
      </trkpt>
      <trkpt lat="47.5327" lon="6.73997">
        <ele>402.1</ele>
        <time>2014-06-01T09:48:29.000Z</time>
      </trkpt>
      <trkpt lat="47.53272" lon="6.74">
        <ele>401.9</ele>
        <time>2014-06-01T09:48:30.000Z</time>
      </trkpt>
      <trkpt lat="47.53273" lon="6.74003">
        <ele>402.1</ele>
        <time>2014-06-01T09:48:31.000Z</time>
      </trkpt>
      <trkpt lat="47.53275" lon="6.74007">
        <ele>403</ele>
        <time>2014-06-01T09:48:32.000Z</time>
      </trkpt>
      <trkpt lat="47.53277" lon="6.7401">
        <ele>402.9</ele>
        <time>2014-06-01T09:48:33.000Z</time>
      </trkpt>
      <trkpt lat="47.53279" lon="6.74014">
        <ele>403.8</ele>
        <time>2014-06-01T09:48:34.000Z</time>
      </trkpt>
      <trkpt lat="47.53281" lon="6.74018">
        <ele>404</ele>
        <time>2014-06-01T09:48:35.000Z</time>
      </trkpt>
      <trkpt lat="47.53282" lon="6.74023">
        <ele>404.6</ele>
        <time>2014-06-01T09:48:36.000Z</time>
      </trkpt>
      <trkpt lat="47.53283" lon="6.74026">
        <ele>404.4</ele>
        <time>2014-06-01T09:48:37.000Z</time>
      </trkpt>
      <trkpt lat="47.53284" lon="6.74029">
        <ele>404.1</ele>
        <time>2014-06-01T09:48:38.000Z</time>
      </trkpt>
      <trkpt lat="47.53288" lon="6.74033">
        <ele>405.8</ele>
        <time>2014-06-01T09:48:40.000Z</time>
      </trkpt>
      <trkpt lat="47.53289" lon="6.74035">
        <ele>409.7</ele>
        <time>2014-06-01T09:48:41.000Z</time>
      </trkpt>
      <trkpt lat="47.53292" lon="6.74038">
        <ele>411.1</ele>
        <time>2014-06-01T09:48:43.000Z</time>
      </trkpt>
      <trkpt lat="47.53293" lon="6.7404">
        <ele>411.7</ele>
        <time>2014-06-01T09:48:44.000Z</time>
      </trkpt>
      <trkpt lat="47.53295" lon="6.74045">
        <ele>411.6</ele>
        <time>2014-06-01T09:48:47.000Z</time>
      </trkpt>
      <trkpt lat="47.53296" lon="6.74046">
        <ele>411.5</ele>
        <time>2014-06-01T09:48:48.000Z</time>
      </trkpt>
      <trkpt lat="47.53297" lon="6.7405">
        <ele>411.1</ele>
        <time>2014-06-01T09:48:50.000Z</time>
      </trkpt>
      <trkpt lat="47.53298" lon="6.74053">
        <ele>411.3</ele>
        <time>2014-06-01T09:48:51.000Z</time>
      </trkpt>
      <trkpt lat="47.53298" lon="6.74056">
        <ele>411.9</ele>
        <time>2014-06-01T09:48:52.000Z</time>
      </trkpt>
      <trkpt lat="47.53299" lon="6.74059">
        <ele>411.4</ele>
        <time>2014-06-01T09:48:53.000Z</time>
      </trkpt>
      <trkpt lat="47.533" lon="6.74065">
        <ele>412.6</ele>
        <time>2014-06-01T09:48:55.000Z</time>
      </trkpt>
      <trkpt lat="47.53301" lon="6.74067">
        <ele>412.5</ele>
        <time>2014-06-01T09:48:56.000Z</time>
      </trkpt>
      <trkpt lat="47.53301" lon="6.74072">
        <ele>412.7</ele>
        <time>2014-06-01T09:48:58.000Z</time>
      </trkpt>
      <trkpt lat="47.53302" lon="6.74091">
        <ele>414.5</ele>
        <time>2014-06-01T09:49:06.000Z</time>
      </trkpt>
      <trkpt lat="47.53303" lon="6.74097">
        <ele>417.3</ele>
        <time>2014-06-01T09:49:09.000Z</time>
      </trkpt>
      <trkpt lat="47.53303" lon="6.74099">
        <ele>417.8</ele>
        <time>2014-06-01T09:49:10.000Z</time>
      </trkpt>
      <trkpt lat="47.533" lon="6.74103">
        <ele>418.9</ele>
        <time>2014-06-01T09:49:12.000Z</time>
      </trkpt>
      <trkpt lat="47.53299" lon="6.74105">
        <ele>418.7</ele>
        <time>2014-06-01T09:49:13.000Z</time>
      </trkpt>
      <trkpt lat="47.53296" lon="6.74109">
        <ele>418.5</ele>
        <time>2014-06-01T09:49:15.000Z</time>
      </trkpt>
      <trkpt lat="47.53295" lon="6.74112">
        <ele>418.4</ele>
        <time>2014-06-01T09:49:16.000Z</time>
      </trkpt>
      <trkpt lat="47.53294" lon="6.74118">
        <ele>418.4</ele>
        <time>2014-06-01T09:49:18.000Z</time>
      </trkpt>
      <trkpt lat="47.53294" lon="6.74122">
        <ele>418.9</ele>
        <time>2014-06-01T09:49:19.000Z</time>
      </trkpt>
      <trkpt lat="47.53294" lon="6.74125">
        <ele>417.6</ele>
        <time>2014-06-01T09:49:20.000Z</time>
      </trkpt>
      <trkpt lat="47.53293" lon="6.74129">
        <ele>417.4</ele>
        <time>2014-06-01T09:49:21.000Z</time>
      </trkpt>
      <trkpt lat="47.53293" lon="6.74133">
        <ele>416.5</ele>
        <time>2014-06-01T09:49:22.000Z</time>
      </trkpt>
      <trkpt lat="47.53292" lon="6.74136">
        <ele>416.5</ele>
        <time>2014-06-01T09:49:23.000Z</time>
      </trkpt>
      <trkpt lat="47.53291" lon="6.7414">
        <ele>416.2</ele>
        <time>2014-06-01T09:49:24.000Z</time>
      </trkpt>
      <trkpt lat="47.5329" lon="6.74143">
        <ele>416.4</ele>
        <time>2014-06-01T09:49:25.000Z</time>
      </trkpt>
      <trkpt lat="47.53289" lon="6.74149">
        <ele>414.2</ele>
        <time>2014-06-01T09:49:27.000Z</time>
      </trkpt>
      <trkpt lat="47.53289" lon="6.74152">
        <ele>412.7</ele>
        <time>2014-06-01T09:49:28.000Z</time>
      </trkpt>
      <trkpt lat="47.53288" lon="6.74157">
        <ele>413.1</ele>
        <time>2014-06-01T09:49:30.000Z</time>
      </trkpt>
      <trkpt lat="47.53287" lon="6.7416">
        <ele>412.9</ele>
        <time>2014-06-01T09:49:31.000Z</time>
      </trkpt>
      <trkpt lat="47.53286" lon="6.74164">
        <ele>411.3</ele>
        <time>2014-06-01T09:49:33.000Z</time>
      </trkpt>
      <trkpt lat="47.53285" lon="6.74166">
        <ele>412.3</ele>
        <time>2014-06-01T09:49:34.000Z</time>
      </trkpt>
      <trkpt lat="47.53284" lon="6.74172">
        <ele>412.4</ele>
        <time>2014-06-01T09:49:40.000Z</time>
      </trkpt>
      <trkpt lat="47.53284" lon="6.74173">
        <ele>413</ele>
        <time>2014-06-01T09:49:41.000Z</time>
      </trkpt>
      <trkpt lat="47.53285" lon="6.74177">
        <ele>411.8</ele>
        <time>2014-06-01T09:49:43.000Z</time>
      </trkpt>
      <trkpt lat="47.53285" lon="6.74182">
        <ele>411.8</ele>
        <time>2014-06-01T09:49:44.000Z</time>
      </trkpt>
      <trkpt lat="47.53285" lon="6.74187">
        <ele>411.8</ele>
        <time>2014-06-01T09:49:45.000Z</time>
      </trkpt>
      <trkpt lat="47.53285" lon="6.74192">
        <ele>411.6</ele>
        <time>2014-06-01T09:49:46.000Z</time>
      </trkpt>
      <trkpt lat="47.53285" lon="6.74196">
        <ele>411.2</ele>
        <time>2014-06-01T09:49:47.000Z</time>
      </trkpt>
      <trkpt lat="47.53284" lon="6.74201">
        <ele>411.3</ele>
        <time>2014-06-01T09:49:48.000Z</time>
      </trkpt>
      <trkpt lat="47.53283" lon="6.74205">
        <ele>411.3</ele>
        <time>2014-06-01T09:49:49.000Z</time>
      </trkpt>
      <trkpt lat="47.53282" lon="6.74209">
        <ele>411.6</ele>
        <time>2014-06-01T09:49:50.000Z</time>
      </trkpt>
      <trkpt lat="47.53282" lon="6.74213">
        <ele>412</ele>
        <time>2014-06-01T09:49:51.000Z</time>
      </trkpt>
      <trkpt lat="47.53282" lon="6.74218">
        <ele>412.4</ele>
        <time>2014-06-01T09:49:52.000Z</time>
      </trkpt>
      <trkpt lat="47.53282" lon="6.74222">
        <ele>412.8</ele>
        <time>2014-06-01T09:49:53.000Z</time>
      </trkpt>
      <trkpt lat="47.53281" lon="6.74226">
        <ele>412.9</ele>
        <time>2014-06-01T09:49:54.000Z</time>
      </trkpt>
      <trkpt lat="47.5328" lon="6.7423">
        <ele>413.6</ele>
        <time>2014-06-01T09:49:55.000Z</time>
      </trkpt>
      <trkpt lat="47.53279" lon="6.74234">
        <ele>412.8</ele>
        <time>2014-06-01T09:49:56.000Z</time>
      </trkpt>
      <trkpt lat="47.53277" lon="6.74238">
        <ele>413.3</ele>
        <time>2014-06-01T09:49:57.000Z</time>
      </trkpt>
      <trkpt lat="47.53275" lon="6.74242">
        <ele>413.2</ele>
        <time>2014-06-01T09:49:58.000Z</time>
      </trkpt>
      <trkpt lat="47.5327" lon="6.74252">
        <ele>413.6</ele>
        <time>2014-06-01T09:50:01.000Z</time>
      </trkpt>
      <trkpt lat="47.53268" lon="6.74256">
        <ele>409.5</ele>
        <time>2014-06-01T09:50:02.000Z</time>
      </trkpt>
      <trkpt lat="47.53267" lon="6.74259">
        <ele>405.8</ele>
        <time>2014-06-01T09:50:03.000Z</time>
      </trkpt>
      <trkpt lat="47.53266" lon="6.74263">
        <ele>402.9</ele>
        <time>2014-06-01T09:50:04.000Z</time>
      </trkpt>
      <trkpt lat="47.53265" lon="6.74266">
        <ele>403.6</ele>
        <time>2014-06-01T09:50:05.000Z</time>
      </trkpt>
      <trkpt lat="47.53264" lon="6.7427">
        <ele>403.5</ele>
        <time>2014-06-01T09:50:06.000Z</time>
      </trkpt>
      <trkpt lat="47.53262" lon="6.74274">
        <ele>401.6</ele>
        <time>2014-06-01T09:50:07.000Z</time>
      </trkpt>
      <trkpt lat="47.53261" lon="6.74279">
        <ele>402</ele>
        <time>2014-06-01T09:50:08.000Z</time>
      </trkpt>
      <trkpt lat="47.53259" lon="6.74284">
        <ele>400.8</ele>
        <time>2014-06-01T09:50:09.000Z</time>
      </trkpt>
      <trkpt lat="47.53257" lon="6.74289">
        <ele>400.5</ele>
        <time>2014-06-01T09:50:10.000Z</time>
      </trkpt>
      <trkpt lat="47.53255" lon="6.74294">
        <ele>399.1</ele>
        <time>2014-06-01T09:50:11.000Z</time>
      </trkpt>
      <trkpt lat="47.53253" lon="6.74299">
        <ele>398.1</ele>
        <time>2014-06-01T09:50:12.000Z</time>
      </trkpt>
      <trkpt lat="47.53251" lon="6.74303">
        <ele>396.9</ele>
        <time>2014-06-01T09:50:13.000Z</time>
      </trkpt>
      <trkpt lat="47.5325" lon="6.74307">
        <ele>397</ele>
        <time>2014-06-01T09:50:14.000Z</time>
      </trkpt>
      <trkpt lat="47.53248" lon="6.74312">
        <ele>395.9</ele>
        <time>2014-06-01T09:50:15.000Z</time>
      </trkpt>
      <trkpt lat="47.53247" lon="6.74316">
        <ele>395.7</ele>
        <time>2014-06-01T09:50:16.000Z</time>
      </trkpt>
      <trkpt lat="47.53246" lon="6.7432">
        <ele>394.6</ele>
        <time>2014-06-01T09:50:17.000Z</time>
      </trkpt>
      <trkpt lat="47.53244" lon="6.74323">
        <ele>394.9</ele>
        <time>2014-06-01T09:50:18.000Z</time>
      </trkpt>
      <trkpt lat="47.53243" lon="6.74327">
        <ele>394.9</ele>
        <time>2014-06-01T09:50:19.000Z</time>
      </trkpt>
      <trkpt lat="47.53242" lon="6.7433">
        <ele>393.7</ele>
        <time>2014-06-01T09:50:20.000Z</time>
      </trkpt>
      <trkpt lat="47.53241" lon="6.74333">
        <ele>393.1</ele>
        <time>2014-06-01T09:50:21.000Z</time>
      </trkpt>
      <trkpt lat="47.53241" lon="6.74339">
        <ele>394.1</ele>
        <time>2014-06-01T09:50:23.000Z</time>
      </trkpt>
      <trkpt lat="47.5324" lon="6.74342">
        <ele>394.3</ele>
        <time>2014-06-01T09:50:24.000Z</time>
      </trkpt>
      <trkpt lat="47.53238" lon="6.74348">
        <ele>395.1</ele>
        <time>2014-06-01T09:50:26.000Z</time>
      </trkpt>
      <trkpt lat="47.53237" lon="6.7435">
        <ele>395.9</ele>
        <time>2014-06-01T09:50:27.000Z</time>
      </trkpt>
      <trkpt lat="47.53237" lon="6.74355">
        <ele>395.5</ele>
        <time>2014-06-01T09:50:29.000Z</time>
      </trkpt>
      <trkpt lat="47.53236" lon="6.74357">
        <ele>394.7</ele>
        <time>2014-06-01T09:50:30.000Z</time>
      </trkpt>
      <trkpt lat="47.53236" lon="6.74361">
        <ele>396.1</ele>
        <time>2014-06-01T09:50:32.000Z</time>
      </trkpt>
      <trkpt lat="47.53235" lon="6.74364">
        <ele>397.4</ele>
        <time>2014-06-01T09:50:33.000Z</time>
      </trkpt>
      <trkpt lat="47.53233" lon="6.7437">
        <ele>399.6</ele>
        <time>2014-06-01T09:50:35.000Z</time>
      </trkpt>
      <trkpt lat="47.53233" lon="6.74373">
        <ele>397.1</ele>
        <time>2014-06-01T09:50:36.000Z</time>
      </trkpt>
      <trkpt lat="47.53231" lon="6.74378">
        <ele>394.5</ele>
        <time>2014-06-01T09:50:38.000Z</time>
      </trkpt>
      <trkpt lat="47.53231" lon="6.7438">
        <ele>394</ele>
        <time>2014-06-01T09:50:39.000Z</time>
      </trkpt>
      <trkpt lat="47.53229" lon="6.74385">
        <ele>394</ele>
        <time>2014-06-01T09:50:41.000Z</time>
      </trkpt>
      <trkpt lat="47.53229" lon="6.74387">
        <ele>394.8</ele>
        <time>2014-06-01T09:50:42.000Z</time>
      </trkpt>
      <trkpt lat="47.53227" lon="6.74392">
        <ele>395.2</ele>
        <time>2014-06-01T09:50:44.000Z</time>
      </trkpt>
      <trkpt lat="47.53227" lon="6.74395">
        <ele>397.4</ele>
        <time>2014-06-01T09:50:45.000Z</time>
      </trkpt>
      <trkpt lat="47.53227" lon="6.744">
        <ele>397.9</ele>
        <time>2014-06-01T09:50:47.000Z</time>
      </trkpt>
      <trkpt lat="47.53226" lon="6.74402">
        <ele>398.7</ele>
        <time>2014-06-01T09:50:48.000Z</time>
      </trkpt>
      <trkpt lat="47.53225" lon="6.74407">
        <ele>399.9</ele>
        <time>2014-06-01T09:50:50.000Z</time>
      </trkpt>
      <trkpt lat="47.53224" lon="6.74409">
        <ele>400.4</ele>
        <time>2014-06-01T09:50:51.000Z</time>
      </trkpt>
      <trkpt lat="47.53223" lon="6.74414">
        <ele>402.7</ele>
        <time>2014-06-01T09:50:54.000Z</time>
      </trkpt>
      <trkpt lat="47.53223" lon="6.74416">
        <ele>403.8</ele>
        <time>2014-06-01T09:50:55.000Z</time>
      </trkpt>
      <trkpt lat="47.53222" lon="6.7442">
        <ele>406.9</ele>
        <time>2014-06-01T09:50:57.000Z</time>
      </trkpt>
      <trkpt lat="47.53222" lon="6.74423">
        <ele>408</ele>
        <time>2014-06-01T09:50:58.000Z</time>
      </trkpt>
      <trkpt lat="47.53218" lon="6.74431">
        <ele>411.8</ele>
        <time>2014-06-01T09:51:06.000Z</time>
      </trkpt>
      <trkpt lat="47.5322" lon="6.74436">
        <ele>414.1</ele>
        <time>2014-06-01T09:51:22.000Z</time>
      </trkpt>
      <trkpt lat="47.53221" lon="6.74437">
        <ele>414.5</ele>
        <time>2014-06-01T09:51:23.000Z</time>
      </trkpt>
      <trkpt lat="47.53224" lon="6.7444">
        <ele>414.4</ele>
        <time>2014-06-01T09:51:26.000Z</time>
      </trkpt>
      <trkpt lat="47.53224" lon="6.74441">
        <ele>414.9</ele>
        <time>2014-06-01T09:51:27.000Z</time>
      </trkpt>
      <trkpt lat="47.53228" lon="6.74446">
        <ele>421.7</ele>
        <time>2014-06-01T09:51:34.000Z</time>
      </trkpt>
      <trkpt lat="47.53229" lon="6.74447">
        <ele>421.5</ele>
        <time>2014-06-01T09:51:35.000Z</time>
      </trkpt>
      <trkpt lat="47.53233" lon="6.74449">
        <ele>429</ele>
        <time>2014-06-01T09:51:40.000Z</time>
      </trkpt>
      <trkpt lat="47.53234" lon="6.7445">
        <ele>429</ele>
        <time>2014-06-01T09:51:41.000Z</time>
      </trkpt>
      <trkpt lat="47.53236" lon="6.74453">
        <ele>429.9</ele>
        <time>2014-06-01T09:51:43.000Z</time>
      </trkpt>
      <trkpt lat="47.53238" lon="6.74455">
        <ele>430.3</ele>
        <time>2014-06-01T09:51:44.000Z</time>
      </trkpt>
      <trkpt lat="47.53241" lon="6.74456">
        <ele>432.6</ele>
        <time>2014-06-01T09:51:46.000Z</time>
      </trkpt>
      <trkpt lat="47.53243" lon="6.74458">
        <ele>432.2</ele>
        <time>2014-06-01T09:51:47.000Z</time>
      </trkpt>
      <trkpt lat="47.53246" lon="6.74459">
        <ele>432.8</ele>
        <time>2014-06-01T09:51:49.000Z</time>
      </trkpt>
      <trkpt lat="47.53247" lon="6.7446">
        <ele>432.8</ele>
        <time>2014-06-01T09:51:50.000Z</time>
      </trkpt>
      <trkpt lat="47.5325" lon="6.74463">
        <ele>432.4</ele>
        <time>2014-06-01T09:51:53.000Z</time>
      </trkpt>
      <trkpt lat="47.53251" lon="6.74464">
        <ele>432.9</ele>
        <time>2014-06-01T09:51:54.000Z</time>
      </trkpt>
      <trkpt lat="47.53253" lon="6.74466">
        <ele>433.6</ele>
        <time>2014-06-01T09:51:58.000Z</time>
      </trkpt>
      <trkpt lat="47.53262" lon="6.74474">
        <ele>433.6</ele>
        <time>2014-06-01T09:52:06.000Z</time>
      </trkpt>
      <trkpt lat="47.53265" lon="6.74478">
        <ele>434.5</ele>
        <time>2014-06-01T09:52:09.000Z</time>
      </trkpt>
      <trkpt lat="47.53266" lon="6.74478">
        <ele>434.6</ele>
        <time>2014-06-01T09:52:10.000Z</time>
      </trkpt>
      <trkpt lat="47.53268" lon="6.7448">
        <ele>434.4</ele>
        <time>2014-06-01T09:52:12.000Z</time>
      </trkpt>
      <trkpt lat="47.5327" lon="6.74481">
        <ele>431.2</ele>
        <time>2014-06-01T09:52:13.000Z</time>
      </trkpt>
      <trkpt lat="47.53272" lon="6.74482">
        <ele>431.4</ele>
        <time>2014-06-01T09:52:14.000Z</time>
      </trkpt>
      <trkpt lat="47.53274" lon="6.74484">
        <ele>431.3</ele>
        <time>2014-06-01T09:52:15.000Z</time>
      </trkpt>
      <trkpt lat="47.53276" lon="6.74486">
        <ele>431.5</ele>
        <time>2014-06-01T09:52:16.000Z</time>
      </trkpt>
      <trkpt lat="47.53278" lon="6.74487">
        <ele>432.8</ele>
        <time>2014-06-01T09:52:17.000Z</time>
      </trkpt>
      <trkpt lat="47.53282" lon="6.7449">
        <ele>431.8</ele>
        <time>2014-06-01T09:52:19.000Z</time>
      </trkpt>
      <trkpt lat="47.53283" lon="6.74492">
        <ele>431.7</ele>
        <time>2014-06-01T09:52:20.000Z</time>
      </trkpt>
      <trkpt lat="47.53286" lon="6.74493">
        <ele>430.9</ele>
        <time>2014-06-01T09:52:22.000Z</time>
      </trkpt>
      <trkpt lat="47.53288" lon="6.74494">
        <ele>431.5</ele>
        <time>2014-06-01T09:52:23.000Z</time>
      </trkpt>
      <trkpt lat="47.53292" lon="6.74496">
        <ele>427.9</ele>
        <time>2014-06-01T09:52:26.000Z</time>
      </trkpt>
      <trkpt lat="47.53293" lon="6.74496">
        <ele>428.6</ele>
        <time>2014-06-01T09:52:27.000Z</time>
      </trkpt>
      <trkpt lat="47.53297" lon="6.74497">
        <ele>427.5</ele>
        <time>2014-06-01T09:52:29.000Z</time>
      </trkpt>
      <trkpt lat="47.53299" lon="6.74498">
        <ele>428</ele>
        <time>2014-06-01T09:52:30.000Z</time>
      </trkpt>
      <trkpt lat="47.53301" lon="6.745">
        <ele>428.3</ele>
        <time>2014-06-01T09:52:31.000Z</time>
      </trkpt>
      <trkpt lat="47.53304" lon="6.74501">
        <ele>428.6</ele>
        <time>2014-06-01T09:52:32.000Z</time>
      </trkpt>
      <trkpt lat="47.53308" lon="6.74503">
        <ele>431.3</ele>
        <time>2014-06-01T09:52:34.000Z</time>
      </trkpt>
      <trkpt lat="47.5331" lon="6.74504">
        <ele>432.2</ele>
        <time>2014-06-01T09:52:35.000Z</time>
      </trkpt>
      <trkpt lat="47.53313" lon="6.74505">
        <ele>433.6</ele>
        <time>2014-06-01T09:52:37.000Z</time>
      </trkpt>
      <trkpt lat="47.53315" lon="6.74506">
        <ele>434.1</ele>
        <time>2014-06-01T09:52:38.000Z</time>
      </trkpt>
      <trkpt lat="47.53318" lon="6.74508">
        <ele>434.5</ele>
        <time>2014-06-01T09:52:40.000Z</time>
      </trkpt>
      <trkpt lat="47.5332" lon="6.74509">
        <ele>437.1</ele>
        <time>2014-06-01T09:52:41.000Z</time>
      </trkpt>
      <trkpt lat="47.53323" lon="6.7451">
        <ele>437.6</ele>
        <time>2014-06-01T09:52:42.000Z</time>
      </trkpt>
      <trkpt lat="47.53325" lon="6.74512">
        <ele>436.7</ele>
        <time>2014-06-01T09:52:43.000Z</time>
      </trkpt>
      <trkpt lat="47.53327" lon="6.74513">
        <ele>436.3</ele>
        <time>2014-06-01T09:52:44.000Z</time>
      </trkpt>
      <trkpt lat="47.53329" lon="6.74515">
        <ele>436.5</ele>
        <time>2014-06-01T09:52:45.000Z</time>
      </trkpt>
      <trkpt lat="47.53333" lon="6.74517">
        <ele>437.3</ele>
        <time>2014-06-01T09:52:47.000Z</time>
      </trkpt>
      <trkpt lat="47.53334" lon="6.74517">
        <ele>437.2</ele>
        <time>2014-06-01T09:52:48.000Z</time>
      </trkpt>
      <trkpt lat="47.53338" lon="6.74519">
        <ele>437</ele>
        <time>2014-06-01T09:52:50.000Z</time>
      </trkpt>
      <trkpt lat="47.5334" lon="6.7452">
        <ele>437.1</ele>
        <time>2014-06-01T09:52:51.000Z</time>
      </trkpt>
      <trkpt lat="47.53343" lon="6.74524">
        <ele>438</ele>
        <time>2014-06-01T09:52:53.000Z</time>
      </trkpt>
      <trkpt lat="47.53345" lon="6.74525">
        <ele>438.2</ele>
        <time>2014-06-01T09:52:54.000Z</time>
      </trkpt>
      <trkpt lat="47.53348" lon="6.74528">
        <ele>438</ele>
        <time>2014-06-01T09:52:56.000Z</time>
      </trkpt>
      <trkpt lat="47.53349" lon="6.7453">
        <ele>438.3</ele>
        <time>2014-06-01T09:52:57.000Z</time>
      </trkpt>
      <trkpt lat="47.5335" lon="6.74531">
        <ele>438.5</ele>
        <time>2014-06-01T09:52:58.000Z</time>
      </trkpt>
      <trkpt lat="47.53353" lon="6.74534">
        <ele>438.1</ele>
        <time>2014-06-01T09:53:01.000Z</time>
      </trkpt>
      <trkpt lat="47.53354" lon="6.74537">
        <ele>436</ele>
        <time>2014-06-01T09:53:03.000Z</time>
      </trkpt>
      <trkpt lat="47.53356" lon="6.74539">
        <ele>436.3</ele>
        <time>2014-06-01T09:53:04.000Z</time>
      </trkpt>
      <trkpt lat="47.5336" lon="6.74543">
        <ele>436.7</ele>
        <time>2014-06-01T09:53:08.000Z</time>
      </trkpt>
      <trkpt lat="47.53361" lon="6.74543">
        <ele>436.5</ele>
        <time>2014-06-01T09:53:09.000Z</time>
      </trkpt>
      <trkpt lat="47.53364" lon="6.74544">
        <ele>437.1</ele>
        <time>2014-06-01T09:53:11.000Z</time>
      </trkpt>
      <trkpt lat="47.53366" lon="6.74545">
        <ele>436.5</ele>
        <time>2014-06-01T09:53:12.000Z</time>
      </trkpt>
      <trkpt lat="47.5337" lon="6.74547">
        <ele>436.5</ele>
        <time>2014-06-01T09:53:14.000Z</time>
      </trkpt>
      <trkpt lat="47.53372" lon="6.74548">
        <ele>436.9</ele>
        <time>2014-06-01T09:53:15.000Z</time>
      </trkpt>
      <trkpt lat="47.53376" lon="6.74549">
        <ele>436.9</ele>
        <time>2014-06-01T09:53:18.000Z</time>
      </trkpt>
      <trkpt lat="47.53377" lon="6.74549">
        <ele>437.1</ele>
        <time>2014-06-01T09:53:19.000Z</time>
      </trkpt>
      <trkpt lat="47.5338" lon="6.74549">
        <ele>438.1</ele>
        <time>2014-06-01T09:53:21.000Z</time>
      </trkpt>
      <trkpt lat="47.53382" lon="6.7455">
        <ele>439.7</ele>
        <time>2014-06-01T09:53:22.000Z</time>
      </trkpt>
      <trkpt lat="47.53385" lon="6.74551">
        <ele>439.7</ele>
        <time>2014-06-01T09:53:23.000Z</time>
      </trkpt>
      <trkpt lat="47.53387" lon="6.74553">
        <ele>440.6</ele>
        <time>2014-06-01T09:53:24.000Z</time>
      </trkpt>
      <trkpt lat="47.5339" lon="6.74555">
        <ele>441.7</ele>
        <time>2014-06-01T09:53:25.000Z</time>
      </trkpt>
      <trkpt lat="47.53392" lon="6.74556">
        <ele>440.4</ele>
        <time>2014-06-01T09:53:26.000Z</time>
      </trkpt>
      <trkpt lat="47.53395" lon="6.74558">
        <ele>439.5</ele>
        <time>2014-06-01T09:53:28.000Z</time>
      </trkpt>
      <trkpt lat="47.53397" lon="6.7456">
        <ele>439.2</ele>
        <time>2014-06-01T09:53:29.000Z</time>
      </trkpt>
      <trkpt lat="47.53401" lon="6.74562">
        <ele>439.1</ele>
        <time>2014-06-01T09:53:31.000Z</time>
      </trkpt>
      <trkpt lat="47.53403" lon="6.74564">
        <ele>439</ele>
        <time>2014-06-01T09:53:32.000Z</time>
      </trkpt>
      <trkpt lat="47.53406" lon="6.74566">
        <ele>439.2</ele>
        <time>2014-06-01T09:53:33.000Z</time>
      </trkpt>
      <trkpt lat="47.53408" lon="6.74568">
        <ele>439.4</ele>
        <time>2014-06-01T09:53:34.000Z</time>
      </trkpt>
      <trkpt lat="47.53411" lon="6.74569">
        <ele>440.5</ele>
        <time>2014-06-01T09:53:35.000Z</time>
      </trkpt>
      <trkpt lat="47.53413" lon="6.74571">
        <ele>441.6</ele>
        <time>2014-06-01T09:53:36.000Z</time>
      </trkpt>
      <trkpt lat="47.53417" lon="6.74573">
        <ele>442.8</ele>
        <time>2014-06-01T09:53:38.000Z</time>
      </trkpt>
      <trkpt lat="47.53419" lon="6.74575">
        <ele>442.4</ele>
        <time>2014-06-01T09:53:39.000Z</time>
      </trkpt>
      <trkpt lat="47.53423" lon="6.74578">
        <ele>443.1</ele>
        <time>2014-06-01T09:53:41.000Z</time>
      </trkpt>
      <trkpt lat="47.53424" lon="6.74579">
        <ele>443.1</ele>
        <time>2014-06-01T09:53:42.000Z</time>
      </trkpt>
      <trkpt lat="47.53428" lon="6.74582">
        <ele>442.6</ele>
        <time>2014-06-01T09:53:44.000Z</time>
      </trkpt>
      <trkpt lat="47.5343" lon="6.74583">
        <ele>440.5</ele>
        <time>2014-06-01T09:53:45.000Z</time>
      </trkpt>
      <trkpt lat="47.53432" lon="6.74584">
        <ele>441.3</ele>
        <time>2014-06-01T09:53:46.000Z</time>
      </trkpt>
      <trkpt lat="47.53434" lon="6.74585">
        <ele>441.3</ele>
        <time>2014-06-01T09:53:47.000Z</time>
      </trkpt>
      <trkpt lat="47.53438" lon="6.74587">
        <ele>441.3</ele>
        <time>2014-06-01T09:53:49.000Z</time>
      </trkpt>
      <trkpt lat="47.5344" lon="6.74589">
        <ele>441.6</ele>
        <time>2014-06-01T09:53:50.000Z</time>
      </trkpt>
      <trkpt lat="47.53441" lon="6.74592">
        <ele>439.9</ele>
        <time>2014-06-01T09:53:52.000Z</time>
      </trkpt>
      <trkpt lat="47.53442" lon="6.74595">
        <ele>440.2</ele>
        <time>2014-06-01T09:53:53.000Z</time>
      </trkpt>
      <trkpt lat="47.53443" lon="6.74601">
        <ele>440</ele>
        <time>2014-06-01T09:53:57.000Z</time>
      </trkpt>
      <trkpt lat="47.53443" lon="6.74602">
        <ele>440.2</ele>
        <time>2014-06-01T09:53:58.000Z</time>
      </trkpt>
      <trkpt lat="47.53447" lon="6.7461">
        <ele>440.3</ele>
        <time>2014-06-01T09:54:06.000Z</time>
      </trkpt>
      <trkpt lat="47.53448" lon="6.74615">
        <ele>436.3</ele>
        <time>2014-06-01T09:54:08.000Z</time>
      </trkpt>
      <trkpt lat="47.53448" lon="6.74618">
        <ele>435.1</ele>
        <time>2014-06-01T09:54:09.000Z</time>
      </trkpt>
      <trkpt lat="47.53449" lon="6.74621">
        <ele>435</ele>
        <time>2014-06-01T09:54:10.000Z</time>
      </trkpt>
      <trkpt lat="47.5345" lon="6.74624">
        <ele>435</ele>
        <time>2014-06-01T09:54:11.000Z</time>
      </trkpt>
      <trkpt lat="47.53453" lon="6.74629">
        <ele>434.6</ele>
        <time>2014-06-01T09:54:13.000Z</time>
      </trkpt>
      <trkpt lat="47.53454" lon="6.74632">
        <ele>434.9</ele>
        <time>2014-06-01T09:54:14.000Z</time>
      </trkpt>
      <trkpt lat="47.53456" lon="6.74636">
        <ele>434.8</ele>
        <time>2014-06-01T09:54:16.000Z</time>
      </trkpt>
      <trkpt lat="47.53456" lon="6.74638">
        <ele>435.7</ele>
        <time>2014-06-01T09:54:17.000Z</time>
      </trkpt>
      <trkpt lat="47.53459" lon="6.74643">
        <ele>437.8</ele>
        <time>2014-06-01T09:54:19.000Z</time>
      </trkpt>
      <trkpt lat="47.5346" lon="6.74645">
        <ele>437.8</ele>
        <time>2014-06-01T09:54:20.000Z</time>
      </trkpt>
      <trkpt lat="47.53463" lon="6.7465">
        <ele>439.3</ele>
        <time>2014-06-01T09:54:22.000Z</time>
      </trkpt>
      <trkpt lat="47.53465" lon="6.74653">
        <ele>439.9</ele>
        <time>2014-06-01T09:54:23.000Z</time>
      </trkpt>
      <trkpt lat="47.53467" lon="6.74656">
        <ele>439.9</ele>
        <time>2014-06-01T09:54:24.000Z</time>
      </trkpt>
      <trkpt lat="47.53468" lon="6.7466">
        <ele>439.2</ele>
        <time>2014-06-01T09:54:25.000Z</time>
      </trkpt>
      <trkpt lat="47.5347" lon="6.74663">
        <ele>439.8</ele>
        <time>2014-06-01T09:54:26.000Z</time>
      </trkpt>
      <trkpt lat="47.53472" lon="6.74667">
        <ele>439.9</ele>
        <time>2014-06-01T09:54:27.000Z</time>
      </trkpt>
      <trkpt lat="47.53474" lon="6.7467">
        <ele>439.4</ele>
        <time>2014-06-01T09:54:28.000Z</time>
      </trkpt>
      <trkpt lat="47.53476" lon="6.74673">
        <ele>440.5</ele>
        <time>2014-06-01T09:54:29.000Z</time>
      </trkpt>
      <trkpt lat="47.53478" lon="6.74677">
        <ele>440.3</ele>
        <time>2014-06-01T09:54:30.000Z</time>
      </trkpt>
      <trkpt lat="47.5348" lon="6.74679">
        <ele>440</ele>
        <time>2014-06-01T09:54:31.000Z</time>
      </trkpt>
      <trkpt lat="47.53484" lon="6.74683">
        <ele>439.8</ele>
        <time>2014-06-01T09:54:33.000Z</time>
      </trkpt>
      <trkpt lat="47.53485" lon="6.74683">
        <ele>440.7</ele>
        <time>2014-06-01T09:54:34.000Z</time>
      </trkpt>
      <trkpt lat="47.53488" lon="6.74685">
        <ele>443.7</ele>
        <time>2014-06-01T09:54:37.000Z</time>
      </trkpt>
      <trkpt lat="47.53489" lon="6.74687">
        <ele>443.8</ele>
        <time>2014-06-01T09:54:38.000Z</time>
      </trkpt>
      <trkpt lat="47.53491" lon="6.74691">
        <ele>442.9</ele>
        <time>2014-06-01T09:54:39.000Z</time>
      </trkpt>
      <trkpt lat="47.53492" lon="6.74694">
        <ele>442</ele>
        <time>2014-06-01T09:54:40.000Z</time>
      </trkpt>
      <trkpt lat="47.53493" lon="6.74697">
        <ele>444.2</ele>
        <time>2014-06-01T09:54:41.000Z</time>
      </trkpt>
      <trkpt lat="47.53495" lon="6.74699">
        <ele>445</ele>
        <time>2014-06-01T09:54:42.000Z</time>
      </trkpt>
      <trkpt lat="47.53497" lon="6.74703">
        <ele>446</ele>
        <time>2014-06-01T09:54:43.000Z</time>
      </trkpt>
      <trkpt lat="47.53499" lon="6.74706">
        <ele>446.2</ele>
        <time>2014-06-01T09:54:44.000Z</time>
      </trkpt>
      <trkpt lat="47.53501" lon="6.7471">
        <ele>446.2</ele>
        <time>2014-06-01T09:54:45.000Z</time>
      </trkpt>
      <trkpt lat="47.53503" lon="6.74714">
        <ele>444.6</ele>
        <time>2014-06-01T09:54:46.000Z</time>
      </trkpt>
      <trkpt lat="47.53505" lon="6.74717">
        <ele>443.6</ele>
        <time>2014-06-01T09:54:47.000Z</time>
      </trkpt>
      <trkpt lat="47.53507" lon="6.7472">
        <ele>443.4</ele>
        <time>2014-06-01T09:54:48.000Z</time>
      </trkpt>
      <trkpt lat="47.53508" lon="6.74723">
        <ele>442.9</ele>
        <time>2014-06-01T09:54:49.000Z</time>
      </trkpt>
      <trkpt lat="47.5351" lon="6.74726">
        <ele>443.7</ele>
        <time>2014-06-01T09:54:50.000Z</time>
      </trkpt>
      <trkpt lat="47.53512" lon="6.74728">
        <ele>443.7</ele>
        <time>2014-06-01T09:54:51.000Z</time>
      </trkpt>
      <trkpt lat="47.53515" lon="6.74731">
        <ele>443.5</ele>
        <time>2014-06-01T09:54:52.000Z</time>
      </trkpt>
      <trkpt lat="47.53517" lon="6.74734">
        <ele>443.5</ele>
        <time>2014-06-01T09:54:53.000Z</time>
      </trkpt>
      <trkpt lat="47.53519" lon="6.74736">
        <ele>443.9</ele>
        <time>2014-06-01T09:54:54.000Z</time>
      </trkpt>
      <trkpt lat="47.53522" lon="6.7474">
        <ele>442.9</ele>
        <time>2014-06-01T09:54:56.000Z</time>
      </trkpt>
      <trkpt lat="47.53524" lon="6.74743">
        <ele>440.8</ele>
        <time>2014-06-01T09:54:57.000Z</time>
      </trkpt>
      <trkpt lat="47.53527" lon="6.74746">
        <ele>440.8</ele>
        <time>2014-06-01T09:54:58.000Z</time>
      </trkpt>
      <trkpt lat="47.53544" lon="6.74777">
        <ele>425</ele>
        <time>2014-06-01T09:55:06.000Z</time>
      </trkpt>
      <trkpt lat="47.53547" lon="6.74782">
        <ele>425.9</ele>
        <time>2014-06-01T09:55:07.000Z</time>
      </trkpt>
      <trkpt lat="47.5355" lon="6.74788">
        <ele>426.1</ele>
        <time>2014-06-01T09:55:08.000Z</time>
      </trkpt>
      <trkpt lat="47.53554" lon="6.74793">
        <ele>424.8</ele>
        <time>2014-06-01T09:55:09.000Z</time>
      </trkpt>
      <trkpt lat="47.53558" lon="6.74799">
        <ele>422.9</ele>
        <time>2014-06-01T09:55:10.000Z</time>
      </trkpt>
      <trkpt lat="47.53561" lon="6.74804">
        <ele>420.8</ele>
        <time>2014-06-01T09:55:11.000Z</time>
      </trkpt>
      <trkpt lat="47.53563" lon="6.74809">
        <ele>419.9</ele>
        <time>2014-06-01T09:55:12.000Z</time>
      </trkpt>
      <trkpt lat="47.53566" lon="6.74815">
        <ele>418.6</ele>
        <time>2014-06-01T09:55:13.000Z</time>
      </trkpt>
      <trkpt lat="47.53569" lon="6.74819">
        <ele>416.2</ele>
        <time>2014-06-01T09:55:14.000Z</time>
      </trkpt>
      <trkpt lat="47.53571" lon="6.74824">
        <ele>416.6</ele>
        <time>2014-06-01T09:55:15.000Z</time>
      </trkpt>
      <trkpt lat="47.53574" lon="6.74828">
        <ele>416.7</ele>
        <time>2014-06-01T09:55:16.000Z</time>
      </trkpt>
      <trkpt lat="47.53577" lon="6.74832">
        <ele>418.1</ele>
        <time>2014-06-01T09:55:17.000Z</time>
      </trkpt>
      <trkpt lat="47.5358" lon="6.74835">
        <ele>417.6</ele>
        <time>2014-06-01T09:55:18.000Z</time>
      </trkpt>
      <trkpt lat="47.53582" lon="6.74838">
        <ele>416.9</ele>
        <time>2014-06-01T09:55:19.000Z</time>
      </trkpt>
      <trkpt lat="47.53585" lon="6.74841">
        <ele>416.7</ele>
        <time>2014-06-01T09:55:20.000Z</time>
      </trkpt>
      <trkpt lat="47.53588" lon="6.74845">
        <ele>416.7</ele>
        <time>2014-06-01T09:55:21.000Z</time>
      </trkpt>
      <trkpt lat="47.53592" lon="6.74849">
        <ele>416.7</ele>
        <time>2014-06-01T09:55:22.000Z</time>
      </trkpt>
      <trkpt lat="47.53595" lon="6.74853">
        <ele>417.2</ele>
        <time>2014-06-01T09:55:23.000Z</time>
      </trkpt>
      <trkpt lat="47.53598" lon="6.74856">
        <ele>418</ele>
        <time>2014-06-01T09:55:24.000Z</time>
      </trkpt>
      <trkpt lat="47.53601" lon="6.74859">
        <ele>418.2</ele>
        <time>2014-06-01T09:55:25.000Z</time>
      </trkpt>
      <trkpt lat="47.53603" lon="6.74863">
        <ele>417.7</ele>
        <time>2014-06-01T09:55:26.000Z</time>
      </trkpt>
      <trkpt lat="47.53606" lon="6.74867">
        <ele>417.4</ele>
        <time>2014-06-01T09:55:27.000Z</time>
      </trkpt>
      <trkpt lat="47.53608" lon="6.7487">
        <ele>417.5</ele>
        <time>2014-06-01T09:55:28.000Z</time>
      </trkpt>
      <trkpt lat="47.53611" lon="6.74874">
        <ele>417.5</ele>
        <time>2014-06-01T09:55:29.000Z</time>
      </trkpt>
      <trkpt lat="47.53614" lon="6.74877">
        <ele>416.9</ele>
        <time>2014-06-01T09:55:30.000Z</time>
      </trkpt>
      <trkpt lat="47.53617" lon="6.74881">
        <ele>416.3</ele>
        <time>2014-06-01T09:55:31.000Z</time>
      </trkpt>
      <trkpt lat="47.5362" lon="6.74885">
        <ele>417.8</ele>
        <time>2014-06-01T09:55:32.000Z</time>
      </trkpt>
      <trkpt lat="47.53623" lon="6.74889">
        <ele>416</ele>
        <time>2014-06-01T09:55:33.000Z</time>
      </trkpt>
      <trkpt lat="47.53626" lon="6.74892">
        <ele>415.4</ele>
        <time>2014-06-01T09:55:34.000Z</time>
      </trkpt>
      <trkpt lat="47.53629" lon="6.74895">
        <ele>415</ele>
        <time>2014-06-01T09:55:35.000Z</time>
      </trkpt>
      <trkpt lat="47.53631" lon="6.74898">
        <ele>415</ele>
        <time>2014-06-01T09:55:36.000Z</time>
      </trkpt>
      <trkpt lat="47.53633" lon="6.74901">
        <ele>414.8</ele>
        <time>2014-06-01T09:55:37.000Z</time>
      </trkpt>
      <trkpt lat="47.53634" lon="6.74905">
        <ele>414.1</ele>
        <time>2014-06-01T09:55:38.000Z</time>
      </trkpt>
      <trkpt lat="47.53636" lon="6.74909">
        <ele>414.8</ele>
        <time>2014-06-01T09:55:39.000Z</time>
      </trkpt>
      <trkpt lat="47.53638" lon="6.74913">
        <ele>414.6</ele>
        <time>2014-06-01T09:55:40.000Z</time>
      </trkpt>
      <trkpt lat="47.5364" lon="6.74918">
        <ele>415.2</ele>
        <time>2014-06-01T09:55:41.000Z</time>
      </trkpt>
      <trkpt lat="47.53642" lon="6.74922">
        <ele>415.7</ele>
        <time>2014-06-01T09:55:42.000Z</time>
      </trkpt>
      <trkpt lat="47.53645" lon="6.74926">
        <ele>416.1</ele>
        <time>2014-06-01T09:55:43.000Z</time>
      </trkpt>
      <trkpt lat="47.53648" lon="6.7493">
        <ele>416.5</ele>
        <time>2014-06-01T09:55:44.000Z</time>
      </trkpt>
      <trkpt lat="47.53651" lon="6.74933">
        <ele>416.6</ele>
        <time>2014-06-01T09:55:45.000Z</time>
      </trkpt>
      <trkpt lat="47.53654" lon="6.74937">
        <ele>417.2</ele>
        <time>2014-06-01T09:55:46.000Z</time>
      </trkpt>
      <trkpt lat="47.53657" lon="6.74939">
        <ele>418.2</ele>
        <time>2014-06-01T09:55:47.000Z</time>
      </trkpt>
      <trkpt lat="47.5366" lon="6.74942">
        <ele>418.6</ele>
        <time>2014-06-01T09:55:48.000Z</time>
      </trkpt>
      <trkpt lat="47.53663" lon="6.74945">
        <ele>419.4</ele>
        <time>2014-06-01T09:55:49.000Z</time>
      </trkpt>
      <trkpt lat="47.53666" lon="6.74949">
        <ele>420.1</ele>
        <time>2014-06-01T09:55:50.000Z</time>
      </trkpt>
      <trkpt lat="47.53669" lon="6.74953">
        <ele>421.2</ele>
        <time>2014-06-01T09:55:51.000Z</time>
      </trkpt>
      <trkpt lat="47.53672" lon="6.74957">
        <ele>420.5</ele>
        <time>2014-06-01T09:55:52.000Z</time>
      </trkpt>
      <trkpt lat="47.53674" lon="6.74961">
        <ele>420.7</ele>
        <time>2014-06-01T09:55:53.000Z</time>
      </trkpt>
      <trkpt lat="47.53678" lon="6.74965">
        <ele>420</ele>
        <time>2014-06-01T09:55:54.000Z</time>
      </trkpt>
      <trkpt lat="47.53681" lon="6.7497">
        <ele>418</ele>
        <time>2014-06-01T09:55:55.000Z</time>
      </trkpt>
      <trkpt lat="47.53684" lon="6.74974">
        <ele>417.6</ele>
        <time>2014-06-01T09:55:56.000Z</time>
      </trkpt>
      <trkpt lat="47.53687" lon="6.74978">
        <ele>419.6</ele>
        <time>2014-06-01T09:55:57.000Z</time>
      </trkpt>
      <trkpt lat="47.53689" lon="6.74982">
        <ele>420.1</ele>
        <time>2014-06-01T09:55:58.000Z</time>
      </trkpt>
      <trkpt lat="47.53694" lon="6.7499">
        <ele>420.7</ele>
        <time>2014-06-01T09:56:01.000Z</time>
      </trkpt>
      <trkpt lat="47.53697" lon="6.74994">
        <ele>424.5</ele>
        <time>2014-06-01T09:56:03.000Z</time>
      </trkpt>
      <trkpt lat="47.53699" lon="6.74997">
        <ele>425.2</ele>
        <time>2014-06-01T09:56:04.000Z</time>
      </trkpt>
      <trkpt lat="47.53701" lon="6.75">
        <ele>426.2</ele>
        <time>2014-06-01T09:56:05.000Z</time>
      </trkpt>
      <trkpt lat="47.53702" lon="6.75003">
        <ele>427</ele>
        <time>2014-06-01T09:56:06.000Z</time>
      </trkpt>
      <trkpt lat="47.53704" lon="6.75007">
        <ele>427.4</ele>
        <time>2014-06-01T09:56:07.000Z</time>
      </trkpt>
      <trkpt lat="47.53706" lon="6.7501">
        <ele>427</ele>
        <time>2014-06-01T09:56:08.000Z</time>
      </trkpt>
      <trkpt lat="47.53707" lon="6.75014">
        <ele>427.5</ele>
        <time>2014-06-01T09:56:09.000Z</time>
      </trkpt>
      <trkpt lat="47.53709" lon="6.75018">
        <ele>428.3</ele>
        <time>2014-06-01T09:56:10.000Z</time>
      </trkpt>
      <trkpt lat="47.53711" lon="6.75022">
        <ele>428.4</ele>
        <time>2014-06-01T09:56:11.000Z</time>
      </trkpt>
      <trkpt lat="47.53712" lon="6.75026">
        <ele>429.2</ele>
        <time>2014-06-01T09:56:12.000Z</time>
      </trkpt>
      <trkpt lat="47.53714" lon="6.7503">
        <ele>429.5</ele>
        <time>2014-06-01T09:56:13.000Z</time>
      </trkpt>
      <trkpt lat="47.53716" lon="6.75033">
        <ele>429.8</ele>
        <time>2014-06-01T09:56:14.000Z</time>
      </trkpt>
      <trkpt lat="47.53718" lon="6.75035">
        <ele>429.9</ele>
        <time>2014-06-01T09:56:15.000Z</time>
      </trkpt>
      <trkpt lat="47.53719" lon="6.75038">
        <ele>429.5</ele>
        <time>2014-06-01T09:56:16.000Z</time>
      </trkpt>
      <trkpt lat="47.53721" lon="6.75041">
        <ele>429.6</ele>
        <time>2014-06-01T09:56:17.000Z</time>
      </trkpt>
      <trkpt lat="47.53722" lon="6.75043">
        <ele>429.6</ele>
        <time>2014-06-01T09:56:18.000Z</time>
      </trkpt>
      <trkpt lat="47.53725" lon="6.75048">
        <ele>430.2</ele>
        <time>2014-06-01T09:56:20.000Z</time>
      </trkpt>
      <trkpt lat="47.53725" lon="6.75049">
        <ele>430</ele>
        <time>2014-06-01T09:56:21.000Z</time>
      </trkpt>
      <trkpt lat="47.53727" lon="6.75055">
        <ele>430.3</ele>
        <time>2014-06-01T09:56:28.000Z</time>
      </trkpt>
      <trkpt lat="47.53727" lon="6.75055">
        <ele>430.4</ele>
        <time>2014-06-01T09:56:29.000Z</time>
      </trkpt>
      <trkpt lat="47.53729" lon="6.75059">
        <ele>431.1</ele>
        <time>2014-06-01T09:56:45.000Z</time>
      </trkpt>
      <trkpt lat="47.53727" lon="6.75062">
        <ele>431.4</ele>
        <time>2014-06-01T09:56:46.000Z</time>
      </trkpt>
      <trkpt lat="47.53725" lon="6.75067">
        <ele>432.3</ele>
        <time>2014-06-01T09:56:48.000Z</time>
      </trkpt>
      <trkpt lat="47.53723" lon="6.7507">
        <ele>434</ele>
        <time>2014-06-01T09:56:49.000Z</time>
      </trkpt>
      <trkpt lat="47.53721" lon="6.75074">
        <ele>435.2</ele>
        <time>2014-06-01T09:56:50.000Z</time>
      </trkpt>
      <trkpt lat="47.53719" lon="6.75077">
        <ele>435.9</ele>
        <time>2014-06-01T09:56:51.000Z</time>
      </trkpt>
      <trkpt lat="47.53717" lon="6.75081">
        <ele>436.1</ele>
        <time>2014-06-01T09:56:52.000Z</time>
      </trkpt>
      <trkpt lat="47.53715" lon="6.75086">
        <ele>436.2</ele>
        <time>2014-06-01T09:56:53.000Z</time>
      </trkpt>
      <trkpt lat="47.53713" lon="6.75091">
        <ele>436.4</ele>
        <time>2014-06-01T09:56:54.000Z</time>
      </trkpt>
      <trkpt lat="47.53711" lon="6.75096">
        <ele>435.2</ele>
        <time>2014-06-01T09:56:55.000Z</time>
      </trkpt>
      <trkpt lat="47.53709" lon="6.75102">
        <ele>435.7</ele>
        <time>2014-06-01T09:56:56.000Z</time>
      </trkpt>
      <trkpt lat="47.53706" lon="6.75109">
        <ele>436.7</ele>
        <time>2014-06-01T09:56:57.000Z</time>
      </trkpt>
      <trkpt lat="47.53705" lon="6.75115">
        <ele>437</ele>
        <time>2014-06-01T09:56:58.000Z</time>
      </trkpt>
      <trkpt lat="47.5369" lon="6.75171">
        <ele>438.3</ele>
        <time>2014-06-01T09:57:06.000Z</time>
      </trkpt>
      <trkpt lat="47.53689" lon="6.75181">
        <ele>437</ele>
        <time>2014-06-01T09:57:07.000Z</time>
      </trkpt>
      <trkpt lat="47.53689" lon="6.75189">
        <ele>436.7</ele>
        <time>2014-06-01T09:57:08.000Z</time>
      </trkpt>
      <trkpt lat="47.53687" lon="6.75199">
        <ele>435.8</ele>
        <time>2014-06-01T09:57:09.000Z</time>
      </trkpt>
      <trkpt lat="47.53682" lon="6.75204">
        <ele>435</ele>
        <time>2014-06-01T09:57:10.000Z</time>
      </trkpt>
      <trkpt lat="47.53679" lon="6.75209">
        <ele>434.2</ele>
        <time>2014-06-01T09:57:11.000Z</time>
      </trkpt>
      <trkpt lat="47.53675" lon="6.75214">
        <ele>433.5</ele>
        <time>2014-06-01T09:57:12.000Z</time>
      </trkpt>
      <trkpt lat="47.53671" lon="6.7522">
        <ele>433.3</ele>
        <time>2014-06-01T09:57:13.000Z</time>
      </trkpt>
      <trkpt lat="47.53667" lon="6.75225">
        <ele>431.9</ele>
        <time>2014-06-01T09:57:14.000Z</time>
      </trkpt>
      <trkpt lat="47.53663" lon="6.75229">
        <ele>431.9</ele>
        <time>2014-06-01T09:57:15.000Z</time>
      </trkpt>
      <trkpt lat="47.53658" lon="6.75234">
        <ele>431.6</ele>
        <time>2014-06-01T09:57:16.000Z</time>
      </trkpt>
      <trkpt lat="47.53649" lon="6.75237">
        <ele>428.2</ele>
        <time>2014-06-01T09:57:17.000Z</time>
      </trkpt>
      <trkpt lat="47.53643" lon="6.7524">
        <ele>425.4</ele>
        <time>2014-06-01T09:57:18.000Z</time>
      </trkpt>
      <trkpt lat="47.53638" lon="6.75242">
        <ele>424.6</ele>
        <time>2014-06-01T09:57:19.000Z</time>
      </trkpt>
      <trkpt lat="47.53634" lon="6.75243">
        <ele>424.1</ele>
        <time>2014-06-01T09:57:20.000Z</time>
      </trkpt>
      <trkpt lat="47.5363" lon="6.75243">
        <ele>423.6</ele>
        <time>2014-06-01T09:57:21.000Z</time>
      </trkpt>
      <trkpt lat="47.53627" lon="6.75242">
        <ele>423.9</ele>
        <time>2014-06-01T09:57:22.000Z</time>
      </trkpt>
      <trkpt lat="47.53625" lon="6.75241">
        <ele>424.1</ele>
        <time>2014-06-01T09:57:23.000Z</time>
      </trkpt>
      <trkpt lat="47.53621" lon="6.75241">
        <ele>424.5</ele>
        <time>2014-06-01T09:57:25.000Z</time>
      </trkpt>
      <trkpt lat="47.5362" lon="6.75241">
        <ele>425.5</ele>
        <time>2014-06-01T09:57:26.000Z</time>
      </trkpt>
      <trkpt lat="47.53618" lon="6.75246">
        <ele>425.3</ele>
        <time>2014-06-01T09:57:29.000Z</time>
      </trkpt>
      <trkpt lat="47.53616" lon="6.75248">
        <ele>424.7</ele>
        <time>2014-06-01T09:57:30.000Z</time>
      </trkpt>
      <trkpt lat="47.53613" lon="6.75251">
        <ele>425.8</ele>
        <time>2014-06-01T09:57:33.000Z</time>
      </trkpt>
      <trkpt lat="47.53612" lon="6.75252">
        <ele>425.4</ele>
        <time>2014-06-01T09:57:34.000Z</time>
      </trkpt>
      <trkpt lat="47.53609" lon="6.75253">
        <ele>424.3</ele>
        <time>2014-06-01T09:57:36.000Z</time>
      </trkpt>
      <trkpt lat="47.53607" lon="6.75253">
        <ele>423.7</ele>
        <time>2014-06-01T09:57:37.000Z</time>
      </trkpt>
      <trkpt lat="47.53603" lon="6.75256">
        <ele>425.4</ele>
        <time>2014-06-01T09:57:40.000Z</time>
      </trkpt>
      <trkpt lat="47.53602" lon="6.75258">
        <ele>425</ele>
        <time>2014-06-01T09:57:41.000Z</time>
      </trkpt>
      <trkpt lat="47.536" lon="6.7526">
        <ele>423.4</ele>
        <time>2014-06-01T09:57:42.000Z</time>
      </trkpt>
      <trkpt lat="47.53598" lon="6.75262">
        <ele>423.2</ele>
        <time>2014-06-01T09:57:43.000Z</time>
      </trkpt>
      <trkpt lat="47.53595" lon="6.75266">
        <ele>424.7</ele>
        <time>2014-06-01T09:57:45.000Z</time>
      </trkpt>
      <trkpt lat="47.53594" lon="6.75267">
        <ele>425.6</ele>
        <time>2014-06-01T09:57:46.000Z</time>
      </trkpt>
      <trkpt lat="47.53591" lon="6.75269">
        <ele>425</ele>
        <time>2014-06-01T09:57:49.000Z</time>
      </trkpt>
      <trkpt lat="47.53588" lon="6.75269">
        <ele>422.9</ele>
        <time>2014-06-01T09:57:50.000Z</time>
      </trkpt>
      <trkpt lat="47.53584" lon="6.75269">
        <ele>421.7</ele>
        <time>2014-06-01T09:57:51.000Z</time>
      </trkpt>
      <trkpt lat="47.53579" lon="6.75268">
        <ele>420.8</ele>
        <time>2014-06-01T09:57:52.000Z</time>
      </trkpt>
      <trkpt lat="47.53567" lon="6.75268">
        <ele>420.4</ele>
        <time>2014-06-01T09:57:53.000Z</time>
      </trkpt>
      <trkpt lat="47.5356" lon="6.75271">
        <ele>421.2</ele>
        <time>2014-06-01T09:57:54.000Z</time>
      </trkpt>
      <trkpt lat="47.53554" lon="6.75272">
        <ele>421.3</ele>
        <time>2014-06-01T09:57:55.000Z</time>
      </trkpt>
      <trkpt lat="47.53548" lon="6.75273">
        <ele>420.8</ele>
        <time>2014-06-01T09:57:56.000Z</time>
      </trkpt>
      <trkpt lat="47.53543" lon="6.75273">
        <ele>420.3</ele>
        <time>2014-06-01T09:57:57.000Z</time>
      </trkpt>
      <trkpt lat="47.53536" lon="6.75271">
        <ele>419.2</ele>
        <time>2014-06-01T09:57:58.000Z</time>
      </trkpt>
      <trkpt lat="47.53486" lon="6.75269">
        <ele>413.9</ele>
        <time>2014-06-01T09:58:06.000Z</time>
      </trkpt>
      <trkpt lat="47.53483" lon="6.75269">
        <ele>414.2</ele>
        <time>2014-06-01T09:58:07.000Z</time>
      </trkpt>
      <trkpt lat="47.53478" lon="6.75271">
        <ele>414.8</ele>
        <time>2014-06-01T09:58:08.000Z</time>
      </trkpt>
      <trkpt lat="47.53473" lon="6.75271">
        <ele>414.4</ele>
        <time>2014-06-01T09:58:09.000Z</time>
      </trkpt>
      <trkpt lat="47.53468" lon="6.75272">
        <ele>414.2</ele>
        <time>2014-06-01T09:58:10.000Z</time>
      </trkpt>
      <trkpt lat="47.53463" lon="6.75272">
        <ele>413.7</ele>
        <time>2014-06-01T09:58:11.000Z</time>
      </trkpt>
      <trkpt lat="47.53457" lon="6.75273">
        <ele>413.5</ele>
        <time>2014-06-01T09:58:12.000Z</time>
      </trkpt>
      <trkpt lat="47.53452" lon="6.75274">
        <ele>413.2</ele>
        <time>2014-06-01T09:58:13.000Z</time>
      </trkpt>
      <trkpt lat="47.53442" lon="6.75272">
        <ele>411.6</ele>
        <time>2014-06-01T09:58:14.000Z</time>
      </trkpt>
      <trkpt lat="47.53436" lon="6.75274">
        <ele>411.3</ele>
        <time>2014-06-01T09:58:15.000Z</time>
      </trkpt>
      <trkpt lat="47.5343" lon="6.75276">
        <ele>410.7</ele>
        <time>2014-06-01T09:58:16.000Z</time>
      </trkpt>
      <trkpt lat="47.53425" lon="6.7528">
        <ele>410.6</ele>
        <time>2014-06-01T09:58:17.000Z</time>
      </trkpt>
      <trkpt lat="47.53421" lon="6.75284">
        <ele>411</ele>
        <time>2014-06-01T09:58:18.000Z</time>
      </trkpt>
      <trkpt lat="47.53417" lon="6.75288">
        <ele>411</ele>
        <time>2014-06-01T09:58:19.000Z</time>
      </trkpt>
      <trkpt lat="47.53411" lon="6.75292">
        <ele>407.5</ele>
        <time>2014-06-01T09:58:20.000Z</time>
      </trkpt>
      <trkpt lat="47.53404" lon="6.75295">
        <ele>407.7</ele>
        <time>2014-06-01T09:58:21.000Z</time>
      </trkpt>
      <trkpt lat="47.53398" lon="6.75298">
        <ele>407.5</ele>
        <time>2014-06-01T09:58:22.000Z</time>
      </trkpt>
      <trkpt lat="47.53394" lon="6.75301">
        <ele>407.7</ele>
        <time>2014-06-01T09:58:23.000Z</time>
      </trkpt>
      <trkpt lat="47.53387" lon="6.75302">
        <ele>407.9</ele>
        <time>2014-06-01T09:58:24.000Z</time>
      </trkpt>
      <trkpt lat="47.53381" lon="6.75305">
        <ele>407.8</ele>
        <time>2014-06-01T09:58:25.000Z</time>
      </trkpt>
      <trkpt lat="47.53375" lon="6.75308">
        <ele>409.4</ele>
        <time>2014-06-01T09:58:26.000Z</time>
      </trkpt>
      <trkpt lat="47.53369" lon="6.75312">
        <ele>409.5</ele>
        <time>2014-06-01T09:58:27.000Z</time>
      </trkpt>
      <trkpt lat="47.53362" lon="6.75315">
        <ele>409.2</ele>
        <time>2014-06-01T09:58:28.000Z</time>
      </trkpt>
      <trkpt lat="47.53355" lon="6.75318">
        <ele>408.7</ele>
        <time>2014-06-01T09:58:29.000Z</time>
      </trkpt>
      <trkpt lat="47.53349" lon="6.75319">
        <ele>408.4</ele>
        <time>2014-06-01T09:58:30.000Z</time>
      </trkpt>
      <trkpt lat="47.53345" lon="6.7532">
        <ele>408.8</ele>
        <time>2014-06-01T09:58:31.000Z</time>
      </trkpt>
      <trkpt lat="47.5334" lon="6.75322">
        <ele>408</ele>
        <time>2014-06-01T09:58:32.000Z</time>
      </trkpt>
      <trkpt lat="47.53334" lon="6.75325">
        <ele>406.8</ele>
        <time>2014-06-01T09:58:33.000Z</time>
      </trkpt>
      <trkpt lat="47.53328" lon="6.75329">
        <ele>405.8</ele>
        <time>2014-06-01T09:58:34.000Z</time>
      </trkpt>
      <trkpt lat="47.5332" lon="6.75332">
        <ele>405.5</ele>
        <time>2014-06-01T09:58:35.000Z</time>
      </trkpt>
      <trkpt lat="47.53315" lon="6.75338">
        <ele>405.3</ele>
        <time>2014-06-01T09:58:36.000Z</time>
      </trkpt>
      <trkpt lat="47.53309" lon="6.75345">
        <ele>405.4</ele>
        <time>2014-06-01T09:58:37.000Z</time>
      </trkpt>
      <trkpt lat="47.53299" lon="6.75351">
        <ele>405</ele>
        <time>2014-06-01T09:58:38.000Z</time>
      </trkpt>
      <trkpt lat="47.53292" lon="6.75354">
        <ele>404.7</ele>
        <time>2014-06-01T09:58:39.000Z</time>
      </trkpt>
      <trkpt lat="47.53284" lon="6.75359">
        <ele>405.4</ele>
        <time>2014-06-01T09:58:40.000Z</time>
      </trkpt>
      <trkpt lat="47.53279" lon="6.75367">
        <ele>404.6</ele>
        <time>2014-06-01T09:58:41.000Z</time>
      </trkpt>
      <trkpt lat="47.53273" lon="6.75375">
        <ele>404.1</ele>
        <time>2014-06-01T09:58:42.000Z</time>
      </trkpt>
      <trkpt lat="47.53269" lon="6.75383">
        <ele>403.1</ele>
        <time>2014-06-01T09:58:43.000Z</time>
      </trkpt>
      <trkpt lat="47.53264" lon="6.7539">
        <ele>402.9</ele>
        <time>2014-06-01T09:58:44.000Z</time>
      </trkpt>
      <trkpt lat="47.53259" lon="6.75395">
        <ele>403.8</ele>
        <time>2014-06-01T09:58:45.000Z</time>
      </trkpt>
      <trkpt lat="47.53253" lon="6.75397">
        <ele>402.4</ele>
        <time>2014-06-01T09:58:46.000Z</time>
      </trkpt>
      <trkpt lat="47.53247" lon="6.75397">
        <ele>401.9</ele>
        <time>2014-06-01T09:58:47.000Z</time>
      </trkpt>
      <trkpt lat="47.5324" lon="6.75397">
        <ele>401.3</ele>
        <time>2014-06-01T09:58:48.000Z</time>
      </trkpt>
      <trkpt lat="47.53233" lon="6.75397">
        <ele>400.3</ele>
        <time>2014-06-01T09:58:49.000Z</time>
      </trkpt>
      <trkpt lat="47.53224" lon="6.75397">
        <ele>398</ele>
        <time>2014-06-01T09:58:50.000Z</time>
      </trkpt>
      <trkpt lat="47.53214" lon="6.75395">
        <ele>397.4</ele>
        <time>2014-06-01T09:58:51.000Z</time>
      </trkpt>
      <trkpt lat="47.53206" lon="6.75393">
        <ele>398.3</ele>
        <time>2014-06-01T09:58:52.000Z</time>
      </trkpt>
      <trkpt lat="47.53201" lon="6.75393">
        <ele>397.4</ele>
        <time>2014-06-01T09:58:53.000Z</time>
      </trkpt>
      <trkpt lat="47.53199" lon="6.75398">
        <ele>396.6</ele>
        <time>2014-06-01T09:58:55.000Z</time>
      </trkpt>
      <trkpt lat="47.53198" lon="6.75398">
        <ele>397.1</ele>
        <time>2014-06-01T09:58:56.000Z</time>
      </trkpt>
      <trkpt lat="47.53196" lon="6.75399">
        <ele>397.8</ele>
        <time>2014-06-01T09:58:57.000Z</time>
      </trkpt>
      <trkpt lat="47.53193" lon="6.75397">
        <ele>397.6</ele>
        <time>2014-06-01T09:58:58.000Z</time>
      </trkpt>
      <trkpt lat="47.53163" lon="6.75385">
        <ele>395.2</ele>
        <time>2014-06-01T09:59:06.000Z</time>
      </trkpt>
      <trkpt lat="47.53159" lon="6.75383">
        <ele>394.8</ele>
        <time>2014-06-01T09:59:07.000Z</time>
      </trkpt>
      <trkpt lat="47.53143" lon="6.7538">
        <ele>390.6</ele>
        <time>2014-06-01T09:59:08.000Z</time>
      </trkpt>
      <trkpt lat="47.53135" lon="6.75378">
        <ele>390.1</ele>
        <time>2014-06-01T09:59:09.000Z</time>
      </trkpt>
      <trkpt lat="47.53129" lon="6.75376">
        <ele>389.5</ele>
        <time>2014-06-01T09:59:10.007Z</time>
      </trkpt>
      <trkpt lat="47.53124" lon="6.75371">
        <ele>390.4</ele>
        <time>2014-06-01T09:59:11.000Z</time>
      </trkpt>
      <trkpt lat="47.5312" lon="6.7537">
        <ele>390.8</ele>
        <time>2014-06-01T09:59:12.000Z</time>
      </trkpt>
      <trkpt lat="47.53115" lon="6.75368">
        <ele>390.1</ele>
        <time>2014-06-01T09:59:13.000Z</time>
      </trkpt>
      <trkpt lat="47.53111" lon="6.75367">
        <ele>391</ele>
        <time>2014-06-01T09:59:14.000Z</time>
      </trkpt>
      <trkpt lat="47.53109" lon="6.75366">
        <ele>390.7</ele>
        <time>2014-06-01T09:59:15.000Z</time>
      </trkpt>
      <trkpt lat="47.53105" lon="6.75363">
        <ele>390.3</ele>
        <time>2014-06-01T09:59:18.000Z</time>
      </trkpt>
      <trkpt lat="47.53104" lon="6.75365">
        <ele>390.3</ele>
        <time>2014-06-01T09:59:19.000Z</time>
      </trkpt>
      <trkpt lat="47.531" lon="6.75363">
        <ele>388.7</ele>
        <time>2014-06-01T09:59:23.000Z</time>
      </trkpt>
      <trkpt lat="47.53099" lon="6.75361">
        <ele>387.7</ele>
        <time>2014-06-01T09:59:24.000Z</time>
      </trkpt>
      <trkpt lat="47.53095" lon="6.75357">
        <ele>386.4</ele>
        <time>2014-06-01T09:59:29.000Z</time>
      </trkpt>
      <trkpt lat="47.53095" lon="6.75356">
        <ele>385.8</ele>
        <time>2014-06-01T09:59:30.000Z</time>
      </trkpt>
      <trkpt lat="47.53092" lon="6.75351">
        <ele>383.7</ele>
        <time>2014-06-01T09:59:32.000Z</time>
      </trkpt>
      <trkpt lat="47.53091" lon="6.75349">
        <ele>383.3</ele>
        <time>2014-06-01T09:59:33.000Z</time>
      </trkpt>
      <trkpt lat="47.53087" lon="6.75346">
        <ele>383.3</ele>
        <time>2014-06-01T09:59:36.000Z</time>
      </trkpt>
      <trkpt lat="47.53087" lon="6.75346">
        <ele>383.3</ele>
        <time>2014-06-01T09:59:37.000Z</time>
      </trkpt>
      <trkpt lat="47.53083" lon="6.75342">
        <ele>381.1</ele>
        <time>2014-06-01T09:59:42.000Z</time>
      </trkpt>
      <trkpt lat="47.53082" lon="6.7534">
        <ele>379.6</ele>
        <time>2014-06-01T09:59:43.000Z</time>
      </trkpt>
      <trkpt lat="47.53078" lon="6.75338">
        <ele>380.5</ele>
        <time>2014-06-01T09:59:47.000Z</time>
      </trkpt>
      <trkpt lat="47.53077" lon="6.75339">
        <ele>380.7</ele>
        <time>2014-06-01T09:59:48.000Z</time>
      </trkpt>
      <trkpt lat="47.53072" lon="6.7534">
        <ele>381.6</ele>
        <time>2014-06-01T09:59:51.000Z</time>
      </trkpt>
      <trkpt lat="47.5307" lon="6.7534">
        <ele>381.7</ele>
        <time>2014-06-01T09:59:52.000Z</time>
      </trkpt>
      <trkpt lat="47.53067" lon="6.75339">
        <ele>382.1</ele>
        <time>2014-06-01T09:59:53.000Z</time>
      </trkpt>
      <trkpt lat="47.53064" lon="6.75339">
        <ele>381.1</ele>
        <time>2014-06-01T09:59:54.000Z</time>
      </trkpt>
      <trkpt lat="47.53061" lon="6.75339">
        <ele>380.5</ele>
        <time>2014-06-01T09:59:55.000Z</time>
      </trkpt>
      <trkpt lat="47.53058" lon="6.75339">
        <ele>380.6</ele>
        <time>2014-06-01T09:59:56.000Z</time>
      </trkpt>
      <trkpt lat="47.53055" lon="6.75339">
        <ele>380.4</ele>
        <time>2014-06-01T09:59:57.000Z</time>
      </trkpt>
      <trkpt lat="47.53051" lon="6.75338">
        <ele>379.4</ele>
        <time>2014-06-01T09:59:58.000Z</time>
      </trkpt>
      <trkpt lat="47.5303" lon="6.75331">
        <ele>373.2</ele>
        <time>2014-06-01T10:00:06.000Z</time>
      </trkpt>
      <trkpt lat="47.53028" lon="6.75331">
        <ele>373.8</ele>
        <time>2014-06-01T10:00:07.000Z</time>
      </trkpt>
      <trkpt lat="47.53024" lon="6.7533">
        <ele>375.7</ele>
        <time>2014-06-01T10:00:08.000Z</time>
      </trkpt>
      <trkpt lat="47.5302" lon="6.7533">
        <ele>376.3</ele>
        <time>2014-06-01T10:00:09.000Z</time>
      </trkpt>
      <trkpt lat="47.53016" lon="6.7533">
        <ele>376.2</ele>
        <time>2014-06-01T10:00:10.000Z</time>
      </trkpt>
      <trkpt lat="47.53013" lon="6.7533">
        <ele>376.2</ele>
        <time>2014-06-01T10:00:11.000Z</time>
      </trkpt>
      <trkpt lat="47.53009" lon="6.75329">
        <ele>377.8</ele>
        <time>2014-06-01T10:00:12.000Z</time>
      </trkpt>
      <trkpt lat="47.53007" lon="6.75329">
        <ele>378.1</ele>
        <time>2014-06-01T10:00:13.000Z</time>
      </trkpt>
      <trkpt lat="47.53004" lon="6.75328">
        <ele>374.3</ele>
        <time>2014-06-01T10:00:14.000Z</time>
      </trkpt>
      <trkpt lat="47.53002" lon="6.75327">
        <ele>374.8</ele>
        <time>2014-06-01T10:00:15.000Z</time>
      </trkpt>
      <trkpt lat="47.52999" lon="6.75326">
        <ele>375.7</ele>
        <time>2014-06-01T10:00:16.000Z</time>
      </trkpt>
      <trkpt lat="47.52995" lon="6.75323">
        <ele>375.6</ele>
        <time>2014-06-01T10:00:18.000Z</time>
      </trkpt>
      <trkpt lat="47.52994" lon="6.75322">
        <ele>375.4</ele>
        <time>2014-06-01T10:00:19.000Z</time>
      </trkpt>
      <trkpt lat="47.5299" lon="6.75321">
        <ele>376.5</ele>
        <time>2014-06-01T10:00:21.000Z</time>
      </trkpt>
      <trkpt lat="47.52989" lon="6.75321">
        <ele>377.5</ele>
        <time>2014-06-01T10:00:22.000Z</time>
      </trkpt>
      <trkpt lat="47.52985" lon="6.7532">
        <ele>379.1</ele>
        <time>2014-06-01T10:00:24.000Z</time>
      </trkpt>
      <trkpt lat="47.52983" lon="6.75319">
        <ele>379.6</ele>
        <time>2014-06-01T10:00:25.000Z</time>
      </trkpt>
      <trkpt lat="47.5298" lon="6.75318">
        <ele>376.9</ele>
        <time>2014-06-01T10:00:26.000Z</time>
      </trkpt>
      <trkpt lat="47.52978" lon="6.75317">
        <ele>376.8</ele>
        <time>2014-06-01T10:00:27.000Z</time>
      </trkpt>
      <trkpt lat="47.52976" lon="6.75316">
        <ele>377</ele>
        <time>2014-06-01T10:00:28.000Z</time>
      </trkpt>
      <trkpt lat="47.52973" lon="6.75315">
        <ele>378.5</ele>
        <time>2014-06-01T10:00:29.000Z</time>
      </trkpt>
      <trkpt lat="47.52971" lon="6.75314">
        <ele>379.2</ele>
        <time>2014-06-01T10:00:30.000Z</time>
      </trkpt>
      <trkpt lat="47.52968" lon="6.75314">
        <ele>380.7</ele>
        <time>2014-06-01T10:00:31.000Z</time>
      </trkpt>
      <trkpt lat="47.52966" lon="6.75314">
        <ele>380.4</ele>
        <time>2014-06-01T10:00:32.000Z</time>
      </trkpt>
      <trkpt lat="47.52963" lon="6.75314">
        <ele>381.8</ele>
        <time>2014-06-01T10:00:33.000Z</time>
      </trkpt>
      <trkpt lat="47.52961" lon="6.75314">
        <ele>383.7</ele>
        <time>2014-06-01T10:00:34.000Z</time>
      </trkpt>
      <trkpt lat="47.52958" lon="6.75314">
        <ele>384.7</ele>
        <time>2014-06-01T10:00:35.000Z</time>
      </trkpt>
      <trkpt lat="47.52954" lon="6.75313">
        <ele>386.5</ele>
        <time>2014-06-01T10:00:37.000Z</time>
      </trkpt>
      <trkpt lat="47.52953" lon="6.75313">
        <ele>386.2</ele>
        <time>2014-06-01T10:00:38.000Z</time>
      </trkpt>
      <trkpt lat="47.5295" lon="6.75312">
        <ele>385</ele>
        <time>2014-06-01T10:00:40.000Z</time>
      </trkpt>
      <trkpt lat="47.52948" lon="6.75311">
        <ele>385.4</ele>
        <time>2014-06-01T10:00:41.000Z</time>
      </trkpt>
      <trkpt lat="47.52944" lon="6.7531">
        <ele>385.4</ele>
        <time>2014-06-01T10:00:43.000Z</time>
      </trkpt>
      <trkpt lat="47.52942" lon="6.75309">
        <ele>386</ele>
        <time>2014-06-01T10:00:44.000Z</time>
      </trkpt>
      <trkpt lat="47.52939" lon="6.75308">
        <ele>384.7</ele>
        <time>2014-06-01T10:00:46.000Z</time>
      </trkpt>
      <trkpt lat="47.52937" lon="6.75307">
        <ele>385.7</ele>
        <time>2014-06-01T10:00:47.000Z</time>
      </trkpt>
      <trkpt lat="47.52934" lon="6.75307">
        <ele>389.7</ele>
        <time>2014-06-01T10:00:50.000Z</time>
      </trkpt>
      <trkpt lat="47.52933" lon="6.75307">
        <ele>389.9</ele>
        <time>2014-06-01T10:00:51.000Z</time>
      </trkpt>
      <trkpt lat="47.5293" lon="6.75305">
        <ele>391.2</ele>
        <time>2014-06-01T10:00:54.000Z</time>
      </trkpt>
      <trkpt lat="47.52928" lon="6.75305">
        <ele>392</ele>
        <time>2014-06-01T10:00:55.000Z</time>
      </trkpt>
      <trkpt lat="47.52924" lon="6.75303">
        <ele>392.3</ele>
        <time>2014-06-01T10:00:57.000Z</time>
      </trkpt>
      <trkpt lat="47.52922" lon="6.75302">
        <ele>392.6</ele>
        <time>2014-06-01T10:00:58.000Z</time>
      </trkpt>
      <trkpt lat="47.52917" lon="6.75302">
        <ele>393.5</ele>
        <time>2014-06-01T10:01:01.000Z</time>
      </trkpt>
      <trkpt lat="47.52913" lon="6.75301">
        <ele>398.1</ele>
        <time>2014-06-01T10:01:04.000Z</time>
      </trkpt>
      <trkpt lat="47.52911" lon="6.75301">
        <ele>398.6</ele>
        <time>2014-06-01T10:01:05.000Z</time>
      </trkpt>
      <trkpt lat="47.52909" lon="6.75302">
        <ele>398.1</ele>
        <time>2014-06-01T10:01:07.000Z</time>
      </trkpt>
      <trkpt lat="47.52907" lon="6.75301">
        <ele>397.8</ele>
        <time>2014-06-01T10:01:08.000Z</time>
      </trkpt>
      <trkpt lat="47.52903" lon="6.753">
        <ele>397.5</ele>
        <time>2014-06-01T10:01:10.000Z</time>
      </trkpt>
      <trkpt lat="47.52902" lon="6.75299">
        <ele>397.9</ele>
        <time>2014-06-01T10:01:11.000Z</time>
      </trkpt>
      <trkpt lat="47.52898" lon="6.75296">
        <ele>398</ele>
        <time>2014-06-01T10:01:13.000Z</time>
      </trkpt>
      <trkpt lat="47.52896" lon="6.75294">
        <ele>398.1</ele>
        <time>2014-06-01T10:01:14.000Z</time>
      </trkpt>
      <trkpt lat="47.52893" lon="6.75293">
        <ele>398.9</ele>
        <time>2014-06-01T10:01:15.000Z</time>
      </trkpt>
      <trkpt lat="47.5289" lon="6.75292">
        <ele>397.5</ele>
        <time>2014-06-01T10:01:16.000Z</time>
      </trkpt>
      <trkpt lat="47.52887" lon="6.75291">
        <ele>396.9</ele>
        <time>2014-06-01T10:01:17.000Z</time>
      </trkpt>
      <trkpt lat="47.52884" lon="6.7529">
        <ele>396.7</ele>
        <time>2014-06-01T10:01:18.000Z</time>
      </trkpt>
      <trkpt lat="47.52881" lon="6.75289">
        <ele>397.2</ele>
        <time>2014-06-01T10:01:19.000Z</time>
      </trkpt>
      <trkpt lat="47.52878" lon="6.75287">
        <ele>397.5</ele>
        <time>2014-06-01T10:01:20.000Z</time>
      </trkpt>
      <trkpt lat="47.52876" lon="6.75286">
        <ele>396.5</ele>
        <time>2014-06-01T10:01:21.000Z</time>
      </trkpt>
      <trkpt lat="47.52873" lon="6.75284">
        <ele>396.7</ele>
        <time>2014-06-01T10:01:22.000Z</time>
      </trkpt>
      <trkpt lat="47.52871" lon="6.75283">
        <ele>396.6</ele>
        <time>2014-06-01T10:01:23.000Z</time>
      </trkpt>
      <trkpt lat="47.52869" lon="6.75282">
        <ele>397</ele>
        <time>2014-06-01T10:01:24.000Z</time>
      </trkpt>
      <trkpt lat="47.52865" lon="6.75279">
        <ele>398.2</ele>
        <time>2014-06-01T10:01:26.000Z</time>
      </trkpt>
      <trkpt lat="47.52863" lon="6.75277">
        <ele>398.4</ele>
        <time>2014-06-01T10:01:27.000Z</time>
      </trkpt>
      <trkpt lat="47.52861" lon="6.75276">
        <ele>398.5</ele>
        <time>2014-06-01T10:01:28.000Z</time>
      </trkpt>
      <trkpt lat="47.52859" lon="6.75274">
        <ele>398.1</ele>
        <time>2014-06-01T10:01:29.000Z</time>
      </trkpt>
      <trkpt lat="47.52856" lon="6.75273">
        <ele>397.7</ele>
        <time>2014-06-01T10:01:30.000Z</time>
      </trkpt>
      <trkpt lat="47.52853" lon="6.75271">
        <ele>396.5</ele>
        <time>2014-06-01T10:01:31.000Z</time>
      </trkpt>
      <trkpt lat="47.5285" lon="6.7527">
        <ele>396.5</ele>
        <time>2014-06-01T10:01:32.000Z</time>
      </trkpt>
      <trkpt lat="47.52847" lon="6.75268">
        <ele>397.8</ele>
        <time>2014-06-01T10:01:33.000Z</time>
      </trkpt>
      <trkpt lat="47.52844" lon="6.75266">
        <ele>399.8</ele>
        <time>2014-06-01T10:01:34.000Z</time>
      </trkpt>
      <trkpt lat="47.52841" lon="6.75264">
        <ele>395.8</ele>
        <time>2014-06-01T10:01:35.000Z</time>
      </trkpt>
      <trkpt lat="47.52837" lon="6.75261">
        <ele>392.2</ele>
        <time>2014-06-01T10:01:36.000Z</time>
      </trkpt>
      <trkpt lat="47.52834" lon="6.75257">
        <ele>390.3</ele>
        <time>2014-06-01T10:01:37.000Z</time>
      </trkpt>
      <trkpt lat="47.52831" lon="6.75254">
        <ele>390.5</ele>
        <time>2014-06-01T10:01:38.000Z</time>
      </trkpt>
      <trkpt lat="47.52829" lon="6.75252">
        <ele>391.4</ele>
        <time>2014-06-01T10:01:39.000Z</time>
      </trkpt>
      <trkpt lat="47.52827" lon="6.7525">
        <ele>392</ele>
        <time>2014-06-01T10:01:40.000Z</time>
      </trkpt>
      <trkpt lat="47.52825" lon="6.75248">
        <ele>391.8</ele>
        <time>2014-06-01T10:01:41.000Z</time>
      </trkpt>
      <trkpt lat="47.52822" lon="6.75245">
        <ele>394.3</ele>
        <time>2014-06-01T10:01:43.000Z</time>
      </trkpt>
      <trkpt lat="47.5282" lon="6.75244">
        <ele>395.2</ele>
        <time>2014-06-01T10:01:44.000Z</time>
      </trkpt>
      <trkpt lat="47.52817" lon="6.75243">
        <ele>395.1</ele>
        <time>2014-06-01T10:01:46.000Z</time>
      </trkpt>
      <trkpt lat="47.52815" lon="6.75242">
        <ele>395</ele>
        <time>2014-06-01T10:01:47.000Z</time>
      </trkpt>
      <trkpt lat="47.52811" lon="6.7524">
        <ele>396.1</ele>
        <time>2014-06-01T10:01:49.000Z</time>
      </trkpt>
      <trkpt lat="47.52809" lon="6.75239">
        <ele>398.1</ele>
        <time>2014-06-01T10:01:50.000Z</time>
      </trkpt>
      <trkpt lat="47.52806" lon="6.75238">
        <ele>399.7</ele>
        <time>2014-06-01T10:01:52.000Z</time>
      </trkpt>
      <trkpt lat="47.52805" lon="6.75237">
        <ele>400.7</ele>
        <time>2014-06-01T10:01:53.000Z</time>
      </trkpt>
      <trkpt lat="47.52801" lon="6.75235">
        <ele>400.9</ele>
        <time>2014-06-01T10:01:55.000Z</time>
      </trkpt>
      <trkpt lat="47.528" lon="6.75234">
        <ele>400.9</ele>
        <time>2014-06-01T10:01:56.000Z</time>
      </trkpt>
      <trkpt lat="47.52795" lon="6.75233">
        <ele>398.1</ele>
        <time>2014-06-01T10:01:58.000Z</time>
      </trkpt>
      <trkpt lat="47.52781" lon="6.7523">
        <ele>400.6</ele>
        <time>2014-06-01T10:02:06.000Z</time>
      </trkpt>
      <trkpt lat="47.52712" lon="6.75195">
        <ele>403.5</ele>
        <time>2014-06-01T10:02:32.000Z</time>
      </trkpt>
      <trkpt lat="47.52709" lon="6.75193">
        <ele>404.1</ele>
        <time>2014-06-01T10:02:33.000Z</time>
      </trkpt>
      <trkpt lat="47.52707" lon="6.75192">
        <ele>405</ele>
        <time>2014-06-01T10:02:34.000Z</time>
      </trkpt>
      <trkpt lat="47.52702" lon="6.75192">
        <ele>405.4</ele>
        <time>2014-06-01T10:02:36.000Z</time>
      </trkpt>
      <trkpt lat="47.527" lon="6.75192">
        <ele>405.6</ele>
        <time>2014-06-01T10:02:37.000Z</time>
      </trkpt>
      <trkpt lat="47.52698" lon="6.75191">
        <ele>404.9</ele>
        <time>2014-06-01T10:02:39.000Z</time>
      </trkpt>
      <trkpt lat="47.52696" lon="6.75189">
        <ele>404.5</ele>
        <time>2014-06-01T10:02:40.000Z</time>
      </trkpt>
      <trkpt lat="47.52695" lon="6.75188">
        <ele>406.7</ele>
        <time>2014-06-01T10:02:41.000Z</time>
      </trkpt>
      <trkpt lat="47.52693" lon="6.75185">
        <ele>403.9</ele>
        <time>2014-06-01T10:02:42.000Z</time>
      </trkpt>
      <trkpt lat="47.52691" lon="6.75183">
        <ele>403.7</ele>
        <time>2014-06-01T10:02:43.000Z</time>
      </trkpt>
      <trkpt lat="47.52689" lon="6.7518">
        <ele>404.7</ele>
        <time>2014-06-01T10:02:44.000Z</time>
      </trkpt>
      <trkpt lat="47.52686" lon="6.75177">
        <ele>404.9</ele>
        <time>2014-06-01T10:02:46.000Z</time>
      </trkpt>
      <trkpt lat="47.52684" lon="6.75176">
        <ele>403.8</ele>
        <time>2014-06-01T10:02:47.000Z</time>
      </trkpt>
      <trkpt lat="47.52681" lon="6.75174">
        <ele>403.7</ele>
        <time>2014-06-01T10:02:49.000Z</time>
      </trkpt>
      <trkpt lat="47.52679" lon="6.75173">
        <ele>405.6</ele>
        <time>2014-06-01T10:02:50.000Z</time>
      </trkpt>
      <trkpt lat="47.52675" lon="6.75171">
        <ele>406.5</ele>
        <time>2014-06-01T10:02:52.000Z</time>
      </trkpt>
      <trkpt lat="47.52673" lon="6.7517">
        <ele>406.5</ele>
        <time>2014-06-01T10:02:53.000Z</time>
      </trkpt>
      <trkpt lat="47.52669" lon="6.75167">
        <ele>406.6</ele>
        <time>2014-06-01T10:02:55.000Z</time>
      </trkpt>
      <trkpt lat="47.52666" lon="6.75166">
        <ele>407.6</ele>
        <time>2014-06-01T10:02:56.000Z</time>
      </trkpt>
      <trkpt lat="47.52663" lon="6.75165">
        <ele>407</ele>
        <time>2014-06-01T10:02:57.000Z</time>
      </trkpt>
      <trkpt lat="47.52658" lon="6.75164">
        <ele>407.1</ele>
        <time>2014-06-01T10:02:58.000Z</time>
      </trkpt>
      <trkpt lat="47.5265" lon="6.7516">
        <ele>406.9</ele>
        <time>2014-06-01T10:03:01.000Z</time>
      </trkpt>
      <trkpt lat="47.52646" lon="6.75158">
        <ele>403</ele>
        <time>2014-06-01T10:03:02.000Z</time>
      </trkpt>
      <trkpt lat="47.52642" lon="6.75155">
        <ele>400.9</ele>
        <time>2014-06-01T10:03:03.000Z</time>
      </trkpt>
      <trkpt lat="47.52636" lon="6.75152">
        <ele>398.1</ele>
        <time>2014-06-01T10:03:04.000Z</time>
      </trkpt>
      <trkpt lat="47.5263" lon="6.75149">
        <ele>395.1</ele>
        <time>2014-06-01T10:03:05.000Z</time>
      </trkpt>
      <trkpt lat="47.52624" lon="6.75145">
        <ele>392.7</ele>
        <time>2014-06-01T10:03:06.000Z</time>
      </trkpt>
      <trkpt lat="47.52618" lon="6.7514">
        <ele>390.8</ele>
        <time>2014-06-01T10:03:07.000Z</time>
      </trkpt>
      <trkpt lat="47.52612" lon="6.75134">
        <ele>388.9</ele>
        <time>2014-06-01T10:03:08.000Z</time>
      </trkpt>
      <trkpt lat="47.52608" lon="6.75129">
        <ele>387.7</ele>
        <time>2014-06-01T10:03:09.000Z</time>
      </trkpt>
      <trkpt lat="47.52604" lon="6.75123">
        <ele>386.3</ele>
        <time>2014-06-01T10:03:10.000Z</time>
      </trkpt>
      <trkpt lat="47.526" lon="6.75117">
        <ele>384.9</ele>
        <time>2014-06-01T10:03:11.000Z</time>
      </trkpt>
      <trkpt lat="47.52597" lon="6.75111">
        <ele>384.3</ele>
        <time>2014-06-01T10:03:12.000Z</time>
      </trkpt>
      <trkpt lat="47.52594" lon="6.75105">
        <ele>384.8</ele>
        <time>2014-06-01T10:03:13.000Z</time>
      </trkpt>
      <trkpt lat="47.52592" lon="6.75101">
        <ele>384.9</ele>
        <time>2014-06-01T10:03:14.000Z</time>
      </trkpt>
      <trkpt lat="47.5259" lon="6.75097">
        <ele>384.4</ele>
        <time>2014-06-01T10:03:15.000Z</time>
      </trkpt>
      <trkpt lat="47.52588" lon="6.75093">
        <ele>383.7</ele>
        <time>2014-06-01T10:03:16.000Z</time>
      </trkpt>
      <trkpt lat="47.52587" lon="6.7509">
        <ele>384.2</ele>
        <time>2014-06-01T10:03:17.000Z</time>
      </trkpt>
      <trkpt lat="47.52585" lon="6.75085">
        <ele>384.6</ele>
        <time>2014-06-01T10:03:19.000Z</time>
      </trkpt>
      <trkpt lat="47.52585" lon="6.75084">
        <ele>384.9</ele>
        <time>2014-06-01T10:03:20.000Z</time>
      </trkpt>
      <trkpt lat="47.52586" lon="6.75077">
        <ele>384.9</ele>
        <time>2014-06-01T10:03:26.000Z</time>
      </trkpt>
      <trkpt lat="47.52586" lon="6.75076">
        <ele>384.6</ele>
        <time>2014-06-01T10:03:27.000Z</time>
      </trkpt>
      <trkpt lat="47.52586" lon="6.75072">
        <ele>385.8</ele>
        <time>2014-06-01T10:03:29.000Z</time>
      </trkpt>
      <trkpt lat="47.52586" lon="6.75069">
        <ele>385.9</ele>
        <time>2014-06-01T10:03:30.000Z</time>
      </trkpt>
      <trkpt lat="47.52585" lon="6.75066">
        <ele>386.5</ele>
        <time>2014-06-01T10:03:31.000Z</time>
      </trkpt>
      <trkpt lat="47.52585" lon="6.75062">
        <ele>387.5</ele>
        <time>2014-06-01T10:03:32.000Z</time>
      </trkpt>
      <trkpt lat="47.52584" lon="6.75058">
        <ele>387.8</ele>
        <time>2014-06-01T10:03:33.000Z</time>
      </trkpt>
      <trkpt lat="47.52584" lon="6.75053">
        <ele>388.6</ele>
        <time>2014-06-01T10:03:34.000Z</time>
      </trkpt>
      <trkpt lat="47.52583" lon="6.75049">
        <ele>388.8</ele>
        <time>2014-06-01T10:03:35.000Z</time>
      </trkpt>
      <trkpt lat="47.52583" lon="6.75044">
        <ele>388.8</ele>
        <time>2014-06-01T10:03:36.000Z</time>
      </trkpt>
      <trkpt lat="47.52582" lon="6.75039">
        <ele>388.6</ele>
        <time>2014-06-01T10:03:37.000Z</time>
      </trkpt>
      <trkpt lat="47.52582" lon="6.75034">
        <ele>388.7</ele>
        <time>2014-06-01T10:03:38.000Z</time>
      </trkpt>
      <trkpt lat="47.52581" lon="6.75028">
        <ele>388.9</ele>
        <time>2014-06-01T10:03:39.000Z</time>
      </trkpt>
      <trkpt lat="47.5258" lon="6.75022">
        <ele>388.8</ele>
        <time>2014-06-01T10:03:40.000Z</time>
      </trkpt>
      <trkpt lat="47.52579" lon="6.75017">
        <ele>388.2</ele>
        <time>2014-06-01T10:03:41.000Z</time>
      </trkpt>
      <trkpt lat="47.52578" lon="6.75011">
        <ele>388.9</ele>
        <time>2014-06-01T10:03:42.000Z</time>
      </trkpt>
      <trkpt lat="47.52576" lon="6.75006">
        <ele>389.6</ele>
        <time>2014-06-01T10:03:43.000Z</time>
      </trkpt>
      <trkpt lat="47.52573" lon="6.75003">
        <ele>391.2</ele>
        <time>2014-06-01T10:03:44.000Z</time>
      </trkpt>
      <trkpt lat="47.5257" lon="6.75001">
        <ele>390.6</ele>
        <time>2014-06-01T10:03:45.000Z</time>
      </trkpt>
      <trkpt lat="47.52566" lon="6.74999">
        <ele>391</ele>
        <time>2014-06-01T10:03:46.000Z</time>
      </trkpt>
      <trkpt lat="47.52562" lon="6.74999">
        <ele>390.1</ele>
        <time>2014-06-01T10:03:47.000Z</time>
      </trkpt>
      <trkpt lat="47.52559" lon="6.74999">
        <ele>390.3</ele>
        <time>2014-06-01T10:03:48.000Z</time>
      </trkpt>
      <trkpt lat="47.52556" lon="6.74999">
        <ele>390.8</ele>
        <time>2014-06-01T10:03:49.000Z</time>
      </trkpt>
      <trkpt lat="47.52553" lon="6.74998">
        <ele>391.5</ele>
        <time>2014-06-01T10:03:50.000Z</time>
      </trkpt>
      <trkpt lat="47.5255" lon="6.74998">
        <ele>391.4</ele>
        <time>2014-06-01T10:03:51.000Z</time>
      </trkpt>
      <trkpt lat="47.52548" lon="6.74997">
        <ele>391.4</ele>
        <time>2014-06-01T10:03:52.000Z</time>
      </trkpt>
      <trkpt lat="47.52545" lon="6.74997">
        <ele>391.4</ele>
        <time>2014-06-01T10:03:53.000Z</time>
      </trkpt>
      <trkpt lat="47.52541" lon="6.74996">
        <ele>391.6</ele>
        <time>2014-06-01T10:03:54.000Z</time>
      </trkpt>
      <trkpt lat="47.52538" lon="6.74995">
        <ele>391.3</ele>
        <time>2014-06-01T10:03:55.000Z</time>
      </trkpt>
      <trkpt lat="47.52536" lon="6.74995">
        <ele>391.4</ele>
        <time>2014-06-01T10:03:56.000Z</time>
      </trkpt>
      <trkpt lat="47.52533" lon="6.74993">
        <ele>391.1</ele>
        <time>2014-06-01T10:03:57.000Z</time>
      </trkpt>
      <trkpt lat="47.52529" lon="6.74992">
        <ele>390.5</ele>
        <time>2014-06-01T10:03:58.000Z</time>
      </trkpt>
      <trkpt lat="47.52503" lon="6.74976">
        <ele>389.6</ele>
        <time>2014-06-01T10:04:06.000Z</time>
      </trkpt>
      <trkpt lat="47.52504" lon="6.74969">
        <ele>389.3</ele>
        <time>2014-06-01T10:04:07.000Z</time>
      </trkpt>
      <trkpt lat="47.52502" lon="6.74966">
        <ele>389.4</ele>
        <time>2014-06-01T10:04:08.000Z</time>
      </trkpt>
      <trkpt lat="47.52501" lon="6.74961">
        <ele>389.7</ele>
        <time>2014-06-01T10:04:09.000Z</time>
      </trkpt>
      <trkpt lat="47.52503" lon="6.74953">
        <ele>390</ele>
        <time>2014-06-01T10:04:10.000Z</time>
      </trkpt>
      <trkpt lat="47.52503" lon="6.74947">
        <ele>390.2</ele>
        <time>2014-06-01T10:04:11.000Z</time>
      </trkpt>
      <trkpt lat="47.52505" lon="6.74942">
        <ele>390.2</ele>
        <time>2014-06-01T10:04:12.000Z</time>
      </trkpt>
      <trkpt lat="47.52506" lon="6.74936">
        <ele>389.7</ele>
        <time>2014-06-01T10:04:13.000Z</time>
      </trkpt>
      <trkpt lat="47.52506" lon="6.74928">
        <ele>389.6</ele>
        <time>2014-06-01T10:04:14.000Z</time>
      </trkpt>
      <trkpt lat="47.52507" lon="6.74923">
        <ele>389.4</ele>
        <time>2014-06-01T10:04:15.000Z</time>
      </trkpt>
      <trkpt lat="47.52508" lon="6.74916">
        <ele>389</ele>
        <time>2014-06-01T10:04:16.000Z</time>
      </trkpt>
      <trkpt lat="47.52509" lon="6.7491">
        <ele>388.3</ele>
        <time>2014-06-01T10:04:17.000Z</time>
      </trkpt>
      <trkpt lat="47.5251" lon="6.74903">
        <ele>388.5</ele>
        <time>2014-06-01T10:04:18.000Z</time>
      </trkpt>
      <trkpt lat="47.52511" lon="6.74898">
        <ele>387.6</ele>
        <time>2014-06-01T10:04:19.000Z</time>
      </trkpt>
      <trkpt lat="47.52512" lon="6.74893">
        <ele>387.1</ele>
        <time>2014-06-01T10:04:20.000Z</time>
      </trkpt>
      <trkpt lat="47.52513" lon="6.74887">
        <ele>387.2</ele>
        <time>2014-06-01T10:04:21.000Z</time>
      </trkpt>
      <trkpt lat="47.52515" lon="6.74881">
        <ele>386.4</ele>
        <time>2014-06-01T10:04:22.000Z</time>
      </trkpt>
      <trkpt lat="47.52516" lon="6.74875">
        <ele>385.7</ele>
        <time>2014-06-01T10:04:23.000Z</time>
      </trkpt>
      <trkpt lat="47.52518" lon="6.74868">
        <ele>384.6</ele>
        <time>2014-06-01T10:04:24.000Z</time>
      </trkpt>
      <trkpt lat="47.5252" lon="6.74862">
        <ele>384.3</ele>
        <time>2014-06-01T10:04:25.000Z</time>
      </trkpt>
      <trkpt lat="47.52522" lon="6.74852">
        <ele>380.8</ele>
        <time>2014-06-01T10:04:26.000Z</time>
      </trkpt>
      <trkpt lat="47.52524" lon="6.74843">
        <ele>380.2</ele>
        <time>2014-06-01T10:04:27.000Z</time>
      </trkpt>
      <trkpt lat="47.52526" lon="6.74835">
        <ele>380.2</ele>
        <time>2014-06-01T10:04:28.000Z</time>
      </trkpt>
      <trkpt lat="47.52525" lon="6.74825">
        <ele>379</ele>
        <time>2014-06-01T10:04:29.000Z</time>
      </trkpt>
      <trkpt lat="47.52524" lon="6.74817">
        <ele>378.3</ele>
        <time>2014-06-01T10:04:30.000Z</time>
      </trkpt>
      <trkpt lat="47.52519" lon="6.74813">
        <ele>378.1</ele>
        <time>2014-06-01T10:04:31.000Z</time>
      </trkpt>
      <trkpt lat="47.52516" lon="6.7481">
        <ele>378.5</ele>
        <time>2014-06-01T10:04:32.000Z</time>
      </trkpt>
      <trkpt lat="47.52514" lon="6.74808">
        <ele>379.1</ele>
        <time>2014-06-01T10:04:33.000Z</time>
      </trkpt>
      <trkpt lat="47.52511" lon="6.74804">
        <ele>379.5</ele>
        <time>2014-06-01T10:04:37.000Z</time>
      </trkpt>
      <trkpt lat="47.52511" lon="6.74803">
        <ele>379.4</ele>
        <time>2014-06-01T10:04:38.000Z</time>
      </trkpt>
      <trkpt lat="47.52507" lon="6.74801">
        <ele>379.2</ele>
        <time>2014-06-01T10:04:43.000Z</time>
      </trkpt>
      <trkpt lat="47.52506" lon="6.74801">
        <ele>380.1</ele>
        <time>2014-06-01T10:04:44.000Z</time>
      </trkpt>
      <trkpt lat="47.52503" lon="6.74798">
        <ele>381.6</ele>
        <time>2014-06-01T10:04:50.000Z</time>
      </trkpt>
      <trkpt lat="47.52502" lon="6.74797">
        <ele>381.7</ele>
        <time>2014-06-01T10:04:51.000Z</time>
      </trkpt>
      <trkpt lat="47.52501" lon="6.74792">
        <ele>381.7</ele>
        <time>2014-06-01T10:05:03.000Z</time>
      </trkpt>
      <trkpt lat="47.52498" lon="6.7479">
        <ele>381.5</ele>
        <time>2014-06-01T10:05:04.000Z</time>
      </trkpt>
      <trkpt lat="47.52494" lon="6.74789">
        <ele>381.1</ele>
        <time>2014-06-01T10:05:05.000Z</time>
      </trkpt>
      <trkpt lat="47.5249" lon="6.74787">
        <ele>381</ele>
        <time>2014-06-01T10:05:06.000Z</time>
      </trkpt>
      <trkpt lat="47.52486" lon="6.74786">
        <ele>380.7</ele>
        <time>2014-06-01T10:05:07.000Z</time>
      </trkpt>
      <trkpt lat="47.52482" lon="6.74784">
        <ele>380.5</ele>
        <time>2014-06-01T10:05:08.000Z</time>
      </trkpt>
      <trkpt lat="47.52477" lon="6.74782">
        <ele>380.2</ele>
        <time>2014-06-01T10:05:09.000Z</time>
      </trkpt>
      <trkpt lat="47.52473" lon="6.74781">
        <ele>380</ele>
        <time>2014-06-01T10:05:10.000Z</time>
      </trkpt>
      <trkpt lat="47.52466" lon="6.74777">
        <ele>379.5</ele>
        <time>2014-06-01T10:05:11.000Z</time>
      </trkpt>
      <trkpt lat="47.52461" lon="6.74775">
        <ele>379.2</ele>
        <time>2014-06-01T10:05:12.000Z</time>
      </trkpt>
      <trkpt lat="47.52456" lon="6.74773">
        <ele>378.2</ele>
        <time>2014-06-01T10:05:13.000Z</time>
      </trkpt>
      <trkpt lat="47.52451" lon="6.74771">
        <ele>377.6</ele>
        <time>2014-06-01T10:05:14.000Z</time>
      </trkpt>
      <trkpt lat="47.52446" lon="6.74768">
        <ele>376.4</ele>
        <time>2014-06-01T10:05:15.000Z</time>
      </trkpt>
      <trkpt lat="47.52441" lon="6.74766">
        <ele>375.9</ele>
        <time>2014-06-01T10:05:16.000Z</time>
      </trkpt>
      <trkpt lat="47.52436" lon="6.74765">
        <ele>376.1</ele>
        <time>2014-06-01T10:05:17.000Z</time>
      </trkpt>
      <trkpt lat="47.52431" lon="6.74764">
        <ele>376</ele>
        <time>2014-06-01T10:05:18.000Z</time>
      </trkpt>
      <trkpt lat="47.52427" lon="6.74763">
        <ele>375.8</ele>
        <time>2014-06-01T10:05:19.000Z</time>
      </trkpt>
      <trkpt lat="47.52424" lon="6.7476">
        <ele>375.5</ele>
        <time>2014-06-01T10:05:20.000Z</time>
      </trkpt>
      <trkpt lat="47.5242" lon="6.74757">
        <ele>375.1</ele>
        <time>2014-06-01T10:05:21.000Z</time>
      </trkpt>
      <trkpt lat="47.52415" lon="6.74753">
        <ele>374.8</ele>
        <time>2014-06-01T10:05:22.000Z</time>
      </trkpt>
      <trkpt lat="47.52411" lon="6.7475">
        <ele>374.5</ele>
        <time>2014-06-01T10:05:23.000Z</time>
      </trkpt>
      <trkpt lat="47.52406" lon="6.74747">
        <ele>374.4</ele>
        <time>2014-06-01T10:05:24.000Z</time>
      </trkpt>
      <trkpt lat="47.52402" lon="6.74744">
        <ele>374.1</ele>
        <time>2014-06-01T10:05:25.000Z</time>
      </trkpt>
      <trkpt lat="47.52397" lon="6.74742">
        <ele>373.8</ele>
        <time>2014-06-01T10:05:26.000Z</time>
      </trkpt>
      <trkpt lat="47.52392" lon="6.74739">
        <ele>373.9</ele>
        <time>2014-06-01T10:05:27.000Z</time>
      </trkpt>
      <trkpt lat="47.52386" lon="6.74737">
        <ele>373.2</ele>
        <time>2014-06-01T10:05:28.000Z</time>
      </trkpt>
      <trkpt lat="47.52382" lon="6.74734">
        <ele>372.7</ele>
        <time>2014-06-01T10:05:29.000Z</time>
      </trkpt>
      <trkpt lat="47.52376" lon="6.74731">
        <ele>372.9</ele>
        <time>2014-06-01T10:05:30.000Z</time>
      </trkpt>
      <trkpt lat="47.52365" lon="6.74726">
        <ele>373.3</ele>
        <time>2014-06-01T10:05:31.000Z</time>
      </trkpt>
      <trkpt lat="47.52356" lon="6.74723">
        <ele>373.3</ele>
        <time>2014-06-01T10:05:32.000Z</time>
      </trkpt>
      <trkpt lat="47.5235" lon="6.7472">
        <ele>374.3</ele>
        <time>2014-06-01T10:05:33.000Z</time>
      </trkpt>
      <trkpt lat="47.52342" lon="6.74718">
        <ele>374.4</ele>
        <time>2014-06-01T10:05:34.000Z</time>
      </trkpt>
      <trkpt lat="47.52335" lon="6.74715">
        <ele>374.8</ele>
        <time>2014-06-01T10:05:35.000Z</time>
      </trkpt>
      <trkpt lat="47.52327" lon="6.74711">
        <ele>373.5</ele>
        <time>2014-06-01T10:05:36.000Z</time>
      </trkpt>
      <trkpt lat="47.52319" lon="6.74708">
        <ele>373.4</ele>
        <time>2014-06-01T10:05:37.000Z</time>
      </trkpt>
      <trkpt lat="47.52312" lon="6.74704">
        <ele>373.3</ele>
        <time>2014-06-01T10:05:38.000Z</time>
      </trkpt>
      <trkpt lat="47.52305" lon="6.74701">
        <ele>373.5</ele>
        <time>2014-06-01T10:05:39.000Z</time>
      </trkpt>
      <trkpt lat="47.52299" lon="6.74699">
        <ele>373.1</ele>
        <time>2014-06-01T10:05:40.000Z</time>
      </trkpt>
      <trkpt lat="47.52294" lon="6.74699">
        <ele>372.7</ele>
        <time>2014-06-01T10:05:41.000Z</time>
      </trkpt>
      <trkpt lat="47.52291" lon="6.74701">
        <ele>373</ele>
        <time>2014-06-01T10:05:42.000Z</time>
      </trkpt>
      <trkpt lat="47.52287" lon="6.74707">
        <ele>373.3</ele>
        <time>2014-06-01T10:05:43.000Z</time>
      </trkpt>
      <trkpt lat="47.52283" lon="6.74709">
        <ele>371.3</ele>
        <time>2014-06-01T10:05:46.000Z</time>
      </trkpt>
      <trkpt lat="47.52282" lon="6.74714">
        <ele>371.8</ele>
        <time>2014-06-01T10:05:47.000Z</time>
      </trkpt>
      <trkpt lat="47.5228" lon="6.74719">
        <ele>372.1</ele>
        <time>2014-06-01T10:05:48.000Z</time>
      </trkpt>
      <trkpt lat="47.52279" lon="6.74725">
        <ele>370.5</ele>
        <time>2014-06-01T10:05:49.000Z</time>
      </trkpt>
      <trkpt lat="47.52278" lon="6.7473">
        <ele>369.9</ele>
        <time>2014-06-01T10:05:50.000Z</time>
      </trkpt>
      <trkpt lat="47.52277" lon="6.74735">
        <ele>370.1</ele>
        <time>2014-06-01T10:05:51.000Z</time>
      </trkpt>
      <trkpt lat="47.52276" lon="6.7474">
        <ele>370.8</ele>
        <time>2014-06-01T10:05:52.000Z</time>
      </trkpt>
      <trkpt lat="47.52274" lon="6.74744">
        <ele>370.7</ele>
        <time>2014-06-01T10:05:53.000Z</time>
      </trkpt>
      <trkpt lat="47.52273" lon="6.74749">
        <ele>371.1</ele>
        <time>2014-06-01T10:05:54.000Z</time>
      </trkpt>
      <trkpt lat="47.52271" lon="6.74754">
        <ele>371</ele>
        <time>2014-06-01T10:05:55.000Z</time>
      </trkpt>
      <trkpt lat="47.52269" lon="6.74758">
        <ele>370.8</ele>
        <time>2014-06-01T10:05:56.000Z</time>
      </trkpt>
      <trkpt lat="47.52268" lon="6.74762">
        <ele>371.3</ele>
        <time>2014-06-01T10:05:57.000Z</time>
      </trkpt>
      <trkpt lat="47.52267" lon="6.74766">
        <ele>371.4</ele>
        <time>2014-06-01T10:05:58.000Z</time>
      </trkpt>
      <trkpt lat="47.52257" lon="6.74798">
        <ele>372.6</ele>
        <time>2014-06-01T10:06:06.000Z</time>
      </trkpt>
      <trkpt lat="47.52255" lon="6.74803">
        <ele>372.8</ele>
        <time>2014-06-01T10:06:07.000Z</time>
      </trkpt>
      <trkpt lat="47.52253" lon="6.74808">
        <ele>373.2</ele>
        <time>2014-06-01T10:06:08.000Z</time>
      </trkpt>
      <trkpt lat="47.52252" lon="6.74815">
        <ele>373.5</ele>
        <time>2014-06-01T10:06:09.000Z</time>
      </trkpt>
      <trkpt lat="47.5225" lon="6.74821">
        <ele>373.5</ele>
        <time>2014-06-01T10:06:10.000Z</time>
      </trkpt>
      <trkpt lat="47.52249" lon="6.74828">
        <ele>373.9</ele>
        <time>2014-06-01T10:06:11.000Z</time>
      </trkpt>
      <trkpt lat="47.52247" lon="6.74834">
        <ele>373.8</ele>
        <time>2014-06-01T10:06:12.000Z</time>
      </trkpt>
      <trkpt lat="47.52246" lon="6.74841">
        <ele>374.1</ele>
        <time>2014-06-01T10:06:13.000Z</time>
      </trkpt>
      <trkpt lat="47.52244" lon="6.74847">
        <ele>374.4</ele>
        <time>2014-06-01T10:06:14.000Z</time>
      </trkpt>
      <trkpt lat="47.52243" lon="6.74853">
        <ele>374.5</ele>
        <time>2014-06-01T10:06:15.000Z</time>
      </trkpt>
      <trkpt lat="47.52242" lon="6.74859">
        <ele>373</ele>
        <time>2014-06-01T10:06:16.000Z</time>
      </trkpt>
      <trkpt lat="47.52242" lon="6.74866">
        <ele>374.2</ele>
        <time>2014-06-01T10:06:17.000Z</time>
      </trkpt>
      <trkpt lat="47.52241" lon="6.74872">
        <ele>374.6</ele>
        <time>2014-06-01T10:06:18.000Z</time>
      </trkpt>
      <trkpt lat="47.52241" lon="6.74879">
        <ele>375.7</ele>
        <time>2014-06-01T10:06:19.000Z</time>
      </trkpt>
      <trkpt lat="47.5224" lon="6.74885">
        <ele>375.6</ele>
        <time>2014-06-01T10:06:20.000Z</time>
      </trkpt>
      <trkpt lat="47.52239" lon="6.74891">
        <ele>375.1</ele>
        <time>2014-06-01T10:06:21.000Z</time>
      </trkpt>
      <trkpt lat="47.52238" lon="6.74898">
        <ele>375.2</ele>
        <time>2014-06-01T10:06:22.000Z</time>
      </trkpt>
      <trkpt lat="47.52238" lon="6.74904">
        <ele>375.6</ele>
        <time>2014-06-01T10:06:23.000Z</time>
      </trkpt>
      <trkpt lat="47.52238" lon="6.7491">
        <ele>375.6</ele>
        <time>2014-06-01T10:06:24.000Z</time>
      </trkpt>
      <trkpt lat="47.52238" lon="6.74916">
        <ele>375.6</ele>
        <time>2014-06-01T10:06:25.000Z</time>
      </trkpt>
      <trkpt lat="47.52237" lon="6.74923">
        <ele>375.4</ele>
        <time>2014-06-01T10:06:26.000Z</time>
      </trkpt>
      <trkpt lat="47.52237" lon="6.74929">
        <ele>374.6</ele>
        <time>2014-06-01T10:06:27.000Z</time>
      </trkpt>
      <trkpt lat="47.52236" lon="6.74936">
        <ele>375.2</ele>
        <time>2014-06-01T10:06:28.000Z</time>
      </trkpt>
      <trkpt lat="47.52236" lon="6.74943">
        <ele>375.3</ele>
        <time>2014-06-01T10:06:29.000Z</time>
      </trkpt>
      <trkpt lat="47.52236" lon="6.7495">
        <ele>375.1</ele>
        <time>2014-06-01T10:06:30.000Z</time>
      </trkpt>
      <trkpt lat="47.52235" lon="6.74957">
        <ele>374.9</ele>
        <time>2014-06-01T10:06:31.000Z</time>
      </trkpt>
      <trkpt lat="47.52235" lon="6.74965">
        <ele>375.4</ele>
        <time>2014-06-01T10:06:32.000Z</time>
      </trkpt>
      <trkpt lat="47.52234" lon="6.74973">
        <ele>375.1</ele>
        <time>2014-06-01T10:06:33.000Z</time>
      </trkpt>
      <trkpt lat="47.52234" lon="6.7498">
        <ele>375</ele>
        <time>2014-06-01T10:06:34.000Z</time>
      </trkpt>
      <trkpt lat="47.52234" lon="6.74987">
        <ele>374.6</ele>
        <time>2014-06-01T10:06:35.000Z</time>
      </trkpt>
      <trkpt lat="47.52235" lon="6.74994">
        <ele>374.7</ele>
        <time>2014-06-01T10:06:36.000Z</time>
      </trkpt>
      <trkpt lat="47.52236" lon="6.75001">
        <ele>374.9</ele>
        <time>2014-06-01T10:06:37.000Z</time>
      </trkpt>
      <trkpt lat="47.52236" lon="6.75008">
        <ele>374.4</ele>
        <time>2014-06-01T10:06:38.000Z</time>
      </trkpt>
      <trkpt lat="47.52237" lon="6.75014">
        <ele>374.6</ele>
        <time>2014-06-01T10:06:39.000Z</time>
      </trkpt>
      <trkpt lat="47.52238" lon="6.7502">
        <ele>374.6</ele>
        <time>2014-06-01T10:06:40.000Z</time>
      </trkpt>
      <trkpt lat="47.52239" lon="6.75026">
        <ele>374.1</ele>
        <time>2014-06-01T10:06:41.000Z</time>
      </trkpt>
      <trkpt lat="47.52239" lon="6.75033">
        <ele>373.5</ele>
        <time>2014-06-01T10:06:42.000Z</time>
      </trkpt>
      <trkpt lat="47.52239" lon="6.75039">
        <ele>372.9</ele>
        <time>2014-06-01T10:06:43.000Z</time>
      </trkpt>
      <trkpt lat="47.52239" lon="6.75044">
        <ele>372.8</ele>
        <time>2014-06-01T10:06:44.000Z</time>
      </trkpt>
      <trkpt lat="47.5224" lon="6.75051">
        <ele>370.9</ele>
        <time>2014-06-01T10:06:45.000Z</time>
      </trkpt>
      <trkpt lat="47.52241" lon="6.75057">
        <ele>369.9</ele>
        <time>2014-06-01T10:06:46.000Z</time>
      </trkpt>
      <trkpt lat="47.52241" lon="6.75063">
        <ele>369</ele>
        <time>2014-06-01T10:06:47.000Z</time>
      </trkpt>
      <trkpt lat="47.52239" lon="6.7507">
        <ele>369.6</ele>
        <time>2014-06-01T10:06:48.000Z</time>
      </trkpt>
      <trkpt lat="47.52237" lon="6.75076">
        <ele>369.2</ele>
        <time>2014-06-01T10:06:49.000Z</time>
      </trkpt>
      <trkpt lat="47.5223" lon="6.75077">
        <ele>368.9</ele>
        <time>2014-06-01T10:06:50.000Z</time>
      </trkpt>
      <trkpt lat="47.52225" lon="6.75078">
        <ele>368.8</ele>
        <time>2014-06-01T10:06:51.000Z</time>
      </trkpt>
      <trkpt lat="47.52219" lon="6.75081">
        <ele>368.1</ele>
        <time>2014-06-01T10:06:52.000Z</time>
      </trkpt>
      <trkpt lat="47.52214" lon="6.75082">
        <ele>367.6</ele>
        <time>2014-06-01T10:06:53.000Z</time>
      </trkpt>
      <trkpt lat="47.52209" lon="6.75083">
        <ele>366.8</ele>
        <time>2014-06-01T10:06:54.000Z</time>
      </trkpt>
      <trkpt lat="47.52204" lon="6.75084">
        <ele>366.7</ele>
        <time>2014-06-01T10:06:55.000Z</time>
      </trkpt>
      <trkpt lat="47.52197" lon="6.75085">
        <ele>366.1</ele>
        <time>2014-06-01T10:06:56.000Z</time>
      </trkpt>
      <trkpt lat="47.5219" lon="6.75086">
        <ele>365.5</ele>
        <time>2014-06-01T10:06:57.000Z</time>
      </trkpt>
      <trkpt lat="47.52183" lon="6.75087">
        <ele>364.9</ele>
        <time>2014-06-01T10:06:58.000Z</time>
      </trkpt>
      <trkpt lat="47.52164" lon="6.75088">
        <ele>364.2</ele>
        <time>2014-06-01T10:07:01.000Z</time>
      </trkpt>
      <trkpt lat="47.52155" lon="6.75087">
        <ele>362.9</ele>
        <time>2014-06-01T10:07:02.000Z</time>
      </trkpt>
      <trkpt lat="47.52146" lon="6.75087">
        <ele>361.7</ele>
        <time>2014-06-01T10:07:03.000Z</time>
      </trkpt>
      <trkpt lat="47.52136" lon="6.75088">
        <ele>360</ele>
        <time>2014-06-01T10:07:04.000Z</time>
      </trkpt>
      <trkpt lat="47.52128" lon="6.75089">
        <ele>360</ele>
        <time>2014-06-01T10:07:05.000Z</time>
      </trkpt>
      <trkpt lat="47.52119" lon="6.75089">
        <ele>358.5</ele>
        <time>2014-06-01T10:07:06.000Z</time>
      </trkpt>
      <trkpt lat="47.5211" lon="6.7509">
        <ele>357.4</ele>
        <time>2014-06-01T10:07:07.000Z</time>
      </trkpt>
      <trkpt lat="47.521" lon="6.7509">
        <ele>355.6</ele>
        <time>2014-06-01T10:07:08.000Z</time>
      </trkpt>
      <trkpt lat="47.52089" lon="6.75089">
        <ele>354</ele>
        <time>2014-06-01T10:07:09.000Z</time>
      </trkpt>
      <trkpt lat="47.52078" lon="6.75088">
        <ele>353.1</ele>
        <time>2014-06-01T10:07:10.000Z</time>
      </trkpt>
      <trkpt lat="47.52068" lon="6.75085">
        <ele>351.8</ele>
        <time>2014-06-01T10:07:11.000Z</time>
      </trkpt>
      <trkpt lat="47.52057" lon="6.75082">
        <ele>350.4</ele>
        <time>2014-06-01T10:07:12.000Z</time>
      </trkpt>
      <trkpt lat="47.52047" lon="6.75078">
        <ele>350.1</ele>
        <time>2014-06-01T10:07:13.000Z</time>
      </trkpt>
      <trkpt lat="47.52035" lon="6.75072">
        <ele>348.7</ele>
        <time>2014-06-01T10:07:14.000Z</time>
      </trkpt>
      <trkpt lat="47.52025" lon="6.75066">
        <ele>347.5</ele>
        <time>2014-06-01T10:07:15.000Z</time>
      </trkpt>
      <trkpt lat="47.52015" lon="6.7506">
        <ele>346.6</ele>
        <time>2014-06-01T10:07:16.000Z</time>
      </trkpt>
      <trkpt lat="47.52004" lon="6.75054">
        <ele>346.5</ele>
        <time>2014-06-01T10:07:17.000Z</time>
      </trkpt>
      <trkpt lat="47.51993" lon="6.75047">
        <ele>344.4</ele>
        <time>2014-06-01T10:07:18.000Z</time>
      </trkpt>
      <trkpt lat="47.51982" lon="6.75041">
        <ele>342.9</ele>
        <time>2014-06-01T10:07:19.000Z</time>
      </trkpt>
      <trkpt lat="47.51972" lon="6.75036">
        <ele>341.4</ele>
        <time>2014-06-01T10:07:20.000Z</time>
      </trkpt>
      <trkpt lat="47.51962" lon="6.75031">
        <ele>340.3</ele>
        <time>2014-06-01T10:07:21.000Z</time>
      </trkpt>
      <trkpt lat="47.51953" lon="6.75027">
        <ele>339.7</ele>
        <time>2014-06-01T10:07:22.000Z</time>
      </trkpt>
      <trkpt lat="47.51944" lon="6.75022">
        <ele>339.5</ele>
        <time>2014-06-01T10:07:23.000Z</time>
      </trkpt>
      <trkpt lat="47.51938" lon="6.75015">
        <ele>338.9</ele>
        <time>2014-06-01T10:07:24.000Z</time>
      </trkpt>
      <trkpt lat="47.51933" lon="6.75009">
        <ele>339.4</ele>
        <time>2014-06-01T10:07:25.000Z</time>
      </trkpt>
      <trkpt lat="47.51928" lon="6.75002">
        <ele>338.8</ele>
        <time>2014-06-01T10:07:26.000Z</time>
      </trkpt>
      <trkpt lat="47.51924" lon="6.74997">
        <ele>338.3</ele>
        <time>2014-06-01T10:07:27.000Z</time>
      </trkpt>
      <trkpt lat="47.5192" lon="6.74994">
        <ele>338.1</ele>
        <time>2014-06-01T10:07:28.000Z</time>
      </trkpt>
      <trkpt lat="47.51917" lon="6.74991">
        <ele>340.5</ele>
        <time>2014-06-01T10:07:29.000Z</time>
      </trkpt>
      <trkpt lat="47.51914" lon="6.74989">
        <ele>341</ele>
        <time>2014-06-01T10:07:30.000Z</time>
      </trkpt>
      <trkpt lat="47.51912" lon="6.7499">
        <ele>341</ele>
        <time>2014-06-01T10:07:31.000Z</time>
      </trkpt>
      <trkpt lat="47.5191" lon="6.75">
        <ele>342.2</ele>
        <time>2014-06-01T10:07:32.000Z</time>
      </trkpt>
      <trkpt lat="47.51908" lon="6.75003">
        <ele>340.9</ele>
        <time>2014-06-01T10:07:33.000Z</time>
      </trkpt>
      <trkpt lat="47.51904" lon="6.75009">
        <ele>340.2</ele>
        <time>2014-06-01T10:07:34.000Z</time>
      </trkpt>
      <trkpt lat="47.51901" lon="6.75015">
        <ele>339.9</ele>
        <time>2014-06-01T10:07:35.000Z</time>
      </trkpt>
      <trkpt lat="47.51899" lon="6.75021">
        <ele>340.5</ele>
        <time>2014-06-01T10:07:36.000Z</time>
      </trkpt>
      <trkpt lat="47.51896" lon="6.75027">
        <ele>342.1</ele>
        <time>2014-06-01T10:07:37.000Z</time>
      </trkpt>
      <trkpt lat="47.51895" lon="6.75032">
        <ele>343</ele>
        <time>2014-06-01T10:07:38.000Z</time>
      </trkpt>
      <trkpt lat="47.51893" lon="6.75037">
        <ele>342.8</ele>
        <time>2014-06-01T10:07:39.000Z</time>
      </trkpt>
      <trkpt lat="47.5189" lon="6.75042">
        <ele>340.5</ele>
        <time>2014-06-01T10:07:40.000Z</time>
      </trkpt>
      <trkpt lat="47.51888" lon="6.75047">
        <ele>340.5</ele>
        <time>2014-06-01T10:07:41.000Z</time>
      </trkpt>
      <trkpt lat="47.51886" lon="6.75051">
        <ele>340.7</ele>
        <time>2014-06-01T10:07:42.000Z</time>
      </trkpt>
      <trkpt lat="47.51884" lon="6.75057">
        <ele>340.6</ele>
        <time>2014-06-01T10:07:43.000Z</time>
      </trkpt>
      <trkpt lat="47.51882" lon="6.75061">
        <ele>340.8</ele>
        <time>2014-06-01T10:07:44.000Z</time>
      </trkpt>
      <trkpt lat="47.51879" lon="6.75065">
        <ele>341.5</ele>
        <time>2014-06-01T10:07:45.000Z</time>
      </trkpt>
      <trkpt lat="47.51877" lon="6.75068">
        <ele>341.8</ele>
        <time>2014-06-01T10:07:46.000Z</time>
      </trkpt>
      <trkpt lat="47.51875" lon="6.75073">
        <ele>342</ele>
        <time>2014-06-01T10:07:47.000Z</time>
      </trkpt>
      <trkpt lat="47.51873" lon="6.75076">
        <ele>341.8</ele>
        <time>2014-06-01T10:07:48.000Z</time>
      </trkpt>
      <trkpt lat="47.51871" lon="6.7508">
        <ele>342</ele>
        <time>2014-06-01T10:07:49.000Z</time>
      </trkpt>
      <trkpt lat="47.51868" lon="6.75083">
        <ele>341.8</ele>
        <time>2014-06-01T10:07:50.000Z</time>
      </trkpt>
      <trkpt lat="47.51866" lon="6.75086">
        <ele>344.1</ele>
        <time>2014-06-01T10:07:51.000Z</time>
      </trkpt>
      <trkpt lat="47.51865" lon="6.7509">
        <ele>345.4</ele>
        <time>2014-06-01T10:07:52.000Z</time>
      </trkpt>
      <trkpt lat="47.51864" lon="6.75092">
        <ele>345.5</ele>
        <time>2014-06-01T10:07:53.000Z</time>
      </trkpt>
      <trkpt lat="47.51863" lon="6.75095">
        <ele>345.2</ele>
        <time>2014-06-01T10:07:54.000Z</time>
      </trkpt>
      <trkpt lat="47.51861" lon="6.75098">
        <ele>345.6</ele>
        <time>2014-06-01T10:07:55.000Z</time>
      </trkpt>
      <trkpt lat="47.51858" lon="6.75101">
        <ele>344.3</ele>
        <time>2014-06-01T10:07:56.000Z</time>
      </trkpt>
      <trkpt lat="47.51855" lon="6.75102">
        <ele>344.7</ele>
        <time>2014-06-01T10:07:57.000Z</time>
      </trkpt>
      <trkpt lat="47.51852" lon="6.75102">
        <ele>344.6</ele>
        <time>2014-06-01T10:07:58.000Z</time>
      </trkpt>
      <trkpt lat="47.51842" lon="6.75099">
        <ele>345.4</ele>
        <time>2014-06-01T10:08:06.000Z</time>
      </trkpt>
      <trkpt lat="47.51854" lon="6.7511">
        <ele>345.8</ele>
        <time>2014-06-01T10:08:18.000Z</time>
      </trkpt>
      <trkpt lat="47.51827" lon="6.75108">
        <ele>346</ele>
        <time>2014-06-01T10:08:19.000Z</time>
      </trkpt>
      <trkpt lat="47.51823" lon="6.75109">
        <ele>345.5</ele>
        <time>2014-06-01T10:08:21.000Z</time>
      </trkpt>
      <trkpt lat="47.51821" lon="6.75111">
        <ele>346.5</ele>
        <time>2014-06-01T10:08:22.000Z</time>
      </trkpt>
      <trkpt lat="47.51818" lon="6.75113">
        <ele>346.4</ele>
        <time>2014-06-01T10:08:24.000Z</time>
      </trkpt>
      <trkpt lat="47.51816" lon="6.75113">
        <ele>347.1</ele>
        <time>2014-06-01T10:08:25.000Z</time>
      </trkpt>
      <trkpt lat="47.51812" lon="6.75112">
        <ele>349.1</ele>
        <time>2014-06-01T10:08:27.000Z</time>
      </trkpt>
      <trkpt lat="47.5181" lon="6.75112">
        <ele>347.2</ele>
        <time>2014-06-01T10:08:28.000Z</time>
      </trkpt>
      <trkpt lat="47.51806" lon="6.75112">
        <ele>346.1</ele>
        <time>2014-06-01T10:08:30.000Z</time>
      </trkpt>
      <trkpt lat="47.51803" lon="6.75112">
        <ele>345.6</ele>
        <time>2014-06-01T10:08:31.000Z</time>
      </trkpt>
      <trkpt lat="47.51801" lon="6.75112">
        <ele>347.1</ele>
        <time>2014-06-01T10:08:32.000Z</time>
      </trkpt>
      <trkpt lat="47.51798" lon="6.75112">
        <ele>346.8</ele>
        <time>2014-06-01T10:08:33.000Z</time>
      </trkpt>
      <trkpt lat="47.51793" lon="6.75112">
        <ele>347.4</ele>
        <time>2014-06-01T10:08:35.000Z</time>
      </trkpt>
      <trkpt lat="47.51791" lon="6.75112">
        <ele>346.7</ele>
        <time>2014-06-01T10:08:36.000Z</time>
      </trkpt>
      <trkpt lat="47.51787" lon="6.75114">
        <ele>347.7</ele>
        <time>2014-06-01T10:08:39.000Z</time>
      </trkpt>
      <trkpt lat="47.51787" lon="6.75114">
        <ele>347.8</ele>
        <time>2014-06-01T10:08:40.000Z</time>
      </trkpt>
      <trkpt lat="47.51783" lon="6.75114">
        <ele>352.1</ele>
        <time>2014-06-01T10:08:45.000Z</time>
      </trkpt>
      <trkpt lat="47.51782" lon="6.75114">
        <ele>352.5</ele>
        <time>2014-06-01T10:08:46.000Z</time>
      </trkpt>
      <trkpt lat="47.51778" lon="6.75114">
        <ele>353.4</ele>
        <time>2014-06-01T10:08:48.000Z</time>
      </trkpt>
      <trkpt lat="47.51776" lon="6.75114">
        <ele>353.4</ele>
        <time>2014-06-01T10:08:49.000Z</time>
      </trkpt>
      <trkpt lat="47.51773" lon="6.75114">
        <ele>353.7</ele>
        <time>2014-06-01T10:08:50.000Z</time>
      </trkpt>
      <trkpt lat="47.51771" lon="6.75115">
        <ele>353.6</ele>
        <time>2014-06-01T10:08:51.000Z</time>
      </trkpt>
      <trkpt lat="47.51768" lon="6.75115">
        <ele>353.9</ele>
        <time>2014-06-01T10:08:52.000Z</time>
      </trkpt>
      <trkpt lat="47.51766" lon="6.75114">
        <ele>354.3</ele>
        <time>2014-06-01T10:08:53.000Z</time>
      </trkpt>
      <trkpt lat="47.51764" lon="6.75114">
        <ele>355</ele>
        <time>2014-06-01T10:08:54.000Z</time>
      </trkpt>
      <trkpt lat="47.51761" lon="6.75113">
        <ele>356.1</ele>
        <time>2014-06-01T10:08:55.000Z</time>
      </trkpt>
      <trkpt lat="47.51759" lon="6.75112">
        <ele>355.6</ele>
        <time>2014-06-01T10:08:56.000Z</time>
      </trkpt>
      <trkpt lat="47.51756" lon="6.7511">
        <ele>355.8</ele>
        <time>2014-06-01T10:08:57.000Z</time>
      </trkpt>
      <trkpt lat="47.51754" lon="6.75109">
        <ele>354.9</ele>
        <time>2014-06-01T10:08:58.000Z</time>
      </trkpt>
      <trkpt lat="47.51749" lon="6.75106">
        <ele>355.5</ele>
        <time>2014-06-01T10:09:01.000Z</time>
      </trkpt>
      <trkpt lat="47.51746" lon="6.75105">
        <ele>356.9</ele>
        <time>2014-06-01T10:09:03.000Z</time>
      </trkpt>
      <trkpt lat="47.51744" lon="6.75105">
        <ele>357.7</ele>
        <time>2014-06-01T10:09:04.000Z</time>
      </trkpt>
      <trkpt lat="47.5174" lon="6.75103">
        <ele>358.7</ele>
        <time>2014-06-01T10:09:06.000Z</time>
      </trkpt>
      <trkpt lat="47.51737" lon="6.75103">
        <ele>359.6</ele>
        <time>2014-06-01T10:09:07.000Z</time>
      </trkpt>
      <trkpt lat="47.51735" lon="6.75102">
        <ele>360.1</ele>
        <time>2014-06-01T10:09:08.000Z</time>
      </trkpt>
      <trkpt lat="47.51732" lon="6.751">
        <ele>359.7</ele>
        <time>2014-06-01T10:09:09.000Z</time>
      </trkpt>
      <trkpt lat="47.5173" lon="6.75099">
        <ele>359.2</ele>
        <time>2014-06-01T10:09:10.000Z</time>
      </trkpt>
      <trkpt lat="47.51727" lon="6.75097">
        <ele>359.8</ele>
        <time>2014-06-01T10:09:11.000Z</time>
      </trkpt>
      <trkpt lat="47.51724" lon="6.75096">
        <ele>360.2</ele>
        <time>2014-06-01T10:09:12.000Z</time>
      </trkpt>
      <trkpt lat="47.51721" lon="6.75095">
        <ele>359.9</ele>
        <time>2014-06-01T10:09:13.000Z</time>
      </trkpt>
      <trkpt lat="47.51718" lon="6.75093">
        <ele>360.1</ele>
        <time>2014-06-01T10:09:14.000Z</time>
      </trkpt>
      <trkpt lat="47.51714" lon="6.75092">
        <ele>360</ele>
        <time>2014-06-01T10:09:15.000Z</time>
      </trkpt>
      <trkpt lat="47.51712" lon="6.7509">
        <ele>360.5</ele>
        <time>2014-06-01T10:09:16.000Z</time>
      </trkpt>
      <trkpt lat="47.51709" lon="6.75089">
        <ele>360.4</ele>
        <time>2014-06-01T10:09:17.000Z</time>
      </trkpt>
      <trkpt lat="47.51706" lon="6.75087">
        <ele>360.7</ele>
        <time>2014-06-01T10:09:18.000Z</time>
      </trkpt>
      <trkpt lat="47.51704" lon="6.75086">
        <ele>359.5</ele>
        <time>2014-06-01T10:09:19.000Z</time>
      </trkpt>
      <trkpt lat="47.51701" lon="6.75084">
        <ele>359.9</ele>
        <time>2014-06-01T10:09:20.000Z</time>
      </trkpt>
      <trkpt lat="47.51699" lon="6.75082">
        <ele>359.2</ele>
        <time>2014-06-01T10:09:21.000Z</time>
      </trkpt>
      <trkpt lat="47.51695" lon="6.7508">
        <ele>360</ele>
        <time>2014-06-01T10:09:23.000Z</time>
      </trkpt>
      <trkpt lat="47.51692" lon="6.75079">
        <ele>360.2</ele>
        <time>2014-06-01T10:09:24.000Z</time>
      </trkpt>
      <trkpt lat="47.5169" lon="6.75078">
        <ele>360.7</ele>
        <time>2014-06-01T10:09:25.000Z</time>
      </trkpt>
      <trkpt lat="47.51687" lon="6.75077">
        <ele>360.8</ele>
        <time>2014-06-01T10:09:26.000Z</time>
      </trkpt>
      <trkpt lat="47.51684" lon="6.75075">
        <ele>358.2</ele>
        <time>2014-06-01T10:09:28.000Z</time>
      </trkpt>
      <trkpt lat="47.51683" lon="6.75074">
        <ele>357.3</ele>
        <time>2014-06-01T10:09:29.000Z</time>
      </trkpt>
      <trkpt lat="47.5168" lon="6.75072">
        <ele>357.3</ele>
        <time>2014-06-01T10:09:32.000Z</time>
      </trkpt>
      <trkpt lat="47.51678" lon="6.75071">
        <ele>357.5</ele>
        <time>2014-06-01T10:09:33.000Z</time>
      </trkpt>
      <trkpt lat="47.51676" lon="6.7507">
        <ele>356.3</ele>
        <time>2014-06-01T10:09:34.000Z</time>
      </trkpt>
      <trkpt lat="47.51674" lon="6.7507">
        <ele>356.5</ele>
        <time>2014-06-01T10:09:35.000Z</time>
      </trkpt>
      <trkpt lat="47.5167" lon="6.75069">
        <ele>357.1</ele>
        <time>2014-06-01T10:09:37.000Z</time>
      </trkpt>
      <trkpt lat="47.51668" lon="6.75069">
        <ele>357.6</ele>
        <time>2014-06-01T10:09:38.000Z</time>
      </trkpt>
      <trkpt lat="47.51664" lon="6.75068">
        <ele>358.3</ele>
        <time>2014-06-01T10:09:40.000Z</time>
      </trkpt>
      <trkpt lat="47.51662" lon="6.75068">
        <ele>359.6</ele>
        <time>2014-06-01T10:09:41.000Z</time>
      </trkpt>
      <trkpt lat="47.5166" lon="6.75067">
        <ele>359.5</ele>
        <time>2014-06-01T10:09:42.000Z</time>
      </trkpt>
      <trkpt lat="47.51658" lon="6.75067">
        <ele>359</ele>
        <time>2014-06-01T10:09:43.000Z</time>
      </trkpt>
      <trkpt lat="47.51655" lon="6.75066">
        <ele>360</ele>
        <time>2014-06-01T10:09:44.000Z</time>
      </trkpt>
      <trkpt lat="47.51653" lon="6.75065">
        <ele>361</ele>
        <time>2014-06-01T10:09:45.000Z</time>
      </trkpt>
      <trkpt lat="47.5165" lon="6.75064">
        <ele>360.8</ele>
        <time>2014-06-01T10:09:46.000Z</time>
      </trkpt>
      <trkpt lat="47.51647" lon="6.75063">
        <ele>360.8</ele>
        <time>2014-06-01T10:09:47.000Z</time>
      </trkpt>
      <trkpt lat="47.51645" lon="6.75062">
        <ele>361.3</ele>
        <time>2014-06-01T10:09:48.000Z</time>
      </trkpt>
      <trkpt lat="47.51643" lon="6.75061">
        <ele>360.9</ele>
        <time>2014-06-01T10:09:49.000Z</time>
      </trkpt>
      <trkpt lat="47.51639" lon="6.75057">
        <ele>360.8</ele>
        <time>2014-06-01T10:09:51.000Z</time>
      </trkpt>
      <trkpt lat="47.51637" lon="6.75056">
        <ele>360.7</ele>
        <time>2014-06-01T10:09:52.000Z</time>
      </trkpt>
      <trkpt lat="47.51633" lon="6.75053">
        <ele>363.2</ele>
        <time>2014-06-01T10:09:54.000Z</time>
      </trkpt>
      <trkpt lat="47.5163" lon="6.75052">
        <ele>363</ele>
        <time>2014-06-01T10:09:55.000Z</time>
      </trkpt>
      <trkpt lat="47.51627" lon="6.75051">
        <ele>362.1</ele>
        <time>2014-06-01T10:09:56.000Z</time>
      </trkpt>
      <trkpt lat="47.51625" lon="6.7505">
        <ele>361</ele>
        <time>2014-06-01T10:09:57.000Z</time>
      </trkpt>
      <trkpt lat="47.51622" lon="6.75049">
        <ele>360.4</ele>
        <time>2014-06-01T10:09:58.000Z</time>
      </trkpt>
      <trkpt lat="47.51596" lon="6.75036">
        <ele>343.9</ele>
        <time>2014-06-01T10:10:06.000Z</time>
      </trkpt>
      <trkpt lat="47.51593" lon="6.75035">
        <ele>344.9</ele>
        <time>2014-06-01T10:10:07.000Z</time>
      </trkpt>
      <trkpt lat="47.5159" lon="6.75033">
        <ele>345</ele>
        <time>2014-06-01T10:10:08.000Z</time>
      </trkpt>
      <trkpt lat="47.51587" lon="6.75032">
        <ele>345.7</ele>
        <time>2014-06-01T10:10:09.000Z</time>
      </trkpt>
      <trkpt lat="47.51584" lon="6.7503">
        <ele>345.4</ele>
        <time>2014-06-01T10:10:10.000Z</time>
      </trkpt>
      <trkpt lat="47.51581" lon="6.75029">
        <ele>345.8</ele>
        <time>2014-06-01T10:10:11.000Z</time>
      </trkpt>
      <trkpt lat="47.51578" lon="6.75027">
        <ele>347.4</ele>
        <time>2014-06-01T10:10:12.000Z</time>
      </trkpt>
      <trkpt lat="47.51575" lon="6.75025">
        <ele>348.8</ele>
        <time>2014-06-01T10:10:13.000Z</time>
      </trkpt>
      <trkpt lat="47.51572" lon="6.75024">
        <ele>349.6</ele>
        <time>2014-06-01T10:10:14.000Z</time>
      </trkpt>
      <trkpt lat="47.5157" lon="6.75022">
        <ele>351.1</ele>
        <time>2014-06-01T10:10:15.000Z</time>
      </trkpt>
      <trkpt lat="47.51567" lon="6.75022">
        <ele>351.4</ele>
        <time>2014-06-01T10:10:16.000Z</time>
      </trkpt>
      <trkpt lat="47.51564" lon="6.75021">
        <ele>350</ele>
        <time>2014-06-01T10:10:17.000Z</time>
      </trkpt>
      <trkpt lat="47.51561" lon="6.75021">
        <ele>350.5</ele>
        <time>2014-06-01T10:10:18.000Z</time>
      </trkpt>
      <trkpt lat="47.51559" lon="6.75021">
        <ele>351.4</ele>
        <time>2014-06-01T10:10:19.000Z</time>
      </trkpt>
      <trkpt lat="47.51556" lon="6.7502">
        <ele>351.3</ele>
        <time>2014-06-01T10:10:20.000Z</time>
      </trkpt>
      <trkpt lat="47.51554" lon="6.75019">
        <ele>351.6</ele>
        <time>2014-06-01T10:10:21.000Z</time>
      </trkpt>
      <trkpt lat="47.51552" lon="6.75018">
        <ele>353</ele>
        <time>2014-06-01T10:10:22.000Z</time>
      </trkpt>
      <trkpt lat="47.5155" lon="6.75017">
        <ele>354.8</ele>
        <time>2014-06-01T10:10:23.000Z</time>
      </trkpt>
      <trkpt lat="47.51547" lon="6.75017">
        <ele>351.6</ele>
        <time>2014-06-01T10:10:24.000Z</time>
      </trkpt>
      <trkpt lat="47.51545" lon="6.75017">
        <ele>350.6</ele>
        <time>2014-06-01T10:10:25.000Z</time>
      </trkpt>
      <trkpt lat="47.51542" lon="6.75018">
        <ele>350.8</ele>
        <time>2014-06-01T10:10:26.000Z</time>
      </trkpt>
      <trkpt lat="47.51538" lon="6.75018">
        <ele>351.6</ele>
        <time>2014-06-01T10:10:28.000Z</time>
      </trkpt>
      <trkpt lat="47.51536" lon="6.75018">
        <ele>350.6</ele>
        <time>2014-06-01T10:10:29.000Z</time>
      </trkpt>
      <trkpt lat="47.51533" lon="6.75018">
        <ele>351.9</ele>
        <time>2014-06-01T10:10:31.000Z</time>
      </trkpt>
      <trkpt lat="47.51531" lon="6.75018">
        <ele>352.4</ele>
        <time>2014-06-01T10:10:32.000Z</time>
      </trkpt>
      <trkpt lat="47.51526" lon="6.7502">
        <ele>351</ele>
        <time>2014-06-01T10:10:34.000Z</time>
      </trkpt>
      <trkpt lat="47.51524" lon="6.7502">
        <ele>350.9</ele>
        <time>2014-06-01T10:10:35.000Z</time>
      </trkpt>
      <trkpt lat="47.51522" lon="6.75021">
        <ele>350.6</ele>
        <time>2014-06-01T10:10:36.000Z</time>
      </trkpt>
      <trkpt lat="47.51519" lon="6.75022">
        <ele>347.1</ele>
        <time>2014-06-01T10:10:37.000Z</time>
      </trkpt>
      <trkpt lat="47.51516" lon="6.75023">
        <ele>347.4</ele>
        <time>2014-06-01T10:10:38.000Z</time>
      </trkpt>
      <trkpt lat="47.51514" lon="6.75024">
        <ele>347.3</ele>
        <time>2014-06-01T10:10:39.000Z</time>
      </trkpt>
      <trkpt lat="47.51511" lon="6.75026">
        <ele>347.5</ele>
        <time>2014-06-01T10:10:40.000Z</time>
      </trkpt>
      <trkpt lat="47.51509" lon="6.75028">
        <ele>348</ele>
        <time>2014-06-01T10:10:41.000Z</time>
      </trkpt>
      <trkpt lat="47.51506" lon="6.7503">
        <ele>348.2</ele>
        <time>2014-06-01T10:10:43.000Z</time>
      </trkpt>
      <trkpt lat="47.51504" lon="6.75031">
        <ele>348.4</ele>
        <time>2014-06-01T10:10:44.000Z</time>
      </trkpt>
      <trkpt lat="47.51501" lon="6.75033">
        <ele>349.6</ele>
        <time>2014-06-01T10:10:48.000Z</time>
      </trkpt>
      <trkpt lat="47.515" lon="6.75034">
        <ele>349.8</ele>
        <time>2014-06-01T10:10:49.000Z</time>
      </trkpt>
      <trkpt lat="47.51498" lon="6.75039">
        <ele>347.3</ele>
        <time>2014-06-01T10:10:52.000Z</time>
      </trkpt>
      <trkpt lat="47.51496" lon="6.75041">
        <ele>346.9</ele>
        <time>2014-06-01T10:10:53.000Z</time>
      </trkpt>
      <trkpt lat="47.51494" lon="6.75046">
        <ele>346.7</ele>
        <time>2014-06-01T10:10:55.000Z</time>
      </trkpt>
      <trkpt lat="47.51492" lon="6.75048">
        <ele>346.5</ele>
        <time>2014-06-01T10:10:56.000Z</time>
      </trkpt>
      <trkpt lat="47.51489" lon="6.75053">
        <ele>345.9</ele>
        <time>2014-06-01T10:10:58.000Z</time>
      </trkpt>
      <trkpt lat="47.51485" lon="6.75058">
        <ele>345.2</ele>
        <time>2014-06-01T10:11:01.000Z</time>
      </trkpt>
      <trkpt lat="47.51482" lon="6.7506">
        <ele>346.2</ele>
        <time>2014-06-01T10:11:03.000Z</time>
      </trkpt>
      <trkpt lat="47.5148" lon="6.75062">
        <ele>347.2</ele>
        <time>2014-06-01T10:11:04.000Z</time>
      </trkpt>
      <trkpt lat="47.51477" lon="6.75064">
        <ele>348.1</ele>
        <time>2014-06-01T10:11:05.000Z</time>
      </trkpt>
      <trkpt lat="47.51474" lon="6.75067">
        <ele>348.4</ele>
        <time>2014-06-01T10:11:06.000Z</time>
      </trkpt>
      <trkpt lat="47.51471" lon="6.7507">
        <ele>348.7</ele>
        <time>2014-06-01T10:11:07.000Z</time>
      </trkpt>
      <trkpt lat="47.51459" lon="6.75082">
        <ele>346.7</ele>
        <time>2014-06-01T10:11:08.000Z</time>
      </trkpt>
      <trkpt lat="47.51453" lon="6.75086">
        <ele>346.4</ele>
        <time>2014-06-01T10:11:09.000Z</time>
      </trkpt>
      <trkpt lat="47.51449" lon="6.7509">
        <ele>346.3</ele>
        <time>2014-06-01T10:11:10.000Z</time>
      </trkpt>
      <trkpt lat="47.51445" lon="6.75093">
        <ele>346.8</ele>
        <time>2014-06-01T10:11:11.000Z</time>
      </trkpt>
      <trkpt lat="47.51441" lon="6.75094">
        <ele>346.9</ele>
        <time>2014-06-01T10:11:12.000Z</time>
      </trkpt>
      <trkpt lat="47.51438" lon="6.75096">
        <ele>347.4</ele>
        <time>2014-06-01T10:11:13.000Z</time>
      </trkpt>
      <trkpt lat="47.51434" lon="6.75099">
        <ele>348.2</ele>
        <time>2014-06-01T10:11:14.000Z</time>
      </trkpt>
      <trkpt lat="47.51431" lon="6.751">
        <ele>348.8</ele>
        <time>2014-06-01T10:11:15.000Z</time>
      </trkpt>
      <trkpt lat="47.51428" lon="6.75102">
        <ele>349.1</ele>
        <time>2014-06-01T10:11:16.000Z</time>
      </trkpt>
      <trkpt lat="47.51424" lon="6.75105">
        <ele>349.8</ele>
        <time>2014-06-01T10:11:17.000Z</time>
      </trkpt>
      <trkpt lat="47.51421" lon="6.75108">
        <ele>350.9</ele>
        <time>2014-06-01T10:11:18.000Z</time>
      </trkpt>
      <trkpt lat="47.51419" lon="6.7511">
        <ele>352.1</ele>
        <time>2014-06-01T10:11:19.000Z</time>
      </trkpt>
      <trkpt lat="47.51417" lon="6.75113">
        <ele>353.2</ele>
        <time>2014-06-01T10:11:20.000Z</time>
      </trkpt>
      <trkpt lat="47.51414" lon="6.75115">
        <ele>353.4</ele>
        <time>2014-06-01T10:11:21.000Z</time>
      </trkpt>
      <trkpt lat="47.51412" lon="6.75118">
        <ele>354.5</ele>
        <time>2014-06-01T10:11:22.000Z</time>
      </trkpt>
      <trkpt lat="47.51409" lon="6.7512">
        <ele>355.4</ele>
        <time>2014-06-01T10:11:23.000Z</time>
      </trkpt>
      <trkpt lat="47.51406" lon="6.75121">
        <ele>356.2</ele>
        <time>2014-06-01T10:11:24.000Z</time>
      </trkpt>
      <trkpt lat="47.51402" lon="6.75123">
        <ele>355.4</ele>
        <time>2014-06-01T10:11:25.000Z</time>
      </trkpt>
      <trkpt lat="47.51396" lon="6.75124">
        <ele>355.8</ele>
        <time>2014-06-01T10:11:26.000Z</time>
      </trkpt>
      <trkpt lat="47.51391" lon="6.75125">
        <ele>355.9</ele>
        <time>2014-06-01T10:11:27.000Z</time>
      </trkpt>
      <trkpt lat="47.51386" lon="6.75125">
        <ele>356.6</ele>
        <time>2014-06-01T10:11:28.000Z</time>
      </trkpt>
      <trkpt lat="47.51381" lon="6.75126">
        <ele>356.5</ele>
        <time>2014-06-01T10:11:29.000Z</time>
      </trkpt>
      <trkpt lat="47.51377" lon="6.75126">
        <ele>356.5</ele>
        <time>2014-06-01T10:11:30.000Z</time>
      </trkpt>
      <trkpt lat="47.51374" lon="6.75125">
        <ele>356.3</ele>
        <time>2014-06-01T10:11:31.000Z</time>
      </trkpt>
      <trkpt lat="47.5137" lon="6.75125">
        <ele>355.5</ele>
        <time>2014-06-01T10:11:32.000Z</time>
      </trkpt>
      <trkpt lat="47.51367" lon="6.75124">
        <ele>355.5</ele>
        <time>2014-06-01T10:11:33.000Z</time>
      </trkpt>
      <trkpt lat="47.51364" lon="6.75123">
        <ele>354.9</ele>
        <time>2014-06-01T10:11:34.000Z</time>
      </trkpt>
      <trkpt lat="47.51361" lon="6.75123">
        <ele>354.4</ele>
        <time>2014-06-01T10:11:35.000Z</time>
      </trkpt>
      <trkpt lat="47.51357" lon="6.75122">
        <ele>354</ele>
        <time>2014-06-01T10:11:36.000Z</time>
      </trkpt>
      <trkpt lat="47.51353" lon="6.75121">
        <ele>353.7</ele>
        <time>2014-06-01T10:11:37.000Z</time>
      </trkpt>
      <trkpt lat="47.51348" lon="6.75121">
        <ele>353.3</ele>
        <time>2014-06-01T10:11:38.000Z</time>
      </trkpt>
      <trkpt lat="47.51343" lon="6.75121">
        <ele>353.3</ele>
        <time>2014-06-01T10:11:39.000Z</time>
      </trkpt>
      <trkpt lat="47.51341" lon="6.7512">
        <ele>353</ele>
        <time>2014-06-01T10:11:39.999Z</time>
      </trkpt>
      <trkpt lat="47.51333" lon="6.7512">
        <ele>353.3</ele>
        <time>2014-06-01T10:11:41.000Z</time>
      </trkpt>
      <trkpt lat="47.51327" lon="6.7512">
        <ele>352.9</ele>
        <time>2014-06-01T10:11:42.000Z</time>
      </trkpt>
      <trkpt lat="47.51322" lon="6.7512">
        <ele>352.5</ele>
        <time>2014-06-01T10:11:43.000Z</time>
      </trkpt>
      <trkpt lat="47.51317" lon="6.7512">
        <ele>352.5</ele>
        <time>2014-06-01T10:11:44.000Z</time>
      </trkpt>
      <trkpt lat="47.51311" lon="6.75121">
        <ele>352.1</ele>
        <time>2014-06-01T10:11:45.000Z</time>
      </trkpt>
      <trkpt lat="47.51305" lon="6.75121">
        <ele>351.1</ele>
        <time>2014-06-01T10:11:46.000Z</time>
      </trkpt>
      <trkpt lat="47.51299" lon="6.75121">
        <ele>350.7</ele>
        <time>2014-06-01T10:11:47.000Z</time>
      </trkpt>
      <trkpt lat="47.51293" lon="6.75122">
        <ele>348.5</ele>
        <time>2014-06-01T10:11:48.000Z</time>
      </trkpt>
      <trkpt lat="47.51287" lon="6.75122">
        <ele>348.9</ele>
        <time>2014-06-01T10:11:49.000Z</time>
      </trkpt>
      <trkpt lat="47.51283" lon="6.75122">
        <ele>349.5</ele>
        <time>2014-06-01T10:11:50.000Z</time>
      </trkpt>
      <trkpt lat="47.51279" lon="6.75121">
        <ele>349.5</ele>
        <time>2014-06-01T10:11:51.000Z</time>
      </trkpt>
      <trkpt lat="47.51275" lon="6.7512">
        <ele>350</ele>
        <time>2014-06-01T10:11:53.000Z</time>
      </trkpt>
      <trkpt lat="47.51274" lon="6.7512">
        <ele>349.5</ele>
        <time>2014-06-01T10:11:54.000Z</time>
      </trkpt>
      <trkpt lat="47.51271" lon="6.75119">
        <ele>349.1</ele>
        <time>2014-06-01T10:11:58.000Z</time>
      </trkpt>
      <trkpt lat="47.51269" lon="6.75119">
        <ele>348.7</ele>
        <time>2014-06-01T10:12:06.000Z</time>
      </trkpt>
      <trkpt lat="47.51265" lon="6.75121">
        <ele>349.8</ele>
        <time>2014-06-01T10:12:19.000Z</time>
      </trkpt>
      <trkpt lat="47.51264" lon="6.75121">
        <ele>348.2</ele>
        <time>2014-06-01T10:12:20.000Z</time>
      </trkpt>
      <trkpt lat="47.51261" lon="6.75123">
        <ele>344.9</ele>
        <time>2014-06-01T10:12:25.000Z</time>
      </trkpt>
      <trkpt lat="47.5126" lon="6.75124">
        <ele>345.1</ele>
        <time>2014-06-01T10:12:26.000Z</time>
      </trkpt>
      <trkpt lat="47.51256" lon="6.75124">
        <ele>347.9</ele>
        <time>2014-06-01T10:12:29.000Z</time>
      </trkpt>
      <trkpt lat="47.51255" lon="6.75124">
        <ele>347.7</ele>
        <time>2014-06-01T10:12:30.000Z</time>
      </trkpt>
      <trkpt lat="47.51251" lon="6.75125">
        <ele>346.6</ele>
        <time>2014-06-01T10:12:34.000Z</time>
      </trkpt>
      <trkpt lat="47.51249" lon="6.75125">
        <ele>345.7</ele>
        <time>2014-06-01T10:12:35.000Z</time>
      </trkpt>
      <trkpt lat="47.51245" lon="6.75124">
        <ele>343.4</ele>
        <time>2014-06-01T10:12:39.000Z</time>
      </trkpt>
      <trkpt lat="47.51244" lon="6.75124">
        <ele>341.9</ele>
        <time>2014-06-01T10:12:40.000Z</time>
      </trkpt>
      <trkpt lat="47.51241" lon="6.75127">
        <ele>339.7</ele>
        <time>2014-06-01T10:12:45.000Z</time>
      </trkpt>
      <trkpt lat="47.5124" lon="6.75128">
        <ele>339.9</ele>
        <time>2014-06-01T10:12:46.000Z</time>
      </trkpt>
      <trkpt lat="47.51238" lon="6.75133">
        <ele>339</ele>
        <time>2014-06-01T10:12:50.000Z</time>
      </trkpt>
      <trkpt lat="47.51237" lon="6.75135">
        <ele>340</ele>
        <time>2014-06-01T10:12:51.000Z</time>
      </trkpt>
      <trkpt lat="47.51234" lon="6.75139">
        <ele>341.9</ele>
        <time>2014-06-01T10:13:09.000Z</time>
      </trkpt>
      <trkpt lat="47.51233" lon="6.7514">
        <ele>342</ele>
        <time>2014-06-01T10:13:10.000Z</time>
      </trkpt>
      <trkpt lat="47.51231" lon="6.75143">
        <ele>341.5</ele>
        <time>2014-06-01T10:13:12.000Z</time>
      </trkpt>
      <trkpt lat="47.5123" lon="6.75145">
        <ele>341.7</ele>
        <time>2014-06-01T10:13:13.000Z</time>
      </trkpt>
      <trkpt lat="47.51228" lon="6.75147">
        <ele>342.1</ele>
        <time>2014-06-01T10:13:14.000Z</time>
      </trkpt>
      <trkpt lat="47.51227" lon="6.7515">
        <ele>341.8</ele>
        <time>2014-06-01T10:13:15.000Z</time>
      </trkpt>
      <trkpt lat="47.51225" lon="6.75152">
        <ele>341.8</ele>
        <time>2014-06-01T10:13:16.000Z</time>
      </trkpt>
      <trkpt lat="47.51223" lon="6.75154">
        <ele>338.6</ele>
        <time>2014-06-01T10:13:17.000Z</time>
      </trkpt>
      <trkpt lat="47.5122" lon="6.75158">
        <ele>338.3</ele>
        <time>2014-06-01T10:13:19.000Z</time>
      </trkpt>
      <trkpt lat="47.51218" lon="6.7516">
        <ele>338.7</ele>
        <time>2014-06-01T10:13:20.000Z</time>
      </trkpt>
      <trkpt lat="47.51216" lon="6.75162">
        <ele>338.9</ele>
        <time>2014-06-01T10:13:21.000Z</time>
      </trkpt>
      <trkpt lat="47.51214" lon="6.75164">
        <ele>338.6</ele>
        <time>2014-06-01T10:13:22.000Z</time>
      </trkpt>
      <trkpt lat="47.51211" lon="6.75168">
        <ele>338</ele>
        <time>2014-06-01T10:13:24.000Z</time>
      </trkpt>
      <trkpt lat="47.51209" lon="6.75171">
        <ele>338.2</ele>
        <time>2014-06-01T10:13:25.000Z</time>
      </trkpt>
      <trkpt lat="47.51208" lon="6.75173">
        <ele>338</ele>
        <time>2014-06-01T10:13:26.000Z</time>
      </trkpt>
      <trkpt lat="47.51206" lon="6.75176">
        <ele>337.9</ele>
        <time>2014-06-01T10:13:27.000Z</time>
      </trkpt>
      <trkpt lat="47.51205" lon="6.75179">
        <ele>338.4</ele>
        <time>2014-06-01T10:13:28.000Z</time>
      </trkpt>
      <trkpt lat="47.51203" lon="6.75182">
        <ele>338.3</ele>
        <time>2014-06-01T10:13:29.000Z</time>
      </trkpt>
      <trkpt lat="47.51201" lon="6.75185">
        <ele>338.7</ele>
        <time>2014-06-01T10:13:30.000Z</time>
      </trkpt>
      <trkpt lat="47.512" lon="6.75189">
        <ele>338.4</ele>
        <time>2014-06-01T10:13:31.000Z</time>
      </trkpt>
      <trkpt lat="47.51198" lon="6.75192">
        <ele>339.3</ele>
        <time>2014-06-01T10:13:32.000Z</time>
      </trkpt>
      <trkpt lat="47.51196" lon="6.75195">
        <ele>339.1</ele>
        <time>2014-06-01T10:13:33.000Z</time>
      </trkpt>
      <trkpt lat="47.51193" lon="6.752">
        <ele>341.2</ele>
        <time>2014-06-01T10:13:35.000Z</time>
      </trkpt>
      <trkpt lat="47.51192" lon="6.75201">
        <ele>341.6</ele>
        <time>2014-06-01T10:13:36.000Z</time>
      </trkpt>
      <trkpt lat="47.5119" lon="6.75205">
        <ele>343.9</ele>
        <time>2014-06-01T10:13:38.000Z</time>
      </trkpt>
      <trkpt lat="47.51189" lon="6.75207">
        <ele>344.9</ele>
        <time>2014-06-01T10:13:39.000Z</time>
      </trkpt>
      <trkpt lat="47.51187" lon="6.7521">
        <ele>345.7</ele>
        <time>2014-06-01T10:13:40.000Z</time>
      </trkpt>
      <trkpt lat="47.51186" lon="6.75213">
        <ele>346.4</ele>
        <time>2014-06-01T10:13:41.000Z</time>
      </trkpt>
      <trkpt lat="47.51184" lon="6.75216">
        <ele>347.2</ele>
        <time>2014-06-01T10:13:42.000Z</time>
      </trkpt>
      <trkpt lat="47.51182" lon="6.75219">
        <ele>348.1</ele>
        <time>2014-06-01T10:13:43.000Z</time>
      </trkpt>
      <trkpt lat="47.5118" lon="6.75221">
        <ele>347.8</ele>
        <time>2014-06-01T10:13:44.000Z</time>
      </trkpt>
      <trkpt lat="47.51178" lon="6.75224">
        <ele>347.6</ele>
        <time>2014-06-01T10:13:45.000Z</time>
      </trkpt>
      <trkpt lat="47.51176" lon="6.75226">
        <ele>347.8</ele>
        <time>2014-06-01T10:13:46.000Z</time>
      </trkpt>
      <trkpt lat="47.51175" lon="6.75228">
        <ele>344.9</ele>
        <time>2014-06-01T10:13:47.000Z</time>
      </trkpt>
      <trkpt lat="47.51173" lon="6.75233">
        <ele>339.7</ele>
        <time>2014-06-01T10:13:49.000Z</time>
      </trkpt>
      <trkpt lat="47.51173" lon="6.75236">
        <ele>339.1</ele>
        <time>2014-06-01T10:13:50.000Z</time>
      </trkpt>
      <trkpt lat="47.51172" lon="6.75239">
        <ele>338.8</ele>
        <time>2014-06-01T10:13:51.000Z</time>
      </trkpt>
      <trkpt lat="47.51171" lon="6.75243">
        <ele>339</ele>
        <time>2014-06-01T10:13:52.000Z</time>
      </trkpt>
      <trkpt lat="47.51169" lon="6.75246">
        <ele>338.3</ele>
        <time>2014-06-01T10:13:53.000Z</time>
      </trkpt>
      <trkpt lat="47.51167" lon="6.7525">
        <ele>337.9</ele>
        <time>2014-06-01T10:13:54.000Z</time>
      </trkpt>
      <trkpt lat="47.51165" lon="6.75252">
        <ele>338.9</ele>
        <time>2014-06-01T10:13:55.000Z</time>
      </trkpt>
      <trkpt lat="47.51163" lon="6.75255">
        <ele>339.9</ele>
        <time>2014-06-01T10:13:56.000Z</time>
      </trkpt>
      <trkpt lat="47.5116" lon="6.75258">
        <ele>340.5</ele>
        <time>2014-06-01T10:13:57.000Z</time>
      </trkpt>
      <trkpt lat="47.51158" lon="6.7526">
        <ele>340.8</ele>
        <time>2014-06-01T10:13:58.000Z</time>
      </trkpt>
      <trkpt lat="47.51154" lon="6.75266">
        <ele>341.1</ele>
        <time>2014-06-01T10:14:01.000Z</time>
      </trkpt>
      <trkpt lat="47.51153" lon="6.75269">
        <ele>341.3</ele>
        <time>2014-06-01T10:14:02.000Z</time>
      </trkpt>
      <trkpt lat="47.51151" lon="6.75272">
        <ele>341.4</ele>
        <time>2014-06-01T10:14:03.000Z</time>
      </trkpt>
      <trkpt lat="47.51149" lon="6.75275">
        <ele>340.9</ele>
        <time>2014-06-01T10:14:04.000Z</time>
      </trkpt>
      <trkpt lat="47.51147" lon="6.75279">
        <ele>339.8</ele>
        <time>2014-06-01T10:14:05.000Z</time>
      </trkpt>
      <trkpt lat="47.51144" lon="6.75283">
        <ele>339.5</ele>
        <time>2014-06-01T10:14:06.000Z</time>
      </trkpt>
      <trkpt lat="47.51141" lon="6.75287">
        <ele>338.9</ele>
        <time>2014-06-01T10:14:07.000Z</time>
      </trkpt>
      <trkpt lat="47.51137" lon="6.75292">
        <ele>339.2</ele>
        <time>2014-06-01T10:14:08.000Z</time>
      </trkpt>
      <trkpt lat="47.51134" lon="6.75296">
        <ele>339.9</ele>
        <time>2014-06-01T10:14:09.000Z</time>
      </trkpt>
      <trkpt lat="47.5113" lon="6.753">
        <ele>340.8</ele>
        <time>2014-06-01T10:14:10.000Z</time>
      </trkpt>
      <trkpt lat="47.51127" lon="6.75304">
        <ele>340.2</ele>
        <time>2014-06-01T10:14:11.000Z</time>
      </trkpt>
      <trkpt lat="47.51124" lon="6.75308">
        <ele>340.5</ele>
        <time>2014-06-01T10:14:12.000Z</time>
      </trkpt>
      <trkpt lat="47.51121" lon="6.75313">
        <ele>340.3</ele>
        <time>2014-06-01T10:14:13.000Z</time>
      </trkpt>
      <trkpt lat="47.51117" lon="6.75317">
        <ele>340.1</ele>
        <time>2014-06-01T10:14:14.000Z</time>
      </trkpt>
      <trkpt lat="47.51114" lon="6.75321">
        <ele>339.8</ele>
        <time>2014-06-01T10:14:15.000Z</time>
      </trkpt>
      <trkpt lat="47.5111" lon="6.75326">
        <ele>339.7</ele>
        <time>2014-06-01T10:14:16.000Z</time>
      </trkpt>
      <trkpt lat="47.51107" lon="6.75331">
        <ele>339.7</ele>
        <time>2014-06-01T10:14:17.000Z</time>
      </trkpt>
      <trkpt lat="47.51104" lon="6.75336">
        <ele>340.4</ele>
        <time>2014-06-01T10:14:18.000Z</time>
      </trkpt>
      <trkpt lat="47.51101" lon="6.75342">
        <ele>339.5</ele>
        <time>2014-06-01T10:14:19.000Z</time>
      </trkpt>
      <trkpt lat="47.51098" lon="6.75347">
        <ele>339.1</ele>
        <time>2014-06-01T10:14:20.000Z</time>
      </trkpt>
      <trkpt lat="47.51095" lon="6.75351">
        <ele>339.2</ele>
        <time>2014-06-01T10:14:21.000Z</time>
      </trkpt>
      <trkpt lat="47.51092" lon="6.75355">
        <ele>337.5</ele>
        <time>2014-06-01T10:14:22.000Z</time>
      </trkpt>
      <trkpt lat="47.51089" lon="6.75358">
        <ele>338.8</ele>
        <time>2014-06-01T10:14:23.000Z</time>
      </trkpt>
      <trkpt lat="47.51086" lon="6.7536">
        <ele>337.5</ele>
        <time>2014-06-01T10:14:24.000Z</time>
      </trkpt>
      <trkpt lat="47.51083" lon="6.75361">
        <ele>339.8</ele>
        <time>2014-06-01T10:14:25.000Z</time>
      </trkpt>
      <trkpt lat="47.51079" lon="6.75362">
        <ele>338.6</ele>
        <time>2014-06-01T10:14:26.000Z</time>
      </trkpt>
      <trkpt lat="47.51075" lon="6.75362">
        <ele>336.7</ele>
        <time>2014-06-01T10:14:27.000Z</time>
      </trkpt>
      <trkpt lat="47.5107" lon="6.75363">
        <ele>337.3</ele>
        <time>2014-06-01T10:14:28.000Z</time>
      </trkpt>
      <trkpt lat="47.51065" lon="6.75366">
        <ele>339</ele>
        <time>2014-06-01T10:14:29.000Z</time>
      </trkpt>
      <trkpt lat="47.51062" lon="6.75369">
        <ele>340</ele>
        <time>2014-06-01T10:14:30.000Z</time>
      </trkpt>
      <trkpt lat="47.5106" lon="6.7537">
        <ele>340.3</ele>
        <time>2014-06-01T10:14:31.000Z</time>
      </trkpt>
      <trkpt lat="47.51056" lon="6.75374">
        <ele>340.8</ele>
        <time>2014-06-01T10:14:38.000Z</time>
      </trkpt>
      <trkpt lat="47.51056" lon="6.75375">
        <ele>341.1</ele>
        <time>2014-06-01T10:14:39.000Z</time>
      </trkpt>
      <trkpt lat="47.51052" lon="6.75377">
        <ele>341.2</ele>
        <time>2014-06-01T10:15:48.000Z</time>
      </trkpt>
      <trkpt lat="47.5105" lon="6.75378">
        <ele>340.2</ele>
        <time>2014-06-01T10:15:49.000Z</time>
      </trkpt>
      <trkpt lat="47.51047" lon="6.7538">
        <ele>337.7</ele>
        <time>2014-06-01T10:15:52.000Z</time>
      </trkpt>
      <trkpt lat="47.51046" lon="6.75382">
        <ele>335.2</ele>
        <time>2014-06-01T10:15:53.000Z</time>
      </trkpt>
      <trkpt lat="47.51047" lon="6.75387">
        <ele>336.3</ele>
        <time>2014-06-01T10:15:55.000Z</time>
      </trkpt>
      <trkpt lat="47.51048" lon="6.75389">
        <ele>335.8</ele>
        <time>2014-06-01T10:15:56.000Z</time>
      </trkpt>
      <trkpt lat="47.5105" lon="6.75392">
        <ele>333.6</ele>
        <time>2014-06-01T10:15:58.000Z</time>
      </trkpt>
      <trkpt lat="47.51056" lon="6.75401">
        <ele>332</ele>
        <time>2014-06-01T10:16:06.000Z</time>
      </trkpt>
      <trkpt lat="47.51056" lon="6.75406">
        <ele>332</ele>
        <time>2014-06-01T10:16:09.000Z</time>
      </trkpt>
      <trkpt lat="47.51056" lon="6.75409">
        <ele>332.6</ele>
        <time>2014-06-01T10:16:10.000Z</time>
      </trkpt>
      <trkpt lat="47.51057" lon="6.75413">
        <ele>329.6</ele>
        <time>2014-06-01T10:16:12.000Z</time>
      </trkpt>
      <trkpt lat="47.51058" lon="6.75416">
        <ele>329.2</ele>
        <time>2014-06-01T10:16:13.000Z</time>
      </trkpt>
      <trkpt lat="47.5106" lon="6.75421">
        <ele>328.7</ele>
        <time>2014-06-01T10:16:15.000Z</time>
      </trkpt>
      <trkpt lat="47.51061" lon="6.75424">
        <ele>328.9</ele>
        <time>2014-06-01T10:16:16.000Z</time>
      </trkpt>
      <trkpt lat="47.51062" lon="6.75428">
        <ele>328.8</ele>
        <time>2014-06-01T10:16:17.000Z</time>
      </trkpt>
      <trkpt lat="47.51063" lon="6.75431">
        <ele>328.6</ele>
        <time>2014-06-01T10:16:18.000Z</time>
      </trkpt>
      <trkpt lat="47.51064" lon="6.75435">
        <ele>329.5</ele>
        <time>2014-06-01T10:16:19.000Z</time>
      </trkpt>
      <trkpt lat="47.51064" lon="6.75439">
        <ele>330.3</ele>
        <time>2014-06-01T10:16:20.000Z</time>
      </trkpt>
      <trkpt lat="47.51065" lon="6.75444">
        <ele>330.9</ele>
        <time>2014-06-01T10:16:21.000Z</time>
      </trkpt>
      <trkpt lat="47.51065" lon="6.75448">
        <ele>331.7</ele>
        <time>2014-06-01T10:16:22.000Z</time>
      </trkpt>
      <trkpt lat="47.51066" lon="6.75452">
        <ele>331.3</ele>
        <time>2014-06-01T10:16:23.000Z</time>
      </trkpt>
      <trkpt lat="47.51067" lon="6.75456">
        <ele>331</ele>
        <time>2014-06-01T10:16:24.000Z</time>
      </trkpt>
      <trkpt lat="47.51068" lon="6.7546">
        <ele>330.8</ele>
        <time>2014-06-01T10:16:25.000Z</time>
      </trkpt>
      <trkpt lat="47.5107" lon="6.75464">
        <ele>330</ele>
        <time>2014-06-01T10:16:26.000Z</time>
      </trkpt>
      <trkpt lat="47.51071" lon="6.75467">
        <ele>329.7</ele>
        <time>2014-06-01T10:16:27.000Z</time>
      </trkpt>
      <trkpt lat="47.51072" lon="6.75471">
        <ele>329.8</ele>
        <time>2014-06-01T10:16:28.000Z</time>
      </trkpt>
      <trkpt lat="47.51073" lon="6.75476">
        <ele>329.8</ele>
        <time>2014-06-01T10:16:29.000Z</time>
      </trkpt>
      <trkpt lat="47.51073" lon="6.7548">
        <ele>329.5</ele>
        <time>2014-06-01T10:16:30.000Z</time>
      </trkpt>
      <trkpt lat="47.51074" lon="6.75484">
        <ele>329.4</ele>
        <time>2014-06-01T10:16:31.000Z</time>
      </trkpt>
      <trkpt lat="47.51075" lon="6.75487">
        <ele>328.8</ele>
        <time>2014-06-01T10:16:32.000Z</time>
      </trkpt>
      <trkpt lat="47.51076" lon="6.7549">
        <ele>329.1</ele>
        <time>2014-06-01T10:16:33.000Z</time>
      </trkpt>
      <trkpt lat="47.51077" lon="6.75494">
        <ele>328.8</ele>
        <time>2014-06-01T10:16:34.000Z</time>
      </trkpt>
      <trkpt lat="47.51078" lon="6.75497">
        <ele>329.2</ele>
        <time>2014-06-01T10:16:35.000Z</time>
      </trkpt>
      <trkpt lat="47.51079" lon="6.755">
        <ele>329.1</ele>
        <time>2014-06-01T10:16:36.000Z</time>
      </trkpt>
      <trkpt lat="47.5108" lon="6.75503">
        <ele>329</ele>
        <time>2014-06-01T10:16:37.000Z</time>
      </trkpt>
      <trkpt lat="47.51082" lon="6.75506">
        <ele>328.8</ele>
        <time>2014-06-01T10:16:38.000Z</time>
      </trkpt>
      <trkpt lat="47.51083" lon="6.7551">
        <ele>328.4</ele>
        <time>2014-06-01T10:16:39.000Z</time>
      </trkpt>
      <trkpt lat="47.51085" lon="6.75513">
        <ele>327.8</ele>
        <time>2014-06-01T10:16:40.000Z</time>
      </trkpt>
      <trkpt lat="47.51086" lon="6.75517">
        <ele>327.3</ele>
        <time>2014-06-01T10:16:41.000Z</time>
      </trkpt>
      <trkpt lat="47.51088" lon="6.75521">
        <ele>325.6</ele>
        <time>2014-06-01T10:16:42.000Z</time>
      </trkpt>
      <trkpt lat="47.51091" lon="6.75524">
        <ele>325.4</ele>
        <time>2014-06-01T10:16:43.000Z</time>
      </trkpt>
      <trkpt lat="47.51093" lon="6.75528">
        <ele>325.3</ele>
        <time>2014-06-01T10:16:44.000Z</time>
      </trkpt>
      <trkpt lat="47.51094" lon="6.75532">
        <ele>325.4</ele>
        <time>2014-06-01T10:16:45.000Z</time>
      </trkpt>
      <trkpt lat="47.51096" lon="6.75535">
        <ele>325.3</ele>
        <time>2014-06-01T10:16:46.000Z</time>
      </trkpt>
      <trkpt lat="47.51097" lon="6.75539">
        <ele>324</ele>
        <time>2014-06-01T10:16:47.000Z</time>
      </trkpt>
      <trkpt lat="47.51099" lon="6.75543">
        <ele>323.6</ele>
        <time>2014-06-01T10:16:48.000Z</time>
      </trkpt>
      <trkpt lat="47.51099" lon="6.75547">
        <ele>323.8</ele>
        <time>2014-06-01T10:16:49.000Z</time>
      </trkpt>
      <trkpt lat="47.511" lon="6.75551">
        <ele>323.9</ele>
        <time>2014-06-01T10:16:50.000Z</time>
      </trkpt>
      <trkpt lat="47.51101" lon="6.75555">
        <ele>322.8</ele>
        <time>2014-06-01T10:16:51.000Z</time>
      </trkpt>
      <trkpt lat="47.51102" lon="6.75559">
        <ele>323.2</ele>
        <time>2014-06-01T10:16:52.000Z</time>
      </trkpt>
      <trkpt lat="47.51103" lon="6.75564">
        <ele>323.6</ele>
        <time>2014-06-01T10:16:53.000Z</time>
      </trkpt>
      <trkpt lat="47.51105" lon="6.75569">
        <ele>323.9</ele>
        <time>2014-06-01T10:16:54.000Z</time>
      </trkpt>
      <trkpt lat="47.51107" lon="6.75575">
        <ele>323.7</ele>
        <time>2014-06-01T10:16:55.000Z</time>
      </trkpt>
      <trkpt lat="47.51109" lon="6.75579">
        <ele>323.1</ele>
        <time>2014-06-01T10:16:56.000Z</time>
      </trkpt>
      <trkpt lat="47.51111" lon="6.75584">
        <ele>322.7</ele>
        <time>2014-06-01T10:16:57.000Z</time>
      </trkpt>
      <trkpt lat="47.51112" lon="6.75588">
        <ele>322.6</ele>
        <time>2014-06-01T10:16:58.000Z</time>
      </trkpt>
      <trkpt lat="47.51115" lon="6.75597">
        <ele>320.7</ele>
        <time>2014-06-01T10:17:01.000Z</time>
      </trkpt>
      <trkpt lat="47.51116" lon="6.756">
        <ele>319.9</ele>
        <time>2014-06-01T10:17:02.000Z</time>
      </trkpt>
      <trkpt lat="47.51117" lon="6.75603">
        <ele>319.9</ele>
        <time>2014-06-01T10:17:03.000Z</time>
      </trkpt>
      <trkpt lat="47.51118" lon="6.75606">
        <ele>319.1</ele>
        <time>2014-06-01T10:17:04.000Z</time>
      </trkpt>
      <trkpt lat="47.5112" lon="6.7561">
        <ele>318.8</ele>
        <time>2014-06-01T10:17:05.000Z</time>
      </trkpt>
      <trkpt lat="47.51122" lon="6.75614">
        <ele>318.5</ele>
        <time>2014-06-01T10:17:06.000Z</time>
      </trkpt>
      <trkpt lat="47.51124" lon="6.75619">
        <ele>318.4</ele>
        <time>2014-06-01T10:17:07.000Z</time>
      </trkpt>
      <trkpt lat="47.51126" lon="6.75623">
        <ele>319.1</ele>
        <time>2014-06-01T10:17:08.000Z</time>
      </trkpt>
      <trkpt lat="47.51128" lon="6.75628">
        <ele>319.7</ele>
        <time>2014-06-01T10:17:09.000Z</time>
      </trkpt>
      <trkpt lat="47.51129" lon="6.75633">
        <ele>319.1</ele>
        <time>2014-06-01T10:17:10.000Z</time>
      </trkpt>
      <trkpt lat="47.51131" lon="6.75637">
        <ele>318.8</ele>
        <time>2014-06-01T10:17:11.000Z</time>
      </trkpt>
      <trkpt lat="47.51133" lon="6.75641">
        <ele>319.1</ele>
        <time>2014-06-01T10:17:12.000Z</time>
      </trkpt>
      <trkpt lat="47.51134" lon="6.75646">
        <ele>315.4</ele>
        <time>2014-06-01T10:17:13.000Z</time>
      </trkpt>
      <trkpt lat="47.51136" lon="6.75651">
        <ele>314.2</ele>
        <time>2014-06-01T10:17:14.000Z</time>
      </trkpt>
      <trkpt lat="47.51137" lon="6.75657">
        <ele>313.7</ele>
        <time>2014-06-01T10:17:15.000Z</time>
      </trkpt>
      <trkpt lat="47.51139" lon="6.75662">
        <ele>314.4</ele>
        <time>2014-06-01T10:17:16.000Z</time>
      </trkpt>
      <trkpt lat="47.5114" lon="6.75667">
        <ele>315.4</ele>
        <time>2014-06-01T10:17:17.000Z</time>
      </trkpt>
      <trkpt lat="47.51142" lon="6.75671">
        <ele>316</ele>
        <time>2014-06-01T10:17:18.000Z</time>
      </trkpt>
      <trkpt lat="47.51143" lon="6.75676">
        <ele>316.6</ele>
        <time>2014-06-01T10:17:19.000Z</time>
      </trkpt>
      <trkpt lat="47.51145" lon="6.7568">
        <ele>318.5</ele>
        <time>2014-06-01T10:17:20.000Z</time>
      </trkpt>
      <trkpt lat="47.51146" lon="6.75685">
        <ele>318.8</ele>
        <time>2014-06-01T10:17:21.000Z</time>
      </trkpt>
      <trkpt lat="47.51148" lon="6.7569">
        <ele>318.9</ele>
        <time>2014-06-01T10:17:22.000Z</time>
      </trkpt>
      <trkpt lat="47.51149" lon="6.75694">
        <ele>318.4</ele>
        <time>2014-06-01T10:17:23.000Z</time>
      </trkpt>
      <trkpt lat="47.51151" lon="6.75699">
        <ele>318.7</ele>
        <time>2014-06-01T10:17:24.000Z</time>
      </trkpt>
      <trkpt lat="47.51153" lon="6.75703">
        <ele>319.3</ele>
        <time>2014-06-01T10:17:25.000Z</time>
      </trkpt>
      <trkpt lat="47.51156" lon="6.75707">
        <ele>319</ele>
        <time>2014-06-01T10:17:26.000Z</time>
      </trkpt>
      <trkpt lat="47.51159" lon="6.7571">
        <ele>319.2</ele>
        <time>2014-06-01T10:17:27.000Z</time>
      </trkpt>
      <trkpt lat="47.51161" lon="6.75714">
        <ele>319.3</ele>
        <time>2014-06-01T10:17:28.000Z</time>
      </trkpt>
      <trkpt lat="47.51162" lon="6.75718">
        <ele>318.3</ele>
        <time>2014-06-01T10:17:29.000Z</time>
      </trkpt>
      <trkpt lat="47.51163" lon="6.75722">
        <ele>317.3</ele>
        <time>2014-06-01T10:17:30.000Z</time>
      </trkpt>
      <trkpt lat="47.51163" lon="6.75726">
        <ele>316.9</ele>
        <time>2014-06-01T10:17:31.000Z</time>
      </trkpt>
      <trkpt lat="47.51164" lon="6.7573">
        <ele>316.8</ele>
        <time>2014-06-01T10:17:32.000Z</time>
      </trkpt>
      <trkpt lat="47.51164" lon="6.75734">
        <ele>316.8</ele>
        <time>2014-06-01T10:17:33.000Z</time>
      </trkpt>
      <trkpt lat="47.51165" lon="6.75737">
        <ele>317.7</ele>
        <time>2014-06-01T10:17:34.000Z</time>
      </trkpt>
      <trkpt lat="47.51166" lon="6.75741">
        <ele>317.8</ele>
        <time>2014-06-01T10:17:35.000Z</time>
      </trkpt>
      <trkpt lat="47.51166" lon="6.75745">
        <ele>318.5</ele>
        <time>2014-06-01T10:17:36.000Z</time>
      </trkpt>
      <trkpt lat="47.51167" lon="6.75749">
        <ele>318.8</ele>
        <time>2014-06-01T10:17:37.000Z</time>
      </trkpt>
      <trkpt lat="47.51167" lon="6.75752">
        <ele>319.3</ele>
        <time>2014-06-01T10:17:38.000Z</time>
      </trkpt>
      <trkpt lat="47.51167" lon="6.75756">
        <ele>319.2</ele>
        <time>2014-06-01T10:17:39.000Z</time>
      </trkpt>
      <trkpt lat="47.51168" lon="6.7576">
        <ele>318.6</ele>
        <time>2014-06-01T10:17:40.000Z</time>
      </trkpt>
      <trkpt lat="47.51169" lon="6.75764">
        <ele>317.2</ele>
        <time>2014-06-01T10:17:41.000Z</time>
      </trkpt>
      <trkpt lat="47.5117" lon="6.75769">
        <ele>315</ele>
        <time>2014-06-01T10:17:42.000Z</time>
      </trkpt>
      <trkpt lat="47.51171" lon="6.75774">
        <ele>315</ele>
        <time>2014-06-01T10:17:43.000Z</time>
      </trkpt>
      <trkpt lat="47.51173" lon="6.75779">
        <ele>314.8</ele>
        <time>2014-06-01T10:17:44.000Z</time>
      </trkpt>
      <trkpt lat="47.51173" lon="6.75784">
        <ele>316.1</ele>
        <time>2014-06-01T10:17:45.000Z</time>
      </trkpt>
      <trkpt lat="47.51173" lon="6.75789">
        <ele>316.4</ele>
        <time>2014-06-01T10:17:46.000Z</time>
      </trkpt>
      <trkpt lat="47.51174" lon="6.75794">
        <ele>316.4</ele>
        <time>2014-06-01T10:17:47.000Z</time>
      </trkpt>
      <trkpt lat="47.51175" lon="6.75798">
        <ele>316</ele>
        <time>2014-06-01T10:17:48.000Z</time>
      </trkpt>
      <trkpt lat="47.51176" lon="6.75802">
        <ele>317.4</ele>
        <time>2014-06-01T10:17:49.000Z</time>
      </trkpt>
      <trkpt lat="47.51177" lon="6.75807">
        <ele>318.8</ele>
        <time>2014-06-01T10:17:50.000Z</time>
      </trkpt>
      <trkpt lat="47.51178" lon="6.75811">
        <ele>319</ele>
        <time>2014-06-01T10:17:51.000Z</time>
      </trkpt>
      <trkpt lat="47.51179" lon="6.75814">
        <ele>319.5</ele>
        <time>2014-06-01T10:17:52.000Z</time>
      </trkpt>
      <trkpt lat="47.51179" lon="6.75818">
        <ele>319.6</ele>
        <time>2014-06-01T10:17:53.000Z</time>
      </trkpt>
      <trkpt lat="47.5118" lon="6.75822">
        <ele>319.6</ele>
        <time>2014-06-01T10:17:54.000Z</time>
      </trkpt>
      <trkpt lat="47.51181" lon="6.75826">
        <ele>319.6</ele>
        <time>2014-06-01T10:17:55.000Z</time>
      </trkpt>
      <trkpt lat="47.51182" lon="6.7583">
        <ele>319.5</ele>
        <time>2014-06-01T10:17:56.000Z</time>
      </trkpt>
      <trkpt lat="47.51183" lon="6.75835">
        <ele>318.3</ele>
        <time>2014-06-01T10:17:57.000Z</time>
      </trkpt>
      <trkpt lat="47.51184" lon="6.75839">
        <ele>319.1</ele>
        <time>2014-06-01T10:17:58.000Z</time>
      </trkpt>
      <trkpt lat="47.51191" lon="6.75872">
        <ele>317.5</ele>
        <time>2014-06-01T10:18:06.000Z</time>
      </trkpt>
      <trkpt lat="47.51193" lon="6.75878">
        <ele>315.5</ele>
        <time>2014-06-01T10:18:08.000Z</time>
      </trkpt>
      <trkpt lat="47.51194" lon="6.75881">
        <ele>315.1</ele>
        <time>2014-06-01T10:18:09.000Z</time>
      </trkpt>
      <trkpt lat="47.51195" lon="6.75886">
        <ele>315.6</ele>
        <time>2014-06-01T10:18:10.000Z</time>
      </trkpt>
      <trkpt lat="47.51196" lon="6.75891">
        <ele>314.5</ele>
        <time>2014-06-01T10:18:11.000Z</time>
      </trkpt>
      <trkpt lat="47.51198" lon="6.75897">
        <ele>317.9</ele>
        <time>2014-06-01T10:18:12.000Z</time>
      </trkpt>
      <trkpt lat="47.51201" lon="6.75903">
        <ele>312.9</ele>
        <time>2014-06-01T10:18:13.000Z</time>
      </trkpt>
      <trkpt lat="47.51203" lon="6.75908">
        <ele>311</ele>
        <time>2014-06-01T10:18:14.000Z</time>
      </trkpt>
      <trkpt lat="47.51206" lon="6.75914">
        <ele>309.3</ele>
        <time>2014-06-01T10:18:15.000Z</time>
      </trkpt>
      <trkpt lat="47.51208" lon="6.75919">
        <ele>314.9</ele>
        <time>2014-06-01T10:18:16.000Z</time>
      </trkpt>
      <trkpt lat="47.51211" lon="6.75925">
        <ele>317.4</ele>
        <time>2014-06-01T10:18:17.000Z</time>
      </trkpt>
      <trkpt lat="47.51213" lon="6.75931">
        <ele>317.1</ele>
        <time>2014-06-01T10:18:18.000Z</time>
      </trkpt>
      <trkpt lat="47.51216" lon="6.75938">
        <ele>317.3</ele>
        <time>2014-06-01T10:18:19.000Z</time>
      </trkpt>
      <trkpt lat="47.51218" lon="6.75943">
        <ele>317.5</ele>
        <time>2014-06-01T10:18:20.000Z</time>
      </trkpt>
      <trkpt lat="47.5122" lon="6.75948">
        <ele>318.3</ele>
        <time>2014-06-01T10:18:21.000Z</time>
      </trkpt>
      <trkpt lat="47.51221" lon="6.75953">
        <ele>318.5</ele>
        <time>2014-06-01T10:18:22.000Z</time>
      </trkpt>
      <trkpt lat="47.51222" lon="6.75957">
        <ele>318.5</ele>
        <time>2014-06-01T10:18:23.000Z</time>
      </trkpt>
      <trkpt lat="47.51224" lon="6.75961">
        <ele>320.3</ele>
        <time>2014-06-01T10:18:24.000Z</time>
      </trkpt>
      <trkpt lat="47.51225" lon="6.75965">
        <ele>321.7</ele>
        <time>2014-06-01T10:18:25.000Z</time>
      </trkpt>
      <trkpt lat="47.51226" lon="6.75969">
        <ele>322.5</ele>
        <time>2014-06-01T10:18:26.000Z</time>
      </trkpt>
      <trkpt lat="47.51226" lon="6.75973">
        <ele>323.3</ele>
        <time>2014-06-01T10:18:27.000Z</time>
      </trkpt>
      <trkpt lat="47.51226" lon="6.75977">
        <ele>323.6</ele>
        <time>2014-06-01T10:18:28.000Z</time>
      </trkpt>
      <trkpt lat="47.51226" lon="6.75981">
        <ele>324.4</ele>
        <time>2014-06-01T10:18:29.000Z</time>
      </trkpt>
      <trkpt lat="47.51226" lon="6.75985">
        <ele>324.9</ele>
        <time>2014-06-01T10:18:30.000Z</time>
      </trkpt>
      <trkpt lat="47.51226" lon="6.7599">
        <ele>324.1</ele>
        <time>2014-06-01T10:18:31.000Z</time>
      </trkpt>
      <trkpt lat="47.51225" lon="6.75995">
        <ele>318.4</ele>
        <time>2014-06-01T10:18:32.000Z</time>
      </trkpt>
      <trkpt lat="47.51225" lon="6.76">
        <ele>316.7</ele>
        <time>2014-06-01T10:18:33.000Z</time>
      </trkpt>
      <trkpt lat="47.51224" lon="6.76004">
        <ele>313.4</ele>
        <time>2014-06-01T10:18:34.000Z</time>
      </trkpt>
      <trkpt lat="47.51224" lon="6.76009">
        <ele>310.1</ele>
        <time>2014-06-01T10:18:35.000Z</time>
      </trkpt>
      <trkpt lat="47.51224" lon="6.76013">
        <ele>309.1</ele>
        <time>2014-06-01T10:18:36.000Z</time>
      </trkpt>
      <trkpt lat="47.51224" lon="6.76018">
        <ele>309.1</ele>
        <time>2014-06-01T10:18:37.000Z</time>
      </trkpt>
      <trkpt lat="47.51225" lon="6.76023">
        <ele>304.8</ele>
        <time>2014-06-01T10:18:38.000Z</time>
      </trkpt>
      <trkpt lat="47.51226" lon="6.76027">
        <ele>303.2</ele>
        <time>2014-06-01T10:18:39.000Z</time>
      </trkpt>
      <trkpt lat="47.51228" lon="6.76032">
        <ele>302.7</ele>
        <time>2014-06-01T10:18:40.000Z</time>
      </trkpt>
      <trkpt lat="47.51229" lon="6.76037">
        <ele>303</ele>
        <time>2014-06-01T10:18:41.000Z</time>
      </trkpt>
      <trkpt lat="47.5123" lon="6.76042">
        <ele>302.7</ele>
        <time>2014-06-01T10:18:42.000Z</time>
      </trkpt>
      <trkpt lat="47.51231" lon="6.76047">
        <ele>303.9</ele>
        <time>2014-06-01T10:18:43.000Z</time>
      </trkpt>
      <trkpt lat="47.51232" lon="6.76052">
        <ele>305</ele>
        <time>2014-06-01T10:18:44.000Z</time>
      </trkpt>
      <trkpt lat="47.51233" lon="6.76057">
        <ele>305.4</ele>
        <time>2014-06-01T10:18:45.000Z</time>
      </trkpt>
      <trkpt lat="47.51233" lon="6.76062">
        <ele>306.5</ele>
        <time>2014-06-01T10:18:46.000Z</time>
      </trkpt>
      <trkpt lat="47.51234" lon="6.76066">
        <ele>306.4</ele>
        <time>2014-06-01T10:18:47.000Z</time>
      </trkpt>
      <trkpt lat="47.51234" lon="6.7607">
        <ele>307.4</ele>
        <time>2014-06-01T10:18:48.000Z</time>
      </trkpt>
      <trkpt lat="47.51234" lon="6.76074">
        <ele>308</ele>
        <time>2014-06-01T10:18:49.000Z</time>
      </trkpt>
      <trkpt lat="47.51234" lon="6.76078">
        <ele>309.1</ele>
        <time>2014-06-01T10:18:50.000Z</time>
      </trkpt>
      <trkpt lat="47.51233" lon="6.76083">
        <ele>310.3</ele>
        <time>2014-06-01T10:18:51.000Z</time>
      </trkpt>
      <trkpt lat="47.51233" lon="6.76089">
        <ele>311.9</ele>
        <time>2014-06-01T10:18:52.000Z</time>
      </trkpt>
      <trkpt lat="47.51233" lon="6.76095">
        <ele>312.6</ele>
        <time>2014-06-01T10:18:53.000Z</time>
      </trkpt>
      <trkpt lat="47.51234" lon="6.76101">
        <ele>312.2</ele>
        <time>2014-06-01T10:18:54.000Z</time>
      </trkpt>
      <trkpt lat="47.51235" lon="6.76107">
        <ele>315.9</ele>
        <time>2014-06-01T10:18:55.000Z</time>
      </trkpt>
      <trkpt lat="47.51236" lon="6.76112">
        <ele>318.3</ele>
        <time>2014-06-01T10:18:56.000Z</time>
      </trkpt>
      <trkpt lat="47.51238" lon="6.76118">
        <ele>317.3</ele>
        <time>2014-06-01T10:18:57.000Z</time>
      </trkpt>
      <trkpt lat="47.51239" lon="6.76123">
        <ele>318.6</ele>
        <time>2014-06-01T10:18:58.000Z</time>
      </trkpt>
      <trkpt lat="47.5124" lon="6.76133">
        <ele>318</ele>
        <time>2014-06-01T10:18:59.924Z</time>
      </trkpt>
      <trkpt lat="47.51245" lon="6.76152">
        <ele>317.6</ele>
        <time>2014-06-01T10:19:04.000Z</time>
      </trkpt>
      <trkpt lat="47.51246" lon="6.76155">
        <ele>317.4</ele>
        <time>2014-06-01T10:19:05.000Z</time>
      </trkpt>
      <trkpt lat="47.51248" lon="6.76158">
        <ele>316.9</ele>
        <time>2014-06-01T10:19:06.000Z</time>
      </trkpt>
      <trkpt lat="47.5125" lon="6.76162">
        <ele>316.5</ele>
        <time>2014-06-01T10:19:07.000Z</time>
      </trkpt>
      <trkpt lat="47.51252" lon="6.76166">
        <ele>316.6</ele>
        <time>2014-06-01T10:19:08.000Z</time>
      </trkpt>
      <trkpt lat="47.51253" lon="6.76171">
        <ele>318</ele>
        <time>2014-06-01T10:19:09.000Z</time>
      </trkpt>
      <trkpt lat="47.51255" lon="6.76175">
        <ele>318.9</ele>
        <time>2014-06-01T10:19:10.000Z</time>
      </trkpt>
      <trkpt lat="47.51257" lon="6.7618">
        <ele>319.1</ele>
        <time>2014-06-01T10:19:11.000Z</time>
      </trkpt>
      <trkpt lat="47.5126" lon="6.76184">
        <ele>319.6</ele>
        <time>2014-06-01T10:19:12.000Z</time>
      </trkpt>
      <trkpt lat="47.51262" lon="6.76189">
        <ele>320.2</ele>
        <time>2014-06-01T10:19:13.000Z</time>
      </trkpt>
      <trkpt lat="47.51263" lon="6.76193">
        <ele>320.6</ele>
        <time>2014-06-01T10:19:14.000Z</time>
      </trkpt>
      <trkpt lat="47.51265" lon="6.76197">
        <ele>320.9</ele>
        <time>2014-06-01T10:19:15.000Z</time>
      </trkpt>
      <trkpt lat="47.51266" lon="6.762">
        <ele>321.3</ele>
        <time>2014-06-01T10:19:16.000Z</time>
      </trkpt>
      <trkpt lat="47.51267" lon="6.76204">
        <ele>321.3</ele>
        <time>2014-06-01T10:19:17.000Z</time>
      </trkpt>
      <trkpt lat="47.51267" lon="6.76207">
        <ele>321.8</ele>
        <time>2014-06-01T10:19:18.000Z</time>
      </trkpt>
      <trkpt lat="47.51267" lon="6.76213">
        <ele>322.2</ele>
        <time>2014-06-01T10:19:20.000Z</time>
      </trkpt>
      <trkpt lat="47.51267" lon="6.76217">
        <ele>322.4</ele>
        <time>2014-06-01T10:19:21.000Z</time>
      </trkpt>
      <trkpt lat="47.51267" lon="6.7622">
        <ele>322</ele>
        <time>2014-06-01T10:19:22.000Z</time>
      </trkpt>
      <trkpt lat="47.51267" lon="6.76224">
        <ele>322.9</ele>
        <time>2014-06-01T10:19:23.000Z</time>
      </trkpt>
      <trkpt lat="47.51268" lon="6.76228">
        <ele>323.3</ele>
        <time>2014-06-01T10:19:24.000Z</time>
      </trkpt>
      <trkpt lat="47.51268" lon="6.76231">
        <ele>323.7</ele>
        <time>2014-06-01T10:19:25.000Z</time>
      </trkpt>
      <trkpt lat="47.51269" lon="6.76235">
        <ele>324.6</ele>
        <time>2014-06-01T10:19:26.000Z</time>
      </trkpt>
      <trkpt lat="47.5127" lon="6.7624">
        <ele>325.3</ele>
        <time>2014-06-01T10:19:27.000Z</time>
      </trkpt>
      <trkpt lat="47.51272" lon="6.76244">
        <ele>325.4</ele>
        <time>2014-06-01T10:19:28.000Z</time>
      </trkpt>
      <trkpt lat="47.51273" lon="6.76248">
        <ele>325.5</ele>
        <time>2014-06-01T10:19:29.000Z</time>
      </trkpt>
      <trkpt lat="47.51275" lon="6.76252">
        <ele>325</ele>
        <time>2014-06-01T10:19:30.000Z</time>
      </trkpt>
      <trkpt lat="47.51276" lon="6.76256">
        <ele>325.1</ele>
        <time>2014-06-01T10:19:31.000Z</time>
      </trkpt>
      <trkpt lat="47.51278" lon="6.7626">
        <ele>326.3</ele>
        <time>2014-06-01T10:19:32.000Z</time>
      </trkpt>
      <trkpt lat="47.5128" lon="6.76265">
        <ele>327.3</ele>
        <time>2014-06-01T10:19:33.000Z</time>
      </trkpt>
      <trkpt lat="47.51281" lon="6.76269">
        <ele>328.6</ele>
        <time>2014-06-01T10:19:34.000Z</time>
      </trkpt>
      <trkpt lat="47.51283" lon="6.76273">
        <ele>330.3</ele>
        <time>2014-06-01T10:19:35.000Z</time>
      </trkpt>
      <trkpt lat="47.51284" lon="6.76278">
        <ele>329.8</ele>
        <time>2014-06-01T10:19:36.000Z</time>
      </trkpt>
      <trkpt lat="47.51286" lon="6.76282">
        <ele>331.2</ele>
        <time>2014-06-01T10:19:37.000Z</time>
      </trkpt>
      <trkpt lat="47.51288" lon="6.76286">
        <ele>332.3</ele>
        <time>2014-06-01T10:19:38.000Z</time>
      </trkpt>
      <trkpt lat="47.5129" lon="6.7629">
        <ele>331.9</ele>
        <time>2014-06-01T10:19:39.000Z</time>
      </trkpt>
      <trkpt lat="47.51291" lon="6.76294">
        <ele>332.5</ele>
        <time>2014-06-01T10:19:40.000Z</time>
      </trkpt>
      <trkpt lat="47.51294" lon="6.76297">
        <ele>329.8</ele>
        <time>2014-06-01T10:19:41.000Z</time>
      </trkpt>
      <trkpt lat="47.51297" lon="6.76302">
        <ele>331.4</ele>
        <time>2014-06-01T10:19:42.000Z</time>
      </trkpt>
      <trkpt lat="47.513" lon="6.76306">
        <ele>331.7</ele>
        <time>2014-06-01T10:19:43.000Z</time>
      </trkpt>
      <trkpt lat="47.51303" lon="6.7631">
        <ele>332.6</ele>
        <time>2014-06-01T10:19:44.000Z</time>
      </trkpt>
      <trkpt lat="47.51305" lon="6.76315">
        <ele>333.5</ele>
        <time>2014-06-01T10:19:45.000Z</time>
      </trkpt>
      <trkpt lat="47.51308" lon="6.76318">
        <ele>335</ele>
        <time>2014-06-01T10:19:46.000Z</time>
      </trkpt>
      <trkpt lat="47.5131" lon="6.76322">
        <ele>335.7</ele>
        <time>2014-06-01T10:19:47.000Z</time>
      </trkpt>
      <trkpt lat="47.51312" lon="6.76325">
        <ele>336.2</ele>
        <time>2014-06-01T10:19:48.000Z</time>
      </trkpt>
      <trkpt lat="47.51314" lon="6.76329">
        <ele>336.6</ele>
        <time>2014-06-01T10:19:49.000Z</time>
      </trkpt>
      <trkpt lat="47.51316" lon="6.76332">
        <ele>337.5</ele>
        <time>2014-06-01T10:19:50.000Z</time>
      </trkpt>
      <trkpt lat="47.51318" lon="6.76336">
        <ele>338.1</ele>
        <time>2014-06-01T10:19:51.000Z</time>
      </trkpt>
      <trkpt lat="47.5132" lon="6.7634">
        <ele>338.7</ele>
        <time>2014-06-01T10:19:52.000Z</time>
      </trkpt>
      <trkpt lat="47.51322" lon="6.76345">
        <ele>338.5</ele>
        <time>2014-06-01T10:19:53.000Z</time>
      </trkpt>
      <trkpt lat="47.51324" lon="6.76349">
        <ele>339.1</ele>
        <time>2014-06-01T10:19:54.000Z</time>
      </trkpt>
      <trkpt lat="47.51326" lon="6.76354">
        <ele>340.2</ele>
        <time>2014-06-01T10:19:55.000Z</time>
      </trkpt>
      <trkpt lat="47.51328" lon="6.76358">
        <ele>340.4</ele>
        <time>2014-06-01T10:19:56.000Z</time>
      </trkpt>
      <trkpt lat="47.51331" lon="6.76362">
        <ele>340.3</ele>
        <time>2014-06-01T10:19:57.000Z</time>
      </trkpt>
      <trkpt lat="47.51332" lon="6.76365">
        <ele>339.9</ele>
        <time>2014-06-01T10:19:58.000Z</time>
      </trkpt>
      <trkpt lat="47.51337" lon="6.76376">
        <ele>341.5</ele>
        <time>2014-06-01T10:20:01.000Z</time>
      </trkpt>
      <trkpt lat="47.51338" lon="6.7638">
        <ele>341.3</ele>
        <time>2014-06-01T10:20:02.000Z</time>
      </trkpt>
      <trkpt lat="47.51339" lon="6.76384">
        <ele>341.1</ele>
        <time>2014-06-01T10:20:03.000Z</time>
      </trkpt>
      <trkpt lat="47.51341" lon="6.76388">
        <ele>341.4</ele>
        <time>2014-06-01T10:20:04.000Z</time>
      </trkpt>
      <trkpt lat="47.51343" lon="6.76392">
        <ele>341.9</ele>
        <time>2014-06-01T10:20:05.000Z</time>
      </trkpt>
      <trkpt lat="47.51345" lon="6.76395">
        <ele>342.2</ele>
        <time>2014-06-01T10:20:06.000Z</time>
      </trkpt>
      <trkpt lat="47.51347" lon="6.76399">
        <ele>342.9</ele>
        <time>2014-06-01T10:20:07.000Z</time>
      </trkpt>
      <trkpt lat="47.51349" lon="6.76402">
        <ele>344</ele>
        <time>2014-06-01T10:20:08.000Z</time>
      </trkpt>
      <trkpt lat="47.51352" lon="6.76404">
        <ele>343.9</ele>
        <time>2014-06-01T10:20:09.000Z</time>
      </trkpt>
      <trkpt lat="47.51354" lon="6.76407">
        <ele>344.8</ele>
        <time>2014-06-01T10:20:10.000Z</time>
      </trkpt>
      <trkpt lat="47.51357" lon="6.76408">
        <ele>345.2</ele>
        <time>2014-06-01T10:20:11.000Z</time>
      </trkpt>
      <trkpt lat="47.5136" lon="6.7641">
        <ele>345.2</ele>
        <time>2014-06-01T10:20:12.000Z</time>
      </trkpt>
      <trkpt lat="47.51363" lon="6.7641">
        <ele>346.7</ele>
        <time>2014-06-01T10:20:13.000Z</time>
      </trkpt>
      <trkpt lat="47.51365" lon="6.76411">
        <ele>346.6</ele>
        <time>2014-06-01T10:20:14.000Z</time>
      </trkpt>
      <trkpt lat="47.51367" lon="6.76411">
        <ele>348</ele>
        <time>2014-06-01T10:20:15.000Z</time>
      </trkpt>
      <trkpt lat="47.51371" lon="6.76411">
        <ele>349.6</ele>
        <time>2014-06-01T10:20:17.000Z</time>
      </trkpt>
      <trkpt lat="47.51372" lon="6.7641">
        <ele>349.3</ele>
        <time>2014-06-01T10:20:18.000Z</time>
      </trkpt>
      <trkpt lat="47.51376" lon="6.76414">
        <ele>349.5</ele>
        <time>2014-06-01T10:20:24.000Z</time>
      </trkpt>
      <trkpt lat="47.51376" lon="6.76414">
        <ele>349.1</ele>
        <time>2014-06-01T10:20:25.000Z</time>
      </trkpt>
      <trkpt lat="47.51379" lon="6.76413">
        <ele>351.9</ele>
        <time>2014-06-01T10:20:55.000Z</time>
      </trkpt>
      <trkpt lat="47.5138" lon="6.76412">
        <ele>353.3</ele>
        <time>2014-06-01T10:20:56.000Z</time>
      </trkpt>
      <trkpt lat="47.51383" lon="6.76411">
        <ele>351.5</ele>
        <time>2014-06-01T10:20:58.000Z</time>
      </trkpt>
      <trkpt lat="47.51386" lon="6.76408">
        <ele>351.6</ele>
        <time>2014-06-01T10:21:01.000Z</time>
      </trkpt>
      <trkpt lat="47.51389" lon="6.76404">
        <ele>354.5</ele>
        <time>2014-06-01T10:21:04.000Z</time>
      </trkpt>
      <trkpt lat="47.51391" lon="6.76403">
        <ele>355</ele>
        <time>2014-06-01T10:21:05.000Z</time>
      </trkpt>
      <trkpt lat="47.51394" lon="6.76402">
        <ele>355.8</ele>
        <time>2014-06-01T10:21:08.000Z</time>
      </trkpt>
      <trkpt lat="47.51395" lon="6.76401">
        <ele>356.1</ele>
        <time>2014-06-01T10:21:09.000Z</time>
      </trkpt>
      <trkpt lat="47.51399" lon="6.76398">
        <ele>359.1</ele>
        <time>2014-06-01T10:21:12.000Z</time>
      </trkpt>
      <trkpt lat="47.514" lon="6.76397">
        <ele>360</ele>
        <time>2014-06-01T10:21:13.000Z</time>
      </trkpt>
      <trkpt lat="47.51403" lon="6.76395">
        <ele>361.4</ele>
        <time>2014-06-01T10:21:15.000Z</time>
      </trkpt>
      <trkpt lat="47.51404" lon="6.76393">
        <ele>361.2</ele>
        <time>2014-06-01T10:21:16.000Z</time>
      </trkpt>
      <trkpt lat="47.51408" lon="6.76389">
        <ele>363.1</ele>
        <time>2014-06-01T10:21:19.000Z</time>
      </trkpt>
      <trkpt lat="47.51409" lon="6.76388">
        <ele>364.2</ele>
        <time>2014-06-01T10:21:20.000Z</time>
      </trkpt>
      <trkpt lat="47.51413" lon="6.76386">
        <ele>366.1</ele>
        <time>2014-06-01T10:21:23.000Z</time>
      </trkpt>
      <trkpt lat="47.51414" lon="6.76385">
        <ele>366</ele>
        <time>2014-06-01T10:21:24.000Z</time>
      </trkpt>
      <trkpt lat="47.51418" lon="6.76383">
        <ele>368</ele>
        <time>2014-06-01T10:21:30.000Z</time>
      </trkpt>
      <trkpt lat="47.51419" lon="6.76383">
        <ele>368.4</ele>
        <time>2014-06-01T10:21:31.000Z</time>
      </trkpt>
      <trkpt lat="47.51423" lon="6.76379">
        <ele>371.9</ele>
        <time>2014-06-01T10:21:37.000Z</time>
      </trkpt>
      <trkpt lat="47.51423" lon="6.76379">
        <ele>372</ele>
        <time>2014-06-01T10:21:38.000Z</time>
      </trkpt>
      <trkpt lat="47.51427" lon="6.76376">
        <ele>372.9</ele>
        <time>2014-06-01T10:21:42.000Z</time>
      </trkpt>
      <trkpt lat="47.51428" lon="6.76375">
        <ele>372.8</ele>
        <time>2014-06-01T10:21:43.000Z</time>
      </trkpt>
      <trkpt lat="47.51431" lon="6.76373">
        <ele>373.2</ele>
        <time>2014-06-01T10:21:46.000Z</time>
      </trkpt>
      <trkpt lat="47.51432" lon="6.76372">
        <ele>372.7</ele>
        <time>2014-06-01T10:21:47.000Z</time>
      </trkpt>
      <trkpt lat="47.51434" lon="6.76369">
        <ele>373.2</ele>
        <time>2014-06-01T10:21:49.000Z</time>
      </trkpt>
      <trkpt lat="47.51436" lon="6.76368">
        <ele>373.5</ele>
        <time>2014-06-01T10:21:50.000Z</time>
      </trkpt>
      <trkpt lat="47.51438" lon="6.76367">
        <ele>375.4</ele>
        <time>2014-06-01T10:21:51.000Z</time>
      </trkpt>
      <trkpt lat="47.5144" lon="6.76366">
        <ele>376.7</ele>
        <time>2014-06-01T10:21:52.000Z</time>
      </trkpt>
      <trkpt lat="47.51442" lon="6.76365">
        <ele>377.4</ele>
        <time>2014-06-01T10:21:53.000Z</time>
      </trkpt>
      <trkpt lat="47.51445" lon="6.76364">
        <ele>377.7</ele>
        <time>2014-06-01T10:21:54.000Z</time>
      </trkpt>
      <trkpt lat="47.51449" lon="6.76362">
        <ele>379.9</ele>
        <time>2014-06-01T10:21:56.000Z</time>
      </trkpt>
      <trkpt lat="47.5145" lon="6.76361">
        <ele>380.1</ele>
        <time>2014-06-01T10:21:57.000Z</time>
      </trkpt>
      <trkpt lat="47.51452" lon="6.7636">
        <ele>380.4</ele>
        <time>2014-06-01T10:21:58.000Z</time>
      </trkpt>
      <trkpt lat="47.51465" lon="6.76359">
        <ele>376.8</ele>
        <time>2014-06-01T10:22:06.000Z</time>
      </trkpt>
      <trkpt lat="47.51469" lon="6.76359">
        <ele>376.4</ele>
        <time>2014-06-01T10:22:09.000Z</time>
      </trkpt>
      <trkpt lat="47.5147" lon="6.76358">
        <ele>377.1</ele>
        <time>2014-06-01T10:22:10.000Z</time>
      </trkpt>
      <trkpt lat="47.51474" lon="6.76358">
        <ele>376.5</ele>
        <time>2014-06-01T10:22:12.000Z</time>
      </trkpt>
      <trkpt lat="47.51476" lon="6.76358">
        <ele>376.1</ele>
        <time>2014-06-01T10:22:13.000Z</time>
      </trkpt>
      <trkpt lat="47.5148" lon="6.76358">
        <ele>375.6</ele>
        <time>2014-06-01T10:22:15.000Z</time>
      </trkpt>
      <trkpt lat="47.51482" lon="6.76357">
        <ele>375.3</ele>
        <time>2014-06-01T10:22:16.000Z</time>
      </trkpt>
      <trkpt lat="47.51486" lon="6.76355">
        <ele>374.7</ele>
        <time>2014-06-01T10:22:18.000Z</time>
      </trkpt>
      <trkpt lat="47.51487" lon="6.76354">
        <ele>374.1</ele>
        <time>2014-06-01T10:22:19.000Z</time>
      </trkpt>
      <trkpt lat="47.51491" lon="6.76354">
        <ele>375.5</ele>
        <time>2014-06-01T10:22:21.000Z</time>
      </trkpt>
      <trkpt lat="47.51493" lon="6.76354">
        <ele>376.8</ele>
        <time>2014-06-01T10:22:22.000Z</time>
      </trkpt>
      <trkpt lat="47.51496" lon="6.76354">
        <ele>378.5</ele>
        <time>2014-06-01T10:22:24.000Z</time>
      </trkpt>
      <trkpt lat="47.51498" lon="6.76354">
        <ele>379.2</ele>
        <time>2014-06-01T10:22:25.000Z</time>
      </trkpt>
      <trkpt lat="47.51501" lon="6.76353">
        <ele>380.8</ele>
        <time>2014-06-01T10:22:27.000Z</time>
      </trkpt>
      <trkpt lat="47.51502" lon="6.76352">
        <ele>381</ele>
        <time>2014-06-01T10:22:28.000Z</time>
      </trkpt>
      <trkpt lat="47.51506" lon="6.76349">
        <ele>382.3</ele>
        <time>2014-06-01T10:22:31.000Z</time>
      </trkpt>
      <trkpt lat="47.51507" lon="6.76348">
        <ele>382.2</ele>
        <time>2014-06-01T10:22:32.000Z</time>
      </trkpt>
      <trkpt lat="47.5151" lon="6.76346">
        <ele>382.5</ele>
        <time>2014-06-01T10:22:35.000Z</time>
      </trkpt>
      <trkpt lat="47.51511" lon="6.76345">
        <ele>382.4</ele>
        <time>2014-06-01T10:22:36.000Z</time>
      </trkpt>
      <trkpt lat="47.51515" lon="6.76343">
        <ele>381.5</ele>
        <time>2014-06-01T10:22:38.000Z</time>
      </trkpt>
      <trkpt lat="47.51516" lon="6.76341">
        <ele>381.1</ele>
        <time>2014-06-01T10:22:39.000Z</time>
      </trkpt>
      <trkpt lat="47.5152" lon="6.76338">
        <ele>380.8</ele>
        <time>2014-06-01T10:22:41.000Z</time>
      </trkpt>
      <trkpt lat="47.51522" lon="6.76336">
        <ele>380.6</ele>
        <time>2014-06-01T10:22:42.000Z</time>
      </trkpt>
      <trkpt lat="47.51524" lon="6.76335">
        <ele>381.3</ele>
        <time>2014-06-01T10:22:43.000Z</time>
      </trkpt>
      <trkpt lat="47.51526" lon="6.76333">
        <ele>379.2</ele>
        <time>2014-06-01T10:22:44.000Z</time>
      </trkpt>
      <trkpt lat="47.51529" lon="6.7633">
        <ele>379.2</ele>
        <time>2014-06-01T10:22:46.000Z</time>
      </trkpt>
      <trkpt lat="47.51531" lon="6.76327">
        <ele>379.2</ele>
        <time>2014-06-01T10:22:47.000Z</time>
      </trkpt>
      <trkpt lat="47.51535" lon="6.76325">
        <ele>380</ele>
        <time>2014-06-01T10:22:50.000Z</time>
      </trkpt>
      <trkpt lat="47.51537" lon="6.76324">
        <ele>380.2</ele>
        <time>2014-06-01T10:22:51.000Z</time>
      </trkpt>
      <trkpt lat="47.51541" lon="6.76322">
        <ele>380.6</ele>
        <time>2014-06-01T10:22:55.000Z</time>
      </trkpt>
      <trkpt lat="47.51542" lon="6.76321">
        <ele>380.6</ele>
        <time>2014-06-01T10:22:56.000Z</time>
      </trkpt>
      <trkpt lat="47.51544" lon="6.76319">
        <ele>380.6</ele>
        <time>2014-06-01T10:22:58.000Z</time>
      </trkpt>
      <trkpt lat="47.51546" lon="6.76315">
        <ele>379.2</ele>
        <time>2014-06-01T10:23:01.000Z</time>
      </trkpt>
      <trkpt lat="47.5155" lon="6.76313">
        <ele>376.6</ele>
        <time>2014-06-01T10:23:03.000Z</time>
      </trkpt>
      <trkpt lat="47.51553" lon="6.76311">
        <ele>374.7</ele>
        <time>2014-06-01T10:23:04.000Z</time>
      </trkpt>
      <trkpt lat="47.51556" lon="6.7631">
        <ele>375.3</ele>
        <time>2014-06-01T10:23:05.000Z</time>
      </trkpt>
      <trkpt lat="47.51559" lon="6.76309">
        <ele>373.8</ele>
        <time>2014-06-01T10:23:06.000Z</time>
      </trkpt>
      <trkpt lat="47.51562" lon="6.76308">
        <ele>372.6</ele>
        <time>2014-06-01T10:23:07.000Z</time>
      </trkpt>
      <trkpt lat="47.51566" lon="6.76309">
        <ele>376.1</ele>
        <time>2014-06-01T10:23:08.000Z</time>
      </trkpt>
      <trkpt lat="47.5157" lon="6.76309">
        <ele>376.1</ele>
        <time>2014-06-01T10:23:09.000Z</time>
      </trkpt>
      <trkpt lat="47.51575" lon="6.7631">
        <ele>376.7</ele>
        <time>2014-06-01T10:23:10.000Z</time>
      </trkpt>
      <trkpt lat="47.51579" lon="6.76312">
        <ele>376.1</ele>
        <time>2014-06-01T10:23:11.000Z</time>
      </trkpt>
      <trkpt lat="47.51583" lon="6.76313">
        <ele>375.5</ele>
        <time>2014-06-01T10:23:12.000Z</time>
      </trkpt>
      <trkpt lat="47.51586" lon="6.76314">
        <ele>374.1</ele>
        <time>2014-06-01T10:23:13.000Z</time>
      </trkpt>
      <trkpt lat="47.51589" lon="6.76315">
        <ele>373.4</ele>
        <time>2014-06-01T10:23:14.000Z</time>
      </trkpt>
      <trkpt lat="47.51591" lon="6.76315">
        <ele>373</ele>
        <time>2014-06-01T10:23:15.000Z</time>
      </trkpt>
      <trkpt lat="47.51595" lon="6.76315">
        <ele>373.8</ele>
        <time>2014-06-01T10:23:17.000Z</time>
      </trkpt>
      <trkpt lat="47.51596" lon="6.76316">
        <ele>374.4</ele>
        <time>2014-06-01T10:23:18.000Z</time>
      </trkpt>
      <trkpt lat="47.516" lon="6.76316">
        <ele>375.7</ele>
        <time>2014-06-01T10:23:20.000Z</time>
      </trkpt>
      <trkpt lat="47.51601" lon="6.76316">
        <ele>374.9</ele>
        <time>2014-06-01T10:23:21.000Z</time>
      </trkpt>
      <trkpt lat="47.51604" lon="6.76314">
        <ele>377.5</ele>
        <time>2014-06-01T10:23:23.000Z</time>
      </trkpt>
      <trkpt lat="47.51606" lon="6.76313">
        <ele>378.2</ele>
        <time>2014-06-01T10:23:24.000Z</time>
      </trkpt>
      <trkpt lat="47.51609" lon="6.76311">
        <ele>378.9</ele>
        <time>2014-06-01T10:23:26.000Z</time>
      </trkpt>
      <trkpt lat="47.51611" lon="6.7631">
        <ele>378.9</ele>
        <time>2014-06-01T10:23:27.000Z</time>
      </trkpt>
      <trkpt lat="47.51614" lon="6.7631">
        <ele>380</ele>
        <time>2014-06-01T10:23:29.000Z</time>
      </trkpt>
      <trkpt lat="47.51616" lon="6.76309">
        <ele>382.3</ele>
        <time>2014-06-01T10:23:30.000Z</time>
      </trkpt>
      <trkpt lat="47.5162" lon="6.76308">
        <ele>381.6</ele>
        <time>2014-06-01T10:23:32.000Z</time>
      </trkpt>
      <trkpt lat="47.51622" lon="6.76307">
        <ele>382</ele>
        <time>2014-06-01T10:23:33.000Z</time>
      </trkpt>
      <trkpt lat="47.51625" lon="6.76304">
        <ele>381.9</ele>
        <time>2014-06-01T10:23:35.000Z</time>
      </trkpt>
      <trkpt lat="47.51627" lon="6.76303">
        <ele>382.7</ele>
        <time>2014-06-01T10:23:36.000Z</time>
      </trkpt>
      <trkpt lat="47.51629" lon="6.76303">
        <ele>382</ele>
        <time>2014-06-01T10:23:37.000Z</time>
      </trkpt>
      <trkpt lat="47.51631" lon="6.76302">
        <ele>382.4</ele>
        <time>2014-06-01T10:23:38.000Z</time>
      </trkpt>
      <trkpt lat="47.51633" lon="6.76302">
        <ele>381.1</ele>
        <time>2014-06-01T10:23:39.000Z</time>
      </trkpt>
      <trkpt lat="47.51636" lon="6.76302">
        <ele>380.8</ele>
        <time>2014-06-01T10:23:40.000Z</time>
      </trkpt>
      <trkpt lat="47.51639" lon="6.76299">
        <ele>380.5</ele>
        <time>2014-06-01T10:23:42.000Z</time>
      </trkpt>
      <trkpt lat="47.5164" lon="6.76297">
        <ele>381.2</ele>
        <time>2014-06-01T10:23:43.000Z</time>
      </trkpt>
      <trkpt lat="47.51644" lon="6.76294">
        <ele>380.9</ele>
        <time>2014-06-01T10:23:45.000Z</time>
      </trkpt>
      <trkpt lat="47.51647" lon="6.76294">
        <ele>381.5</ele>
        <time>2014-06-01T10:23:46.000Z</time>
      </trkpt>
      <trkpt lat="47.5165" lon="6.76294">
        <ele>381.8</ele>
        <time>2014-06-01T10:23:47.000Z</time>
      </trkpt>
      <trkpt lat="47.51653" lon="6.76294">
        <ele>382.7</ele>
        <time>2014-06-01T10:23:48.000Z</time>
      </trkpt>
      <trkpt lat="47.51656" lon="6.76294">
        <ele>383.3</ele>
        <time>2014-06-01T10:23:49.000Z</time>
      </trkpt>
      <trkpt lat="47.51658" lon="6.76292">
        <ele>383.6</ele>
        <time>2014-06-01T10:23:50.000Z</time>
      </trkpt>
      <trkpt lat="47.51662" lon="6.7629">
        <ele>383.6</ele>
        <time>2014-06-01T10:23:52.000Z</time>
      </trkpt>
      <trkpt lat="47.51663" lon="6.76288">
        <ele>384.2</ele>
        <time>2014-06-01T10:23:53.000Z</time>
      </trkpt>
      <trkpt lat="47.51666" lon="6.76287">
        <ele>385.8</ele>
        <time>2014-06-01T10:23:55.000Z</time>
      </trkpt>
      <trkpt lat="47.51668" lon="6.76286">
        <ele>385.9</ele>
        <time>2014-06-01T10:23:56.000Z</time>
      </trkpt>
      <trkpt lat="47.51671" lon="6.76284">
        <ele>386.1</ele>
        <time>2014-06-01T10:23:58.000Z</time>
      </trkpt>
      <trkpt lat="47.51689" lon="6.76277">
        <ele>384.5</ele>
        <time>2014-06-01T10:24:06.000Z</time>
      </trkpt>
      <trkpt lat="47.51693" lon="6.76276">
        <ele>384.1</ele>
        <time>2014-06-01T10:24:10.000Z</time>
      </trkpt>
      <trkpt lat="47.51694" lon="6.76275">
        <ele>385</ele>
        <time>2014-06-01T10:24:11.000Z</time>
      </trkpt>
      <trkpt lat="47.51697" lon="6.76274">
        <ele>385</ele>
        <time>2014-06-01T10:24:12.000Z</time>
      </trkpt>
      <trkpt lat="47.51699" lon="6.76273">
        <ele>385.3</ele>
        <time>2014-06-01T10:24:13.000Z</time>
      </trkpt>
      <trkpt lat="47.51702" lon="6.76271">
        <ele>385.5</ele>
        <time>2014-06-01T10:24:14.000Z</time>
      </trkpt>
      <trkpt lat="47.51704" lon="6.76269">
        <ele>384.6</ele>
        <time>2014-06-01T10:24:15.000Z</time>
      </trkpt>
      <trkpt lat="47.51707" lon="6.76267">
        <ele>384.2</ele>
        <time>2014-06-01T10:24:16.000Z</time>
      </trkpt>
      <trkpt lat="47.51709" lon="6.76266">
        <ele>384</ele>
        <time>2014-06-01T10:24:17.000Z</time>
      </trkpt>
      <trkpt lat="47.51711" lon="6.76264">
        <ele>384.2</ele>
        <time>2014-06-01T10:24:18.000Z</time>
      </trkpt>
      <trkpt lat="47.51713" lon="6.76262">
        <ele>384.3</ele>
        <time>2014-06-01T10:24:19.000Z</time>
      </trkpt>
      <trkpt lat="47.51715" lon="6.76261">
        <ele>384.4</ele>
        <time>2014-06-01T10:24:20.000Z</time>
      </trkpt>
      <trkpt lat="47.51717" lon="6.7626">
        <ele>384.1</ele>
        <time>2014-06-01T10:24:21.000Z</time>
      </trkpt>
      <trkpt lat="47.51721" lon="6.76258">
        <ele>386.1</ele>
        <time>2014-06-01T10:24:23.000Z</time>
      </trkpt>
      <trkpt lat="47.51724" lon="6.76257">
        <ele>385.9</ele>
        <time>2014-06-01T10:24:24.000Z</time>
      </trkpt>
      <trkpt lat="47.51726" lon="6.76256">
        <ele>385.3</ele>
        <time>2014-06-01T10:24:25.000Z</time>
      </trkpt>
      <trkpt lat="47.51729" lon="6.76255">
        <ele>385.1</ele>
        <time>2014-06-01T10:24:26.000Z</time>
      </trkpt>
      <trkpt lat="47.51733" lon="6.76255">
        <ele>385.3</ele>
        <time>2014-06-01T10:24:27.000Z</time>
      </trkpt>
      <trkpt lat="47.51737" lon="6.76257">
        <ele>384</ele>
        <time>2014-06-01T10:24:28.000Z</time>
      </trkpt>
      <trkpt lat="47.51742" lon="6.76258">
        <ele>384.2</ele>
        <time>2014-06-01T10:24:29.000Z</time>
      </trkpt>
      <trkpt lat="47.51747" lon="6.7626">
        <ele>384.1</ele>
        <time>2014-06-01T10:24:30.000Z</time>
      </trkpt>
      <trkpt lat="47.51752" lon="6.76262">
        <ele>383.7</ele>
        <time>2014-06-01T10:24:31.000Z</time>
      </trkpt>
      <trkpt lat="47.51757" lon="6.76263">
        <ele>383.3</ele>
        <time>2014-06-01T10:24:32.000Z</time>
      </trkpt>
      <trkpt lat="47.51761" lon="6.76266">
        <ele>382.8</ele>
        <time>2014-06-01T10:24:33.000Z</time>
      </trkpt>
      <trkpt lat="47.51764" lon="6.76269">
        <ele>381.7</ele>
        <time>2014-06-01T10:24:34.000Z</time>
      </trkpt>
      <trkpt lat="47.51766" lon="6.76274">
        <ele>379.4</ele>
        <time>2014-06-01T10:24:35.000Z</time>
      </trkpt>
      <trkpt lat="47.51767" lon="6.76279">
        <ele>377.9</ele>
        <time>2014-06-01T10:24:36.000Z</time>
      </trkpt>
      <trkpt lat="47.51767" lon="6.76284">
        <ele>377.4</ele>
        <time>2014-06-01T10:24:37.000Z</time>
      </trkpt>
      <trkpt lat="47.51766" lon="6.7629">
        <ele>377.2</ele>
        <time>2014-06-01T10:24:38.000Z</time>
      </trkpt>
      <trkpt lat="47.51764" lon="6.76295">
        <ele>376.3</ele>
        <time>2014-06-01T10:24:39.000Z</time>
      </trkpt>
      <trkpt lat="47.51762" lon="6.763">
        <ele>374.8</ele>
        <time>2014-06-01T10:24:40.000Z</time>
      </trkpt>
      <trkpt lat="47.51761" lon="6.76305">
        <ele>374.4</ele>
        <time>2014-06-01T10:24:41.000Z</time>
      </trkpt>
      <trkpt lat="47.51759" lon="6.7631">
        <ele>374.4</ele>
        <time>2014-06-01T10:24:42.000Z</time>
      </trkpt>
      <trkpt lat="47.51758" lon="6.76315">
        <ele>373.7</ele>
        <time>2014-06-01T10:24:43.000Z</time>
      </trkpt>
      <trkpt lat="47.51757" lon="6.76319">
        <ele>373.4</ele>
        <time>2014-06-01T10:24:44.000Z</time>
      </trkpt>
      <trkpt lat="47.51757" lon="6.76324">
        <ele>372.9</ele>
        <time>2014-06-01T10:24:45.000Z</time>
      </trkpt>
      <trkpt lat="47.51758" lon="6.76327">
        <ele>371.9</ele>
        <time>2014-06-01T10:24:46.000Z</time>
      </trkpt>
      <trkpt lat="47.51761" lon="6.76331">
        <ele>371.4</ele>
        <time>2014-06-01T10:24:47.000Z</time>
      </trkpt>
      <trkpt lat="47.51765" lon="6.76333">
        <ele>371.4</ele>
        <time>2014-06-01T10:24:48.000Z</time>
      </trkpt>
      <trkpt lat="47.51768" lon="6.76335">
        <ele>371.4</ele>
        <time>2014-06-01T10:24:49.000Z</time>
      </trkpt>
      <trkpt lat="47.51771" lon="6.76337">
        <ele>371.3</ele>
        <time>2014-06-01T10:24:50.000Z</time>
      </trkpt>
      <trkpt lat="47.51774" lon="6.76338">
        <ele>371.5</ele>
        <time>2014-06-01T10:24:51.000Z</time>
      </trkpt>
      <trkpt lat="47.51777" lon="6.76339">
        <ele>371.4</ele>
        <time>2014-06-01T10:24:52.000Z</time>
      </trkpt>
      <trkpt lat="47.5178" lon="6.7634">
        <ele>371.9</ele>
        <time>2014-06-01T10:24:53.000Z</time>
      </trkpt>
      <trkpt lat="47.51784" lon="6.76342">
        <ele>370.2</ele>
        <time>2014-06-01T10:24:54.000Z</time>
      </trkpt>
      <trkpt lat="47.51789" lon="6.76344">
        <ele>370.6</ele>
        <time>2014-06-01T10:24:55.000Z</time>
      </trkpt>
      <trkpt lat="47.51793" lon="6.76347">
        <ele>370.6</ele>
        <time>2014-06-01T10:24:56.000Z</time>
      </trkpt>
      <trkpt lat="47.51798" lon="6.76348">
        <ele>371.5</ele>
        <time>2014-06-01T10:24:57.000Z</time>
      </trkpt>
      <trkpt lat="47.51802" lon="6.76349">
        <ele>372.3</ele>
        <time>2014-06-01T10:24:58.000Z</time>
      </trkpt>
      <trkpt lat="47.51809" lon="6.7635">
        <ele>371.1</ele>
        <time>2014-06-01T10:25:01.000Z</time>
      </trkpt>
      <trkpt lat="47.51811" lon="6.7635">
        <ele>371.9</ele>
        <time>2014-06-01T10:25:02.000Z</time>
      </trkpt>
      <trkpt lat="47.51814" lon="6.76349">
        <ele>371.8</ele>
        <time>2014-06-01T10:25:03.000Z</time>
      </trkpt>
      <trkpt lat="47.51817" lon="6.76348">
        <ele>372.2</ele>
        <time>2014-06-01T10:25:04.000Z</time>
      </trkpt>
      <trkpt lat="47.51821" lon="6.76347">
        <ele>376.7</ele>
        <time>2014-06-01T10:25:05.000Z</time>
      </trkpt>
      <trkpt lat="47.51825" lon="6.76345">
        <ele>377.1</ele>
        <time>2014-06-01T10:25:06.000Z</time>
      </trkpt>
      <trkpt lat="47.5183" lon="6.76343">
        <ele>377.8</ele>
        <time>2014-06-01T10:25:07.000Z</time>
      </trkpt>
      <trkpt lat="47.51833" lon="6.76342">
        <ele>374.4</ele>
        <time>2014-06-01T10:25:08.000Z</time>
      </trkpt>
      <trkpt lat="47.51837" lon="6.76342">
        <ele>372.7</ele>
        <time>2014-06-01T10:25:09.000Z</time>
      </trkpt>
      <trkpt lat="47.5184" lon="6.76341">
        <ele>371.7</ele>
        <time>2014-06-01T10:25:09.999Z</time>
      </trkpt>
      <trkpt lat="47.51844" lon="6.76342">
        <ele>371.4</ele>
        <time>2014-06-01T10:25:11.000Z</time>
      </trkpt>
      <trkpt lat="47.51847" lon="6.76342">
        <ele>372.1</ele>
        <time>2014-06-01T10:25:12.000Z</time>
      </trkpt>
      <trkpt lat="47.5185" lon="6.76342">
        <ele>372.1</ele>
        <time>2014-06-01T10:25:13.000Z</time>
      </trkpt>
      <trkpt lat="47.51853" lon="6.76342">
        <ele>372.1</ele>
        <time>2014-06-01T10:25:14.000Z</time>
      </trkpt>
      <trkpt lat="47.51856" lon="6.76342">
        <ele>371.6</ele>
        <time>2014-06-01T10:25:15.000Z</time>
      </trkpt>
      <trkpt lat="47.51859" lon="6.76342">
        <ele>372.5</ele>
        <time>2014-06-01T10:25:17.000Z</time>
      </trkpt>
      <trkpt lat="47.51861" lon="6.76342">
        <ele>372.8</ele>
        <time>2014-06-01T10:25:18.000Z</time>
      </trkpt>
      <trkpt lat="47.51864" lon="6.76341">
        <ele>373.2</ele>
        <time>2014-06-01T10:25:20.000Z</time>
      </trkpt>
      <trkpt lat="47.51866" lon="6.7634">
        <ele>372.7</ele>
        <time>2014-06-01T10:25:21.000Z</time>
      </trkpt>
      <trkpt lat="47.5187" lon="6.76338">
        <ele>372.7</ele>
        <time>2014-06-01T10:25:23.000Z</time>
      </trkpt>
      <trkpt lat="47.51872" lon="6.76337">
        <ele>372.7</ele>
        <time>2014-06-01T10:25:24.000Z</time>
      </trkpt>
      <trkpt lat="47.51875" lon="6.76336">
        <ele>372.5</ele>
        <time>2014-06-01T10:25:26.045Z</time>
      </trkpt>
      <trkpt lat="47.51879" lon="6.76335">
        <ele>371.2</ele>
        <time>2014-06-01T10:25:27.000Z</time>
      </trkpt>
      <trkpt lat="47.51882" lon="6.76334">
        <ele>370.8</ele>
        <time>2014-06-01T10:25:28.000Z</time>
      </trkpt>
      <trkpt lat="47.51884" lon="6.76332">
        <ele>370.6</ele>
        <time>2014-06-01T10:25:29.000Z</time>
      </trkpt>
      <trkpt lat="47.51887" lon="6.76331">
        <ele>370.8</ele>
        <time>2014-06-01T10:25:30.000Z</time>
      </trkpt>
      <trkpt lat="47.51889" lon="6.7633">
        <ele>370.4</ele>
        <time>2014-06-01T10:25:31.000Z</time>
      </trkpt>
      <trkpt lat="47.51891" lon="6.76329">
        <ele>369.7</ele>
        <time>2014-06-01T10:25:32.000Z</time>
      </trkpt>
      <trkpt lat="47.51894" lon="6.76329">
        <ele>373.2</ele>
        <time>2014-06-01T10:25:33.000Z</time>
      </trkpt>
      <trkpt lat="47.51897" lon="6.76328">
        <ele>374.3</ele>
        <time>2014-06-01T10:25:34.000Z</time>
      </trkpt>
      <trkpt lat="47.519" lon="6.76329">
        <ele>375.7</ele>
        <time>2014-06-01T10:25:35.000Z</time>
      </trkpt>
      <trkpt lat="47.51902" lon="6.76329">
        <ele>375.7</ele>
        <time>2014-06-01T10:25:36.000Z</time>
      </trkpt>
      <trkpt lat="47.51905" lon="6.76329">
        <ele>375.5</ele>
        <time>2014-06-01T10:25:37.000Z</time>
      </trkpt>
      <trkpt lat="47.51908" lon="6.7633">
        <ele>376.3</ele>
        <time>2014-06-01T10:25:38.000Z</time>
      </trkpt>
      <trkpt lat="47.51911" lon="6.7633">
        <ele>376.1</ele>
        <time>2014-06-01T10:25:39.000Z</time>
      </trkpt>
      <trkpt lat="47.51913" lon="6.7633">
        <ele>376.2</ele>
        <time>2014-06-01T10:25:40.039Z</time>
      </trkpt>
      <trkpt lat="47.51917" lon="6.76331">
        <ele>376.8</ele>
        <time>2014-06-01T10:25:41.000Z</time>
      </trkpt>
      <trkpt lat="47.51919" lon="6.76331">
        <ele>376.7</ele>
        <time>2014-06-01T10:25:41.999Z</time>
      </trkpt>
      <trkpt lat="47.51923" lon="6.76335">
        <ele>375.6</ele>
        <time>2014-06-01T10:25:43.000Z</time>
      </trkpt>
      <trkpt lat="47.51926" lon="6.76338">
        <ele>374.2</ele>
        <time>2014-06-01T10:25:44.000Z</time>
      </trkpt>
      <trkpt lat="47.51927" lon="6.76344">
        <ele>371.9</ele>
        <time>2014-06-01T10:25:45.000Z</time>
      </trkpt>
      <trkpt lat="47.51928" lon="6.76351">
        <ele>372.4</ele>
        <time>2014-06-01T10:25:46.000Z</time>
      </trkpt>
      <trkpt lat="47.51929" lon="6.76358">
        <ele>374.7</ele>
        <time>2014-06-01T10:25:47.000Z</time>
      </trkpt>
      <trkpt lat="47.5193" lon="6.76366">
        <ele>375.8</ele>
        <time>2014-06-01T10:25:48.000Z</time>
      </trkpt>
      <trkpt lat="47.51931" lon="6.76373">
        <ele>376.7</ele>
        <time>2014-06-01T10:25:49.000Z</time>
      </trkpt>
      <trkpt lat="47.5193" lon="6.76379">
        <ele>377.7</ele>
        <time>2014-06-01T10:25:50.000Z</time>
      </trkpt>
      <trkpt lat="47.5193" lon="6.76386">
        <ele>377.5</ele>
        <time>2014-06-01T10:25:51.000Z</time>
      </trkpt>
      <trkpt lat="47.51935" lon="6.76401">
        <ele>377.6</ele>
        <time>2014-06-01T10:25:52.000Z</time>
      </trkpt>
      <trkpt lat="47.51934" lon="6.76407">
        <ele>377.7</ele>
        <time>2014-06-01T10:25:53.000Z</time>
      </trkpt>
      <trkpt lat="47.51932" lon="6.76414">
        <ele>377.6</ele>
        <time>2014-06-01T10:25:54.000Z</time>
      </trkpt>
      <trkpt lat="47.51929" lon="6.76421">
        <ele>377.9</ele>
        <time>2014-06-01T10:25:55.000Z</time>
      </trkpt>
      <trkpt lat="47.51926" lon="6.76428">
        <ele>377.6</ele>
        <time>2014-06-01T10:25:56.038Z</time>
      </trkpt>
      <trkpt lat="47.51926" lon="6.76436">
        <ele>378.4</ele>
        <time>2014-06-01T10:25:57.000Z</time>
      </trkpt>
      <trkpt lat="47.51923" lon="6.76443">
        <ele>378.1</ele>
        <time>2014-06-01T10:25:58.000Z</time>
      </trkpt>
      <trkpt lat="47.51917" lon="6.76469">
        <ele>380.1</ele>
        <time>2014-06-01T10:26:01.000Z</time>
      </trkpt>
      <trkpt lat="47.51915" lon="6.7648">
        <ele>379.5</ele>
        <time>2014-06-01T10:26:02.000Z</time>
      </trkpt>
      <trkpt lat="47.51913" lon="6.76491">
        <ele>379.4</ele>
        <time>2014-06-01T10:26:03.000Z</time>
      </trkpt>
      <trkpt lat="47.5191" lon="6.76501">
        <ele>379.7</ele>
        <time>2014-06-01T10:26:04.000Z</time>
      </trkpt>
      <trkpt lat="47.51908" lon="6.76511">
        <ele>378.2</ele>
        <time>2014-06-01T10:26:05.000Z</time>
      </trkpt>
      <trkpt lat="47.51905" lon="6.76521">
        <ele>378.1</ele>
        <time>2014-06-01T10:26:06.000Z</time>
      </trkpt>
      <trkpt lat="47.51903" lon="6.7653">
        <ele>377.2</ele>
        <time>2014-06-01T10:26:07.000Z</time>
      </trkpt>
      <trkpt lat="47.519" lon="6.76539">
        <ele>376.6</ele>
        <time>2014-06-01T10:26:08.000Z</time>
      </trkpt>
      <trkpt lat="47.51897" lon="6.76549">
        <ele>376.2</ele>
        <time>2014-06-01T10:26:09.000Z</time>
      </trkpt>
      <trkpt lat="47.51894" lon="6.76559">
        <ele>375</ele>
        <time>2014-06-01T10:26:10.000Z</time>
      </trkpt>
      <trkpt lat="47.51891" lon="6.76568">
        <ele>374.7</ele>
        <time>2014-06-01T10:26:11.000Z</time>
      </trkpt>
      <trkpt lat="47.51887" lon="6.76578">
        <ele>374.5</ele>
        <time>2014-06-01T10:26:12.000Z</time>
      </trkpt>
      <trkpt lat="47.51885" lon="6.76587">
        <ele>374.9</ele>
        <time>2014-06-01T10:26:13.000Z</time>
      </trkpt>
      <trkpt lat="47.51882" lon="6.76598">
        <ele>374</ele>
        <time>2014-06-01T10:26:14.000Z</time>
      </trkpt>
      <trkpt lat="47.5188" lon="6.76608">
        <ele>373.9</ele>
        <time>2014-06-01T10:26:15.000Z</time>
      </trkpt>
      <trkpt lat="47.51878" lon="6.76619">
        <ele>374</ele>
        <time>2014-06-01T10:26:16.000Z</time>
      </trkpt>
      <trkpt lat="47.51876" lon="6.76629">
        <ele>373.9</ele>
        <time>2014-06-01T10:26:17.000Z</time>
      </trkpt>
      <trkpt lat="47.51874" lon="6.7664">
        <ele>374.1</ele>
        <time>2014-06-01T10:26:18.000Z</time>
      </trkpt>
      <trkpt lat="47.51872" lon="6.76651">
        <ele>374.1</ele>
        <time>2014-06-01T10:26:19.000Z</time>
      </trkpt>
      <trkpt lat="47.5187" lon="6.76662">
        <ele>374.3</ele>
        <time>2014-06-01T10:26:20.000Z</time>
      </trkpt>
      <trkpt lat="47.51868" lon="6.76672">
        <ele>374.4</ele>
        <time>2014-06-01T10:26:21.000Z</time>
      </trkpt>
      <trkpt lat="47.51866" lon="6.76682">
        <ele>374.2</ele>
        <time>2014-06-01T10:26:22.000Z</time>
      </trkpt>
      <trkpt lat="47.51864" lon="6.76694">
        <ele>374.4</ele>
        <time>2014-06-01T10:26:23.000Z</time>
      </trkpt>
      <trkpt lat="47.51862" lon="6.76704">
        <ele>374.4</ele>
        <time>2014-06-01T10:26:24.000Z</time>
      </trkpt>
      <trkpt lat="47.5186" lon="6.76714">
        <ele>374</ele>
        <time>2014-06-01T10:26:25.000Z</time>
      </trkpt>
      <trkpt lat="47.51858" lon="6.76725">
        <ele>373.4</ele>
        <time>2014-06-01T10:26:26.000Z</time>
      </trkpt>
      <trkpt lat="47.51856" lon="6.76736">
        <ele>373.3</ele>
        <time>2014-06-01T10:26:27.000Z</time>
      </trkpt>
      <trkpt lat="47.51854" lon="6.76746">
        <ele>373.5</ele>
        <time>2014-06-01T10:26:28.000Z</time>
      </trkpt>
      <trkpt lat="47.51853" lon="6.76756">
        <ele>373.6</ele>
        <time>2014-06-01T10:26:29.000Z</time>
      </trkpt>
      <trkpt lat="47.51851" lon="6.76766">
        <ele>373.4</ele>
        <time>2014-06-01T10:26:30.000Z</time>
      </trkpt>
      <trkpt lat="47.5185" lon="6.76776">
        <ele>373.5</ele>
        <time>2014-06-01T10:26:31.000Z</time>
      </trkpt>
      <trkpt lat="47.51848" lon="6.76786">
        <ele>373.2</ele>
        <time>2014-06-01T10:26:32.000Z</time>
      </trkpt>
      <trkpt lat="47.51846" lon="6.76796">
        <ele>372.9</ele>
        <time>2014-06-01T10:26:33.000Z</time>
      </trkpt>
      <trkpt lat="47.51844" lon="6.76806">
        <ele>372.4</ele>
        <time>2014-06-01T10:26:34.000Z</time>
      </trkpt>
      <trkpt lat="47.51842" lon="6.76816">
        <ele>371.9</ele>
        <time>2014-06-01T10:26:35.000Z</time>
      </trkpt>
      <trkpt lat="47.5184" lon="6.76827">
        <ele>373</ele>
        <time>2014-06-01T10:26:36.000Z</time>
      </trkpt>
      <trkpt lat="47.51838" lon="6.76838">
        <ele>373.2</ele>
        <time>2014-06-01T10:26:37.000Z</time>
      </trkpt>
      <trkpt lat="47.51836" lon="6.76849">
        <ele>372.8</ele>
        <time>2014-06-01T10:26:38.000Z</time>
      </trkpt>
      <trkpt lat="47.51835" lon="6.7686">
        <ele>372.8</ele>
        <time>2014-06-01T10:26:39.000Z</time>
      </trkpt>
      <trkpt lat="47.51833" lon="6.76871">
        <ele>372.6</ele>
        <time>2014-06-01T10:26:40.000Z</time>
      </trkpt>
      <trkpt lat="47.51832" lon="6.76882">
        <ele>372.6</ele>
        <time>2014-06-01T10:26:41.000Z</time>
      </trkpt>
      <trkpt lat="47.51831" lon="6.76893">
        <ele>372.9</ele>
        <time>2014-06-01T10:26:42.000Z</time>
      </trkpt>
      <trkpt lat="47.51829" lon="6.76904">
        <ele>373.1</ele>
        <time>2014-06-01T10:26:43.000Z</time>
      </trkpt>
      <trkpt lat="47.51829" lon="6.76913">
        <ele>374.8</ele>
        <time>2014-06-01T10:26:44.000Z</time>
      </trkpt>
      <trkpt lat="47.51827" lon="6.76923">
        <ele>375.1</ele>
        <time>2014-06-01T10:26:45.000Z</time>
      </trkpt>
      <trkpt lat="47.51826" lon="6.76932">
        <ele>375.6</ele>
        <time>2014-06-01T10:26:46.000Z</time>
      </trkpt>
      <trkpt lat="47.51825" lon="6.76941">
        <ele>376.1</ele>
        <time>2014-06-01T10:26:47.000Z</time>
      </trkpt>
      <trkpt lat="47.51823" lon="6.76949">
        <ele>376.5</ele>
        <time>2014-06-01T10:26:48.000Z</time>
      </trkpt>
      <trkpt lat="47.51822" lon="6.76958">
        <ele>376.4</ele>
        <time>2014-06-01T10:26:49.000Z</time>
      </trkpt>
      <trkpt lat="47.5182" lon="6.76967">
        <ele>376.5</ele>
        <time>2014-06-01T10:26:50.000Z</time>
      </trkpt>
      <trkpt lat="47.51818" lon="6.76975">
        <ele>376.3</ele>
        <time>2014-06-01T10:26:51.000Z</time>
      </trkpt>
      <trkpt lat="47.51817" lon="6.76984">
        <ele>376.3</ele>
        <time>2014-06-01T10:26:52.000Z</time>
      </trkpt>
      <trkpt lat="47.51815" lon="6.76992">
        <ele>375.9</ele>
        <time>2014-06-01T10:26:53.000Z</time>
      </trkpt>
      <trkpt lat="47.51813" lon="6.77">
        <ele>376.1</ele>
        <time>2014-06-01T10:26:54.000Z</time>
      </trkpt>
      <trkpt lat="47.51811" lon="6.77008">
        <ele>376.8</ele>
        <time>2014-06-01T10:26:55.000Z</time>
      </trkpt>
      <trkpt lat="47.51809" lon="6.77015">
        <ele>376.9</ele>
        <time>2014-06-01T10:26:56.000Z</time>
      </trkpt>
      <trkpt lat="47.51807" lon="6.7702">
        <ele>376.8</ele>
        <time>2014-06-01T10:26:57.000Z</time>
      </trkpt>
      <trkpt lat="47.51805" lon="6.77026">
        <ele>377.2</ele>
        <time>2014-06-01T10:26:58.000Z</time>
      </trkpt>
      <trkpt lat="47.518" lon="6.77068">
        <ele>381.6</ele>
        <time>2014-06-01T10:27:06.000Z</time>
      </trkpt>
      <trkpt lat="47.518" lon="6.77073">
        <ele>381.4</ele>
        <time>2014-06-01T10:27:07.000Z</time>
      </trkpt>
      <trkpt lat="47.518" lon="6.77079">
        <ele>381.9</ele>
        <time>2014-06-01T10:27:08.000Z</time>
      </trkpt>
      <trkpt lat="47.51801" lon="6.77085">
        <ele>382.5</ele>
        <time>2014-06-01T10:27:09.000Z</time>
      </trkpt>
      <trkpt lat="47.518" lon="6.77089">
        <ele>383.3</ele>
        <time>2014-06-01T10:27:10.000Z</time>
      </trkpt>
      <trkpt lat="47.51799" lon="6.77093">
        <ele>384.1</ele>
        <time>2014-06-01T10:27:11.000Z</time>
      </trkpt>
      <trkpt lat="47.51799" lon="6.77097">
        <ele>384.6</ele>
        <time>2014-06-01T10:27:12.000Z</time>
      </trkpt>
      <trkpt lat="47.51798" lon="6.77101">
        <ele>385</ele>
        <time>2014-06-01T10:27:13.000Z</time>
      </trkpt>
      <trkpt lat="47.51797" lon="6.77106">
        <ele>385.4</ele>
        <time>2014-06-01T10:27:14.000Z</time>
      </trkpt>
      <trkpt lat="47.51796" lon="6.77109">
        <ele>383.7</ele>
        <time>2014-06-01T10:27:15.000Z</time>
      </trkpt>
      <trkpt lat="47.51795" lon="6.77113">
        <ele>383</ele>
        <time>2014-06-01T10:27:16.000Z</time>
      </trkpt>
      <trkpt lat="47.51794" lon="6.77116">
        <ele>382.1</ele>
        <time>2014-06-01T10:27:17.000Z</time>
      </trkpt>
      <trkpt lat="47.51793" lon="6.77119">
        <ele>382.4</ele>
        <time>2014-06-01T10:27:18.000Z</time>
      </trkpt>
      <trkpt lat="47.51792" lon="6.77122">
        <ele>381.7</ele>
        <time>2014-06-01T10:27:19.000Z</time>
      </trkpt>
      <trkpt lat="47.51791" lon="6.77126">
        <ele>381.7</ele>
        <time>2014-06-01T10:27:20.000Z</time>
      </trkpt>
      <trkpt lat="47.5179" lon="6.7713">
        <ele>380.2</ele>
        <time>2014-06-01T10:27:21.000Z</time>
      </trkpt>
      <trkpt lat="47.51789" lon="6.77133">
        <ele>378.7</ele>
        <time>2014-06-01T10:27:22.000Z</time>
      </trkpt>
      <trkpt lat="47.51788" lon="6.77137">
        <ele>378.9</ele>
        <time>2014-06-01T10:27:23.000Z</time>
      </trkpt>
      <trkpt lat="47.51787" lon="6.77141">
        <ele>379.6</ele>
        <time>2014-06-01T10:27:24.000Z</time>
      </trkpt>
      <trkpt lat="47.51786" lon="6.77145">
        <ele>380</ele>
        <time>2014-06-01T10:27:25.000Z</time>
      </trkpt>
      <trkpt lat="47.51785" lon="6.77149">
        <ele>380.1</ele>
        <time>2014-06-01T10:27:26.000Z</time>
      </trkpt>
      <trkpt lat="47.51784" lon="6.77153">
        <ele>380.7</ele>
        <time>2014-06-01T10:27:27.000Z</time>
      </trkpt>
      <trkpt lat="47.51784" lon="6.77157">
        <ele>380.9</ele>
        <time>2014-06-01T10:27:28.000Z</time>
      </trkpt>
      <trkpt lat="47.51783" lon="6.77161">
        <ele>381.2</ele>
        <time>2014-06-01T10:27:29.000Z</time>
      </trkpt>
      <trkpt lat="47.51783" lon="6.77165">
        <ele>381.9</ele>
        <time>2014-06-01T10:27:30.000Z</time>
      </trkpt>
      <trkpt lat="47.51782" lon="6.77169">
        <ele>382.1</ele>
        <time>2014-06-01T10:27:31.000Z</time>
      </trkpt>
      <trkpt lat="47.51782" lon="6.77174">
        <ele>382.7</ele>
        <time>2014-06-01T10:27:32.000Z</time>
      </trkpt>
      <trkpt lat="47.51781" lon="6.77178">
        <ele>382.7</ele>
        <time>2014-06-01T10:27:33.000Z</time>
      </trkpt>
      <trkpt lat="47.5178" lon="6.77182">
        <ele>382.4</ele>
        <time>2014-06-01T10:27:34.000Z</time>
      </trkpt>
      <trkpt lat="47.51779" lon="6.77186">
        <ele>382.6</ele>
        <time>2014-06-01T10:27:35.000Z</time>
      </trkpt>
      <trkpt lat="47.51779" lon="6.7719">
        <ele>383.4</ele>
        <time>2014-06-01T10:27:36.000Z</time>
      </trkpt>
      <trkpt lat="47.51778" lon="6.77194">
        <ele>384.1</ele>
        <time>2014-06-01T10:27:37.000Z</time>
      </trkpt>
      <trkpt lat="47.51778" lon="6.77197">
        <ele>384.1</ele>
        <time>2014-06-01T10:27:38.000Z</time>
      </trkpt>
      <trkpt lat="47.51777" lon="6.77202">
        <ele>384.9</ele>
        <time>2014-06-01T10:27:39.000Z</time>
      </trkpt>
      <trkpt lat="47.51777" lon="6.77206">
        <ele>385.9</ele>
        <time>2014-06-01T10:27:40.000Z</time>
      </trkpt>
      <trkpt lat="47.51776" lon="6.7721">
        <ele>386.5</ele>
        <time>2014-06-01T10:27:41.000Z</time>
      </trkpt>
      <trkpt lat="47.51776" lon="6.77214">
        <ele>387.2</ele>
        <time>2014-06-01T10:27:42.000Z</time>
      </trkpt>
      <trkpt lat="47.51775" lon="6.77218">
        <ele>387.4</ele>
        <time>2014-06-01T10:27:43.000Z</time>
      </trkpt>
      <trkpt lat="47.51775" lon="6.77222">
        <ele>387.7</ele>
        <time>2014-06-01T10:27:44.000Z</time>
      </trkpt>
      <trkpt lat="47.51775" lon="6.77226">
        <ele>388.8</ele>
        <time>2014-06-01T10:27:45.000Z</time>
      </trkpt>
      <trkpt lat="47.51775" lon="6.7723">
        <ele>389</ele>
        <time>2014-06-01T10:27:46.000Z</time>
      </trkpt>
      <trkpt lat="47.51774" lon="6.77234">
        <ele>389.4</ele>
        <time>2014-06-01T10:27:47.000Z</time>
      </trkpt>
      <trkpt lat="47.51774" lon="6.77238">
        <ele>390.5</ele>
        <time>2014-06-01T10:27:48.000Z</time>
      </trkpt>
      <trkpt lat="47.51773" lon="6.77242">
        <ele>390</ele>
        <time>2014-06-01T10:27:49.000Z</time>
      </trkpt>
      <trkpt lat="47.51772" lon="6.77246">
        <ele>390.1</ele>
        <time>2014-06-01T10:27:50.000Z</time>
      </trkpt>
      <trkpt lat="47.51771" lon="6.77251">
        <ele>390.7</ele>
        <time>2014-06-01T10:27:51.000Z</time>
      </trkpt>
      <trkpt lat="47.51771" lon="6.77256">
        <ele>392.2</ele>
        <time>2014-06-01T10:27:52.000Z</time>
      </trkpt>
      <trkpt lat="47.5177" lon="6.7726">
        <ele>392.1</ele>
        <time>2014-06-01T10:27:53.000Z</time>
      </trkpt>
      <trkpt lat="47.5177" lon="6.77265">
        <ele>392.4</ele>
        <time>2014-06-01T10:27:54.000Z</time>
      </trkpt>
      <trkpt lat="47.51769" lon="6.77269">
        <ele>392.9</ele>
        <time>2014-06-01T10:27:55.000Z</time>
      </trkpt>
      <trkpt lat="47.51769" lon="6.77273">
        <ele>393.2</ele>
        <time>2014-06-01T10:27:56.000Z</time>
      </trkpt>
      <trkpt lat="47.51768" lon="6.77277">
        <ele>393.5</ele>
        <time>2014-06-01T10:27:57.000Z</time>
      </trkpt>
      <trkpt lat="47.51768" lon="6.77282">
        <ele>393.9</ele>
        <time>2014-06-01T10:27:58.000Z</time>
      </trkpt>
      <trkpt lat="47.51766" lon="6.77294">
        <ele>394.7</ele>
        <time>2014-06-01T10:28:01.000Z</time>
      </trkpt>
      <trkpt lat="47.51765" lon="6.77299">
        <ele>394.2</ele>
        <time>2014-06-01T10:28:02.000Z</time>
      </trkpt>
      <trkpt lat="47.51764" lon="6.77303">
        <ele>394.2</ele>
        <time>2014-06-01T10:28:03.000Z</time>
      </trkpt>
      <trkpt lat="47.51763" lon="6.77308">
        <ele>394.5</ele>
        <time>2014-06-01T10:28:04.000Z</time>
      </trkpt>
      <trkpt lat="47.51762" lon="6.77312">
        <ele>393.8</ele>
        <time>2014-06-01T10:28:05.000Z</time>
      </trkpt>
      <trkpt lat="47.51761" lon="6.77316">
        <ele>394.1</ele>
        <time>2014-06-01T10:28:06.000Z</time>
      </trkpt>
      <trkpt lat="47.5176" lon="6.77321">
        <ele>394.4</ele>
        <time>2014-06-01T10:28:07.000Z</time>
      </trkpt>
      <trkpt lat="47.51759" lon="6.77325">
        <ele>394.7</ele>
        <time>2014-06-01T10:28:08.000Z</time>
      </trkpt>
      <trkpt lat="47.51758" lon="6.7733">
        <ele>394.7</ele>
        <time>2014-06-01T10:28:09.000Z</time>
      </trkpt>
      <trkpt lat="47.51757" lon="6.77334">
        <ele>394.4</ele>
        <time>2014-06-01T10:28:10.000Z</time>
      </trkpt>
      <trkpt lat="47.51756" lon="6.77339">
        <ele>394.3</ele>
        <time>2014-06-01T10:28:11.000Z</time>
      </trkpt>
      <trkpt lat="47.51755" lon="6.77343">
        <ele>394.4</ele>
        <time>2014-06-01T10:28:12.000Z</time>
      </trkpt>
      <trkpt lat="47.51754" lon="6.77347">
        <ele>394.6</ele>
        <time>2014-06-01T10:28:13.000Z</time>
      </trkpt>
      <trkpt lat="47.51753" lon="6.77352">
        <ele>394</ele>
        <time>2014-06-01T10:28:14.000Z</time>
      </trkpt>
      <trkpt lat="47.51753" lon="6.77356">
        <ele>393.5</ele>
        <time>2014-06-01T10:28:15.000Z</time>
      </trkpt>
      <trkpt lat="47.51752" lon="6.77361">
        <ele>393.9</ele>
        <time>2014-06-01T10:28:16.000Z</time>
      </trkpt>
      <trkpt lat="47.51751" lon="6.77366">
        <ele>393.5</ele>
        <time>2014-06-01T10:28:17.000Z</time>
      </trkpt>
      <trkpt lat="47.5175" lon="6.77371">
        <ele>393.5</ele>
        <time>2014-06-01T10:28:18.000Z</time>
      </trkpt>
      <trkpt lat="47.51749" lon="6.77376">
        <ele>394</ele>
        <time>2014-06-01T10:28:19.000Z</time>
      </trkpt>
      <trkpt lat="47.51749" lon="6.77381">
        <ele>394.5</ele>
        <time>2014-06-01T10:28:20.000Z</time>
      </trkpt>
      <trkpt lat="47.51748" lon="6.77387">
        <ele>394.5</ele>
        <time>2014-06-01T10:28:21.000Z</time>
      </trkpt>
      <trkpt lat="47.51747" lon="6.77392">
        <ele>394.9</ele>
        <time>2014-06-01T10:28:22.000Z</time>
      </trkpt>
      <trkpt lat="47.51745" lon="6.77397">
        <ele>394.8</ele>
        <time>2014-06-01T10:28:23.000Z</time>
      </trkpt>
      <trkpt lat="47.51744" lon="6.77403">
        <ele>394.2</ele>
        <time>2014-06-01T10:28:24.000Z</time>
      </trkpt>
      <trkpt lat="47.51743" lon="6.77409">
        <ele>394.7</ele>
        <time>2014-06-01T10:28:25.000Z</time>
      </trkpt>
      <trkpt lat="47.51742" lon="6.77414">
        <ele>394.6</ele>
        <time>2014-06-01T10:28:26.000Z</time>
      </trkpt>
      <trkpt lat="47.51741" lon="6.77419">
        <ele>394.9</ele>
        <time>2014-06-01T10:28:27.000Z</time>
      </trkpt>
      <trkpt lat="47.5174" lon="6.77424">
        <ele>396.3</ele>
        <time>2014-06-01T10:28:28.000Z</time>
      </trkpt>
      <trkpt lat="47.5174" lon="6.77429">
        <ele>396.3</ele>
        <time>2014-06-01T10:28:29.000Z</time>
      </trkpt>
      <trkpt lat="47.51739" lon="6.77434">
        <ele>396.7</ele>
        <time>2014-06-01T10:28:30.000Z</time>
      </trkpt>
      <trkpt lat="47.51738" lon="6.77439">
        <ele>397.3</ele>
        <time>2014-06-01T10:28:31.000Z</time>
      </trkpt>
      <trkpt lat="47.51737" lon="6.77444">
        <ele>397.5</ele>
        <time>2014-06-01T10:28:32.000Z</time>
      </trkpt>
      <trkpt lat="47.51736" lon="6.77449">
        <ele>398.2</ele>
        <time>2014-06-01T10:28:33.000Z</time>
      </trkpt>
      <trkpt lat="47.51735" lon="6.77453">
        <ele>399.2</ele>
        <time>2014-06-01T10:28:34.000Z</time>
      </trkpt>
      <trkpt lat="47.51734" lon="6.77457">
        <ele>397.6</ele>
        <time>2014-06-01T10:28:35.000Z</time>
      </trkpt>
      <trkpt lat="47.51733" lon="6.77462">
        <ele>398.2</ele>
        <time>2014-06-01T10:28:36.000Z</time>
      </trkpt>
      <trkpt lat="47.51733" lon="6.77467">
        <ele>397.8</ele>
        <time>2014-06-01T10:28:37.000Z</time>
      </trkpt>
      <trkpt lat="47.51733" lon="6.77472">
        <ele>397.4</ele>
        <time>2014-06-01T10:28:38.000Z</time>
      </trkpt>
      <trkpt lat="47.51735" lon="6.77476">
        <ele>397.7</ele>
        <time>2014-06-01T10:28:39.000Z</time>
      </trkpt>
      <trkpt lat="47.51738" lon="6.77479">
        <ele>397.5</ele>
        <time>2014-06-01T10:28:40.000Z</time>
      </trkpt>
      <trkpt lat="47.51741" lon="6.7748">
        <ele>397.1</ele>
        <time>2014-06-01T10:28:41.000Z</time>
      </trkpt>
      <trkpt lat="47.51745" lon="6.77481">
        <ele>397</ele>
        <time>2014-06-01T10:28:42.000Z</time>
      </trkpt>
      <trkpt lat="47.51749" lon="6.77481">
        <ele>400.1</ele>
        <time>2014-06-01T10:28:43.000Z</time>
      </trkpt>
      <trkpt lat="47.51753" lon="6.77481">
        <ele>401.1</ele>
        <time>2014-06-01T10:28:44.000Z</time>
      </trkpt>
      <trkpt lat="47.51757" lon="6.77481">
        <ele>400.8</ele>
        <time>2014-06-01T10:28:45.000Z</time>
      </trkpt>
      <trkpt lat="47.5176" lon="6.77481">
        <ele>400.6</ele>
        <time>2014-06-01T10:28:46.000Z</time>
      </trkpt>
      <trkpt lat="47.51764" lon="6.77482">
        <ele>399.5</ele>
        <time>2014-06-01T10:28:47.000Z</time>
      </trkpt>
      <trkpt lat="47.51768" lon="6.77482">
        <ele>398.4</ele>
        <time>2014-06-01T10:28:48.000Z</time>
      </trkpt>
      <trkpt lat="47.51773" lon="6.77482">
        <ele>398.2</ele>
        <time>2014-06-01T10:28:49.000Z</time>
      </trkpt>
      <trkpt lat="47.51777" lon="6.77483">
        <ele>398.1</ele>
        <time>2014-06-01T10:28:50.000Z</time>
      </trkpt>
      <trkpt lat="47.51783" lon="6.77488">
        <ele>397.8</ele>
        <time>2014-06-01T10:28:51.000Z</time>
      </trkpt>
      <trkpt lat="47.51788" lon="6.7749">
        <ele>396.7</ele>
        <time>2014-06-01T10:28:52.000Z</time>
      </trkpt>
      <trkpt lat="47.51792" lon="6.77493">
        <ele>396.6</ele>
        <time>2014-06-01T10:28:53.000Z</time>
      </trkpt>
      <trkpt lat="47.51797" lon="6.77494">
        <ele>395.5</ele>
        <time>2014-06-01T10:28:54.000Z</time>
      </trkpt>
      <trkpt lat="47.51802" lon="6.77494">
        <ele>395.4</ele>
        <time>2014-06-01T10:28:55.000Z</time>
      </trkpt>
      <trkpt lat="47.51805" lon="6.77493">
        <ele>395.6</ele>
        <time>2014-06-01T10:28:56.000Z</time>
      </trkpt>
      <trkpt lat="47.51806" lon="6.77488">
        <ele>395</ele>
        <time>2014-06-01T10:28:57.000Z</time>
      </trkpt>
      <trkpt lat="47.51806" lon="6.77483">
        <ele>394.8</ele>
        <time>2014-06-01T10:28:58.000Z</time>
      </trkpt>
      <trkpt lat="47.51808" lon="6.77472">
        <ele>394.6</ele>
        <time>2014-06-01T10:29:01.000Z</time>
      </trkpt>
      <trkpt lat="47.51805" lon="6.77469">
        <ele>397</ele>
        <time>2014-06-01T10:29:02.000Z</time>
      </trkpt>
      <trkpt lat="47.51804" lon="6.77466">
        <ele>396.3</ele>
        <time>2014-06-01T10:29:03.000Z</time>
      </trkpt>
      <trkpt lat="47.51801" lon="6.77465">
        <ele>396.2</ele>
        <time>2014-06-01T10:29:05.000Z</time>
      </trkpt>
      <trkpt lat="47.51799" lon="6.77463">
        <ele>396.6</ele>
        <time>2014-06-01T10:29:06.000Z</time>
      </trkpt>
      <trkpt lat="47.51795" lon="6.77465">
        <ele>393.4</ele>
        <time>2014-06-01T10:29:25.000Z</time>
      </trkpt>
      <trkpt lat="47.51794" lon="6.77466">
        <ele>394</ele>
        <time>2014-06-01T10:29:26.000Z</time>
      </trkpt>
      <trkpt lat="47.51791" lon="6.77462">
        <ele>395.1</ele>
        <time>2014-06-01T10:30:30.000Z</time>
      </trkpt>
      <trkpt lat="47.51788" lon="6.77461">
        <ele>396.6</ele>
        <time>2014-06-01T10:30:31.000Z</time>
      </trkpt>
      <trkpt lat="47.51785" lon="6.77458">
        <ele>397.8</ele>
        <time>2014-06-01T10:30:33.000Z</time>
      </trkpt>
      <trkpt lat="47.51784" lon="6.7746">
        <ele>398.1</ele>
        <time>2014-06-01T10:30:34.000Z</time>
      </trkpt>
      <trkpt lat="47.5178" lon="6.77461">
        <ele>400.6</ele>
        <time>2014-06-01T10:30:40.000Z</time>
      </trkpt>
      <trkpt lat="47.51779" lon="6.77462">
        <ele>401</ele>
        <time>2014-06-01T10:30:41.000Z</time>
      </trkpt>
      <trkpt lat="47.51783" lon="6.77458">
        <ele>398.6</ele>
        <time>2014-06-01T10:30:51.000Z</time>
      </trkpt>
      <trkpt lat="47.51784" lon="6.77457">
        <ele>398.1</ele>
        <time>2014-06-01T10:30:52.000Z</time>
      </trkpt>
      <trkpt lat="47.51789" lon="6.77457">
        <ele>397.3</ele>
        <time>2014-06-01T10:30:55.000Z</time>
      </trkpt>
      <trkpt lat="47.5179" lon="6.77457">
        <ele>397.2</ele>
        <time>2014-06-01T10:30:56.000Z</time>
      </trkpt>
      <trkpt lat="47.51794" lon="6.77455">
        <ele>397.4</ele>
        <time>2014-06-01T10:31:12.000Z</time>
      </trkpt>
      <trkpt lat="47.51794" lon="6.77455">
        <ele>398.1</ele>
        <time>2014-06-01T10:31:13.000Z</time>
      </trkpt>
      <trkpt lat="47.51799" lon="6.77455">
        <ele>396.1</ele>
        <time>2014-06-01T10:31:30.000Z</time>
      </trkpt>
      <trkpt lat="47.51799" lon="6.77455">
        <ele>396.1</ele>
        <time>2014-06-01T10:31:31.000Z</time>
      </trkpt>
      <trkpt lat="47.51802" lon="6.7746">
        <ele>395.6</ele>
        <time>2014-06-01T10:31:51.000Z</time>
      </trkpt>
      <trkpt lat="47.51802" lon="6.77461">
        <ele>395.5</ele>
        <time>2014-06-01T10:31:52.000Z</time>
      </trkpt>
      <trkpt lat="47.51803" lon="6.77466">
        <ele>396.3</ele>
        <time>2014-06-01T10:32:38.000Z</time>
      </trkpt>
    </trkseg>
  </trk>
</gpx>